<?xml version="1.0"?>
<gpx
 version="1.1"
 creator="Satmap Active 20"
 xmlns:xsi="http://www.w3.org/2001/XMLSchema-instance"
 xmlns="http://www.topografix.com/GPX/1/1"
 xmlns:satmap="http://www.satmap.com/updates/xmlschemas/GpxExtensions/v2/GpxExtensions_v2.xsd"
 xsi:schemaLocation="http://www.topografix.com/GPX/1/1 http://www.topografix.com/GPX/1/1/gpx.xsd">
<metadata>
<time>2023-12-06T10:16:27Z</time>
<extensions>
<satmap:platform>43</satmap:platform>
<satmap:software version="3.13.037">SM15.exe</satmap:software>
<satmap:username>pieter metz</satmap:username>
<satmap:network_ids>
<satmap:network_id type="wifi">00-23-A7-CA-E3-5C</satmap:network_id>
<satmap:network_id type="bluetooth">80-BB-EB-78-4F-29</satmap:network_id>
</satmap:network_ids>
<satmap:snap_type>simple</satmap:snap_type>
</extensions>
</metadata>
<trk>
<name>2023-12-06_1016</name>
<desc>Track 1</desc>
<number>1</number>
<trkseg>
<trkpt lat="51.798394" lon="03.877869"><ele>-4</ele><time>2023-12-06T10:16:27Z</time><name>PT1</name></trkpt>
<trkpt lat="51.798396" lon="03.877873"><ele>-3.9</ele><time>2023-12-06T10:16:31Z</time><name>PT2</name></trkpt>
<trkpt lat="51.798398" lon="03.877878"><ele>-4</ele><time>2023-12-06T10:16:32Z</time><name>PT3</name></trkpt>
<trkpt lat="51.798400" lon="03.877878"><ele>-3.9</ele><time>2023-12-06T10:16:33Z</time><name>PT4</name></trkpt>
<trkpt lat="51.798403" lon="03.877879"><ele>-3.9</ele><time>2023-12-06T10:16:34Z</time><name>PT5</name></trkpt>
<trkpt lat="51.798406" lon="03.877887"><ele>-3.8</ele><time>2023-12-06T10:16:35Z</time><name>PT6</name></trkpt>
<trkpt lat="51.798410" lon="03.877895"><ele>-3.9</ele><time>2023-12-06T10:16:36Z</time><name>PT7</name></trkpt>
<trkpt lat="51.798415" lon="03.877899"><ele>-3.9</ele><time>2023-12-06T10:16:37Z</time><name>PT8</name></trkpt>
<trkpt lat="51.798420" lon="03.877908"><ele>-4.1</ele><time>2023-12-06T10:16:38Z</time><name>PT9</name></trkpt>
<trkpt lat="51.798425" lon="03.877917"><ele>-4.2</ele><time>2023-12-06T10:16:39Z</time><name>PT10</name></trkpt>
<trkpt lat="51.798430" lon="03.877924"><ele>-4.2</ele><time>2023-12-06T10:16:40Z</time><name>PT11</name></trkpt>
<trkpt lat="51.798434" lon="03.877930"><ele>-4.3</ele><time>2023-12-06T10:16:41Z</time><name>PT12</name></trkpt>
<trkpt lat="51.798439" lon="03.877939"><ele>-4.5</ele><time>2023-12-06T10:16:42Z</time><name>PT13</name></trkpt>
<trkpt lat="51.798445" lon="03.877948"><ele>-4.5</ele><time>2023-12-06T10:16:43Z</time><name>PT14</name></trkpt>
<trkpt lat="51.798452" lon="03.877954"><ele>-4.5</ele><time>2023-12-06T10:16:44Z</time><name>PT15</name></trkpt>
<trkpt lat="51.798459" lon="03.877960"><ele>-4.6</ele><time>2023-12-06T10:16:45Z</time><name>PT16</name></trkpt>
<trkpt lat="51.798465" lon="03.877970"><ele>-4.5</ele><time>2023-12-06T10:16:46Z</time><name>PT17</name></trkpt>
<trkpt lat="51.798471" lon="03.877979"><ele>-4.4</ele><time>2023-12-06T10:16:47Z</time><name>PT18</name></trkpt>
<trkpt lat="51.798478" lon="03.877985"><ele>-4.4</ele><time>2023-12-06T10:16:48Z</time><name>PT19</name></trkpt>
<trkpt lat="51.798484" lon="03.877991"><ele>-4.5</ele><time>2023-12-06T10:16:49Z</time><name>PT20</name></trkpt>
<trkpt lat="51.798489" lon="03.878001"><ele>-4.5</ele><time>2023-12-06T10:16:50Z</time><name>PT21</name></trkpt>
<trkpt lat="51.798495" lon="03.878009"><ele>-4.6</ele><time>2023-12-06T10:16:51Z</time><name>PT22</name></trkpt>
<trkpt lat="51.798503" lon="03.878015"><ele>-4.6</ele><time>2023-12-06T10:16:52Z</time><name>PT23</name></trkpt>
<trkpt lat="51.798510" lon="03.878022"><ele>-4.6</ele><time>2023-12-06T10:16:53Z</time><name>PT24</name></trkpt>
<trkpt lat="51.798517" lon="03.878030"><ele>-4.5</ele><time>2023-12-06T10:16:54Z</time><name>PT25</name></trkpt>
<trkpt lat="51.798524" lon="03.878035"><ele>-4.6</ele><time>2023-12-06T10:16:55Z</time><name>PT26</name></trkpt>
<trkpt lat="51.798529" lon="03.878042"><ele>-4.4</ele><time>2023-12-06T10:16:56Z</time><name>PT27</name></trkpt>
<trkpt lat="51.798535" lon="03.878050"><ele>-4.5</ele><time>2023-12-06T10:16:57Z</time><name>PT28</name></trkpt>
<trkpt lat="51.798542" lon="03.878056"><ele>-4.4</ele><time>2023-12-06T10:16:58Z</time><name>PT29</name></trkpt>
<trkpt lat="51.798551" lon="03.878059"><ele>-4.5</ele><time>2023-12-06T10:16:59Z</time><name>PT30</name></trkpt>
<trkpt lat="51.798561" lon="03.878062"><ele>-4.6</ele><time>2023-12-06T10:17:00Z</time><name>PT31</name></trkpt>
<trkpt lat="51.798572" lon="03.878065"><ele>-4.7</ele><time>2023-12-06T10:17:01Z</time><name>PT32</name></trkpt>
<trkpt lat="51.798581" lon="03.878070"><ele>-4.6</ele><time>2023-12-06T10:17:02Z</time><name>PT33</name></trkpt>
<trkpt lat="51.798590" lon="03.878072"><ele>-4.7</ele><time>2023-12-06T10:17:03Z</time><name>PT34</name></trkpt>
<trkpt lat="51.798599" lon="03.878069"><ele>-4.7</ele><time>2023-12-06T10:17:04Z</time><name>PT35</name></trkpt>
<trkpt lat="51.798607" lon="03.878063"><ele>-4.8</ele><time>2023-12-06T10:17:05Z</time><name>PT36</name></trkpt>
<trkpt lat="51.798614" lon="03.878057"><ele>-4.7</ele><time>2023-12-06T10:17:06Z</time><name>PT37</name></trkpt>
<trkpt lat="51.798621" lon="03.878050"><ele>-4.6</ele><time>2023-12-06T10:17:07Z</time><name>PT38</name></trkpt>
<trkpt lat="51.798629" lon="03.878042"><ele>-4.6</ele><time>2023-12-06T10:17:08Z</time><name>PT39</name></trkpt>
<trkpt lat="51.798634" lon="03.878033"><ele>-4.5</ele><time>2023-12-06T10:17:09Z</time><name>PT40</name></trkpt>
<trkpt lat="51.798635" lon="03.878029"><ele>-4.4</ele><time>2023-12-06T10:17:10Z</time><name>PT41</name></trkpt>
<trkpt lat="51.798634" lon="03.878029"><ele>-4.6</ele><time>2023-12-06T10:17:11Z</time><name>PT42</name></trkpt>
<trkpt lat="51.798632" lon="03.878029"><ele>-4.6</ele><time>2023-12-06T10:17:12Z</time><name>PT43</name></trkpt>
<trkpt lat="51.798634" lon="03.878030"><ele>-4.6</ele><time>2023-12-06T10:17:13Z</time><name>PT44</name></trkpt>
<trkpt lat="51.798633" lon="03.878033"><ele>-4.8</ele><time>2023-12-06T10:17:14Z</time><name>PT45</name></trkpt>
<trkpt lat="51.798631" lon="03.878037"><ele>-4.7</ele><time>2023-12-06T10:17:15Z</time><name>PT46</name></trkpt>
<trkpt lat="51.798629" lon="03.878039"><ele>-4.6</ele><time>2023-12-06T10:17:16Z</time><name>PT47</name></trkpt>
<trkpt lat="51.798627" lon="03.878038"><ele>-4.5</ele><time>2023-12-06T10:17:17Z</time><name>PT48</name></trkpt>
<trkpt lat="51.798624" lon="03.878040"><ele>-4.3</ele><time>2023-12-06T10:17:18Z</time><name>PT49</name></trkpt>
<trkpt lat="51.798622" lon="03.878041"><ele>-4.3</ele><time>2023-12-06T10:17:19Z</time><name>PT50</name></trkpt>
<trkpt lat="51.798622" lon="03.878041"><ele>-4.3</ele><time>2023-12-06T10:17:20Z</time><name>PT51</name></trkpt>
<trkpt lat="51.798622" lon="03.878039"><ele>-4.5</ele><time>2023-12-06T10:17:25Z</time><name>PT52</name></trkpt>
<trkpt lat="51.798623" lon="03.878041"><ele>-4.4</ele><time>2023-12-06T10:17:26Z</time><name>PT53</name></trkpt>
<trkpt lat="51.798623" lon="03.878044"><ele>-4.3</ele><time>2023-12-06T10:17:27Z</time><name>PT54</name></trkpt>
<trkpt lat="51.798623" lon="03.878044"><ele>-4.3</ele><time>2023-12-06T10:17:28Z</time><name>PT55</name></trkpt>
<trkpt lat="51.798628" lon="03.878042"><ele>-4.7</ele><time>2023-12-06T10:17:42Z</time><name>PT56</name></trkpt>
<trkpt lat="51.798627" lon="03.878043"><ele>-4.6</ele><time>2023-12-06T10:17:43Z</time><name>PT57</name></trkpt>
<trkpt lat="51.798629" lon="03.878044"><ele>-4.6</ele><time>2023-12-06T10:17:44Z</time><name>PT58</name></trkpt>
<trkpt lat="51.798628" lon="03.878041"><ele>-4.6</ele><time>2023-12-06T10:17:45Z</time><name>PT59</name></trkpt>
<trkpt lat="51.798626" lon="03.878041"><ele>-4.6</ele><time>2023-12-06T10:17:46Z</time><name>PT60</name></trkpt>
<trkpt lat="51.798627" lon="03.878040"><ele>-4.5</ele><time>2023-12-06T10:17:47Z</time><name>PT61</name></trkpt>
<trkpt lat="51.798629" lon="03.878037"><ele>-4.5</ele><time>2023-12-06T10:17:48Z</time><name>PT62</name></trkpt>
<trkpt lat="51.798630" lon="03.878035"><ele>-4.6</ele><time>2023-12-06T10:17:49Z</time><name>PT63</name></trkpt>
<trkpt lat="51.798630" lon="03.878029"><ele>-4.7</ele><time>2023-12-06T10:17:50Z</time><name>PT64</name></trkpt>
<trkpt lat="51.798634" lon="03.878024"><ele>-4.8</ele><time>2023-12-06T10:17:55Z</time><name>PT65</name></trkpt>
<trkpt lat="51.798644" lon="03.878019"><ele>-4.7</ele><time>2023-12-06T10:17:56Z</time><name>PT66</name></trkpt>
<trkpt lat="51.798647" lon="03.878018"><ele>-4.8</ele><time>2023-12-06T10:17:57Z</time><name>PT67</name></trkpt>
<trkpt lat="51.798649" lon="03.878020"><ele>-4.9</ele><time>2023-12-06T10:17:58Z</time><name>PT68</name></trkpt>
<trkpt lat="51.798651" lon="03.878024"><ele>-4.6</ele><time>2023-12-06T10:17:59Z</time><name>PT69</name></trkpt>
<trkpt lat="51.798652" lon="03.878026"><ele>-4.7</ele><time>2023-12-06T10:18:00Z</time><name>PT70</name></trkpt>
<trkpt lat="51.798656" lon="03.878016"><ele>-4.7</ele><time>2023-12-06T10:18:28Z</time><name>PT71</name></trkpt>
<trkpt lat="51.798655" lon="03.878008"><ele>-4.6</ele><time>2023-12-06T10:18:29Z</time><name>PT72</name></trkpt>
<trkpt lat="51.798651" lon="03.877998"><ele>-4.6</ele><time>2023-12-06T10:18:30Z</time><name>PT73</name></trkpt>
<trkpt lat="51.798653" lon="03.877998"><ele>-4.9</ele><time>2023-12-06T10:18:31Z</time><name>PT74</name></trkpt>
<trkpt lat="51.798653" lon="03.877999"><ele>-4.8</ele><time>2023-12-06T10:18:32Z</time><name>PT75</name></trkpt>
<trkpt lat="51.798652" lon="03.877999"><ele>-4.6</ele><time>2023-12-06T10:18:33Z</time><name>PT76</name></trkpt>
<trkpt lat="51.798653" lon="03.878002"><ele>-4.6</ele><time>2023-12-06T10:18:34Z</time><name>PT77</name></trkpt>
<trkpt lat="51.798658" lon="03.878010"><ele>-4.8</ele><time>2023-12-06T10:18:41Z</time><name>PT78</name></trkpt>
<trkpt lat="51.798671" lon="03.878000"><ele>-4.7</ele><time>2023-12-06T10:18:42Z</time><name>PT79</name></trkpt>
<trkpt lat="51.798683" lon="03.877986"><ele>-4.6</ele><time>2023-12-06T10:18:43Z</time><name>PT80</name></trkpt>
<trkpt lat="51.798691" lon="03.877969"><ele>-4.6</ele><time>2023-12-06T10:18:44Z</time><name>PT81</name></trkpt>
<trkpt lat="51.798703" lon="03.877960"><ele>-4.6</ele><time>2023-12-06T10:18:45Z</time><name>PT82</name></trkpt>
<trkpt lat="51.798714" lon="03.877951"><ele>-4.6</ele><time>2023-12-06T10:18:46Z</time><name>PT83</name></trkpt>
<trkpt lat="51.798727" lon="03.877942"><ele>-4.6</ele><time>2023-12-06T10:18:47Z</time><name>PT84</name></trkpt>
<trkpt lat="51.798738" lon="03.877931"><ele>-4.6</ele><time>2023-12-06T10:18:48Z</time><name>PT85</name></trkpt>
<trkpt lat="51.798748" lon="03.877921"><ele>-4.6</ele><time>2023-12-06T10:18:49Z</time><name>PT86</name></trkpt>
<trkpt lat="51.798757" lon="03.877912"><ele>-4.6</ele><time>2023-12-06T10:18:50Z</time><name>PT87</name></trkpt>
<trkpt lat="51.798769" lon="03.877909"><ele>-4.6</ele><time>2023-12-06T10:18:51Z</time><name>PT88</name></trkpt>
<trkpt lat="51.798777" lon="03.877904"><ele>-4.6</ele><time>2023-12-06T10:18:52Z</time><name>PT89</name></trkpt>
<trkpt lat="51.798788" lon="03.877902"><ele>-4.7</ele><time>2023-12-06T10:18:53Z</time><name>PT90</name></trkpt>
<trkpt lat="51.798798" lon="03.877902"><ele>-4.8</ele><time>2023-12-06T10:18:54Z</time><name>PT91</name></trkpt>
<trkpt lat="51.798809" lon="03.877902"><ele>-4.8</ele><time>2023-12-06T10:18:55Z</time><name>PT92</name></trkpt>
<trkpt lat="51.798816" lon="03.877901"><ele>-4.9</ele><time>2023-12-06T10:18:56Z</time><name>PT93</name></trkpt>
<trkpt lat="51.798815" lon="03.877898"><ele>-5.1</ele><time>2023-12-06T10:18:57Z</time><name>PT94</name></trkpt>
<trkpt lat="51.798822" lon="03.877897"><ele>-5.2</ele><time>2023-12-06T10:18:58Z</time><name>PT95</name></trkpt>
<trkpt lat="51.798832" lon="03.877898"><ele>-5.1</ele><time>2023-12-06T10:18:59Z</time><name>PT96</name></trkpt>
<trkpt lat="51.798843" lon="03.877899"><ele>-5</ele><time>2023-12-06T10:19:00Z</time><name>PT97</name></trkpt>
<trkpt lat="51.798857" lon="03.877897"><ele>-4.9</ele><time>2023-12-06T10:19:01Z</time><name>PT98</name></trkpt>
<trkpt lat="51.798870" lon="03.877892"><ele>-4.6</ele><time>2023-12-06T10:19:02Z</time><name>PT99</name></trkpt>
<trkpt lat="51.798882" lon="03.877886"><ele>-4.4</ele><time>2023-12-06T10:19:03Z</time><name>PT100</name></trkpt>
<trkpt lat="51.798892" lon="03.877878"><ele>-4.4</ele><time>2023-12-06T10:19:04Z</time><name>PT101</name></trkpt>
<trkpt lat="51.798898" lon="03.877872"><ele>-4.4</ele><time>2023-12-06T10:19:05Z</time><name>PT102</name></trkpt>
<trkpt lat="51.798905" lon="03.877869"><ele>-4.6</ele><time>2023-12-06T10:19:06Z</time><name>PT103</name></trkpt>
<trkpt lat="51.798911" lon="03.877869"><ele>-4.6</ele><time>2023-12-06T10:19:07Z</time><name>PT104</name></trkpt>
<trkpt lat="51.798913" lon="03.877870"><ele>-4.6</ele><time>2023-12-06T10:19:08Z</time><name>PT105</name></trkpt>
<trkpt lat="51.798914" lon="03.877869"><ele>-4.6</ele><time>2023-12-06T10:19:09Z</time><name>PT106</name></trkpt>
<trkpt lat="51.798912" lon="03.877864"><ele>-4.7</ele><time>2023-12-06T10:19:10Z</time><name>PT107</name></trkpt>
<trkpt lat="51.798913" lon="03.877858"><ele>-4.7</ele><time>2023-12-06T10:19:11Z</time><name>PT108</name></trkpt>
<trkpt lat="51.798913" lon="03.877854"><ele>-4.7</ele><time>2023-12-06T10:19:12Z</time><name>PT109</name></trkpt>
<trkpt lat="51.798914" lon="03.877854"><ele>-4.8</ele><time>2023-12-06T10:19:13Z</time><name>PT110</name></trkpt>
<trkpt lat="51.798915" lon="03.877855"><ele>-4.9</ele><time>2023-12-06T10:19:14Z</time><name>PT111</name></trkpt>
<trkpt lat="51.798918" lon="03.877853"><ele>-4.3</ele><time>2023-12-06T10:19:59Z</time><name>PT112</name></trkpt>
<trkpt lat="51.798916" lon="03.877852"><ele>-4.3</ele><time>2023-12-06T10:20:00Z</time><name>PT113</name></trkpt>
<trkpt lat="51.798911" lon="03.877846"><ele>-4.2</ele><time>2023-12-06T10:20:01Z</time><name>PT114</name></trkpt>
<trkpt lat="51.798910" lon="03.877838"><ele>-4.2</ele><time>2023-12-06T10:20:02Z</time><name>PT115</name></trkpt>
<trkpt lat="51.798909" lon="03.877827"><ele>-4.3</ele><time>2023-12-06T10:20:03Z</time><name>PT116</name></trkpt>
<trkpt lat="51.798909" lon="03.877825"><ele>-4.4</ele><time>2023-12-06T10:20:04Z</time><name>PT117</name></trkpt>
<trkpt lat="51.798909" lon="03.877825"><ele>-4.5</ele><time>2023-12-06T10:20:05Z</time><name>PT118</name></trkpt>
<trkpt lat="51.798908" lon="03.877824"><ele>-4.6</ele><time>2023-12-06T10:20:06Z</time><name>PT119</name></trkpt>
<trkpt lat="51.798910" lon="03.877825"><ele>-4.7</ele><time>2023-12-06T10:20:21Z</time><name>PT120</name></trkpt>
<trkpt lat="51.798911" lon="03.877826"><ele>-4.8</ele><time>2023-12-06T10:20:22Z</time><name>PT121</name></trkpt>
<trkpt lat="51.798913" lon="03.877828"><ele>-4.7</ele><time>2023-12-06T10:20:30Z</time><name>PT122</name></trkpt>
<trkpt lat="51.798911" lon="03.877830"><ele>-4.9</ele><time>2023-12-06T10:20:31Z</time><name>PT123</name></trkpt>
<trkpt lat="51.798912" lon="03.877831"><ele>-4.9</ele><time>2023-12-06T10:20:32Z</time><name>PT124</name></trkpt>
<trkpt lat="51.798913" lon="03.877828"><ele>-4.6</ele><time>2023-12-06T10:20:33Z</time><name>PT125</name></trkpt>
<trkpt lat="51.798907" lon="03.877831"><ele>-4.6</ele><time>2023-12-06T10:20:34Z</time><name>PT126</name></trkpt>
<trkpt lat="51.798904" lon="03.877832"><ele>-4.6</ele><time>2023-12-06T10:20:43Z</time><name>PT127</name></trkpt>
<trkpt lat="51.798906" lon="03.877832"><ele>-4.8</ele><time>2023-12-06T10:20:44Z</time><name>PT128</name></trkpt>
<trkpt lat="51.798906" lon="03.877833"><ele>-4.8</ele><time>2023-12-06T10:20:45Z</time><name>PT129</name></trkpt>
<trkpt lat="51.798907" lon="03.877834"><ele>-4.8</ele><time>2023-12-06T10:20:46Z</time><name>PT130</name></trkpt>
<trkpt lat="51.798912" lon="03.877831"><ele>-4.9</ele><time>2023-12-06T10:20:47Z</time><name>PT131</name></trkpt>
<trkpt lat="51.798919" lon="03.877826"><ele>-4.8</ele><time>2023-12-06T10:20:48Z</time><name>PT132</name></trkpt>
<trkpt lat="51.798928" lon="03.877820"><ele>-4.8</ele><time>2023-12-06T10:20:49Z</time><name>PT133</name></trkpt>
<trkpt lat="51.798937" lon="03.877814"><ele>-4.8</ele><time>2023-12-06T10:20:50Z</time><name>PT134</name></trkpt>
<trkpt lat="51.798947" lon="03.877810"><ele>-4.8</ele><time>2023-12-06T10:20:51Z</time><name>PT135</name></trkpt>
<trkpt lat="51.798958" lon="03.877806"><ele>-4.9</ele><time>2023-12-06T10:20:52Z</time><name>PT136</name></trkpt>
<trkpt lat="51.798969" lon="03.877801"><ele>-4.6</ele><time>2023-12-06T10:20:53Z</time><name>PT137</name></trkpt>
<trkpt lat="51.798978" lon="03.877797"><ele>-4.7</ele><time>2023-12-06T10:20:54Z</time><name>PT138</name></trkpt>
<trkpt lat="51.798989" lon="03.877792"><ele>-4.6</ele><time>2023-12-06T10:20:55Z</time><name>PT139</name></trkpt>
<trkpt lat="51.798999" lon="03.877785"><ele>-4.6</ele><time>2023-12-06T10:20:56Z</time><name>PT140</name></trkpt>
<trkpt lat="51.799010" lon="03.877779"><ele>-4.7</ele><time>2023-12-06T10:20:57Z</time><name>PT141</name></trkpt>
<trkpt lat="51.799020" lon="03.877774"><ele>-4.8</ele><time>2023-12-06T10:20:58Z</time><name>PT142</name></trkpt>
<trkpt lat="51.799032" lon="03.877770"><ele>-4.8</ele><time>2023-12-06T10:20:59Z</time><name>PT143</name></trkpt>
<trkpt lat="51.799043" lon="03.877766"><ele>-4.9</ele><time>2023-12-06T10:21:00Z</time><name>PT144</name></trkpt>
<trkpt lat="51.799054" lon="03.877761"><ele>-5</ele><time>2023-12-06T10:21:01Z</time><name>PT145</name></trkpt>
<trkpt lat="51.799066" lon="03.877755"><ele>-4.9</ele><time>2023-12-06T10:21:02Z</time><name>PT146</name></trkpt>
<trkpt lat="51.799077" lon="03.877751"><ele>-4.9</ele><time>2023-12-06T10:21:03Z</time><name>PT147</name></trkpt>
<trkpt lat="51.799091" lon="03.877746"><ele>-4.8</ele><time>2023-12-06T10:21:04Z</time><name>PT148</name></trkpt>
<trkpt lat="51.799100" lon="03.877741"><ele>-5</ele><time>2023-12-06T10:21:05Z</time><name>PT149</name></trkpt>
<trkpt lat="51.799111" lon="03.877736"><ele>-4.6</ele><time>2023-12-06T10:21:06Z</time><name>PT150</name></trkpt>
<trkpt lat="51.799123" lon="03.877732"><ele>-4.5</ele><time>2023-12-06T10:21:07Z</time><name>PT151</name></trkpt>
<trkpt lat="51.799135" lon="03.877727"><ele>-4.6</ele><time>2023-12-06T10:21:08Z</time><name>PT152</name></trkpt>
<trkpt lat="51.799146" lon="03.877720"><ele>-4.7</ele><time>2023-12-06T10:21:09Z</time><name>PT153</name></trkpt>
<trkpt lat="51.799157" lon="03.877712"><ele>-4.6</ele><time>2023-12-06T10:21:10Z</time><name>PT154</name></trkpt>
<trkpt lat="51.799167" lon="03.877707"><ele>-4.8</ele><time>2023-12-06T10:21:11Z</time><name>PT155</name></trkpt>
<trkpt lat="51.799178" lon="03.877704"><ele>-5.1</ele><time>2023-12-06T10:21:12Z</time><name>PT156</name></trkpt>
<trkpt lat="51.799189" lon="03.877702"><ele>-5</ele><time>2023-12-06T10:21:13Z</time><name>PT157</name></trkpt>
<trkpt lat="51.799201" lon="03.877698"><ele>-5</ele><time>2023-12-06T10:21:14Z</time><name>PT158</name></trkpt>
<trkpt lat="51.799212" lon="03.877694"><ele>-4.9</ele><time>2023-12-06T10:21:15Z</time><name>PT159</name></trkpt>
<trkpt lat="51.799224" lon="03.877690"><ele>-4.8</ele><time>2023-12-06T10:21:16Z</time><name>PT160</name></trkpt>
<trkpt lat="51.799235" lon="03.877685"><ele>-4.7</ele><time>2023-12-06T10:21:17Z</time><name>PT161</name></trkpt>
<trkpt lat="51.799245" lon="03.877680"><ele>-4.6</ele><time>2023-12-06T10:21:18Z</time><name>PT162</name></trkpt>
<trkpt lat="51.799256" lon="03.877676"><ele>-4.7</ele><time>2023-12-06T10:21:19Z</time><name>PT163</name></trkpt>
<trkpt lat="51.799265" lon="03.877669"><ele>-4.7</ele><time>2023-12-06T10:21:20Z</time><name>PT164</name></trkpt>
<trkpt lat="51.799274" lon="03.877663"><ele>-4.7</ele><time>2023-12-06T10:21:21Z</time><name>PT165</name></trkpt>
<trkpt lat="51.799284" lon="03.877657"><ele>-4.8</ele><time>2023-12-06T10:21:22Z</time><name>PT166</name></trkpt>
<trkpt lat="51.799295" lon="03.877651"><ele>-4.8</ele><time>2023-12-06T10:21:23Z</time><name>PT167</name></trkpt>
<trkpt lat="51.799308" lon="03.877647"><ele>-4.6</ele><time>2023-12-06T10:21:24Z</time><name>PT168</name></trkpt>
<trkpt lat="51.799320" lon="03.877641"><ele>-4.7</ele><time>2023-12-06T10:21:25Z</time><name>PT169</name></trkpt>
<trkpt lat="51.799331" lon="03.877637"><ele>-4.6</ele><time>2023-12-06T10:21:26Z</time><name>PT170</name></trkpt>
<trkpt lat="51.799342" lon="03.877633"><ele>-4.8</ele><time>2023-12-06T10:21:27Z</time><name>PT171</name></trkpt>
<trkpt lat="51.799353" lon="03.877629"><ele>-4.7</ele><time>2023-12-06T10:21:28Z</time><name>PT172</name></trkpt>
<trkpt lat="51.799363" lon="03.877625"><ele>-4.9</ele><time>2023-12-06T10:21:29Z</time><name>PT173</name></trkpt>
<trkpt lat="51.799374" lon="03.877621"><ele>-5</ele><time>2023-12-06T10:21:30Z</time><name>PT174</name></trkpt>
<trkpt lat="51.799385" lon="03.877618"><ele>-5.1</ele><time>2023-12-06T10:21:31Z</time><name>PT175</name></trkpt>
<trkpt lat="51.799394" lon="03.877611"><ele>-5</ele><time>2023-12-06T10:21:32Z</time><name>PT176</name></trkpt>
<trkpt lat="51.799401" lon="03.877604"><ele>-5.1</ele><time>2023-12-06T10:21:33Z</time><name>PT177</name></trkpt>
<trkpt lat="51.799422" lon="03.877599"><ele>-5</ele><time>2023-12-06T10:21:35Z</time><name>PT178</name></trkpt>
<trkpt lat="51.799432" lon="03.877599"><ele>-5.1</ele><time>2023-12-06T10:21:36Z</time><name>PT179</name></trkpt>
<trkpt lat="51.799443" lon="03.877597"><ele>-5.1</ele><time>2023-12-06T10:21:37Z</time><name>PT180</name></trkpt>
<trkpt lat="51.799454" lon="03.877595"><ele>-5.2</ele><time>2023-12-06T10:21:38Z</time><name>PT181</name></trkpt>
<trkpt lat="51.799464" lon="03.877593"><ele>-5.1</ele><time>2023-12-06T10:21:39Z</time><name>PT182</name></trkpt>
<trkpt lat="51.799475" lon="03.877586"><ele>-5.1</ele><time>2023-12-06T10:21:40Z</time><name>PT183</name></trkpt>
<trkpt lat="51.799486" lon="03.877579"><ele>-5.1</ele><time>2023-12-06T10:21:41Z</time><name>PT184</name></trkpt>
<trkpt lat="51.799497" lon="03.877572"><ele>-5.1</ele><time>2023-12-06T10:21:42Z</time><name>PT185</name></trkpt>
<trkpt lat="51.799510" lon="03.877566"><ele>-5.1</ele><time>2023-12-06T10:21:43Z</time><name>PT186</name></trkpt>
<trkpt lat="51.799521" lon="03.877559"><ele>-5.1</ele><time>2023-12-06T10:21:44Z</time><name>PT187</name></trkpt>
<trkpt lat="51.799531" lon="03.877550"><ele>-5.1</ele><time>2023-12-06T10:21:45Z</time><name>PT188</name></trkpt>
<trkpt lat="51.799541" lon="03.877541"><ele>-5.1</ele><time>2023-12-06T10:21:46Z</time><name>PT189</name></trkpt>
<trkpt lat="51.799551" lon="03.877533"><ele>-5.1</ele><time>2023-12-06T10:21:47Z</time><name>PT190</name></trkpt>
<trkpt lat="51.799562" lon="03.877526"><ele>-5.2</ele><time>2023-12-06T10:21:48Z</time><name>PT191</name></trkpt>
<trkpt lat="51.799572" lon="03.877519"><ele>-5.1</ele><time>2023-12-06T10:21:49Z</time><name>PT192</name></trkpt>
<trkpt lat="51.799581" lon="03.877513"><ele>-5.1</ele><time>2023-12-06T10:21:50Z</time><name>PT193</name></trkpt>
<trkpt lat="51.799591" lon="03.877507"><ele>-5</ele><time>2023-12-06T10:21:51Z</time><name>PT194</name></trkpt>
<trkpt lat="51.799601" lon="03.877500"><ele>-5.1</ele><time>2023-12-06T10:21:52Z</time><name>PT195</name></trkpt>
<trkpt lat="51.799610" lon="03.877492"><ele>-4.9</ele><time>2023-12-06T10:21:53Z</time><name>PT196</name></trkpt>
<trkpt lat="51.799619" lon="03.877484"><ele>-4.9</ele><time>2023-12-06T10:21:54Z</time><name>PT197</name></trkpt>
<trkpt lat="51.799629" lon="03.877480"><ele>-4.9</ele><time>2023-12-06T10:21:55Z</time><name>PT198</name></trkpt>
<trkpt lat="51.799636" lon="03.877473"><ele>-4.7</ele><time>2023-12-06T10:21:56Z</time><name>PT199</name></trkpt>
<trkpt lat="51.799641" lon="03.877467"><ele>-4.7</ele><time>2023-12-06T10:21:57Z</time><name>PT200</name></trkpt>
<trkpt lat="51.799646" lon="03.877462"><ele>-4.6</ele><time>2023-12-06T10:21:58Z</time><name>PT201</name></trkpt>
<trkpt lat="51.799652" lon="03.877458"><ele>-4.6</ele><time>2023-12-06T10:21:59Z</time><name>PT202</name></trkpt>
<trkpt lat="51.799658" lon="03.877457"><ele>-4.6</ele><time>2023-12-06T10:22:00Z</time><name>PT203</name></trkpt>
<trkpt lat="51.799664" lon="03.877455"><ele>-4.7</ele><time>2023-12-06T10:22:01Z</time><name>PT204</name></trkpt>
<trkpt lat="51.799672" lon="03.877451"><ele>-4.8</ele><time>2023-12-06T10:22:02Z</time><name>PT205</name></trkpt>
<trkpt lat="51.799680" lon="03.877446"><ele>-4.8</ele><time>2023-12-06T10:22:03Z</time><name>PT206</name></trkpt>
<trkpt lat="51.799688" lon="03.877445"><ele>-4.9</ele><time>2023-12-06T10:22:04Z</time><name>PT207</name></trkpt>
<trkpt lat="51.799695" lon="03.877448"><ele>-5</ele><time>2023-12-06T10:22:05Z</time><name>PT208</name></trkpt>
<trkpt lat="51.799704" lon="03.877451"><ele>-4.8</ele><time>2023-12-06T10:22:06Z</time><name>PT209</name></trkpt>
<trkpt lat="51.799712" lon="03.877457"><ele>-4.9</ele><time>2023-12-06T10:22:07Z</time><name>PT210</name></trkpt>
<trkpt lat="51.799718" lon="03.877464"><ele>-4.8</ele><time>2023-12-06T10:22:08Z</time><name>PT211</name></trkpt>
<trkpt lat="51.799725" lon="03.877470"><ele>-4.6</ele><time>2023-12-06T10:22:09Z</time><name>PT212</name></trkpt>
<trkpt lat="51.799730" lon="03.877480"><ele>-4.6</ele><time>2023-12-06T10:22:10Z</time><name>PT213</name></trkpt>
<trkpt lat="51.799733" lon="03.877493"><ele>-4.5</ele><time>2023-12-06T10:22:11Z</time><name>PT214</name></trkpt>
<trkpt lat="51.799737" lon="03.877506"><ele>-4.5</ele><time>2023-12-06T10:22:12Z</time><name>PT215</name></trkpt>
<trkpt lat="51.799740" lon="03.877516"><ele>-4.5</ele><time>2023-12-06T10:22:13Z</time><name>PT216</name></trkpt>
<trkpt lat="51.799742" lon="03.877529"><ele>-4.5</ele><time>2023-12-06T10:22:14Z</time><name>PT217</name></trkpt>
<trkpt lat="51.799745" lon="03.877543"><ele>-4.6</ele><time>2023-12-06T10:22:15Z</time><name>PT218</name></trkpt>
<trkpt lat="51.799749" lon="03.877556"><ele>-4.6</ele><time>2023-12-06T10:22:16Z</time><name>PT219</name></trkpt>
<trkpt lat="51.799753" lon="03.877569"><ele>-4.6</ele><time>2023-12-06T10:22:17Z</time><name>PT220</name></trkpt>
<trkpt lat="51.799756" lon="03.877585"><ele>-4.3</ele><time>2023-12-06T10:22:18Z</time><name>PT221</name></trkpt>
<trkpt lat="51.799756" lon="03.877599"><ele>-4.3</ele><time>2023-12-06T10:22:19Z</time><name>PT222</name></trkpt>
<trkpt lat="51.799757" lon="03.877614"><ele>-4.3</ele><time>2023-12-06T10:22:20Z</time><name>PT223</name></trkpt>
<trkpt lat="51.799761" lon="03.877629"><ele>-4.3</ele><time>2023-12-06T10:22:21Z</time><name>PT224</name></trkpt>
<trkpt lat="51.799765" lon="03.877634"><ele>-4.2</ele><time>2023-12-06T10:22:22Z</time><name>PT225</name></trkpt>
<trkpt lat="51.799770" lon="03.877640"><ele>-4.4</ele><time>2023-12-06T10:22:23Z</time><name>PT226</name></trkpt>
<trkpt lat="51.799775" lon="03.877645"><ele>-4.6</ele><time>2023-12-06T10:22:24Z</time><name>PT227</name></trkpt>
<trkpt lat="51.799782" lon="03.877652"><ele>-4.6</ele><time>2023-12-06T10:22:25Z</time><name>PT228</name></trkpt>
<trkpt lat="51.799786" lon="03.877662"><ele>-4.5</ele><time>2023-12-06T10:22:26Z</time><name>PT229</name></trkpt>
<trkpt lat="51.799791" lon="03.877675"><ele>-4.5</ele><time>2023-12-06T10:22:27Z</time><name>PT230</name></trkpt>
<trkpt lat="51.799796" lon="03.877691"><ele>-4.5</ele><time>2023-12-06T10:22:28Z</time><name>PT231</name></trkpt>
<trkpt lat="51.799799" lon="03.877709"><ele>-4.5</ele><time>2023-12-06T10:22:29Z</time><name>PT232</name></trkpt>
<trkpt lat="51.799802" lon="03.877726"><ele>-4.6</ele><time>2023-12-06T10:22:30Z</time><name>PT233</name></trkpt>
<trkpt lat="51.799805" lon="03.877743"><ele>-4.6</ele><time>2023-12-06T10:22:31Z</time><name>PT234</name></trkpt>
<trkpt lat="51.799809" lon="03.877759"><ele>-4.7</ele><time>2023-12-06T10:22:32Z</time><name>PT235</name></trkpt>
<trkpt lat="51.799811" lon="03.877776"><ele>-4.7</ele><time>2023-12-06T10:22:33Z</time><name>PT236</name></trkpt>
<trkpt lat="51.799812" lon="03.877795"><ele>-4.7</ele><time>2023-12-06T10:22:34Z</time><name>PT237</name></trkpt>
<trkpt lat="51.799814" lon="03.877813"><ele>-4.6</ele><time>2023-12-06T10:22:35Z</time><name>PT238</name></trkpt>
<trkpt lat="51.799817" lon="03.877831"><ele>-4.6</ele><time>2023-12-06T10:22:36Z</time><name>PT239</name></trkpt>
<trkpt lat="51.799820" lon="03.877847"><ele>-4.6</ele><time>2023-12-06T10:22:37Z</time><name>PT240</name></trkpt>
<trkpt lat="51.799824" lon="03.877864"><ele>-4.6</ele><time>2023-12-06T10:22:38Z</time><name>PT241</name></trkpt>
<trkpt lat="51.799828" lon="03.877880"><ele>-4.7</ele><time>2023-12-06T10:22:39Z</time><name>PT242</name></trkpt>
<trkpt lat="51.799834" lon="03.877897"><ele>-5</ele><time>2023-12-06T10:22:40Z</time><name>PT243</name></trkpt>
<trkpt lat="51.799839" lon="03.877915"><ele>-5.1</ele><time>2023-12-06T10:22:41Z</time><name>PT244</name></trkpt>
<trkpt lat="51.799843" lon="03.877933"><ele>-5.2</ele><time>2023-12-06T10:22:42Z</time><name>PT245</name></trkpt>
<trkpt lat="51.799848" lon="03.877950"><ele>-5.2</ele><time>2023-12-06T10:22:43Z</time><name>PT246</name></trkpt>
<trkpt lat="51.799854" lon="03.877969"><ele>-5.2</ele><time>2023-12-06T10:22:44Z</time><name>PT247</name></trkpt>
<trkpt lat="51.799859" lon="03.877988"><ele>-5.1</ele><time>2023-12-06T10:22:45Z</time><name>PT248</name></trkpt>
<trkpt lat="51.799865" lon="03.878008"><ele>-5.1</ele><time>2023-12-06T10:22:46Z</time><name>PT249</name></trkpt>
<trkpt lat="51.799871" lon="03.878025"><ele>-5.2</ele><time>2023-12-06T10:22:47Z</time><name>PT250</name></trkpt>
<trkpt lat="51.799877" lon="03.878043"><ele>-5.1</ele><time>2023-12-06T10:22:48Z</time><name>PT251</name></trkpt>
<trkpt lat="51.799883" lon="03.878060"><ele>-5.1</ele><time>2023-12-06T10:22:49Z</time><name>PT252</name></trkpt>
<trkpt lat="51.799890" lon="03.878077"><ele>-5.1</ele><time>2023-12-06T10:22:50Z</time><name>PT253</name></trkpt>
<trkpt lat="51.799898" lon="03.878092"><ele>-5</ele><time>2023-12-06T10:22:51Z</time><name>PT254</name></trkpt>
<trkpt lat="51.799906" lon="03.878109"><ele>-5</ele><time>2023-12-06T10:22:52Z</time><name>PT255</name></trkpt>
<trkpt lat="51.799914" lon="03.878124"><ele>-5</ele><time>2023-12-06T10:22:53Z</time><name>PT256</name></trkpt>
<trkpt lat="51.799921" lon="03.878138"><ele>-5.1</ele><time>2023-12-06T10:22:54Z</time><name>PT257</name></trkpt>
<trkpt lat="51.799929" lon="03.878153"><ele>-4.9</ele><time>2023-12-06T10:22:55Z</time><name>PT258</name></trkpt>
<trkpt lat="51.799938" lon="03.878168"><ele>-5.1</ele><time>2023-12-06T10:22:56Z</time><name>PT259</name></trkpt>
<trkpt lat="51.799946" lon="03.878182"><ele>-5</ele><time>2023-12-06T10:22:57Z</time><name>PT260</name></trkpt>
<trkpt lat="51.799954" lon="03.878196"><ele>-4.9</ele><time>2023-12-06T10:22:58Z</time><name>PT261</name></trkpt>
<trkpt lat="51.799962" lon="03.878210"><ele>-4.8</ele><time>2023-12-06T10:22:59Z</time><name>PT262</name></trkpt>
<trkpt lat="51.799968" lon="03.878225"><ele>-4.7</ele><time>2023-12-06T10:23:00Z</time><name>PT263</name></trkpt>
<trkpt lat="51.799975" lon="03.878240"><ele>-4.6</ele><time>2023-12-06T10:23:01Z</time><name>PT264</name></trkpt>
<trkpt lat="51.799982" lon="03.878255"><ele>-4.8</ele><time>2023-12-06T10:23:02Z</time><name>PT265</name></trkpt>
<trkpt lat="51.799989" lon="03.878270"><ele>-4.8</ele><time>2023-12-06T10:23:03Z</time><name>PT266</name></trkpt>
<trkpt lat="51.799996" lon="03.878284"><ele>-4.9</ele><time>2023-12-06T10:23:04Z</time><name>PT267</name></trkpt>
<trkpt lat="51.800004" lon="03.878297"><ele>-4.9</ele><time>2023-12-06T10:23:05Z</time><name>PT268</name></trkpt>
<trkpt lat="51.800012" lon="03.878309"><ele>-5</ele><time>2023-12-06T10:23:06Z</time><name>PT269</name></trkpt>
<trkpt lat="51.800020" lon="03.878321"><ele>-5</ele><time>2023-12-06T10:23:07Z</time><name>PT270</name></trkpt>
<trkpt lat="51.800028" lon="03.878335"><ele>-5.1</ele><time>2023-12-06T10:23:08Z</time><name>PT271</name></trkpt>
<trkpt lat="51.800036" lon="03.878350"><ele>-4.9</ele><time>2023-12-06T10:23:09Z</time><name>PT272</name></trkpt>
<trkpt lat="51.800044" lon="03.878363"><ele>-4.8</ele><time>2023-12-06T10:23:10Z</time><name>PT273</name></trkpt>
<trkpt lat="51.800052" lon="03.878375"><ele>-4.8</ele><time>2023-12-06T10:23:11Z</time><name>PT274</name></trkpt>
<trkpt lat="51.800060" lon="03.878388"><ele>-4.6</ele><time>2023-12-06T10:23:12Z</time><name>PT275</name></trkpt>
<trkpt lat="51.800068" lon="03.878404"><ele>-4.6</ele><time>2023-12-06T10:23:13Z</time><name>PT276</name></trkpt>
<trkpt lat="51.800075" lon="03.878420"><ele>-4.9</ele><time>2023-12-06T10:23:14Z</time><name>PT277</name></trkpt>
<trkpt lat="51.800082" lon="03.878437"><ele>-5.1</ele><time>2023-12-06T10:23:15Z</time><name>PT278</name></trkpt>
<trkpt lat="51.800089" lon="03.878455"><ele>-5.2</ele><time>2023-12-06T10:23:16Z</time><name>PT279</name></trkpt>
<trkpt lat="51.800096" lon="03.878471"><ele>-5.2</ele><time>2023-12-06T10:23:17Z</time><name>PT280</name></trkpt>
<trkpt lat="51.800103" lon="03.878484"><ele>-5.1</ele><time>2023-12-06T10:23:18Z</time><name>PT281</name></trkpt>
<trkpt lat="51.800111" lon="03.878498"><ele>-5.1</ele><time>2023-12-06T10:23:19Z</time><name>PT282</name></trkpt>
<trkpt lat="51.800119" lon="03.878510"><ele>-5.1</ele><time>2023-12-06T10:23:20Z</time><name>PT283</name></trkpt>
<trkpt lat="51.800128" lon="03.878524"><ele>-4.8</ele><time>2023-12-06T10:23:21Z</time><name>PT284</name></trkpt>
<trkpt lat="51.800135" lon="03.878537"><ele>-5</ele><time>2023-12-06T10:23:22Z</time><name>PT285</name></trkpt>
<trkpt lat="51.800143" lon="03.878550"><ele>-5.1</ele><time>2023-12-06T10:23:23Z</time><name>PT286</name></trkpt>
<trkpt lat="51.800151" lon="03.878564"><ele>-5.2</ele><time>2023-12-06T10:23:24Z</time><name>PT287</name></trkpt>
<trkpt lat="51.800159" lon="03.878579"><ele>-5.2</ele><time>2023-12-06T10:23:25Z</time><name>PT288</name></trkpt>
<trkpt lat="51.800168" lon="03.878594"><ele>-5.2</ele><time>2023-12-06T10:23:26Z</time><name>PT289</name></trkpt>
<trkpt lat="51.800176" lon="03.878610"><ele>-5.2</ele><time>2023-12-06T10:23:27Z</time><name>PT290</name></trkpt>
<trkpt lat="51.800183" lon="03.878626"><ele>-5.1</ele><time>2023-12-06T10:23:28Z</time><name>PT291</name></trkpt>
<trkpt lat="51.800190" lon="03.878640"><ele>-5</ele><time>2023-12-06T10:23:29Z</time><name>PT292</name></trkpt>
<trkpt lat="51.800197" lon="03.878654"><ele>-5.1</ele><time>2023-12-06T10:23:30Z</time><name>PT293</name></trkpt>
<trkpt lat="51.800204" lon="03.878667"><ele>-5.1</ele><time>2023-12-06T10:23:31Z</time><name>PT294</name></trkpt>
<trkpt lat="51.800212" lon="03.878679"><ele>-5</ele><time>2023-12-06T10:23:32Z</time><name>PT295</name></trkpt>
<trkpt lat="51.800221" lon="03.878693"><ele>-5.1</ele><time>2023-12-06T10:23:33Z</time><name>PT296</name></trkpt>
<trkpt lat="51.800229" lon="03.878707"><ele>-5.1</ele><time>2023-12-06T10:23:34Z</time><name>PT297</name></trkpt>
<trkpt lat="51.800236" lon="03.878720"><ele>-5</ele><time>2023-12-06T10:23:35Z</time><name>PT298</name></trkpt>
<trkpt lat="51.800243" lon="03.878734"><ele>-5.1</ele><time>2023-12-06T10:23:36Z</time><name>PT299</name></trkpt>
<trkpt lat="51.800251" lon="03.878750"><ele>-5.1</ele><time>2023-12-06T10:23:37Z</time><name>PT300</name></trkpt>
<trkpt lat="51.800259" lon="03.878766"><ele>-5</ele><time>2023-12-06T10:23:38Z</time><name>PT301</name></trkpt>
<trkpt lat="51.800267" lon="03.878780"><ele>-5.1</ele><time>2023-12-06T10:23:39Z</time><name>PT302</name></trkpt>
<trkpt lat="51.800274" lon="03.878796"><ele>-5.1</ele><time>2023-12-06T10:23:40Z</time><name>PT303</name></trkpt>
<trkpt lat="51.800281" lon="03.878811"><ele>-5</ele><time>2023-12-06T10:23:41Z</time><name>PT304</name></trkpt>
<trkpt lat="51.800288" lon="03.878828"><ele>-5</ele><time>2023-12-06T10:23:42Z</time><name>PT305</name></trkpt>
<trkpt lat="51.800295" lon="03.878844"><ele>-5.1</ele><time>2023-12-06T10:23:43Z</time><name>PT306</name></trkpt>
<trkpt lat="51.800302" lon="03.878858"><ele>-4.8</ele><time>2023-12-06T10:23:44Z</time><name>PT307</name></trkpt>
<trkpt lat="51.800309" lon="03.878872"><ele>-4.9</ele><time>2023-12-06T10:23:45Z</time><name>PT308</name></trkpt>
<trkpt lat="51.800316" lon="03.878884"><ele>-4.9</ele><time>2023-12-06T10:23:46Z</time><name>PT309</name></trkpt>
<trkpt lat="51.800325" lon="03.878895"><ele>-4.8</ele><time>2023-12-06T10:23:47Z</time><name>PT310</name></trkpt>
<trkpt lat="51.800332" lon="03.878908"><ele>-4.8</ele><time>2023-12-06T10:23:48Z</time><name>PT311</name></trkpt>
<trkpt lat="51.800339" lon="03.878923"><ele>-4.9</ele><time>2023-12-06T10:23:49Z</time><name>PT312</name></trkpt>
<trkpt lat="51.800347" lon="03.878938"><ele>-4.9</ele><time>2023-12-06T10:23:50Z</time><name>PT313</name></trkpt>
<trkpt lat="51.800355" lon="03.878954"><ele>-5</ele><time>2023-12-06T10:23:51Z</time><name>PT314</name></trkpt>
<trkpt lat="51.800363" lon="03.878970"><ele>-5</ele><time>2023-12-06T10:23:52Z</time><name>PT315</name></trkpt>
<trkpt lat="51.800371" lon="03.878985"><ele>-5.2</ele><time>2023-12-06T10:23:53Z</time><name>PT316</name></trkpt>
<trkpt lat="51.800379" lon="03.879000"><ele>-5.1</ele><time>2023-12-06T10:23:54Z</time><name>PT317</name></trkpt>
<trkpt lat="51.800386" lon="03.879015"><ele>-5.1</ele><time>2023-12-06T10:23:55Z</time><name>PT318</name></trkpt>
<trkpt lat="51.800392" lon="03.879030"><ele>-5.2</ele><time>2023-12-06T10:23:56Z</time><name>PT319</name></trkpt>
<trkpt lat="51.800400" lon="03.879046"><ele>-5.3</ele><time>2023-12-06T10:23:57Z</time><name>PT320</name></trkpt>
<trkpt lat="51.800408" lon="03.879061"><ele>-5.2</ele><time>2023-12-06T10:23:58Z</time><name>PT321</name></trkpt>
<trkpt lat="51.800417" lon="03.879075"><ele>-5.4</ele><time>2023-12-06T10:23:59Z</time><name>PT322</name></trkpt>
<trkpt lat="51.800425" lon="03.879090"><ele>-5.4</ele><time>2023-12-06T10:24:00Z</time><name>PT323</name></trkpt>
<trkpt lat="51.800434" lon="03.879104"><ele>-5.2</ele><time>2023-12-06T10:24:01Z</time><name>PT324</name></trkpt>
<trkpt lat="51.800442" lon="03.879116"><ele>-5.2</ele><time>2023-12-06T10:24:02Z</time><name>PT325</name></trkpt>
<trkpt lat="51.800451" lon="03.879128"><ele>-5.2</ele><time>2023-12-06T10:24:03Z</time><name>PT326</name></trkpt>
<trkpt lat="51.800459" lon="03.879141"><ele>-5.1</ele><time>2023-12-06T10:24:04Z</time><name>PT327</name></trkpt>
<trkpt lat="51.800465" lon="03.879156"><ele>-5.3</ele><time>2023-12-06T10:24:05Z</time><name>PT328</name></trkpt>
<trkpt lat="51.800472" lon="03.879172"><ele>-5.2</ele><time>2023-12-06T10:24:06Z</time><name>PT329</name></trkpt>
<trkpt lat="51.800480" lon="03.879189"><ele>-5.1</ele><time>2023-12-06T10:24:07Z</time><name>PT330</name></trkpt>
<trkpt lat="51.800487" lon="03.879205"><ele>-5.2</ele><time>2023-12-06T10:24:08Z</time><name>PT331</name></trkpt>
<trkpt lat="51.800494" lon="03.879218"><ele>-5.1</ele><time>2023-12-06T10:24:09Z</time><name>PT332</name></trkpt>
<trkpt lat="51.800501" lon="03.879232"><ele>-5</ele><time>2023-12-06T10:24:10Z</time><name>PT333</name></trkpt>
<trkpt lat="51.800510" lon="03.879245"><ele>-4.8</ele><time>2023-12-06T10:24:11Z</time><name>PT334</name></trkpt>
<trkpt lat="51.800518" lon="03.879259"><ele>-4.7</ele><time>2023-12-06T10:24:12Z</time><name>PT335</name></trkpt>
<trkpt lat="51.800526" lon="03.879274"><ele>-4.7</ele><time>2023-12-06T10:24:13Z</time><name>PT336</name></trkpt>
<trkpt lat="51.800535" lon="03.879288"><ele>-4.6</ele><time>2023-12-06T10:24:14Z</time><name>PT337</name></trkpt>
<trkpt lat="51.800544" lon="03.879302"><ele>-4.6</ele><time>2023-12-06T10:24:15Z</time><name>PT338</name></trkpt>
<trkpt lat="51.800552" lon="03.879317"><ele>-4.7</ele><time>2023-12-06T10:24:16Z</time><name>PT339</name></trkpt>
<trkpt lat="51.800560" lon="03.879330"><ele>-4.8</ele><time>2023-12-06T10:24:17Z</time><name>PT340</name></trkpt>
<trkpt lat="51.800567" lon="03.879344"><ele>-5</ele><time>2023-12-06T10:24:18Z</time><name>PT341</name></trkpt>
<trkpt lat="51.800575" lon="03.879360"><ele>-5</ele><time>2023-12-06T10:24:19Z</time><name>PT342</name></trkpt>
<trkpt lat="51.800583" lon="03.879376"><ele>-5</ele><time>2023-12-06T10:24:20Z</time><name>PT343</name></trkpt>
<trkpt lat="51.800591" lon="03.879391"><ele>-5</ele><time>2023-12-06T10:24:21Z</time><name>PT344</name></trkpt>
<trkpt lat="51.800599" lon="03.879407"><ele>-5.1</ele><time>2023-12-06T10:24:22Z</time><name>PT345</name></trkpt>
<trkpt lat="51.800605" lon="03.879424"><ele>-5</ele><time>2023-12-06T10:24:23Z</time><name>PT346</name></trkpt>
<trkpt lat="51.800613" lon="03.879441"><ele>-5.1</ele><time>2023-12-06T10:24:24Z</time><name>PT347</name></trkpt>
<trkpt lat="51.800621" lon="03.879459"><ele>-5.1</ele><time>2023-12-06T10:24:25Z</time><name>PT348</name></trkpt>
<trkpt lat="51.800628" lon="03.879474"><ele>-4.9</ele><time>2023-12-06T10:24:26Z</time><name>PT349</name></trkpt>
<trkpt lat="51.800635" lon="03.879489"><ele>-4.9</ele><time>2023-12-06T10:24:27Z</time><name>PT350</name></trkpt>
<trkpt lat="51.800642" lon="03.879502"><ele>-5</ele><time>2023-12-06T10:24:28Z</time><name>PT351</name></trkpt>
<trkpt lat="51.800648" lon="03.879518"><ele>-4.8</ele><time>2023-12-06T10:24:29Z</time><name>PT352</name></trkpt>
<trkpt lat="51.800656" lon="03.879532"><ele>-4.9</ele><time>2023-12-06T10:24:30Z</time><name>PT353</name></trkpt>
<trkpt lat="51.800665" lon="03.879546"><ele>-4.9</ele><time>2023-12-06T10:24:31Z</time><name>PT354</name></trkpt>
<trkpt lat="51.800674" lon="03.879560"><ele>-4.9</ele><time>2023-12-06T10:24:32Z</time><name>PT355</name></trkpt>
<trkpt lat="51.800681" lon="03.879574"><ele>-5</ele><time>2023-12-06T10:24:33Z</time><name>PT356</name></trkpt>
<trkpt lat="51.800689" lon="03.879589"><ele>-4.9</ele><time>2023-12-06T10:24:34Z</time><name>PT357</name></trkpt>
<trkpt lat="51.800697" lon="03.879603"><ele>-5</ele><time>2023-12-06T10:24:35Z</time><name>PT358</name></trkpt>
<trkpt lat="51.800706" lon="03.879618"><ele>-5.1</ele><time>2023-12-06T10:24:36Z</time><name>PT359</name></trkpt>
<trkpt lat="51.800714" lon="03.879632"><ele>-5.1</ele><time>2023-12-06T10:24:37Z</time><name>PT360</name></trkpt>
<trkpt lat="51.800722" lon="03.879645"><ele>-5.1</ele><time>2023-12-06T10:24:38Z</time><name>PT361</name></trkpt>
<trkpt lat="51.800730" lon="03.879658"><ele>-5.1</ele><time>2023-12-06T10:24:39Z</time><name>PT362</name></trkpt>
<trkpt lat="51.800738" lon="03.879672"><ele>-4.9</ele><time>2023-12-06T10:24:40Z</time><name>PT363</name></trkpt>
<trkpt lat="51.800746" lon="03.879686"><ele>-4.8</ele><time>2023-12-06T10:24:41Z</time><name>PT364</name></trkpt>
<trkpt lat="51.800754" lon="03.879700"><ele>-4.9</ele><time>2023-12-06T10:24:42Z</time><name>PT365</name></trkpt>
<trkpt lat="51.800761" lon="03.879715"><ele>-4.8</ele><time>2023-12-06T10:24:43Z</time><name>PT366</name></trkpt>
<trkpt lat="51.800768" lon="03.879731"><ele>-4.9</ele><time>2023-12-06T10:24:44Z</time><name>PT367</name></trkpt>
<trkpt lat="51.800776" lon="03.879748"><ele>-4.8</ele><time>2023-12-06T10:24:45Z</time><name>PT368</name></trkpt>
<trkpt lat="51.800782" lon="03.879765"><ele>-4.8</ele><time>2023-12-06T10:24:46Z</time><name>PT369</name></trkpt>
<trkpt lat="51.800789" lon="03.879779"><ele>-5.1</ele><time>2023-12-06T10:24:47Z</time><name>PT370</name></trkpt>
<trkpt lat="51.800796" lon="03.879792"><ele>-4.9</ele><time>2023-12-06T10:24:48Z</time><name>PT371</name></trkpt>
<trkpt lat="51.800804" lon="03.879804"><ele>-4.9</ele><time>2023-12-06T10:24:49Z</time><name>PT372</name></trkpt>
<trkpt lat="51.800805" lon="03.879806"><ele>-5.1</ele><time>2023-12-06T10:24:50Z</time><name>PT373</name></trkpt>
<trkpt lat="51.800807" lon="03.879811"><ele>-5.1</ele><time>2023-12-06T10:24:51Z</time><name>PT374</name></trkpt>
<trkpt lat="51.800809" lon="03.879812"><ele>-4.9</ele><time>2023-12-06T10:24:52Z</time><name>PT375</name></trkpt>
<trkpt lat="51.800810" lon="03.879814"><ele>-5</ele><time>2023-12-06T10:24:53Z</time><name>PT376</name></trkpt>
<trkpt lat="51.800809" lon="03.879814"><ele>-4.9</ele><time>2023-12-06T10:24:54Z</time><name>PT377</name></trkpt>
<trkpt lat="51.800809" lon="03.879813"><ele>-4.8</ele><time>2023-12-06T10:24:55Z</time><name>PT378</name></trkpt>
<trkpt lat="51.800810" lon="03.879815"><ele>-5</ele><time>2023-12-06T10:24:56Z</time><name>PT379</name></trkpt>
<trkpt lat="51.800813" lon="03.879819"><ele>-4.9</ele><time>2023-12-06T10:24:57Z</time><name>PT380</name></trkpt>
<trkpt lat="51.800818" lon="03.879826"><ele>-4.9</ele><time>2023-12-06T10:24:58Z</time><name>PT381</name></trkpt>
<trkpt lat="51.800824" lon="03.879837"><ele>-5</ele><time>2023-12-06T10:24:59Z</time><name>PT382</name></trkpt>
<trkpt lat="51.800829" lon="03.879852"><ele>-5</ele><time>2023-12-06T10:25:00Z</time><name>PT383</name></trkpt>
<trkpt lat="51.800833" lon="03.879869"><ele>-5</ele><time>2023-12-06T10:25:01Z</time><name>PT384</name></trkpt>
<trkpt lat="51.800839" lon="03.879885"><ele>-5.1</ele><time>2023-12-06T10:25:02Z</time><name>PT385</name></trkpt>
<trkpt lat="51.800847" lon="03.879897"><ele>-5.1</ele><time>2023-12-06T10:25:03Z</time><name>PT386</name></trkpt>
<trkpt lat="51.800853" lon="03.879907"><ele>-5.1</ele><time>2023-12-06T10:25:04Z</time><name>PT387</name></trkpt>
<trkpt lat="51.800861" lon="03.879919"><ele>-5.1</ele><time>2023-12-06T10:25:05Z</time><name>PT388</name></trkpt>
<trkpt lat="51.800869" lon="03.879929"><ele>-5.1</ele><time>2023-12-06T10:25:06Z</time><name>PT389</name></trkpt>
<trkpt lat="51.800876" lon="03.879940"><ele>-5.1</ele><time>2023-12-06T10:25:07Z</time><name>PT390</name></trkpt>
<trkpt lat="51.800883" lon="03.879952"><ele>-5.2</ele><time>2023-12-06T10:25:08Z</time><name>PT391</name></trkpt>
<trkpt lat="51.800890" lon="03.879966"><ele>-5.2</ele><time>2023-12-06T10:25:09Z</time><name>PT392</name></trkpt>
<trkpt lat="51.800897" lon="03.879978"><ele>-5.2</ele><time>2023-12-06T10:25:10Z</time><name>PT393</name></trkpt>
<trkpt lat="51.800904" lon="03.879993"><ele>-5.3</ele><time>2023-12-06T10:25:11Z</time><name>PT394</name></trkpt>
<trkpt lat="51.800911" lon="03.880009"><ele>-5.3</ele><time>2023-12-06T10:25:12Z</time><name>PT395</name></trkpt>
<trkpt lat="51.800918" lon="03.880024"><ele>-5.1</ele><time>2023-12-06T10:25:13Z</time><name>PT396</name></trkpt>
<trkpt lat="51.800923" lon="03.880039"><ele>-5.2</ele><time>2023-12-06T10:25:14Z</time><name>PT397</name></trkpt>
<trkpt lat="51.800930" lon="03.880054"><ele>-5.1</ele><time>2023-12-06T10:25:15Z</time><name>PT398</name></trkpt>
<trkpt lat="51.800939" lon="03.880065"><ele>-5.1</ele><time>2023-12-06T10:25:16Z</time><name>PT399</name></trkpt>
<trkpt lat="51.800946" lon="03.880072"><ele>-5.2</ele><time>2023-12-06T10:25:17Z</time><name>PT400</name></trkpt>
<trkpt lat="51.800953" lon="03.880083"><ele>-5.2</ele><time>2023-12-06T10:25:18Z</time><name>PT401</name></trkpt>
<trkpt lat="51.800961" lon="03.880096"><ele>-5.1</ele><time>2023-12-06T10:25:19Z</time><name>PT402</name></trkpt>
<trkpt lat="51.800970" lon="03.880111"><ele>-5</ele><time>2023-12-06T10:25:20Z</time><name>PT403</name></trkpt>
<trkpt lat="51.800977" lon="03.880126"><ele>-4.9</ele><time>2023-12-06T10:25:21Z</time><name>PT404</name></trkpt>
<trkpt lat="51.800984" lon="03.880142"><ele>-4.9</ele><time>2023-12-06T10:25:22Z</time><name>PT405</name></trkpt>
<trkpt lat="51.800991" lon="03.880157"><ele>-4.8</ele><time>2023-12-06T10:25:23Z</time><name>PT406</name></trkpt>
<trkpt lat="51.800998" lon="03.880171"><ele>-4.9</ele><time>2023-12-06T10:25:24Z</time><name>PT407</name></trkpt>
<trkpt lat="51.801006" lon="03.880188"><ele>-5.1</ele><time>2023-12-06T10:25:25Z</time><name>PT408</name></trkpt>
<trkpt lat="51.801013" lon="03.880205"><ele>-5.1</ele><time>2023-12-06T10:25:26Z</time><name>PT409</name></trkpt>
<trkpt lat="51.801020" lon="03.880221"><ele>-5.1</ele><time>2023-12-06T10:25:27Z</time><name>PT410</name></trkpt>
<trkpt lat="51.801027" lon="03.880236"><ele>-5</ele><time>2023-12-06T10:25:28Z</time><name>PT411</name></trkpt>
<trkpt lat="51.801036" lon="03.880251"><ele>-4.9</ele><time>2023-12-06T10:25:29Z</time><name>PT412</name></trkpt>
<trkpt lat="51.801044" lon="03.880265"><ele>-5</ele><time>2023-12-06T10:25:30Z</time><name>PT413</name></trkpt>
<trkpt lat="51.801052" lon="03.880278"><ele>-5</ele><time>2023-12-06T10:25:31Z</time><name>PT414</name></trkpt>
<trkpt lat="51.801061" lon="03.880290"><ele>-5.1</ele><time>2023-12-06T10:25:32Z</time><name>PT415</name></trkpt>
<trkpt lat="51.801069" lon="03.880303"><ele>-5.1</ele><time>2023-12-06T10:25:33Z</time><name>PT416</name></trkpt>
<trkpt lat="51.801076" lon="03.880317"><ele>-5.1</ele><time>2023-12-06T10:25:34Z</time><name>PT417</name></trkpt>
<trkpt lat="51.801083" lon="03.880331"><ele>-5.1</ele><time>2023-12-06T10:25:35Z</time><name>PT418</name></trkpt>
<trkpt lat="51.801091" lon="03.880346"><ele>-5.1</ele><time>2023-12-06T10:25:36Z</time><name>PT419</name></trkpt>
<trkpt lat="51.801099" lon="03.880362"><ele>-5.1</ele><time>2023-12-06T10:25:37Z</time><name>PT420</name></trkpt>
<trkpt lat="51.801107" lon="03.880377"><ele>-5.3</ele><time>2023-12-06T10:25:38Z</time><name>PT421</name></trkpt>
<trkpt lat="51.801114" lon="03.880393"><ele>-5.1</ele><time>2023-12-06T10:25:39Z</time><name>PT422</name></trkpt>
<trkpt lat="51.801121" lon="03.880409"><ele>-5.1</ele><time>2023-12-06T10:25:40Z</time><name>PT423</name></trkpt>
<trkpt lat="51.801128" lon="03.880424"><ele>-5.1</ele><time>2023-12-06T10:25:41Z</time><name>PT424</name></trkpt>
<trkpt lat="51.801134" lon="03.880439"><ele>-5.1</ele><time>2023-12-06T10:25:42Z</time><name>PT425</name></trkpt>
<trkpt lat="51.801142" lon="03.880451"><ele>-5.2</ele><time>2023-12-06T10:25:43Z</time><name>PT426</name></trkpt>
<trkpt lat="51.801149" lon="03.880463"><ele>-5.3</ele><time>2023-12-06T10:25:44Z</time><name>PT427</name></trkpt>
<trkpt lat="51.801156" lon="03.880477"><ele>-5.2</ele><time>2023-12-06T10:25:45Z</time><name>PT428</name></trkpt>
<trkpt lat="51.801163" lon="03.880492"><ele>-5.1</ele><time>2023-12-06T10:25:46Z</time><name>PT429</name></trkpt>
<trkpt lat="51.801170" lon="03.880507"><ele>-5.1</ele><time>2023-12-06T10:25:47Z</time><name>PT430</name></trkpt>
<trkpt lat="51.801177" lon="03.880523"><ele>-5</ele><time>2023-12-06T10:25:48Z</time><name>PT431</name></trkpt>
<trkpt lat="51.801185" lon="03.880537"><ele>-4.8</ele><time>2023-12-06T10:25:49Z</time><name>PT432</name></trkpt>
<trkpt lat="51.801194" lon="03.880549"><ele>-4.7</ele><time>2023-12-06T10:25:50Z</time><name>PT433</name></trkpt>
<trkpt lat="51.801204" lon="03.880561"><ele>-4.9</ele><time>2023-12-06T10:25:51Z</time><name>PT434</name></trkpt>
<trkpt lat="51.801213" lon="03.880575"><ele>-4.9</ele><time>2023-12-06T10:25:52Z</time><name>PT435</name></trkpt>
<trkpt lat="51.801223" lon="03.880589"><ele>-5</ele><time>2023-12-06T10:25:53Z</time><name>PT436</name></trkpt>
<trkpt lat="51.801232" lon="03.880603"><ele>-5</ele><time>2023-12-06T10:25:54Z</time><name>PT437</name></trkpt>
<trkpt lat="51.801239" lon="03.880616"><ele>-5</ele><time>2023-12-06T10:25:55Z</time><name>PT438</name></trkpt>
<trkpt lat="51.801246" lon="03.880628"><ele>-5</ele><time>2023-12-06T10:25:56Z</time><name>PT439</name></trkpt>
<trkpt lat="51.801251" lon="03.880642"><ele>-5</ele><time>2023-12-06T10:25:57Z</time><name>PT440</name></trkpt>
<trkpt lat="51.801258" lon="03.880658"><ele>-4.8</ele><time>2023-12-06T10:25:58Z</time><name>PT441</name></trkpt>
<trkpt lat="51.801266" lon="03.880674"><ele>-5</ele><time>2023-12-06T10:25:59Z</time><name>PT442</name></trkpt>
<trkpt lat="51.801275" lon="03.880690"><ele>-5.1</ele><time>2023-12-06T10:26:00Z</time><name>PT443</name></trkpt>
<trkpt lat="51.801282" lon="03.880706"><ele>-5.1</ele><time>2023-12-06T10:26:01Z</time><name>PT444</name></trkpt>
<trkpt lat="51.801287" lon="03.880721"><ele>-5.1</ele><time>2023-12-06T10:26:02Z</time><name>PT445</name></trkpt>
<trkpt lat="51.801294" lon="03.880736"><ele>-5.1</ele><time>2023-12-06T10:26:03Z</time><name>PT446</name></trkpt>
<trkpt lat="51.801302" lon="03.880752"><ele>-5.1</ele><time>2023-12-06T10:26:04Z</time><name>PT447</name></trkpt>
<trkpt lat="51.801311" lon="03.880765"><ele>-4.9</ele><time>2023-12-06T10:26:05Z</time><name>PT448</name></trkpt>
<trkpt lat="51.801318" lon="03.880779"><ele>-4.8</ele><time>2023-12-06T10:26:06Z</time><name>PT449</name></trkpt>
<trkpt lat="51.801324" lon="03.880793"><ele>-4.8</ele><time>2023-12-06T10:26:07Z</time><name>PT450</name></trkpt>
<trkpt lat="51.801330" lon="03.880809"><ele>-4.7</ele><time>2023-12-06T10:26:08Z</time><name>PT451</name></trkpt>
<trkpt lat="51.801337" lon="03.880826"><ele>-4.8</ele><time>2023-12-06T10:26:09Z</time><name>PT452</name></trkpt>
<trkpt lat="51.801344" lon="03.880843"><ele>-4.8</ele><time>2023-12-06T10:26:10Z</time><name>PT453</name></trkpt>
<trkpt lat="51.801351" lon="03.880860"><ele>-4.8</ele><time>2023-12-06T10:26:11Z</time><name>PT454</name></trkpt>
<trkpt lat="51.801358" lon="03.880876"><ele>-4.9</ele><time>2023-12-06T10:26:12Z</time><name>PT455</name></trkpt>
<trkpt lat="51.801366" lon="03.880892"><ele>-5</ele><time>2023-12-06T10:26:13Z</time><name>PT456</name></trkpt>
<trkpt lat="51.801373" lon="03.880907"><ele>-5.1</ele><time>2023-12-06T10:26:14Z</time><name>PT457</name></trkpt>
<trkpt lat="51.801380" lon="03.880920"><ele>-5.1</ele><time>2023-12-06T10:26:15Z</time><name>PT458</name></trkpt>
<trkpt lat="51.801386" lon="03.880932"><ele>-4.9</ele><time>2023-12-06T10:26:16Z</time><name>PT459</name></trkpt>
<trkpt lat="51.801395" lon="03.880947"><ele>-4.9</ele><time>2023-12-06T10:26:17Z</time><name>PT460</name></trkpt>
<trkpt lat="51.801405" lon="03.880961"><ele>-5.1</ele><time>2023-12-06T10:26:18Z</time><name>PT461</name></trkpt>
<trkpt lat="51.801413" lon="03.880974"><ele>-5.2</ele><time>2023-12-06T10:26:19Z</time><name>PT462</name></trkpt>
<trkpt lat="51.801421" lon="03.880989"><ele>-5.3</ele><time>2023-12-06T10:26:20Z</time><name>PT463</name></trkpt>
<trkpt lat="51.801428" lon="03.881004"><ele>-5.2</ele><time>2023-12-06T10:26:21Z</time><name>PT464</name></trkpt>
<trkpt lat="51.801435" lon="03.881019"><ele>-5.2</ele><time>2023-12-06T10:26:22Z</time><name>PT465</name></trkpt>
<trkpt lat="51.801442" lon="03.881035"><ele>-5.1</ele><time>2023-12-06T10:26:23Z</time><name>PT466</name></trkpt>
<trkpt lat="51.801448" lon="03.881050"><ele>-4.9</ele><time>2023-12-06T10:26:24Z</time><name>PT467</name></trkpt>
<trkpt lat="51.801455" lon="03.881065"><ele>-4.8</ele><time>2023-12-06T10:26:25Z</time><name>PT468</name></trkpt>
<trkpt lat="51.801462" lon="03.881080"><ele>-4.8</ele><time>2023-12-06T10:26:26Z</time><name>PT469</name></trkpt>
<trkpt lat="51.801470" lon="03.881094"><ele>-4.9</ele><time>2023-12-06T10:26:27Z</time><name>PT470</name></trkpt>
<trkpt lat="51.801478" lon="03.881106"><ele>-4.8</ele><time>2023-12-06T10:26:28Z</time><name>PT471</name></trkpt>
<trkpt lat="51.801486" lon="03.881119"><ele>-4.8</ele><time>2023-12-06T10:26:29Z</time><name>PT472</name></trkpt>
<trkpt lat="51.801494" lon="03.881133"><ele>-4.9</ele><time>2023-12-06T10:26:30Z</time><name>PT473</name></trkpt>
<trkpt lat="51.801502" lon="03.881148"><ele>-4.8</ele><time>2023-12-06T10:26:31Z</time><name>PT474</name></trkpt>
<trkpt lat="51.801509" lon="03.881164"><ele>-4.6</ele><time>2023-12-06T10:26:32Z</time><name>PT475</name></trkpt>
<trkpt lat="51.801516" lon="03.881179"><ele>-4.6</ele><time>2023-12-06T10:26:33Z</time><name>PT476</name></trkpt>
<trkpt lat="51.801523" lon="03.881195"><ele>-4.6</ele><time>2023-12-06T10:26:34Z</time><name>PT477</name></trkpt>
<trkpt lat="51.801530" lon="03.881212"><ele>-4.5</ele><time>2023-12-06T10:26:35Z</time><name>PT478</name></trkpt>
<trkpt lat="51.801538" lon="03.881230"><ele>-4.6</ele><time>2023-12-06T10:26:36Z</time><name>PT479</name></trkpt>
<trkpt lat="51.801546" lon="03.881248"><ele>-4.6</ele><time>2023-12-06T10:26:37Z</time><name>PT480</name></trkpt>
<trkpt lat="51.801553" lon="03.881263"><ele>-4.5</ele><time>2023-12-06T10:26:38Z</time><name>PT481</name></trkpt>
<trkpt lat="51.801560" lon="03.881275"><ele>-4.6</ele><time>2023-12-06T10:26:39Z</time><name>PT482</name></trkpt>
<trkpt lat="51.801568" lon="03.881288"><ele>-4.7</ele><time>2023-12-06T10:26:40Z</time><name>PT483</name></trkpt>
<trkpt lat="51.801576" lon="03.881302"><ele>-4.8</ele><time>2023-12-06T10:26:41Z</time><name>PT484</name></trkpt>
<trkpt lat="51.801585" lon="03.881318"><ele>-4.9</ele><time>2023-12-06T10:26:42Z</time><name>PT485</name></trkpt>
<trkpt lat="51.801593" lon="03.881330"><ele>-5</ele><time>2023-12-06T10:26:43Z</time><name>PT486</name></trkpt>
<trkpt lat="51.801600" lon="03.881342"><ele>-4.9</ele><time>2023-12-06T10:26:44Z</time><name>PT487</name></trkpt>
<trkpt lat="51.801607" lon="03.881356"><ele>-4.7</ele><time>2023-12-06T10:26:45Z</time><name>PT488</name></trkpt>
<trkpt lat="51.801614" lon="03.881370"><ele>-4.7</ele><time>2023-12-06T10:26:46Z</time><name>PT489</name></trkpt>
<trkpt lat="51.801622" lon="03.881386"><ele>-4.6</ele><time>2023-12-06T10:26:47Z</time><name>PT490</name></trkpt>
<trkpt lat="51.801631" lon="03.881400"><ele>-4.7</ele><time>2023-12-06T10:26:48Z</time><name>PT491</name></trkpt>
<trkpt lat="51.801638" lon="03.881417"><ele>-4.7</ele><time>2023-12-06T10:26:49Z</time><name>PT492</name></trkpt>
<trkpt lat="51.801645" lon="03.881431"><ele>-4.6</ele><time>2023-12-06T10:26:50Z</time><name>PT493</name></trkpt>
<trkpt lat="51.801653" lon="03.881445"><ele>-4.6</ele><time>2023-12-06T10:26:51Z</time><name>PT494</name></trkpt>
<trkpt lat="51.801660" lon="03.881457"><ele>-4.6</ele><time>2023-12-06T10:26:52Z</time><name>PT495</name></trkpt>
<trkpt lat="51.801669" lon="03.881471"><ele>-4.6</ele><time>2023-12-06T10:26:53Z</time><name>PT496</name></trkpt>
<trkpt lat="51.801677" lon="03.881485"><ele>-4.4</ele><time>2023-12-06T10:26:54Z</time><name>PT497</name></trkpt>
<trkpt lat="51.801683" lon="03.881500"><ele>-4.4</ele><time>2023-12-06T10:26:55Z</time><name>PT498</name></trkpt>
<trkpt lat="51.801691" lon="03.881516"><ele>-4.4</ele><time>2023-12-06T10:26:56Z</time><name>PT499</name></trkpt>
<trkpt lat="51.801699" lon="03.881531"><ele>-4.4</ele><time>2023-12-06T10:26:57Z</time><name>PT500</name></trkpt>
<trkpt lat="51.801708" lon="03.881546"><ele>-4.5</ele><time>2023-12-06T10:26:58Z</time><name>PT501</name></trkpt>
<trkpt lat="51.801717" lon="03.881561"><ele>-4.8</ele><time>2023-12-06T10:26:59Z</time><name>PT502</name></trkpt>
<trkpt lat="51.801726" lon="03.881576"><ele>-4.9</ele><time>2023-12-06T10:27:00Z</time><name>PT503</name></trkpt>
<trkpt lat="51.801734" lon="03.881589"><ele>-5.1</ele><time>2023-12-06T10:27:01Z</time><name>PT504</name></trkpt>
<trkpt lat="51.801743" lon="03.881603"><ele>-5</ele><time>2023-12-06T10:27:02Z</time><name>PT505</name></trkpt>
<trkpt lat="51.801751" lon="03.881616"><ele>-5</ele><time>2023-12-06T10:27:03Z</time><name>PT506</name></trkpt>
<trkpt lat="51.801759" lon="03.881629"><ele>-4.9</ele><time>2023-12-06T10:27:04Z</time><name>PT507</name></trkpt>
<trkpt lat="51.801766" lon="03.881642"><ele>-4.9</ele><time>2023-12-06T10:27:05Z</time><name>PT508</name></trkpt>
<trkpt lat="51.801772" lon="03.881658"><ele>-4.9</ele><time>2023-12-06T10:27:06Z</time><name>PT509</name></trkpt>
<trkpt lat="51.801780" lon="03.881674"><ele>-4.9</ele><time>2023-12-06T10:27:07Z</time><name>PT510</name></trkpt>
<trkpt lat="51.801788" lon="03.881689"><ele>-4.9</ele><time>2023-12-06T10:27:08Z</time><name>PT511</name></trkpt>
<trkpt lat="51.801795" lon="03.881704"><ele>-5</ele><time>2023-12-06T10:27:09Z</time><name>PT512</name></trkpt>
<trkpt lat="51.801803" lon="03.881721"><ele>-5.1</ele><time>2023-12-06T10:27:10Z</time><name>PT513</name></trkpt>
<trkpt lat="51.801809" lon="03.881733"><ele>-5.1</ele><time>2023-12-06T10:27:11Z</time><name>PT514</name></trkpt>
<trkpt lat="51.801817" lon="03.881747"><ele>-4.7</ele><time>2023-12-06T10:27:12Z</time><name>PT515</name></trkpt>
<trkpt lat="51.801825" lon="03.881759"><ele>-4.8</ele><time>2023-12-06T10:27:13Z</time><name>PT516</name></trkpt>
<trkpt lat="51.801833" lon="03.881771"><ele>-4.8</ele><time>2023-12-06T10:27:14Z</time><name>PT517</name></trkpt>
<trkpt lat="51.801839" lon="03.881785"><ele>-4.6</ele><time>2023-12-06T10:27:15Z</time><name>PT518</name></trkpt>
<trkpt lat="51.801845" lon="03.881798"><ele>-4.6</ele><time>2023-12-06T10:27:16Z</time><name>PT519</name></trkpt>
<trkpt lat="51.801848" lon="03.881803"><ele>-4.6</ele><time>2023-12-06T10:27:17Z</time><name>PT520</name></trkpt>
<trkpt lat="51.801849" lon="03.881805"><ele>-4.4</ele><time>2023-12-06T10:27:18Z</time><name>PT521</name></trkpt>
<trkpt lat="51.801849" lon="03.881806"><ele>-4.4</ele><time>2023-12-06T10:27:20Z</time><name>PT522</name></trkpt>
<trkpt lat="51.801852" lon="03.881809"><ele>-4.4</ele><time>2023-12-06T10:27:21Z</time><name>PT523</name></trkpt>
<trkpt lat="51.801858" lon="03.881818"><ele>-4.5</ele><time>2023-12-06T10:27:22Z</time><name>PT524</name></trkpt>
<trkpt lat="51.801861" lon="03.881832"><ele>-4.6</ele><time>2023-12-06T10:27:23Z</time><name>PT525</name></trkpt>
<trkpt lat="51.801867" lon="03.881843"><ele>-4.7</ele><time>2023-12-06T10:27:24Z</time><name>PT526</name></trkpt>
<trkpt lat="51.801872" lon="03.881848"><ele>-4.7</ele><time>2023-12-06T10:27:25Z</time><name>PT527</name></trkpt>
<trkpt lat="51.801873" lon="03.881848"><ele>-4.9</ele><time>2023-12-06T10:27:26Z</time><name>PT528</name></trkpt>
<trkpt lat="51.801873" lon="03.881847"><ele>-5</ele><time>2023-12-06T10:27:27Z</time><name>PT529</name></trkpt>
<trkpt lat="51.801873" lon="03.881845"><ele>-5.1</ele><time>2023-12-06T10:27:28Z</time><name>PT530</name></trkpt>
<trkpt lat="51.801874" lon="03.881850"><ele>-4.8</ele><time>2023-12-06T10:27:33Z</time><name>PT531</name></trkpt>
<trkpt lat="51.801884" lon="03.881863"><ele>-4.6</ele><time>2023-12-06T10:27:34Z</time><name>PT532</name></trkpt>
<trkpt lat="51.801894" lon="03.881874"><ele>-4.7</ele><time>2023-12-06T10:27:35Z</time><name>PT533</name></trkpt>
<trkpt lat="51.801902" lon="03.881886"><ele>-4.5</ele><time>2023-12-06T10:27:36Z</time><name>PT534</name></trkpt>
<trkpt lat="51.801909" lon="03.881896"><ele>-4.4</ele><time>2023-12-06T10:27:37Z</time><name>PT535</name></trkpt>
<trkpt lat="51.801914" lon="03.881902"><ele>-4.6</ele><time>2023-12-06T10:27:38Z</time><name>PT536</name></trkpt>
<trkpt lat="51.801916" lon="03.881911"><ele>-4.9</ele><time>2023-12-06T10:27:39Z</time><name>PT537</name></trkpt>
<trkpt lat="51.801919" lon="03.881918"><ele>-4.9</ele><time>2023-12-06T10:27:40Z</time><name>PT538</name></trkpt>
<trkpt lat="51.801924" lon="03.881924"><ele>-5</ele><time>2023-12-06T10:27:41Z</time><name>PT539</name></trkpt>
<trkpt lat="51.801925" lon="03.881930"><ele>-4.9</ele><time>2023-12-06T10:27:42Z</time><name>PT540</name></trkpt>
<trkpt lat="51.801924" lon="03.881932"><ele>-4.9</ele><time>2023-12-06T10:27:43Z</time><name>PT541</name></trkpt>
<trkpt lat="51.801924" lon="03.881934"><ele>-4.8</ele><time>2023-12-06T10:27:44Z</time><name>PT542</name></trkpt>
<trkpt lat="51.801925" lon="03.881940"><ele>-4.7</ele><time>2023-12-06T10:27:45Z</time><name>PT543</name></trkpt>
<trkpt lat="51.801930" lon="03.881952"><ele>-4.6</ele><time>2023-12-06T10:27:46Z</time><name>PT544</name></trkpt>
<trkpt lat="51.801937" lon="03.881967"><ele>-4.6</ele><time>2023-12-06T10:27:47Z</time><name>PT545</name></trkpt>
<trkpt lat="51.801944" lon="03.881980"><ele>-4.6</ele><time>2023-12-06T10:27:48Z</time><name>PT546</name></trkpt>
<trkpt lat="51.801952" lon="03.881992"><ele>-4.5</ele><time>2023-12-06T10:27:49Z</time><name>PT547</name></trkpt>
<trkpt lat="51.801961" lon="03.882003"><ele>-4.6</ele><time>2023-12-06T10:27:50Z</time><name>PT548</name></trkpt>
<trkpt lat="51.801970" lon="03.882016"><ele>-4.8</ele><time>2023-12-06T10:27:51Z</time><name>PT549</name></trkpt>
<trkpt lat="51.801977" lon="03.882030"><ele>-4.9</ele><time>2023-12-06T10:27:52Z</time><name>PT550</name></trkpt>
<trkpt lat="51.801984" lon="03.882045"><ele>-5</ele><time>2023-12-06T10:27:53Z</time><name>PT551</name></trkpt>
<trkpt lat="51.801993" lon="03.882056"><ele>-4.8</ele><time>2023-12-06T10:27:54Z</time><name>PT552</name></trkpt>
<trkpt lat="51.802001" lon="03.882066"><ele>-4.9</ele><time>2023-12-06T10:27:55Z</time><name>PT553</name></trkpt>
<trkpt lat="51.802007" lon="03.882077"><ele>-5</ele><time>2023-12-06T10:27:56Z</time><name>PT554</name></trkpt>
<trkpt lat="51.802013" lon="03.882091"><ele>-4.8</ele><time>2023-12-06T10:27:57Z</time><name>PT555</name></trkpt>
<trkpt lat="51.802023" lon="03.882107"><ele>-4.6</ele><time>2023-12-06T10:27:58Z</time><name>PT556</name></trkpt>
<trkpt lat="51.802032" lon="03.882123"><ele>-4.6</ele><time>2023-12-06T10:27:59Z</time><name>PT557</name></trkpt>
<trkpt lat="51.802042" lon="03.882136"><ele>-4.6</ele><time>2023-12-06T10:28:00Z</time><name>PT558</name></trkpt>
<trkpt lat="51.802050" lon="03.882151"><ele>-4.6</ele><time>2023-12-06T10:28:01Z</time><name>PT559</name></trkpt>
<trkpt lat="51.802058" lon="03.882169"><ele>-4.6</ele><time>2023-12-06T10:28:02Z</time><name>PT560</name></trkpt>
<trkpt lat="51.802066" lon="03.882190"><ele>-4.6</ele><time>2023-12-06T10:28:03Z</time><name>PT561</name></trkpt>
<trkpt lat="51.802075" lon="03.882209"><ele>-4.6</ele><time>2023-12-06T10:28:04Z</time><name>PT562</name></trkpt>
<trkpt lat="51.802082" lon="03.882230"><ele>-4.6</ele><time>2023-12-06T10:28:05Z</time><name>PT563</name></trkpt>
<trkpt lat="51.802088" lon="03.882246"><ele>-4.5</ele><time>2023-12-06T10:28:06Z</time><name>PT564</name></trkpt>
<trkpt lat="51.802095" lon="03.882260"><ele>-4.6</ele><time>2023-12-06T10:28:07Z</time><name>PT565</name></trkpt>
<trkpt lat="51.802102" lon="03.882276"><ele>-4.6</ele><time>2023-12-06T10:28:08Z</time><name>PT566</name></trkpt>
<trkpt lat="51.802111" lon="03.882291"><ele>-4.6</ele><time>2023-12-06T10:28:09Z</time><name>PT567</name></trkpt>
<trkpt lat="51.802119" lon="03.882305"><ele>-4.7</ele><time>2023-12-06T10:28:10Z</time><name>PT568</name></trkpt>
<trkpt lat="51.802129" lon="03.882320"><ele>-5</ele><time>2023-12-06T10:28:11Z</time><name>PT569</name></trkpt>
<trkpt lat="51.802138" lon="03.882333"><ele>-5.1</ele><time>2023-12-06T10:28:12Z</time><name>PT570</name></trkpt>
<trkpt lat="51.802145" lon="03.882347"><ele>-5.1</ele><time>2023-12-06T10:28:13Z</time><name>PT571</name></trkpt>
<trkpt lat="51.802152" lon="03.882361"><ele>-5.1</ele><time>2023-12-06T10:28:14Z</time><name>PT572</name></trkpt>
<trkpt lat="51.802159" lon="03.882374"><ele>-4.8</ele><time>2023-12-06T10:28:15Z</time><name>PT573</name></trkpt>
<trkpt lat="51.802166" lon="03.882391"><ele>-5.1</ele><time>2023-12-06T10:28:16Z</time><name>PT574</name></trkpt>
<trkpt lat="51.802173" lon="03.882407"><ele>-5</ele><time>2023-12-06T10:28:17Z</time><name>PT575</name></trkpt>
<trkpt lat="51.802181" lon="03.882424"><ele>-5</ele><time>2023-12-06T10:28:18Z</time><name>PT576</name></trkpt>
<trkpt lat="51.802188" lon="03.882439"><ele>-5.1</ele><time>2023-12-06T10:28:19Z</time><name>PT577</name></trkpt>
<trkpt lat="51.802195" lon="03.882454"><ele>-5.1</ele><time>2023-12-06T10:28:20Z</time><name>PT578</name></trkpt>
<trkpt lat="51.802203" lon="03.882469"><ele>-5.1</ele><time>2023-12-06T10:28:21Z</time><name>PT579</name></trkpt>
<trkpt lat="51.802211" lon="03.882485"><ele>-5.1</ele><time>2023-12-06T10:28:22Z</time><name>PT580</name></trkpt>
<trkpt lat="51.802218" lon="03.882500"><ele>-5.1</ele><time>2023-12-06T10:28:23Z</time><name>PT581</name></trkpt>
<trkpt lat="51.802227" lon="03.882516"><ele>-4.9</ele><time>2023-12-06T10:28:24Z</time><name>PT582</name></trkpt>
<trkpt lat="51.802236" lon="03.882530"><ele>-4.9</ele><time>2023-12-06T10:28:25Z</time><name>PT583</name></trkpt>
<trkpt lat="51.802244" lon="03.882542"><ele>-5.1</ele><time>2023-12-06T10:28:26Z</time><name>PT584</name></trkpt>
<trkpt lat="51.802253" lon="03.882556"><ele>-5</ele><time>2023-12-06T10:28:27Z</time><name>PT585</name></trkpt>
<trkpt lat="51.802261" lon="03.882570"><ele>-5</ele><time>2023-12-06T10:28:28Z</time><name>PT586</name></trkpt>
<trkpt lat="51.802269" lon="03.882585"><ele>-5</ele><time>2023-12-06T10:28:29Z</time><name>PT587</name></trkpt>
<trkpt lat="51.802277" lon="03.882600"><ele>-5</ele><time>2023-12-06T10:28:30Z</time><name>PT588</name></trkpt>
<trkpt lat="51.802285" lon="03.882617"><ele>-4.9</ele><time>2023-12-06T10:28:31Z</time><name>PT589</name></trkpt>
<trkpt lat="51.802293" lon="03.882633"><ele>-4.8</ele><time>2023-12-06T10:28:32Z</time><name>PT590</name></trkpt>
<trkpt lat="51.802300" lon="03.882648"><ele>-4.6</ele><time>2023-12-06T10:28:33Z</time><name>PT591</name></trkpt>
<trkpt lat="51.802308" lon="03.882663"><ele>-4.8</ele><time>2023-12-06T10:28:34Z</time><name>PT592</name></trkpt>
<trkpt lat="51.802316" lon="03.882677"><ele>-4.7</ele><time>2023-12-06T10:28:35Z</time><name>PT593</name></trkpt>
<trkpt lat="51.802325" lon="03.882692"><ele>-4.7</ele><time>2023-12-06T10:28:36Z</time><name>PT594</name></trkpt>
<trkpt lat="51.802334" lon="03.882705"><ele>-4.7</ele><time>2023-12-06T10:28:37Z</time><name>PT595</name></trkpt>
<trkpt lat="51.802342" lon="03.882717"><ele>-5</ele><time>2023-12-06T10:28:38Z</time><name>PT596</name></trkpt>
<trkpt lat="51.802349" lon="03.882731"><ele>-4.7</ele><time>2023-12-06T10:28:39Z</time><name>PT597</name></trkpt>
<trkpt lat="51.802357" lon="03.882745"><ele>-4.7</ele><time>2023-12-06T10:28:40Z</time><name>PT598</name></trkpt>
<trkpt lat="51.802364" lon="03.882759"><ele>-4.8</ele><time>2023-12-06T10:28:41Z</time><name>PT599</name></trkpt>
<trkpt lat="51.802372" lon="03.882775"><ele>-4.7</ele><time>2023-12-06T10:28:42Z</time><name>PT600</name></trkpt>
<trkpt lat="51.802379" lon="03.882791"><ele>-4.8</ele><time>2023-12-06T10:28:43Z</time><name>PT601</name></trkpt>
<trkpt lat="51.802387" lon="03.882807"><ele>-4.9</ele><time>2023-12-06T10:28:44Z</time><name>PT602</name></trkpt>
<trkpt lat="51.802394" lon="03.882824"><ele>-4.9</ele><time>2023-12-06T10:28:45Z</time><name>PT603</name></trkpt>
<trkpt lat="51.802401" lon="03.882841"><ele>-4.8</ele><time>2023-12-06T10:28:46Z</time><name>PT604</name></trkpt>
<trkpt lat="51.802407" lon="03.882859"><ele>-4.9</ele><time>2023-12-06T10:28:47Z</time><name>PT605</name></trkpt>
<trkpt lat="51.802414" lon="03.882874"><ele>-4.8</ele><time>2023-12-06T10:28:48Z</time><name>PT606</name></trkpt>
<trkpt lat="51.802420" lon="03.882885"><ele>-4.7</ele><time>2023-12-06T10:28:49Z</time><name>PT607</name></trkpt>
<trkpt lat="51.802427" lon="03.882897"><ele>-4.6</ele><time>2023-12-06T10:28:50Z</time><name>PT608</name></trkpt>
<trkpt lat="51.802435" lon="03.882907"><ele>-4.7</ele><time>2023-12-06T10:28:51Z</time><name>PT609</name></trkpt>
<trkpt lat="51.802443" lon="03.882919"><ele>-4.6</ele><time>2023-12-06T10:28:52Z</time><name>PT610</name></trkpt>
<trkpt lat="51.802451" lon="03.882933"><ele>-4.7</ele><time>2023-12-06T10:28:53Z</time><name>PT611</name></trkpt>
<trkpt lat="51.802456" lon="03.882944"><ele>-4.9</ele><time>2023-12-06T10:28:54Z</time><name>PT612</name></trkpt>
<trkpt lat="51.802459" lon="03.882955"><ele>-4.8</ele><time>2023-12-06T10:28:55Z</time><name>PT613</name></trkpt>
<trkpt lat="51.802463" lon="03.882963"><ele>-4.9</ele><time>2023-12-06T10:28:56Z</time><name>PT614</name></trkpt>
<trkpt lat="51.802467" lon="03.882972"><ele>-4.7</ele><time>2023-12-06T10:28:57Z</time><name>PT615</name></trkpt>
<trkpt lat="51.802473" lon="03.882980"><ele>-4.7</ele><time>2023-12-06T10:28:58Z</time><name>PT616</name></trkpt>
<trkpt lat="51.802480" lon="03.882989"><ele>-4.8</ele><time>2023-12-06T10:28:59Z</time><name>PT617</name></trkpt>
<trkpt lat="51.802486" lon="03.882999"><ele>-5</ele><time>2023-12-06T10:29:00Z</time><name>PT618</name></trkpt>
<trkpt lat="51.802494" lon="03.883010"><ele>-4.9</ele><time>2023-12-06T10:29:01Z</time><name>PT619</name></trkpt>
<trkpt lat="51.802503" lon="03.883019"><ele>-5.1</ele><time>2023-12-06T10:29:02Z</time><name>PT620</name></trkpt>
<trkpt lat="51.802509" lon="03.883027"><ele>-5.1</ele><time>2023-12-06T10:29:03Z</time><name>PT621</name></trkpt>
<trkpt lat="51.802516" lon="03.883038"><ele>-5.1</ele><time>2023-12-06T10:29:04Z</time><name>PT622</name></trkpt>
<trkpt lat="51.802522" lon="03.883050"><ele>-5.1</ele><time>2023-12-06T10:29:05Z</time><name>PT623</name></trkpt>
<trkpt lat="51.802529" lon="03.883058"><ele>-5.1</ele><time>2023-12-06T10:29:06Z</time><name>PT624</name></trkpt>
<trkpt lat="51.802533" lon="03.883070"><ele>-5.1</ele><time>2023-12-06T10:29:07Z</time><name>PT625</name></trkpt>
<trkpt lat="51.802538" lon="03.883082"><ele>-5.3</ele><time>2023-12-06T10:29:08Z</time><name>PT626</name></trkpt>
<trkpt lat="51.802545" lon="03.883095"><ele>-5.1</ele><time>2023-12-06T10:29:09Z</time><name>PT627</name></trkpt>
<trkpt lat="51.802550" lon="03.883109"><ele>-5.1</ele><time>2023-12-06T10:29:10Z</time><name>PT628</name></trkpt>
<trkpt lat="51.802557" lon="03.883119"><ele>-5.1</ele><time>2023-12-06T10:29:11Z</time><name>PT629</name></trkpt>
<trkpt lat="51.802565" lon="03.883128"><ele>-5.1</ele><time>2023-12-06T10:29:12Z</time><name>PT630</name></trkpt>
<trkpt lat="51.802573" lon="03.883139"><ele>-5</ele><time>2023-12-06T10:29:13Z</time><name>PT631</name></trkpt>
<trkpt lat="51.802580" lon="03.883150"><ele>-5</ele><time>2023-12-06T10:29:14Z</time><name>PT632</name></trkpt>
<trkpt lat="51.802586" lon="03.883163"><ele>-5.1</ele><time>2023-12-06T10:29:15Z</time><name>PT633</name></trkpt>
<trkpt lat="51.802593" lon="03.883176"><ele>-5.1</ele><time>2023-12-06T10:29:16Z</time><name>PT634</name></trkpt>
<trkpt lat="51.802600" lon="03.883189"><ele>-5.1</ele><time>2023-12-06T10:29:17Z</time><name>PT635</name></trkpt>
<trkpt lat="51.802608" lon="03.883202"><ele>-5.1</ele><time>2023-12-06T10:29:18Z</time><name>PT636</name></trkpt>
<trkpt lat="51.802615" lon="03.883215"><ele>-5.1</ele><time>2023-12-06T10:29:19Z</time><name>PT637</name></trkpt>
<trkpt lat="51.802622" lon="03.883230"><ele>-4.9</ele><time>2023-12-06T10:29:20Z</time><name>PT638</name></trkpt>
<trkpt lat="51.802629" lon="03.883244"><ele>-5</ele><time>2023-12-06T10:29:21Z</time><name>PT639</name></trkpt>
<trkpt lat="51.802636" lon="03.883257"><ele>-5</ele><time>2023-12-06T10:29:22Z</time><name>PT640</name></trkpt>
<trkpt lat="51.802643" lon="03.883269"><ele>-4.9</ele><time>2023-12-06T10:29:23Z</time><name>PT641</name></trkpt>
<trkpt lat="51.802650" lon="03.883280"><ele>-4.8</ele><time>2023-12-06T10:29:24Z</time><name>PT642</name></trkpt>
<trkpt lat="51.802656" lon="03.883292"><ele>-4.8</ele><time>2023-12-06T10:29:25Z</time><name>PT643</name></trkpt>
<trkpt lat="51.802662" lon="03.883305"><ele>-4.8</ele><time>2023-12-06T10:29:26Z</time><name>PT644</name></trkpt>
<trkpt lat="51.802669" lon="03.883316"><ele>-4.6</ele><time>2023-12-06T10:29:27Z</time><name>PT645</name></trkpt>
<trkpt lat="51.802675" lon="03.883326"><ele>-4.6</ele><time>2023-12-06T10:29:28Z</time><name>PT646</name></trkpt>
<trkpt lat="51.802681" lon="03.883337"><ele>-4.6</ele><time>2023-12-06T10:29:29Z</time><name>PT647</name></trkpt>
<trkpt lat="51.802686" lon="03.883351"><ele>-4.6</ele><time>2023-12-06T10:29:30Z</time><name>PT648</name></trkpt>
<trkpt lat="51.802693" lon="03.883362"><ele>-4.6</ele><time>2023-12-06T10:29:31Z</time><name>PT649</name></trkpt>
<trkpt lat="51.802699" lon="03.883375"><ele>-4.7</ele><time>2023-12-06T10:29:32Z</time><name>PT650</name></trkpt>
<trkpt lat="51.802706" lon="03.883388"><ele>-4.8</ele><time>2023-12-06T10:29:33Z</time><name>PT651</name></trkpt>
<trkpt lat="51.802712" lon="03.883401"><ele>-4.9</ele><time>2023-12-06T10:29:34Z</time><name>PT652</name></trkpt>
<trkpt lat="51.802718" lon="03.883414"><ele>-4.8</ele><time>2023-12-06T10:29:35Z</time><name>PT653</name></trkpt>
<trkpt lat="51.802725" lon="03.883427"><ele>-5.1</ele><time>2023-12-06T10:29:36Z</time><name>PT654</name></trkpt>
<trkpt lat="51.802732" lon="03.883439"><ele>-4.9</ele><time>2023-12-06T10:29:37Z</time><name>PT655</name></trkpt>
<trkpt lat="51.802739" lon="03.883451"><ele>-4.9</ele><time>2023-12-06T10:29:38Z</time><name>PT656</name></trkpt>
<trkpt lat="51.802745" lon="03.883462"><ele>-4.9</ele><time>2023-12-06T10:29:39Z</time><name>PT657</name></trkpt>
<trkpt lat="51.802752" lon="03.883474"><ele>-4.7</ele><time>2023-12-06T10:29:40Z</time><name>PT658</name></trkpt>
<trkpt lat="51.802757" lon="03.883490"><ele>-4.6</ele><time>2023-12-06T10:29:41Z</time><name>PT659</name></trkpt>
<trkpt lat="51.802763" lon="03.883504"><ele>-4.7</ele><time>2023-12-06T10:29:42Z</time><name>PT660</name></trkpt>
<trkpt lat="51.802769" lon="03.883518"><ele>-4.7</ele><time>2023-12-06T10:29:43Z</time><name>PT661</name></trkpt>
<trkpt lat="51.802776" lon="03.883529"><ele>-4.6</ele><time>2023-12-06T10:29:44Z</time><name>PT662</name></trkpt>
<trkpt lat="51.802783" lon="03.883540"><ele>-4.7</ele><time>2023-12-06T10:29:45Z</time><name>PT663</name></trkpt>
<trkpt lat="51.802790" lon="03.883553"><ele>-4.7</ele><time>2023-12-06T10:29:46Z</time><name>PT664</name></trkpt>
<trkpt lat="51.802796" lon="03.883567"><ele>-4.7</ele><time>2023-12-06T10:29:47Z</time><name>PT665</name></trkpt>
<trkpt lat="51.802803" lon="03.883582"><ele>-4.6</ele><time>2023-12-06T10:29:48Z</time><name>PT666</name></trkpt>
<trkpt lat="51.802809" lon="03.883594"><ele>-4.7</ele><time>2023-12-06T10:29:49Z</time><name>PT667</name></trkpt>
<trkpt lat="51.802815" lon="03.883603"><ele>-4.8</ele><time>2023-12-06T10:29:50Z</time><name>PT668</name></trkpt>
<trkpt lat="51.802822" lon="03.883615"><ele>-4.8</ele><time>2023-12-06T10:29:51Z</time><name>PT669</name></trkpt>
<trkpt lat="51.802827" lon="03.883627"><ele>-4.7</ele><time>2023-12-06T10:29:52Z</time><name>PT670</name></trkpt>
<trkpt lat="51.802834" lon="03.883639"><ele>-4.8</ele><time>2023-12-06T10:29:53Z</time><name>PT671</name></trkpt>
<trkpt lat="51.802840" lon="03.883652"><ele>-4.7</ele><time>2023-12-06T10:29:54Z</time><name>PT672</name></trkpt>
<trkpt lat="51.802846" lon="03.883664"><ele>-4.7</ele><time>2023-12-06T10:29:55Z</time><name>PT673</name></trkpt>
<trkpt lat="51.802854" lon="03.883677"><ele>-4.6</ele><time>2023-12-06T10:29:56Z</time><name>PT674</name></trkpt>
<trkpt lat="51.802861" lon="03.883687"><ele>-4.7</ele><time>2023-12-06T10:29:57Z</time><name>PT675</name></trkpt>
<trkpt lat="51.802867" lon="03.883698"><ele>-4.6</ele><time>2023-12-06T10:29:58Z</time><name>PT676</name></trkpt>
<trkpt lat="51.802874" lon="03.883712"><ele>-4.4</ele><time>2023-12-06T10:29:59Z</time><name>PT677</name></trkpt>
<trkpt lat="51.802880" lon="03.883722"><ele>-4.4</ele><time>2023-12-06T10:30:00Z</time><name>PT678</name></trkpt>
<trkpt lat="51.802884" lon="03.883728"><ele>-4.5</ele><time>2023-12-06T10:30:01Z</time><name>PT679</name></trkpt>
<trkpt lat="51.802886" lon="03.883730"><ele>-4.5</ele><time>2023-12-06T10:30:02Z</time><name>PT680</name></trkpt>
<trkpt lat="51.802883" lon="03.883723"><ele>-4.5</ele><time>2023-12-06T10:30:03Z</time><name>PT681</name></trkpt>
<trkpt lat="51.802882" lon="03.883718"><ele>-4.5</ele><time>2023-12-06T10:30:04Z</time><name>PT682</name></trkpt>
<trkpt lat="51.802881" lon="03.883719"><ele>-4.5</ele><time>2023-12-06T10:30:05Z</time><name>PT683</name></trkpt>
<trkpt lat="51.802881" lon="03.883722"><ele>-4.4</ele><time>2023-12-06T10:30:06Z</time><name>PT684</name></trkpt>
<trkpt lat="51.802880" lon="03.883726"><ele>-4.4</ele><time>2023-12-06T10:30:07Z</time><name>PT685</name></trkpt>
<trkpt lat="51.802879" lon="03.883729"><ele>-4.4</ele><time>2023-12-06T10:30:08Z</time><name>PT686</name></trkpt>
<trkpt lat="51.802880" lon="03.883734"><ele>-4.6</ele><time>2023-12-06T10:30:10Z</time><name>PT687</name></trkpt>
<trkpt lat="51.802886" lon="03.883738"><ele>-4.5</ele><time>2023-12-06T10:30:11Z</time><name>PT688</name></trkpt>
<trkpt lat="51.802887" lon="03.883740"><ele>-4.6</ele><time>2023-12-06T10:30:12Z</time><name>PT689</name></trkpt>
<trkpt lat="51.802888" lon="03.883741"><ele>-4.4</ele><time>2023-12-06T10:30:13Z</time><name>PT690</name></trkpt>
<trkpt lat="51.802889" lon="03.883740"><ele>-4.6</ele><time>2023-12-06T10:30:14Z</time><name>PT691</name></trkpt>
<trkpt lat="51.802891" lon="03.883742"><ele>-4</ele><time>2023-12-06T10:30:29Z</time><name>PT692</name></trkpt>
<trkpt lat="51.802886" lon="03.883742"><ele>-4.1</ele><time>2023-12-06T10:30:30Z</time><name>PT693</name></trkpt>
<trkpt lat="51.802887" lon="03.883751"><ele>-4.1</ele><time>2023-12-06T10:30:31Z</time><name>PT694</name></trkpt>
<trkpt lat="51.802888" lon="03.883762"><ele>-4.1</ele><time>2023-12-06T10:30:47Z</time><name>PT695</name></trkpt>
<trkpt lat="51.802884" lon="03.883767"><ele>-4.1</ele><time>2023-12-06T10:30:48Z</time><name>PT696</name></trkpt>
<trkpt lat="51.802885" lon="03.883767"><ele>-4.1</ele><time>2023-12-06T10:30:49Z</time><name>PT697</name></trkpt>
<trkpt lat="51.802891" lon="03.883778"><ele>-4.1</ele><time>2023-12-06T10:30:50Z</time><name>PT698</name></trkpt>
<trkpt lat="51.802897" lon="03.883792"><ele>-4.1</ele><time>2023-12-06T10:30:51Z</time><name>PT699</name></trkpt>
<trkpt lat="51.802903" lon="03.883804"><ele>-4.2</ele><time>2023-12-06T10:30:52Z</time><name>PT700</name></trkpt>
<trkpt lat="51.802913" lon="03.883814"><ele>-4.3</ele><time>2023-12-06T10:30:53Z</time><name>PT701</name></trkpt>
<trkpt lat="51.802923" lon="03.883825"><ele>-4.6</ele><time>2023-12-06T10:30:54Z</time><name>PT702</name></trkpt>
<trkpt lat="51.802931" lon="03.883837"><ele>-4.7</ele><time>2023-12-06T10:30:55Z</time><name>PT703</name></trkpt>
<trkpt lat="51.802939" lon="03.883851"><ele>-4.6</ele><time>2023-12-06T10:30:56Z</time><name>PT704</name></trkpt>
<trkpt lat="51.802948" lon="03.883869"><ele>-4.7</ele><time>2023-12-06T10:30:57Z</time><name>PT705</name></trkpt>
<trkpt lat="51.802957" lon="03.883885"><ele>-4.7</ele><time>2023-12-06T10:30:58Z</time><name>PT706</name></trkpt>
<trkpt lat="51.802964" lon="03.883899"><ele>-4.7</ele><time>2023-12-06T10:30:59Z</time><name>PT707</name></trkpt>
<trkpt lat="51.802973" lon="03.883914"><ele>-4.6</ele><time>2023-12-06T10:31:00Z</time><name>PT708</name></trkpt>
<trkpt lat="51.802982" lon="03.883928"><ele>-4.8</ele><time>2023-12-06T10:31:01Z</time><name>PT709</name></trkpt>
<trkpt lat="51.802990" lon="03.883941"><ele>-4.7</ele><time>2023-12-06T10:31:02Z</time><name>PT710</name></trkpt>
<trkpt lat="51.802998" lon="03.883954"><ele>-4.7</ele><time>2023-12-06T10:31:03Z</time><name>PT711</name></trkpt>
<trkpt lat="51.803006" lon="03.883968"><ele>-4.7</ele><time>2023-12-06T10:31:04Z</time><name>PT712</name></trkpt>
<trkpt lat="51.803014" lon="03.883982"><ele>-4.7</ele><time>2023-12-06T10:31:05Z</time><name>PT713</name></trkpt>
<trkpt lat="51.803022" lon="03.883999"><ele>-4.6</ele><time>2023-12-06T10:31:06Z</time><name>PT714</name></trkpt>
<trkpt lat="51.803030" lon="03.884015"><ele>-4.6</ele><time>2023-12-06T10:31:07Z</time><name>PT715</name></trkpt>
<trkpt lat="51.803039" lon="03.884031"><ele>-4.6</ele><time>2023-12-06T10:31:08Z</time><name>PT716</name></trkpt>
<trkpt lat="51.803045" lon="03.884045"><ele>-4.3</ele><time>2023-12-06T10:31:09Z</time><name>PT717</name></trkpt>
<trkpt lat="51.803052" lon="03.884060"><ele>-4.3</ele><time>2023-12-06T10:31:10Z</time><name>PT718</name></trkpt>
<trkpt lat="51.803061" lon="03.884074"><ele>-4.4</ele><time>2023-12-06T10:31:11Z</time><name>PT719</name></trkpt>
<trkpt lat="51.803069" lon="03.884088"><ele>-4.3</ele><time>2023-12-06T10:31:12Z</time><name>PT720</name></trkpt>
<trkpt lat="51.803078" lon="03.884099"><ele>-4.3</ele><time>2023-12-06T10:31:13Z</time><name>PT721</name></trkpt>
<trkpt lat="51.803087" lon="03.884111"><ele>-4.5</ele><time>2023-12-06T10:31:14Z</time><name>PT722</name></trkpt>
<trkpt lat="51.803095" lon="03.884125"><ele>-4.6</ele><time>2023-12-06T10:31:15Z</time><name>PT723</name></trkpt>
<trkpt lat="51.803103" lon="03.884140"><ele>-4.6</ele><time>2023-12-06T10:31:16Z</time><name>PT724</name></trkpt>
<trkpt lat="51.803110" lon="03.884156"><ele>-4.6</ele><time>2023-12-06T10:31:17Z</time><name>PT725</name></trkpt>
<trkpt lat="51.803117" lon="03.884172"><ele>-4.5</ele><time>2023-12-06T10:31:18Z</time><name>PT726</name></trkpt>
<trkpt lat="51.803124" lon="03.884187"><ele>-4.5</ele><time>2023-12-06T10:31:19Z</time><name>PT727</name></trkpt>
<trkpt lat="51.803131" lon="03.884201"><ele>-4.5</ele><time>2023-12-06T10:31:20Z</time><name>PT728</name></trkpt>
<trkpt lat="51.803140" lon="03.884215"><ele>-4.6</ele><time>2023-12-06T10:31:21Z</time><name>PT729</name></trkpt>
<trkpt lat="51.803148" lon="03.884229"><ele>-4.6</ele><time>2023-12-06T10:31:22Z</time><name>PT730</name></trkpt>
<trkpt lat="51.803157" lon="03.884244"><ele>-4.7</ele><time>2023-12-06T10:31:23Z</time><name>PT731</name></trkpt>
<trkpt lat="51.803166" lon="03.884258"><ele>-4.6</ele><time>2023-12-06T10:31:24Z</time><name>PT732</name></trkpt>
<trkpt lat="51.803174" lon="03.884271"><ele>-4.6</ele><time>2023-12-06T10:31:25Z</time><name>PT733</name></trkpt>
<trkpt lat="51.803181" lon="03.884284"><ele>-4.6</ele><time>2023-12-06T10:31:26Z</time><name>PT734</name></trkpt>
<trkpt lat="51.803189" lon="03.884298"><ele>-4.6</ele><time>2023-12-06T10:31:27Z</time><name>PT735</name></trkpt>
<trkpt lat="51.803196" lon="03.884313"><ele>-4.5</ele><time>2023-12-06T10:31:28Z</time><name>PT736</name></trkpt>
<trkpt lat="51.803204" lon="03.884329"><ele>-4.5</ele><time>2023-12-06T10:31:29Z</time><name>PT737</name></trkpt>
<trkpt lat="51.803212" lon="03.884344"><ele>-4.4</ele><time>2023-12-06T10:31:30Z</time><name>PT738</name></trkpt>
<trkpt lat="51.803219" lon="03.884358"><ele>-4.5</ele><time>2023-12-06T10:31:31Z</time><name>PT739</name></trkpt>
<trkpt lat="51.803227" lon="03.884372"><ele>-4.5</ele><time>2023-12-06T10:31:32Z</time><name>PT740</name></trkpt>
<trkpt lat="51.803235" lon="03.884387"><ele>-4.6</ele><time>2023-12-06T10:31:33Z</time><name>PT741</name></trkpt>
<trkpt lat="51.803243" lon="03.884403"><ele>-4.6</ele><time>2023-12-06T10:31:34Z</time><name>PT742</name></trkpt>
<trkpt lat="51.803251" lon="03.884416"><ele>-4.6</ele><time>2023-12-06T10:31:35Z</time><name>PT743</name></trkpt>
<trkpt lat="51.803259" lon="03.884428"><ele>-4.7</ele><time>2023-12-06T10:31:36Z</time><name>PT744</name></trkpt>
<trkpt lat="51.803266" lon="03.884441"><ele>-4.8</ele><time>2023-12-06T10:31:37Z</time><name>PT745</name></trkpt>
<trkpt lat="51.803273" lon="03.884455"><ele>-4.7</ele><time>2023-12-06T10:31:38Z</time><name>PT746</name></trkpt>
<trkpt lat="51.803280" lon="03.884471"><ele>-4.7</ele><time>2023-12-06T10:31:39Z</time><name>PT747</name></trkpt>
<trkpt lat="51.803288" lon="03.884485"><ele>-4.6</ele><time>2023-12-06T10:31:40Z</time><name>PT748</name></trkpt>
<trkpt lat="51.803294" lon="03.884500"><ele>-4.4</ele><time>2023-12-06T10:31:41Z</time><name>PT749</name></trkpt>
<trkpt lat="51.803301" lon="03.884516"><ele>-4.3</ele><time>2023-12-06T10:31:42Z</time><name>PT750</name></trkpt>
<trkpt lat="51.803309" lon="03.884531"><ele>-4.3</ele><time>2023-12-06T10:31:43Z</time><name>PT751</name></trkpt>
<trkpt lat="51.803317" lon="03.884545"><ele>-4.2</ele><time>2023-12-06T10:31:44Z</time><name>PT752</name></trkpt>
<trkpt lat="51.803324" lon="03.884558"><ele>-4.2</ele><time>2023-12-06T10:31:45Z</time><name>PT753</name></trkpt>
<trkpt lat="51.803333" lon="03.884570"><ele>-4.1</ele><time>2023-12-06T10:31:46Z</time><name>PT754</name></trkpt>
<trkpt lat="51.803341" lon="03.884580"><ele>-4.3</ele><time>2023-12-06T10:31:47Z</time><name>PT755</name></trkpt>
<trkpt lat="51.803349" lon="03.884590"><ele>-4.5</ele><time>2023-12-06T10:31:48Z</time><name>PT756</name></trkpt>
<trkpt lat="51.803358" lon="03.884605"><ele>-4.5</ele><time>2023-12-06T10:31:49Z</time><name>PT757</name></trkpt>
<trkpt lat="51.803366" lon="03.884621"><ele>-4.4</ele><time>2023-12-06T10:31:50Z</time><name>PT758</name></trkpt>
<trkpt lat="51.803375" lon="03.884636"><ele>-4.3</ele><time>2023-12-06T10:31:51Z</time><name>PT759</name></trkpt>
<trkpt lat="51.803383" lon="03.884654"><ele>-4.3</ele><time>2023-12-06T10:31:52Z</time><name>PT760</name></trkpt>
<trkpt lat="51.803390" lon="03.884672"><ele>-4.1</ele><time>2023-12-06T10:31:53Z</time><name>PT761</name></trkpt>
<trkpt lat="51.803397" lon="03.884689"><ele>-4.3</ele><time>2023-12-06T10:31:54Z</time><name>PT762</name></trkpt>
<trkpt lat="51.803404" lon="03.884706"><ele>-4.2</ele><time>2023-12-06T10:31:55Z</time><name>PT763</name></trkpt>
<trkpt lat="51.803411" lon="03.884721"><ele>-4.2</ele><time>2023-12-06T10:31:56Z</time><name>PT764</name></trkpt>
<trkpt lat="51.803419" lon="03.884734"><ele>-4.3</ele><time>2023-12-06T10:31:57Z</time><name>PT765</name></trkpt>
<trkpt lat="51.803427" lon="03.884747"><ele>-4.2</ele><time>2023-12-06T10:31:58Z</time><name>PT766</name></trkpt>
<trkpt lat="51.803435" lon="03.884760"><ele>-4.1</ele><time>2023-12-06T10:31:59Z</time><name>PT767</name></trkpt>
<trkpt lat="51.803444" lon="03.884772"><ele>-4.3</ele><time>2023-12-06T10:32:00Z</time><name>PT768</name></trkpt>
<trkpt lat="51.803450" lon="03.884784"><ele>-4.3</ele><time>2023-12-06T10:32:01Z</time><name>PT769</name></trkpt>
<trkpt lat="51.803456" lon="03.884799"><ele>-4.2</ele><time>2023-12-06T10:32:02Z</time><name>PT770</name></trkpt>
<trkpt lat="51.803462" lon="03.884815"><ele>-4.3</ele><time>2023-12-06T10:32:03Z</time><name>PT771</name></trkpt>
<trkpt lat="51.803469" lon="03.884834"><ele>-4.4</ele><time>2023-12-06T10:32:04Z</time><name>PT772</name></trkpt>
<trkpt lat="51.803475" lon="03.884852"><ele>-4.5</ele><time>2023-12-06T10:32:05Z</time><name>PT773</name></trkpt>
<trkpt lat="51.803482" lon="03.884865"><ele>-4.6</ele><time>2023-12-06T10:32:06Z</time><name>PT774</name></trkpt>
<trkpt lat="51.803490" lon="03.884876"><ele>-4.6</ele><time>2023-12-06T10:32:07Z</time><name>PT775</name></trkpt>
<trkpt lat="51.803497" lon="03.884890"><ele>-4.6</ele><time>2023-12-06T10:32:08Z</time><name>PT776</name></trkpt>
<trkpt lat="51.803504" lon="03.884902"><ele>-4.6</ele><time>2023-12-06T10:32:09Z</time><name>PT777</name></trkpt>
<trkpt lat="51.803509" lon="03.884914"><ele>-4.6</ele><time>2023-12-06T10:32:10Z</time><name>PT778</name></trkpt>
<trkpt lat="51.803516" lon="03.884925"><ele>-4.3</ele><time>2023-12-06T10:32:11Z</time><name>PT779</name></trkpt>
<trkpt lat="51.803526" lon="03.884943"><ele>-4.1</ele><time>2023-12-06T10:32:12Z</time><name>PT780</name></trkpt>
<trkpt lat="51.803533" lon="03.884961"><ele>-4.1</ele><time>2023-12-06T10:32:13Z</time><name>PT781</name></trkpt>
<trkpt lat="51.803536" lon="03.884973"><ele>-4.1</ele><time>2023-12-06T10:32:14Z</time><name>PT782</name></trkpt>
<trkpt lat="51.803544" lon="03.884986"><ele>-4.2</ele><time>2023-12-06T10:32:15Z</time><name>PT783</name></trkpt>
<trkpt lat="51.803550" lon="03.884997"><ele>-4.2</ele><time>2023-12-06T10:32:16Z</time><name>PT784</name></trkpt>
<trkpt lat="51.803557" lon="03.885008"><ele>-4.2</ele><time>2023-12-06T10:32:17Z</time><name>PT785</name></trkpt>
<trkpt lat="51.803565" lon="03.885022"><ele>-4.1</ele><time>2023-12-06T10:32:18Z</time><name>PT786</name></trkpt>
<trkpt lat="51.803572" lon="03.885035"><ele>-4.2</ele><time>2023-12-06T10:32:19Z</time><name>PT787</name></trkpt>
<trkpt lat="51.803579" lon="03.885049"><ele>-4.3</ele><time>2023-12-06T10:32:20Z</time><name>PT788</name></trkpt>
<trkpt lat="51.803587" lon="03.885064"><ele>-4.4</ele><time>2023-12-06T10:32:21Z</time><name>PT789</name></trkpt>
<trkpt lat="51.803593" lon="03.885078"><ele>-4.4</ele><time>2023-12-06T10:32:22Z</time><name>PT790</name></trkpt>
<trkpt lat="51.803600" lon="03.885093"><ele>-4.6</ele><time>2023-12-06T10:32:23Z</time><name>PT791</name></trkpt>
<trkpt lat="51.803607" lon="03.885109"><ele>-4.7</ele><time>2023-12-06T10:32:24Z</time><name>PT792</name></trkpt>
<trkpt lat="51.803613" lon="03.885123"><ele>-4.6</ele><time>2023-12-06T10:32:25Z</time><name>PT793</name></trkpt>
<trkpt lat="51.803620" lon="03.885134"><ele>-4.6</ele><time>2023-12-06T10:32:26Z</time><name>PT794</name></trkpt>
<trkpt lat="51.803628" lon="03.885146"><ele>-4.6</ele><time>2023-12-06T10:32:27Z</time><name>PT795</name></trkpt>
<trkpt lat="51.803636" lon="03.885157"><ele>-4.5</ele><time>2023-12-06T10:32:28Z</time><name>PT796</name></trkpt>
<trkpt lat="51.803644" lon="03.885168"><ele>-4.5</ele><time>2023-12-06T10:32:29Z</time><name>PT797</name></trkpt>
<trkpt lat="51.803652" lon="03.885180"><ele>-4.5</ele><time>2023-12-06T10:32:30Z</time><name>PT798</name></trkpt>
<trkpt lat="51.803658" lon="03.885194"><ele>-4.6</ele><time>2023-12-06T10:32:31Z</time><name>PT799</name></trkpt>
<trkpt lat="51.803662" lon="03.885207"><ele>-4.6</ele><time>2023-12-06T10:32:32Z</time><name>PT800</name></trkpt>
<trkpt lat="51.803667" lon="03.885220"><ele>-4.4</ele><time>2023-12-06T10:32:33Z</time><name>PT801</name></trkpt>
<trkpt lat="51.803673" lon="03.885231"><ele>-4.4</ele><time>2023-12-06T10:32:34Z</time><name>PT802</name></trkpt>
<trkpt lat="51.803681" lon="03.885241"><ele>-4.3</ele><time>2023-12-06T10:32:35Z</time><name>PT803</name></trkpt>
<trkpt lat="51.803688" lon="03.885253"><ele>-4.2</ele><time>2023-12-06T10:32:36Z</time><name>PT804</name></trkpt>
<trkpt lat="51.803695" lon="03.885268"><ele>-4.1</ele><time>2023-12-06T10:32:37Z</time><name>PT805</name></trkpt>
<trkpt lat="51.803701" lon="03.885282"><ele>-4.2</ele><time>2023-12-06T10:32:38Z</time><name>PT806</name></trkpt>
<trkpt lat="51.803707" lon="03.885297"><ele>-4.1</ele><time>2023-12-06T10:32:39Z</time><name>PT807</name></trkpt>
<trkpt lat="51.803713" lon="03.885312"><ele>-4.1</ele><time>2023-12-06T10:32:40Z</time><name>PT808</name></trkpt>
<trkpt lat="51.803720" lon="03.885323"><ele>-4</ele><time>2023-12-06T10:32:41Z</time><name>PT809</name></trkpt>
<trkpt lat="51.803722" lon="03.885332"><ele>-4.1</ele><time>2023-12-06T10:32:42Z</time><name>PT810</name></trkpt>
<trkpt lat="51.803726" lon="03.885347"><ele>-4.1</ele><time>2023-12-06T10:32:43Z</time><name>PT811</name></trkpt>
<trkpt lat="51.803736" lon="03.885371"><ele>-4.1</ele><time>2023-12-06T10:32:44Z</time><name>PT812</name></trkpt>
<trkpt lat="51.803744" lon="03.885391"><ele>-4.4</ele><time>2023-12-06T10:32:45Z</time><name>PT813</name></trkpt>
<trkpt lat="51.803752" lon="03.885408"><ele>-4.4</ele><time>2023-12-06T10:32:46Z</time><name>PT814</name></trkpt>
<trkpt lat="51.803756" lon="03.885422"><ele>-4.2</ele><time>2023-12-06T10:32:47Z</time><name>PT815</name></trkpt>
<trkpt lat="51.803763" lon="03.885437"><ele>-4.1</ele><time>2023-12-06T10:32:48Z</time><name>PT816</name></trkpt>
<trkpt lat="51.803771" lon="03.885451"><ele>-4.1</ele><time>2023-12-06T10:32:49Z</time><name>PT817</name></trkpt>
<trkpt lat="51.803780" lon="03.885465"><ele>-4.1</ele><time>2023-12-06T10:32:50Z</time><name>PT818</name></trkpt>
<trkpt lat="51.803789" lon="03.885477"><ele>-4.3</ele><time>2023-12-06T10:32:51Z</time><name>PT819</name></trkpt>
<trkpt lat="51.803797" lon="03.885491"><ele>-4.4</ele><time>2023-12-06T10:32:52Z</time><name>PT820</name></trkpt>
<trkpt lat="51.803808" lon="03.885501"><ele>-4.3</ele><time>2023-12-06T10:32:53Z</time><name>PT821</name></trkpt>
<trkpt lat="51.803819" lon="03.885513"><ele>-4.4</ele><time>2023-12-06T10:32:54Z</time><name>PT822</name></trkpt>
<trkpt lat="51.803827" lon="03.885524"><ele>-4.2</ele><time>2023-12-06T10:32:55Z</time><name>PT823</name></trkpt>
<trkpt lat="51.803835" lon="03.885538"><ele>-4</ele><time>2023-12-06T10:32:56Z</time><name>PT824</name></trkpt>
<trkpt lat="51.803843" lon="03.885552"><ele>-4</ele><time>2023-12-06T10:32:57Z</time><name>PT825</name></trkpt>
<trkpt lat="51.803852" lon="03.885568"><ele>-3.9</ele><time>2023-12-06T10:32:58Z</time><name>PT826</name></trkpt>
<trkpt lat="51.803861" lon="03.885582"><ele>-3.8</ele><time>2023-12-06T10:32:59Z</time><name>PT827</name></trkpt>
<trkpt lat="51.803871" lon="03.885595"><ele>-3.9</ele><time>2023-12-06T10:33:00Z</time><name>PT828</name></trkpt>
<trkpt lat="51.803880" lon="03.885609"><ele>-3.9</ele><time>2023-12-06T10:33:01Z</time><name>PT829</name></trkpt>
<trkpt lat="51.803888" lon="03.885623"><ele>-3.7</ele><time>2023-12-06T10:33:02Z</time><name>PT830</name></trkpt>
<trkpt lat="51.803898" lon="03.885635"><ele>-3.9</ele><time>2023-12-06T10:33:03Z</time><name>PT831</name></trkpt>
<trkpt lat="51.803907" lon="03.885644"><ele>-3.7</ele><time>2023-12-06T10:33:04Z</time><name>PT832</name></trkpt>
<trkpt lat="51.803915" lon="03.885655"><ele>-3.8</ele><time>2023-12-06T10:33:05Z</time><name>PT833</name></trkpt>
<trkpt lat="51.803924" lon="03.885670"><ele>-3.8</ele><time>2023-12-06T10:33:06Z</time><name>PT834</name></trkpt>
<trkpt lat="51.803933" lon="03.885686"><ele>-4.1</ele><time>2023-12-06T10:33:07Z</time><name>PT835</name></trkpt>
<trkpt lat="51.803941" lon="03.885702"><ele>-4.1</ele><time>2023-12-06T10:33:08Z</time><name>PT836</name></trkpt>
<trkpt lat="51.803949" lon="03.885718"><ele>-4.1</ele><time>2023-12-06T10:33:09Z</time><name>PT837</name></trkpt>
<trkpt lat="51.803956" lon="03.885732"><ele>-4.1</ele><time>2023-12-06T10:33:10Z</time><name>PT838</name></trkpt>
<trkpt lat="51.803964" lon="03.885747"><ele>-4.1</ele><time>2023-12-06T10:33:11Z</time><name>PT839</name></trkpt>
<trkpt lat="51.803973" lon="03.885759"><ele>-3.9</ele><time>2023-12-06T10:33:12Z</time><name>PT840</name></trkpt>
<trkpt lat="51.803982" lon="03.885774"><ele>-3.9</ele><time>2023-12-06T10:33:13Z</time><name>PT841</name></trkpt>
<trkpt lat="51.803990" lon="03.885787"><ele>-3.8</ele><time>2023-12-06T10:33:14Z</time><name>PT842</name></trkpt>
<trkpt lat="51.803998" lon="03.885801"><ele>-3.8</ele><time>2023-12-06T10:33:15Z</time><name>PT843</name></trkpt>
<trkpt lat="51.804005" lon="03.885815"><ele>-3.8</ele><time>2023-12-06T10:33:16Z</time><name>PT844</name></trkpt>
<trkpt lat="51.804012" lon="03.885831"><ele>-3.7</ele><time>2023-12-06T10:33:17Z</time><name>PT845</name></trkpt>
<trkpt lat="51.804022" lon="03.885849"><ele>-3.8</ele><time>2023-12-06T10:33:18Z</time><name>PT846</name></trkpt>
<trkpt lat="51.804030" lon="03.885865"><ele>-3.8</ele><time>2023-12-06T10:33:19Z</time><name>PT847</name></trkpt>
<trkpt lat="51.804039" lon="03.885876"><ele>-3.9</ele><time>2023-12-06T10:33:20Z</time><name>PT848</name></trkpt>
<trkpt lat="51.804046" lon="03.885887"><ele>-3.9</ele><time>2023-12-06T10:33:21Z</time><name>PT849</name></trkpt>
<trkpt lat="51.804054" lon="03.885898"><ele>-3.8</ele><time>2023-12-06T10:33:22Z</time><name>PT850</name></trkpt>
<trkpt lat="51.804061" lon="03.885909"><ele>-3.7</ele><time>2023-12-06T10:33:23Z</time><name>PT851</name></trkpt>
<trkpt lat="51.804068" lon="03.885920"><ele>-3.6</ele><time>2023-12-06T10:33:24Z</time><name>PT852</name></trkpt>
<trkpt lat="51.804075" lon="03.885932"><ele>-3.6</ele><time>2023-12-06T10:33:25Z</time><name>PT853</name></trkpt>
<trkpt lat="51.804083" lon="03.885945"><ele>-3.6</ele><time>2023-12-06T10:33:26Z</time><name>PT854</name></trkpt>
<trkpt lat="51.804090" lon="03.885960"><ele>-3.6</ele><time>2023-12-06T10:33:27Z</time><name>PT855</name></trkpt>
<trkpt lat="51.804096" lon="03.885971"><ele>-3.7</ele><time>2023-12-06T10:33:28Z</time><name>PT856</name></trkpt>
<trkpt lat="51.804101" lon="03.885983"><ele>-3.7</ele><time>2023-12-06T10:33:29Z</time><name>PT857</name></trkpt>
<trkpt lat="51.804106" lon="03.885994"><ele>-3.8</ele><time>2023-12-06T10:33:30Z</time><name>PT858</name></trkpt>
<trkpt lat="51.804112" lon="03.886001"><ele>-3.7</ele><time>2023-12-06T10:33:31Z</time><name>PT859</name></trkpt>
<trkpt lat="51.804116" lon="03.886008"><ele>-3.7</ele><time>2023-12-06T10:33:32Z</time><name>PT860</name></trkpt>
<trkpt lat="51.804119" lon="03.886015"><ele>-3.9</ele><time>2023-12-06T10:33:33Z</time><name>PT861</name></trkpt>
<trkpt lat="51.804120" lon="03.886015"><ele>-3.8</ele><time>2023-12-06T10:33:34Z</time><name>PT862</name></trkpt>
<trkpt lat="51.804120" lon="03.886018"><ele>-3.7</ele><time>2023-12-06T10:33:35Z</time><name>PT863</name></trkpt>
<trkpt lat="51.804126" lon="03.886019"><ele>-3.7</ele><time>2023-12-06T10:33:43Z</time><name>PT864</name></trkpt>
<trkpt lat="51.804133" lon="03.886028"><ele>-3.8</ele><time>2023-12-06T10:33:44Z</time><name>PT865</name></trkpt>
<trkpt lat="51.804141" lon="03.886038"><ele>-3.6</ele><time>2023-12-06T10:33:45Z</time><name>PT866</name></trkpt>
<trkpt lat="51.804145" lon="03.886049"><ele>-3.6</ele><time>2023-12-06T10:33:46Z</time><name>PT867</name></trkpt>
<trkpt lat="51.804151" lon="03.886054"><ele>-3.6</ele><time>2023-12-06T10:33:47Z</time><name>PT868</name></trkpt>
<trkpt lat="51.804154" lon="03.886061"><ele>-3.4</ele><time>2023-12-06T10:33:48Z</time><name>PT869</name></trkpt>
<trkpt lat="51.804154" lon="03.886067"><ele>-3.5</ele><time>2023-12-06T10:33:49Z</time><name>PT870</name></trkpt>
<trkpt lat="51.804154" lon="03.886078"><ele>-3.5</ele><time>2023-12-06T10:33:50Z</time><name>PT871</name></trkpt>
<trkpt lat="51.804155" lon="03.886089"><ele>-3.5</ele><time>2023-12-06T10:33:51Z</time><name>PT872</name></trkpt>
<trkpt lat="51.804155" lon="03.886098"><ele>-3.6</ele><time>2023-12-06T10:33:52Z</time><name>PT873</name></trkpt>
<trkpt lat="51.804157" lon="03.886106"><ele>-3.6</ele><time>2023-12-06T10:33:53Z</time><name>PT874</name></trkpt>
<trkpt lat="51.804160" lon="03.886109"><ele>-3.4</ele><time>2023-12-06T10:33:54Z</time><name>PT875</name></trkpt>
<trkpt lat="51.804160" lon="03.886109"><ele>-3.3</ele><time>2023-12-06T10:33:55Z</time><name>PT876</name></trkpt>
<trkpt lat="51.804161" lon="03.886109"><ele>-3.2</ele><time>2023-12-06T10:33:56Z</time><name>PT877</name></trkpt>
<trkpt lat="51.804158" lon="03.886112"><ele>-3.2</ele><time>2023-12-06T10:34:18Z</time><name>PT878</name></trkpt>
<trkpt lat="51.804160" lon="03.886117"><ele>-3.2</ele><time>2023-12-06T10:34:19Z</time><name>PT879</name></trkpt>
<trkpt lat="51.804160" lon="03.886123"><ele>-3.1</ele><time>2023-12-06T10:34:20Z</time><name>PT880</name></trkpt>
<trkpt lat="51.804160" lon="03.886126"><ele>-3.4</ele><time>2023-12-06T10:34:21Z</time><name>PT881</name></trkpt>
<trkpt lat="51.804160" lon="03.886132"><ele>-3.4</ele><time>2023-12-06T10:34:22Z</time><name>PT882</name></trkpt>
<trkpt lat="51.804161" lon="03.886138"><ele>-3.3</ele><time>2023-12-06T10:34:23Z</time><name>PT883</name></trkpt>
<trkpt lat="51.804161" lon="03.886143"><ele>-3.6</ele><time>2023-12-06T10:34:24Z</time><name>PT884</name></trkpt>
<trkpt lat="51.804164" lon="03.886151"><ele>-3.4</ele><time>2023-12-06T10:34:37Z</time><name>PT885</name></trkpt>
<trkpt lat="51.804166" lon="03.886162"><ele>-3.3</ele><time>2023-12-06T10:34:38Z</time><name>PT886</name></trkpt>
<trkpt lat="51.804165" lon="03.886167"><ele>-3.3</ele><time>2023-12-06T10:34:39Z</time><name>PT887</name></trkpt>
<trkpt lat="51.804163" lon="03.886172"><ele>-3.2</ele><time>2023-12-06T10:34:40Z</time><name>PT888</name></trkpt>
<trkpt lat="51.804163" lon="03.886173"><ele>-3.4</ele><time>2023-12-06T10:34:41Z</time><name>PT889</name></trkpt>
<trkpt lat="51.804163" lon="03.886173"><ele>-3.5</ele><time>2023-12-06T10:34:42Z</time><name>PT890</name></trkpt>
<trkpt lat="51.804162" lon="03.886174"><ele>-3.5</ele><time>2023-12-06T10:34:58Z</time><name>PT891</name></trkpt>
<trkpt lat="51.804162" lon="03.886184"><ele>-3.5</ele><time>2023-12-06T10:34:59Z</time><name>PT892</name></trkpt>
<trkpt lat="51.804164" lon="03.886183"><ele>-3.4</ele><time>2023-12-06T10:35:00Z</time><name>PT893</name></trkpt>
<trkpt lat="51.804163" lon="03.886182"><ele>-3.6</ele><time>2023-12-06T10:35:01Z</time><name>PT894</name></trkpt>
<trkpt lat="51.804162" lon="03.886180"><ele>-3.6</ele><time>2023-12-06T10:35:02Z</time><name>PT895</name></trkpt>
<trkpt lat="51.804161" lon="03.886178"><ele>-3.6</ele><time>2023-12-06T10:35:03Z</time><name>PT896</name></trkpt>
<trkpt lat="51.804161" lon="03.886177"><ele>-3.6</ele><time>2023-12-06T10:35:04Z</time><name>PT897</name></trkpt>
<trkpt lat="51.804160" lon="03.886177"><ele>-3.6</ele><time>2023-12-06T10:35:25Z</time><name>PT898</name></trkpt>
<trkpt lat="51.804159" lon="03.886179"><ele>-3.4</ele><time>2023-12-06T10:35:26Z</time><name>PT899</name></trkpt>
<trkpt lat="51.804159" lon="03.886185"><ele>-3.6</ele><time>2023-12-06T10:35:32Z</time><name>PT900</name></trkpt>
<trkpt lat="51.804151" lon="03.886190"><ele>-3.4</ele><time>2023-12-06T10:35:33Z</time><name>PT901</name></trkpt>
<trkpt lat="51.804144" lon="03.886196"><ele>-3.4</ele><time>2023-12-06T10:35:34Z</time><name>PT902</name></trkpt>
<trkpt lat="51.804136" lon="03.886202"><ele>-3.6</ele><time>2023-12-06T10:35:35Z</time><name>PT903</name></trkpt>
<trkpt lat="51.804126" lon="03.886205"><ele>-3.6</ele><time>2023-12-06T10:35:36Z</time><name>PT904</name></trkpt>
<trkpt lat="51.804115" lon="03.886208"><ele>-3.7</ele><time>2023-12-06T10:35:37Z</time><name>PT905</name></trkpt>
<trkpt lat="51.804105" lon="03.886213"><ele>-3.9</ele><time>2023-12-06T10:35:38Z</time><name>PT906</name></trkpt>
<trkpt lat="51.804095" lon="03.886215"><ele>-3.8</ele><time>2023-12-06T10:35:39Z</time><name>PT907</name></trkpt>
<trkpt lat="51.804086" lon="03.886219"><ele>-3.8</ele><time>2023-12-06T10:35:40Z</time><name>PT908</name></trkpt>
<trkpt lat="51.804079" lon="03.886223"><ele>-3.8</ele><time>2023-12-06T10:35:41Z</time><name>PT909</name></trkpt>
<trkpt lat="51.804071" lon="03.886228"><ele>-3.7</ele><time>2023-12-06T10:35:42Z</time><name>PT910</name></trkpt>
<trkpt lat="51.804061" lon="03.886229"><ele>-3.7</ele><time>2023-12-06T10:35:43Z</time><name>PT911</name></trkpt>
<trkpt lat="51.804053" lon="03.886233"><ele>-3.8</ele><time>2023-12-06T10:35:44Z</time><name>PT912</name></trkpt>
<trkpt lat="51.804043" lon="03.886238"><ele>-3.8</ele><time>2023-12-06T10:35:45Z</time><name>PT913</name></trkpt>
<trkpt lat="51.804033" lon="03.886242"><ele>-3.8</ele><time>2023-12-06T10:35:46Z</time><name>PT914</name></trkpt>
<trkpt lat="51.804024" lon="03.886244"><ele>-3.7</ele><time>2023-12-06T10:35:47Z</time><name>PT915</name></trkpt>
<trkpt lat="51.804013" lon="03.886244"><ele>-3.6</ele><time>2023-12-06T10:35:48Z</time><name>PT916</name></trkpt>
<trkpt lat="51.804003" lon="03.886243"><ele>-3.6</ele><time>2023-12-06T10:35:49Z</time><name>PT917</name></trkpt>
<trkpt lat="51.803991" lon="03.886244"><ele>-3.6</ele><time>2023-12-06T10:35:50Z</time><name>PT918</name></trkpt>
<trkpt lat="51.803981" lon="03.886248"><ele>-3.4</ele><time>2023-12-06T10:35:51Z</time><name>PT919</name></trkpt>
<trkpt lat="51.803971" lon="03.886253"><ele>-3.4</ele><time>2023-12-06T10:35:52Z</time><name>PT920</name></trkpt>
<trkpt lat="51.803961" lon="03.886258"><ele>-3.4</ele><time>2023-12-06T10:35:53Z</time><name>PT921</name></trkpt>
<trkpt lat="51.803952" lon="03.886263"><ele>-3.4</ele><time>2023-12-06T10:35:54Z</time><name>PT922</name></trkpt>
<trkpt lat="51.803945" lon="03.886267"><ele>-3.4</ele><time>2023-12-06T10:35:55Z</time><name>PT923</name></trkpt>
<trkpt lat="51.803939" lon="03.886266"><ele>-3.2</ele><time>2023-12-06T10:35:56Z</time><name>PT924</name></trkpt>
<trkpt lat="51.803932" lon="03.886268"><ele>-3.2</ele><time>2023-12-06T10:35:57Z</time><name>PT925</name></trkpt>
<trkpt lat="51.803928" lon="03.886267"><ele>-3.2</ele><time>2023-12-06T10:35:58Z</time><name>PT926</name></trkpt>
<trkpt lat="51.803926" lon="03.886267"><ele>-3.2</ele><time>2023-12-06T10:35:59Z</time><name>PT927</name></trkpt>
<trkpt lat="51.803923" lon="03.886266"><ele>-3.3</ele><time>2023-12-06T10:36:00Z</time><name>PT928</name></trkpt>
<trkpt lat="51.803921" lon="03.886267"><ele>-3.3</ele><time>2023-12-06T10:36:01Z</time><name>PT929</name></trkpt>
<trkpt lat="51.803917" lon="03.886263"><ele>-3.2</ele><time>2023-12-06T10:36:02Z</time><name>PT930</name></trkpt>
<trkpt lat="51.803914" lon="03.886262"><ele>-3.1</ele><time>2023-12-06T10:36:03Z</time><name>PT931</name></trkpt>
<trkpt lat="51.803911" lon="03.886257"><ele>-3.1</ele><time>2023-12-06T10:36:04Z</time><name>PT932</name></trkpt>
<trkpt lat="51.803910" lon="03.886256"><ele>-3</ele><time>2023-12-06T10:36:05Z</time><name>PT933</name></trkpt>
<trkpt lat="51.803908" lon="03.886258"><ele>-3</ele><time>2023-12-06T10:36:06Z</time><name>PT934</name></trkpt>
<trkpt lat="51.803909" lon="03.886259"><ele>-3.1</ele><time>2023-12-06T10:36:07Z</time><name>PT935</name></trkpt>
<trkpt lat="51.803905" lon="03.886258"><ele>-3.2</ele><time>2023-12-06T10:36:16Z</time><name>PT936</name></trkpt>
<trkpt lat="51.803901" lon="03.886263"><ele>-3.1</ele><time>2023-12-06T10:36:17Z</time><name>PT937</name></trkpt>
<trkpt lat="51.803895" lon="03.886267"><ele>-3</ele><time>2023-12-06T10:36:18Z</time><name>PT938</name></trkpt>
<trkpt lat="51.803885" lon="03.886273"><ele>-3</ele><time>2023-12-06T10:36:19Z</time><name>PT939</name></trkpt>
<trkpt lat="51.803874" lon="03.886278"><ele>-3.1</ele><time>2023-12-06T10:36:20Z</time><name>PT940</name></trkpt>
<trkpt lat="51.803863" lon="03.886283"><ele>-3.2</ele><time>2023-12-06T10:36:21Z</time><name>PT941</name></trkpt>
<trkpt lat="51.803851" lon="03.886286"><ele>-3.3</ele><time>2023-12-06T10:36:22Z</time><name>PT942</name></trkpt>
<trkpt lat="51.803838" lon="03.886291"><ele>-3.2</ele><time>2023-12-06T10:36:23Z</time><name>PT943</name></trkpt>
<trkpt lat="51.803826" lon="03.886297"><ele>-3.4</ele><time>2023-12-06T10:36:24Z</time><name>PT944</name></trkpt>
<trkpt lat="51.803814" lon="03.886301"><ele>-3.5</ele><time>2023-12-06T10:36:25Z</time><name>PT945</name></trkpt>
<trkpt lat="51.803802" lon="03.886305"><ele>-3.4</ele><time>2023-12-06T10:36:26Z</time><name>PT946</name></trkpt>
<trkpt lat="51.803790" lon="03.886306"><ele>-3.2</ele><time>2023-12-06T10:36:27Z</time><name>PT947</name></trkpt>
<trkpt lat="51.803779" lon="03.886308"><ele>-3.2</ele><time>2023-12-06T10:36:28Z</time><name>PT948</name></trkpt>
<trkpt lat="51.803767" lon="03.886309"><ele>-3.2</ele><time>2023-12-06T10:36:29Z</time><name>PT949</name></trkpt>
<trkpt lat="51.803757" lon="03.886313"><ele>-3.2</ele><time>2023-12-06T10:36:30Z</time><name>PT950</name></trkpt>
<trkpt lat="51.803745" lon="03.886317"><ele>-3.1</ele><time>2023-12-06T10:36:31Z</time><name>PT951</name></trkpt>
<trkpt lat="51.803733" lon="03.886320"><ele>-3.2</ele><time>2023-12-06T10:36:32Z</time><name>PT952</name></trkpt>
<trkpt lat="51.803721" lon="03.886322"><ele>-3.1</ele><time>2023-12-06T10:36:33Z</time><name>PT953</name></trkpt>
<trkpt lat="51.803709" lon="03.886322"><ele>-3</ele><time>2023-12-06T10:36:34Z</time><name>PT954</name></trkpt>
<trkpt lat="51.803696" lon="03.886319"><ele>-3</ele><time>2023-12-06T10:36:35Z</time><name>PT955</name></trkpt>
<trkpt lat="51.803684" lon="03.886318"><ele>-3</ele><time>2023-12-06T10:36:36Z</time><name>PT956</name></trkpt>
<trkpt lat="51.803672" lon="03.886317"><ele>-3.1</ele><time>2023-12-06T10:36:37Z</time><name>PT957</name></trkpt>
<trkpt lat="51.803659" lon="03.886315"><ele>-3</ele><time>2023-12-06T10:36:38Z</time><name>PT958</name></trkpt>
<trkpt lat="51.803645" lon="03.886315"><ele>-3</ele><time>2023-12-06T10:36:39Z</time><name>PT959</name></trkpt>
<trkpt lat="51.803631" lon="03.886315"><ele>-2.9</ele><time>2023-12-06T10:36:40Z</time><name>PT960</name></trkpt>
<trkpt lat="51.803618" lon="03.886316"><ele>-2.7</ele><time>2023-12-06T10:36:41Z</time><name>PT961</name></trkpt>
<trkpt lat="51.803606" lon="03.886315"><ele>-2.8</ele><time>2023-12-06T10:36:42Z</time><name>PT962</name></trkpt>
<trkpt lat="51.803593" lon="03.886314"><ele>-2.9</ele><time>2023-12-06T10:36:43Z</time><name>PT963</name></trkpt>
<trkpt lat="51.803580" lon="03.886314"><ele>-2.9</ele><time>2023-12-06T10:36:44Z</time><name>PT964</name></trkpt>
<trkpt lat="51.803568" lon="03.886313"><ele>-2.8</ele><time>2023-12-06T10:36:45Z</time><name>PT965</name></trkpt>
<trkpt lat="51.803556" lon="03.886311"><ele>-2.8</ele><time>2023-12-06T10:36:46Z</time><name>PT966</name></trkpt>
<trkpt lat="51.803545" lon="03.886311"><ele>-2.7</ele><time>2023-12-06T10:36:47Z</time><name>PT967</name></trkpt>
<trkpt lat="51.803531" lon="03.886310"><ele>-2.8</ele><time>2023-12-06T10:36:48Z</time><name>PT968</name></trkpt>
<trkpt lat="51.803521" lon="03.886311"><ele>-2.9</ele><time>2023-12-06T10:36:49Z</time><name>PT969</name></trkpt>
<trkpt lat="51.803510" lon="03.886314"><ele>-3</ele><time>2023-12-06T10:36:50Z</time><name>PT970</name></trkpt>
<trkpt lat="51.803497" lon="03.886315"><ele>-3</ele><time>2023-12-06T10:36:51Z</time><name>PT971</name></trkpt>
<trkpt lat="51.803482" lon="03.886313"><ele>-2.8</ele><time>2023-12-06T10:36:52Z</time><name>PT972</name></trkpt>
<trkpt lat="51.803469" lon="03.886312"><ele>-2.8</ele><time>2023-12-06T10:36:53Z</time><name>PT973</name></trkpt>
<trkpt lat="51.803457" lon="03.886314"><ele>-2.8</ele><time>2023-12-06T10:36:54Z</time><name>PT974</name></trkpt>
<trkpt lat="51.803445" lon="03.886315"><ele>-2.8</ele><time>2023-12-06T10:36:55Z</time><name>PT975</name></trkpt>
<trkpt lat="51.803432" lon="03.886314"><ele>-2.8</ele><time>2023-12-06T10:36:56Z</time><name>PT976</name></trkpt>
<trkpt lat="51.803419" lon="03.886313"><ele>-2.9</ele><time>2023-12-06T10:36:57Z</time><name>PT977</name></trkpt>
<trkpt lat="51.803405" lon="03.886313"><ele>-3</ele><time>2023-12-06T10:36:58Z</time><name>PT978</name></trkpt>
<trkpt lat="51.803392" lon="03.886311"><ele>-2.9</ele><time>2023-12-06T10:36:59Z</time><name>PT979</name></trkpt>
<trkpt lat="51.803380" lon="03.886312"><ele>-2.9</ele><time>2023-12-06T10:37:00Z</time><name>PT980</name></trkpt>
<trkpt lat="51.803366" lon="03.886313"><ele>-2.8</ele><time>2023-12-06T10:37:01Z</time><name>PT981</name></trkpt>
<trkpt lat="51.803354" lon="03.886314"><ele>-2.8</ele><time>2023-12-06T10:37:02Z</time><name>PT982</name></trkpt>
<trkpt lat="51.803343" lon="03.886315"><ele>-2.5</ele><time>2023-12-06T10:37:03Z</time><name>PT983</name></trkpt>
<trkpt lat="51.803332" lon="03.886315"><ele>-2.4</ele><time>2023-12-06T10:37:04Z</time><name>PT984</name></trkpt>
<trkpt lat="51.803320" lon="03.886314"><ele>-2.4</ele><time>2023-12-06T10:37:05Z</time><name>PT985</name></trkpt>
<trkpt lat="51.803307" lon="03.886312"><ele>-2.6</ele><time>2023-12-06T10:37:06Z</time><name>PT986</name></trkpt>
<trkpt lat="51.803294" lon="03.886312"><ele>-2.6</ele><time>2023-12-06T10:37:07Z</time><name>PT987</name></trkpt>
<trkpt lat="51.803283" lon="03.886311"><ele>-2.7</ele><time>2023-12-06T10:37:08Z</time><name>PT988</name></trkpt>
<trkpt lat="51.803271" lon="03.886311"><ele>-3</ele><time>2023-12-06T10:37:09Z</time><name>PT989</name></trkpt>
<trkpt lat="51.803260" lon="03.886311"><ele>-3</ele><time>2023-12-06T10:37:10Z</time><name>PT990</name></trkpt>
<trkpt lat="51.803247" lon="03.886312"><ele>-3</ele><time>2023-12-06T10:37:11Z</time><name>PT991</name></trkpt>
<trkpt lat="51.803234" lon="03.886314"><ele>-2.8</ele><time>2023-12-06T10:37:12Z</time><name>PT992</name></trkpt>
<trkpt lat="51.803222" lon="03.886314"><ele>-2.8</ele><time>2023-12-06T10:37:13Z</time><name>PT993</name></trkpt>
<trkpt lat="51.803211" lon="03.886315"><ele>-2.7</ele><time>2023-12-06T10:37:14Z</time><name>PT994</name></trkpt>
<trkpt lat="51.803199" lon="03.886315"><ele>-2.7</ele><time>2023-12-06T10:37:15Z</time><name>PT995</name></trkpt>
<trkpt lat="51.803188" lon="03.886313"><ele>-2.7</ele><time>2023-12-06T10:37:16Z</time><name>PT996</name></trkpt>
<trkpt lat="51.803175" lon="03.886311"><ele>-2.7</ele><time>2023-12-06T10:37:17Z</time><name>PT997</name></trkpt>
<trkpt lat="51.803164" lon="03.886309"><ele>-2.8</ele><time>2023-12-06T10:37:18Z</time><name>PT998</name></trkpt>
<trkpt lat="51.803152" lon="03.886311"><ele>-2.7</ele><time>2023-12-06T10:37:19Z</time><name>PT999</name></trkpt>
<trkpt lat="51.803139" lon="03.886313"><ele>-2.9</ele><time>2023-12-06T10:37:20Z</time><name>PT1000</name></trkpt>
<trkpt lat="51.803126" lon="03.886315"><ele>-2.8</ele><time>2023-12-06T10:37:21Z</time><name>PT1001</name></trkpt>
<trkpt lat="51.803113" lon="03.886315"><ele>-2.9</ele><time>2023-12-06T10:37:22Z</time><name>PT1002</name></trkpt>
<trkpt lat="51.803101" lon="03.886318"><ele>-2.9</ele><time>2023-12-06T10:37:23Z</time><name>PT1003</name></trkpt>
<trkpt lat="51.803089" lon="03.886321"><ele>-3</ele><time>2023-12-06T10:37:24Z</time><name>PT1004</name></trkpt>
<trkpt lat="51.803076" lon="03.886324"><ele>-2.8</ele><time>2023-12-06T10:37:25Z</time><name>PT1005</name></trkpt>
<trkpt lat="51.803064" lon="03.886328"><ele>-2.8</ele><time>2023-12-06T10:37:26Z</time><name>PT1006</name></trkpt>
<trkpt lat="51.803053" lon="03.886333"><ele>-2.8</ele><time>2023-12-06T10:37:27Z</time><name>PT1007</name></trkpt>
<trkpt lat="51.803040" lon="03.886337"><ele>-2.8</ele><time>2023-12-06T10:37:28Z</time><name>PT1008</name></trkpt>
<trkpt lat="51.803029" lon="03.886339"><ele>-2.7</ele><time>2023-12-06T10:37:29Z</time><name>PT1009</name></trkpt>
<trkpt lat="51.803018" lon="03.886342"><ele>-2.7</ele><time>2023-12-06T10:37:30Z</time><name>PT1010</name></trkpt>
<trkpt lat="51.803007" lon="03.886346"><ele>-2.7</ele><time>2023-12-06T10:37:31Z</time><name>PT1011</name></trkpt>
<trkpt lat="51.802996" lon="03.886348"><ele>-2.7</ele><time>2023-12-06T10:37:32Z</time><name>PT1012</name></trkpt>
<trkpt lat="51.802985" lon="03.886349"><ele>-2.7</ele><time>2023-12-06T10:37:33Z</time><name>PT1013</name></trkpt>
<trkpt lat="51.802972" lon="03.886349"><ele>-2.7</ele><time>2023-12-06T10:37:34Z</time><name>PT1014</name></trkpt>
<trkpt lat="51.802961" lon="03.886352"><ele>-2.8</ele><time>2023-12-06T10:37:35Z</time><name>PT1015</name></trkpt>
<trkpt lat="51.802950" lon="03.886356"><ele>-2.8</ele><time>2023-12-06T10:37:36Z</time><name>PT1016</name></trkpt>
<trkpt lat="51.802938" lon="03.886361"><ele>-2.9</ele><time>2023-12-06T10:37:37Z</time><name>PT1017</name></trkpt>
<trkpt lat="51.802927" lon="03.886366"><ele>-3</ele><time>2023-12-06T10:37:38Z</time><name>PT1018</name></trkpt>
<trkpt lat="51.802913" lon="03.886370"><ele>-3</ele><time>2023-12-06T10:37:39Z</time><name>PT1019</name></trkpt>
<trkpt lat="51.802901" lon="03.886375"><ele>-3.1</ele><time>2023-12-06T10:37:40Z</time><name>PT1020</name></trkpt>
<trkpt lat="51.802889" lon="03.886381"><ele>-3.2</ele><time>2023-12-06T10:37:41Z</time><name>PT1021</name></trkpt>
<trkpt lat="51.802876" lon="03.886386"><ele>-3.2</ele><time>2023-12-06T10:37:42Z</time><name>PT1022</name></trkpt>
<trkpt lat="51.802864" lon="03.886391"><ele>-3.2</ele><time>2023-12-06T10:37:43Z</time><name>PT1023</name></trkpt>
<trkpt lat="51.802850" lon="03.886392"><ele>-3.2</ele><time>2023-12-06T10:37:44Z</time><name>PT1024</name></trkpt>
<trkpt lat="51.802836" lon="03.886393"><ele>-3.2</ele><time>2023-12-06T10:37:45Z</time><name>PT1025</name></trkpt>
<trkpt lat="51.802823" lon="03.886395"><ele>-3.2</ele><time>2023-12-06T10:37:46Z</time><name>PT1026</name></trkpt>
<trkpt lat="51.802810" lon="03.886397"><ele>-3.2</ele><time>2023-12-06T10:37:47Z</time><name>PT1027</name></trkpt>
<trkpt lat="51.802799" lon="03.886401"><ele>-3.3</ele><time>2023-12-06T10:37:48Z</time><name>PT1028</name></trkpt>
<trkpt lat="51.802789" lon="03.886406"><ele>-3.3</ele><time>2023-12-06T10:37:49Z</time><name>PT1029</name></trkpt>
<trkpt lat="51.802778" lon="03.886412"><ele>-3.2</ele><time>2023-12-06T10:37:50Z</time><name>PT1030</name></trkpt>
<trkpt lat="51.802767" lon="03.886419"><ele>-3.2</ele><time>2023-12-06T10:37:51Z</time><name>PT1031</name></trkpt>
<trkpt lat="51.802756" lon="03.886426"><ele>-3.2</ele><time>2023-12-06T10:37:52Z</time><name>PT1032</name></trkpt>
<trkpt lat="51.802744" lon="03.886434"><ele>-3.2</ele><time>2023-12-06T10:37:53Z</time><name>PT1033</name></trkpt>
<trkpt lat="51.802733" lon="03.886441"><ele>-3.2</ele><time>2023-12-06T10:37:54Z</time><name>PT1034</name></trkpt>
<trkpt lat="51.802722" lon="03.886448"><ele>-3</ele><time>2023-12-06T10:37:55Z</time><name>PT1035</name></trkpt>
<trkpt lat="51.802712" lon="03.886455"><ele>-3</ele><time>2023-12-06T10:37:56Z</time><name>PT1036</name></trkpt>
<trkpt lat="51.802703" lon="03.886463"><ele>-2.9</ele><time>2023-12-06T10:37:57Z</time><name>PT1037</name></trkpt>
<trkpt lat="51.802690" lon="03.886467"><ele>-2.9</ele><time>2023-12-06T10:37:58Z</time><name>PT1038</name></trkpt>
<trkpt lat="51.802678" lon="03.886473"><ele>-3.2</ele><time>2023-12-06T10:37:59Z</time><name>PT1039</name></trkpt>
<trkpt lat="51.802667" lon="03.886479"><ele>-3.2</ele><time>2023-12-06T10:38:00Z</time><name>PT1040</name></trkpt>
<trkpt lat="51.802656" lon="03.886484"><ele>-3.3</ele><time>2023-12-06T10:38:01Z</time><name>PT1041</name></trkpt>
<trkpt lat="51.802644" lon="03.886491"><ele>-3.3</ele><time>2023-12-06T10:38:02Z</time><name>PT1042</name></trkpt>
<trkpt lat="51.802634" lon="03.886500"><ele>-3.3</ele><time>2023-12-06T10:38:03Z</time><name>PT1043</name></trkpt>
<trkpt lat="51.802623" lon="03.886508"><ele>-3.4</ele><time>2023-12-06T10:38:04Z</time><name>PT1044</name></trkpt>
<trkpt lat="51.802613" lon="03.886516"><ele>-3.2</ele><time>2023-12-06T10:38:05Z</time><name>PT1045</name></trkpt>
<trkpt lat="51.802602" lon="03.886525"><ele>-3.1</ele><time>2023-12-06T10:38:06Z</time><name>PT1046</name></trkpt>
<trkpt lat="51.802592" lon="03.886531"><ele>-3.2</ele><time>2023-12-06T10:38:07Z</time><name>PT1047</name></trkpt>
<trkpt lat="51.802581" lon="03.886537"><ele>-3.2</ele><time>2023-12-06T10:38:08Z</time><name>PT1048</name></trkpt>
<trkpt lat="51.802571" lon="03.886543"><ele>-3.2</ele><time>2023-12-06T10:38:09Z</time><name>PT1049</name></trkpt>
<trkpt lat="51.802561" lon="03.886550"><ele>-3.2</ele><time>2023-12-06T10:38:10Z</time><name>PT1050</name></trkpt>
<trkpt lat="51.802550" lon="03.886557"><ele>-3.4</ele><time>2023-12-06T10:38:11Z</time><name>PT1051</name></trkpt>
<trkpt lat="51.802538" lon="03.886564"><ele>-3.5</ele><time>2023-12-06T10:38:12Z</time><name>PT1052</name></trkpt>
<trkpt lat="51.802526" lon="03.886570"><ele>-3.5</ele><time>2023-12-06T10:38:13Z</time><name>PT1053</name></trkpt>
<trkpt lat="51.802514" lon="03.886578"><ele>-3.6</ele><time>2023-12-06T10:38:14Z</time><name>PT1054</name></trkpt>
<trkpt lat="51.802502" lon="03.886586"><ele>-3.7</ele><time>2023-12-06T10:38:15Z</time><name>PT1055</name></trkpt>
<trkpt lat="51.802491" lon="03.886594"><ele>-3.6</ele><time>2023-12-06T10:38:16Z</time><name>PT1056</name></trkpt>
<trkpt lat="51.802480" lon="03.886600"><ele>-3.7</ele><time>2023-12-06T10:38:17Z</time><name>PT1057</name></trkpt>
<trkpt lat="51.802470" lon="03.886607"><ele>-3.4</ele><time>2023-12-06T10:38:18Z</time><name>PT1058</name></trkpt>
<trkpt lat="51.802459" lon="03.886616"><ele>-3.4</ele><time>2023-12-06T10:38:19Z</time><name>PT1059</name></trkpt>
<trkpt lat="51.802449" lon="03.886626"><ele>-3.2</ele><time>2023-12-06T10:38:20Z</time><name>PT1060</name></trkpt>
<trkpt lat="51.802437" lon="03.886633"><ele>-3.2</ele><time>2023-12-06T10:38:21Z</time><name>PT1061</name></trkpt>
<trkpt lat="51.802426" lon="03.886640"><ele>-3.2</ele><time>2023-12-06T10:38:22Z</time><name>PT1062</name></trkpt>
<trkpt lat="51.802414" lon="03.886645"><ele>-3.3</ele><time>2023-12-06T10:38:23Z</time><name>PT1063</name></trkpt>
<trkpt lat="51.802403" lon="03.886650"><ele>-3.2</ele><time>2023-12-06T10:38:24Z</time><name>PT1064</name></trkpt>
<trkpt lat="51.802389" lon="03.886652"><ele>-3.3</ele><time>2023-12-06T10:38:25Z</time><name>PT1065</name></trkpt>
<trkpt lat="51.802377" lon="03.886656"><ele>-3.3</ele><time>2023-12-06T10:38:26Z</time><name>PT1066</name></trkpt>
<trkpt lat="51.802366" lon="03.886664"><ele>-3.5</ele><time>2023-12-06T10:38:27Z</time><name>PT1067</name></trkpt>
<trkpt lat="51.802355" lon="03.886671"><ele>-3.4</ele><time>2023-12-06T10:38:28Z</time><name>PT1068</name></trkpt>
<trkpt lat="51.802345" lon="03.886680"><ele>-3.2</ele><time>2023-12-06T10:38:29Z</time><name>PT1069</name></trkpt>
<trkpt lat="51.802338" lon="03.886689"><ele>-3.2</ele><time>2023-12-06T10:38:30Z</time><name>PT1070</name></trkpt>
<trkpt lat="51.802326" lon="03.886698"><ele>-3.2</ele><time>2023-12-06T10:38:31Z</time><name>PT1071</name></trkpt>
<trkpt lat="51.802314" lon="03.886706"><ele>-3.2</ele><time>2023-12-06T10:38:32Z</time><name>PT1072</name></trkpt>
<trkpt lat="51.802304" lon="03.886716"><ele>-3.2</ele><time>2023-12-06T10:38:33Z</time><name>PT1073</name></trkpt>
<trkpt lat="51.802292" lon="03.886725"><ele>-3.3</ele><time>2023-12-06T10:38:34Z</time><name>PT1074</name></trkpt>
<trkpt lat="51.802280" lon="03.886735"><ele>-3.4</ele><time>2023-12-06T10:38:35Z</time><name>PT1075</name></trkpt>
<trkpt lat="51.802269" lon="03.886742"><ele>-3.5</ele><time>2023-12-06T10:38:36Z</time><name>PT1076</name></trkpt>
<trkpt lat="51.802259" lon="03.886751"><ele>-3.6</ele><time>2023-12-06T10:38:37Z</time><name>PT1077</name></trkpt>
<trkpt lat="51.802249" lon="03.886759"><ele>-3.5</ele><time>2023-12-06T10:38:38Z</time><name>PT1078</name></trkpt>
<trkpt lat="51.802238" lon="03.886766"><ele>-3.3</ele><time>2023-12-06T10:38:39Z</time><name>PT1079</name></trkpt>
<trkpt lat="51.802227" lon="03.886773"><ele>-3.2</ele><time>2023-12-06T10:38:40Z</time><name>PT1080</name></trkpt>
<trkpt lat="51.802216" lon="03.886781"><ele>-2.9</ele><time>2023-12-06T10:38:41Z</time><name>PT1081</name></trkpt>
<trkpt lat="51.802204" lon="03.886786"><ele>-2.9</ele><time>2023-12-06T10:38:42Z</time><name>PT1082</name></trkpt>
<trkpt lat="51.802192" lon="03.886793"><ele>-2.9</ele><time>2023-12-06T10:38:43Z</time><name>PT1083</name></trkpt>
<trkpt lat="51.802181" lon="03.886800"><ele>-3.1</ele><time>2023-12-06T10:38:44Z</time><name>PT1084</name></trkpt>
<trkpt lat="51.802169" lon="03.886808"><ele>-3.1</ele><time>2023-12-06T10:38:45Z</time><name>PT1085</name></trkpt>
<trkpt lat="51.802157" lon="03.886814"><ele>-3.2</ele><time>2023-12-06T10:38:46Z</time><name>PT1086</name></trkpt>
<trkpt lat="51.802146" lon="03.886820"><ele>-3.1</ele><time>2023-12-06T10:38:47Z</time><name>PT1087</name></trkpt>
<trkpt lat="51.802134" lon="03.886825"><ele>-3</ele><time>2023-12-06T10:38:48Z</time><name>PT1088</name></trkpt>
<trkpt lat="51.802122" lon="03.886830"><ele>-3</ele><time>2023-12-06T10:38:49Z</time><name>PT1089</name></trkpt>
<trkpt lat="51.802111" lon="03.886838"><ele>-3.1</ele><time>2023-12-06T10:38:50Z</time><name>PT1090</name></trkpt>
<trkpt lat="51.802100" lon="03.886845"><ele>-3.1</ele><time>2023-12-06T10:38:51Z</time><name>PT1091</name></trkpt>
<trkpt lat="51.802091" lon="03.886852"><ele>-3.2</ele><time>2023-12-06T10:38:52Z</time><name>PT1092</name></trkpt>
<trkpt lat="51.802081" lon="03.886859"><ele>-3.2</ele><time>2023-12-06T10:38:53Z</time><name>PT1093</name></trkpt>
<trkpt lat="51.802071" lon="03.886867"><ele>-3.2</ele><time>2023-12-06T10:38:54Z</time><name>PT1094</name></trkpt>
<trkpt lat="51.802061" lon="03.886874"><ele>-3.3</ele><time>2023-12-06T10:38:55Z</time><name>PT1095</name></trkpt>
<trkpt lat="51.802050" lon="03.886881"><ele>-3.5</ele><time>2023-12-06T10:38:56Z</time><name>PT1096</name></trkpt>
<trkpt lat="51.802038" lon="03.886888"><ele>-3.6</ele><time>2023-12-06T10:38:57Z</time><name>PT1097</name></trkpt>
<trkpt lat="51.802027" lon="03.886894"><ele>-3.5</ele><time>2023-12-06T10:38:58Z</time><name>PT1098</name></trkpt>
<trkpt lat="51.802015" lon="03.886900"><ele>-3.6</ele><time>2023-12-06T10:38:59Z</time><name>PT1099</name></trkpt>
<trkpt lat="51.802004" lon="03.886904"><ele>-3.4</ele><time>2023-12-06T10:39:00Z</time><name>PT1100</name></trkpt>
<trkpt lat="51.801991" lon="03.886910"><ele>-3.5</ele><time>2023-12-06T10:39:01Z</time><name>PT1101</name></trkpt>
<trkpt lat="51.801979" lon="03.886916"><ele>-3.6</ele><time>2023-12-06T10:39:02Z</time><name>PT1102</name></trkpt>
<trkpt lat="51.801967" lon="03.886923"><ele>-3.7</ele><time>2023-12-06T10:39:03Z</time><name>PT1103</name></trkpt>
<trkpt lat="51.801957" lon="03.886928"><ele>-3.8</ele><time>2023-12-06T10:39:04Z</time><name>PT1104</name></trkpt>
<trkpt lat="51.801946" lon="03.886934"><ele>-4</ele><time>2023-12-06T10:39:05Z</time><name>PT1105</name></trkpt>
<trkpt lat="51.801935" lon="03.886940"><ele>-3.9</ele><time>2023-12-06T10:39:06Z</time><name>PT1106</name></trkpt>
<trkpt lat="51.801925" lon="03.886946"><ele>-3.9</ele><time>2023-12-06T10:39:07Z</time><name>PT1107</name></trkpt>
<trkpt lat="51.801914" lon="03.886952"><ele>-3.9</ele><time>2023-12-06T10:39:08Z</time><name>PT1108</name></trkpt>
<trkpt lat="51.801900" lon="03.886954"><ele>-3.8</ele><time>2023-12-06T10:39:09Z</time><name>PT1109</name></trkpt>
<trkpt lat="51.801887" lon="03.886957"><ele>-3.8</ele><time>2023-12-06T10:39:10Z</time><name>PT1110</name></trkpt>
<trkpt lat="51.801875" lon="03.886961"><ele>-3.6</ele><time>2023-12-06T10:39:11Z</time><name>PT1111</name></trkpt>
<trkpt lat="51.801862" lon="03.886964"><ele>-3.6</ele><time>2023-12-06T10:39:12Z</time><name>PT1112</name></trkpt>
<trkpt lat="51.801849" lon="03.886967"><ele>-3.6</ele><time>2023-12-06T10:39:13Z</time><name>PT1113</name></trkpt>
<trkpt lat="51.801836" lon="03.886970"><ele>-3.5</ele><time>2023-12-06T10:39:14Z</time><name>PT1114</name></trkpt>
<trkpt lat="51.801824" lon="03.886974"><ele>-3.4</ele><time>2023-12-06T10:39:15Z</time><name>PT1115</name></trkpt>
<trkpt lat="51.801810" lon="03.886974"><ele>-3.5</ele><time>2023-12-06T10:39:16Z</time><name>PT1116</name></trkpt>
<trkpt lat="51.801796" lon="03.886977"><ele>-3.4</ele><time>2023-12-06T10:39:17Z</time><name>PT1117</name></trkpt>
<trkpt lat="51.801781" lon="03.886979"><ele>-3.5</ele><time>2023-12-06T10:39:18Z</time><name>PT1118</name></trkpt>
<trkpt lat="51.801770" lon="03.886981"><ele>-3.5</ele><time>2023-12-06T10:39:19Z</time><name>PT1119</name></trkpt>
<trkpt lat="51.801757" lon="03.886982"><ele>-3.6</ele><time>2023-12-06T10:39:20Z</time><name>PT1120</name></trkpt>
<trkpt lat="51.801746" lon="03.886985"><ele>-3.8</ele><time>2023-12-06T10:39:21Z</time><name>PT1121</name></trkpt>
<trkpt lat="51.801735" lon="03.886988"><ele>-3.9</ele><time>2023-12-06T10:39:22Z</time><name>PT1122</name></trkpt>
<trkpt lat="51.801724" lon="03.886990"><ele>-3.8</ele><time>2023-12-06T10:39:23Z</time><name>PT1123</name></trkpt>
<trkpt lat="51.801712" lon="03.886993"><ele>-3.9</ele><time>2023-12-06T10:39:24Z</time><name>PT1124</name></trkpt>
<trkpt lat="51.801703" lon="03.886996"><ele>-3.8</ele><time>2023-12-06T10:39:25Z</time><name>PT1125</name></trkpt>
<trkpt lat="51.801693" lon="03.887001"><ele>-3.8</ele><time>2023-12-06T10:39:26Z</time><name>PT1126</name></trkpt>
<trkpt lat="51.801681" lon="03.887004"><ele>-3.6</ele><time>2023-12-06T10:39:27Z</time><name>PT1127</name></trkpt>
<trkpt lat="51.801668" lon="03.887006"><ele>-3.6</ele><time>2023-12-06T10:39:28Z</time><name>PT1128</name></trkpt>
<trkpt lat="51.801658" lon="03.887009"><ele>-3.6</ele><time>2023-12-06T10:39:29Z</time><name>PT1129</name></trkpt>
<trkpt lat="51.801648" lon="03.887011"><ele>-3.9</ele><time>2023-12-06T10:39:30Z</time><name>PT1130</name></trkpt>
<trkpt lat="51.801633" lon="03.887014"><ele>-3.7</ele><time>2023-12-06T10:39:31Z</time><name>PT1131</name></trkpt>
<trkpt lat="51.801624" lon="03.887018"><ele>-4</ele><time>2023-12-06T10:39:32Z</time><name>PT1132</name></trkpt>
<trkpt lat="51.801615" lon="03.887021"><ele>-4.1</ele><time>2023-12-06T10:39:33Z</time><name>PT1133</name></trkpt>
<trkpt lat="51.801605" lon="03.887024"><ele>-4.1</ele><time>2023-12-06T10:39:34Z</time><name>PT1134</name></trkpt>
<trkpt lat="51.801596" lon="03.887030"><ele>-4.1</ele><time>2023-12-06T10:39:35Z</time><name>PT1135</name></trkpt>
<trkpt lat="51.801586" lon="03.887038"><ele>-4.1</ele><time>2023-12-06T10:39:36Z</time><name>PT1136</name></trkpt>
<trkpt lat="51.801574" lon="03.887042"><ele>-4</ele><time>2023-12-06T10:39:37Z</time><name>PT1137</name></trkpt>
<trkpt lat="51.801563" lon="03.887046"><ele>-4.1</ele><time>2023-12-06T10:39:38Z</time><name>PT1138</name></trkpt>
<trkpt lat="51.801551" lon="03.887049"><ele>-4.1</ele><time>2023-12-06T10:39:39Z</time><name>PT1139</name></trkpt>
<trkpt lat="51.801541" lon="03.887053"><ele>-4.2</ele><time>2023-12-06T10:39:40Z</time><name>PT1140</name></trkpt>
<trkpt lat="51.801531" lon="03.887058"><ele>-4.1</ele><time>2023-12-06T10:39:41Z</time><name>PT1141</name></trkpt>
<trkpt lat="51.801521" lon="03.887062"><ele>-4.2</ele><time>2023-12-06T10:39:42Z</time><name>PT1142</name></trkpt>
<trkpt lat="51.801508" lon="03.887067"><ele>-4.2</ele><time>2023-12-06T10:39:43Z</time><name>PT1143</name></trkpt>
<trkpt lat="51.801495" lon="03.887072"><ele>-4.1</ele><time>2023-12-06T10:39:44Z</time><name>PT1144</name></trkpt>
<trkpt lat="51.801486" lon="03.887073"><ele>-4.1</ele><time>2023-12-06T10:39:45Z</time><name>PT1145</name></trkpt>
<trkpt lat="51.801477" lon="03.887077"><ele>-4.1</ele><time>2023-12-06T10:39:46Z</time><name>PT1146</name></trkpt>
<trkpt lat="51.801467" lon="03.887085"><ele>-4.1</ele><time>2023-12-06T10:39:47Z</time><name>PT1147</name></trkpt>
<trkpt lat="51.801457" lon="03.887091"><ele>-4.1</ele><time>2023-12-06T10:39:48Z</time><name>PT1148</name></trkpt>
<trkpt lat="51.801447" lon="03.887099"><ele>-4</ele><time>2023-12-06T10:39:49Z</time><name>PT1149</name></trkpt>
<trkpt lat="51.801436" lon="03.887109"><ele>-3.9</ele><time>2023-12-06T10:39:50Z</time><name>PT1150</name></trkpt>
<trkpt lat="51.801424" lon="03.887122"><ele>-4.1</ele><time>2023-12-06T10:39:51Z</time><name>PT1151</name></trkpt>
<trkpt lat="51.801413" lon="03.887130"><ele>-4</ele><time>2023-12-06T10:39:52Z</time><name>PT1152</name></trkpt>
<trkpt lat="51.801404" lon="03.887139"><ele>-4.1</ele><time>2023-12-06T10:39:53Z</time><name>PT1153</name></trkpt>
<trkpt lat="51.801393" lon="03.887145"><ele>-4.1</ele><time>2023-12-06T10:39:54Z</time><name>PT1154</name></trkpt>
<trkpt lat="51.801382" lon="03.887154"><ele>-4.2</ele><time>2023-12-06T10:39:55Z</time><name>PT1155</name></trkpt>
<trkpt lat="51.801372" lon="03.887163"><ele>-4.1</ele><time>2023-12-06T10:39:56Z</time><name>PT1156</name></trkpt>
<trkpt lat="51.801361" lon="03.887171"><ele>-4.1</ele><time>2023-12-06T10:39:57Z</time><name>PT1157</name></trkpt>
<trkpt lat="51.801351" lon="03.887177"><ele>-4</ele><time>2023-12-06T10:39:58Z</time><name>PT1158</name></trkpt>
<trkpt lat="51.801339" lon="03.887183"><ele>-4</ele><time>2023-12-06T10:39:59Z</time><name>PT1159</name></trkpt>
<trkpt lat="51.801328" lon="03.887191"><ele>-4</ele><time>2023-12-06T10:40:00Z</time><name>PT1160</name></trkpt>
<trkpt lat="51.801318" lon="03.887197"><ele>-4</ele><time>2023-12-06T10:40:01Z</time><name>PT1161</name></trkpt>
<trkpt lat="51.801306" lon="03.887202"><ele>-4.1</ele><time>2023-12-06T10:40:02Z</time><name>PT1162</name></trkpt>
<trkpt lat="51.801295" lon="03.887209"><ele>-4</ele><time>2023-12-06T10:40:03Z</time><name>PT1163</name></trkpt>
<trkpt lat="51.801285" lon="03.887213"><ele>-4</ele><time>2023-12-06T10:40:04Z</time><name>PT1164</name></trkpt>
<trkpt lat="51.801271" lon="03.887220"><ele>-4.1</ele><time>2023-12-06T10:40:05Z</time><name>PT1165</name></trkpt>
<trkpt lat="51.801259" lon="03.887228"><ele>-3.8</ele><time>2023-12-06T10:40:06Z</time><name>PT1166</name></trkpt>
<trkpt lat="51.801248" lon="03.887236"><ele>-3.9</ele><time>2023-12-06T10:40:07Z</time><name>PT1167</name></trkpt>
<trkpt lat="51.801241" lon="03.887244"><ele>-3.8</ele><time>2023-12-06T10:40:08Z</time><name>PT1168</name></trkpt>
<trkpt lat="51.801231" lon="03.887254"><ele>-3.9</ele><time>2023-12-06T10:40:09Z</time><name>PT1169</name></trkpt>
<trkpt lat="51.801220" lon="03.887264"><ele>-3.8</ele><time>2023-12-06T10:40:10Z</time><name>PT1170</name></trkpt>
<trkpt lat="51.801207" lon="03.887273"><ele>-4</ele><time>2023-12-06T10:40:11Z</time><name>PT1171</name></trkpt>
<trkpt lat="51.801197" lon="03.887283"><ele>-4</ele><time>2023-12-06T10:40:12Z</time><name>PT1172</name></trkpt>
<trkpt lat="51.801186" lon="03.887292"><ele>-4</ele><time>2023-12-06T10:40:13Z</time><name>PT1173</name></trkpt>
<trkpt lat="51.801175" lon="03.887303"><ele>-3.9</ele><time>2023-12-06T10:40:14Z</time><name>PT1174</name></trkpt>
<trkpt lat="51.801163" lon="03.887315"><ele>-3.7</ele><time>2023-12-06T10:40:15Z</time><name>PT1175</name></trkpt>
<trkpt lat="51.801153" lon="03.887327"><ele>-3.6</ele><time>2023-12-06T10:40:16Z</time><name>PT1176</name></trkpt>
<trkpt lat="51.801141" lon="03.887342"><ele>-3.4</ele><time>2023-12-06T10:40:17Z</time><name>PT1177</name></trkpt>
<trkpt lat="51.801129" lon="03.887355"><ele>-3.5</ele><time>2023-12-06T10:40:18Z</time><name>PT1178</name></trkpt>
<trkpt lat="51.801120" lon="03.887367"><ele>-3.5</ele><time>2023-12-06T10:40:19Z</time><name>PT1179</name></trkpt>
<trkpt lat="51.801111" lon="03.887380"><ele>-3.6</ele><time>2023-12-06T10:40:20Z</time><name>PT1180</name></trkpt>
<trkpt lat="51.801101" lon="03.887395"><ele>-3.5</ele><time>2023-12-06T10:40:21Z</time><name>PT1181</name></trkpt>
<trkpt lat="51.801089" lon="03.887409"><ele>-3.6</ele><time>2023-12-06T10:40:22Z</time><name>PT1182</name></trkpt>
<trkpt lat="51.801079" lon="03.887418"><ele>-3.6</ele><time>2023-12-06T10:40:23Z</time><name>PT1183</name></trkpt>
<trkpt lat="51.801069" lon="03.887426"><ele>-3.4</ele><time>2023-12-06T10:40:24Z</time><name>PT1184</name></trkpt>
<trkpt lat="51.801058" lon="03.887436"><ele>-3.4</ele><time>2023-12-06T10:40:25Z</time><name>PT1185</name></trkpt>
<trkpt lat="51.801049" lon="03.887447"><ele>-3.4</ele><time>2023-12-06T10:40:26Z</time><name>PT1186</name></trkpt>
<trkpt lat="51.801039" lon="03.887454"><ele>-3.2</ele><time>2023-12-06T10:40:27Z</time><name>PT1187</name></trkpt>
<trkpt lat="51.801031" lon="03.887463"><ele>-3.3</ele><time>2023-12-06T10:40:28Z</time><name>PT1188</name></trkpt>
<trkpt lat="51.801016" lon="03.887479"><ele>-3.6</ele><time>2023-12-06T10:40:29Z</time><name>PT1189</name></trkpt>
<trkpt lat="51.801006" lon="03.887490"><ele>-3.7</ele><time>2023-12-06T10:40:30Z</time><name>PT1190</name></trkpt>
<trkpt lat="51.800994" lon="03.887501"><ele>-3.7</ele><time>2023-12-06T10:40:31Z</time><name>PT1191</name></trkpt>
<trkpt lat="51.800985" lon="03.887513"><ele>-3.7</ele><time>2023-12-06T10:40:32Z</time><name>PT1192</name></trkpt>
<trkpt lat="51.800976" lon="03.887524"><ele>-3.6</ele><time>2023-12-06T10:40:33Z</time><name>PT1193</name></trkpt>
<trkpt lat="51.800964" lon="03.887533"><ele>-3.6</ele><time>2023-12-06T10:40:34Z</time><name>PT1194</name></trkpt>
<trkpt lat="51.800952" lon="03.887541"><ele>-3.6</ele><time>2023-12-06T10:40:35Z</time><name>PT1195</name></trkpt>
<trkpt lat="51.800941" lon="03.887551"><ele>-3.7</ele><time>2023-12-06T10:40:36Z</time><name>PT1196</name></trkpt>
<trkpt lat="51.800930" lon="03.887562"><ele>-3.8</ele><time>2023-12-06T10:40:37Z</time><name>PT1197</name></trkpt>
<trkpt lat="51.800918" lon="03.887570"><ele>-3.9</ele><time>2023-12-06T10:40:38Z</time><name>PT1198</name></trkpt>
<trkpt lat="51.800907" lon="03.887579"><ele>-4</ele><time>2023-12-06T10:40:39Z</time><name>PT1199</name></trkpt>
<trkpt lat="51.800898" lon="03.887591"><ele>-3.9</ele><time>2023-12-06T10:40:40Z</time><name>PT1200</name></trkpt>
<trkpt lat="51.800889" lon="03.887603"><ele>-3.8</ele><time>2023-12-06T10:40:41Z</time><name>PT1201</name></trkpt>
<trkpt lat="51.800880" lon="03.887615"><ele>-3.8</ele><time>2023-12-06T10:40:42Z</time><name>PT1202</name></trkpt>
<trkpt lat="51.800870" lon="03.887627"><ele>-3.7</ele><time>2023-12-06T10:40:43Z</time><name>PT1203</name></trkpt>
<trkpt lat="51.800861" lon="03.887638"><ele>-3.7</ele><time>2023-12-06T10:40:44Z</time><name>PT1204</name></trkpt>
<trkpt lat="51.800851" lon="03.887650"><ele>-3.7</ele><time>2023-12-06T10:40:45Z</time><name>PT1205</name></trkpt>
<trkpt lat="51.800840" lon="03.887661"><ele>-3.7</ele><time>2023-12-06T10:40:46Z</time><name>PT1206</name></trkpt>
<trkpt lat="51.800830" lon="03.887669"><ele>-3.8</ele><time>2023-12-06T10:40:47Z</time><name>PT1207</name></trkpt>
<trkpt lat="51.800819" lon="03.887680"><ele>-3.7</ele><time>2023-12-06T10:40:48Z</time><name>PT1208</name></trkpt>
<trkpt lat="51.800809" lon="03.887690"><ele>-3.7</ele><time>2023-12-06T10:40:49Z</time><name>PT1209</name></trkpt>
<trkpt lat="51.800798" lon="03.887699"><ele>-3.7</ele><time>2023-12-06T10:40:50Z</time><name>PT1210</name></trkpt>
<trkpt lat="51.800786" lon="03.887709"><ele>-4</ele><time>2023-12-06T10:40:51Z</time><name>PT1211</name></trkpt>
<trkpt lat="51.800774" lon="03.887720"><ele>-3.9</ele><time>2023-12-06T10:40:52Z</time><name>PT1212</name></trkpt>
<trkpt lat="51.800762" lon="03.887731"><ele>-4</ele><time>2023-12-06T10:40:53Z</time><name>PT1213</name></trkpt>
<trkpt lat="51.800750" lon="03.887740"><ele>-4</ele><time>2023-12-06T10:40:54Z</time><name>PT1214</name></trkpt>
<trkpt lat="51.800739" lon="03.887750"><ele>-4.1</ele><time>2023-12-06T10:40:55Z</time><name>PT1215</name></trkpt>
<trkpt lat="51.800730" lon="03.887760"><ele>-3.9</ele><time>2023-12-06T10:40:56Z</time><name>PT1216</name></trkpt>
<trkpt lat="51.800720" lon="03.887769"><ele>-3.9</ele><time>2023-12-06T10:40:57Z</time><name>PT1217</name></trkpt>
<trkpt lat="51.800710" lon="03.887780"><ele>-3.8</ele><time>2023-12-06T10:40:58Z</time><name>PT1218</name></trkpt>
<trkpt lat="51.800700" lon="03.887792"><ele>-3.8</ele><time>2023-12-06T10:40:59Z</time><name>PT1219</name></trkpt>
<trkpt lat="51.800690" lon="03.887804"><ele>-3.7</ele><time>2023-12-06T10:41:00Z</time><name>PT1220</name></trkpt>
<trkpt lat="51.800678" lon="03.887818"><ele>-3.8</ele><time>2023-12-06T10:41:01Z</time><name>PT1221</name></trkpt>
<trkpt lat="51.800667" lon="03.887828"><ele>-3.9</ele><time>2023-12-06T10:41:02Z</time><name>PT1222</name></trkpt>
<trkpt lat="51.800657" lon="03.887838"><ele>-3.7</ele><time>2023-12-06T10:41:03Z</time><name>PT1223</name></trkpt>
<trkpt lat="51.800645" lon="03.887848"><ele>-3.8</ele><time>2023-12-06T10:41:04Z</time><name>PT1224</name></trkpt>
<trkpt lat="51.800635" lon="03.887859"><ele>-3.7</ele><time>2023-12-06T10:41:05Z</time><name>PT1225</name></trkpt>
<trkpt lat="51.800623" lon="03.887870"><ele>-3.9</ele><time>2023-12-06T10:41:06Z</time><name>PT1226</name></trkpt>
<trkpt lat="51.800611" lon="03.887880"><ele>-4</ele><time>2023-12-06T10:41:07Z</time><name>PT1227</name></trkpt>
<trkpt lat="51.800597" lon="03.887894"><ele>-4.1</ele><time>2023-12-06T10:41:08Z</time><name>PT1228</name></trkpt>
<trkpt lat="51.800586" lon="03.887903"><ele>-4.2</ele><time>2023-12-06T10:41:09Z</time><name>PT1229</name></trkpt>
<trkpt lat="51.800574" lon="03.887915"><ele>-4.1</ele><time>2023-12-06T10:41:10Z</time><name>PT1230</name></trkpt>
<trkpt lat="51.800562" lon="03.887927"><ele>-4</ele><time>2023-12-06T10:41:11Z</time><name>PT1231</name></trkpt>
<trkpt lat="51.800551" lon="03.887936"><ele>-4</ele><time>2023-12-06T10:41:12Z</time><name>PT1232</name></trkpt>
<trkpt lat="51.800540" lon="03.887946"><ele>-3.9</ele><time>2023-12-06T10:41:13Z</time><name>PT1233</name></trkpt>
<trkpt lat="51.800530" lon="03.887955"><ele>-4</ele><time>2023-12-06T10:41:14Z</time><name>PT1234</name></trkpt>
<trkpt lat="51.800520" lon="03.887964"><ele>-4.1</ele><time>2023-12-06T10:41:15Z</time><name>PT1235</name></trkpt>
<trkpt lat="51.800509" lon="03.887974"><ele>-4.1</ele><time>2023-12-06T10:41:16Z</time><name>PT1236</name></trkpt>
<trkpt lat="51.800499" lon="03.887983"><ele>-4.3</ele><time>2023-12-06T10:41:17Z</time><name>PT1237</name></trkpt>
<trkpt lat="51.800488" lon="03.887993"><ele>-4.3</ele><time>2023-12-06T10:41:18Z</time><name>PT1238</name></trkpt>
<trkpt lat="51.800479" lon="03.888004"><ele>-4.2</ele><time>2023-12-06T10:41:19Z</time><name>PT1239</name></trkpt>
<trkpt lat="51.800469" lon="03.888014"><ele>-4.5</ele><time>2023-12-06T10:41:20Z</time><name>PT1240</name></trkpt>
<trkpt lat="51.800460" lon="03.888022"><ele>-4.4</ele><time>2023-12-06T10:41:21Z</time><name>PT1241</name></trkpt>
<trkpt lat="51.800452" lon="03.888031"><ele>-4.3</ele><time>2023-12-06T10:41:22Z</time><name>PT1242</name></trkpt>
<trkpt lat="51.800443" lon="03.888041"><ele>-4.5</ele><time>2023-12-06T10:41:23Z</time><name>PT1243</name></trkpt>
<trkpt lat="51.800431" lon="03.888049"><ele>-4.4</ele><time>2023-12-06T10:41:24Z</time><name>PT1244</name></trkpt>
<trkpt lat="51.800420" lon="03.888055"><ele>-4.3</ele><time>2023-12-06T10:41:25Z</time><name>PT1245</name></trkpt>
<trkpt lat="51.800410" lon="03.888064"><ele>-4.3</ele><time>2023-12-06T10:41:26Z</time><name>PT1246</name></trkpt>
<trkpt lat="51.800399" lon="03.888074"><ele>-4.3</ele><time>2023-12-06T10:41:27Z</time><name>PT1247</name></trkpt>
<trkpt lat="51.800388" lon="03.888082"><ele>-4.2</ele><time>2023-12-06T10:41:28Z</time><name>PT1248</name></trkpt>
<trkpt lat="51.800379" lon="03.888092"><ele>-4.2</ele><time>2023-12-06T10:41:29Z</time><name>PT1249</name></trkpt>
<trkpt lat="51.800369" lon="03.888101"><ele>-4.3</ele><time>2023-12-06T10:41:30Z</time><name>PT1250</name></trkpt>
<trkpt lat="51.800358" lon="03.888111"><ele>-4.3</ele><time>2023-12-06T10:41:31Z</time><name>PT1251</name></trkpt>
<trkpt lat="51.800348" lon="03.888121"><ele>-4.3</ele><time>2023-12-06T10:41:32Z</time><name>PT1252</name></trkpt>
<trkpt lat="51.800338" lon="03.888131"><ele>-4.4</ele><time>2023-12-06T10:41:33Z</time><name>PT1253</name></trkpt>
<trkpt lat="51.800329" lon="03.888141"><ele>-4.5</ele><time>2023-12-06T10:41:34Z</time><name>PT1254</name></trkpt>
<trkpt lat="51.800316" lon="03.888155"><ele>-4.7</ele><time>2023-12-06T10:41:35Z</time><name>PT1255</name></trkpt>
<trkpt lat="51.800306" lon="03.888166"><ele>-4.8</ele><time>2023-12-06T10:41:36Z</time><name>PT1256</name></trkpt>
<trkpt lat="51.800297" lon="03.888178"><ele>-4.8</ele><time>2023-12-06T10:41:37Z</time><name>PT1257</name></trkpt>
<trkpt lat="51.800288" lon="03.888188"><ele>-4.8</ele><time>2023-12-06T10:41:38Z</time><name>PT1258</name></trkpt>
<trkpt lat="51.800278" lon="03.888197"><ele>-4.7</ele><time>2023-12-06T10:41:39Z</time><name>PT1259</name></trkpt>
<trkpt lat="51.800268" lon="03.888208"><ele>-4.8</ele><time>2023-12-06T10:41:40Z</time><name>PT1260</name></trkpt>
<trkpt lat="51.800259" lon="03.888219"><ele>-4.8</ele><time>2023-12-06T10:41:41Z</time><name>PT1261</name></trkpt>
<trkpt lat="51.800248" lon="03.888229"><ele>-4.6</ele><time>2023-12-06T10:41:42Z</time><name>PT1262</name></trkpt>
<trkpt lat="51.800236" lon="03.888239"><ele>-4.6</ele><time>2023-12-06T10:41:43Z</time><name>PT1263</name></trkpt>
<trkpt lat="51.800223" lon="03.888247"><ele>-4.5</ele><time>2023-12-06T10:41:44Z</time><name>PT1264</name></trkpt>
<trkpt lat="51.800211" lon="03.888256"><ele>-4.4</ele><time>2023-12-06T10:41:45Z</time><name>PT1265</name></trkpt>
<trkpt lat="51.800200" lon="03.888266"><ele>-4.5</ele><time>2023-12-06T10:41:46Z</time><name>PT1266</name></trkpt>
<trkpt lat="51.800190" lon="03.888275"><ele>-4.6</ele><time>2023-12-06T10:41:47Z</time><name>PT1267</name></trkpt>
<trkpt lat="51.800179" lon="03.888284"><ele>-4.5</ele><time>2023-12-06T10:41:48Z</time><name>PT1268</name></trkpt>
<trkpt lat="51.800169" lon="03.888294"><ele>-4.5</ele><time>2023-12-06T10:41:49Z</time><name>PT1269</name></trkpt>
<trkpt lat="51.800161" lon="03.888306"><ele>-4.5</ele><time>2023-12-06T10:41:50Z</time><name>PT1270</name></trkpt>
<trkpt lat="51.800153" lon="03.888318"><ele>-4.5</ele><time>2023-12-06T10:41:51Z</time><name>PT1271</name></trkpt>
<trkpt lat="51.800142" lon="03.888329"><ele>-4.6</ele><time>2023-12-06T10:41:52Z</time><name>PT1272</name></trkpt>
<trkpt lat="51.800132" lon="03.888341"><ele>-4.6</ele><time>2023-12-06T10:41:53Z</time><name>PT1273</name></trkpt>
<trkpt lat="51.800122" lon="03.888353"><ele>-4.6</ele><time>2023-12-06T10:41:54Z</time><name>PT1274</name></trkpt>
<trkpt lat="51.800112" lon="03.888363"><ele>-4.6</ele><time>2023-12-06T10:41:55Z</time><name>PT1275</name></trkpt>
<trkpt lat="51.800102" lon="03.888372"><ele>-4.6</ele><time>2023-12-06T10:41:56Z</time><name>PT1276</name></trkpt>
<trkpt lat="51.800091" lon="03.888382"><ele>-4.6</ele><time>2023-12-06T10:41:57Z</time><name>PT1277</name></trkpt>
<trkpt lat="51.800081" lon="03.888391"><ele>-4.6</ele><time>2023-12-06T10:41:58Z</time><name>PT1278</name></trkpt>
<trkpt lat="51.800070" lon="03.888401"><ele>-4.6</ele><time>2023-12-06T10:41:59Z</time><name>PT1279</name></trkpt>
<trkpt lat="51.800061" lon="03.888411"><ele>-4.6</ele><time>2023-12-06T10:42:00Z</time><name>PT1280</name></trkpt>
<trkpt lat="51.800050" lon="03.888422"><ele>-4.6</ele><time>2023-12-06T10:42:01Z</time><name>PT1281</name></trkpt>
<trkpt lat="51.800040" lon="03.888432"><ele>-4.6</ele><time>2023-12-06T10:42:02Z</time><name>PT1282</name></trkpt>
<trkpt lat="51.800031" lon="03.888442"><ele>-4.6</ele><time>2023-12-06T10:42:03Z</time><name>PT1283</name></trkpt>
<trkpt lat="51.800022" lon="03.888451"><ele>-4.7</ele><time>2023-12-06T10:42:04Z</time><name>PT1284</name></trkpt>
<trkpt lat="51.800012" lon="03.888460"><ele>-4.6</ele><time>2023-12-06T10:42:05Z</time><name>PT1285</name></trkpt>
<trkpt lat="51.800004" lon="03.888470"><ele>-4.6</ele><time>2023-12-06T10:42:06Z</time><name>PT1286</name></trkpt>
<trkpt lat="51.799995" lon="03.888478"><ele>-4.6</ele><time>2023-12-06T10:42:07Z</time><name>PT1287</name></trkpt>
<trkpt lat="51.799993" lon="03.888477"><ele>-4.6</ele><time>2023-12-06T10:42:08Z</time><name>PT1288</name></trkpt>
<trkpt lat="51.799991" lon="03.888480"><ele>-4.5</ele><time>2023-12-06T10:42:09Z</time><name>PT1289</name></trkpt>
<trkpt lat="51.799989" lon="03.888483"><ele>-4.6</ele><time>2023-12-06T10:42:10Z</time><name>PT1290</name></trkpt>
<trkpt lat="51.799989" lon="03.888486"><ele>-4.6</ele><time>2023-12-06T10:42:11Z</time><name>PT1291</name></trkpt>
<trkpt lat="51.799981" lon="03.888488"><ele>-4.7</ele><time>2023-12-06T10:42:16Z</time><name>PT1292</name></trkpt>
<trkpt lat="51.799973" lon="03.888487"><ele>-4.8</ele><time>2023-12-06T10:42:17Z</time><name>PT1293</name></trkpt>
<trkpt lat="51.799963" lon="03.888491"><ele>-4.9</ele><time>2023-12-06T10:42:18Z</time><name>PT1294</name></trkpt>
<trkpt lat="51.799955" lon="03.888494"><ele>-5</ele><time>2023-12-06T10:42:19Z</time><name>PT1295</name></trkpt>
<trkpt lat="51.799949" lon="03.888497"><ele>-5</ele><time>2023-12-06T10:42:20Z</time><name>PT1296</name></trkpt>
<trkpt lat="51.799945" lon="03.888498"><ele>-5.1</ele><time>2023-12-06T10:42:21Z</time><name>PT1297</name></trkpt>
<trkpt lat="51.799947" lon="03.888491"><ele>-5.1</ele><time>2023-12-06T10:42:22Z</time><name>PT1298</name></trkpt>
<trkpt lat="51.799947" lon="03.888490"><ele>-5.1</ele><time>2023-12-06T10:42:23Z</time><name>PT1299</name></trkpt>
<trkpt lat="51.799945" lon="03.888495"><ele>-5.1</ele><time>2023-12-06T10:42:24Z</time><name>PT1300</name></trkpt>
<trkpt lat="51.799946" lon="03.888493"><ele>-5.1</ele><time>2023-12-06T10:42:25Z</time><name>PT1301</name></trkpt>
<trkpt lat="51.799945" lon="03.888485"><ele>-5.5</ele><time>2023-12-06T10:42:31Z</time><name>PT1302</name></trkpt>
<trkpt lat="51.799952" lon="03.888476"><ele>-5.6</ele><time>2023-12-06T10:42:32Z</time><name>PT1303</name></trkpt>
<trkpt lat="51.799957" lon="03.888471"><ele>-5.3</ele><time>2023-12-06T10:42:33Z</time><name>PT1304</name></trkpt>
<trkpt lat="51.799962" lon="03.888465"><ele>-5.4</ele><time>2023-12-06T10:42:34Z</time><name>PT1305</name></trkpt>
<trkpt lat="51.799968" lon="03.888459"><ele>-5.5</ele><time>2023-12-06T10:42:35Z</time><name>PT1306</name></trkpt>
<trkpt lat="51.799970" lon="03.888454"><ele>-5.3</ele><time>2023-12-06T10:42:36Z</time><name>PT1307</name></trkpt>
<trkpt lat="51.799971" lon="03.888451"><ele>-5.4</ele><time>2023-12-06T10:42:37Z</time><name>PT1308</name></trkpt>
<trkpt lat="51.799971" lon="03.888450"><ele>-5.5</ele><time>2023-12-06T10:42:38Z</time><name>PT1309</name></trkpt>
<trkpt lat="51.799971" lon="03.888450"><ele>-5.4</ele><time>2023-12-06T10:42:39Z</time><name>PT1310</name></trkpt>
<trkpt lat="51.799973" lon="03.888453"><ele>-5.6</ele><time>2023-12-06T10:42:44Z</time><name>PT1311</name></trkpt>
<trkpt lat="51.799975" lon="03.888450"><ele>-5.7</ele><time>2023-12-06T10:42:45Z</time><name>PT1312</name></trkpt>
<trkpt lat="51.799980" lon="03.888445"><ele>-5.8</ele><time>2023-12-06T10:42:46Z</time><name>PT1313</name></trkpt>
<trkpt lat="51.799986" lon="03.888443"><ele>-5.6</ele><time>2023-12-06T10:42:47Z</time><name>PT1314</name></trkpt>
<trkpt lat="51.799981" lon="03.888443"><ele>-5.3</ele><time>2023-12-06T10:42:48Z</time><name>PT1315</name></trkpt>
<trkpt lat="51.799981" lon="03.888443"><ele>-5.2</ele><time>2023-12-06T10:42:49Z</time><name>PT1316</name></trkpt>
<trkpt lat="51.799980" lon="03.888443"><ele>-4.9</ele><time>2023-12-06T10:42:50Z</time><name>PT1317</name></trkpt>
<trkpt lat="51.799982" lon="03.888444"><ele>-4.7</ele><time>2023-12-06T10:42:51Z</time><name>PT1318</name></trkpt>
<trkpt lat="51.799983" lon="03.888448"><ele>-5.7</ele><time>2023-12-06T10:44:17Z</time><name>PT1319</name></trkpt>
<trkpt lat="51.799986" lon="03.888447"><ele>-5.7</ele><time>2023-12-06T10:44:18Z</time><name>PT1320</name></trkpt>
<trkpt lat="51.799988" lon="03.888449"><ele>-5.7</ele><time>2023-12-06T10:44:19Z</time><name>PT1321</name></trkpt>
<trkpt lat="51.799990" lon="03.888449"><ele>-5.7</ele><time>2023-12-06T10:44:40Z</time><name>PT1322</name></trkpt>
<trkpt lat="51.799985" lon="03.888452"><ele>-5.6</ele><time>2023-12-06T10:44:41Z</time><name>PT1323</name></trkpt>
<trkpt lat="51.799982" lon="03.888459"><ele>-5.4</ele><time>2023-12-06T10:44:42Z</time><name>PT1324</name></trkpt>
<trkpt lat="51.799973" lon="03.888463"><ele>-5.3</ele><time>2023-12-06T10:44:43Z</time><name>PT1325</name></trkpt>
<trkpt lat="51.799971" lon="03.888467"><ele>-5.3</ele><time>2023-12-06T10:44:44Z</time><name>PT1326</name></trkpt>
<trkpt lat="51.799968" lon="03.888468"><ele>-5.3</ele><time>2023-12-06T10:44:45Z</time><name>PT1327</name></trkpt>
<trkpt lat="51.799964" lon="03.888473"><ele>-5.3</ele><time>2023-12-06T10:44:46Z</time><name>PT1328</name></trkpt>
<trkpt lat="51.799959" lon="03.888480"><ele>-5.4</ele><time>2023-12-06T10:44:47Z</time><name>PT1329</name></trkpt>
<trkpt lat="51.799953" lon="03.888484"><ele>-5.4</ele><time>2023-12-06T10:44:48Z</time><name>PT1330</name></trkpt>
<trkpt lat="51.799945" lon="03.888489"><ele>-5.4</ele><time>2023-12-06T10:44:49Z</time><name>PT1331</name></trkpt>
<trkpt lat="51.799941" lon="03.888495"><ele>-5.5</ele><time>2023-12-06T10:44:50Z</time><name>PT1332</name></trkpt>
<trkpt lat="51.799934" lon="03.888504"><ele>-5.5</ele><time>2023-12-06T10:44:51Z</time><name>PT1333</name></trkpt>
<trkpt lat="51.799926" lon="03.888512"><ele>-5.6</ele><time>2023-12-06T10:44:52Z</time><name>PT1334</name></trkpt>
<trkpt lat="51.799918" lon="03.888518"><ele>-5.6</ele><time>2023-12-06T10:44:53Z</time><name>PT1335</name></trkpt>
<trkpt lat="51.799908" lon="03.888527"><ele>-5.6</ele><time>2023-12-06T10:44:54Z</time><name>PT1336</name></trkpt>
<trkpt lat="51.799899" lon="03.888534"><ele>-5.6</ele><time>2023-12-06T10:44:55Z</time><name>PT1337</name></trkpt>
<trkpt lat="51.799890" lon="03.888541"><ele>-5.6</ele><time>2023-12-06T10:44:56Z</time><name>PT1338</name></trkpt>
<trkpt lat="51.799881" lon="03.888548"><ele>-5.6</ele><time>2023-12-06T10:44:57Z</time><name>PT1339</name></trkpt>
<trkpt lat="51.799873" lon="03.888557"><ele>-5.6</ele><time>2023-12-06T10:44:58Z</time><name>PT1340</name></trkpt>
<trkpt lat="51.799865" lon="03.888568"><ele>-5.7</ele><time>2023-12-06T10:44:59Z</time><name>PT1341</name></trkpt>
<trkpt lat="51.799859" lon="03.888578"><ele>-5.6</ele><time>2023-12-06T10:45:00Z</time><name>PT1342</name></trkpt>
<trkpt lat="51.799851" lon="03.888586"><ele>-5.5</ele><time>2023-12-06T10:45:01Z</time><name>PT1343</name></trkpt>
<trkpt lat="51.799842" lon="03.888595"><ele>-5.5</ele><time>2023-12-06T10:45:02Z</time><name>PT1344</name></trkpt>
<trkpt lat="51.799834" lon="03.888606"><ele>-5.6</ele><time>2023-12-06T10:45:03Z</time><name>PT1345</name></trkpt>
<trkpt lat="51.799826" lon="03.888613"><ele>-5.5</ele><time>2023-12-06T10:45:04Z</time><name>PT1346</name></trkpt>
<trkpt lat="51.799819" lon="03.888619"><ele>-5.6</ele><time>2023-12-06T10:45:05Z</time><name>PT1347</name></trkpt>
<trkpt lat="51.799810" lon="03.888627"><ele>-5.5</ele><time>2023-12-06T10:45:06Z</time><name>PT1348</name></trkpt>
<trkpt lat="51.799801" lon="03.888637"><ele>-5.6</ele><time>2023-12-06T10:45:07Z</time><name>PT1349</name></trkpt>
<trkpt lat="51.799794" lon="03.888648"><ele>-5.6</ele><time>2023-12-06T10:45:08Z</time><name>PT1350</name></trkpt>
<trkpt lat="51.799786" lon="03.888656"><ele>-5.7</ele><time>2023-12-06T10:45:09Z</time><name>PT1351</name></trkpt>
<trkpt lat="51.799776" lon="03.888664"><ele>-5.8</ele><time>2023-12-06T10:45:10Z</time><name>PT1352</name></trkpt>
<trkpt lat="51.799765" lon="03.888670"><ele>-5.9</ele><time>2023-12-06T10:45:11Z</time><name>PT1353</name></trkpt>
<trkpt lat="51.799753" lon="03.888677"><ele>-5.9</ele><time>2023-12-06T10:45:12Z</time><name>PT1354</name></trkpt>
<trkpt lat="51.799743" lon="03.888686"><ele>-5.9</ele><time>2023-12-06T10:45:13Z</time><name>PT1355</name></trkpt>
<trkpt lat="51.799733" lon="03.888696"><ele>-6</ele><time>2023-12-06T10:45:14Z</time><name>PT1356</name></trkpt>
<trkpt lat="51.799724" lon="03.888707"><ele>-5.8</ele><time>2023-12-06T10:45:15Z</time><name>PT1357</name></trkpt>
<trkpt lat="51.799715" lon="03.888719"><ele>-5.9</ele><time>2023-12-06T10:45:16Z</time><name>PT1358</name></trkpt>
<trkpt lat="51.799705" lon="03.888728"><ele>-5.8</ele><time>2023-12-06T10:45:17Z</time><name>PT1359</name></trkpt>
<trkpt lat="51.799696" lon="03.888737"><ele>-5.9</ele><time>2023-12-06T10:45:18Z</time><name>PT1360</name></trkpt>
<trkpt lat="51.799686" lon="03.888746"><ele>-5.9</ele><time>2023-12-06T10:45:19Z</time><name>PT1361</name></trkpt>
<trkpt lat="51.799677" lon="03.888758"><ele>-5.9</ele><time>2023-12-06T10:45:20Z</time><name>PT1362</name></trkpt>
<trkpt lat="51.799668" lon="03.888769"><ele>-6</ele><time>2023-12-06T10:45:21Z</time><name>PT1363</name></trkpt>
<trkpt lat="51.799656" lon="03.888774"><ele>-5.9</ele><time>2023-12-06T10:45:22Z</time><name>PT1364</name></trkpt>
<trkpt lat="51.799645" lon="03.888781"><ele>-6</ele><time>2023-12-06T10:45:23Z</time><name>PT1365</name></trkpt>
<trkpt lat="51.799633" lon="03.888789"><ele>-6.2</ele><time>2023-12-06T10:45:24Z</time><name>PT1366</name></trkpt>
<trkpt lat="51.799622" lon="03.888799"><ele>-6.3</ele><time>2023-12-06T10:45:25Z</time><name>PT1367</name></trkpt>
<trkpt lat="51.799609" lon="03.888809"><ele>-6.3</ele><time>2023-12-06T10:45:26Z</time><name>PT1368</name></trkpt>
<trkpt lat="51.799598" lon="03.888821"><ele>-6.2</ele><time>2023-12-06T10:45:27Z</time><name>PT1369</name></trkpt>
<trkpt lat="51.799589" lon="03.888833"><ele>-6.1</ele><time>2023-12-06T10:45:28Z</time><name>PT1370</name></trkpt>
<trkpt lat="51.799579" lon="03.888844"><ele>-6</ele><time>2023-12-06T10:45:29Z</time><name>PT1371</name></trkpt>
<trkpt lat="51.799569" lon="03.888855"><ele>-6</ele><time>2023-12-06T10:45:30Z</time><name>PT1372</name></trkpt>
<trkpt lat="51.799560" lon="03.888868"><ele>-6</ele><time>2023-12-06T10:45:31Z</time><name>PT1373</name></trkpt>
<trkpt lat="51.799550" lon="03.888884"><ele>-6</ele><time>2023-12-06T10:45:32Z</time><name>PT1374</name></trkpt>
<trkpt lat="51.799540" lon="03.888894"><ele>-5.9</ele><time>2023-12-06T10:45:33Z</time><name>PT1375</name></trkpt>
<trkpt lat="51.799530" lon="03.888903"><ele>-6</ele><time>2023-12-06T10:45:34Z</time><name>PT1376</name></trkpt>
<trkpt lat="51.799519" lon="03.888914"><ele>-5.9</ele><time>2023-12-06T10:45:35Z</time><name>PT1377</name></trkpt>
<trkpt lat="51.799509" lon="03.888924"><ele>-5.8</ele><time>2023-12-06T10:45:36Z</time><name>PT1378</name></trkpt>
<trkpt lat="51.799500" lon="03.888934"><ele>-5.8</ele><time>2023-12-06T10:45:37Z</time><name>PT1379</name></trkpt>
<trkpt lat="51.799492" lon="03.888942"><ele>-5.9</ele><time>2023-12-06T10:45:38Z</time><name>PT1380</name></trkpt>
<trkpt lat="51.799481" lon="03.888951"><ele>-5.8</ele><time>2023-12-06T10:45:39Z</time><name>PT1381</name></trkpt>
<trkpt lat="51.799470" lon="03.888958"><ele>-5.8</ele><time>2023-12-06T10:45:40Z</time><name>PT1382</name></trkpt>
<trkpt lat="51.799459" lon="03.888968"><ele>-5.9</ele><time>2023-12-06T10:45:41Z</time><name>PT1383</name></trkpt>
<trkpt lat="51.799449" lon="03.888977"><ele>-6</ele><time>2023-12-06T10:45:42Z</time><name>PT1384</name></trkpt>
<trkpt lat="51.799439" lon="03.888987"><ele>-6</ele><time>2023-12-06T10:45:43Z</time><name>PT1385</name></trkpt>
<trkpt lat="51.799429" lon="03.888999"><ele>-6</ele><time>2023-12-06T10:45:44Z</time><name>PT1386</name></trkpt>
<trkpt lat="51.799420" lon="03.889010"><ele>-6</ele><time>2023-12-06T10:45:45Z</time><name>PT1387</name></trkpt>
<trkpt lat="51.799409" lon="03.889021"><ele>-6</ele><time>2023-12-06T10:45:46Z</time><name>PT1388</name></trkpt>
<trkpt lat="51.799399" lon="03.889031"><ele>-6</ele><time>2023-12-06T10:45:47Z</time><name>PT1389</name></trkpt>
<trkpt lat="51.799389" lon="03.889039"><ele>-6.1</ele><time>2023-12-06T10:45:48Z</time><name>PT1390</name></trkpt>
<trkpt lat="51.799378" lon="03.889047"><ele>-6.2</ele><time>2023-12-06T10:45:49Z</time><name>PT1391</name></trkpt>
<trkpt lat="51.799366" lon="03.889057"><ele>-6</ele><time>2023-12-06T10:45:50Z</time><name>PT1392</name></trkpt>
<trkpt lat="51.799355" lon="03.889068"><ele>-5.6</ele><time>2023-12-06T10:45:51Z</time><name>PT1393</name></trkpt>
<trkpt lat="51.799345" lon="03.889079"><ele>-5.6</ele><time>2023-12-06T10:45:52Z</time><name>PT1394</name></trkpt>
<trkpt lat="51.799336" lon="03.889090"><ele>-5.3</ele><time>2023-12-06T10:45:53Z</time><name>PT1395</name></trkpt>
<trkpt lat="51.799323" lon="03.889106"><ele>-5.5</ele><time>2023-12-06T10:45:54Z</time><name>PT1396</name></trkpt>
<trkpt lat="51.799312" lon="03.889117"><ele>-5.6</ele><time>2023-12-06T10:45:55Z</time><name>PT1397</name></trkpt>
<trkpt lat="51.799301" lon="03.889130"><ele>-5.5</ele><time>2023-12-06T10:45:56Z</time><name>PT1398</name></trkpt>
<trkpt lat="51.799291" lon="03.889139"><ele>-5.8</ele><time>2023-12-06T10:45:57Z</time><name>PT1399</name></trkpt>
<trkpt lat="51.799281" lon="03.889147"><ele>-5.6</ele><time>2023-12-06T10:45:58Z</time><name>PT1400</name></trkpt>
<trkpt lat="51.799271" lon="03.889156"><ele>-5.8</ele><time>2023-12-06T10:45:59Z</time><name>PT1401</name></trkpt>
<trkpt lat="51.799260" lon="03.889166"><ele>-6</ele><time>2023-12-06T10:46:00Z</time><name>PT1402</name></trkpt>
<trkpt lat="51.799250" lon="03.889176"><ele>-6</ele><time>2023-12-06T10:46:01Z</time><name>PT1403</name></trkpt>
<trkpt lat="51.799240" lon="03.889186"><ele>-6.1</ele><time>2023-12-06T10:46:02Z</time><name>PT1404</name></trkpt>
<trkpt lat="51.799230" lon="03.889197"><ele>-6.2</ele><time>2023-12-06T10:46:03Z</time><name>PT1405</name></trkpt>
<trkpt lat="51.799219" lon="03.889206"><ele>-6.1</ele><time>2023-12-06T10:46:04Z</time><name>PT1406</name></trkpt>
<trkpt lat="51.799209" lon="03.889216"><ele>-6</ele><time>2023-12-06T10:46:05Z</time><name>PT1407</name></trkpt>
<trkpt lat="51.799200" lon="03.889226"><ele>-6</ele><time>2023-12-06T10:46:06Z</time><name>PT1408</name></trkpt>
<trkpt lat="51.799191" lon="03.889238"><ele>-5.9</ele><time>2023-12-06T10:46:07Z</time><name>PT1409</name></trkpt>
<trkpt lat="51.799182" lon="03.889249"><ele>-5.8</ele><time>2023-12-06T10:46:08Z</time><name>PT1410</name></trkpt>
<trkpt lat="51.799173" lon="03.889261"><ele>-5.8</ele><time>2023-12-06T10:46:09Z</time><name>PT1411</name></trkpt>
<trkpt lat="51.799162" lon="03.889272"><ele>-5.8</ele><time>2023-12-06T10:46:10Z</time><name>PT1412</name></trkpt>
<trkpt lat="51.799152" lon="03.889282"><ele>-5.9</ele><time>2023-12-06T10:46:11Z</time><name>PT1413</name></trkpt>
<trkpt lat="51.799141" lon="03.889292"><ele>-5.9</ele><time>2023-12-06T10:46:12Z</time><name>PT1414</name></trkpt>
<trkpt lat="51.799130" lon="03.889301"><ele>-5.8</ele><time>2023-12-06T10:46:13Z</time><name>PT1415</name></trkpt>
<trkpt lat="51.799118" lon="03.889313"><ele>-5.7</ele><time>2023-12-06T10:46:14Z</time><name>PT1416</name></trkpt>
<trkpt lat="51.799107" lon="03.889322"><ele>-5.6</ele><time>2023-12-06T10:46:15Z</time><name>PT1417</name></trkpt>
<trkpt lat="51.799098" lon="03.889331"><ele>-5.6</ele><time>2023-12-06T10:46:16Z</time><name>PT1418</name></trkpt>
<trkpt lat="51.799089" lon="03.889339"><ele>-5.7</ele><time>2023-12-06T10:46:17Z</time><name>PT1419</name></trkpt>
<trkpt lat="51.799080" lon="03.889349"><ele>-5.9</ele><time>2023-12-06T10:46:18Z</time><name>PT1420</name></trkpt>
<trkpt lat="51.799070" lon="03.889360"><ele>-5.8</ele><time>2023-12-06T10:46:19Z</time><name>PT1421</name></trkpt>
<trkpt lat="51.799061" lon="03.889372"><ele>-5.8</ele><time>2023-12-06T10:46:20Z</time><name>PT1422</name></trkpt>
<trkpt lat="51.799050" lon="03.889385"><ele>-5.8</ele><time>2023-12-06T10:46:21Z</time><name>PT1423</name></trkpt>
<trkpt lat="51.799041" lon="03.889397"><ele>-5.8</ele><time>2023-12-06T10:46:22Z</time><name>PT1424</name></trkpt>
<trkpt lat="51.799032" lon="03.889410"><ele>-5.8</ele><time>2023-12-06T10:46:23Z</time><name>PT1425</name></trkpt>
<trkpt lat="51.799023" lon="03.889422"><ele>-6</ele><time>2023-12-06T10:46:24Z</time><name>PT1426</name></trkpt>
<trkpt lat="51.799014" lon="03.889432"><ele>-6</ele><time>2023-12-06T10:46:25Z</time><name>PT1427</name></trkpt>
<trkpt lat="51.799004" lon="03.889442"><ele>-5.9</ele><time>2023-12-06T10:46:26Z</time><name>PT1428</name></trkpt>
<trkpt lat="51.798995" lon="03.889453"><ele>-6</ele><time>2023-12-06T10:46:27Z</time><name>PT1429</name></trkpt>
<trkpt lat="51.798985" lon="03.889463"><ele>-6</ele><time>2023-12-06T10:46:28Z</time><name>PT1430</name></trkpt>
<trkpt lat="51.798975" lon="03.889473"><ele>-6</ele><time>2023-12-06T10:46:29Z</time><name>PT1431</name></trkpt>
<trkpt lat="51.798965" lon="03.889482"><ele>-5.9</ele><time>2023-12-06T10:46:30Z</time><name>PT1432</name></trkpt>
<trkpt lat="51.798956" lon="03.889491"><ele>-5.8</ele><time>2023-12-06T10:46:31Z</time><name>PT1433</name></trkpt>
<trkpt lat="51.798947" lon="03.889501"><ele>-6</ele><time>2023-12-06T10:46:32Z</time><name>PT1434</name></trkpt>
<trkpt lat="51.798938" lon="03.889511"><ele>-6</ele><time>2023-12-06T10:46:33Z</time><name>PT1435</name></trkpt>
<trkpt lat="51.798929" lon="03.889523"><ele>-6</ele><time>2023-12-06T10:46:34Z</time><name>PT1436</name></trkpt>
<trkpt lat="51.798921" lon="03.889536"><ele>-6</ele><time>2023-12-06T10:46:35Z</time><name>PT1437</name></trkpt>
<trkpt lat="51.798913" lon="03.889548"><ele>-5.8</ele><time>2023-12-06T10:46:36Z</time><name>PT1438</name></trkpt>
<trkpt lat="51.798905" lon="03.889560"><ele>-5.6</ele><time>2023-12-06T10:46:37Z</time><name>PT1439</name></trkpt>
<trkpt lat="51.798896" lon="03.889570"><ele>-5.7</ele><time>2023-12-06T10:46:38Z</time><name>PT1440</name></trkpt>
<trkpt lat="51.798888" lon="03.889580"><ele>-5.7</ele><time>2023-12-06T10:46:39Z</time><name>PT1441</name></trkpt>
<trkpt lat="51.798879" lon="03.889591"><ele>-5.7</ele><time>2023-12-06T10:46:40Z</time><name>PT1442</name></trkpt>
<trkpt lat="51.798869" lon="03.889602"><ele>-6</ele><time>2023-12-06T10:46:41Z</time><name>PT1443</name></trkpt>
<trkpt lat="51.798859" lon="03.889613"><ele>-6</ele><time>2023-12-06T10:46:42Z</time><name>PT1444</name></trkpt>
<trkpt lat="51.798850" lon="03.889626"><ele>-6</ele><time>2023-12-06T10:46:43Z</time><name>PT1445</name></trkpt>
<trkpt lat="51.798841" lon="03.889638"><ele>-6</ele><time>2023-12-06T10:46:44Z</time><name>PT1446</name></trkpt>
<trkpt lat="51.798832" lon="03.889651"><ele>-6.1</ele><time>2023-12-06T10:46:45Z</time><name>PT1447</name></trkpt>
<trkpt lat="51.798823" lon="03.889665"><ele>-6</ele><time>2023-12-06T10:46:46Z</time><name>PT1448</name></trkpt>
<trkpt lat="51.798815" lon="03.889679"><ele>-6.1</ele><time>2023-12-06T10:46:47Z</time><name>PT1449</name></trkpt>
<trkpt lat="51.798807" lon="03.889693"><ele>-6.1</ele><time>2023-12-06T10:46:48Z</time><name>PT1450</name></trkpt>
<trkpt lat="51.798798" lon="03.889706"><ele>-6</ele><time>2023-12-06T10:46:49Z</time><name>PT1451</name></trkpt>
<trkpt lat="51.798788" lon="03.889717"><ele>-6</ele><time>2023-12-06T10:46:50Z</time><name>PT1452</name></trkpt>
<trkpt lat="51.798778" lon="03.889728"><ele>-5.9</ele><time>2023-12-06T10:46:51Z</time><name>PT1453</name></trkpt>
<trkpt lat="51.798768" lon="03.889739"><ele>-5.7</ele><time>2023-12-06T10:46:52Z</time><name>PT1454</name></trkpt>
<trkpt lat="51.798759" lon="03.889751"><ele>-5.8</ele><time>2023-12-06T10:46:53Z</time><name>PT1455</name></trkpt>
<trkpt lat="51.798750" lon="03.889762"><ele>-5.6</ele><time>2023-12-06T10:46:54Z</time><name>PT1456</name></trkpt>
<trkpt lat="51.798740" lon="03.889774"><ele>-5.6</ele><time>2023-12-06T10:46:55Z</time><name>PT1457</name></trkpt>
<trkpt lat="51.798732" lon="03.889786"><ele>-5.8</ele><time>2023-12-06T10:46:56Z</time><name>PT1458</name></trkpt>
<trkpt lat="51.798725" lon="03.889799"><ele>-5.9</ele><time>2023-12-06T10:46:57Z</time><name>PT1459</name></trkpt>
<trkpt lat="51.798720" lon="03.889813"><ele>-5.9</ele><time>2023-12-06T10:46:58Z</time><name>PT1460</name></trkpt>
<trkpt lat="51.798713" lon="03.889827"><ele>-6</ele><time>2023-12-06T10:46:59Z</time><name>PT1461</name></trkpt>
<trkpt lat="51.798704" lon="03.889839"><ele>-6</ele><time>2023-12-06T10:47:00Z</time><name>PT1462</name></trkpt>
<trkpt lat="51.798695" lon="03.889850"><ele>-6</ele><time>2023-12-06T10:47:01Z</time><name>PT1463</name></trkpt>
<trkpt lat="51.798687" lon="03.889863"><ele>-5.9</ele><time>2023-12-06T10:47:02Z</time><name>PT1464</name></trkpt>
<trkpt lat="51.798678" lon="03.889875"><ele>-6</ele><time>2023-12-06T10:47:03Z</time><name>PT1465</name></trkpt>
<trkpt lat="51.798670" lon="03.889888"><ele>-5.9</ele><time>2023-12-06T10:47:04Z</time><name>PT1466</name></trkpt>
<trkpt lat="51.798661" lon="03.889898"><ele>-5.9</ele><time>2023-12-06T10:47:05Z</time><name>PT1467</name></trkpt>
<trkpt lat="51.798651" lon="03.889909"><ele>-6</ele><time>2023-12-06T10:47:06Z</time><name>PT1468</name></trkpt>
<trkpt lat="51.798642" lon="03.889922"><ele>-5.9</ele><time>2023-12-06T10:47:07Z</time><name>PT1469</name></trkpt>
<trkpt lat="51.798632" lon="03.889932"><ele>-5.9</ele><time>2023-12-06T10:47:08Z</time><name>PT1470</name></trkpt>
<trkpt lat="51.798624" lon="03.889943"><ele>-6.1</ele><time>2023-12-06T10:47:09Z</time><name>PT1471</name></trkpt>
<trkpt lat="51.798613" lon="03.889955"><ele>-6.1</ele><time>2023-12-06T10:47:10Z</time><name>PT1472</name></trkpt>
<trkpt lat="51.798604" lon="03.889968"><ele>-6.2</ele><time>2023-12-06T10:47:11Z</time><name>PT1473</name></trkpt>
<trkpt lat="51.798596" lon="03.889978"><ele>-6.2</ele><time>2023-12-06T10:47:12Z</time><name>PT1474</name></trkpt>
<trkpt lat="51.798587" lon="03.889990"><ele>-6.3</ele><time>2023-12-06T10:47:13Z</time><name>PT1475</name></trkpt>
<trkpt lat="51.798579" lon="03.890003"><ele>-6.1</ele><time>2023-12-06T10:47:14Z</time><name>PT1476</name></trkpt>
<trkpt lat="51.798570" lon="03.890015"><ele>-6</ele><time>2023-12-06T10:47:15Z</time><name>PT1477</name></trkpt>
<trkpt lat="51.798562" lon="03.890028"><ele>-6.1</ele><time>2023-12-06T10:47:16Z</time><name>PT1478</name></trkpt>
<trkpt lat="51.798554" lon="03.890040"><ele>-6</ele><time>2023-12-06T10:47:17Z</time><name>PT1479</name></trkpt>
<trkpt lat="51.798545" lon="03.890051"><ele>-6.1</ele><time>2023-12-06T10:47:18Z</time><name>PT1480</name></trkpt>
<trkpt lat="51.798536" lon="03.890064"><ele>-6</ele><time>2023-12-06T10:47:19Z</time><name>PT1481</name></trkpt>
<trkpt lat="51.798528" lon="03.890075"><ele>-6.2</ele><time>2023-12-06T10:47:20Z</time><name>PT1482</name></trkpt>
<trkpt lat="51.798520" lon="03.890086"><ele>-6.2</ele><time>2023-12-06T10:47:21Z</time><name>PT1483</name></trkpt>
<trkpt lat="51.798513" lon="03.890094"><ele>-6.3</ele><time>2023-12-06T10:47:22Z</time><name>PT1484</name></trkpt>
<trkpt lat="51.798506" lon="03.890103"><ele>-6.5</ele><time>2023-12-06T10:47:23Z</time><name>PT1485</name></trkpt>
<trkpt lat="51.798497" lon="03.890113"><ele>-6.2</ele><time>2023-12-06T10:47:24Z</time><name>PT1486</name></trkpt>
<trkpt lat="51.798489" lon="03.890125"><ele>-6.3</ele><time>2023-12-06T10:47:25Z</time><name>PT1487</name></trkpt>
<trkpt lat="51.798479" lon="03.890138"><ele>-6.2</ele><time>2023-12-06T10:47:26Z</time><name>PT1488</name></trkpt>
<trkpt lat="51.798471" lon="03.890150"><ele>-6.4</ele><time>2023-12-06T10:47:27Z</time><name>PT1489</name></trkpt>
<trkpt lat="51.798463" lon="03.890162"><ele>-6.5</ele><time>2023-12-06T10:47:28Z</time><name>PT1490</name></trkpt>
<trkpt lat="51.798455" lon="03.890175"><ele>-6.5</ele><time>2023-12-06T10:47:29Z</time><name>PT1491</name></trkpt>
<trkpt lat="51.798447" lon="03.890185"><ele>-6.5</ele><time>2023-12-06T10:47:30Z</time><name>PT1492</name></trkpt>
<trkpt lat="51.798439" lon="03.890196"><ele>-6.4</ele><time>2023-12-06T10:47:31Z</time><name>PT1493</name></trkpt>
<trkpt lat="51.798431" lon="03.890209"><ele>-6.2</ele><time>2023-12-06T10:47:32Z</time><name>PT1494</name></trkpt>
<trkpt lat="51.798423" lon="03.890220"><ele>-6</ele><time>2023-12-06T10:47:33Z</time><name>PT1495</name></trkpt>
<trkpt lat="51.798416" lon="03.890235"><ele>-6</ele><time>2023-12-06T10:47:34Z</time><name>PT1496</name></trkpt>
<trkpt lat="51.798408" lon="03.890250"><ele>-6</ele><time>2023-12-06T10:47:35Z</time><name>PT1497</name></trkpt>
<trkpt lat="51.798400" lon="03.890264"><ele>-6.1</ele><time>2023-12-06T10:47:36Z</time><name>PT1498</name></trkpt>
<trkpt lat="51.798391" lon="03.890279"><ele>-6</ele><time>2023-12-06T10:47:37Z</time><name>PT1499</name></trkpt>
<trkpt lat="51.798381" lon="03.890292"><ele>-6.1</ele><time>2023-12-06T10:47:38Z</time><name>PT1500</name></trkpt>
<trkpt lat="51.798372" lon="03.890304"><ele>-6.1</ele><time>2023-12-06T10:47:39Z</time><name>PT1501</name></trkpt>
<trkpt lat="51.798363" lon="03.890318"><ele>-6</ele><time>2023-12-06T10:47:40Z</time><name>PT1502</name></trkpt>
<trkpt lat="51.798353" lon="03.890333"><ele>-6.2</ele><time>2023-12-06T10:47:41Z</time><name>PT1503</name></trkpt>
<trkpt lat="51.798343" lon="03.890353"><ele>-6.3</ele><time>2023-12-06T10:47:42Z</time><name>PT1504</name></trkpt>
<trkpt lat="51.798334" lon="03.890368"><ele>-6.2</ele><time>2023-12-06T10:47:43Z</time><name>PT1505</name></trkpt>
<trkpt lat="51.798324" lon="03.890382"><ele>-6.3</ele><time>2023-12-06T10:47:44Z</time><name>PT1506</name></trkpt>
<trkpt lat="51.798316" lon="03.890395"><ele>-6.3</ele><time>2023-12-06T10:47:45Z</time><name>PT1507</name></trkpt>
<trkpt lat="51.798309" lon="03.890408"><ele>-6.4</ele><time>2023-12-06T10:47:46Z</time><name>PT1508</name></trkpt>
<trkpt lat="51.798301" lon="03.890421"><ele>-6.5</ele><time>2023-12-06T10:47:47Z</time><name>PT1509</name></trkpt>
<trkpt lat="51.798293" lon="03.890434"><ele>-6.2</ele><time>2023-12-06T10:47:48Z</time><name>PT1510</name></trkpt>
<trkpt lat="51.798284" lon="03.890446"><ele>-6.2</ele><time>2023-12-06T10:47:49Z</time><name>PT1511</name></trkpt>
<trkpt lat="51.798274" lon="03.890458"><ele>-6.3</ele><time>2023-12-06T10:47:50Z</time><name>PT1512</name></trkpt>
<trkpt lat="51.798264" lon="03.890470"><ele>-6.3</ele><time>2023-12-06T10:47:51Z</time><name>PT1513</name></trkpt>
<trkpt lat="51.798254" lon="03.890483"><ele>-6.3</ele><time>2023-12-06T10:47:52Z</time><name>PT1514</name></trkpt>
<trkpt lat="51.798244" lon="03.890498"><ele>-6.5</ele><time>2023-12-06T10:47:53Z</time><name>PT1515</name></trkpt>
<trkpt lat="51.798235" lon="03.890510"><ele>-6.5</ele><time>2023-12-06T10:47:54Z</time><name>PT1516</name></trkpt>
<trkpt lat="51.798228" lon="03.890523"><ele>-6.5</ele><time>2023-12-06T10:47:55Z</time><name>PT1517</name></trkpt>
<trkpt lat="51.798219" lon="03.890537"><ele>-6.5</ele><time>2023-12-06T10:47:56Z</time><name>PT1518</name></trkpt>
<trkpt lat="51.798210" lon="03.890551"><ele>-6.3</ele><time>2023-12-06T10:47:57Z</time><name>PT1519</name></trkpt>
<trkpt lat="51.798201" lon="03.890567"><ele>-6.3</ele><time>2023-12-06T10:47:58Z</time><name>PT1520</name></trkpt>
<trkpt lat="51.798193" lon="03.890580"><ele>-6.3</ele><time>2023-12-06T10:47:59Z</time><name>PT1521</name></trkpt>
<trkpt lat="51.798184" lon="03.890595"><ele>-6.3</ele><time>2023-12-06T10:48:00Z</time><name>PT1522</name></trkpt>
<trkpt lat="51.798175" lon="03.890608"><ele>-6.3</ele><time>2023-12-06T10:48:01Z</time><name>PT1523</name></trkpt>
<trkpt lat="51.798165" lon="03.890619"><ele>-6.3</ele><time>2023-12-06T10:48:02Z</time><name>PT1524</name></trkpt>
<trkpt lat="51.798157" lon="03.890632"><ele>-6.3</ele><time>2023-12-06T10:48:03Z</time><name>PT1525</name></trkpt>
<trkpt lat="51.798147" lon="03.890646"><ele>-6.2</ele><time>2023-12-06T10:48:04Z</time><name>PT1526</name></trkpt>
<trkpt lat="51.798137" lon="03.890662"><ele>-6.2</ele><time>2023-12-06T10:48:05Z</time><name>PT1527</name></trkpt>
<trkpt lat="51.798126" lon="03.890673"><ele>-6</ele><time>2023-12-06T10:48:06Z</time><name>PT1528</name></trkpt>
<trkpt lat="51.798118" lon="03.890685"><ele>-6.1</ele><time>2023-12-06T10:48:07Z</time><name>PT1529</name></trkpt>
<trkpt lat="51.798110" lon="03.890696"><ele>-6.1</ele><time>2023-12-06T10:48:08Z</time><name>PT1530</name></trkpt>
<trkpt lat="51.798102" lon="03.890708"><ele>-6.3</ele><time>2023-12-06T10:48:09Z</time><name>PT1531</name></trkpt>
<trkpt lat="51.798094" lon="03.890722"><ele>-6.2</ele><time>2023-12-06T10:48:10Z</time><name>PT1532</name></trkpt>
<trkpt lat="51.798086" lon="03.890738"><ele>-6.1</ele><time>2023-12-06T10:48:11Z</time><name>PT1533</name></trkpt>
<trkpt lat="51.798080" lon="03.890752"><ele>-6</ele><time>2023-12-06T10:48:12Z</time><name>PT1534</name></trkpt>
<trkpt lat="51.798071" lon="03.890766"><ele>-6</ele><time>2023-12-06T10:48:13Z</time><name>PT1535</name></trkpt>
<trkpt lat="51.798061" lon="03.890783"><ele>-6</ele><time>2023-12-06T10:48:14Z</time><name>PT1536</name></trkpt>
<trkpt lat="51.798052" lon="03.890798"><ele>-6.2</ele><time>2023-12-06T10:48:15Z</time><name>PT1537</name></trkpt>
<trkpt lat="51.798042" lon="03.890813"><ele>-6.3</ele><time>2023-12-06T10:48:16Z</time><name>PT1538</name></trkpt>
<trkpt lat="51.798031" lon="03.890825"><ele>-6.5</ele><time>2023-12-06T10:48:17Z</time><name>PT1539</name></trkpt>
<trkpt lat="51.798019" lon="03.890838"><ele>-6.5</ele><time>2023-12-06T10:48:18Z</time><name>PT1540</name></trkpt>
<trkpt lat="51.798009" lon="03.890851"><ele>-6.5</ele><time>2023-12-06T10:48:19Z</time><name>PT1541</name></trkpt>
<trkpt lat="51.797999" lon="03.890865"><ele>-6.4</ele><time>2023-12-06T10:48:20Z</time><name>PT1542</name></trkpt>
<trkpt lat="51.797992" lon="03.890878"><ele>-6.2</ele><time>2023-12-06T10:48:21Z</time><name>PT1543</name></trkpt>
<trkpt lat="51.797983" lon="03.890890"><ele>-6.1</ele><time>2023-12-06T10:48:22Z</time><name>PT1544</name></trkpt>
<trkpt lat="51.797976" lon="03.890903"><ele>-6.1</ele><time>2023-12-06T10:48:23Z</time><name>PT1545</name></trkpt>
<trkpt lat="51.797968" lon="03.890917"><ele>-6.2</ele><time>2023-12-06T10:48:24Z</time><name>PT1546</name></trkpt>
<trkpt lat="51.797960" lon="03.890931"><ele>-6.2</ele><time>2023-12-06T10:48:25Z</time><name>PT1547</name></trkpt>
<trkpt lat="51.797952" lon="03.890946"><ele>-6.5</ele><time>2023-12-06T10:48:26Z</time><name>PT1548</name></trkpt>
<trkpt lat="51.797942" lon="03.890960"><ele>-6.5</ele><time>2023-12-06T10:48:27Z</time><name>PT1549</name></trkpt>
<trkpt lat="51.797931" lon="03.890974"><ele>-6.5</ele><time>2023-12-06T10:48:28Z</time><name>PT1550</name></trkpt>
<trkpt lat="51.797922" lon="03.890987"><ele>-6.6</ele><time>2023-12-06T10:48:29Z</time><name>PT1551</name></trkpt>
<trkpt lat="51.797913" lon="03.891001"><ele>-6.3</ele><time>2023-12-06T10:48:30Z</time><name>PT1552</name></trkpt>
<trkpt lat="51.797905" lon="03.891015"><ele>-6.1</ele><time>2023-12-06T10:48:31Z</time><name>PT1553</name></trkpt>
<trkpt lat="51.797897" lon="03.891030"><ele>-6</ele><time>2023-12-06T10:48:32Z</time><name>PT1554</name></trkpt>
<trkpt lat="51.797889" lon="03.891044"><ele>-5.9</ele><time>2023-12-06T10:48:33Z</time><name>PT1555</name></trkpt>
<trkpt lat="51.797878" lon="03.891061"><ele>-6</ele><time>2023-12-06T10:48:34Z</time><name>PT1556</name></trkpt>
<trkpt lat="51.797870" lon="03.891074"><ele>-6</ele><time>2023-12-06T10:48:35Z</time><name>PT1557</name></trkpt>
<trkpt lat="51.797862" lon="03.891086"><ele>-6.1</ele><time>2023-12-06T10:48:36Z</time><name>PT1558</name></trkpt>
<trkpt lat="51.797853" lon="03.891100"><ele>-6.1</ele><time>2023-12-06T10:48:37Z</time><name>PT1559</name></trkpt>
<trkpt lat="51.797844" lon="03.891113"><ele>-6</ele><time>2023-12-06T10:48:38Z</time><name>PT1560</name></trkpt>
<trkpt lat="51.797835" lon="03.891124"><ele>-6</ele><time>2023-12-06T10:48:39Z</time><name>PT1561</name></trkpt>
<trkpt lat="51.797829" lon="03.891136"><ele>-6</ele><time>2023-12-06T10:48:40Z</time><name>PT1562</name></trkpt>
<trkpt lat="51.797821" lon="03.891149"><ele>-6</ele><time>2023-12-06T10:48:41Z</time><name>PT1563</name></trkpt>
<trkpt lat="51.797813" lon="03.891163"><ele>-6</ele><time>2023-12-06T10:48:42Z</time><name>PT1564</name></trkpt>
<trkpt lat="51.797806" lon="03.891178"><ele>-6</ele><time>2023-12-06T10:48:43Z</time><name>PT1565</name></trkpt>
<trkpt lat="51.797799" lon="03.891193"><ele>-6.1</ele><time>2023-12-06T10:48:44Z</time><name>PT1566</name></trkpt>
<trkpt lat="51.797791" lon="03.891206"><ele>-6.1</ele><time>2023-12-06T10:48:45Z</time><name>PT1567</name></trkpt>
<trkpt lat="51.797781" lon="03.891220"><ele>-6</ele><time>2023-12-06T10:48:46Z</time><name>PT1568</name></trkpt>
<trkpt lat="51.797771" lon="03.891232"><ele>-6.2</ele><time>2023-12-06T10:48:47Z</time><name>PT1569</name></trkpt>
<trkpt lat="51.797761" lon="03.891244"><ele>-6</ele><time>2023-12-06T10:48:48Z</time><name>PT1570</name></trkpt>
<trkpt lat="51.797752" lon="03.891255"><ele>-6</ele><time>2023-12-06T10:48:49Z</time><name>PT1571</name></trkpt>
<trkpt lat="51.797743" lon="03.891267"><ele>-6</ele><time>2023-12-06T10:48:50Z</time><name>PT1572</name></trkpt>
<trkpt lat="51.797734" lon="03.891280"><ele>-6.1</ele><time>2023-12-06T10:48:51Z</time><name>PT1573</name></trkpt>
<trkpt lat="51.797724" lon="03.891296"><ele>-6.2</ele><time>2023-12-06T10:48:52Z</time><name>PT1574</name></trkpt>
<trkpt lat="51.797715" lon="03.891309"><ele>-6.2</ele><time>2023-12-06T10:48:53Z</time><name>PT1575</name></trkpt>
<trkpt lat="51.797706" lon="03.891323"><ele>-6.2</ele><time>2023-12-06T10:48:54Z</time><name>PT1576</name></trkpt>
<trkpt lat="51.797698" lon="03.891337"><ele>-6</ele><time>2023-12-06T10:48:55Z</time><name>PT1577</name></trkpt>
<trkpt lat="51.797690" lon="03.891349"><ele>-6.1</ele><time>2023-12-06T10:48:56Z</time><name>PT1578</name></trkpt>
<trkpt lat="51.797681" lon="03.891361"><ele>-6.1</ele><time>2023-12-06T10:48:57Z</time><name>PT1579</name></trkpt>
<trkpt lat="51.797672" lon="03.891374"><ele>-6.2</ele><time>2023-12-06T10:48:58Z</time><name>PT1580</name></trkpt>
<trkpt lat="51.797662" lon="03.891386"><ele>-6.4</ele><time>2023-12-06T10:48:59Z</time><name>PT1581</name></trkpt>
<trkpt lat="51.797651" lon="03.891400"><ele>-6.4</ele><time>2023-12-06T10:49:00Z</time><name>PT1582</name></trkpt>
<trkpt lat="51.797641" lon="03.891416"><ele>-6.5</ele><time>2023-12-06T10:49:01Z</time><name>PT1583</name></trkpt>
<trkpt lat="51.797632" lon="03.891428"><ele>-6.6</ele><time>2023-12-06T10:49:02Z</time><name>PT1584</name></trkpt>
<trkpt lat="51.797624" lon="03.891441"><ele>-6.5</ele><time>2023-12-06T10:49:03Z</time><name>PT1585</name></trkpt>
<trkpt lat="51.797616" lon="03.891456"><ele>-6.5</ele><time>2023-12-06T10:49:04Z</time><name>PT1586</name></trkpt>
<trkpt lat="51.797609" lon="03.891470"><ele>-6.4</ele><time>2023-12-06T10:49:05Z</time><name>PT1587</name></trkpt>
<trkpt lat="51.797600" lon="03.891484"><ele>-6.3</ele><time>2023-12-06T10:49:06Z</time><name>PT1588</name></trkpt>
<trkpt lat="51.797592" lon="03.891498"><ele>-6.4</ele><time>2023-12-06T10:49:07Z</time><name>PT1589</name></trkpt>
<trkpt lat="51.797585" lon="03.891512"><ele>-6.5</ele><time>2023-12-06T10:49:08Z</time><name>PT1590</name></trkpt>
<trkpt lat="51.797576" lon="03.891524"><ele>-6.6</ele><time>2023-12-06T10:49:09Z</time><name>PT1591</name></trkpt>
<trkpt lat="51.797566" lon="03.891538"><ele>-6.5</ele><time>2023-12-06T10:49:10Z</time><name>PT1592</name></trkpt>
<trkpt lat="51.797556" lon="03.891550"><ele>-6.4</ele><time>2023-12-06T10:49:11Z</time><name>PT1593</name></trkpt>
<trkpt lat="51.797547" lon="03.891562"><ele>-6.2</ele><time>2023-12-06T10:49:12Z</time><name>PT1594</name></trkpt>
<trkpt lat="51.797539" lon="03.891573"><ele>-6.4</ele><time>2023-12-06T10:49:13Z</time><name>PT1595</name></trkpt>
<trkpt lat="51.797531" lon="03.891586"><ele>-6.3</ele><time>2023-12-06T10:49:14Z</time><name>PT1596</name></trkpt>
<trkpt lat="51.797522" lon="03.891601"><ele>-6.2</ele><time>2023-12-06T10:49:15Z</time><name>PT1597</name></trkpt>
<trkpt lat="51.797513" lon="03.891617"><ele>-6</ele><time>2023-12-06T10:49:16Z</time><name>PT1598</name></trkpt>
<trkpt lat="51.797505" lon="03.891631"><ele>-5.9</ele><time>2023-12-06T10:49:17Z</time><name>PT1599</name></trkpt>
<trkpt lat="51.797498" lon="03.891645"><ele>-5.8</ele><time>2023-12-06T10:49:18Z</time><name>PT1600</name></trkpt>
<trkpt lat="51.797491" lon="03.891659"><ele>-5.9</ele><time>2023-12-06T10:49:19Z</time><name>PT1601</name></trkpt>
<trkpt lat="51.797482" lon="03.891670"><ele>-5.9</ele><time>2023-12-06T10:49:20Z</time><name>PT1602</name></trkpt>
<trkpt lat="51.797473" lon="03.891683"><ele>-5.7</ele><time>2023-12-06T10:49:21Z</time><name>PT1603</name></trkpt>
<trkpt lat="51.797464" lon="03.891695"><ele>-5.6</ele><time>2023-12-06T10:49:22Z</time><name>PT1604</name></trkpt>
<trkpt lat="51.797456" lon="03.891707"><ele>-5.6</ele><time>2023-12-06T10:49:23Z</time><name>PT1605</name></trkpt>
<trkpt lat="51.797447" lon="03.891718"><ele>-5.6</ele><time>2023-12-06T10:49:24Z</time><name>PT1606</name></trkpt>
<trkpt lat="51.797439" lon="03.891731"><ele>-5.7</ele><time>2023-12-06T10:49:25Z</time><name>PT1607</name></trkpt>
<trkpt lat="51.797431" lon="03.891745"><ele>-5.6</ele><time>2023-12-06T10:49:26Z</time><name>PT1608</name></trkpt>
<trkpt lat="51.797423" lon="03.891759"><ele>-5.6</ele><time>2023-12-06T10:49:27Z</time><name>PT1609</name></trkpt>
<trkpt lat="51.797416" lon="03.891773"><ele>-5.6</ele><time>2023-12-06T10:49:28Z</time><name>PT1610</name></trkpt>
<trkpt lat="51.797409" lon="03.891787"><ele>-5.6</ele><time>2023-12-06T10:49:29Z</time><name>PT1611</name></trkpt>
<trkpt lat="51.797401" lon="03.891800"><ele>-5.8</ele><time>2023-12-06T10:49:30Z</time><name>PT1612</name></trkpt>
<trkpt lat="51.797393" lon="03.891814"><ele>-5.9</ele><time>2023-12-06T10:49:31Z</time><name>PT1613</name></trkpt>
<trkpt lat="51.797384" lon="03.891827"><ele>-6</ele><time>2023-12-06T10:49:32Z</time><name>PT1614</name></trkpt>
<trkpt lat="51.797375" lon="03.891839"><ele>-5.8</ele><time>2023-12-06T10:49:33Z</time><name>PT1615</name></trkpt>
<trkpt lat="51.797367" lon="03.891852"><ele>-6</ele><time>2023-12-06T10:49:34Z</time><name>PT1616</name></trkpt>
<trkpt lat="51.797358" lon="03.891864"><ele>-5.8</ele><time>2023-12-06T10:49:35Z</time><name>PT1617</name></trkpt>
<trkpt lat="51.797350" lon="03.891878"><ele>-5.8</ele><time>2023-12-06T10:49:36Z</time><name>PT1618</name></trkpt>
<trkpt lat="51.797345" lon="03.891893"><ele>-5.8</ele><time>2023-12-06T10:49:37Z</time><name>PT1619</name></trkpt>
<trkpt lat="51.797337" lon="03.891909"><ele>-5.8</ele><time>2023-12-06T10:49:38Z</time><name>PT1620</name></trkpt>
<trkpt lat="51.797328" lon="03.891924"><ele>-6</ele><time>2023-12-06T10:49:39Z</time><name>PT1621</name></trkpt>
<trkpt lat="51.797319" lon="03.891938"><ele>-6</ele><time>2023-12-06T10:49:40Z</time><name>PT1622</name></trkpt>
<trkpt lat="51.797311" lon="03.891951"><ele>-6</ele><time>2023-12-06T10:49:41Z</time><name>PT1623</name></trkpt>
<trkpt lat="51.797303" lon="03.891966"><ele>-5.9</ele><time>2023-12-06T10:49:42Z</time><name>PT1624</name></trkpt>
<trkpt lat="51.797293" lon="03.891981"><ele>-5.9</ele><time>2023-12-06T10:49:43Z</time><name>PT1625</name></trkpt>
<trkpt lat="51.797283" lon="03.891994"><ele>-5.9</ele><time>2023-12-06T10:49:44Z</time><name>PT1626</name></trkpt>
<trkpt lat="51.797275" lon="03.892009"><ele>-5.9</ele><time>2023-12-06T10:49:45Z</time><name>PT1627</name></trkpt>
<trkpt lat="51.797267" lon="03.892023"><ele>-6</ele><time>2023-12-06T10:49:46Z</time><name>PT1628</name></trkpt>
<trkpt lat="51.797259" lon="03.892036"><ele>-5.9</ele><time>2023-12-06T10:49:47Z</time><name>PT1629</name></trkpt>
<trkpt lat="51.797252" lon="03.892050"><ele>-5.8</ele><time>2023-12-06T10:49:48Z</time><name>PT1630</name></trkpt>
<trkpt lat="51.797246" lon="03.892066"><ele>-5.9</ele><time>2023-12-06T10:49:49Z</time><name>PT1631</name></trkpt>
<trkpt lat="51.797238" lon="03.892080"><ele>-5.9</ele><time>2023-12-06T10:49:50Z</time><name>PT1632</name></trkpt>
<trkpt lat="51.797230" lon="03.892095"><ele>-6</ele><time>2023-12-06T10:49:51Z</time><name>PT1633</name></trkpt>
<trkpt lat="51.797223" lon="03.892111"><ele>-5.9</ele><time>2023-12-06T10:49:52Z</time><name>PT1634</name></trkpt>
<trkpt lat="51.797215" lon="03.892127"><ele>-6</ele><time>2023-12-06T10:49:53Z</time><name>PT1635</name></trkpt>
<trkpt lat="51.797206" lon="03.892140"><ele>-6</ele><time>2023-12-06T10:49:54Z</time><name>PT1636</name></trkpt>
<trkpt lat="51.797195" lon="03.892155"><ele>-5.9</ele><time>2023-12-06T10:49:55Z</time><name>PT1637</name></trkpt>
<trkpt lat="51.797188" lon="03.892169"><ele>-6</ele><time>2023-12-06T10:49:56Z</time><name>PT1638</name></trkpt>
<trkpt lat="51.797180" lon="03.892183"><ele>-5.9</ele><time>2023-12-06T10:49:57Z</time><name>PT1639</name></trkpt>
<trkpt lat="51.797175" lon="03.892198"><ele>-5.8</ele><time>2023-12-06T10:49:58Z</time><name>PT1640</name></trkpt>
<trkpt lat="51.797167" lon="03.892216"><ele>-5.7</ele><time>2023-12-06T10:49:59Z</time><name>PT1641</name></trkpt>
<trkpt lat="51.797160" lon="03.892233"><ele>-5.6</ele><time>2023-12-06T10:50:00Z</time><name>PT1642</name></trkpt>
<trkpt lat="51.797155" lon="03.892249"><ele>-5.6</ele><time>2023-12-06T10:50:01Z</time><name>PT1643</name></trkpt>
<trkpt lat="51.797150" lon="03.892264"><ele>-5.6</ele><time>2023-12-06T10:50:02Z</time><name>PT1644</name></trkpt>
<trkpt lat="51.797144" lon="03.892278"><ele>-5.7</ele><time>2023-12-06T10:50:03Z</time><name>PT1645</name></trkpt>
<trkpt lat="51.797138" lon="03.892293"><ele>-5.8</ele><time>2023-12-06T10:50:04Z</time><name>PT1646</name></trkpt>
<trkpt lat="51.797131" lon="03.892308"><ele>-5.6</ele><time>2023-12-06T10:50:05Z</time><name>PT1647</name></trkpt>
<trkpt lat="51.797123" lon="03.892321"><ele>-5.6</ele><time>2023-12-06T10:50:06Z</time><name>PT1648</name></trkpt>
<trkpt lat="51.797116" lon="03.892333"><ele>-5.4</ele><time>2023-12-06T10:50:07Z</time><name>PT1649</name></trkpt>
<trkpt lat="51.797109" lon="03.892346"><ele>-5.4</ele><time>2023-12-06T10:50:08Z</time><name>PT1650</name></trkpt>
<trkpt lat="51.797103" lon="03.892359"><ele>-5.4</ele><time>2023-12-06T10:50:09Z</time><name>PT1651</name></trkpt>
<trkpt lat="51.797097" lon="03.892369"><ele>-5.5</ele><time>2023-12-06T10:50:10Z</time><name>PT1652</name></trkpt>
<trkpt lat="51.797092" lon="03.892382"><ele>-5.5</ele><time>2023-12-06T10:50:11Z</time><name>PT1653</name></trkpt>
<trkpt lat="51.797087" lon="03.892398"><ele>-5.6</ele><time>2023-12-06T10:50:12Z</time><name>PT1654</name></trkpt>
<trkpt lat="51.797083" lon="03.892413"><ele>-5.6</ele><time>2023-12-06T10:50:13Z</time><name>PT1655</name></trkpt>
<trkpt lat="51.797077" lon="03.892427"><ele>-5.7</ele><time>2023-12-06T10:50:14Z</time><name>PT1656</name></trkpt>
<trkpt lat="51.797071" lon="03.892441"><ele>-5.9</ele><time>2023-12-06T10:50:15Z</time><name>PT1657</name></trkpt>
<trkpt lat="51.797062" lon="03.892458"><ele>-6</ele><time>2023-12-06T10:50:16Z</time><name>PT1658</name></trkpt>
<trkpt lat="51.797053" lon="03.892472"><ele>-5.8</ele><time>2023-12-06T10:50:17Z</time><name>PT1659</name></trkpt>
<trkpt lat="51.797047" lon="03.892486"><ele>-5.8</ele><time>2023-12-06T10:50:18Z</time><name>PT1660</name></trkpt>
<trkpt lat="51.797040" lon="03.892500"><ele>-5.8</ele><time>2023-12-06T10:50:19Z</time><name>PT1661</name></trkpt>
<trkpt lat="51.797033" lon="03.892517"><ele>-5.7</ele><time>2023-12-06T10:50:20Z</time><name>PT1662</name></trkpt>
<trkpt lat="51.797026" lon="03.892533"><ele>-5.6</ele><time>2023-12-06T10:50:21Z</time><name>PT1663</name></trkpt>
<trkpt lat="51.797019" lon="03.892550"><ele>-5.6</ele><time>2023-12-06T10:50:22Z</time><name>PT1664</name></trkpt>
<trkpt lat="51.797012" lon="03.892565"><ele>-5.6</ele><time>2023-12-06T10:50:23Z</time><name>PT1665</name></trkpt>
<trkpt lat="51.797006" lon="03.892578"><ele>-5.6</ele><time>2023-12-06T10:50:24Z</time><name>PT1666</name></trkpt>
<trkpt lat="51.797001" lon="03.892593"><ele>-5.6</ele><time>2023-12-06T10:50:25Z</time><name>PT1667</name></trkpt>
<trkpt lat="51.796995" lon="03.892608"><ele>-5.5</ele><time>2023-12-06T10:50:26Z</time><name>PT1668</name></trkpt>
<trkpt lat="51.796989" lon="03.892624"><ele>-5.6</ele><time>2023-12-06T10:50:27Z</time><name>PT1669</name></trkpt>
<trkpt lat="51.796983" lon="03.892641"><ele>-5.6</ele><time>2023-12-06T10:50:28Z</time><name>PT1670</name></trkpt>
<trkpt lat="51.796975" lon="03.892655"><ele>-5.8</ele><time>2023-12-06T10:50:29Z</time><name>PT1671</name></trkpt>
<trkpt lat="51.796966" lon="03.892670"><ele>-5.8</ele><time>2023-12-06T10:50:30Z</time><name>PT1672</name></trkpt>
<trkpt lat="51.796958" lon="03.892685"><ele>-5.9</ele><time>2023-12-06T10:50:31Z</time><name>PT1673</name></trkpt>
<trkpt lat="51.796952" lon="03.892702"><ele>-5.9</ele><time>2023-12-06T10:50:32Z</time><name>PT1674</name></trkpt>
<trkpt lat="51.796946" lon="03.892722"><ele>-5.9</ele><time>2023-12-06T10:50:33Z</time><name>PT1675</name></trkpt>
<trkpt lat="51.796940" lon="03.892740"><ele>-6</ele><time>2023-12-06T10:50:34Z</time><name>PT1676</name></trkpt>
<trkpt lat="51.796934" lon="03.892759"><ele>-5.9</ele><time>2023-12-06T10:50:35Z</time><name>PT1677</name></trkpt>
<trkpt lat="51.796928" lon="03.892779"><ele>-6</ele><time>2023-12-06T10:50:36Z</time><name>PT1678</name></trkpt>
<trkpt lat="51.796922" lon="03.892796"><ele>-5.9</ele><time>2023-12-06T10:50:37Z</time><name>PT1679</name></trkpt>
<trkpt lat="51.796916" lon="03.892812"><ele>-5.9</ele><time>2023-12-06T10:50:38Z</time><name>PT1680</name></trkpt>
<trkpt lat="51.796908" lon="03.892829"><ele>-6</ele><time>2023-12-06T10:50:39Z</time><name>PT1681</name></trkpt>
<trkpt lat="51.796902" lon="03.892847"><ele>-5.9</ele><time>2023-12-06T10:50:40Z</time><name>PT1682</name></trkpt>
<trkpt lat="51.796896" lon="03.892865"><ele>-5.8</ele><time>2023-12-06T10:50:41Z</time><name>PT1683</name></trkpt>
<trkpt lat="51.796890" lon="03.892883"><ele>-5.8</ele><time>2023-12-06T10:50:42Z</time><name>PT1684</name></trkpt>
<trkpt lat="51.796884" lon="03.892900"><ele>-5.6</ele><time>2023-12-06T10:50:43Z</time><name>PT1685</name></trkpt>
<trkpt lat="51.796877" lon="03.892916"><ele>-5.7</ele><time>2023-12-06T10:50:44Z</time><name>PT1686</name></trkpt>
<trkpt lat="51.796870" lon="03.892934"><ele>-5.6</ele><time>2023-12-06T10:50:45Z</time><name>PT1687</name></trkpt>
<trkpt lat="51.796864" lon="03.892952"><ele>-5.6</ele><time>2023-12-06T10:50:46Z</time><name>PT1688</name></trkpt>
<trkpt lat="51.796857" lon="03.892969"><ele>-5.8</ele><time>2023-12-06T10:50:47Z</time><name>PT1689</name></trkpt>
<trkpt lat="51.796850" lon="03.892987"><ele>-5.8</ele><time>2023-12-06T10:50:48Z</time><name>PT1690</name></trkpt>
<trkpt lat="51.796844" lon="03.893004"><ele>-5.7</ele><time>2023-12-06T10:50:49Z</time><name>PT1691</name></trkpt>
<trkpt lat="51.796837" lon="03.893020"><ele>-5.8</ele><time>2023-12-06T10:50:50Z</time><name>PT1692</name></trkpt>
<trkpt lat="51.796830" lon="03.893036"><ele>-5.9</ele><time>2023-12-06T10:50:51Z</time><name>PT1693</name></trkpt>
<trkpt lat="51.796825" lon="03.893051"><ele>-5.9</ele><time>2023-12-06T10:50:52Z</time><name>PT1694</name></trkpt>
<trkpt lat="51.796819" lon="03.893068"><ele>-5.9</ele><time>2023-12-06T10:50:53Z</time><name>PT1695</name></trkpt>
<trkpt lat="51.796813" lon="03.893085"><ele>-5.8</ele><time>2023-12-06T10:50:54Z</time><name>PT1696</name></trkpt>
<trkpt lat="51.796807" lon="03.893103"><ele>-5.6</ele><time>2023-12-06T10:50:55Z</time><name>PT1697</name></trkpt>
<trkpt lat="51.796803" lon="03.893120"><ele>-5.7</ele><time>2023-12-06T10:50:56Z</time><name>PT1698</name></trkpt>
<trkpt lat="51.796798" lon="03.893137"><ele>-5.6</ele><time>2023-12-06T10:50:57Z</time><name>PT1699</name></trkpt>
<trkpt lat="51.796792" lon="03.893154"><ele>-5.6</ele><time>2023-12-06T10:50:58Z</time><name>PT1700</name></trkpt>
<trkpt lat="51.796786" lon="03.893173"><ele>-5.6</ele><time>2023-12-06T10:50:59Z</time><name>PT1701</name></trkpt>
<trkpt lat="51.796780" lon="03.893191"><ele>-5.5</ele><time>2023-12-06T10:51:00Z</time><name>PT1702</name></trkpt>
<trkpt lat="51.796775" lon="03.893207"><ele>-5.6</ele><time>2023-12-06T10:51:01Z</time><name>PT1703</name></trkpt>
<trkpt lat="51.796771" lon="03.893223"><ele>-5.4</ele><time>2023-12-06T10:51:02Z</time><name>PT1704</name></trkpt>
<trkpt lat="51.796768" lon="03.893238"><ele>-5.4</ele><time>2023-12-06T10:51:03Z</time><name>PT1705</name></trkpt>
<trkpt lat="51.796765" lon="03.893255"><ele>-5.5</ele><time>2023-12-06T10:51:04Z</time><name>PT1706</name></trkpt>
<trkpt lat="51.796765" lon="03.893272"><ele>-5.6</ele><time>2023-12-06T10:51:05Z</time><name>PT1707</name></trkpt>
<trkpt lat="51.796763" lon="03.893290"><ele>-5.6</ele><time>2023-12-06T10:51:06Z</time><name>PT1708</name></trkpt>
<trkpt lat="51.796761" lon="03.893305"><ele>-5.8</ele><time>2023-12-06T10:51:07Z</time><name>PT1709</name></trkpt>
<trkpt lat="51.796759" lon="03.893319"><ele>-5.8</ele><time>2023-12-06T10:51:08Z</time><name>PT1710</name></trkpt>
<trkpt lat="51.796755" lon="03.893334"><ele>-6</ele><time>2023-12-06T10:51:09Z</time><name>PT1711</name></trkpt>
<trkpt lat="51.796750" lon="03.893347"><ele>-5.9</ele><time>2023-12-06T10:51:10Z</time><name>PT1712</name></trkpt>
<trkpt lat="51.796745" lon="03.893363"><ele>-6.1</ele><time>2023-12-06T10:51:11Z</time><name>PT1713</name></trkpt>
<trkpt lat="51.796741" lon="03.893384"><ele>-6.2</ele><time>2023-12-06T10:51:12Z</time><name>PT1714</name></trkpt>
<trkpt lat="51.796738" lon="03.893401"><ele>-6</ele><time>2023-12-06T10:51:13Z</time><name>PT1715</name></trkpt>
<trkpt lat="51.796735" lon="03.893415"><ele>-6.1</ele><time>2023-12-06T10:51:14Z</time><name>PT1716</name></trkpt>
<trkpt lat="51.796733" lon="03.893428"><ele>-6</ele><time>2023-12-06T10:51:15Z</time><name>PT1717</name></trkpt>
<trkpt lat="51.796727" lon="03.893439"><ele>-5.9</ele><time>2023-12-06T10:51:16Z</time><name>PT1718</name></trkpt>
<trkpt lat="51.796722" lon="03.893451"><ele>-5.8</ele><time>2023-12-06T10:51:17Z</time><name>PT1719</name></trkpt>
<trkpt lat="51.796724" lon="03.893466"><ele>-5.5</ele><time>2023-12-06T10:51:18Z</time><name>PT1720</name></trkpt>
<trkpt lat="51.796722" lon="03.893485"><ele>-5.5</ele><time>2023-12-06T10:51:19Z</time><name>PT1721</name></trkpt>
<trkpt lat="51.796719" lon="03.893502"><ele>-5.5</ele><time>2023-12-06T10:51:20Z</time><name>PT1722</name></trkpt>
<trkpt lat="51.796717" lon="03.893522"><ele>-5.5</ele><time>2023-12-06T10:51:21Z</time><name>PT1723</name></trkpt>
<trkpt lat="51.796716" lon="03.893543"><ele>-5.7</ele><time>2023-12-06T10:51:22Z</time><name>PT1724</name></trkpt>
<trkpt lat="51.796713" lon="03.893561"><ele>-5.9</ele><time>2023-12-06T10:51:23Z</time><name>PT1725</name></trkpt>
<trkpt lat="51.796708" lon="03.893580"><ele>-5.8</ele><time>2023-12-06T10:51:24Z</time><name>PT1726</name></trkpt>
<trkpt lat="51.796706" lon="03.893597"><ele>-5.8</ele><time>2023-12-06T10:51:25Z</time><name>PT1727</name></trkpt>
<trkpt lat="51.796703" lon="03.893613"><ele>-5.7</ele><time>2023-12-06T10:51:26Z</time><name>PT1728</name></trkpt>
<trkpt lat="51.796700" lon="03.893628"><ele>-5.7</ele><time>2023-12-06T10:51:27Z</time><name>PT1729</name></trkpt>
<trkpt lat="51.796697" lon="03.893643"><ele>-5.7</ele><time>2023-12-06T10:51:28Z</time><name>PT1730</name></trkpt>
<trkpt lat="51.796695" lon="03.893660"><ele>-5.8</ele><time>2023-12-06T10:51:29Z</time><name>PT1731</name></trkpt>
<trkpt lat="51.796692" lon="03.893679"><ele>-5.8</ele><time>2023-12-06T10:51:30Z</time><name>PT1732</name></trkpt>
<trkpt lat="51.796691" lon="03.893697"><ele>-5.7</ele><time>2023-12-06T10:51:31Z</time><name>PT1733</name></trkpt>
<trkpt lat="51.796690" lon="03.893714"><ele>-5.6</ele><time>2023-12-06T10:51:32Z</time><name>PT1734</name></trkpt>
<trkpt lat="51.796691" lon="03.893732"><ele>-5.6</ele><time>2023-12-06T10:51:33Z</time><name>PT1735</name></trkpt>
<trkpt lat="51.796690" lon="03.893751"><ele>-5.5</ele><time>2023-12-06T10:51:34Z</time><name>PT1736</name></trkpt>
<trkpt lat="51.796689" lon="03.893769"><ele>-5.6</ele><time>2023-12-06T10:51:35Z</time><name>PT1737</name></trkpt>
<trkpt lat="51.796687" lon="03.893789"><ele>-5.6</ele><time>2023-12-06T10:51:36Z</time><name>PT1738</name></trkpt>
<trkpt lat="51.796684" lon="03.893813"><ele>-5.7</ele><time>2023-12-06T10:51:37Z</time><name>PT1739</name></trkpt>
<trkpt lat="51.796680" lon="03.893834"><ele>-5.8</ele><time>2023-12-06T10:51:38Z</time><name>PT1740</name></trkpt>
<trkpt lat="51.796676" lon="03.893855"><ele>-6</ele><time>2023-12-06T10:51:39Z</time><name>PT1741</name></trkpt>
<trkpt lat="51.796673" lon="03.893873"><ele>-6.1</ele><time>2023-12-06T10:51:40Z</time><name>PT1742</name></trkpt>
<trkpt lat="51.796669" lon="03.893893"><ele>-6</ele><time>2023-12-06T10:51:41Z</time><name>PT1743</name></trkpt>
<trkpt lat="51.796666" lon="03.893915"><ele>-5.9</ele><time>2023-12-06T10:51:42Z</time><name>PT1744</name></trkpt>
<trkpt lat="51.796663" lon="03.893937"><ele>-5.7</ele><time>2023-12-06T10:51:43Z</time><name>PT1745</name></trkpt>
<trkpt lat="51.796662" lon="03.893957"><ele>-5.8</ele><time>2023-12-06T10:51:44Z</time><name>PT1746</name></trkpt>
<trkpt lat="51.796661" lon="03.893977"><ele>-5.7</ele><time>2023-12-06T10:51:45Z</time><name>PT1747</name></trkpt>
<trkpt lat="51.796661" lon="03.893997"><ele>-5.8</ele><time>2023-12-06T10:51:46Z</time><name>PT1748</name></trkpt>
<trkpt lat="51.796660" lon="03.894018"><ele>-5.9</ele><time>2023-12-06T10:51:47Z</time><name>PT1749</name></trkpt>
<trkpt lat="51.796658" lon="03.894041"><ele>-5.7</ele><time>2023-12-06T10:51:48Z</time><name>PT1750</name></trkpt>
<trkpt lat="51.796656" lon="03.894062"><ele>-5.6</ele><time>2023-12-06T10:51:49Z</time><name>PT1751</name></trkpt>
<trkpt lat="51.796654" lon="03.894084"><ele>-5.6</ele><time>2023-12-06T10:51:50Z</time><name>PT1752</name></trkpt>
<trkpt lat="51.796652" lon="03.894104"><ele>-5.8</ele><time>2023-12-06T10:51:51Z</time><name>PT1753</name></trkpt>
<trkpt lat="51.796649" lon="03.894125"><ele>-5.8</ele><time>2023-12-06T10:51:52Z</time><name>PT1754</name></trkpt>
<trkpt lat="51.796647" lon="03.894144"><ele>-6</ele><time>2023-12-06T10:51:53Z</time><name>PT1755</name></trkpt>
<trkpt lat="51.796645" lon="03.894162"><ele>-6.1</ele><time>2023-12-06T10:51:54Z</time><name>PT1756</name></trkpt>
<trkpt lat="51.796644" lon="03.894182"><ele>-6</ele><time>2023-12-06T10:51:55Z</time><name>PT1757</name></trkpt>
<trkpt lat="51.796642" lon="03.894200"><ele>-6</ele><time>2023-12-06T10:51:56Z</time><name>PT1758</name></trkpt>
<trkpt lat="51.796641" lon="03.894218"><ele>-6</ele><time>2023-12-06T10:51:57Z</time><name>PT1759</name></trkpt>
<trkpt lat="51.796642" lon="03.894237"><ele>-6</ele><time>2023-12-06T10:51:58Z</time><name>PT1760</name></trkpt>
<trkpt lat="51.796642" lon="03.894257"><ele>-5.9</ele><time>2023-12-06T10:51:59Z</time><name>PT1761</name></trkpt>
<trkpt lat="51.796641" lon="03.894273"><ele>-5.9</ele><time>2023-12-06T10:52:00Z</time><name>PT1762</name></trkpt>
<trkpt lat="51.796639" lon="03.894293"><ele>-6</ele><time>2023-12-06T10:52:01Z</time><name>PT1763</name></trkpt>
<trkpt lat="51.796638" lon="03.894312"><ele>-5.8</ele><time>2023-12-06T10:52:02Z</time><name>PT1764</name></trkpt>
<trkpt lat="51.796635" lon="03.894327"><ele>-5.9</ele><time>2023-12-06T10:52:03Z</time><name>PT1765</name></trkpt>
<trkpt lat="51.796632" lon="03.894342"><ele>-5.9</ele><time>2023-12-06T10:52:04Z</time><name>PT1766</name></trkpt>
<trkpt lat="51.796630" lon="03.894358"><ele>-5.8</ele><time>2023-12-06T10:52:05Z</time><name>PT1767</name></trkpt>
<trkpt lat="51.796628" lon="03.894376"><ele>-6</ele><time>2023-12-06T10:52:06Z</time><name>PT1768</name></trkpt>
<trkpt lat="51.796628" lon="03.894392"><ele>-5.9</ele><time>2023-12-06T10:52:07Z</time><name>PT1769</name></trkpt>
<trkpt lat="51.796629" lon="03.894409"><ele>-5.8</ele><time>2023-12-06T10:52:08Z</time><name>PT1770</name></trkpt>
<trkpt lat="51.796630" lon="03.894425"><ele>-6</ele><time>2023-12-06T10:52:09Z</time><name>PT1771</name></trkpt>
<trkpt lat="51.796628" lon="03.894446"><ele>-5.9</ele><time>2023-12-06T10:52:10Z</time><name>PT1772</name></trkpt>
<trkpt lat="51.796628" lon="03.894467"><ele>-5.9</ele><time>2023-12-06T10:52:11Z</time><name>PT1773</name></trkpt>
<trkpt lat="51.796629" lon="03.894488"><ele>-6</ele><time>2023-12-06T10:52:12Z</time><name>PT1774</name></trkpt>
<trkpt lat="51.796630" lon="03.894506"><ele>-6.3</ele><time>2023-12-06T10:52:13Z</time><name>PT1775</name></trkpt>
<trkpt lat="51.796629" lon="03.894525"><ele>-6.1</ele><time>2023-12-06T10:52:14Z</time><name>PT1776</name></trkpt>
<trkpt lat="51.796627" lon="03.894543"><ele>-6.2</ele><time>2023-12-06T10:52:15Z</time><name>PT1777</name></trkpt>
<trkpt lat="51.796627" lon="03.894560"><ele>-6.1</ele><time>2023-12-06T10:52:16Z</time><name>PT1778</name></trkpt>
<trkpt lat="51.796626" lon="03.894576"><ele>-6</ele><time>2023-12-06T10:52:17Z</time><name>PT1779</name></trkpt>
<trkpt lat="51.796627" lon="03.894596"><ele>-6</ele><time>2023-12-06T10:52:18Z</time><name>PT1780</name></trkpt>
<trkpt lat="51.796629" lon="03.894617"><ele>-6</ele><time>2023-12-06T10:52:19Z</time><name>PT1781</name></trkpt>
<trkpt lat="51.796630" lon="03.894637"><ele>-6</ele><time>2023-12-06T10:52:20Z</time><name>PT1782</name></trkpt>
<trkpt lat="51.796633" lon="03.894656"><ele>-6</ele><time>2023-12-06T10:52:21Z</time><name>PT1783</name></trkpt>
<trkpt lat="51.796635" lon="03.894674"><ele>-6</ele><time>2023-12-06T10:52:22Z</time><name>PT1784</name></trkpt>
<trkpt lat="51.796640" lon="03.894692"><ele>-6</ele><time>2023-12-06T10:52:23Z</time><name>PT1785</name></trkpt>
<trkpt lat="51.796643" lon="03.894709"><ele>-6</ele><time>2023-12-06T10:52:24Z</time><name>PT1786</name></trkpt>
<trkpt lat="51.796647" lon="03.894728"><ele>-6</ele><time>2023-12-06T10:52:25Z</time><name>PT1787</name></trkpt>
<trkpt lat="51.796650" lon="03.894747"><ele>-5.9</ele><time>2023-12-06T10:52:26Z</time><name>PT1788</name></trkpt>
<trkpt lat="51.796653" lon="03.894765"><ele>-6</ele><time>2023-12-06T10:52:27Z</time><name>PT1789</name></trkpt>
<trkpt lat="51.796654" lon="03.894783"><ele>-6</ele><time>2023-12-06T10:52:28Z</time><name>PT1790</name></trkpt>
<trkpt lat="51.796655" lon="03.894801"><ele>-6</ele><time>2023-12-06T10:52:29Z</time><name>PT1791</name></trkpt>
<trkpt lat="51.796657" lon="03.894819"><ele>-5.9</ele><time>2023-12-06T10:52:30Z</time><name>PT1792</name></trkpt>
<trkpt lat="51.796660" lon="03.894838"><ele>-5.8</ele><time>2023-12-06T10:52:31Z</time><name>PT1793</name></trkpt>
<trkpt lat="51.796663" lon="03.894856"><ele>-5.6</ele><time>2023-12-06T10:52:32Z</time><name>PT1794</name></trkpt>
<trkpt lat="51.796667" lon="03.894873"><ele>-5.7</ele><time>2023-12-06T10:52:33Z</time><name>PT1795</name></trkpt>
<trkpt lat="51.796671" lon="03.894889"><ele>-5.6</ele><time>2023-12-06T10:52:34Z</time><name>PT1796</name></trkpt>
<trkpt lat="51.796674" lon="03.894909"><ele>-5.9</ele><time>2023-12-06T10:52:35Z</time><name>PT1797</name></trkpt>
<trkpt lat="51.796677" lon="03.894927"><ele>-6</ele><time>2023-12-06T10:52:36Z</time><name>PT1798</name></trkpt>
<trkpt lat="51.796680" lon="03.894943"><ele>-6</ele><time>2023-12-06T10:52:37Z</time><name>PT1799</name></trkpt>
<trkpt lat="51.796683" lon="03.894957"><ele>-6</ele><time>2023-12-06T10:52:38Z</time><name>PT1800</name></trkpt>
<trkpt lat="51.796685" lon="03.894977"><ele>-6</ele><time>2023-12-06T10:52:39Z</time><name>PT1801</name></trkpt>
<trkpt lat="51.796687" lon="03.894991"><ele>-6</ele><time>2023-12-06T10:52:40Z</time><name>PT1802</name></trkpt>
<trkpt lat="51.796689" lon="03.895003"><ele>-6.1</ele><time>2023-12-06T10:52:41Z</time><name>PT1803</name></trkpt>
<trkpt lat="51.796691" lon="03.895016"><ele>-6.2</ele><time>2023-12-06T10:52:42Z</time><name>PT1804</name></trkpt>
<trkpt lat="51.796694" lon="03.895030"><ele>-6.2</ele><time>2023-12-06T10:52:43Z</time><name>PT1805</name></trkpt>
<trkpt lat="51.796699" lon="03.895044"><ele>-6</ele><time>2023-12-06T10:52:44Z</time><name>PT1806</name></trkpt>
<trkpt lat="51.796702" lon="03.895057"><ele>-5.8</ele><time>2023-12-06T10:52:45Z</time><name>PT1807</name></trkpt>
<trkpt lat="51.796703" lon="03.895068"><ele>-5.8</ele><time>2023-12-06T10:52:46Z</time><name>PT1808</name></trkpt>
<trkpt lat="51.796706" lon="03.895075"><ele>-5.6</ele><time>2023-12-06T10:52:47Z</time><name>PT1809</name></trkpt>
<trkpt lat="51.796706" lon="03.895080"><ele>-5.6</ele><time>2023-12-06T10:52:48Z</time><name>PT1810</name></trkpt>
<trkpt lat="51.796706" lon="03.895082"><ele>-5.5</ele><time>2023-12-06T10:52:49Z</time><name>PT1811</name></trkpt>
<trkpt lat="51.796703" lon="03.895086"><ele>-5.2</ele><time>2023-12-06T10:52:50Z</time><name>PT1812</name></trkpt>
<trkpt lat="51.796706" lon="03.895104"><ele>-5.6</ele><time>2023-12-06T10:52:57Z</time><name>PT1813</name></trkpt>
<trkpt lat="51.796715" lon="03.895117"><ele>-5.6</ele><time>2023-12-06T10:52:58Z</time><name>PT1814</name></trkpt>
<trkpt lat="51.796709" lon="03.895122"><ele>-5.5</ele><time>2023-12-06T10:52:59Z</time><name>PT1815</name></trkpt>
<trkpt lat="51.796706" lon="03.895132"><ele>-5.8</ele><time>2023-12-06T10:53:00Z</time><name>PT1816</name></trkpt>
<trkpt lat="51.796706" lon="03.895136"><ele>-5.7</ele><time>2023-12-06T10:53:01Z</time><name>PT1817</name></trkpt>
<trkpt lat="51.796707" lon="03.895139"><ele>-5.6</ele><time>2023-12-06T10:53:02Z</time><name>PT1818</name></trkpt>
<trkpt lat="51.796704" lon="03.895149"><ele>-5.6</ele><time>2023-12-06T10:53:22Z</time><name>PT1819</name></trkpt>
<trkpt lat="51.796706" lon="03.895155"><ele>-5.6</ele><time>2023-12-06T10:53:23Z</time><name>PT1820</name></trkpt>
<trkpt lat="51.796708" lon="03.895160"><ele>-5.7</ele><time>2023-12-06T10:53:24Z</time><name>PT1821</name></trkpt>
<trkpt lat="51.796706" lon="03.895168"><ele>-5.7</ele><time>2023-12-06T10:54:01Z</time><name>PT1822</name></trkpt>
<trkpt lat="51.796706" lon="03.895172"><ele>-5.7</ele><time>2023-12-06T10:54:02Z</time><name>PT1823</name></trkpt>
<trkpt lat="51.796704" lon="03.895184"><ele>-5.5</ele><time>2023-12-06T10:54:20Z</time><name>PT1824</name></trkpt>
<trkpt lat="51.796705" lon="03.895189"><ele>-5.5</ele><time>2023-12-06T10:54:21Z</time><name>PT1825</name></trkpt>
<trkpt lat="51.796709" lon="03.895196"><ele>-5.5</ele><time>2023-12-06T10:54:22Z</time><name>PT1826</name></trkpt>
<trkpt lat="51.796717" lon="03.895207"><ele>-5.4</ele><time>2023-12-06T10:54:24Z</time><name>PT1827</name></trkpt>
<trkpt lat="51.796721" lon="03.895222"><ele>-5.5</ele><time>2023-12-06T10:54:25Z</time><name>PT1828</name></trkpt>
<trkpt lat="51.796724" lon="03.895237"><ele>-5.6</ele><time>2023-12-06T10:54:26Z</time><name>PT1829</name></trkpt>
<trkpt lat="51.796729" lon="03.895250"><ele>-5.6</ele><time>2023-12-06T10:54:27Z</time><name>PT1830</name></trkpt>
<trkpt lat="51.796730" lon="03.895260"><ele>-5.6</ele><time>2023-12-06T10:54:28Z</time><name>PT1831</name></trkpt>
<trkpt lat="51.796730" lon="03.895267"><ele>-5.6</ele><time>2023-12-06T10:54:29Z</time><name>PT1832</name></trkpt>
<trkpt lat="51.796731" lon="03.895278"><ele>-5.6</ele><time>2023-12-06T10:54:30Z</time><name>PT1833</name></trkpt>
<trkpt lat="51.796732" lon="03.895284"><ele>-5.6</ele><time>2023-12-06T10:54:31Z</time><name>PT1834</name></trkpt>
<trkpt lat="51.796732" lon="03.895291"><ele>-5.6</ele><time>2023-12-06T10:54:32Z</time><name>PT1835</name></trkpt>
<trkpt lat="51.796731" lon="03.895309"><ele>-5.6</ele><time>2023-12-06T10:54:45Z</time><name>PT1836</name></trkpt>
<trkpt lat="51.796734" lon="03.895323"><ele>-5.6</ele><time>2023-12-06T10:54:46Z</time><name>PT1837</name></trkpt>
<trkpt lat="51.796737" lon="03.895336"><ele>-5.6</ele><time>2023-12-06T10:54:47Z</time><name>PT1838</name></trkpt>
<trkpt lat="51.796737" lon="03.895347"><ele>-5.6</ele><time>2023-12-06T10:54:48Z</time><name>PT1839</name></trkpt>
<trkpt lat="51.796739" lon="03.895363"><ele>-5.8</ele><time>2023-12-06T10:54:49Z</time><name>PT1840</name></trkpt>
<trkpt lat="51.796742" lon="03.895375"><ele>-5.7</ele><time>2023-12-06T10:54:50Z</time><name>PT1841</name></trkpt>
<trkpt lat="51.796745" lon="03.895390"><ele>-5.7</ele><time>2023-12-06T10:54:51Z</time><name>PT1842</name></trkpt>
<trkpt lat="51.796746" lon="03.895407"><ele>-5.7</ele><time>2023-12-06T10:54:52Z</time><name>PT1843</name></trkpt>
<trkpt lat="51.796749" lon="03.895424"><ele>-5.6</ele><time>2023-12-06T10:54:53Z</time><name>PT1844</name></trkpt>
<trkpt lat="51.796753" lon="03.895440"><ele>-5.6</ele><time>2023-12-06T10:54:54Z</time><name>PT1845</name></trkpt>
<trkpt lat="51.796755" lon="03.895459"><ele>-5.5</ele><time>2023-12-06T10:54:55Z</time><name>PT1846</name></trkpt>
<trkpt lat="51.796758" lon="03.895475"><ele>-5.6</ele><time>2023-12-06T10:54:56Z</time><name>PT1847</name></trkpt>
<trkpt lat="51.796766" lon="03.895492"><ele>-5.6</ele><time>2023-12-06T10:54:57Z</time><name>PT1848</name></trkpt>
<trkpt lat="51.796768" lon="03.895503"><ele>-5.5</ele><time>2023-12-06T10:54:58Z</time><name>PT1849</name></trkpt>
<trkpt lat="51.796770" lon="03.895516"><ele>-5.4</ele><time>2023-12-06T10:54:59Z</time><name>PT1850</name></trkpt>
<trkpt lat="51.796772" lon="03.895536"><ele>-5.3</ele><time>2023-12-06T10:55:00Z</time><name>PT1851</name></trkpt>
<trkpt lat="51.796775" lon="03.895555"><ele>-5.4</ele><time>2023-12-06T10:55:01Z</time><name>PT1852</name></trkpt>
<trkpt lat="51.796777" lon="03.895574"><ele>-5.4</ele><time>2023-12-06T10:55:02Z</time><name>PT1853</name></trkpt>
<trkpt lat="51.796778" lon="03.895592"><ele>-5.6</ele><time>2023-12-06T10:55:03Z</time><name>PT1854</name></trkpt>
<trkpt lat="51.796782" lon="03.895610"><ele>-5.7</ele><time>2023-12-06T10:55:04Z</time><name>PT1855</name></trkpt>
<trkpt lat="51.796786" lon="03.895628"><ele>-5.6</ele><time>2023-12-06T10:55:05Z</time><name>PT1856</name></trkpt>
<trkpt lat="51.796790" lon="03.895645"><ele>-5.6</ele><time>2023-12-06T10:55:06Z</time><name>PT1857</name></trkpt>
<trkpt lat="51.796796" lon="03.895662"><ele>-5.6</ele><time>2023-12-06T10:55:07Z</time><name>PT1858</name></trkpt>
<trkpt lat="51.796802" lon="03.895681"><ele>-5.5</ele><time>2023-12-06T10:55:08Z</time><name>PT1859</name></trkpt>
<trkpt lat="51.796807" lon="03.895699"><ele>-5.4</ele><time>2023-12-06T10:55:09Z</time><name>PT1860</name></trkpt>
<trkpt lat="51.796812" lon="03.895719"><ele>-5.5</ele><time>2023-12-06T10:55:10Z</time><name>PT1861</name></trkpt>
<trkpt lat="51.796815" lon="03.895738"><ele>-5.4</ele><time>2023-12-06T10:55:11Z</time><name>PT1862</name></trkpt>
<trkpt lat="51.796818" lon="03.895756"><ele>-5.3</ele><time>2023-12-06T10:55:12Z</time><name>PT1863</name></trkpt>
<trkpt lat="51.796820" lon="03.895771"><ele>-5.4</ele><time>2023-12-06T10:55:13Z</time><name>PT1864</name></trkpt>
<trkpt lat="51.796821" lon="03.895789"><ele>-5.5</ele><time>2023-12-06T10:55:14Z</time><name>PT1865</name></trkpt>
<trkpt lat="51.796824" lon="03.895808"><ele>-5.4</ele><time>2023-12-06T10:55:15Z</time><name>PT1866</name></trkpt>
<trkpt lat="51.796829" lon="03.895827"><ele>-5.5</ele><time>2023-12-06T10:55:16Z</time><name>PT1867</name></trkpt>
<trkpt lat="51.796831" lon="03.895841"><ele>-5.5</ele><time>2023-12-06T10:55:17Z</time><name>PT1868</name></trkpt>
<trkpt lat="51.796833" lon="03.895856"><ele>-5.5</ele><time>2023-12-06T10:55:18Z</time><name>PT1869</name></trkpt>
<trkpt lat="51.796836" lon="03.895871"><ele>-5.6</ele><time>2023-12-06T10:55:19Z</time><name>PT1870</name></trkpt>
<trkpt lat="51.796842" lon="03.895884"><ele>-5.5</ele><time>2023-12-06T10:55:20Z</time><name>PT1871</name></trkpt>
<trkpt lat="51.796849" lon="03.895902"><ele>-5.5</ele><time>2023-12-06T10:55:21Z</time><name>PT1872</name></trkpt>
<trkpt lat="51.796851" lon="03.895919"><ele>-5.5</ele><time>2023-12-06T10:55:22Z</time><name>PT1873</name></trkpt>
<trkpt lat="51.796854" lon="03.895939"><ele>-5.6</ele><time>2023-12-06T10:55:23Z</time><name>PT1874</name></trkpt>
<trkpt lat="51.796857" lon="03.895960"><ele>-5.6</ele><time>2023-12-06T10:55:24Z</time><name>PT1875</name></trkpt>
<trkpt lat="51.796859" lon="03.895981"><ele>-5.7</ele><time>2023-12-06T10:55:25Z</time><name>PT1876</name></trkpt>
<trkpt lat="51.796863" lon="03.896000"><ele>-5.5</ele><time>2023-12-06T10:55:26Z</time><name>PT1877</name></trkpt>
<trkpt lat="51.796866" lon="03.896016"><ele>-5.4</ele><time>2023-12-06T10:55:27Z</time><name>PT1878</name></trkpt>
<trkpt lat="51.796868" lon="03.896035"><ele>-5.3</ele><time>2023-12-06T10:55:28Z</time><name>PT1879</name></trkpt>
<trkpt lat="51.796871" lon="03.896054"><ele>-5.3</ele><time>2023-12-06T10:55:29Z</time><name>PT1880</name></trkpt>
<trkpt lat="51.796874" lon="03.896073"><ele>-5.2</ele><time>2023-12-06T10:55:30Z</time><name>PT1881</name></trkpt>
<trkpt lat="51.796876" lon="03.896093"><ele>-5.3</ele><time>2023-12-06T10:55:31Z</time><name>PT1882</name></trkpt>
<trkpt lat="51.796880" lon="03.896111"><ele>-5.3</ele><time>2023-12-06T10:55:32Z</time><name>PT1883</name></trkpt>
<trkpt lat="51.796884" lon="03.896129"><ele>-5.2</ele><time>2023-12-06T10:55:33Z</time><name>PT1884</name></trkpt>
<trkpt lat="51.796889" lon="03.896147"><ele>-5.3</ele><time>2023-12-06T10:55:34Z</time><name>PT1885</name></trkpt>
<trkpt lat="51.796892" lon="03.896164"><ele>-5.3</ele><time>2023-12-06T10:55:35Z</time><name>PT1886</name></trkpt>
<trkpt lat="51.796895" lon="03.896179"><ele>-5.4</ele><time>2023-12-06T10:55:36Z</time><name>PT1887</name></trkpt>
<trkpt lat="51.796898" lon="03.896195"><ele>-5.3</ele><time>2023-12-06T10:55:37Z</time><name>PT1888</name></trkpt>
<trkpt lat="51.796899" lon="03.896213"><ele>-5.5</ele><time>2023-12-06T10:55:38Z</time><name>PT1889</name></trkpt>
<trkpt lat="51.796902" lon="03.896230"><ele>-5.5</ele><time>2023-12-06T10:55:39Z</time><name>PT1890</name></trkpt>
<trkpt lat="51.796904" lon="03.896251"><ele>-5.5</ele><time>2023-12-06T10:55:40Z</time><name>PT1891</name></trkpt>
<trkpt lat="51.796906" lon="03.896268"><ele>-5.5</ele><time>2023-12-06T10:55:41Z</time><name>PT1892</name></trkpt>
<trkpt lat="51.796909" lon="03.896288"><ele>-5.4</ele><time>2023-12-06T10:55:42Z</time><name>PT1893</name></trkpt>
<trkpt lat="51.796913" lon="03.896306"><ele>-5.4</ele><time>2023-12-06T10:55:43Z</time><name>PT1894</name></trkpt>
<trkpt lat="51.796917" lon="03.896328"><ele>-5.5</ele><time>2023-12-06T10:55:44Z</time><name>PT1895</name></trkpt>
<trkpt lat="51.796922" lon="03.896346"><ele>-5.5</ele><time>2023-12-06T10:55:45Z</time><name>PT1896</name></trkpt>
<trkpt lat="51.796925" lon="03.896365"><ele>-5.6</ele><time>2023-12-06T10:55:46Z</time><name>PT1897</name></trkpt>
<trkpt lat="51.796930" lon="03.896384"><ele>-5.6</ele><time>2023-12-06T10:55:47Z</time><name>PT1898</name></trkpt>
<trkpt lat="51.796935" lon="03.896403"><ele>-5.5</ele><time>2023-12-06T10:55:48Z</time><name>PT1899</name></trkpt>
<trkpt lat="51.796939" lon="03.896423"><ele>-5.4</ele><time>2023-12-06T10:55:49Z</time><name>PT1900</name></trkpt>
<trkpt lat="51.796942" lon="03.896441"><ele>-5.1</ele><time>2023-12-06T10:55:50Z</time><name>PT1901</name></trkpt>
<trkpt lat="51.796945" lon="03.896460"><ele>-5.3</ele><time>2023-12-06T10:55:51Z</time><name>PT1902</name></trkpt>
<trkpt lat="51.796949" lon="03.896477"><ele>-5.3</ele><time>2023-12-06T10:55:52Z</time><name>PT1903</name></trkpt>
<trkpt lat="51.796953" lon="03.896494"><ele>-5.3</ele><time>2023-12-06T10:55:53Z</time><name>PT1904</name></trkpt>
<trkpt lat="51.796956" lon="03.896510"><ele>-5.5</ele><time>2023-12-06T10:55:54Z</time><name>PT1905</name></trkpt>
<trkpt lat="51.796960" lon="03.896529"><ele>-5.6</ele><time>2023-12-06T10:55:55Z</time><name>PT1906</name></trkpt>
<trkpt lat="51.796962" lon="03.896546"><ele>-5.6</ele><time>2023-12-06T10:55:56Z</time><name>PT1907</name></trkpt>
<trkpt lat="51.796966" lon="03.896564"><ele>-5.3</ele><time>2023-12-06T10:55:57Z</time><name>PT1908</name></trkpt>
<trkpt lat="51.796969" lon="03.896580"><ele>-5.5</ele><time>2023-12-06T10:55:58Z</time><name>PT1909</name></trkpt>
<trkpt lat="51.796972" lon="03.896597"><ele>-5.4</ele><time>2023-12-06T10:55:59Z</time><name>PT1910</name></trkpt>
<trkpt lat="51.796975" lon="03.896617"><ele>-5.3</ele><time>2023-12-06T10:56:00Z</time><name>PT1911</name></trkpt>
<trkpt lat="51.796978" lon="03.896638"><ele>-5.1</ele><time>2023-12-06T10:56:01Z</time><name>PT1912</name></trkpt>
<trkpt lat="51.796981" lon="03.896656"><ele>-5.1</ele><time>2023-12-06T10:56:02Z</time><name>PT1913</name></trkpt>
<trkpt lat="51.796983" lon="03.896676"><ele>-5.1</ele><time>2023-12-06T10:56:03Z</time><name>PT1914</name></trkpt>
<trkpt lat="51.796986" lon="03.896694"><ele>-5.1</ele><time>2023-12-06T10:56:04Z</time><name>PT1915</name></trkpt>
<trkpt lat="51.796992" lon="03.896716"><ele>-5.1</ele><time>2023-12-06T10:56:05Z</time><name>PT1916</name></trkpt>
<trkpt lat="51.796996" lon="03.896734"><ele>-5.2</ele><time>2023-12-06T10:56:06Z</time><name>PT1917</name></trkpt>
<trkpt lat="51.797001" lon="03.896753"><ele>-5.1</ele><time>2023-12-06T10:56:07Z</time><name>PT1918</name></trkpt>
<trkpt lat="51.797005" lon="03.896769"><ele>-5.2</ele><time>2023-12-06T10:56:08Z</time><name>PT1919</name></trkpt>
<trkpt lat="51.797008" lon="03.896786"><ele>-5.3</ele><time>2023-12-06T10:56:09Z</time><name>PT1920</name></trkpt>
<trkpt lat="51.797012" lon="03.896806"><ele>-5.2</ele><time>2023-12-06T10:56:10Z</time><name>PT1921</name></trkpt>
<trkpt lat="51.797017" lon="03.896825"><ele>-5.2</ele><time>2023-12-06T10:56:11Z</time><name>PT1922</name></trkpt>
<trkpt lat="51.797021" lon="03.896844"><ele>-5.2</ele><time>2023-12-06T10:56:12Z</time><name>PT1923</name></trkpt>
<trkpt lat="51.797024" lon="03.896861"><ele>-5.3</ele><time>2023-12-06T10:56:13Z</time><name>PT1924</name></trkpt>
<trkpt lat="51.797026" lon="03.896879"><ele>-5.3</ele><time>2023-12-06T10:56:14Z</time><name>PT1925</name></trkpt>
<trkpt lat="51.797029" lon="03.896897"><ele>-5.4</ele><time>2023-12-06T10:56:15Z</time><name>PT1926</name></trkpt>
<trkpt lat="51.797034" lon="03.896915"><ele>-5.5</ele><time>2023-12-06T10:56:16Z</time><name>PT1927</name></trkpt>
<trkpt lat="51.797039" lon="03.896932"><ele>-5.4</ele><time>2023-12-06T10:56:17Z</time><name>PT1928</name></trkpt>
<trkpt lat="51.797043" lon="03.896950"><ele>-5.4</ele><time>2023-12-06T10:56:18Z</time><name>PT1929</name></trkpt>
<trkpt lat="51.797048" lon="03.896969"><ele>-5.4</ele><time>2023-12-06T10:56:19Z</time><name>PT1930</name></trkpt>
<trkpt lat="51.797051" lon="03.896989"><ele>-5.3</ele><time>2023-12-06T10:56:20Z</time><name>PT1931</name></trkpt>
<trkpt lat="51.797057" lon="03.897006"><ele>-5.2</ele><time>2023-12-06T10:56:21Z</time><name>PT1932</name></trkpt>
<trkpt lat="51.797062" lon="03.897025"><ele>-5.2</ele><time>2023-12-06T10:56:22Z</time><name>PT1933</name></trkpt>
<trkpt lat="51.797066" lon="03.897044"><ele>-5.1</ele><time>2023-12-06T10:56:23Z</time><name>PT1934</name></trkpt>
<trkpt lat="51.797071" lon="03.897065"><ele>-5.3</ele><time>2023-12-06T10:56:24Z</time><name>PT1935</name></trkpt>
<trkpt lat="51.797076" lon="03.897084"><ele>-5.5</ele><time>2023-12-06T10:56:25Z</time><name>PT1936</name></trkpt>
<trkpt lat="51.797082" lon="03.897101"><ele>-5.7</ele><time>2023-12-06T10:56:26Z</time><name>PT1937</name></trkpt>
<trkpt lat="51.797088" lon="03.897116"><ele>-5.8</ele><time>2023-12-06T10:56:27Z</time><name>PT1938</name></trkpt>
<trkpt lat="51.797093" lon="03.897133"><ele>-5.7</ele><time>2023-12-06T10:56:28Z</time><name>PT1939</name></trkpt>
<trkpt lat="51.797098" lon="03.897150"><ele>-5.6</ele><time>2023-12-06T10:56:29Z</time><name>PT1940</name></trkpt>
<trkpt lat="51.797104" lon="03.897165"><ele>-5.5</ele><time>2023-12-06T10:56:30Z</time><name>PT1941</name></trkpt>
<trkpt lat="51.797110" lon="03.897178"><ele>-5.3</ele><time>2023-12-06T10:56:31Z</time><name>PT1942</name></trkpt>
<trkpt lat="51.797115" lon="03.897190"><ele>-5.4</ele><time>2023-12-06T10:56:32Z</time><name>PT1943</name></trkpt>
<trkpt lat="51.797121" lon="03.897208"><ele>-5.3</ele><time>2023-12-06T10:56:33Z</time><name>PT1944</name></trkpt>
<trkpt lat="51.797126" lon="03.897221"><ele>-5.3</ele><time>2023-12-06T10:56:34Z</time><name>PT1945</name></trkpt>
<trkpt lat="51.797130" lon="03.897238"><ele>-5.2</ele><time>2023-12-06T10:56:35Z</time><name>PT1946</name></trkpt>
<trkpt lat="51.797134" lon="03.897254"><ele>-5.1</ele><time>2023-12-06T10:56:36Z</time><name>PT1947</name></trkpt>
<trkpt lat="51.797138" lon="03.897270"><ele>-5.1</ele><time>2023-12-06T10:56:37Z</time><name>PT1948</name></trkpt>
<trkpt lat="51.797142" lon="03.897284"><ele>-5.1</ele><time>2023-12-06T10:56:38Z</time><name>PT1949</name></trkpt>
<trkpt lat="51.797147" lon="03.897298"><ele>-5.1</ele><time>2023-12-06T10:56:39Z</time><name>PT1950</name></trkpt>
<trkpt lat="51.797152" lon="03.897313"><ele>-5.2</ele><time>2023-12-06T10:56:40Z</time><name>PT1951</name></trkpt>
<trkpt lat="51.797156" lon="03.897333"><ele>-5.2</ele><time>2023-12-06T10:56:41Z</time><name>PT1952</name></trkpt>
<trkpt lat="51.797163" lon="03.897344"><ele>-5.3</ele><time>2023-12-06T10:56:42Z</time><name>PT1953</name></trkpt>
<trkpt lat="51.797169" lon="03.897359"><ele>-5.3</ele><time>2023-12-06T10:56:43Z</time><name>PT1954</name></trkpt>
<trkpt lat="51.797174" lon="03.897374"><ele>-5.4</ele><time>2023-12-06T10:56:44Z</time><name>PT1955</name></trkpt>
<trkpt lat="51.797179" lon="03.897389"><ele>-5.4</ele><time>2023-12-06T10:56:45Z</time><name>PT1956</name></trkpt>
<trkpt lat="51.797184" lon="03.897409"><ele>-5.4</ele><time>2023-12-06T10:56:46Z</time><name>PT1957</name></trkpt>
<trkpt lat="51.797188" lon="03.897427"><ele>-5.4</ele><time>2023-12-06T10:56:47Z</time><name>PT1958</name></trkpt>
<trkpt lat="51.797192" lon="03.897445"><ele>-5.3</ele><time>2023-12-06T10:56:48Z</time><name>PT1959</name></trkpt>
<trkpt lat="51.797195" lon="03.897464"><ele>-5.2</ele><time>2023-12-06T10:56:49Z</time><name>PT1960</name></trkpt>
<trkpt lat="51.797200" lon="03.897479"><ele>-5.2</ele><time>2023-12-06T10:56:50Z</time><name>PT1961</name></trkpt>
<trkpt lat="51.797203" lon="03.897496"><ele>-5.1</ele><time>2023-12-06T10:56:51Z</time><name>PT1962</name></trkpt>
<trkpt lat="51.797208" lon="03.897514"><ele>-5.1</ele><time>2023-12-06T10:56:52Z</time><name>PT1963</name></trkpt>
<trkpt lat="51.797210" lon="03.897529"><ele>-5.1</ele><time>2023-12-06T10:56:53Z</time><name>PT1964</name></trkpt>
<trkpt lat="51.797213" lon="03.897545"><ele>-5</ele><time>2023-12-06T10:56:54Z</time><name>PT1965</name></trkpt>
<trkpt lat="51.797217" lon="03.897563"><ele>-5.1</ele><time>2023-12-06T10:56:55Z</time><name>PT1966</name></trkpt>
<trkpt lat="51.797222" lon="03.897583"><ele>-5.1</ele><time>2023-12-06T10:56:56Z</time><name>PT1967</name></trkpt>
<trkpt lat="51.797226" lon="03.897600"><ele>-5.1</ele><time>2023-12-06T10:56:57Z</time><name>PT1968</name></trkpt>
<trkpt lat="51.797233" lon="03.897618"><ele>-5.2</ele><time>2023-12-06T10:56:58Z</time><name>PT1969</name></trkpt>
<trkpt lat="51.797239" lon="03.897637"><ele>-5.3</ele><time>2023-12-06T10:56:59Z</time><name>PT1970</name></trkpt>
<trkpt lat="51.797246" lon="03.897652"><ele>-5.2</ele><time>2023-12-06T10:57:00Z</time><name>PT1971</name></trkpt>
<trkpt lat="51.797252" lon="03.897666"><ele>-5.2</ele><time>2023-12-06T10:57:01Z</time><name>PT1972</name></trkpt>
<trkpt lat="51.797257" lon="03.897682"><ele>-5.3</ele><time>2023-12-06T10:57:02Z</time><name>PT1973</name></trkpt>
<trkpt lat="51.797266" lon="03.897698"><ele>-5.3</ele><time>2023-12-06T10:57:03Z</time><name>PT1974</name></trkpt>
<trkpt lat="51.797272" lon="03.897715"><ele>-5.3</ele><time>2023-12-06T10:57:04Z</time><name>PT1975</name></trkpt>
<trkpt lat="51.797274" lon="03.897733"><ele>-5.5</ele><time>2023-12-06T10:57:05Z</time><name>PT1976</name></trkpt>
<trkpt lat="51.797278" lon="03.897750"><ele>-5.4</ele><time>2023-12-06T10:57:06Z</time><name>PT1977</name></trkpt>
<trkpt lat="51.797284" lon="03.897771"><ele>-5.4</ele><time>2023-12-06T10:57:07Z</time><name>PT1978</name></trkpt>
<trkpt lat="51.797290" lon="03.897791"><ele>-5.4</ele><time>2023-12-06T10:57:08Z</time><name>PT1979</name></trkpt>
<trkpt lat="51.797296" lon="03.897809"><ele>-5.4</ele><time>2023-12-06T10:57:09Z</time><name>PT1980</name></trkpt>
<trkpt lat="51.797300" lon="03.897826"><ele>-5.4</ele><time>2023-12-06T10:57:10Z</time><name>PT1981</name></trkpt>
<trkpt lat="51.797310" lon="03.897841"><ele>-5.4</ele><time>2023-12-06T10:57:11Z</time><name>PT1982</name></trkpt>
<trkpt lat="51.797318" lon="03.897853"><ele>-5.3</ele><time>2023-12-06T10:57:12Z</time><name>PT1983</name></trkpt>
<trkpt lat="51.797324" lon="03.897867"><ele>-5.2</ele><time>2023-12-06T10:57:13Z</time><name>PT1984</name></trkpt>
<trkpt lat="51.797331" lon="03.897879"><ele>-5.2</ele><time>2023-12-06T10:57:14Z</time><name>PT1985</name></trkpt>
<trkpt lat="51.797339" lon="03.897893"><ele>-5.3</ele><time>2023-12-06T10:57:15Z</time><name>PT1986</name></trkpt>
<trkpt lat="51.797346" lon="03.897907"><ele>-5.6</ele><time>2023-12-06T10:57:16Z</time><name>PT1987</name></trkpt>
<trkpt lat="51.797352" lon="03.897926"><ele>-5.6</ele><time>2023-12-06T10:57:17Z</time><name>PT1988</name></trkpt>
<trkpt lat="51.797358" lon="03.897945"><ele>-5.8</ele><time>2023-12-06T10:57:18Z</time><name>PT1989</name></trkpt>
<trkpt lat="51.797362" lon="03.897963"><ele>-5.7</ele><time>2023-12-06T10:57:19Z</time><name>PT1990</name></trkpt>
<trkpt lat="51.797366" lon="03.897983"><ele>-5.6</ele><time>2023-12-06T10:57:20Z</time><name>PT1991</name></trkpt>
<trkpt lat="51.797371" lon="03.897997"><ele>-5.6</ele><time>2023-12-06T10:57:21Z</time><name>PT1992</name></trkpt>
<trkpt lat="51.797377" lon="03.898015"><ele>-5.6</ele><time>2023-12-06T10:57:22Z</time><name>PT1993</name></trkpt>
<trkpt lat="51.797384" lon="03.898035"><ele>-5.6</ele><time>2023-12-06T10:57:23Z</time><name>PT1994</name></trkpt>
<trkpt lat="51.797389" lon="03.898049"><ele>-5.6</ele><time>2023-12-06T10:57:24Z</time><name>PT1995</name></trkpt>
<trkpt lat="51.797394" lon="03.898062"><ele>-5.7</ele><time>2023-12-06T10:57:25Z</time><name>PT1996</name></trkpt>
<trkpt lat="51.797399" lon="03.898080"><ele>-5.7</ele><time>2023-12-06T10:57:26Z</time><name>PT1997</name></trkpt>
<trkpt lat="51.797405" lon="03.898098"><ele>-5.6</ele><time>2023-12-06T10:57:27Z</time><name>PT1998</name></trkpt>
<trkpt lat="51.797412" lon="03.898119"><ele>-5.6</ele><time>2023-12-06T10:57:28Z</time><name>PT1999</name></trkpt>
<trkpt lat="51.797418" lon="03.898139"><ele>-5.6</ele><time>2023-12-06T10:57:29Z</time><name>PT2000</name></trkpt>
<trkpt lat="51.797423" lon="03.898157"><ele>-5.5</ele><time>2023-12-06T10:57:30Z</time><name>PT2001</name></trkpt>
<trkpt lat="51.797428" lon="03.898175"><ele>-5.5</ele><time>2023-12-06T10:57:31Z</time><name>PT2002</name></trkpt>
<trkpt lat="51.797433" lon="03.898189"><ele>-5.5</ele><time>2023-12-06T10:57:32Z</time><name>PT2003</name></trkpt>
<trkpt lat="51.797438" lon="03.898205"><ele>-5.4</ele><time>2023-12-06T10:57:33Z</time><name>PT2004</name></trkpt>
<trkpt lat="51.797443" lon="03.898224"><ele>-5.4</ele><time>2023-12-06T10:57:34Z</time><name>PT2005</name></trkpt>
<trkpt lat="51.797450" lon="03.898241"><ele>-5.4</ele><time>2023-12-06T10:57:35Z</time><name>PT2006</name></trkpt>
<trkpt lat="51.797457" lon="03.898257"><ele>-5.3</ele><time>2023-12-06T10:57:36Z</time><name>PT2007</name></trkpt>
<trkpt lat="51.797463" lon="03.898273"><ele>-5.4</ele><time>2023-12-06T10:57:37Z</time><name>PT2008</name></trkpt>
<trkpt lat="51.797467" lon="03.898290"><ele>-5.4</ele><time>2023-12-06T10:57:38Z</time><name>PT2009</name></trkpt>
<trkpt lat="51.797470" lon="03.898304"><ele>-5.5</ele><time>2023-12-06T10:57:39Z</time><name>PT2010</name></trkpt>
<trkpt lat="51.797475" lon="03.898320"><ele>-5.6</ele><time>2023-12-06T10:57:40Z</time><name>PT2011</name></trkpt>
<trkpt lat="51.797479" lon="03.898337"><ele>-5.6</ele><time>2023-12-06T10:57:41Z</time><name>PT2012</name></trkpt>
<trkpt lat="51.797483" lon="03.898355"><ele>-5.5</ele><time>2023-12-06T10:57:42Z</time><name>PT2013</name></trkpt>
<trkpt lat="51.797486" lon="03.898377"><ele>-5.6</ele><time>2023-12-06T10:57:43Z</time><name>PT2014</name></trkpt>
<trkpt lat="51.797490" lon="03.898393"><ele>-5.6</ele><time>2023-12-06T10:57:44Z</time><name>PT2015</name></trkpt>
<trkpt lat="51.797496" lon="03.898411"><ele>-5.6</ele><time>2023-12-06T10:57:45Z</time><name>PT2016</name></trkpt>
<trkpt lat="51.797500" lon="03.898431"><ele>-5.6</ele><time>2023-12-06T10:57:46Z</time><name>PT2017</name></trkpt>
<trkpt lat="51.797504" lon="03.898450"><ele>-5.6</ele><time>2023-12-06T10:57:47Z</time><name>PT2018</name></trkpt>
<trkpt lat="51.797508" lon="03.898470"><ele>-5.5</ele><time>2023-12-06T10:57:48Z</time><name>PT2019</name></trkpt>
<trkpt lat="51.797511" lon="03.898492"><ele>-5.5</ele><time>2023-12-06T10:57:49Z</time><name>PT2020</name></trkpt>
<trkpt lat="51.797513" lon="03.898512"><ele>-5.6</ele><time>2023-12-06T10:57:50Z</time><name>PT2021</name></trkpt>
<trkpt lat="51.797515" lon="03.898533"><ele>-5.6</ele><time>2023-12-06T10:57:51Z</time><name>PT2022</name></trkpt>
<trkpt lat="51.797516" lon="03.898551"><ele>-5.6</ele><time>2023-12-06T10:57:52Z</time><name>PT2023</name></trkpt>
<trkpt lat="51.797517" lon="03.898568"><ele>-5.6</ele><time>2023-12-06T10:57:53Z</time><name>PT2024</name></trkpt>
<trkpt lat="51.797518" lon="03.898589"><ele>-5.5</ele><time>2023-12-06T10:57:54Z</time><name>PT2025</name></trkpt>
<trkpt lat="51.797519" lon="03.898608"><ele>-5.6</ele><time>2023-12-06T10:57:55Z</time><name>PT2026</name></trkpt>
<trkpt lat="51.797521" lon="03.898627"><ele>-5.5</ele><time>2023-12-06T10:57:56Z</time><name>PT2027</name></trkpt>
<trkpt lat="51.797524" lon="03.898646"><ele>-5.5</ele><time>2023-12-06T10:57:57Z</time><name>PT2028</name></trkpt>
<trkpt lat="51.797525" lon="03.898665"><ele>-5.6</ele><time>2023-12-06T10:57:58Z</time><name>PT2029</name></trkpt>
<trkpt lat="51.797526" lon="03.898683"><ele>-5.5</ele><time>2023-12-06T10:57:59Z</time><name>PT2030</name></trkpt>
<trkpt lat="51.797526" lon="03.898700"><ele>-5.6</ele><time>2023-12-06T10:58:00Z</time><name>PT2031</name></trkpt>
<trkpt lat="51.797527" lon="03.898717"><ele>-5.6</ele><time>2023-12-06T10:58:01Z</time><name>PT2032</name></trkpt>
<trkpt lat="51.797527" lon="03.898735"><ele>-5.7</ele><time>2023-12-06T10:58:02Z</time><name>PT2033</name></trkpt>
<trkpt lat="51.797529" lon="03.898750"><ele>-5.8</ele><time>2023-12-06T10:58:03Z</time><name>PT2034</name></trkpt>
<trkpt lat="51.797530" lon="03.898765"><ele>-5.8</ele><time>2023-12-06T10:58:04Z</time><name>PT2035</name></trkpt>
<trkpt lat="51.797532" lon="03.898781"><ele>-5.6</ele><time>2023-12-06T10:58:05Z</time><name>PT2036</name></trkpt>
<trkpt lat="51.797535" lon="03.898797"><ele>-5.7</ele><time>2023-12-06T10:58:06Z</time><name>PT2037</name></trkpt>
<trkpt lat="51.797537" lon="03.898809"><ele>-5.6</ele><time>2023-12-06T10:58:07Z</time><name>PT2038</name></trkpt>
<trkpt lat="51.797537" lon="03.898824"><ele>-5.6</ele><time>2023-12-06T10:58:08Z</time><name>PT2039</name></trkpt>
<trkpt lat="51.797537" lon="03.898841"><ele>-5.4</ele><time>2023-12-06T10:58:09Z</time><name>PT2040</name></trkpt>
<trkpt lat="51.797539" lon="03.898855"><ele>-5.5</ele><time>2023-12-06T10:58:10Z</time><name>PT2041</name></trkpt>
<trkpt lat="51.797545" lon="03.898874"><ele>-5.5</ele><time>2023-12-06T10:58:11Z</time><name>PT2042</name></trkpt>
<trkpt lat="51.797546" lon="03.898889"><ele>-5.5</ele><time>2023-12-06T10:58:12Z</time><name>PT2043</name></trkpt>
<trkpt lat="51.797548" lon="03.898906"><ele>-5.5</ele><time>2023-12-06T10:58:13Z</time><name>PT2044</name></trkpt>
<trkpt lat="51.797548" lon="03.898929"><ele>-5.6</ele><time>2023-12-06T10:58:14Z</time><name>PT2045</name></trkpt>
<trkpt lat="51.797549" lon="03.898948"><ele>-5.7</ele><time>2023-12-06T10:58:15Z</time><name>PT2046</name></trkpt>
<trkpt lat="51.797550" lon="03.898968"><ele>-5.7</ele><time>2023-12-06T10:58:16Z</time><name>PT2047</name></trkpt>
<trkpt lat="51.797552" lon="03.898985"><ele>-5.8</ele><time>2023-12-06T10:58:17Z</time><name>PT2048</name></trkpt>
<trkpt lat="51.797552" lon="03.899004"><ele>-6</ele><time>2023-12-06T10:58:18Z</time><name>PT2049</name></trkpt>
<trkpt lat="51.797551" lon="03.899024"><ele>-5.9</ele><time>2023-12-06T10:58:19Z</time><name>PT2050</name></trkpt>
<trkpt lat="51.797550" lon="03.899029"><ele>-5.7</ele><time>2023-12-06T10:58:20Z</time><name>PT2051</name></trkpt>
<trkpt lat="51.797550" lon="03.899038"><ele>-5.7</ele><time>2023-12-06T10:58:21Z</time><name>PT2052</name></trkpt>
<trkpt lat="51.797548" lon="03.899040"><ele>-5.6</ele><time>2023-12-06T10:58:22Z</time><name>PT2053</name></trkpt>
<trkpt lat="51.797552" lon="03.899049"><ele>-5.9</ele><time>2023-12-06T10:58:25Z</time><name>PT2054</name></trkpt>
<trkpt lat="51.797547" lon="03.899060"><ele>-5.9</ele><time>2023-12-06T10:58:26Z</time><name>PT2055</name></trkpt>
<trkpt lat="51.797556" lon="03.899073"><ele>-5.9</ele><time>2023-12-06T10:58:27Z</time><name>PT2056</name></trkpt>
<trkpt lat="51.797555" lon="03.899092"><ele>-6</ele><time>2023-12-06T10:58:28Z</time><name>PT2057</name></trkpt>
<trkpt lat="51.797552" lon="03.899109"><ele>-5.9</ele><time>2023-12-06T10:58:29Z</time><name>PT2058</name></trkpt>
<trkpt lat="51.797550" lon="03.899120"><ele>-5.7</ele><time>2023-12-06T10:58:30Z</time><name>PT2059</name></trkpt>
<trkpt lat="51.797550" lon="03.899133"><ele>-5.8</ele><time>2023-12-06T10:58:31Z</time><name>PT2060</name></trkpt>
<trkpt lat="51.797549" lon="03.899147"><ele>-5.9</ele><time>2023-12-06T10:58:32Z</time><name>PT2061</name></trkpt>
<trkpt lat="51.797550" lon="03.899165"><ele>-6</ele><time>2023-12-06T10:58:33Z</time><name>PT2062</name></trkpt>
<trkpt lat="51.797550" lon="03.899180"><ele>-6</ele><time>2023-12-06T10:58:34Z</time><name>PT2063</name></trkpt>
<trkpt lat="51.797552" lon="03.899195"><ele>-6</ele><time>2023-12-06T10:58:35Z</time><name>PT2064</name></trkpt>
<trkpt lat="51.797554" lon="03.899210"><ele>-6</ele><time>2023-12-06T10:58:36Z</time><name>PT2065</name></trkpt>
<trkpt lat="51.797557" lon="03.899226"><ele>-6</ele><time>2023-12-06T10:58:37Z</time><name>PT2066</name></trkpt>
<trkpt lat="51.797560" lon="03.899239"><ele>-6.1</ele><time>2023-12-06T10:58:38Z</time><name>PT2067</name></trkpt>
<trkpt lat="51.797563" lon="03.899251"><ele>-6.2</ele><time>2023-12-06T10:58:39Z</time><name>PT2068</name></trkpt>
<trkpt lat="51.797565" lon="03.899266"><ele>-6.3</ele><time>2023-12-06T10:58:40Z</time><name>PT2069</name></trkpt>
<trkpt lat="51.797567" lon="03.899283"><ele>-6.2</ele><time>2023-12-06T10:58:41Z</time><name>PT2070</name></trkpt>
<trkpt lat="51.797570" lon="03.899297"><ele>-6.2</ele><time>2023-12-06T10:58:42Z</time><name>PT2071</name></trkpt>
<trkpt lat="51.797574" lon="03.899311"><ele>-6.2</ele><time>2023-12-06T10:58:43Z</time><name>PT2072</name></trkpt>
<trkpt lat="51.797575" lon="03.899325"><ele>-6.2</ele><time>2023-12-06T10:58:44Z</time><name>PT2073</name></trkpt>
<trkpt lat="51.797578" lon="03.899338"><ele>-6</ele><time>2023-12-06T10:58:45Z</time><name>PT2074</name></trkpt>
<trkpt lat="51.797582" lon="03.899348"><ele>-6.1</ele><time>2023-12-06T10:58:46Z</time><name>PT2075</name></trkpt>
<trkpt lat="51.797585" lon="03.899360"><ele>-6.1</ele><time>2023-12-06T10:58:47Z</time><name>PT2076</name></trkpt>
<trkpt lat="51.797587" lon="03.899373"><ele>-6.1</ele><time>2023-12-06T10:58:48Z</time><name>PT2077</name></trkpt>
<trkpt lat="51.797591" lon="03.899385"><ele>-6.1</ele><time>2023-12-06T10:58:49Z</time><name>PT2078</name></trkpt>
<trkpt lat="51.797596" lon="03.899397"><ele>-6.2</ele><time>2023-12-06T10:58:50Z</time><name>PT2079</name></trkpt>
<trkpt lat="51.797597" lon="03.899411"><ele>-6.2</ele><time>2023-12-06T10:58:51Z</time><name>PT2080</name></trkpt>
<trkpt lat="51.797598" lon="03.899425"><ele>-6.1</ele><time>2023-12-06T10:58:52Z</time><name>PT2081</name></trkpt>
<trkpt lat="51.797600" lon="03.899438"><ele>-6.1</ele><time>2023-12-06T10:58:53Z</time><name>PT2082</name></trkpt>
<trkpt lat="51.797602" lon="03.899449"><ele>-6.1</ele><time>2023-12-06T10:58:54Z</time><name>PT2083</name></trkpt>
<trkpt lat="51.797603" lon="03.899468"><ele>-6.2</ele><time>2023-12-06T10:58:55Z</time><name>PT2084</name></trkpt>
<trkpt lat="51.797603" lon="03.899483"><ele>-6.2</ele><time>2023-12-06T10:58:56Z</time><name>PT2085</name></trkpt>
<trkpt lat="51.797604" lon="03.899497"><ele>-6.4</ele><time>2023-12-06T10:58:57Z</time><name>PT2086</name></trkpt>
<trkpt lat="51.797604" lon="03.899515"><ele>-6.5</ele><time>2023-12-06T10:58:58Z</time><name>PT2087</name></trkpt>
<trkpt lat="51.797606" lon="03.899530"><ele>-6.4</ele><time>2023-12-06T10:58:59Z</time><name>PT2088</name></trkpt>
<trkpt lat="51.797605" lon="03.899540"><ele>-6.3</ele><time>2023-12-06T10:59:00Z</time><name>PT2089</name></trkpt>
<trkpt lat="51.797603" lon="03.899539"><ele>-6.4</ele><time>2023-12-06T10:59:01Z</time><name>PT2090</name></trkpt>
<trkpt lat="51.797599" lon="03.899542"><ele>-6.4</ele><time>2023-12-06T10:59:02Z</time><name>PT2091</name></trkpt>
<trkpt lat="51.797599" lon="03.899551"><ele>-6.3</ele><time>2023-12-06T10:59:03Z</time><name>PT2092</name></trkpt>
<trkpt lat="51.797598" lon="03.899549"><ele>-6.5</ele><time>2023-12-06T10:59:08Z</time><name>PT2093</name></trkpt>
<trkpt lat="51.797599" lon="03.899553"><ele>-6.4</ele><time>2023-12-06T10:59:09Z</time><name>PT2094</name></trkpt>
<trkpt lat="51.797603" lon="03.899559"><ele>-6.5</ele><time>2023-12-06T10:59:10Z</time><name>PT2095</name></trkpt>
<trkpt lat="51.797606" lon="03.899566"><ele>-6.5</ele><time>2023-12-06T10:59:11Z</time><name>PT2096</name></trkpt>
<trkpt lat="51.797611" lon="03.899575"><ele>-6.4</ele><time>2023-12-06T10:59:12Z</time><name>PT2097</name></trkpt>
<trkpt lat="51.797616" lon="03.899584"><ele>-6.4</ele><time>2023-12-06T10:59:13Z</time><name>PT2098</name></trkpt>
<trkpt lat="51.797618" lon="03.899594"><ele>-6.5</ele><time>2023-12-06T10:59:14Z</time><name>PT2099</name></trkpt>
<trkpt lat="51.797624" lon="03.899603"><ele>-6.5</ele><time>2023-12-06T10:59:15Z</time><name>PT2100</name></trkpt>
<trkpt lat="51.797628" lon="03.899611"><ele>-6.6</ele><time>2023-12-06T10:59:16Z</time><name>PT2101</name></trkpt>
<trkpt lat="51.797630" lon="03.899618"><ele>-6.8</ele><time>2023-12-06T10:59:17Z</time><name>PT2102</name></trkpt>
<trkpt lat="51.797632" lon="03.899628"><ele>-6.8</ele><time>2023-12-06T10:59:18Z</time><name>PT2103</name></trkpt>
<trkpt lat="51.797635" lon="03.899637"><ele>-6.7</ele><time>2023-12-06T10:59:19Z</time><name>PT2104</name></trkpt>
<trkpt lat="51.797638" lon="03.899645"><ele>-6.6</ele><time>2023-12-06T10:59:20Z</time><name>PT2105</name></trkpt>
<trkpt lat="51.797639" lon="03.899658"><ele>-6.5</ele><time>2023-12-06T10:59:21Z</time><name>PT2106</name></trkpt>
<trkpt lat="51.797642" lon="03.899667"><ele>-6.5</ele><time>2023-12-06T10:59:22Z</time><name>PT2107</name></trkpt>
<trkpt lat="51.797644" lon="03.899675"><ele>-6.5</ele><time>2023-12-06T10:59:23Z</time><name>PT2108</name></trkpt>
<trkpt lat="51.797646" lon="03.899685"><ele>-6.5</ele><time>2023-12-06T10:59:24Z</time><name>PT2109</name></trkpt>
<trkpt lat="51.797650" lon="03.899693"><ele>-6.5</ele><time>2023-12-06T10:59:25Z</time><name>PT2110</name></trkpt>
<trkpt lat="51.797654" lon="03.899703"><ele>-6.5</ele><time>2023-12-06T10:59:26Z</time><name>PT2111</name></trkpt>
<trkpt lat="51.797658" lon="03.899710"><ele>-6.5</ele><time>2023-12-06T10:59:27Z</time><name>PT2112</name></trkpt>
<trkpt lat="51.797660" lon="03.899721"><ele>-6.5</ele><time>2023-12-06T10:59:28Z</time><name>PT2113</name></trkpt>
<trkpt lat="51.797662" lon="03.899732"><ele>-6.5</ele><time>2023-12-06T10:59:29Z</time><name>PT2114</name></trkpt>
<trkpt lat="51.797665" lon="03.899741"><ele>-6.7</ele><time>2023-12-06T10:59:30Z</time><name>PT2115</name></trkpt>
<trkpt lat="51.797669" lon="03.899751"><ele>-6.6</ele><time>2023-12-06T10:59:31Z</time><name>PT2116</name></trkpt>
<trkpt lat="51.797672" lon="03.899762"><ele>-6.5</ele><time>2023-12-06T10:59:32Z</time><name>PT2117</name></trkpt>
<trkpt lat="51.797674" lon="03.899772"><ele>-6.5</ele><time>2023-12-06T10:59:33Z</time><name>PT2118</name></trkpt>
<trkpt lat="51.797676" lon="03.899782"><ele>-6.5</ele><time>2023-12-06T10:59:34Z</time><name>PT2119</name></trkpt>
<trkpt lat="51.797679" lon="03.899794"><ele>-6.5</ele><time>2023-12-06T10:59:35Z</time><name>PT2120</name></trkpt>
<trkpt lat="51.797682" lon="03.899804"><ele>-6.4</ele><time>2023-12-06T10:59:36Z</time><name>PT2121</name></trkpt>
<trkpt lat="51.797687" lon="03.899813"><ele>-6.4</ele><time>2023-12-06T10:59:37Z</time><name>PT2122</name></trkpt>
<trkpt lat="51.797690" lon="03.899823"><ele>-6.4</ele><time>2023-12-06T10:59:38Z</time><name>PT2123</name></trkpt>
<trkpt lat="51.797692" lon="03.899832"><ele>-6.4</ele><time>2023-12-06T10:59:39Z</time><name>PT2124</name></trkpt>
<trkpt lat="51.797696" lon="03.899841"><ele>-6.4</ele><time>2023-12-06T10:59:40Z</time><name>PT2125</name></trkpt>
<trkpt lat="51.797697" lon="03.899857"><ele>-6.5</ele><time>2023-12-06T10:59:41Z</time><name>PT2126</name></trkpt>
<trkpt lat="51.797699" lon="03.899866"><ele>-6.5</ele><time>2023-12-06T10:59:42Z</time><name>PT2127</name></trkpt>
<trkpt lat="51.797703" lon="03.899874"><ele>-6.5</ele><time>2023-12-06T10:59:43Z</time><name>PT2128</name></trkpt>
<trkpt lat="51.797705" lon="03.899887"><ele>-6.5</ele><time>2023-12-06T10:59:44Z</time><name>PT2129</name></trkpt>
<trkpt lat="51.797709" lon="03.899897"><ele>-6.5</ele><time>2023-12-06T10:59:45Z</time><name>PT2130</name></trkpt>
<trkpt lat="51.797713" lon="03.899910"><ele>-6.5</ele><time>2023-12-06T10:59:46Z</time><name>PT2131</name></trkpt>
<trkpt lat="51.797714" lon="03.899925"><ele>-6.5</ele><time>2023-12-06T10:59:47Z</time><name>PT2132</name></trkpt>
<trkpt lat="51.797717" lon="03.899941"><ele>-6.5</ele><time>2023-12-06T10:59:48Z</time><name>PT2133</name></trkpt>
<trkpt lat="51.797721" lon="03.899953"><ele>-6.6</ele><time>2023-12-06T10:59:49Z</time><name>PT2134</name></trkpt>
<trkpt lat="51.797724" lon="03.899967"><ele>-6.6</ele><time>2023-12-06T10:59:50Z</time><name>PT2135</name></trkpt>
<trkpt lat="51.797726" lon="03.899982"><ele>-6.7</ele><time>2023-12-06T10:59:51Z</time><name>PT2136</name></trkpt>
<trkpt lat="51.797728" lon="03.899998"><ele>-6.6</ele><time>2023-12-06T10:59:52Z</time><name>PT2137</name></trkpt>
<trkpt lat="51.797731" lon="03.900011"><ele>-6.6</ele><time>2023-12-06T10:59:53Z</time><name>PT2138</name></trkpt>
<trkpt lat="51.797735" lon="03.900022"><ele>-6.7</ele><time>2023-12-06T10:59:54Z</time><name>PT2139</name></trkpt>
<trkpt lat="51.797738" lon="03.900033"><ele>-6.7</ele><time>2023-12-06T10:59:55Z</time><name>PT2140</name></trkpt>
<trkpt lat="51.797740" lon="03.900046"><ele>-6.8</ele><time>2023-12-06T10:59:56Z</time><name>PT2141</name></trkpt>
<trkpt lat="51.797746" lon="03.900057"><ele>-6.9</ele><time>2023-12-06T10:59:57Z</time><name>PT2142</name></trkpt>
<trkpt lat="51.797750" lon="03.900067"><ele>-6.9</ele><time>2023-12-06T10:59:58Z</time><name>PT2143</name></trkpt>
<trkpt lat="51.797753" lon="03.900077"><ele>-6.9</ele><time>2023-12-06T10:59:59Z</time><name>PT2144</name></trkpt>
<trkpt lat="51.797756" lon="03.900088"><ele>-6.9</ele><time>2023-12-06T11:00:00Z</time><name>PT2145</name></trkpt>
<trkpt lat="51.797759" lon="03.900101"><ele>-6.8</ele><time>2023-12-06T11:00:01Z</time><name>PT2146</name></trkpt>
<trkpt lat="51.797764" lon="03.900113"><ele>-6.7</ele><time>2023-12-06T11:00:02Z</time><name>PT2147</name></trkpt>
<trkpt lat="51.797768" lon="03.900123"><ele>-6.6</ele><time>2023-12-06T11:00:03Z</time><name>PT2148</name></trkpt>
<trkpt lat="51.797771" lon="03.900132"><ele>-6.8</ele><time>2023-12-06T11:00:04Z</time><name>PT2149</name></trkpt>
<trkpt lat="51.797775" lon="03.900139"><ele>-6.8</ele><time>2023-12-06T11:00:05Z</time><name>PT2150</name></trkpt>
<trkpt lat="51.797778" lon="03.900150"><ele>-6.9</ele><time>2023-12-06T11:00:06Z</time><name>PT2151</name></trkpt>
<trkpt lat="51.797782" lon="03.900161"><ele>-6.8</ele><time>2023-12-06T11:00:07Z</time><name>PT2152</name></trkpt>
<trkpt lat="51.797787" lon="03.900171"><ele>-6.9</ele><time>2023-12-06T11:00:08Z</time><name>PT2153</name></trkpt>
<trkpt lat="51.797790" lon="03.900182"><ele>-6.8</ele><time>2023-12-06T11:00:09Z</time><name>PT2154</name></trkpt>
<trkpt lat="51.797792" lon="03.900194"><ele>-6.9</ele><time>2023-12-06T11:00:10Z</time><name>PT2155</name></trkpt>
<trkpt lat="51.797796" lon="03.900204"><ele>-6.8</ele><time>2023-12-06T11:00:11Z</time><name>PT2156</name></trkpt>
<trkpt lat="51.797796" lon="03.900215"><ele>-6.9</ele><time>2023-12-06T11:00:12Z</time><name>PT2157</name></trkpt>
<trkpt lat="51.797795" lon="03.900218"><ele>-6.9</ele><time>2023-12-06T11:00:13Z</time><name>PT2158</name></trkpt>
<trkpt lat="51.797793" lon="03.900222"><ele>-7</ele><time>2023-12-06T11:00:14Z</time><name>PT2159</name></trkpt>
<trkpt lat="51.797793" lon="03.900227"><ele>-6.7</ele><time>2023-12-06T11:00:15Z</time><name>PT2160</name></trkpt>
<trkpt lat="51.797793" lon="03.900228"><ele>-6.8</ele><time>2023-12-06T11:00:16Z</time><name>PT2161</name></trkpt>
<trkpt lat="51.797794" lon="03.900233"><ele>-7</ele><time>2023-12-06T11:00:22Z</time><name>PT2162</name></trkpt>
<trkpt lat="51.797794" lon="03.900237"><ele>-7</ele><time>2023-12-06T11:00:23Z</time><name>PT2163</name></trkpt>
<trkpt lat="51.797787" lon="03.900241"><ele>-6.5</ele><time>2023-12-06T11:00:32Z</time><name>PT2164</name></trkpt>
<trkpt lat="51.797788" lon="03.900238"><ele>-6.6</ele><time>2023-12-06T11:00:33Z</time><name>PT2165</name></trkpt>
<trkpt lat="51.797795" lon="03.900251"><ele>-6.7</ele><time>2023-12-06T11:01:01Z</time><name>PT2166</name></trkpt>
<trkpt lat="51.797801" lon="03.900260"><ele>-6.9</ele><time>2023-12-06T11:01:02Z</time><name>PT2167</name></trkpt>
<trkpt lat="51.797803" lon="03.900270"><ele>-7</ele><time>2023-12-06T11:01:03Z</time><name>PT2168</name></trkpt>
<trkpt lat="51.797807" lon="03.900280"><ele>-7</ele><time>2023-12-06T11:01:04Z</time><name>PT2169</name></trkpt>
<trkpt lat="51.797812" lon="03.900286"><ele>-7</ele><time>2023-12-06T11:01:05Z</time><name>PT2170</name></trkpt>
<trkpt lat="51.797814" lon="03.900292"><ele>-6.9</ele><time>2023-12-06T11:01:06Z</time><name>PT2171</name></trkpt>
<trkpt lat="51.797815" lon="03.900299"><ele>-6.9</ele><time>2023-12-06T11:01:07Z</time><name>PT2172</name></trkpt>
<trkpt lat="51.797817" lon="03.900304"><ele>-6.8</ele><time>2023-12-06T11:01:08Z</time><name>PT2173</name></trkpt>
<trkpt lat="51.797819" lon="03.900310"><ele>-6.8</ele><time>2023-12-06T11:01:09Z</time><name>PT2174</name></trkpt>
<trkpt lat="51.797821" lon="03.900317"><ele>-6.8</ele><time>2023-12-06T11:01:10Z</time><name>PT2175</name></trkpt>
<trkpt lat="51.797822" lon="03.900326"><ele>-6.9</ele><time>2023-12-06T11:01:11Z</time><name>PT2176</name></trkpt>
<trkpt lat="51.797823" lon="03.900335"><ele>-6.9</ele><time>2023-12-06T11:01:12Z</time><name>PT2177</name></trkpt>
<trkpt lat="51.797825" lon="03.900341"><ele>-6.9</ele><time>2023-12-06T11:01:13Z</time><name>PT2178</name></trkpt>
<trkpt lat="51.797827" lon="03.900345"><ele>-7</ele><time>2023-12-06T11:01:14Z</time><name>PT2179</name></trkpt>
<trkpt lat="51.797830" lon="03.900351"><ele>-6.9</ele><time>2023-12-06T11:01:15Z</time><name>PT2180</name></trkpt>
<trkpt lat="51.797831" lon="03.900359"><ele>-6.8</ele><time>2023-12-06T11:01:16Z</time><name>PT2181</name></trkpt>
<trkpt lat="51.797830" lon="03.900357"><ele>-6.6</ele><time>2023-12-06T11:01:17Z</time><name>PT2182</name></trkpt>
<trkpt lat="51.797829" lon="03.900353"><ele>-6.6</ele><time>2023-12-06T11:01:18Z</time><name>PT2183</name></trkpt>
<trkpt lat="51.797829" lon="03.900355"><ele>-6.6</ele><time>2023-12-06T11:01:19Z</time><name>PT2184</name></trkpt>
<trkpt lat="51.797827" lon="03.900351"><ele>-6.6</ele><time>2023-12-06T11:01:20Z</time><name>PT2185</name></trkpt>
<trkpt lat="51.797830" lon="03.900352"><ele>-6.6</ele><time>2023-12-06T11:01:27Z</time><name>PT2186</name></trkpt>
<trkpt lat="51.797832" lon="03.900359"><ele>-6.5</ele><time>2023-12-06T11:01:28Z</time><name>PT2187</name></trkpt>
<trkpt lat="51.797838" lon="03.900377"><ele>-6.7</ele><time>2023-12-06T11:01:29Z</time><name>PT2188</name></trkpt>
<trkpt lat="51.797841" lon="03.900392"><ele>-6.8</ele><time>2023-12-06T11:01:30Z</time><name>PT2189</name></trkpt>
<trkpt lat="51.797841" lon="03.900408"><ele>-6.9</ele><time>2023-12-06T11:01:31Z</time><name>PT2190</name></trkpt>
<trkpt lat="51.797845" lon="03.900420"><ele>-6.8</ele><time>2023-12-06T11:01:32Z</time><name>PT2191</name></trkpt>
<trkpt lat="51.797847" lon="03.900431"><ele>-6.8</ele><time>2023-12-06T11:01:33Z</time><name>PT2192</name></trkpt>
<trkpt lat="51.797848" lon="03.900439"><ele>-6.9</ele><time>2023-12-06T11:01:34Z</time><name>PT2193</name></trkpt>
<trkpt lat="51.797852" lon="03.900452"><ele>-6.8</ele><time>2023-12-06T11:01:35Z</time><name>PT2194</name></trkpt>
<trkpt lat="51.797854" lon="03.900466"><ele>-6.8</ele><time>2023-12-06T11:01:36Z</time><name>PT2195</name></trkpt>
<trkpt lat="51.797858" lon="03.900482"><ele>-6.8</ele><time>2023-12-06T11:01:37Z</time><name>PT2196</name></trkpt>
<trkpt lat="51.797863" lon="03.900496"><ele>-6.8</ele><time>2023-12-06T11:01:38Z</time><name>PT2197</name></trkpt>
<trkpt lat="51.797868" lon="03.900507"><ele>-6.6</ele><time>2023-12-06T11:01:39Z</time><name>PT2198</name></trkpt>
<trkpt lat="51.797871" lon="03.900517"><ele>-6.7</ele><time>2023-12-06T11:01:40Z</time><name>PT2199</name></trkpt>
<trkpt lat="51.797875" lon="03.900529"><ele>-6.5</ele><time>2023-12-06T11:01:41Z</time><name>PT2200</name></trkpt>
<trkpt lat="51.797880" lon="03.900543"><ele>-6.5</ele><time>2023-12-06T11:01:42Z</time><name>PT2201</name></trkpt>
<trkpt lat="51.797886" lon="03.900558"><ele>-6.6</ele><time>2023-12-06T11:01:43Z</time><name>PT2202</name></trkpt>
<trkpt lat="51.797892" lon="03.900571"><ele>-6.6</ele><time>2023-12-06T11:01:44Z</time><name>PT2203</name></trkpt>
<trkpt lat="51.797896" lon="03.900589"><ele>-6.7</ele><time>2023-12-06T11:01:45Z</time><name>PT2204</name></trkpt>
<trkpt lat="51.797901" lon="03.900605"><ele>-6.7</ele><time>2023-12-06T11:01:46Z</time><name>PT2205</name></trkpt>
<trkpt lat="51.797906" lon="03.900621"><ele>-6.6</ele><time>2023-12-06T11:01:47Z</time><name>PT2206</name></trkpt>
<trkpt lat="51.797911" lon="03.900639"><ele>-6.6</ele><time>2023-12-06T11:01:48Z</time><name>PT2207</name></trkpt>
<trkpt lat="51.797917" lon="03.900653"><ele>-6.7</ele><time>2023-12-06T11:01:49Z</time><name>PT2208</name></trkpt>
<trkpt lat="51.797922" lon="03.900669"><ele>-6.8</ele><time>2023-12-06T11:01:50Z</time><name>PT2209</name></trkpt>
<trkpt lat="51.797927" lon="03.900683"><ele>-6.7</ele><time>2023-12-06T11:01:51Z</time><name>PT2210</name></trkpt>
<trkpt lat="51.797932" lon="03.900698"><ele>-6.9</ele><time>2023-12-06T11:01:52Z</time><name>PT2211</name></trkpt>
<trkpt lat="51.797936" lon="03.900716"><ele>-6.9</ele><time>2023-12-06T11:01:53Z</time><name>PT2212</name></trkpt>
<trkpt lat="51.797942" lon="03.900733"><ele>-6.8</ele><time>2023-12-06T11:01:54Z</time><name>PT2213</name></trkpt>
<trkpt lat="51.797947" lon="03.900750"><ele>-6.8</ele><time>2023-12-06T11:01:55Z</time><name>PT2214</name></trkpt>
<trkpt lat="51.797953" lon="03.900767"><ele>-6.8</ele><time>2023-12-06T11:01:56Z</time><name>PT2215</name></trkpt>
<trkpt lat="51.797957" lon="03.900782"><ele>-6.9</ele><time>2023-12-06T11:01:57Z</time><name>PT2216</name></trkpt>
<trkpt lat="51.797961" lon="03.900797"><ele>-6.8</ele><time>2023-12-06T11:01:58Z</time><name>PT2217</name></trkpt>
<trkpt lat="51.797965" lon="03.900812"><ele>-6.8</ele><time>2023-12-06T11:01:59Z</time><name>PT2218</name></trkpt>
<trkpt lat="51.797971" lon="03.900827"><ele>-6.9</ele><time>2023-12-06T11:02:00Z</time><name>PT2219</name></trkpt>
<trkpt lat="51.797979" lon="03.900841"><ele>-6.9</ele><time>2023-12-06T11:02:01Z</time><name>PT2220</name></trkpt>
<trkpt lat="51.797985" lon="03.900854"><ele>-6.9</ele><time>2023-12-06T11:02:02Z</time><name>PT2221</name></trkpt>
<trkpt lat="51.797990" lon="03.900869"><ele>-7</ele><time>2023-12-06T11:02:03Z</time><name>PT2222</name></trkpt>
<trkpt lat="51.797993" lon="03.900882"><ele>-7</ele><time>2023-12-06T11:02:04Z</time><name>PT2223</name></trkpt>
<trkpt lat="51.797999" lon="03.900896"><ele>-6.9</ele><time>2023-12-06T11:02:05Z</time><name>PT2224</name></trkpt>
<trkpt lat="51.798005" lon="03.900907"><ele>-6.9</ele><time>2023-12-06T11:02:06Z</time><name>PT2225</name></trkpt>
<trkpt lat="51.798012" lon="03.900923"><ele>-6.9</ele><time>2023-12-06T11:02:07Z</time><name>PT2226</name></trkpt>
<trkpt lat="51.798018" lon="03.900937"><ele>-6.7</ele><time>2023-12-06T11:02:08Z</time><name>PT2227</name></trkpt>
<trkpt lat="51.798024" lon="03.900952"><ele>-6.7</ele><time>2023-12-06T11:02:09Z</time><name>PT2228</name></trkpt>
<trkpt lat="51.798028" lon="03.900969"><ele>-6.7</ele><time>2023-12-06T11:02:10Z</time><name>PT2229</name></trkpt>
<trkpt lat="51.798031" lon="03.900990"><ele>-6.6</ele><time>2023-12-06T11:02:11Z</time><name>PT2230</name></trkpt>
<trkpt lat="51.798035" lon="03.901008"><ele>-6.8</ele><time>2023-12-06T11:02:12Z</time><name>PT2231</name></trkpt>
<trkpt lat="51.798040" lon="03.901028"><ele>-6.9</ele><time>2023-12-06T11:02:13Z</time><name>PT2232</name></trkpt>
<trkpt lat="51.798044" lon="03.901045"><ele>-6.9</ele><time>2023-12-06T11:02:14Z</time><name>PT2233</name></trkpt>
<trkpt lat="51.798048" lon="03.901061"><ele>-6.8</ele><time>2023-12-06T11:02:15Z</time><name>PT2234</name></trkpt>
<trkpt lat="51.798052" lon="03.901077"><ele>-6.9</ele><time>2023-12-06T11:02:16Z</time><name>PT2235</name></trkpt>
<trkpt lat="51.798057" lon="03.901093"><ele>-6.9</ele><time>2023-12-06T11:02:17Z</time><name>PT2236</name></trkpt>
<trkpt lat="51.798062" lon="03.901107"><ele>-6.9</ele><time>2023-12-06T11:02:18Z</time><name>PT2237</name></trkpt>
<trkpt lat="51.798067" lon="03.901122"><ele>-7</ele><time>2023-12-06T11:02:19Z</time><name>PT2238</name></trkpt>
<trkpt lat="51.798071" lon="03.901140"><ele>-6.9</ele><time>2023-12-06T11:02:20Z</time><name>PT2239</name></trkpt>
<trkpt lat="51.798076" lon="03.901163"><ele>-6.7</ele><time>2023-12-06T11:02:21Z</time><name>PT2240</name></trkpt>
<trkpt lat="51.798080" lon="03.901180"><ele>-6.7</ele><time>2023-12-06T11:02:22Z</time><name>PT2241</name></trkpt>
<trkpt lat="51.798082" lon="03.901197"><ele>-6.7</ele><time>2023-12-06T11:02:23Z</time><name>PT2242</name></trkpt>
<trkpt lat="51.798084" lon="03.901214"><ele>-6.7</ele><time>2023-12-06T11:02:24Z</time><name>PT2243</name></trkpt>
<trkpt lat="51.798089" lon="03.901227"><ele>-6.8</ele><time>2023-12-06T11:02:25Z</time><name>PT2244</name></trkpt>
<trkpt lat="51.798094" lon="03.901241"><ele>-6.9</ele><time>2023-12-06T11:02:26Z</time><name>PT2245</name></trkpt>
<trkpt lat="51.798099" lon="03.901256"><ele>-6.9</ele><time>2023-12-06T11:02:27Z</time><name>PT2246</name></trkpt>
<trkpt lat="51.798104" lon="03.901272"><ele>-6.9</ele><time>2023-12-06T11:02:28Z</time><name>PT2247</name></trkpt>
<trkpt lat="51.798108" lon="03.901288"><ele>-6.8</ele><time>2023-12-06T11:02:29Z</time><name>PT2248</name></trkpt>
<trkpt lat="51.798112" lon="03.901306"><ele>-6.8</ele><time>2023-12-06T11:02:30Z</time><name>PT2249</name></trkpt>
<trkpt lat="51.798116" lon="03.901324"><ele>-6.8</ele><time>2023-12-06T11:02:31Z</time><name>PT2250</name></trkpt>
<trkpt lat="51.798120" lon="03.901340"><ele>-6.9</ele><time>2023-12-06T11:02:32Z</time><name>PT2251</name></trkpt>
<trkpt lat="51.798124" lon="03.901357"><ele>-6.7</ele><time>2023-12-06T11:02:33Z</time><name>PT2252</name></trkpt>
<trkpt lat="51.798129" lon="03.901372"><ele>-6.7</ele><time>2023-12-06T11:02:34Z</time><name>PT2253</name></trkpt>
<trkpt lat="51.798133" lon="03.901387"><ele>-6.7</ele><time>2023-12-06T11:02:35Z</time><name>PT2254</name></trkpt>
<trkpt lat="51.798137" lon="03.901404"><ele>-6.5</ele><time>2023-12-06T11:02:36Z</time><name>PT2255</name></trkpt>
<trkpt lat="51.798141" lon="03.901422"><ele>-6.5</ele><time>2023-12-06T11:02:37Z</time><name>PT2256</name></trkpt>
<trkpt lat="51.798144" lon="03.901439"><ele>-6.8</ele><time>2023-12-06T11:02:38Z</time><name>PT2257</name></trkpt>
<trkpt lat="51.798148" lon="03.901455"><ele>-6.7</ele><time>2023-12-06T11:02:39Z</time><name>PT2258</name></trkpt>
<trkpt lat="51.798153" lon="03.901471"><ele>-6.6</ele><time>2023-12-06T11:02:40Z</time><name>PT2259</name></trkpt>
<trkpt lat="51.798158" lon="03.901489"><ele>-6.5</ele><time>2023-12-06T11:02:41Z</time><name>PT2260</name></trkpt>
<trkpt lat="51.798162" lon="03.901505"><ele>-6.5</ele><time>2023-12-06T11:02:42Z</time><name>PT2261</name></trkpt>
<trkpt lat="51.798167" lon="03.901520"><ele>-6.5</ele><time>2023-12-06T11:02:43Z</time><name>PT2262</name></trkpt>
<trkpt lat="51.798172" lon="03.901536"><ele>-6.6</ele><time>2023-12-06T11:02:44Z</time><name>PT2263</name></trkpt>
<trkpt lat="51.798177" lon="03.901552"><ele>-6.8</ele><time>2023-12-06T11:02:45Z</time><name>PT2264</name></trkpt>
<trkpt lat="51.798181" lon="03.901569"><ele>-6.9</ele><time>2023-12-06T11:02:46Z</time><name>PT2265</name></trkpt>
<trkpt lat="51.798185" lon="03.901583"><ele>-6.8</ele><time>2023-12-06T11:02:47Z</time><name>PT2266</name></trkpt>
<trkpt lat="51.798189" lon="03.901600"><ele>-6.6</ele><time>2023-12-06T11:02:48Z</time><name>PT2267</name></trkpt>
<trkpt lat="51.798194" lon="03.901615"><ele>-6.5</ele><time>2023-12-06T11:02:49Z</time><name>PT2268</name></trkpt>
<trkpt lat="51.798200" lon="03.901629"><ele>-6.6</ele><time>2023-12-06T11:02:50Z</time><name>PT2269</name></trkpt>
<trkpt lat="51.798206" lon="03.901644"><ele>-6.6</ele><time>2023-12-06T11:02:51Z</time><name>PT2270</name></trkpt>
<trkpt lat="51.798209" lon="03.901662"><ele>-6.7</ele><time>2023-12-06T11:02:52Z</time><name>PT2271</name></trkpt>
<trkpt lat="51.798213" lon="03.901680"><ele>-6.8</ele><time>2023-12-06T11:02:53Z</time><name>PT2272</name></trkpt>
<trkpt lat="51.798217" lon="03.901697"><ele>-6.6</ele><time>2023-12-06T11:02:54Z</time><name>PT2273</name></trkpt>
<trkpt lat="51.798220" lon="03.901713"><ele>-6.7</ele><time>2023-12-06T11:02:55Z</time><name>PT2274</name></trkpt>
<trkpt lat="51.798223" lon="03.901727"><ele>-6.7</ele><time>2023-12-06T11:02:56Z</time><name>PT2275</name></trkpt>
<trkpt lat="51.798229" lon="03.901741"><ele>-6.8</ele><time>2023-12-06T11:02:57Z</time><name>PT2276</name></trkpt>
<trkpt lat="51.798234" lon="03.901755"><ele>-6.8</ele><time>2023-12-06T11:02:58Z</time><name>PT2277</name></trkpt>
<trkpt lat="51.798239" lon="03.901769"><ele>-6.9</ele><time>2023-12-06T11:02:59Z</time><name>PT2278</name></trkpt>
<trkpt lat="51.798241" lon="03.901783"><ele>-6.9</ele><time>2023-12-06T11:03:00Z</time><name>PT2279</name></trkpt>
<trkpt lat="51.798241" lon="03.901798"><ele>-6.9</ele><time>2023-12-06T11:03:01Z</time><name>PT2280</name></trkpt>
<trkpt lat="51.798241" lon="03.901813"><ele>-6.8</ele><time>2023-12-06T11:03:02Z</time><name>PT2281</name></trkpt>
<trkpt lat="51.798244" lon="03.901827"><ele>-6.8</ele><time>2023-12-06T11:03:03Z</time><name>PT2282</name></trkpt>
<trkpt lat="51.798247" lon="03.901836"><ele>-6.8</ele><time>2023-12-06T11:03:04Z</time><name>PT2283</name></trkpt>
<trkpt lat="51.798248" lon="03.901841"><ele>-6.8</ele><time>2023-12-06T11:03:05Z</time><name>PT2284</name></trkpt>
<trkpt lat="51.798248" lon="03.901844"><ele>-6.7</ele><time>2023-12-06T11:03:06Z</time><name>PT2285</name></trkpt>
<trkpt lat="51.798248" lon="03.901850"><ele>-6.8</ele><time>2023-12-06T11:03:07Z</time><name>PT2286</name></trkpt>
<trkpt lat="51.798244" lon="03.901861"><ele>-6.7</ele><time>2023-12-06T11:03:42Z</time><name>PT2287</name></trkpt>
<trkpt lat="51.798243" lon="03.901875"><ele>-6.6</ele><time>2023-12-06T11:03:43Z</time><name>PT2288</name></trkpt>
<trkpt lat="51.798232" lon="03.901890"><ele>-6.6</ele><time>2023-12-06T11:03:44Z</time><name>PT2289</name></trkpt>
<trkpt lat="51.798230" lon="03.901907"><ele>-6.7</ele><time>2023-12-06T11:03:45Z</time><name>PT2290</name></trkpt>
<trkpt lat="51.798225" lon="03.901920"><ele>-6.6</ele><time>2023-12-06T11:03:46Z</time><name>PT2291</name></trkpt>
<trkpt lat="51.798222" lon="03.901940"><ele>-6.5</ele><time>2023-12-06T11:03:47Z</time><name>PT2292</name></trkpt>
<trkpt lat="51.798221" lon="03.901958"><ele>-6.4</ele><time>2023-12-06T11:03:48Z</time><name>PT2293</name></trkpt>
<trkpt lat="51.798216" lon="03.901975"><ele>-6.4</ele><time>2023-12-06T11:03:49Z</time><name>PT2294</name></trkpt>
<trkpt lat="51.798211" lon="03.901991"><ele>-6.3</ele><time>2023-12-06T11:03:50Z</time><name>PT2295</name></trkpt>
<trkpt lat="51.798205" lon="03.902007"><ele>-6.5</ele><time>2023-12-06T11:03:51Z</time><name>PT2296</name></trkpt>
<trkpt lat="51.798200" lon="03.902019"><ele>-6.4</ele><time>2023-12-06T11:03:52Z</time><name>PT2297</name></trkpt>
<trkpt lat="51.798193" lon="03.902030"><ele>-6.5</ele><time>2023-12-06T11:03:53Z</time><name>PT2298</name></trkpt>
<trkpt lat="51.798185" lon="03.902036"><ele>-6.5</ele><time>2023-12-06T11:03:54Z</time><name>PT2299</name></trkpt>
<trkpt lat="51.798174" lon="03.902040"><ele>-6.5</ele><time>2023-12-06T11:03:55Z</time><name>PT2300</name></trkpt>
<trkpt lat="51.798164" lon="03.902044"><ele>-6.5</ele><time>2023-12-06T11:03:56Z</time><name>PT2301</name></trkpt>
<trkpt lat="51.798154" lon="03.902050"><ele>-6.5</ele><time>2023-12-06T11:03:57Z</time><name>PT2302</name></trkpt>
<trkpt lat="51.798145" lon="03.902058"><ele>-6.5</ele><time>2023-12-06T11:03:58Z</time><name>PT2303</name></trkpt>
<trkpt lat="51.798136" lon="03.902065"><ele>-6.5</ele><time>2023-12-06T11:03:59Z</time><name>PT2304</name></trkpt>
<trkpt lat="51.798128" lon="03.902071"><ele>-6.4</ele><time>2023-12-06T11:04:00Z</time><name>PT2305</name></trkpt>
<trkpt lat="51.798119" lon="03.902076"><ele>-6.3</ele><time>2023-12-06T11:04:01Z</time><name>PT2306</name></trkpt>
<trkpt lat="51.798107" lon="03.902080"><ele>-6.4</ele><time>2023-12-06T11:04:02Z</time><name>PT2307</name></trkpt>
<trkpt lat="51.798096" lon="03.902082"><ele>-6.5</ele><time>2023-12-06T11:04:03Z</time><name>PT2308</name></trkpt>
<trkpt lat="51.798087" lon="03.902082"><ele>-6.5</ele><time>2023-12-06T11:04:04Z</time><name>PT2309</name></trkpt>
<trkpt lat="51.798076" lon="03.902081"><ele>-6.5</ele><time>2023-12-06T11:04:05Z</time><name>PT2310</name></trkpt>
<trkpt lat="51.798060" lon="03.902087"><ele>-6.6</ele><time>2023-12-06T11:04:06Z</time><name>PT2311</name></trkpt>
<trkpt lat="51.798048" lon="03.902089"><ele>-6.5</ele><time>2023-12-06T11:04:07Z</time><name>PT2312</name></trkpt>
<trkpt lat="51.798035" lon="03.902090"><ele>-6.4</ele><time>2023-12-06T11:04:08Z</time><name>PT2313</name></trkpt>
<trkpt lat="51.798022" lon="03.902091"><ele>-6.4</ele><time>2023-12-06T11:04:09Z</time><name>PT2314</name></trkpt>
<trkpt lat="51.798011" lon="03.902090"><ele>-6.4</ele><time>2023-12-06T11:04:10Z</time><name>PT2315</name></trkpt>
<trkpt lat="51.798000" lon="03.902090"><ele>-6.4</ele><time>2023-12-06T11:04:11Z</time><name>PT2316</name></trkpt>
<trkpt lat="51.797988" lon="03.902089"><ele>-6.5</ele><time>2023-12-06T11:04:12Z</time><name>PT2317</name></trkpt>
<trkpt lat="51.797977" lon="03.902087"><ele>-6.5</ele><time>2023-12-06T11:04:13Z</time><name>PT2318</name></trkpt>
<trkpt lat="51.797965" lon="03.902084"><ele>-6.5</ele><time>2023-12-06T11:04:14Z</time><name>PT2319</name></trkpt>
<trkpt lat="51.797952" lon="03.902081"><ele>-6.4</ele><time>2023-12-06T11:04:15Z</time><name>PT2320</name></trkpt>
<trkpt lat="51.797940" lon="03.902077"><ele>-6.4</ele><time>2023-12-06T11:04:16Z</time><name>PT2321</name></trkpt>
<trkpt lat="51.797927" lon="03.902072"><ele>-6.3</ele><time>2023-12-06T11:04:17Z</time><name>PT2322</name></trkpt>
<trkpt lat="51.797915" lon="03.902067"><ele>-6.1</ele><time>2023-12-06T11:04:18Z</time><name>PT2323</name></trkpt>
<trkpt lat="51.797902" lon="03.902064"><ele>-6.3</ele><time>2023-12-06T11:04:19Z</time><name>PT2324</name></trkpt>
<trkpt lat="51.797889" lon="03.902060"><ele>-6.2</ele><time>2023-12-06T11:04:20Z</time><name>PT2325</name></trkpt>
<trkpt lat="51.797876" lon="03.902058"><ele>-6.3</ele><time>2023-12-06T11:04:21Z</time><name>PT2326</name></trkpt>
<trkpt lat="51.797864" lon="03.902056"><ele>-6.2</ele><time>2023-12-06T11:04:22Z</time><name>PT2327</name></trkpt>
<trkpt lat="51.797852" lon="03.902052"><ele>-6.3</ele><time>2023-12-06T11:04:23Z</time><name>PT2328</name></trkpt>
<trkpt lat="51.797841" lon="03.902049"><ele>-6.1</ele><time>2023-12-06T11:04:24Z</time><name>PT2329</name></trkpt>
<trkpt lat="51.797830" lon="03.902045"><ele>-6.1</ele><time>2023-12-06T11:04:25Z</time><name>PT2330</name></trkpt>
<trkpt lat="51.797818" lon="03.902039"><ele>-6.4</ele><time>2023-12-06T11:04:26Z</time><name>PT2331</name></trkpt>
<trkpt lat="51.797807" lon="03.902036"><ele>-6.4</ele><time>2023-12-06T11:04:27Z</time><name>PT2332</name></trkpt>
<trkpt lat="51.797795" lon="03.902034"><ele>-6.5</ele><time>2023-12-06T11:04:28Z</time><name>PT2333</name></trkpt>
<trkpt lat="51.797784" lon="03.902030"><ele>-6.5</ele><time>2023-12-06T11:04:29Z</time><name>PT2334</name></trkpt>
<trkpt lat="51.797774" lon="03.902027"><ele>-6.6</ele><time>2023-12-06T11:04:30Z</time><name>PT2335</name></trkpt>
<trkpt lat="51.797764" lon="03.902023"><ele>-6.8</ele><time>2023-12-06T11:04:31Z</time><name>PT2336</name></trkpt>
<trkpt lat="51.797755" lon="03.902019"><ele>-7</ele><time>2023-12-06T11:04:32Z</time><name>PT2337</name></trkpt>
<trkpt lat="51.797746" lon="03.902018"><ele>-7</ele><time>2023-12-06T11:04:33Z</time><name>PT2338</name></trkpt>
<trkpt lat="51.797735" lon="03.902017"><ele>-7.1</ele><time>2023-12-06T11:04:34Z</time><name>PT2339</name></trkpt>
<trkpt lat="51.797726" lon="03.902018"><ele>-6.9</ele><time>2023-12-06T11:04:35Z</time><name>PT2340</name></trkpt>
<trkpt lat="51.797717" lon="03.902018"><ele>-6.5</ele><time>2023-12-06T11:04:36Z</time><name>PT2341</name></trkpt>
<trkpt lat="51.797706" lon="03.902015"><ele>-6.4</ele><time>2023-12-06T11:04:37Z</time><name>PT2342</name></trkpt>
<trkpt lat="51.797696" lon="03.902013"><ele>-6.5</ele><time>2023-12-06T11:04:38Z</time><name>PT2343</name></trkpt>
<trkpt lat="51.797685" lon="03.902007"><ele>-6.4</ele><time>2023-12-06T11:04:39Z</time><name>PT2344</name></trkpt>
<trkpt lat="51.797673" lon="03.902004"><ele>-6.4</ele><time>2023-12-06T11:04:40Z</time><name>PT2345</name></trkpt>
<trkpt lat="51.797662" lon="03.901999"><ele>-6.5</ele><time>2023-12-06T11:04:41Z</time><name>PT2346</name></trkpt>
<trkpt lat="51.797653" lon="03.901995"><ele>-6.5</ele><time>2023-12-06T11:04:42Z</time><name>PT2347</name></trkpt>
<trkpt lat="51.797646" lon="03.901992"><ele>-6.5</ele><time>2023-12-06T11:04:43Z</time><name>PT2348</name></trkpt>
<trkpt lat="51.797638" lon="03.901988"><ele>-6.6</ele><time>2023-12-06T11:04:44Z</time><name>PT2349</name></trkpt>
<trkpt lat="51.797629" lon="03.901986"><ele>-6.7</ele><time>2023-12-06T11:04:45Z</time><name>PT2350</name></trkpt>
<trkpt lat="51.797619" lon="03.901983"><ele>-6.7</ele><time>2023-12-06T11:04:46Z</time><name>PT2351</name></trkpt>
<trkpt lat="51.797611" lon="03.901979"><ele>-6.9</ele><time>2023-12-06T11:04:47Z</time><name>PT2352</name></trkpt>
<trkpt lat="51.797602" lon="03.901971"><ele>-6.9</ele><time>2023-12-06T11:04:48Z</time><name>PT2353</name></trkpt>
<trkpt lat="51.797592" lon="03.901966"><ele>-6.9</ele><time>2023-12-06T11:04:49Z</time><name>PT2354</name></trkpt>
<trkpt lat="51.797581" lon="03.901958"><ele>-6.7</ele><time>2023-12-06T11:04:50Z</time><name>PT2355</name></trkpt>
<trkpt lat="51.797571" lon="03.901952"><ele>-6.7</ele><time>2023-12-06T11:04:51Z</time><name>PT2356</name></trkpt>
<trkpt lat="51.797561" lon="03.901944"><ele>-6.7</ele><time>2023-12-06T11:04:52Z</time><name>PT2357</name></trkpt>
<trkpt lat="51.797551" lon="03.901939"><ele>-6.8</ele><time>2023-12-06T11:04:53Z</time><name>PT2358</name></trkpt>
<trkpt lat="51.797542" lon="03.901938"><ele>-6.7</ele><time>2023-12-06T11:04:54Z</time><name>PT2359</name></trkpt>
<trkpt lat="51.797531" lon="03.901935"><ele>-6.7</ele><time>2023-12-06T11:04:55Z</time><name>PT2360</name></trkpt>
<trkpt lat="51.797520" lon="03.901925"><ele>-6.8</ele><time>2023-12-06T11:04:56Z</time><name>PT2361</name></trkpt>
<trkpt lat="51.797510" lon="03.901923"><ele>-6.5</ele><time>2023-12-06T11:04:57Z</time><name>PT2362</name></trkpt>
<trkpt lat="51.797494" lon="03.901901"><ele>-6.7</ele><time>2023-12-06T11:04:58Z</time><name>PT2363</name></trkpt>
<trkpt lat="51.797481" lon="03.901884"><ele>-6.7</ele><time>2023-12-06T11:04:59Z</time><name>PT2364</name></trkpt>
<trkpt lat="51.797466" lon="03.901866"><ele>-6.7</ele><time>2023-12-06T11:05:00Z</time><name>PT2365</name></trkpt>
<trkpt lat="51.797455" lon="03.901858"><ele>-6.9</ele><time>2023-12-06T11:05:01Z</time><name>PT2366</name></trkpt>
<trkpt lat="51.797446" lon="03.901849"><ele>-7.1</ele><time>2023-12-06T11:05:02Z</time><name>PT2367</name></trkpt>
<trkpt lat="51.797435" lon="03.901839"><ele>-7.2</ele><time>2023-12-06T11:05:03Z</time><name>PT2368</name></trkpt>
<trkpt lat="51.797421" lon="03.901829"><ele>-7.2</ele><time>2023-12-06T11:05:04Z</time><name>PT2369</name></trkpt>
<trkpt lat="51.797409" lon="03.901819"><ele>-7.2</ele><time>2023-12-06T11:05:05Z</time><name>PT2370</name></trkpt>
<trkpt lat="51.797397" lon="03.901813"><ele>-7.2</ele><time>2023-12-06T11:05:06Z</time><name>PT2371</name></trkpt>
<trkpt lat="51.797387" lon="03.901810"><ele>-7.1</ele><time>2023-12-06T11:05:07Z</time><name>PT2372</name></trkpt>
<trkpt lat="51.797376" lon="03.901805"><ele>-7.1</ele><time>2023-12-06T11:05:08Z</time><name>PT2373</name></trkpt>
<trkpt lat="51.797365" lon="03.901798"><ele>-7</ele><time>2023-12-06T11:05:09Z</time><name>PT2374</name></trkpt>
<trkpt lat="51.797353" lon="03.901790"><ele>-6.9</ele><time>2023-12-06T11:05:10Z</time><name>PT2375</name></trkpt>
<trkpt lat="51.797342" lon="03.901780"><ele>-6.9</ele><time>2023-12-06T11:05:11Z</time><name>PT2376</name></trkpt>
<trkpt lat="51.797330" lon="03.901772"><ele>-7</ele><time>2023-12-06T11:05:12Z</time><name>PT2377</name></trkpt>
<trkpt lat="51.797319" lon="03.901762"><ele>-6.9</ele><time>2023-12-06T11:05:13Z</time><name>PT2378</name></trkpt>
<trkpt lat="51.797309" lon="03.901755"><ele>-6.9</ele><time>2023-12-06T11:05:14Z</time><name>PT2379</name></trkpt>
<trkpt lat="51.797298" lon="03.901747"><ele>-7</ele><time>2023-12-06T11:05:15Z</time><name>PT2380</name></trkpt>
<trkpt lat="51.797287" lon="03.901741"><ele>-6.8</ele><time>2023-12-06T11:05:16Z</time><name>PT2381</name></trkpt>
<trkpt lat="51.797277" lon="03.901738"><ele>-6.5</ele><time>2023-12-06T11:05:17Z</time><name>PT2382</name></trkpt>
<trkpt lat="51.797267" lon="03.901732"><ele>-6.2</ele><time>2023-12-06T11:05:18Z</time><name>PT2383</name></trkpt>
<trkpt lat="51.797256" lon="03.901726"><ele>-6.2</ele><time>2023-12-06T11:05:19Z</time><name>PT2384</name></trkpt>
<trkpt lat="51.797244" lon="03.901717"><ele>-6</ele><time>2023-12-06T11:05:20Z</time><name>PT2385</name></trkpt>
<trkpt lat="51.797231" lon="03.901710"><ele>-6.1</ele><time>2023-12-06T11:05:21Z</time><name>PT2386</name></trkpt>
<trkpt lat="51.797218" lon="03.901701"><ele>-6.1</ele><time>2023-12-06T11:05:22Z</time><name>PT2387</name></trkpt>
<trkpt lat="51.797206" lon="03.901694"><ele>-6.4</ele><time>2023-12-06T11:05:23Z</time><name>PT2388</name></trkpt>
<trkpt lat="51.797194" lon="03.901686"><ele>-6.5</ele><time>2023-12-06T11:05:24Z</time><name>PT2389</name></trkpt>
<trkpt lat="51.797181" lon="03.901679"><ele>-6.6</ele><time>2023-12-06T11:05:25Z</time><name>PT2390</name></trkpt>
<trkpt lat="51.797169" lon="03.901673"><ele>-6.6</ele><time>2023-12-06T11:05:26Z</time><name>PT2391</name></trkpt>
<trkpt lat="51.797156" lon="03.901668"><ele>-6.6</ele><time>2023-12-06T11:05:27Z</time><name>PT2392</name></trkpt>
<trkpt lat="51.797144" lon="03.901664"><ele>-6.6</ele><time>2023-12-06T11:05:28Z</time><name>PT2393</name></trkpt>
<trkpt lat="51.797132" lon="03.901660"><ele>-6.5</ele><time>2023-12-06T11:05:29Z</time><name>PT2394</name></trkpt>
<trkpt lat="51.797120" lon="03.901654"><ele>-6.7</ele><time>2023-12-06T11:05:30Z</time><name>PT2395</name></trkpt>
<trkpt lat="51.797109" lon="03.901647"><ele>-6.6</ele><time>2023-12-06T11:05:31Z</time><name>PT2396</name></trkpt>
<trkpt lat="51.797099" lon="03.901640"><ele>-6.5</ele><time>2023-12-06T11:05:32Z</time><name>PT2397</name></trkpt>
<trkpt lat="51.797087" lon="03.901632"><ele>-6.5</ele><time>2023-12-06T11:05:33Z</time><name>PT2398</name></trkpt>
<trkpt lat="51.797076" lon="03.901627"><ele>-6.5</ele><time>2023-12-06T11:05:34Z</time><name>PT2399</name></trkpt>
<trkpt lat="51.797064" lon="03.901624"><ele>-6.6</ele><time>2023-12-06T11:05:35Z</time><name>PT2400</name></trkpt>
<trkpt lat="51.797052" lon="03.901620"><ele>-6.6</ele><time>2023-12-06T11:05:36Z</time><name>PT2401</name></trkpt>
<trkpt lat="51.797041" lon="03.901615"><ele>-6.8</ele><time>2023-12-06T11:05:37Z</time><name>PT2402</name></trkpt>
<trkpt lat="51.797029" lon="03.901609"><ele>-6.9</ele><time>2023-12-06T11:05:38Z</time><name>PT2403</name></trkpt>
<trkpt lat="51.797018" lon="03.901605"><ele>-6.9</ele><time>2023-12-06T11:05:39Z</time><name>PT2404</name></trkpt>
<trkpt lat="51.797005" lon="03.901599"><ele>-6.7</ele><time>2023-12-06T11:05:40Z</time><name>PT2405</name></trkpt>
<trkpt lat="51.796992" lon="03.901595"><ele>-7</ele><time>2023-12-06T11:05:41Z</time><name>PT2406</name></trkpt>
<trkpt lat="51.796981" lon="03.901593"><ele>-6.8</ele><time>2023-12-06T11:05:42Z</time><name>PT2407</name></trkpt>
<trkpt lat="51.796970" lon="03.901589"><ele>-6.8</ele><time>2023-12-06T11:05:43Z</time><name>PT2408</name></trkpt>
<trkpt lat="51.796959" lon="03.901586"><ele>-6.9</ele><time>2023-12-06T11:05:44Z</time><name>PT2409</name></trkpt>
<trkpt lat="51.796945" lon="03.901583"><ele>-6.6</ele><time>2023-12-06T11:05:45Z</time><name>PT2410</name></trkpt>
<trkpt lat="51.796933" lon="03.901579"><ele>-6.5</ele><time>2023-12-06T11:05:46Z</time><name>PT2411</name></trkpt>
<trkpt lat="51.796921" lon="03.901574"><ele>-6.5</ele><time>2023-12-06T11:05:47Z</time><name>PT2412</name></trkpt>
<trkpt lat="51.796911" lon="03.901571"><ele>-6.5</ele><time>2023-12-06T11:05:48Z</time><name>PT2413</name></trkpt>
<trkpt lat="51.796900" lon="03.901569"><ele>-6.7</ele><time>2023-12-06T11:05:49Z</time><name>PT2414</name></trkpt>
<trkpt lat="51.796888" lon="03.901568"><ele>-6.7</ele><time>2023-12-06T11:05:50Z</time><name>PT2415</name></trkpt>
<trkpt lat="51.796876" lon="03.901566"><ele>-6.7</ele><time>2023-12-06T11:05:51Z</time><name>PT2416</name></trkpt>
<trkpt lat="51.796864" lon="03.901564"><ele>-6.5</ele><time>2023-12-06T11:05:52Z</time><name>PT2417</name></trkpt>
<trkpt lat="51.796853" lon="03.901561"><ele>-6.5</ele><time>2023-12-06T11:05:53Z</time><name>PT2418</name></trkpt>
<trkpt lat="51.796842" lon="03.901558"><ele>-6.5</ele><time>2023-12-06T11:05:54Z</time><name>PT2419</name></trkpt>
<trkpt lat="51.796831" lon="03.901554"><ele>-6.5</ele><time>2023-12-06T11:05:55Z</time><name>PT2420</name></trkpt>
<trkpt lat="51.796819" lon="03.901550"><ele>-6.5</ele><time>2023-12-06T11:05:56Z</time><name>PT2421</name></trkpt>
<trkpt lat="51.796806" lon="03.901546"><ele>-6.4</ele><time>2023-12-06T11:05:57Z</time><name>PT2422</name></trkpt>
<trkpt lat="51.796794" lon="03.901542"><ele>-6.4</ele><time>2023-12-06T11:05:58Z</time><name>PT2423</name></trkpt>
<trkpt lat="51.796782" lon="03.901538"><ele>-6.3</ele><time>2023-12-06T11:05:59Z</time><name>PT2424</name></trkpt>
<trkpt lat="51.796771" lon="03.901537"><ele>-6.5</ele><time>2023-12-06T11:06:00Z</time><name>PT2425</name></trkpt>
<trkpt lat="51.796759" lon="03.901537"><ele>-6.7</ele><time>2023-12-06T11:06:01Z</time><name>PT2426</name></trkpt>
<trkpt lat="51.796748" lon="03.901536"><ele>-6.8</ele><time>2023-12-06T11:06:02Z</time><name>PT2427</name></trkpt>
<trkpt lat="51.796736" lon="03.901536"><ele>-6.9</ele><time>2023-12-06T11:06:03Z</time><name>PT2428</name></trkpt>
<trkpt lat="51.796725" lon="03.901536"><ele>-7</ele><time>2023-12-06T11:06:04Z</time><name>PT2429</name></trkpt>
<trkpt lat="51.796714" lon="03.901538"><ele>-6.8</ele><time>2023-12-06T11:06:05Z</time><name>PT2430</name></trkpt>
<trkpt lat="51.796703" lon="03.901539"><ele>-7</ele><time>2023-12-06T11:06:06Z</time><name>PT2431</name></trkpt>
<trkpt lat="51.796691" lon="03.901541"><ele>-6.8</ele><time>2023-12-06T11:06:07Z</time><name>PT2432</name></trkpt>
<trkpt lat="51.796680" lon="03.901539"><ele>-6.8</ele><time>2023-12-06T11:06:08Z</time><name>PT2433</name></trkpt>
<trkpt lat="51.796669" lon="03.901534"><ele>-6.8</ele><time>2023-12-06T11:06:09Z</time><name>PT2434</name></trkpt>
<trkpt lat="51.796658" lon="03.901532"><ele>-6.6</ele><time>2023-12-06T11:06:10Z</time><name>PT2435</name></trkpt>
<trkpt lat="51.796646" lon="03.901533"><ele>-6.7</ele><time>2023-12-06T11:06:11Z</time><name>PT2436</name></trkpt>
<trkpt lat="51.796634" lon="03.901535"><ele>-6.9</ele><time>2023-12-06T11:06:12Z</time><name>PT2437</name></trkpt>
<trkpt lat="51.796623" lon="03.901535"><ele>-6.7</ele><time>2023-12-06T11:06:13Z</time><name>PT2438</name></trkpt>
<trkpt lat="51.796611" lon="03.901536"><ele>-6.9</ele><time>2023-12-06T11:06:14Z</time><name>PT2439</name></trkpt>
<trkpt lat="51.796601" lon="03.901537"><ele>-7</ele><time>2023-12-06T11:06:15Z</time><name>PT2440</name></trkpt>
<trkpt lat="51.796590" lon="03.901538"><ele>-7</ele><time>2023-12-06T11:06:16Z</time><name>PT2441</name></trkpt>
<trkpt lat="51.796577" lon="03.901539"><ele>-7</ele><time>2023-12-06T11:06:17Z</time><name>PT2442</name></trkpt>
<trkpt lat="51.796565" lon="03.901544"><ele>-7</ele><time>2023-12-06T11:06:18Z</time><name>PT2443</name></trkpt>
<trkpt lat="51.796553" lon="03.901547"><ele>-6.8</ele><time>2023-12-06T11:06:19Z</time><name>PT2444</name></trkpt>
<trkpt lat="51.796542" lon="03.901549"><ele>-6.6</ele><time>2023-12-06T11:06:20Z</time><name>PT2445</name></trkpt>
<trkpt lat="51.796530" lon="03.901553"><ele>-6.7</ele><time>2023-12-06T11:06:21Z</time><name>PT2446</name></trkpt>
<trkpt lat="51.796520" lon="03.901556"><ele>-6.6</ele><time>2023-12-06T11:06:22Z</time><name>PT2447</name></trkpt>
<trkpt lat="51.796510" lon="03.901556"><ele>-6.6</ele><time>2023-12-06T11:06:23Z</time><name>PT2448</name></trkpt>
<trkpt lat="51.796498" lon="03.901560"><ele>-6.7</ele><time>2023-12-06T11:06:24Z</time><name>PT2449</name></trkpt>
<trkpt lat="51.796489" lon="03.901564"><ele>-6.8</ele><time>2023-12-06T11:06:25Z</time><name>PT2450</name></trkpt>
<trkpt lat="51.796477" lon="03.901564"><ele>-7</ele><time>2023-12-06T11:06:26Z</time><name>PT2451</name></trkpt>
<trkpt lat="51.796464" lon="03.901565"><ele>-7</ele><time>2023-12-06T11:06:27Z</time><name>PT2452</name></trkpt>
<trkpt lat="51.796453" lon="03.901565"><ele>-6.9</ele><time>2023-12-06T11:06:28Z</time><name>PT2453</name></trkpt>
<trkpt lat="51.796440" lon="03.901563"><ele>-7</ele><time>2023-12-06T11:06:29Z</time><name>PT2454</name></trkpt>
<trkpt lat="51.796430" lon="03.901559"><ele>-7</ele><time>2023-12-06T11:06:30Z</time><name>PT2455</name></trkpt>
<trkpt lat="51.796423" lon="03.901557"><ele>-7</ele><time>2023-12-06T11:06:31Z</time><name>PT2456</name></trkpt>
<trkpt lat="51.796415" lon="03.901559"><ele>-7.1</ele><time>2023-12-06T11:06:32Z</time><name>PT2457</name></trkpt>
<trkpt lat="51.796407" lon="03.901564"><ele>-7.2</ele><time>2023-12-06T11:06:33Z</time><name>PT2458</name></trkpt>
<trkpt lat="51.796400" lon="03.901569"><ele>-7.1</ele><time>2023-12-06T11:06:34Z</time><name>PT2459</name></trkpt>
<trkpt lat="51.796395" lon="03.901572"><ele>-7</ele><time>2023-12-06T11:06:35Z</time><name>PT2460</name></trkpt>
<trkpt lat="51.796391" lon="03.901575"><ele>-7</ele><time>2023-12-06T11:06:36Z</time><name>PT2461</name></trkpt>
<trkpt lat="51.796393" lon="03.901568"><ele>-6.6</ele><time>2023-12-06T11:06:48Z</time><name>PT2462</name></trkpt>
<trkpt lat="51.796394" lon="03.901568"><ele>-6.6</ele><time>2023-12-06T11:06:49Z</time><name>PT2463</name></trkpt>
<trkpt lat="51.796394" lon="03.901569"><ele>-6.8</ele><time>2023-12-06T11:06:50Z</time><name>PT2464</name></trkpt>
<trkpt lat="51.796391" lon="03.901575"><ele>-7</ele><time>2023-12-06T11:06:58Z</time><name>PT2465</name></trkpt>
<trkpt lat="51.796387" lon="03.901582"><ele>-7</ele><time>2023-12-06T11:06:59Z</time><name>PT2466</name></trkpt>
<trkpt lat="51.796385" lon="03.901585"><ele>-6.8</ele><time>2023-12-06T11:07:00Z</time><name>PT2467</name></trkpt>
<trkpt lat="51.796374" lon="03.901582"><ele>-6.6</ele><time>2023-12-06T11:07:15Z</time><name>PT2468</name></trkpt>
<trkpt lat="51.796361" lon="03.901583"><ele>-6.5</ele><time>2023-12-06T11:07:16Z</time><name>PT2469</name></trkpt>
<trkpt lat="51.796354" lon="03.901582"><ele>-6.8</ele><time>2023-12-06T11:07:17Z</time><name>PT2470</name></trkpt>
<trkpt lat="51.796333" lon="03.901592"><ele>-6.9</ele><time>2023-12-06T11:07:18Z</time><name>PT2471</name></trkpt>
<trkpt lat="51.796315" lon="03.901597"><ele>-6.9</ele><time>2023-12-06T11:07:19Z</time><name>PT2472</name></trkpt>
<trkpt lat="51.796307" lon="03.901596"><ele>-6.8</ele><time>2023-12-06T11:07:20Z</time><name>PT2473</name></trkpt>
<trkpt lat="51.796298" lon="03.901593"><ele>-6.8</ele><time>2023-12-06T11:07:21Z</time><name>PT2474</name></trkpt>
<trkpt lat="51.796291" lon="03.901606"><ele>-6.7</ele><time>2023-12-06T11:07:22Z</time><name>PT2475</name></trkpt>
<trkpt lat="51.796276" lon="03.901595"><ele>-6.6</ele><time>2023-12-06T11:07:23Z</time><name>PT2476</name></trkpt>
<trkpt lat="51.796260" lon="03.901588"><ele>-6.6</ele><time>2023-12-06T11:07:24Z</time><name>PT2477</name></trkpt>
<trkpt lat="51.796247" lon="03.901583"><ele>-6.5</ele><time>2023-12-06T11:07:25Z</time><name>PT2478</name></trkpt>
<trkpt lat="51.796227" lon="03.901588"><ele>-6.7</ele><time>2023-12-06T11:07:26Z</time><name>PT2479</name></trkpt>
<trkpt lat="51.796210" lon="03.901586"><ele>-6.8</ele><time>2023-12-06T11:07:27Z</time><name>PT2480</name></trkpt>
<trkpt lat="51.796199" lon="03.901587"><ele>-6.7</ele><time>2023-12-06T11:07:28Z</time><name>PT2481</name></trkpt>
<trkpt lat="51.796188" lon="03.901588"><ele>-6.8</ele><time>2023-12-06T11:07:29Z</time><name>PT2482</name></trkpt>
<trkpt lat="51.796176" lon="03.901587"><ele>-6.8</ele><time>2023-12-06T11:07:30Z</time><name>PT2483</name></trkpt>
<trkpt lat="51.796164" lon="03.901588"><ele>-6.8</ele><time>2023-12-06T11:07:31Z</time><name>PT2484</name></trkpt>
<trkpt lat="51.796153" lon="03.901591"><ele>-6.7</ele><time>2023-12-06T11:07:32Z</time><name>PT2485</name></trkpt>
<trkpt lat="51.796143" lon="03.901593"><ele>-6.9</ele><time>2023-12-06T11:07:33Z</time><name>PT2486</name></trkpt>
<trkpt lat="51.796132" lon="03.901593"><ele>-6.9</ele><time>2023-12-06T11:07:34Z</time><name>PT2487</name></trkpt>
<trkpt lat="51.796121" lon="03.901592"><ele>-6.7</ele><time>2023-12-06T11:07:35Z</time><name>PT2488</name></trkpt>
<trkpt lat="51.796109" lon="03.901592"><ele>-6.9</ele><time>2023-12-06T11:07:36Z</time><name>PT2489</name></trkpt>
<trkpt lat="51.796101" lon="03.901590"><ele>-6.7</ele><time>2023-12-06T11:07:37Z</time><name>PT2490</name></trkpt>
<trkpt lat="51.796092" lon="03.901593"><ele>-6.5</ele><time>2023-12-06T11:07:38Z</time><name>PT2491</name></trkpt>
<trkpt lat="51.796084" lon="03.901589"><ele>-6.5</ele><time>2023-12-06T11:07:39Z</time><name>PT2492</name></trkpt>
<trkpt lat="51.796067" lon="03.901600"><ele>-6.5</ele><time>2023-12-06T11:07:40Z</time><name>PT2493</name></trkpt>
<trkpt lat="51.796056" lon="03.901605"><ele>-6.4</ele><time>2023-12-06T11:07:41Z</time><name>PT2494</name></trkpt>
<trkpt lat="51.796044" lon="03.901608"><ele>-6.3</ele><time>2023-12-06T11:07:42Z</time><name>PT2495</name></trkpt>
<trkpt lat="51.796031" lon="03.901610"><ele>-6.4</ele><time>2023-12-06T11:07:43Z</time><name>PT2496</name></trkpt>
<trkpt lat="51.796020" lon="03.901607"><ele>-6.5</ele><time>2023-12-06T11:07:44Z</time><name>PT2497</name></trkpt>
<trkpt lat="51.796011" lon="03.901602"><ele>-6.4</ele><time>2023-12-06T11:07:45Z</time><name>PT2498</name></trkpt>
<trkpt lat="51.796001" lon="03.901597"><ele>-6.4</ele><time>2023-12-06T11:07:46Z</time><name>PT2499</name></trkpt>
<trkpt lat="51.795991" lon="03.901590"><ele>-6.3</ele><time>2023-12-06T11:07:47Z</time><name>PT2500</name></trkpt>
<trkpt lat="51.795979" lon="03.901583"><ele>-6.1</ele><time>2023-12-06T11:07:48Z</time><name>PT2501</name></trkpt>
<trkpt lat="51.795968" lon="03.901574"><ele>-6.3</ele><time>2023-12-06T11:07:49Z</time><name>PT2502</name></trkpt>
<trkpt lat="51.795960" lon="03.901566"><ele>-6.4</ele><time>2023-12-06T11:07:50Z</time><name>PT2503</name></trkpt>
<trkpt lat="51.795955" lon="03.901554"><ele>-6.2</ele><time>2023-12-06T11:07:51Z</time><name>PT2504</name></trkpt>
<trkpt lat="51.795950" lon="03.901541"><ele>-6.2</ele><time>2023-12-06T11:07:52Z</time><name>PT2505</name></trkpt>
<trkpt lat="51.795947" lon="03.901528"><ele>-6.1</ele><time>2023-12-06T11:07:53Z</time><name>PT2506</name></trkpt>
<trkpt lat="51.795946" lon="03.901511"><ele>-6.2</ele><time>2023-12-06T11:07:54Z</time><name>PT2507</name></trkpt>
<trkpt lat="51.795942" lon="03.901493"><ele>-6.1</ele><time>2023-12-06T11:07:55Z</time><name>PT2508</name></trkpt>
<trkpt lat="51.795939" lon="03.901479"><ele>-6.2</ele><time>2023-12-06T11:07:56Z</time><name>PT2509</name></trkpt>
<trkpt lat="51.795937" lon="03.901462"><ele>-6.2</ele><time>2023-12-06T11:07:57Z</time><name>PT2510</name></trkpt>
<trkpt lat="51.795938" lon="03.901446"><ele>-6</ele><time>2023-12-06T11:07:58Z</time><name>PT2511</name></trkpt>
<trkpt lat="51.795936" lon="03.901429"><ele>-5.8</ele><time>2023-12-06T11:07:59Z</time><name>PT2512</name></trkpt>
<trkpt lat="51.795933" lon="03.901413"><ele>-5.9</ele><time>2023-12-06T11:08:00Z</time><name>PT2513</name></trkpt>
<trkpt lat="51.795930" lon="03.901397"><ele>-5.9</ele><time>2023-12-06T11:08:01Z</time><name>PT2514</name></trkpt>
<trkpt lat="51.795927" lon="03.901380"><ele>-5.9</ele><time>2023-12-06T11:08:02Z</time><name>PT2515</name></trkpt>
<trkpt lat="51.795929" lon="03.901363"><ele>-6</ele><time>2023-12-06T11:08:03Z</time><name>PT2516</name></trkpt>
<trkpt lat="51.795928" lon="03.901348"><ele>-5.9</ele><time>2023-12-06T11:08:04Z</time><name>PT2517</name></trkpt>
<trkpt lat="51.795925" lon="03.901332"><ele>-6</ele><time>2023-12-06T11:08:05Z</time><name>PT2518</name></trkpt>
<trkpt lat="51.795927" lon="03.901315"><ele>-6.2</ele><time>2023-12-06T11:08:06Z</time><name>PT2519</name></trkpt>
<trkpt lat="51.795928" lon="03.901296"><ele>-6.3</ele><time>2023-12-06T11:08:07Z</time><name>PT2520</name></trkpt>
<trkpt lat="51.795928" lon="03.901279"><ele>-6.5</ele><time>2023-12-06T11:08:08Z</time><name>PT2521</name></trkpt>
<trkpt lat="51.795928" lon="03.901263"><ele>-6.5</ele><time>2023-12-06T11:08:09Z</time><name>PT2522</name></trkpt>
<trkpt lat="51.795928" lon="03.901254"><ele>-6.5</ele><time>2023-12-06T11:08:10Z</time><name>PT2523</name></trkpt>
<trkpt lat="51.795928" lon="03.901250"><ele>-6.3</ele><time>2023-12-06T11:08:11Z</time><name>PT2524</name></trkpt>
<trkpt lat="51.795928" lon="03.901248"><ele>-6.2</ele><time>2023-12-06T11:08:12Z</time><name>PT2525</name></trkpt>
<trkpt lat="51.795930" lon="03.901248"><ele>-6.1</ele><time>2023-12-06T11:08:13Z</time><name>PT2526</name></trkpt>
<trkpt lat="51.795931" lon="03.901239"><ele>-6.3</ele><time>2023-12-06T11:08:18Z</time><name>PT2527</name></trkpt>
<trkpt lat="51.795932" lon="03.901223"><ele>-6.3</ele><time>2023-12-06T11:08:19Z</time><name>PT2528</name></trkpt>
<trkpt lat="51.795932" lon="03.901199"><ele>-6.5</ele><time>2023-12-06T11:08:20Z</time><name>PT2529</name></trkpt>
<trkpt lat="51.795932" lon="03.901179"><ele>-6.4</ele><time>2023-12-06T11:08:21Z</time><name>PT2530</name></trkpt>
<trkpt lat="51.795935" lon="03.901160"><ele>-6.5</ele><time>2023-12-06T11:08:22Z</time><name>PT2531</name></trkpt>
<trkpt lat="51.795938" lon="03.901142"><ele>-6.5</ele><time>2023-12-06T11:08:23Z</time><name>PT2532</name></trkpt>
<trkpt lat="51.795938" lon="03.901127"><ele>-6.4</ele><time>2023-12-06T11:08:24Z</time><name>PT2533</name></trkpt>
<trkpt lat="51.795938" lon="03.901108"><ele>-6.3</ele><time>2023-12-06T11:08:25Z</time><name>PT2534</name></trkpt>
<trkpt lat="51.795937" lon="03.901088"><ele>-6.4</ele><time>2023-12-06T11:08:26Z</time><name>PT2535</name></trkpt>
<trkpt lat="51.795937" lon="03.901069"><ele>-6.5</ele><time>2023-12-06T11:08:27Z</time><name>PT2536</name></trkpt>
<trkpt lat="51.795937" lon="03.901054"><ele>-6.6</ele><time>2023-12-06T11:08:28Z</time><name>PT2537</name></trkpt>
<trkpt lat="51.795940" lon="03.901038"><ele>-6.6</ele><time>2023-12-06T11:08:29Z</time><name>PT2538</name></trkpt>
<trkpt lat="51.795940" lon="03.901019"><ele>-6.6</ele><time>2023-12-06T11:08:30Z</time><name>PT2539</name></trkpt>
<trkpt lat="51.795938" lon="03.901001"><ele>-6.5</ele><time>2023-12-06T11:08:31Z</time><name>PT2540</name></trkpt>
<trkpt lat="51.795939" lon="03.900983"><ele>-6.4</ele><time>2023-12-06T11:08:32Z</time><name>PT2541</name></trkpt>
<trkpt lat="51.795941" lon="03.900967"><ele>-6.4</ele><time>2023-12-06T11:08:33Z</time><name>PT2542</name></trkpt>
<trkpt lat="51.795940" lon="03.900951"><ele>-6.4</ele><time>2023-12-06T11:08:34Z</time><name>PT2543</name></trkpt>
<trkpt lat="51.795940" lon="03.900937"><ele>-6.5</ele><time>2023-12-06T11:08:35Z</time><name>PT2544</name></trkpt>
<trkpt lat="51.795940" lon="03.900922"><ele>-6.5</ele><time>2023-12-06T11:08:36Z</time><name>PT2545</name></trkpt>
<trkpt lat="51.795939" lon="03.900907"><ele>-6.5</ele><time>2023-12-06T11:08:37Z</time><name>PT2546</name></trkpt>
<trkpt lat="51.795941" lon="03.900891"><ele>-6.5</ele><time>2023-12-06T11:08:38Z</time><name>PT2547</name></trkpt>
<trkpt lat="51.795941" lon="03.900876"><ele>-6.5</ele><time>2023-12-06T11:08:39Z</time><name>PT2548</name></trkpt>
<trkpt lat="51.795941" lon="03.900859"><ele>-6.5</ele><time>2023-12-06T11:08:40Z</time><name>PT2549</name></trkpt>
<trkpt lat="51.795939" lon="03.900843"><ele>-6.6</ele><time>2023-12-06T11:08:41Z</time><name>PT2550</name></trkpt>
<trkpt lat="51.795936" lon="03.900825"><ele>-6.5</ele><time>2023-12-06T11:08:42Z</time><name>PT2551</name></trkpt>
<trkpt lat="51.795935" lon="03.900806"><ele>-6.7</ele><time>2023-12-06T11:08:43Z</time><name>PT2552</name></trkpt>
<trkpt lat="51.795935" lon="03.900786"><ele>-6.7</ele><time>2023-12-06T11:08:44Z</time><name>PT2553</name></trkpt>
<trkpt lat="51.795930" lon="03.900767"><ele>-6.8</ele><time>2023-12-06T11:08:45Z</time><name>PT2554</name></trkpt>
<trkpt lat="51.795924" lon="03.900745"><ele>-6.8</ele><time>2023-12-06T11:08:46Z</time><name>PT2555</name></trkpt>
<trkpt lat="51.795926" lon="03.900725"><ele>-6.9</ele><time>2023-12-06T11:08:47Z</time><name>PT2556</name></trkpt>
<trkpt lat="51.795926" lon="03.900705"><ele>-6.5</ele><time>2023-12-06T11:08:48Z</time><name>PT2557</name></trkpt>
<trkpt lat="51.795928" lon="03.900682"><ele>-6.6</ele><time>2023-12-06T11:08:49Z</time><name>PT2558</name></trkpt>
<trkpt lat="51.795930" lon="03.900661"><ele>-6.5</ele><time>2023-12-06T11:08:50Z</time><name>PT2559</name></trkpt>
<trkpt lat="51.795928" lon="03.900641"><ele>-6.6</ele><time>2023-12-06T11:08:51Z</time><name>PT2560</name></trkpt>
<trkpt lat="51.795927" lon="03.900621"><ele>-6.7</ele><time>2023-12-06T11:08:52Z</time><name>PT2561</name></trkpt>
<trkpt lat="51.795927" lon="03.900603"><ele>-6.7</ele><time>2023-12-06T11:08:53Z</time><name>PT2562</name></trkpt>
<trkpt lat="51.795925" lon="03.900583"><ele>-6.7</ele><time>2023-12-06T11:08:54Z</time><name>PT2563</name></trkpt>
<trkpt lat="51.795923" lon="03.900565"><ele>-7</ele><time>2023-12-06T11:08:55Z</time><name>PT2564</name></trkpt>
<trkpt lat="51.795922" lon="03.900548"><ele>-7</ele><time>2023-12-06T11:08:56Z</time><name>PT2565</name></trkpt>
<trkpt lat="51.795921" lon="03.900530"><ele>-7.1</ele><time>2023-12-06T11:08:57Z</time><name>PT2566</name></trkpt>
<trkpt lat="51.795916" lon="03.900513"><ele>-7.1</ele><time>2023-12-06T11:08:58Z</time><name>PT2567</name></trkpt>
<trkpt lat="51.795914" lon="03.900496"><ele>-7</ele><time>2023-12-06T11:08:59Z</time><name>PT2568</name></trkpt>
<trkpt lat="51.795912" lon="03.900478"><ele>-6.9</ele><time>2023-12-06T11:09:00Z</time><name>PT2569</name></trkpt>
<trkpt lat="51.795909" lon="03.900453"><ele>-6.9</ele><time>2023-12-06T11:09:01Z</time><name>PT2570</name></trkpt>
<trkpt lat="51.795907" lon="03.900434"><ele>-6.7</ele><time>2023-12-06T11:09:02Z</time><name>PT2571</name></trkpt>
<trkpt lat="51.795907" lon="03.900415"><ele>-6.7</ele><time>2023-12-06T11:09:03Z</time><name>PT2572</name></trkpt>
<trkpt lat="51.795904" lon="03.900395"><ele>-6.7</ele><time>2023-12-06T11:09:04Z</time><name>PT2573</name></trkpt>
<trkpt lat="51.795902" lon="03.900376"><ele>-6.7</ele><time>2023-12-06T11:09:05Z</time><name>PT2574</name></trkpt>
<trkpt lat="51.795899" lon="03.900357"><ele>-6.7</ele><time>2023-12-06T11:09:06Z</time><name>PT2575</name></trkpt>
<trkpt lat="51.795897" lon="03.900338"><ele>-6.8</ele><time>2023-12-06T11:09:07Z</time><name>PT2576</name></trkpt>
<trkpt lat="51.795893" lon="03.900320"><ele>-6.8</ele><time>2023-12-06T11:09:08Z</time><name>PT2577</name></trkpt>
<trkpt lat="51.795895" lon="03.900304"><ele>-6.6</ele><time>2023-12-06T11:09:09Z</time><name>PT2578</name></trkpt>
<trkpt lat="51.795896" lon="03.900289"><ele>-6.6</ele><time>2023-12-06T11:09:10Z</time><name>PT2579</name></trkpt>
<trkpt lat="51.795897" lon="03.900273"><ele>-6.5</ele><time>2023-12-06T11:09:11Z</time><name>PT2580</name></trkpt>
<trkpt lat="51.795897" lon="03.900254"><ele>-6.5</ele><time>2023-12-06T11:09:12Z</time><name>PT2581</name></trkpt>
<trkpt lat="51.795898" lon="03.900236"><ele>-6.5</ele><time>2023-12-06T11:09:13Z</time><name>PT2582</name></trkpt>
<trkpt lat="51.795898" lon="03.900217"><ele>-6.6</ele><time>2023-12-06T11:09:14Z</time><name>PT2583</name></trkpt>
<trkpt lat="51.795897" lon="03.900198"><ele>-6.7</ele><time>2023-12-06T11:09:15Z</time><name>PT2584</name></trkpt>
<trkpt lat="51.795896" lon="03.900183"><ele>-6.8</ele><time>2023-12-06T11:09:16Z</time><name>PT2585</name></trkpt>
<trkpt lat="51.795897" lon="03.900166"><ele>-6.8</ele><time>2023-12-06T11:09:17Z</time><name>PT2586</name></trkpt>
<trkpt lat="51.795897" lon="03.900148"><ele>-6.8</ele><time>2023-12-06T11:09:18Z</time><name>PT2587</name></trkpt>
<trkpt lat="51.795893" lon="03.900126"><ele>-6.8</ele><time>2023-12-06T11:09:19Z</time><name>PT2588</name></trkpt>
<trkpt lat="51.795893" lon="03.900105"><ele>-7</ele><time>2023-12-06T11:09:20Z</time><name>PT2589</name></trkpt>
<trkpt lat="51.795885" lon="03.900083"><ele>-7</ele><time>2023-12-06T11:09:21Z</time><name>PT2590</name></trkpt>
<trkpt lat="51.795882" lon="03.900066"><ele>-7</ele><time>2023-12-06T11:09:22Z</time><name>PT2591</name></trkpt>
<trkpt lat="51.795880" lon="03.900049"><ele>-7</ele><time>2023-12-06T11:09:23Z</time><name>PT2592</name></trkpt>
<trkpt lat="51.795878" lon="03.900032"><ele>-7</ele><time>2023-12-06T11:09:24Z</time><name>PT2593</name></trkpt>
<trkpt lat="51.795879" lon="03.900016"><ele>-6.9</ele><time>2023-12-06T11:09:25Z</time><name>PT2594</name></trkpt>
<trkpt lat="51.795878" lon="03.900002"><ele>-6.7</ele><time>2023-12-06T11:09:26Z</time><name>PT2595</name></trkpt>
<trkpt lat="51.795877" lon="03.899985"><ele>-6.7</ele><time>2023-12-06T11:09:27Z</time><name>PT2596</name></trkpt>
<trkpt lat="51.795875" lon="03.899968"><ele>-6.6</ele><time>2023-12-06T11:09:28Z</time><name>PT2597</name></trkpt>
<trkpt lat="51.795873" lon="03.899948"><ele>-6.7</ele><time>2023-12-06T11:09:29Z</time><name>PT2598</name></trkpt>
<trkpt lat="51.795873" lon="03.899931"><ele>-6.8</ele><time>2023-12-06T11:09:30Z</time><name>PT2599</name></trkpt>
<trkpt lat="51.795874" lon="03.899912"><ele>-6.8</ele><time>2023-12-06T11:09:31Z</time><name>PT2600</name></trkpt>
<trkpt lat="51.795873" lon="03.899894"><ele>-7</ele><time>2023-12-06T11:09:32Z</time><name>PT2601</name></trkpt>
<trkpt lat="51.795872" lon="03.899872"><ele>-6.9</ele><time>2023-12-06T11:09:33Z</time><name>PT2602</name></trkpt>
<trkpt lat="51.795873" lon="03.899856"><ele>-6.9</ele><time>2023-12-06T11:09:34Z</time><name>PT2603</name></trkpt>
<trkpt lat="51.795874" lon="03.899841"><ele>-7</ele><time>2023-12-06T11:09:35Z</time><name>PT2604</name></trkpt>
<trkpt lat="51.795873" lon="03.899825"><ele>-6.9</ele><time>2023-12-06T11:09:36Z</time><name>PT2605</name></trkpt>
<trkpt lat="51.795872" lon="03.899806"><ele>-7</ele><time>2023-12-06T11:09:37Z</time><name>PT2606</name></trkpt>
<trkpt lat="51.795872" lon="03.899787"><ele>-7</ele><time>2023-12-06T11:09:38Z</time><name>PT2607</name></trkpt>
<trkpt lat="51.795872" lon="03.899766"><ele>-7</ele><time>2023-12-06T11:09:39Z</time><name>PT2608</name></trkpt>
<trkpt lat="51.795876" lon="03.899745"><ele>-6.9</ele><time>2023-12-06T11:09:40Z</time><name>PT2609</name></trkpt>
<trkpt lat="51.795873" lon="03.899722"><ele>-7</ele><time>2023-12-06T11:09:41Z</time><name>PT2610</name></trkpt>
<trkpt lat="51.795873" lon="03.899701"><ele>-6.9</ele><time>2023-12-06T11:09:42Z</time><name>PT2611</name></trkpt>
<trkpt lat="51.795874" lon="03.899682"><ele>-6.8</ele><time>2023-12-06T11:09:43Z</time><name>PT2612</name></trkpt>
<trkpt lat="51.795873" lon="03.899663"><ele>-6.8</ele><time>2023-12-06T11:09:44Z</time><name>PT2613</name></trkpt>
<trkpt lat="51.795871" lon="03.899645"><ele>-6.8</ele><time>2023-12-06T11:09:45Z</time><name>PT2614</name></trkpt>
<trkpt lat="51.795868" lon="03.899628"><ele>-6.9</ele><time>2023-12-06T11:09:46Z</time><name>PT2615</name></trkpt>
<trkpt lat="51.795872" lon="03.899610"><ele>-6.9</ele><time>2023-12-06T11:09:47Z</time><name>PT2616</name></trkpt>
<trkpt lat="51.795872" lon="03.899590"><ele>-6.7</ele><time>2023-12-06T11:09:48Z</time><name>PT2617</name></trkpt>
<trkpt lat="51.795871" lon="03.899573"><ele>-6.7</ele><time>2023-12-06T11:09:49Z</time><name>PT2618</name></trkpt>
<trkpt lat="51.795872" lon="03.899555"><ele>-6.5</ele><time>2023-12-06T11:09:50Z</time><name>PT2619</name></trkpt>
<trkpt lat="51.795872" lon="03.899534"><ele>-6.7</ele><time>2023-12-06T11:09:51Z</time><name>PT2620</name></trkpt>
<trkpt lat="51.795870" lon="03.899513"><ele>-6.8</ele><time>2023-12-06T11:09:52Z</time><name>PT2621</name></trkpt>
<trkpt lat="51.795871" lon="03.899493"><ele>-6.7</ele><time>2023-12-06T11:09:53Z</time><name>PT2622</name></trkpt>
<trkpt lat="51.795872" lon="03.899474"><ele>-6.7</ele><time>2023-12-06T11:09:54Z</time><name>PT2623</name></trkpt>
<trkpt lat="51.795870" lon="03.899455"><ele>-6.8</ele><time>2023-12-06T11:09:55Z</time><name>PT2624</name></trkpt>
<trkpt lat="51.795874" lon="03.899440"><ele>-6.7</ele><time>2023-12-06T11:09:56Z</time><name>PT2625</name></trkpt>
<trkpt lat="51.795872" lon="03.899422"><ele>-6.6</ele><time>2023-12-06T11:09:57Z</time><name>PT2626</name></trkpt>
<trkpt lat="51.795871" lon="03.899405"><ele>-6.8</ele><time>2023-12-06T11:09:58Z</time><name>PT2627</name></trkpt>
<trkpt lat="51.795872" lon="03.899388"><ele>-6.8</ele><time>2023-12-06T11:09:59Z</time><name>PT2628</name></trkpt>
<trkpt lat="51.795866" lon="03.899368"><ele>-6.9</ele><time>2023-12-06T11:10:00Z</time><name>PT2629</name></trkpt>
<trkpt lat="51.795864" lon="03.899348"><ele>-6.9</ele><time>2023-12-06T11:10:01Z</time><name>PT2630</name></trkpt>
<trkpt lat="51.795863" lon="03.899328"><ele>-7</ele><time>2023-12-06T11:10:02Z</time><name>PT2631</name></trkpt>
<trkpt lat="51.795862" lon="03.899305"><ele>-7</ele><time>2023-12-06T11:10:03Z</time><name>PT2632</name></trkpt>
<trkpt lat="51.795861" lon="03.899284"><ele>-7</ele><time>2023-12-06T11:10:04Z</time><name>PT2633</name></trkpt>
<trkpt lat="51.795859" lon="03.899258"><ele>-6.9</ele><time>2023-12-06T11:10:05Z</time><name>PT2634</name></trkpt>
<trkpt lat="51.795860" lon="03.899240"><ele>-6.7</ele><time>2023-12-06T11:10:06Z</time><name>PT2635</name></trkpt>
<trkpt lat="51.795863" lon="03.899222"><ele>-6.8</ele><time>2023-12-06T11:10:07Z</time><name>PT2636</name></trkpt>
<trkpt lat="51.795865" lon="03.899204"><ele>-6.7</ele><time>2023-12-06T11:10:08Z</time><name>PT2637</name></trkpt>
<trkpt lat="51.795864" lon="03.899184"><ele>-6.6</ele><time>2023-12-06T11:10:09Z</time><name>PT2638</name></trkpt>
<trkpt lat="51.795863" lon="03.899166"><ele>-6.6</ele><time>2023-12-06T11:10:10Z</time><name>PT2639</name></trkpt>
<trkpt lat="51.795864" lon="03.899149"><ele>-6.8</ele><time>2023-12-06T11:10:11Z</time><name>PT2640</name></trkpt>
<trkpt lat="51.795864" lon="03.899131"><ele>-7</ele><time>2023-12-06T11:10:12Z</time><name>PT2641</name></trkpt>
<trkpt lat="51.795865" lon="03.899112"><ele>-7</ele><time>2023-12-06T11:10:13Z</time><name>PT2642</name></trkpt>
<trkpt lat="51.795864" lon="03.899094"><ele>-7</ele><time>2023-12-06T11:10:14Z</time><name>PT2643</name></trkpt>
<trkpt lat="51.795860" lon="03.899071"><ele>-6.9</ele><time>2023-12-06T11:10:15Z</time><name>PT2644</name></trkpt>
<trkpt lat="51.795862" lon="03.899050"><ele>-6.7</ele><time>2023-12-06T11:10:16Z</time><name>PT2645</name></trkpt>
<trkpt lat="51.795862" lon="03.899030"><ele>-6.6</ele><time>2023-12-06T11:10:17Z</time><name>PT2646</name></trkpt>
<trkpt lat="51.795863" lon="03.899015"><ele>-6.8</ele><time>2023-12-06T11:10:18Z</time><name>PT2647</name></trkpt>
<trkpt lat="51.795863" lon="03.898995"><ele>-6.8</ele><time>2023-12-06T11:10:19Z</time><name>PT2648</name></trkpt>
<trkpt lat="51.795862" lon="03.898974"><ele>-6.8</ele><time>2023-12-06T11:10:20Z</time><name>PT2649</name></trkpt>
<trkpt lat="51.795860" lon="03.898957"><ele>-6.9</ele><time>2023-12-06T11:10:21Z</time><name>PT2650</name></trkpt>
<trkpt lat="51.795860" lon="03.898941"><ele>-6.8</ele><time>2023-12-06T11:10:22Z</time><name>PT2651</name></trkpt>
<trkpt lat="51.795859" lon="03.898922"><ele>-6.7</ele><time>2023-12-06T11:10:23Z</time><name>PT2652</name></trkpt>
<trkpt lat="51.795857" lon="03.898904"><ele>-6.9</ele><time>2023-12-06T11:10:24Z</time><name>PT2653</name></trkpt>
<trkpt lat="51.795854" lon="03.898884"><ele>-6.9</ele><time>2023-12-06T11:10:25Z</time><name>PT2654</name></trkpt>
<trkpt lat="51.795851" lon="03.898864"><ele>-6.7</ele><time>2023-12-06T11:10:26Z</time><name>PT2655</name></trkpt>
<trkpt lat="51.795848" lon="03.898842"><ele>-6.5</ele><time>2023-12-06T11:10:27Z</time><name>PT2656</name></trkpt>
<trkpt lat="51.795849" lon="03.898821"><ele>-6.5</ele><time>2023-12-06T11:10:28Z</time><name>PT2657</name></trkpt>
<trkpt lat="51.795849" lon="03.898797"><ele>-6.5</ele><time>2023-12-06T11:10:29Z</time><name>PT2658</name></trkpt>
<trkpt lat="51.795849" lon="03.898778"><ele>-6.5</ele><time>2023-12-06T11:10:30Z</time><name>PT2659</name></trkpt>
<trkpt lat="51.795845" lon="03.898751"><ele>-6.5</ele><time>2023-12-06T11:10:31Z</time><name>PT2660</name></trkpt>
<trkpt lat="51.795843" lon="03.898728"><ele>-6.6</ele><time>2023-12-06T11:10:32Z</time><name>PT2661</name></trkpt>
<trkpt lat="51.795842" lon="03.898709"><ele>-6.7</ele><time>2023-12-06T11:10:33Z</time><name>PT2662</name></trkpt>
<trkpt lat="51.795841" lon="03.898691"><ele>-6.7</ele><time>2023-12-06T11:10:34Z</time><name>PT2663</name></trkpt>
<trkpt lat="51.795839" lon="03.898672"><ele>-6.7</ele><time>2023-12-06T11:10:35Z</time><name>PT2664</name></trkpt>
<trkpt lat="51.795838" lon="03.898653"><ele>-6.6</ele><time>2023-12-06T11:10:36Z</time><name>PT2665</name></trkpt>
<trkpt lat="51.795838" lon="03.898635"><ele>-6.6</ele><time>2023-12-06T11:10:37Z</time><name>PT2666</name></trkpt>
<trkpt lat="51.795840" lon="03.898615"><ele>-6.5</ele><time>2023-12-06T11:10:38Z</time><name>PT2667</name></trkpt>
<trkpt lat="51.795839" lon="03.898593"><ele>-6.6</ele><time>2023-12-06T11:10:39Z</time><name>PT2668</name></trkpt>
<trkpt lat="51.795839" lon="03.898573"><ele>-6.7</ele><time>2023-12-06T11:10:40Z</time><name>PT2669</name></trkpt>
<trkpt lat="51.795837" lon="03.898551"><ele>-6.8</ele><time>2023-12-06T11:10:41Z</time><name>PT2670</name></trkpt>
<trkpt lat="51.795832" lon="03.898527"><ele>-6.9</ele><time>2023-12-06T11:10:42Z</time><name>PT2671</name></trkpt>
<trkpt lat="51.795829" lon="03.898508"><ele>-6.9</ele><time>2023-12-06T11:10:43Z</time><name>PT2672</name></trkpt>
<trkpt lat="51.795830" lon="03.898492"><ele>-7</ele><time>2023-12-06T11:10:44Z</time><name>PT2673</name></trkpt>
<trkpt lat="51.795832" lon="03.898473"><ele>-7</ele><time>2023-12-06T11:10:45Z</time><name>PT2674</name></trkpt>
<trkpt lat="51.795832" lon="03.898453"><ele>-7.1</ele><time>2023-12-06T11:10:46Z</time><name>PT2675</name></trkpt>
<trkpt lat="51.795832" lon="03.898433"><ele>-7.1</ele><time>2023-12-06T11:10:47Z</time><name>PT2676</name></trkpt>
<trkpt lat="51.795833" lon="03.898415"><ele>-7.1</ele><time>2023-12-06T11:10:48Z</time><name>PT2677</name></trkpt>
<trkpt lat="51.795833" lon="03.898397"><ele>-7.1</ele><time>2023-12-06T11:10:49Z</time><name>PT2678</name></trkpt>
<trkpt lat="51.795833" lon="03.898379"><ele>-7</ele><time>2023-12-06T11:10:50Z</time><name>PT2679</name></trkpt>
<trkpt lat="51.795830" lon="03.898361"><ele>-7.1</ele><time>2023-12-06T11:10:51Z</time><name>PT2680</name></trkpt>
<trkpt lat="51.795828" lon="03.898343"><ele>-7</ele><time>2023-12-06T11:10:52Z</time><name>PT2681</name></trkpt>
<trkpt lat="51.795827" lon="03.898326"><ele>-7</ele><time>2023-12-06T11:10:53Z</time><name>PT2682</name></trkpt>
<trkpt lat="51.795824" lon="03.898308"><ele>-7.1</ele><time>2023-12-06T11:10:54Z</time><name>PT2683</name></trkpt>
<trkpt lat="51.795823" lon="03.898287"><ele>-7</ele><time>2023-12-06T11:10:55Z</time><name>PT2684</name></trkpt>
<trkpt lat="51.795826" lon="03.898266"><ele>-7</ele><time>2023-12-06T11:10:56Z</time><name>PT2685</name></trkpt>
<trkpt lat="51.795826" lon="03.898246"><ele>-7</ele><time>2023-12-06T11:10:57Z</time><name>PT2686</name></trkpt>
<trkpt lat="51.795824" lon="03.898222"><ele>-6.9</ele><time>2023-12-06T11:10:58Z</time><name>PT2687</name></trkpt>
<trkpt lat="51.795825" lon="03.898204"><ele>-6.9</ele><time>2023-12-06T11:10:59Z</time><name>PT2688</name></trkpt>
<trkpt lat="51.795826" lon="03.898187"><ele>-7.1</ele><time>2023-12-06T11:11:00Z</time><name>PT2689</name></trkpt>
<trkpt lat="51.795825" lon="03.898169"><ele>-7</ele><time>2023-12-06T11:11:01Z</time><name>PT2690</name></trkpt>
<trkpt lat="51.795824" lon="03.898152"><ele>-7.2</ele><time>2023-12-06T11:11:02Z</time><name>PT2691</name></trkpt>
<trkpt lat="51.795831" lon="03.898136"><ele>-7.1</ele><time>2023-12-06T11:11:03Z</time><name>PT2692</name></trkpt>
<trkpt lat="51.795829" lon="03.898119"><ele>-7.1</ele><time>2023-12-06T11:11:04Z</time><name>PT2693</name></trkpt>
<trkpt lat="51.795827" lon="03.898102"><ele>-7.2</ele><time>2023-12-06T11:11:05Z</time><name>PT2694</name></trkpt>
<trkpt lat="51.795825" lon="03.898084"><ele>-7</ele><time>2023-12-06T11:11:06Z</time><name>PT2695</name></trkpt>
<trkpt lat="51.795827" lon="03.898062"><ele>-7.1</ele><time>2023-12-06T11:11:07Z</time><name>PT2696</name></trkpt>
<trkpt lat="51.795827" lon="03.898043"><ele>-7</ele><time>2023-12-06T11:11:08Z</time><name>PT2697</name></trkpt>
<trkpt lat="51.795825" lon="03.898023"><ele>-6.9</ele><time>2023-12-06T11:11:09Z</time><name>PT2698</name></trkpt>
<trkpt lat="51.795827" lon="03.898009"><ele>-7</ele><time>2023-12-06T11:11:10Z</time><name>PT2699</name></trkpt>
<trkpt lat="51.795826" lon="03.897997"><ele>-7</ele><time>2023-12-06T11:11:11Z</time><name>PT2700</name></trkpt>
<trkpt lat="51.795824" lon="03.897985"><ele>-6.7</ele><time>2023-12-06T11:11:12Z</time><name>PT2701</name></trkpt>
<trkpt lat="51.795828" lon="03.897970"><ele>-7</ele><time>2023-12-06T11:11:13Z</time><name>PT2702</name></trkpt>
<trkpt lat="51.795829" lon="03.897953"><ele>-6.9</ele><time>2023-12-06T11:11:14Z</time><name>PT2703</name></trkpt>
<trkpt lat="51.795829" lon="03.897936"><ele>-6.8</ele><time>2023-12-06T11:11:15Z</time><name>PT2704</name></trkpt>
<trkpt lat="51.795829" lon="03.897917"><ele>-7.1</ele><time>2023-12-06T11:11:16Z</time><name>PT2705</name></trkpt>
<trkpt lat="51.795830" lon="03.897898"><ele>-7</ele><time>2023-12-06T11:11:17Z</time><name>PT2706</name></trkpt>
<trkpt lat="51.795830" lon="03.897877"><ele>-7</ele><time>2023-12-06T11:11:18Z</time><name>PT2707</name></trkpt>
<trkpt lat="51.795827" lon="03.897857"><ele>-7</ele><time>2023-12-06T11:11:19Z</time><name>PT2708</name></trkpt>
<trkpt lat="51.795827" lon="03.897837"><ele>-6.9</ele><time>2023-12-06T11:11:20Z</time><name>PT2709</name></trkpt>
<trkpt lat="51.795827" lon="03.897818"><ele>-6.8</ele><time>2023-12-06T11:11:21Z</time><name>PT2710</name></trkpt>
<trkpt lat="51.795826" lon="03.897798"><ele>-7</ele><time>2023-12-06T11:11:22Z</time><name>PT2711</name></trkpt>
<trkpt lat="51.795823" lon="03.897778"><ele>-7</ele><time>2023-12-06T11:11:23Z</time><name>PT2712</name></trkpt>
<trkpt lat="51.795820" lon="03.897755"><ele>-6.9</ele><time>2023-12-06T11:11:24Z</time><name>PT2713</name></trkpt>
<trkpt lat="51.795818" lon="03.897736"><ele>-6.9</ele><time>2023-12-06T11:11:25Z</time><name>PT2714</name></trkpt>
<trkpt lat="51.795816" lon="03.897716"><ele>-6.5</ele><time>2023-12-06T11:11:26Z</time><name>PT2715</name></trkpt>
<trkpt lat="51.795814" lon="03.897696"><ele>-6.4</ele><time>2023-12-06T11:11:27Z</time><name>PT2716</name></trkpt>
<trkpt lat="51.795817" lon="03.897679"><ele>-6.5</ele><time>2023-12-06T11:11:28Z</time><name>PT2717</name></trkpt>
<trkpt lat="51.795818" lon="03.897660"><ele>-6.6</ele><time>2023-12-06T11:11:29Z</time><name>PT2718</name></trkpt>
<trkpt lat="51.795819" lon="03.897641"><ele>-6.6</ele><time>2023-12-06T11:11:30Z</time><name>PT2719</name></trkpt>
<trkpt lat="51.795817" lon="03.897623"><ele>-6.6</ele><time>2023-12-06T11:11:31Z</time><name>PT2720</name></trkpt>
<trkpt lat="51.795821" lon="03.897610"><ele>-6.7</ele><time>2023-12-06T11:11:32Z</time><name>PT2721</name></trkpt>
<trkpt lat="51.795820" lon="03.897595"><ele>-6.5</ele><time>2023-12-06T11:11:33Z</time><name>PT2722</name></trkpt>
<trkpt lat="51.795817" lon="03.897579"><ele>-6.5</ele><time>2023-12-06T11:11:34Z</time><name>PT2723</name></trkpt>
<trkpt lat="51.795813" lon="03.897562"><ele>-6.7</ele><time>2023-12-06T11:11:35Z</time><name>PT2724</name></trkpt>
<trkpt lat="51.795810" lon="03.897546"><ele>-6.6</ele><time>2023-12-06T11:11:36Z</time><name>PT2725</name></trkpt>
<trkpt lat="51.795807" lon="03.897527"><ele>-6.7</ele><time>2023-12-06T11:11:37Z</time><name>PT2726</name></trkpt>
<trkpt lat="51.795807" lon="03.897509"><ele>-6.8</ele><time>2023-12-06T11:11:38Z</time><name>PT2727</name></trkpt>
<trkpt lat="51.795807" lon="03.897492"><ele>-6.6</ele><time>2023-12-06T11:11:39Z</time><name>PT2728</name></trkpt>
<trkpt lat="51.795806" lon="03.897476"><ele>-6.7</ele><time>2023-12-06T11:11:40Z</time><name>PT2729</name></trkpt>
<trkpt lat="51.795804" lon="03.897457"><ele>-6.6</ele><time>2023-12-06T11:11:41Z</time><name>PT2730</name></trkpt>
<trkpt lat="51.795804" lon="03.897438"><ele>-6.5</ele><time>2023-12-06T11:11:42Z</time><name>PT2731</name></trkpt>
<trkpt lat="51.795801" lon="03.897416"><ele>-6.5</ele><time>2023-12-06T11:11:43Z</time><name>PT2732</name></trkpt>
<trkpt lat="51.795800" lon="03.897397"><ele>-6.4</ele><time>2023-12-06T11:11:44Z</time><name>PT2733</name></trkpt>
<trkpt lat="51.795809" lon="03.897383"><ele>-6.3</ele><time>2023-12-06T11:11:45Z</time><name>PT2734</name></trkpt>
<trkpt lat="51.795807" lon="03.897367"><ele>-6.4</ele><time>2023-12-06T11:11:46Z</time><name>PT2735</name></trkpt>
<trkpt lat="51.795806" lon="03.897350"><ele>-6.5</ele><time>2023-12-06T11:11:47Z</time><name>PT2736</name></trkpt>
<trkpt lat="51.795805" lon="03.897333"><ele>-6.3</ele><time>2023-12-06T11:11:48Z</time><name>PT2737</name></trkpt>
<trkpt lat="51.795804" lon="03.897313"><ele>-6.2</ele><time>2023-12-06T11:11:49Z</time><name>PT2738</name></trkpt>
<trkpt lat="51.795805" lon="03.897294"><ele>-6.3</ele><time>2023-12-06T11:11:50Z</time><name>PT2739</name></trkpt>
<trkpt lat="51.795804" lon="03.897275"><ele>-6.1</ele><time>2023-12-06T11:11:51Z</time><name>PT2740</name></trkpt>
<trkpt lat="51.795803" lon="03.897255"><ele>-6.3</ele><time>2023-12-06T11:11:52Z</time><name>PT2741</name></trkpt>
<trkpt lat="51.795802" lon="03.897237"><ele>-6.5</ele><time>2023-12-06T11:11:53Z</time><name>PT2742</name></trkpt>
<trkpt lat="51.795801" lon="03.897219"><ele>-6.4</ele><time>2023-12-06T11:11:54Z</time><name>PT2743</name></trkpt>
<trkpt lat="51.795798" lon="03.897198"><ele>-6.3</ele><time>2023-12-06T11:11:55Z</time><name>PT2744</name></trkpt>
<trkpt lat="51.795797" lon="03.897182"><ele>-6.3</ele><time>2023-12-06T11:11:56Z</time><name>PT2745</name></trkpt>
<trkpt lat="51.795794" lon="03.897163"><ele>-6.2</ele><time>2023-12-06T11:11:57Z</time><name>PT2746</name></trkpt>
<trkpt lat="51.795791" lon="03.897143"><ele>-6.2</ele><time>2023-12-06T11:11:58Z</time><name>PT2747</name></trkpt>
<trkpt lat="51.795792" lon="03.897125"><ele>-6.3</ele><time>2023-12-06T11:11:59Z</time><name>PT2748</name></trkpt>
<trkpt lat="51.795792" lon="03.897106"><ele>-6.3</ele><time>2023-12-06T11:12:00Z</time><name>PT2749</name></trkpt>
<trkpt lat="51.795792" lon="03.897085"><ele>-6.3</ele><time>2023-12-06T11:12:01Z</time><name>PT2750</name></trkpt>
<trkpt lat="51.795790" lon="03.897067"><ele>-6.1</ele><time>2023-12-06T11:12:02Z</time><name>PT2751</name></trkpt>
<trkpt lat="51.795789" lon="03.897049"><ele>-6.1</ele><time>2023-12-06T11:12:03Z</time><name>PT2752</name></trkpt>
<trkpt lat="51.795785" lon="03.897028"><ele>-6.1</ele><time>2023-12-06T11:12:04Z</time><name>PT2753</name></trkpt>
<trkpt lat="51.795784" lon="03.897011"><ele>-6.2</ele><time>2023-12-06T11:12:05Z</time><name>PT2754</name></trkpt>
<trkpt lat="51.795782" lon="03.896995"><ele>-6.2</ele><time>2023-12-06T11:12:06Z</time><name>PT2755</name></trkpt>
<trkpt lat="51.795779" lon="03.896980"><ele>-6.2</ele><time>2023-12-06T11:12:07Z</time><name>PT2756</name></trkpt>
<trkpt lat="51.795779" lon="03.896967"><ele>-6.3</ele><time>2023-12-06T11:12:08Z</time><name>PT2757</name></trkpt>
<trkpt lat="51.795782" lon="03.896953"><ele>-6.2</ele><time>2023-12-06T11:12:09Z</time><name>PT2758</name></trkpt>
<trkpt lat="51.795780" lon="03.896936"><ele>-6.2</ele><time>2023-12-06T11:12:10Z</time><name>PT2759</name></trkpt>
<trkpt lat="51.795780" lon="03.896921"><ele>-6.1</ele><time>2023-12-06T11:12:11Z</time><name>PT2760</name></trkpt>
<trkpt lat="51.795780" lon="03.896907"><ele>-6.1</ele><time>2023-12-06T11:12:12Z</time><name>PT2761</name></trkpt>
<trkpt lat="51.795779" lon="03.896894"><ele>-6.1</ele><time>2023-12-06T11:12:13Z</time><name>PT2762</name></trkpt>
<trkpt lat="51.795778" lon="03.896881"><ele>-6.1</ele><time>2023-12-06T11:12:14Z</time><name>PT2763</name></trkpt>
<trkpt lat="51.795776" lon="03.896875"><ele>-6.1</ele><time>2023-12-06T11:12:15Z</time><name>PT2764</name></trkpt>
<trkpt lat="51.795774" lon="03.896870"><ele>-6.1</ele><time>2023-12-06T11:12:16Z</time><name>PT2765</name></trkpt>
<trkpt lat="51.795770" lon="03.896863"><ele>-6</ele><time>2023-12-06T11:12:17Z</time><name>PT2766</name></trkpt>
<trkpt lat="51.795770" lon="03.896852"><ele>-5.9</ele><time>2023-12-06T11:12:22Z</time><name>PT2767</name></trkpt>
<trkpt lat="51.795770" lon="03.896830"><ele>-5.9</ele><time>2023-12-06T11:12:23Z</time><name>PT2768</name></trkpt>
<trkpt lat="51.795768" lon="03.896812"><ele>-6</ele><time>2023-12-06T11:12:24Z</time><name>PT2769</name></trkpt>
<trkpt lat="51.795765" lon="03.896791"><ele>-5.9</ele><time>2023-12-06T11:12:25Z</time><name>PT2770</name></trkpt>
<trkpt lat="51.795766" lon="03.896787"><ele>-6</ele><time>2023-12-06T11:12:26Z</time><name>PT2771</name></trkpt>
<trkpt lat="51.795766" lon="03.896783"><ele>-5.9</ele><time>2023-12-06T11:12:27Z</time><name>PT2772</name></trkpt>
<trkpt lat="51.795764" lon="03.896772"><ele>-5.8</ele><time>2023-12-06T11:12:41Z</time><name>PT2773</name></trkpt>
<trkpt lat="51.795761" lon="03.896752"><ele>-5.9</ele><time>2023-12-06T11:12:42Z</time><name>PT2774</name></trkpt>
<trkpt lat="51.795757" lon="03.896737"><ele>-6</ele><time>2023-12-06T11:12:43Z</time><name>PT2775</name></trkpt>
<trkpt lat="51.795756" lon="03.896722"><ele>-6</ele><time>2023-12-06T11:12:44Z</time><name>PT2776</name></trkpt>
<trkpt lat="51.795754" lon="03.896706"><ele>-6</ele><time>2023-12-06T11:12:45Z</time><name>PT2777</name></trkpt>
<trkpt lat="51.795752" lon="03.896690"><ele>-6</ele><time>2023-12-06T11:12:46Z</time><name>PT2778</name></trkpt>
<trkpt lat="51.795749" lon="03.896671"><ele>-6.1</ele><time>2023-12-06T11:12:47Z</time><name>PT2779</name></trkpt>
<trkpt lat="51.795749" lon="03.896650"><ele>-5.9</ele><time>2023-12-06T11:12:48Z</time><name>PT2780</name></trkpt>
<trkpt lat="51.795746" lon="03.896634"><ele>-5.9</ele><time>2023-12-06T11:12:49Z</time><name>PT2781</name></trkpt>
<trkpt lat="51.795744" lon="03.896614"><ele>-5.9</ele><time>2023-12-06T11:12:50Z</time><name>PT2782</name></trkpt>
<trkpt lat="51.795742" lon="03.896593"><ele>-5.8</ele><time>2023-12-06T11:12:51Z</time><name>PT2783</name></trkpt>
<trkpt lat="51.795739" lon="03.896574"><ele>-5.9</ele><time>2023-12-06T11:12:52Z</time><name>PT2784</name></trkpt>
<trkpt lat="51.795738" lon="03.896553"><ele>-5.9</ele><time>2023-12-06T11:12:53Z</time><name>PT2785</name></trkpt>
<trkpt lat="51.795734" lon="03.896528"><ele>-5.7</ele><time>2023-12-06T11:12:54Z</time><name>PT2786</name></trkpt>
<trkpt lat="51.795732" lon="03.896509"><ele>-5.6</ele><time>2023-12-06T11:12:55Z</time><name>PT2787</name></trkpt>
<trkpt lat="51.795729" lon="03.896491"><ele>-5.6</ele><time>2023-12-06T11:12:56Z</time><name>PT2788</name></trkpt>
<trkpt lat="51.795726" lon="03.896473"><ele>-5.6</ele><time>2023-12-06T11:12:57Z</time><name>PT2789</name></trkpt>
<trkpt lat="51.795724" lon="03.896454"><ele>-5.6</ele><time>2023-12-06T11:12:58Z</time><name>PT2790</name></trkpt>
<trkpt lat="51.795721" lon="03.896435"><ele>-5.8</ele><time>2023-12-06T11:12:59Z</time><name>PT2791</name></trkpt>
<trkpt lat="51.795718" lon="03.896415"><ele>-5.7</ele><time>2023-12-06T11:13:00Z</time><name>PT2792</name></trkpt>
<trkpt lat="51.795715" lon="03.896396"><ele>-5.7</ele><time>2023-12-06T11:13:01Z</time><name>PT2793</name></trkpt>
<trkpt lat="51.795714" lon="03.896375"><ele>-5.6</ele><time>2023-12-06T11:13:02Z</time><name>PT2794</name></trkpt>
<trkpt lat="51.795712" lon="03.896353"><ele>-5.4</ele><time>2023-12-06T11:13:03Z</time><name>PT2795</name></trkpt>
<trkpt lat="51.795712" lon="03.896334"><ele>-5.5</ele><time>2023-12-06T11:13:04Z</time><name>PT2796</name></trkpt>
<trkpt lat="51.795713" lon="03.896310"><ele>-5.5</ele><time>2023-12-06T11:13:05Z</time><name>PT2797</name></trkpt>
<trkpt lat="51.795715" lon="03.896286"><ele>-5.4</ele><time>2023-12-06T11:13:06Z</time><name>PT2798</name></trkpt>
<trkpt lat="51.795711" lon="03.896264"><ele>-5.4</ele><time>2023-12-06T11:13:07Z</time><name>PT2799</name></trkpt>
<trkpt lat="51.795706" lon="03.896240"><ele>-5.4</ele><time>2023-12-06T11:13:08Z</time><name>PT2800</name></trkpt>
<trkpt lat="51.795702" lon="03.896218"><ele>-5.5</ele><time>2023-12-06T11:13:09Z</time><name>PT2801</name></trkpt>
<trkpt lat="51.795699" lon="03.896197"><ele>-5.6</ele><time>2023-12-06T11:13:10Z</time><name>PT2802</name></trkpt>
<trkpt lat="51.795697" lon="03.896178"><ele>-5.6</ele><time>2023-12-06T11:13:11Z</time><name>PT2803</name></trkpt>
<trkpt lat="51.795693" lon="03.896162"><ele>-5.7</ele><time>2023-12-06T11:13:12Z</time><name>PT2804</name></trkpt>
<trkpt lat="51.795689" lon="03.896142"><ele>-5.8</ele><time>2023-12-06T11:13:13Z</time><name>PT2805</name></trkpt>
<trkpt lat="51.795686" lon="03.896123"><ele>-5.6</ele><time>2023-12-06T11:13:14Z</time><name>PT2806</name></trkpt>
<trkpt lat="51.795685" lon="03.896105"><ele>-5.4</ele><time>2023-12-06T11:13:15Z</time><name>PT2807</name></trkpt>
<trkpt lat="51.795682" lon="03.896080"><ele>-5.4</ele><time>2023-12-06T11:13:16Z</time><name>PT2808</name></trkpt>
<trkpt lat="51.795678" lon="03.896057"><ele>-5.1</ele><time>2023-12-06T11:13:17Z</time><name>PT2809</name></trkpt>
<trkpt lat="51.795674" lon="03.896036"><ele>-5.1</ele><time>2023-12-06T11:13:18Z</time><name>PT2810</name></trkpt>
<trkpt lat="51.795674" lon="03.896016"><ele>-5.1</ele><time>2023-12-06T11:13:19Z</time><name>PT2811</name></trkpt>
<trkpt lat="51.795672" lon="03.895996"><ele>-5.1</ele><time>2023-12-06T11:13:20Z</time><name>PT2812</name></trkpt>
<trkpt lat="51.795670" lon="03.895976"><ele>-5.1</ele><time>2023-12-06T11:13:21Z</time><name>PT2813</name></trkpt>
<trkpt lat="51.795669" lon="03.895956"><ele>-5.1</ele><time>2023-12-06T11:13:22Z</time><name>PT2814</name></trkpt>
<trkpt lat="51.795665" lon="03.895935"><ele>-5</ele><time>2023-12-06T11:13:23Z</time><name>PT2815</name></trkpt>
<trkpt lat="51.795660" lon="03.895913"><ele>-5.1</ele><time>2023-12-06T11:13:24Z</time><name>PT2816</name></trkpt>
<trkpt lat="51.795656" lon="03.895893"><ele>-5.1</ele><time>2023-12-06T11:13:25Z</time><name>PT2817</name></trkpt>
<trkpt lat="51.795652" lon="03.895874"><ele>-5</ele><time>2023-12-06T11:13:26Z</time><name>PT2818</name></trkpt>
<trkpt lat="51.795649" lon="03.895853"><ele>-5.1</ele><time>2023-12-06T11:13:27Z</time><name>PT2819</name></trkpt>
<trkpt lat="51.795646" lon="03.895833"><ele>-5.1</ele><time>2023-12-06T11:13:28Z</time><name>PT2820</name></trkpt>
<trkpt lat="51.795642" lon="03.895815"><ele>-5</ele><time>2023-12-06T11:13:29Z</time><name>PT2821</name></trkpt>
<trkpt lat="51.795639" lon="03.895797"><ele>-5</ele><time>2023-12-06T11:13:30Z</time><name>PT2822</name></trkpt>
<trkpt lat="51.795635" lon="03.895777"><ele>-5.1</ele><time>2023-12-06T11:13:31Z</time><name>PT2823</name></trkpt>
<trkpt lat="51.795631" lon="03.895759"><ele>-5.1</ele><time>2023-12-06T11:13:32Z</time><name>PT2824</name></trkpt>
<trkpt lat="51.795627" lon="03.895741"><ele>-5.1</ele><time>2023-12-06T11:13:33Z</time><name>PT2825</name></trkpt>
<trkpt lat="51.795624" lon="03.895723"><ele>-5.2</ele><time>2023-12-06T11:13:34Z</time><name>PT2826</name></trkpt>
<trkpt lat="51.795620" lon="03.895705"><ele>-5</ele><time>2023-12-06T11:13:35Z</time><name>PT2827</name></trkpt>
<trkpt lat="51.795618" lon="03.895685"><ele>-4.6</ele><time>2023-12-06T11:13:36Z</time><name>PT2828</name></trkpt>
<trkpt lat="51.795617" lon="03.895667"><ele>-4.5</ele><time>2023-12-06T11:13:37Z</time><name>PT2829</name></trkpt>
<trkpt lat="51.795616" lon="03.895652"><ele>-4.5</ele><time>2023-12-06T11:13:38Z</time><name>PT2830</name></trkpt>
<trkpt lat="51.795615" lon="03.895639"><ele>-4.5</ele><time>2023-12-06T11:13:39Z</time><name>PT2831</name></trkpt>
<trkpt lat="51.795612" lon="03.895625"><ele>-4.6</ele><time>2023-12-06T11:13:40Z</time><name>PT2832</name></trkpt>
<trkpt lat="51.795610" lon="03.895611"><ele>-4.6</ele><time>2023-12-06T11:13:41Z</time><name>PT2833</name></trkpt>
<trkpt lat="51.795607" lon="03.895597"><ele>-4.7</ele><time>2023-12-06T11:13:42Z</time><name>PT2834</name></trkpt>
<trkpt lat="51.795606" lon="03.895582"><ele>-4.7</ele><time>2023-12-06T11:13:43Z</time><name>PT2835</name></trkpt>
<trkpt lat="51.795606" lon="03.895573"><ele>-4.6</ele><time>2023-12-06T11:13:44Z</time><name>PT2836</name></trkpt>
<trkpt lat="51.795607" lon="03.895572"><ele>-4.5</ele><time>2023-12-06T11:13:45Z</time><name>PT2837</name></trkpt>
<trkpt lat="51.795608" lon="03.895573"><ele>-4.4</ele><time>2023-12-06T11:13:46Z</time><name>PT2838</name></trkpt>
<trkpt lat="51.795608" lon="03.895572"><ele>-4.3</ele><time>2023-12-06T11:13:47Z</time><name>PT2839</name></trkpt>
<trkpt lat="51.795609" lon="03.895567"><ele>-4.3</ele><time>2023-12-06T11:13:48Z</time><name>PT2840</name></trkpt>
<trkpt lat="51.795608" lon="03.895558"><ele>-4.3</ele><time>2023-12-06T11:13:49Z</time><name>PT2841</name></trkpt>
<trkpt lat="51.795605" lon="03.895548"><ele>-4.4</ele><time>2023-12-06T11:13:50Z</time><name>PT2842</name></trkpt>
<trkpt lat="51.795603" lon="03.895535"><ele>-4.4</ele><time>2023-12-06T11:13:51Z</time><name>PT2843</name></trkpt>
<trkpt lat="51.795600" lon="03.895519"><ele>-4.3</ele><time>2023-12-06T11:13:52Z</time><name>PT2844</name></trkpt>
<trkpt lat="51.795598" lon="03.895502"><ele>-4.4</ele><time>2023-12-06T11:13:53Z</time><name>PT2845</name></trkpt>
<trkpt lat="51.795597" lon="03.895487"><ele>-4.3</ele><time>2023-12-06T11:13:54Z</time><name>PT2846</name></trkpt>
<trkpt lat="51.795596" lon="03.895474"><ele>-4.3</ele><time>2023-12-06T11:13:55Z</time><name>PT2847</name></trkpt>
<trkpt lat="51.795595" lon="03.895461"><ele>-4.3</ele><time>2023-12-06T11:13:56Z</time><name>PT2848</name></trkpt>
<trkpt lat="51.795593" lon="03.895446"><ele>-4.4</ele><time>2023-12-06T11:13:57Z</time><name>PT2849</name></trkpt>
<trkpt lat="51.795590" lon="03.895431"><ele>-4.5</ele><time>2023-12-06T11:13:58Z</time><name>PT2850</name></trkpt>
<trkpt lat="51.795586" lon="03.895417"><ele>-4.5</ele><time>2023-12-06T11:13:59Z</time><name>PT2851</name></trkpt>
<trkpt lat="51.795581" lon="03.895405"><ele>-4.3</ele><time>2023-12-06T11:14:00Z</time><name>PT2852</name></trkpt>
<trkpt lat="51.795577" lon="03.895395"><ele>-4.3</ele><time>2023-12-06T11:14:01Z</time><name>PT2853</name></trkpt>
<trkpt lat="51.795576" lon="03.895386"><ele>-4.1</ele><time>2023-12-06T11:14:02Z</time><name>PT2854</name></trkpt>
<trkpt lat="51.795572" lon="03.895380"><ele>-4.2</ele><time>2023-12-06T11:14:03Z</time><name>PT2855</name></trkpt>
<trkpt lat="51.795572" lon="03.895371"><ele>-4.3</ele><time>2023-12-06T11:14:04Z</time><name>PT2856</name></trkpt>
<trkpt lat="51.795573" lon="03.895364"><ele>-4.6</ele><time>2023-12-06T11:14:05Z</time><name>PT2857</name></trkpt>
<trkpt lat="51.795574" lon="03.895359"><ele>-4.6</ele><time>2023-12-06T11:14:06Z</time><name>PT2858</name></trkpt>
<trkpt lat="51.795574" lon="03.895357"><ele>-4.6</ele><time>2023-12-06T11:14:07Z</time><name>PT2859</name></trkpt>
<trkpt lat="51.795574" lon="03.895357"><ele>-4.7</ele><time>2023-12-06T11:14:08Z</time><name>PT2860</name></trkpt>
<trkpt lat="51.795575" lon="03.895358"><ele>-4.6</ele><time>2023-12-06T11:14:09Z</time><name>PT2861</name></trkpt>
<trkpt lat="51.795572" lon="03.895360"><ele>-4.2</ele><time>2023-12-06T11:14:17Z</time><name>PT2862</name></trkpt>
<trkpt lat="51.795569" lon="03.895365"><ele>-4</ele><time>2023-12-06T11:14:18Z</time><name>PT2863</name></trkpt>
<trkpt lat="51.795569" lon="03.895367"><ele>-4.1</ele><time>2023-12-06T11:14:19Z</time><name>PT2864</name></trkpt>
<trkpt lat="51.795570" lon="03.895366"><ele>-4.1</ele><time>2023-12-06T11:14:20Z</time><name>PT2865</name></trkpt>
<trkpt lat="51.795569" lon="03.895365"><ele>-4.1</ele><time>2023-12-06T11:14:27Z</time><name>PT2866</name></trkpt>
<trkpt lat="51.795568" lon="03.895361"><ele>-4.3</ele><time>2023-12-06T11:14:28Z</time><name>PT2867</name></trkpt>
<trkpt lat="51.795568" lon="03.895360"><ele>-4.3</ele><time>2023-12-06T11:14:29Z</time><name>PT2868</name></trkpt>
<trkpt lat="51.795563" lon="03.895360"><ele>-4.4</ele><time>2023-12-06T11:14:30Z</time><name>PT2869</name></trkpt>
<trkpt lat="51.795559" lon="03.895358"><ele>-4.3</ele><time>2023-12-06T11:14:31Z</time><name>PT2870</name></trkpt>
<trkpt lat="51.795556" lon="03.895362"><ele>-4.3</ele><time>2023-12-06T11:14:32Z</time><name>PT2871</name></trkpt>
<trkpt lat="51.795557" lon="03.895370"><ele>-4.1</ele><time>2023-12-06T11:14:33Z</time><name>PT2872</name></trkpt>
<trkpt lat="51.795557" lon="03.895377"><ele>-4.2</ele><time>2023-12-06T11:14:34Z</time><name>PT2873</name></trkpt>
<trkpt lat="51.795558" lon="03.895382"><ele>-4.1</ele><time>2023-12-06T11:14:35Z</time><name>PT2874</name></trkpt>
<trkpt lat="51.795559" lon="03.895382"><ele>-4.2</ele><time>2023-12-06T11:14:36Z</time><name>PT2875</name></trkpt>
<trkpt lat="51.795559" lon="03.895381"><ele>-4.2</ele><time>2023-12-06T11:14:37Z</time><name>PT2876</name></trkpt>
<trkpt lat="51.795556" lon="03.895376"><ele>-4.1</ele><time>2023-12-06T11:15:11Z</time><name>PT2877</name></trkpt>
<trkpt lat="51.795548" lon="03.895366"><ele>-4.1</ele><time>2023-12-06T11:15:12Z</time><name>PT2878</name></trkpt>
<trkpt lat="51.795541" lon="03.895358"><ele>-4.1</ele><time>2023-12-06T11:15:13Z</time><name>PT2879</name></trkpt>
<trkpt lat="51.795534" lon="03.895352"><ele>-4.1</ele><time>2023-12-06T11:15:14Z</time><name>PT2880</name></trkpt>
<trkpt lat="51.795529" lon="03.895345"><ele>-4</ele><time>2023-12-06T11:15:15Z</time><name>PT2881</name></trkpt>
<trkpt lat="51.795524" lon="03.895342"><ele>-4.1</ele><time>2023-12-06T11:15:16Z</time><name>PT2882</name></trkpt>
<trkpt lat="51.795517" lon="03.895342"><ele>-4.1</ele><time>2023-12-06T11:15:17Z</time><name>PT2883</name></trkpt>
<trkpt lat="51.795512" lon="03.895337"><ele>-4.1</ele><time>2023-12-06T11:15:18Z</time><name>PT2884</name></trkpt>
<trkpt lat="51.795510" lon="03.895324"><ele>-4.1</ele><time>2023-12-06T11:15:19Z</time><name>PT2885</name></trkpt>
<trkpt lat="51.795504" lon="03.895315"><ele>-4.1</ele><time>2023-12-06T11:15:20Z</time><name>PT2886</name></trkpt>
<trkpt lat="51.795497" lon="03.895317"><ele>-3.9</ele><time>2023-12-06T11:15:21Z</time><name>PT2887</name></trkpt>
<trkpt lat="51.795488" lon="03.895324"><ele>-3.9</ele><time>2023-12-06T11:15:22Z</time><name>PT2888</name></trkpt>
<trkpt lat="51.795480" lon="03.895332"><ele>-4.1</ele><time>2023-12-06T11:15:23Z</time><name>PT2889</name></trkpt>
<trkpt lat="51.795469" lon="03.895337"><ele>-3.9</ele><time>2023-12-06T11:15:24Z</time><name>PT2890</name></trkpt>
<trkpt lat="51.795459" lon="03.895343"><ele>-3.9</ele><time>2023-12-06T11:15:25Z</time><name>PT2891</name></trkpt>
<trkpt lat="51.795449" lon="03.895350"><ele>-3.8</ele><time>2023-12-06T11:15:26Z</time><name>PT2892</name></trkpt>
<trkpt lat="51.795439" lon="03.895359"><ele>-3.7</ele><time>2023-12-06T11:15:27Z</time><name>PT2893</name></trkpt>
<trkpt lat="51.795431" lon="03.895368"><ele>-3.6</ele><time>2023-12-06T11:15:28Z</time><name>PT2894</name></trkpt>
<trkpt lat="51.795422" lon="03.895377"><ele>-3.6</ele><time>2023-12-06T11:15:29Z</time><name>PT2895</name></trkpt>
<trkpt lat="51.795412" lon="03.895385"><ele>-3.6</ele><time>2023-12-06T11:15:30Z</time><name>PT2896</name></trkpt>
<trkpt lat="51.795402" lon="03.895395"><ele>-3.6</ele><time>2023-12-06T11:15:31Z</time><name>PT2897</name></trkpt>
<trkpt lat="51.795392" lon="03.895404"><ele>-3.4</ele><time>2023-12-06T11:15:32Z</time><name>PT2898</name></trkpt>
<trkpt lat="51.795381" lon="03.895416"><ele>-3.5</ele><time>2023-12-06T11:15:33Z</time><name>PT2899</name></trkpt>
<trkpt lat="51.795371" lon="03.895428"><ele>-3.2</ele><time>2023-12-06T11:15:34Z</time><name>PT2900</name></trkpt>
<trkpt lat="51.795360" lon="03.895436"><ele>-3</ele><time>2023-12-06T11:15:35Z</time><name>PT2901</name></trkpt>
<trkpt lat="51.795349" lon="03.895444"><ele>-2.9</ele><time>2023-12-06T11:15:36Z</time><name>PT2902</name></trkpt>
<trkpt lat="51.795340" lon="03.895453"><ele>-3</ele><time>2023-12-06T11:15:37Z</time><name>PT2903</name></trkpt>
<trkpt lat="51.795331" lon="03.895462"><ele>-3</ele><time>2023-12-06T11:15:38Z</time><name>PT2904</name></trkpt>
<trkpt lat="51.795323" lon="03.895471"><ele>-3.1</ele><time>2023-12-06T11:15:39Z</time><name>PT2905</name></trkpt>
<trkpt lat="51.795314" lon="03.895480"><ele>-3</ele><time>2023-12-06T11:15:40Z</time><name>PT2906</name></trkpt>
<trkpt lat="51.795306" lon="03.895491"><ele>-2.8</ele><time>2023-12-06T11:15:41Z</time><name>PT2907</name></trkpt>
<trkpt lat="51.795298" lon="03.895502"><ele>-2.7</ele><time>2023-12-06T11:15:42Z</time><name>PT2908</name></trkpt>
<trkpt lat="51.795288" lon="03.895512"><ele>-2.7</ele><time>2023-12-06T11:15:43Z</time><name>PT2909</name></trkpt>
<trkpt lat="51.795279" lon="03.895522"><ele>-2.5</ele><time>2023-12-06T11:15:44Z</time><name>PT2910</name></trkpt>
<trkpt lat="51.795269" lon="03.895531"><ele>-2.6</ele><time>2023-12-06T11:15:45Z</time><name>PT2911</name></trkpt>
<trkpt lat="51.795259" lon="03.895540"><ele>-2.5</ele><time>2023-12-06T11:15:45Z</time><name>PT2912</name></trkpt>
<trkpt lat="51.795250" lon="03.895548"><ele>-2.6</ele><time>2023-12-06T11:15:47Z</time><name>PT2913</name></trkpt>
<trkpt lat="51.795242" lon="03.895558"><ele>-2.8</ele><time>2023-12-06T11:15:48Z</time><name>PT2914</name></trkpt>
<trkpt lat="51.795235" lon="03.895566"><ele>-2.7</ele><time>2023-12-06T11:15:49Z</time><name>PT2915</name></trkpt>
<trkpt lat="51.795227" lon="03.895574"><ele>-2.7</ele><time>2023-12-06T11:15:50Z</time><name>PT2916</name></trkpt>
<trkpt lat="51.795220" lon="03.895582"><ele>-2.8</ele><time>2023-12-06T11:15:51Z</time><name>PT2917</name></trkpt>
<trkpt lat="51.795214" lon="03.895585"><ele>-2.7</ele><time>2023-12-06T11:15:52Z</time><name>PT2918</name></trkpt>
<trkpt lat="51.795206" lon="03.895587"><ele>-2.6</ele><time>2023-12-06T11:15:53Z</time><name>PT2919</name></trkpt>
<trkpt lat="51.795198" lon="03.895593"><ele>-2.4</ele><time>2023-12-06T11:15:54Z</time><name>PT2920</name></trkpt>
<trkpt lat="51.795193" lon="03.895600"><ele>-2.6</ele><time>2023-12-06T11:15:55Z</time><name>PT2921</name></trkpt>
<trkpt lat="51.795188" lon="03.895607"><ele>-2.7</ele><time>2023-12-06T11:15:56Z</time><name>PT2922</name></trkpt>
<trkpt lat="51.795186" lon="03.895613"><ele>-2.7</ele><time>2023-12-06T11:15:57Z</time><name>PT2923</name></trkpt>
<trkpt lat="51.795181" lon="03.895618"><ele>-2.7</ele><time>2023-12-06T11:15:58Z</time><name>PT2924</name></trkpt>
<trkpt lat="51.795175" lon="03.895625"><ele>-2.8</ele><time>2023-12-06T11:15:59Z</time><name>PT2925</name></trkpt>
<trkpt lat="51.795167" lon="03.895632"><ele>-2.9</ele><time>2023-12-06T11:16:00Z</time><name>PT2926</name></trkpt>
<trkpt lat="51.795159" lon="03.895643"><ele>-3</ele><time>2023-12-06T11:16:01Z</time><name>PT2927</name></trkpt>
<trkpt lat="51.795150" lon="03.895651"><ele>-2.8</ele><time>2023-12-06T11:16:02Z</time><name>PT2928</name></trkpt>
<trkpt lat="51.795142" lon="03.895660"><ele>-3.1</ele><time>2023-12-06T11:16:03Z</time><name>PT2929</name></trkpt>
<trkpt lat="51.795132" lon="03.895668"><ele>-3.1</ele><time>2023-12-06T11:16:04Z</time><name>PT2930</name></trkpt>
<trkpt lat="51.795124" lon="03.895677"><ele>-3.1</ele><time>2023-12-06T11:16:05Z</time><name>PT2931</name></trkpt>
<trkpt lat="51.795115" lon="03.895686"><ele>-3.1</ele><time>2023-12-06T11:16:06Z</time><name>PT2932</name></trkpt>
<trkpt lat="51.795107" lon="03.895695"><ele>-3</ele><time>2023-12-06T11:16:07Z</time><name>PT2933</name></trkpt>
<trkpt lat="51.795101" lon="03.895707"><ele>-3</ele><time>2023-12-06T11:16:08Z</time><name>PT2934</name></trkpt>
<trkpt lat="51.795096" lon="03.895711"><ele>-3</ele><time>2023-12-06T11:16:09Z</time><name>PT2935</name></trkpt>
<trkpt lat="51.795096" lon="03.895711"><ele>-3</ele><time>2023-12-06T11:16:10Z</time><name>PT2936</name></trkpt>
<trkpt lat="51.795100" lon="03.895711"><ele>-3.2</ele><time>2023-12-06T11:16:11Z</time><name>PT2937</name></trkpt>
<trkpt lat="51.795103" lon="03.895708"><ele>-3.2</ele><time>2023-12-06T11:16:12Z</time><name>PT2938</name></trkpt>
<trkpt lat="51.795100" lon="03.895709"><ele>-3.2</ele><time>2023-12-06T11:16:17Z</time><name>PT2939</name></trkpt>
<trkpt lat="51.795090" lon="03.895725"><ele>-3.3</ele><time>2023-12-06T11:16:18Z</time><name>PT2940</name></trkpt>
<trkpt lat="51.795078" lon="03.895737"><ele>-3.2</ele><time>2023-12-06T11:16:19Z</time><name>PT2941</name></trkpt>
<trkpt lat="51.795068" lon="03.895746"><ele>-3.1</ele><time>2023-12-06T11:16:20Z</time><name>PT2942</name></trkpt>
<trkpt lat="51.795059" lon="03.895758"><ele>-3.1</ele><time>2023-12-06T11:16:21Z</time><name>PT2943</name></trkpt>
<trkpt lat="51.795051" lon="03.895771"><ele>-2.9</ele><time>2023-12-06T11:16:22Z</time><name>PT2944</name></trkpt>
<trkpt lat="51.795043" lon="03.895786"><ele>-2.9</ele><time>2023-12-06T11:16:23Z</time><name>PT2945</name></trkpt>
<trkpt lat="51.795035" lon="03.895800"><ele>-3</ele><time>2023-12-06T11:16:24Z</time><name>PT2946</name></trkpt>
<trkpt lat="51.795024" lon="03.895809"><ele>-2.9</ele><time>2023-12-06T11:16:25Z</time><name>PT2947</name></trkpt>
<trkpt lat="51.795016" lon="03.895823"><ele>-2.9</ele><time>2023-12-06T11:16:26Z</time><name>PT2948</name></trkpt>
<trkpt lat="51.795009" lon="03.895837"><ele>-2.9</ele><time>2023-12-06T11:16:27Z</time><name>PT2949</name></trkpt>
<trkpt lat="51.795001" lon="03.895852"><ele>-3</ele><time>2023-12-06T11:16:28Z</time><name>PT2950</name></trkpt>
<trkpt lat="51.794994" lon="03.895864"><ele>-2.9</ele><time>2023-12-06T11:16:29Z</time><name>PT2951</name></trkpt>
<trkpt lat="51.794988" lon="03.895879"><ele>-3</ele><time>2023-12-06T11:16:30Z</time><name>PT2952</name></trkpt>
<trkpt lat="51.794981" lon="03.895894"><ele>-2.8</ele><time>2023-12-06T11:16:30Z</time><name>PT2953</name></trkpt>
<trkpt lat="51.794974" lon="03.895908"><ele>-2.9</ele><time>2023-12-06T11:16:32Z</time><name>PT2954</name></trkpt>
<trkpt lat="51.794967" lon="03.895923"><ele>-3</ele><time>2023-12-06T11:16:33Z</time><name>PT2955</name></trkpt>
<trkpt lat="51.794962" lon="03.895936"><ele>-3</ele><time>2023-12-06T11:16:33Z</time><name>PT2956</name></trkpt>
<trkpt lat="51.794957" lon="03.895951"><ele>-3.1</ele><time>2023-12-06T11:16:35Z</time><name>PT2957</name></trkpt>
<trkpt lat="51.794950" lon="03.895967"><ele>-3.1</ele><time>2023-12-06T11:16:36Z</time><name>PT2958</name></trkpt>
<trkpt lat="51.794944" lon="03.895982"><ele>-3</ele><time>2023-12-06T11:16:36Z</time><name>PT2959</name></trkpt>
<trkpt lat="51.794936" lon="03.895997"><ele>-3</ele><time>2023-12-06T11:16:38Z</time><name>PT2960</name></trkpt>
<trkpt lat="51.794929" lon="03.896012"><ele>-2.7</ele><time>2023-12-06T11:16:39Z</time><name>PT2961</name></trkpt>
<trkpt lat="51.794922" lon="03.896026"><ele>-2.7</ele><time>2023-12-06T11:16:39Z</time><name>PT2962</name></trkpt>
<trkpt lat="51.794914" lon="03.896039"><ele>-2.6</ele><time>2023-12-06T11:16:41Z</time><name>PT2963</name></trkpt>
<trkpt lat="51.794908" lon="03.896053"><ele>-2.6</ele><time>2023-12-06T11:16:42Z</time><name>PT2964</name></trkpt>
<trkpt lat="51.794905" lon="03.896067"><ele>-2.8</ele><time>2023-12-06T11:16:43Z</time><name>PT2965</name></trkpt>
<trkpt lat="51.794900" lon="03.896081"><ele>-3</ele><time>2023-12-06T11:16:44Z</time><name>PT2966</name></trkpt>
<trkpt lat="51.794893" lon="03.896094"><ele>-2.9</ele><time>2023-12-06T11:16:45Z</time><name>PT2967</name></trkpt>
<trkpt lat="51.794887" lon="03.896108"><ele>-3</ele><time>2023-12-06T11:16:45Z</time><name>PT2968</name></trkpt>
<trkpt lat="51.794881" lon="03.896123"><ele>-2.9</ele><time>2023-12-06T11:16:47Z</time><name>PT2969</name></trkpt>
<trkpt lat="51.794875" lon="03.896137"><ele>-2.7</ele><time>2023-12-06T11:16:48Z</time><name>PT2970</name></trkpt>
<trkpt lat="51.794869" lon="03.896151"><ele>-2.7</ele><time>2023-12-06T11:16:49Z</time><name>PT2971</name></trkpt>
<trkpt lat="51.794864" lon="03.896167"><ele>-2.6</ele><time>2023-12-06T11:16:50Z</time><name>PT2972</name></trkpt>
<trkpt lat="51.794860" lon="03.896182"><ele>-2.7</ele><time>2023-12-06T11:16:51Z</time><name>PT2973</name></trkpt>
<trkpt lat="51.794855" lon="03.896195"><ele>-2.6</ele><time>2023-12-06T11:16:51Z</time><name>PT2974</name></trkpt>
<trkpt lat="51.794851" lon="03.896210"><ele>-2.7</ele><time>2023-12-06T11:16:53Z</time><name>PT2975</name></trkpt>
<trkpt lat="51.794847" lon="03.896227"><ele>-2.7</ele><time>2023-12-06T11:16:54Z</time><name>PT2976</name></trkpt>
<trkpt lat="51.794842" lon="03.896243"><ele>-2.7</ele><time>2023-12-06T11:16:55Z</time><name>PT2977</name></trkpt>
<trkpt lat="51.794836" lon="03.896259"><ele>-2.6</ele><time>2023-12-06T11:16:56Z</time><name>PT2978</name></trkpt>
<trkpt lat="51.794830" lon="03.896273"><ele>-2.5</ele><time>2023-12-06T11:16:57Z</time><name>PT2979</name></trkpt>
<trkpt lat="51.794822" lon="03.896290"><ele>-2.6</ele><time>2023-12-06T11:16:58Z</time><name>PT2980</name></trkpt>
<trkpt lat="51.794814" lon="03.896307"><ele>-2.5</ele><time>2023-12-06T11:16:59Z</time><name>PT2981</name></trkpt>
<trkpt lat="51.794807" lon="03.896322"><ele>-2.5</ele><time>2023-12-06T11:17:00Z</time><name>PT2982</name></trkpt>
<trkpt lat="51.794801" lon="03.896337"><ele>-2.5</ele><time>2023-12-06T11:17:01Z</time><name>PT2983</name></trkpt>
<trkpt lat="51.794795" lon="03.896355"><ele>-2.7</ele><time>2023-12-06T11:17:02Z</time><name>PT2984</name></trkpt>
<trkpt lat="51.794788" lon="03.896373"><ele>-2.7</ele><time>2023-12-06T11:17:03Z</time><name>PT2985</name></trkpt>
<trkpt lat="51.794781" lon="03.896391"><ele>-2.8</ele><time>2023-12-06T11:17:03Z</time><name>PT2986</name></trkpt>
<trkpt lat="51.794776" lon="03.896408"><ele>-2.7</ele><time>2023-12-06T11:17:05Z</time><name>PT2987</name></trkpt>
<trkpt lat="51.794772" lon="03.896422"><ele>-2.7</ele><time>2023-12-06T11:17:06Z</time><name>PT2988</name></trkpt>
<trkpt lat="51.794767" lon="03.896437"><ele>-2.7</ele><time>2023-12-06T11:17:06Z</time><name>PT2989</name></trkpt>
<trkpt lat="51.794760" lon="03.896451"><ele>-2.7</ele><time>2023-12-06T11:17:08Z</time><name>PT2990</name></trkpt>
<trkpt lat="51.794753" lon="03.896465"><ele>-2.8</ele><time>2023-12-06T11:17:09Z</time><name>PT2991</name></trkpt>
<trkpt lat="51.794749" lon="03.896478"><ele>-2.8</ele><time>2023-12-06T11:17:10Z</time><name>PT2992</name></trkpt>
<trkpt lat="51.794745" lon="03.896492"><ele>-2.8</ele><time>2023-12-06T11:17:11Z</time><name>PT2993</name></trkpt>
<trkpt lat="51.794737" lon="03.896507"><ele>-3</ele><time>2023-12-06T11:17:12Z</time><name>PT2994</name></trkpt>
<trkpt lat="51.794732" lon="03.896522"><ele>-3.1</ele><time>2023-12-06T11:17:12Z</time><name>PT2995</name></trkpt>
<trkpt lat="51.794727" lon="03.896538"><ele>-2.9</ele><time>2023-12-06T11:17:14Z</time><name>PT2996</name></trkpt>
<trkpt lat="51.794721" lon="03.896552"><ele>-2.8</ele><time>2023-12-06T11:17:15Z</time><name>PT2997</name></trkpt>
<trkpt lat="51.794713" lon="03.896566"><ele>-3</ele><time>2023-12-06T11:17:16Z</time><name>PT2998</name></trkpt>
<trkpt lat="51.794705" lon="03.896579"><ele>-2.8</ele><time>2023-12-06T11:17:17Z</time><name>PT2999</name></trkpt>
<trkpt lat="51.794698" lon="03.896593"><ele>-2.8</ele><time>2023-12-06T11:17:18Z</time><name>PT3000</name></trkpt>
<trkpt lat="51.794690" lon="03.896607"><ele>-2.7</ele><time>2023-12-06T11:17:19Z</time><name>PT3001</name></trkpt>
<trkpt lat="51.794685" lon="03.896620"><ele>-2.7</ele><time>2023-12-06T11:17:20Z</time><name>PT3002</name></trkpt>
<trkpt lat="51.794679" lon="03.896633"><ele>-2.7</ele><time>2023-12-06T11:17:21Z</time><name>PT3003</name></trkpt>
<trkpt lat="51.794674" lon="03.896648"><ele>-2.9</ele><time>2023-12-06T11:17:21Z</time><name>PT3004</name></trkpt>
<trkpt lat="51.794668" lon="03.896663"><ele>-2.8</ele><time>2023-12-06T11:17:23Z</time><name>PT3005</name></trkpt>
<trkpt lat="51.794663" lon="03.896678"><ele>-2.8</ele><time>2023-12-06T11:17:24Z</time><name>PT3006</name></trkpt>
<trkpt lat="51.794656" lon="03.896693"><ele>-2.7</ele><time>2023-12-06T11:17:25Z</time><name>PT3007</name></trkpt>
<trkpt lat="51.794648" lon="03.896707"><ele>-2.7</ele><time>2023-12-06T11:17:26Z</time><name>PT3008</name></trkpt>
<trkpt lat="51.794641" lon="03.896722"><ele>-3</ele><time>2023-12-06T11:17:27Z</time><name>PT3009</name></trkpt>
<trkpt lat="51.794635" lon="03.896735"><ele>-2.8</ele><time>2023-12-06T11:17:27Z</time><name>PT3010</name></trkpt>
<trkpt lat="51.794630" lon="03.896748"><ele>-2.7</ele><time>2023-12-06T11:17:29Z</time><name>PT3011</name></trkpt>
<trkpt lat="51.794625" lon="03.896763"><ele>-2.7</ele><time>2023-12-06T11:17:30Z</time><name>PT3012</name></trkpt>
<trkpt lat="51.794620" lon="03.896778"><ele>-2.7</ele><time>2023-12-06T11:17:30Z</time><name>PT3013</name></trkpt>
<trkpt lat="51.794615" lon="03.896793"><ele>-2.7</ele><time>2023-12-06T11:17:32Z</time><name>PT3014</name></trkpt>
<trkpt lat="51.794610" lon="03.896808"><ele>-2.7</ele><time>2023-12-06T11:17:33Z</time><name>PT3015</name></trkpt>
<trkpt lat="51.794603" lon="03.896822"><ele>-2.7</ele><time>2023-12-06T11:17:33Z</time><name>PT3016</name></trkpt>
<trkpt lat="51.794596" lon="03.896836"><ele>-2.7</ele><time>2023-12-06T11:17:35Z</time><name>PT3017</name></trkpt>
<trkpt lat="51.794588" lon="03.896853"><ele>-2.8</ele><time>2023-12-06T11:17:36Z</time><name>PT3018</name></trkpt>
<trkpt lat="51.794583" lon="03.896867"><ele>-2.7</ele><time>2023-12-06T11:17:36Z</time><name>PT3019</name></trkpt>
<trkpt lat="51.794577" lon="03.896881"><ele>-2.8</ele><time>2023-12-06T11:17:38Z</time><name>PT3020</name></trkpt>
<trkpt lat="51.794572" lon="03.896896"><ele>-2.9</ele><time>2023-12-06T11:17:39Z</time><name>PT3021</name></trkpt>
<trkpt lat="51.794565" lon="03.896910"><ele>-2.9</ele><time>2023-12-06T11:17:40Z</time><name>PT3022</name></trkpt>
<trkpt lat="51.794560" lon="03.896926"><ele>-2.8</ele><time>2023-12-06T11:17:41Z</time><name>PT3023</name></trkpt>
<trkpt lat="51.794554" lon="03.896943"><ele>-2.9</ele><time>2023-12-06T11:17:42Z</time><name>PT3024</name></trkpt>
<trkpt lat="51.794546" lon="03.896958"><ele>-3.1</ele><time>2023-12-06T11:17:42Z</time><name>PT3025</name></trkpt>
<trkpt lat="51.794539" lon="03.896971"><ele>-3</ele><time>2023-12-06T11:17:44Z</time><name>PT3026</name></trkpt>
<trkpt lat="51.794532" lon="03.896984"><ele>-3</ele><time>2023-12-06T11:17:45Z</time><name>PT3027</name></trkpt>
<trkpt lat="51.794526" lon="03.897000"><ele>-3.1</ele><time>2023-12-06T11:17:46Z</time><name>PT3028</name></trkpt>
<trkpt lat="51.794521" lon="03.897016"><ele>-2.8</ele><time>2023-12-06T11:17:47Z</time><name>PT3029</name></trkpt>
<trkpt lat="51.794515" lon="03.897030"><ele>-2.6</ele><time>2023-12-06T11:17:48Z</time><name>PT3030</name></trkpt>
<trkpt lat="51.794509" lon="03.897044"><ele>-2.7</ele><time>2023-12-06T11:17:49Z</time><name>PT3031</name></trkpt>
<trkpt lat="51.794504" lon="03.897057"><ele>-2.6</ele><time>2023-12-06T11:17:50Z</time><name>PT3032</name></trkpt>
<trkpt lat="51.794498" lon="03.897071"><ele>-2.5</ele><time>2023-12-06T11:17:51Z</time><name>PT3033</name></trkpt>
<trkpt lat="51.794494" lon="03.897087"><ele>-2.7</ele><time>2023-12-06T11:17:52Z</time><name>PT3034</name></trkpt>
<trkpt lat="51.794489" lon="03.897101"><ele>-2.7</ele><time>2023-12-06T11:17:53Z</time><name>PT3035</name></trkpt>
<trkpt lat="51.794484" lon="03.897113"><ele>-2.5</ele><time>2023-12-06T11:17:54Z</time><name>PT3036</name></trkpt>
<trkpt lat="51.794477" lon="03.897126"><ele>-2.6</ele><time>2023-12-06T11:17:54Z</time><name>PT3037</name></trkpt>
<trkpt lat="51.794471" lon="03.897139"><ele>-2.6</ele><time>2023-12-06T11:17:56Z</time><name>PT3038</name></trkpt>
<trkpt lat="51.794466" lon="03.897151"><ele>-2.6</ele><time>2023-12-06T11:17:57Z</time><name>PT3039</name></trkpt>
<trkpt lat="51.794460" lon="03.897166"><ele>-2.7</ele><time>2023-12-06T11:17:57Z</time><name>PT3040</name></trkpt>
<trkpt lat="51.794454" lon="03.897182"><ele>-2.6</ele><time>2023-12-06T11:17:59Z</time><name>PT3041</name></trkpt>
<trkpt lat="51.794448" lon="03.897198"><ele>-2.6</ele><time>2023-12-06T11:18:00Z</time><name>PT3042</name></trkpt>
<trkpt lat="51.794443" lon="03.897215"><ele>-2.7</ele><time>2023-12-06T11:18:01Z</time><name>PT3043</name></trkpt>
<trkpt lat="51.794437" lon="03.897230"><ele>-2.7</ele><time>2023-12-06T11:18:02Z</time><name>PT3044</name></trkpt>
<trkpt lat="51.794432" lon="03.897243"><ele>-2.7</ele><time>2023-12-06T11:18:03Z</time><name>PT3045</name></trkpt>
<trkpt lat="51.794426" lon="03.897257"><ele>-2.9</ele><time>2023-12-06T11:18:04Z</time><name>PT3046</name></trkpt>
<trkpt lat="51.794420" lon="03.897271"><ele>-2.7</ele><time>2023-12-06T11:18:05Z</time><name>PT3047</name></trkpt>
<trkpt lat="51.794413" lon="03.897285"><ele>-2.8</ele><time>2023-12-06T11:18:06Z</time><name>PT3048</name></trkpt>
<trkpt lat="51.794406" lon="03.897299"><ele>-2.7</ele><time>2023-12-06T11:18:06Z</time><name>PT3049</name></trkpt>
<trkpt lat="51.794399" lon="03.897313"><ele>-2.6</ele><time>2023-12-06T11:18:08Z</time><name>PT3050</name></trkpt>
<trkpt lat="51.794391" lon="03.897328"><ele>-2.7</ele><time>2023-12-06T11:18:09Z</time><name>PT3051</name></trkpt>
<trkpt lat="51.794385" lon="03.897342"><ele>-2.8</ele><time>2023-12-06T11:18:09Z</time><name>PT3052</name></trkpt>
<trkpt lat="51.794379" lon="03.897357"><ele>-2.8</ele><time>2023-12-06T11:18:11Z</time><name>PT3053</name></trkpt>
<trkpt lat="51.794374" lon="03.897372"><ele>-2.7</ele><time>2023-12-06T11:18:12Z</time><name>PT3054</name></trkpt>
<trkpt lat="51.794368" lon="03.897387"><ele>-2.8</ele><time>2023-12-06T11:18:12Z</time><name>PT3055</name></trkpt>
<trkpt lat="51.794363" lon="03.897404"><ele>-2.7</ele><time>2023-12-06T11:18:14Z</time><name>PT3056</name></trkpt>
<trkpt lat="51.794358" lon="03.897420"><ele>-2.7</ele><time>2023-12-06T11:18:15Z</time><name>PT3057</name></trkpt>
<trkpt lat="51.794353" lon="03.897435"><ele>-2.9</ele><time>2023-12-06T11:18:15Z</time><name>PT3058</name></trkpt>
<trkpt lat="51.794345" lon="03.897450"><ele>-3</ele><time>2023-12-06T11:18:17Z</time><name>PT3059</name></trkpt>
<trkpt lat="51.794338" lon="03.897465"><ele>-3.1</ele><time>2023-12-06T11:18:18Z</time><name>PT3060</name></trkpt>
<trkpt lat="51.794331" lon="03.897479"><ele>-3.1</ele><time>2023-12-06T11:18:18Z</time><name>PT3061</name></trkpt>
<trkpt lat="51.794325" lon="03.897495"><ele>-3</ele><time>2023-12-06T11:18:20Z</time><name>PT3062</name></trkpt>
<trkpt lat="51.794318" lon="03.897509"><ele>-2.9</ele><time>2023-12-06T11:18:21Z</time><name>PT3063</name></trkpt>
<trkpt lat="51.794311" lon="03.897524"><ele>-2.7</ele><time>2023-12-06T11:18:21Z</time><name>PT3064</name></trkpt>
<trkpt lat="51.794304" lon="03.897537"><ele>-2.7</ele><time>2023-12-06T11:18:23Z</time><name>PT3065</name></trkpt>
<trkpt lat="51.794298" lon="03.897550"><ele>-2.7</ele><time>2023-12-06T11:18:24Z</time><name>PT3066</name></trkpt>
<trkpt lat="51.794292" lon="03.897563"><ele>-2.7</ele><time>2023-12-06T11:18:24Z</time><name>PT3067</name></trkpt>
<trkpt lat="51.794288" lon="03.897578"><ele>-2.7</ele><time>2023-12-06T11:18:26Z</time><name>PT3068</name></trkpt>
<trkpt lat="51.794283" lon="03.897594"><ele>-2.6</ele><time>2023-12-06T11:18:27Z</time><name>PT3069</name></trkpt>
<trkpt lat="51.794278" lon="03.897609"><ele>-2.7</ele><time>2023-12-06T11:18:27Z</time><name>PT3070</name></trkpt>
<trkpt lat="51.794272" lon="03.897623"><ele>-2.7</ele><time>2023-12-06T11:18:29Z</time><name>PT3071</name></trkpt>
<trkpt lat="51.794264" lon="03.897639"><ele>-2.6</ele><time>2023-12-06T11:18:30Z</time><name>PT3072</name></trkpt>
<trkpt lat="51.794257" lon="03.897654"><ele>-2.7</ele><time>2023-12-06T11:18:30Z</time><name>PT3073</name></trkpt>
<trkpt lat="51.794251" lon="03.897667"><ele>-2.8</ele><time>2023-12-06T11:18:32Z</time><name>PT3074</name></trkpt>
<trkpt lat="51.794244" lon="03.897681"><ele>-2.7</ele><time>2023-12-06T11:18:33Z</time><name>PT3075</name></trkpt>
<trkpt lat="51.794237" lon="03.897696"><ele>-2.7</ele><time>2023-12-06T11:18:33Z</time><name>PT3076</name></trkpt>
<trkpt lat="51.794231" lon="03.897712"><ele>-2.8</ele><time>2023-12-06T11:18:35Z</time><name>PT3077</name></trkpt>
<trkpt lat="51.794225" lon="03.897729"><ele>-2.7</ele><time>2023-12-06T11:18:36Z</time><name>PT3078</name></trkpt>
<trkpt lat="51.794219" lon="03.897743"><ele>-2.9</ele><time>2023-12-06T11:18:36Z</time><name>PT3079</name></trkpt>
<trkpt lat="51.794215" lon="03.897757"><ele>-2.8</ele><time>2023-12-06T11:18:38Z</time><name>PT3080</name></trkpt>
<trkpt lat="51.794208" lon="03.897772"><ele>-2.8</ele><time>2023-12-06T11:18:39Z</time><name>PT3081</name></trkpt>
<trkpt lat="51.794202" lon="03.897787"><ele>-2.9</ele><time>2023-12-06T11:18:39Z</time><name>PT3082</name></trkpt>
<trkpt lat="51.794194" lon="03.897803"><ele>-2.7</ele><time>2023-12-06T11:18:41Z</time><name>PT3083</name></trkpt>
<trkpt lat="51.794186" lon="03.897820"><ele>-2.7</ele><time>2023-12-06T11:18:42Z</time><name>PT3084</name></trkpt>
<trkpt lat="51.794179" lon="03.897835"><ele>-2.6</ele><time>2023-12-06T11:18:43Z</time><name>PT3085</name></trkpt>
<trkpt lat="51.794172" lon="03.897849"><ele>-2.5</ele><time>2023-12-06T11:18:44Z</time><name>PT3086</name></trkpt>
<trkpt lat="51.794167" lon="03.897864"><ele>-2.6</ele><time>2023-12-06T11:18:45Z</time><name>PT3087</name></trkpt>
<trkpt lat="51.794161" lon="03.897878"><ele>-2.5</ele><time>2023-12-06T11:18:46Z</time><name>PT3088</name></trkpt>
<trkpt lat="51.794158" lon="03.897894"><ele>-2.7</ele><time>2023-12-06T11:18:47Z</time><name>PT3089</name></trkpt>
<trkpt lat="51.794155" lon="03.897910"><ele>-2.7</ele><time>2023-12-06T11:18:48Z</time><name>PT3090</name></trkpt>
<trkpt lat="51.794150" lon="03.897924"><ele>-2.7</ele><time>2023-12-06T11:18:48Z</time><name>PT3091</name></trkpt>
<trkpt lat="51.794143" lon="03.897940"><ele>-2.7</ele><time>2023-12-06T11:18:50Z</time><name>PT3092</name></trkpt>
<trkpt lat="51.794137" lon="03.897955"><ele>-2.6</ele><time>2023-12-06T11:18:51Z</time><name>PT3093</name></trkpt>
<trkpt lat="51.794130" lon="03.897970"><ele>-2.7</ele><time>2023-12-06T11:18:51Z</time><name>PT3094</name></trkpt>
<trkpt lat="51.794123" lon="03.897985"><ele>-2.5</ele><time>2023-12-06T11:18:53Z</time><name>PT3095</name></trkpt>
<trkpt lat="51.794117" lon="03.897998"><ele>-2.6</ele><time>2023-12-06T11:18:54Z</time><name>PT3096</name></trkpt>
<trkpt lat="51.794113" lon="03.898010"><ele>-2.7</ele><time>2023-12-06T11:18:54Z</time><name>PT3097</name></trkpt>
<trkpt lat="51.794107" lon="03.898025"><ele>-2.7</ele><time>2023-12-06T11:18:56Z</time><name>PT3098</name></trkpt>
<trkpt lat="51.794100" lon="03.898042"><ele>-2.9</ele><time>2023-12-06T11:18:57Z</time><name>PT3099</name></trkpt>
<trkpt lat="51.794095" lon="03.898059"><ele>-2.8</ele><time>2023-12-06T11:18:57Z</time><name>PT3100</name></trkpt>
<trkpt lat="51.794090" lon="03.898075"><ele>-2.9</ele><time>2023-12-06T11:18:59Z</time><name>PT3101</name></trkpt>
<trkpt lat="51.794086" lon="03.898089"><ele>-3</ele><time>2023-12-06T11:19:00Z</time><name>PT3102</name></trkpt>
<trkpt lat="51.794080" lon="03.898103"><ele>-3</ele><time>2023-12-06T11:19:00Z</time><name>PT3103</name></trkpt>
<trkpt lat="51.794073" lon="03.898117"><ele>-3</ele><time>2023-12-06T11:19:02Z</time><name>PT3104</name></trkpt>
<trkpt lat="51.794066" lon="03.898132"><ele>-2.9</ele><time>2023-12-06T11:19:03Z</time><name>PT3105</name></trkpt>
<trkpt lat="51.794060" lon="03.898145"><ele>-2.8</ele><time>2023-12-06T11:19:03Z</time><name>PT3106</name></trkpt>
<trkpt lat="51.794054" lon="03.898160"><ele>-2.7</ele><time>2023-12-06T11:19:05Z</time><name>PT3107</name></trkpt>
<trkpt lat="51.794048" lon="03.898174"><ele>-2.7</ele><time>2023-12-06T11:19:06Z</time><name>PT3108</name></trkpt>
<trkpt lat="51.794043" lon="03.898189"><ele>-2.7</ele><time>2023-12-06T11:19:07Z</time><name>PT3109</name></trkpt>
<trkpt lat="51.794037" lon="03.898206"><ele>-2.8</ele><time>2023-12-06T11:19:08Z</time><name>PT3110</name></trkpt>
<trkpt lat="51.794031" lon="03.898222"><ele>-2.9</ele><time>2023-12-06T11:19:09Z</time><name>PT3111</name></trkpt>
<trkpt lat="51.794024" lon="03.898236"><ele>-2.9</ele><time>2023-12-06T11:19:10Z</time><name>PT3112</name></trkpt>
<trkpt lat="51.794017" lon="03.898248"><ele>-2.8</ele><time>2023-12-06T11:19:11Z</time><name>PT3113</name></trkpt>
<trkpt lat="51.794010" lon="03.898261"><ele>-2.7</ele><time>2023-12-06T11:19:12Z</time><name>PT3114</name></trkpt>
<trkpt lat="51.794003" lon="03.898277"><ele>-2.5</ele><time>2023-12-06T11:19:12Z</time><name>PT3115</name></trkpt>
<trkpt lat="51.793997" lon="03.898293"><ele>-2.6</ele><time>2023-12-06T11:19:14Z</time><name>PT3116</name></trkpt>
<trkpt lat="51.793990" lon="03.898309"><ele>-2.7</ele><time>2023-12-06T11:19:15Z</time><name>PT3117</name></trkpt>
<trkpt lat="51.793982" lon="03.898325"><ele>-2.9</ele><time>2023-12-06T11:19:15Z</time><name>PT3118</name></trkpt>
<trkpt lat="51.793976" lon="03.898341"><ele>-2.9</ele><time>2023-12-06T11:19:17Z</time><name>PT3119</name></trkpt>
<trkpt lat="51.793969" lon="03.898354"><ele>-2.7</ele><time>2023-12-06T11:19:18Z</time><name>PT3120</name></trkpt>
<trkpt lat="51.793963" lon="03.898368"><ele>-2.7</ele><time>2023-12-06T11:19:18Z</time><name>PT3121</name></trkpt>
<trkpt lat="51.793956" lon="03.898382"><ele>-2.7</ele><time>2023-12-06T11:19:20Z</time><name>PT3122</name></trkpt>
<trkpt lat="51.793949" lon="03.898397"><ele>-2.9</ele><time>2023-12-06T11:19:21Z</time><name>PT3123</name></trkpt>
<trkpt lat="51.793943" lon="03.898414"><ele>-2.8</ele><time>2023-12-06T11:19:21Z</time><name>PT3124</name></trkpt>
<trkpt lat="51.793937" lon="03.898430"><ele>-3</ele><time>2023-12-06T11:19:23Z</time><name>PT3125</name></trkpt>
<trkpt lat="51.793932" lon="03.898446"><ele>-2.9</ele><time>2023-12-06T11:19:24Z</time><name>PT3126</name></trkpt>
<trkpt lat="51.793926" lon="03.898463"><ele>-2.8</ele><time>2023-12-06T11:19:24Z</time><name>PT3127</name></trkpt>
<trkpt lat="51.793922" lon="03.898479"><ele>-2.7</ele><time>2023-12-06T11:19:26Z</time><name>PT3128</name></trkpt>
<trkpt lat="51.793917" lon="03.898494"><ele>-2.7</ele><time>2023-12-06T11:19:27Z</time><name>PT3129</name></trkpt>
<trkpt lat="51.793911" lon="03.898510"><ele>-2.6</ele><time>2023-12-06T11:19:27Z</time><name>PT3130</name></trkpt>
<trkpt lat="51.793906" lon="03.898525"><ele>-2.6</ele><time>2023-12-06T11:19:29Z</time><name>PT3131</name></trkpt>
<trkpt lat="51.793899" lon="03.898541"><ele>-2.7</ele><time>2023-12-06T11:19:30Z</time><name>PT3132</name></trkpt>
<trkpt lat="51.793892" lon="03.898556"><ele>-2.8</ele><time>2023-12-06T11:19:30Z</time><name>PT3133</name></trkpt>
<trkpt lat="51.793885" lon="03.898570"><ele>-2.7</ele><time>2023-12-06T11:19:32Z</time><name>PT3134</name></trkpt>
<trkpt lat="51.793878" lon="03.898583"><ele>-2.8</ele><time>2023-12-06T11:19:33Z</time><name>PT3135</name></trkpt>
<trkpt lat="51.793870" lon="03.898597"><ele>-2.8</ele><time>2023-12-06T11:19:33Z</time><name>PT3136</name></trkpt>
<trkpt lat="51.793865" lon="03.898613"><ele>-2.6</ele><time>2023-12-06T11:19:35Z</time><name>PT3137</name></trkpt>
<trkpt lat="51.793860" lon="03.898629"><ele>-2.7</ele><time>2023-12-06T11:19:36Z</time><name>PT3138</name></trkpt>
<trkpt lat="51.793856" lon="03.898644"><ele>-2.7</ele><time>2023-12-06T11:19:36Z</time><name>PT3139</name></trkpt>
<trkpt lat="51.793851" lon="03.898660"><ele>-2.7</ele><time>2023-12-06T11:19:38Z</time><name>PT3140</name></trkpt>
<trkpt lat="51.793845" lon="03.898676"><ele>-2.7</ele><time>2023-12-06T11:19:39Z</time><name>PT3141</name></trkpt>
<trkpt lat="51.793838" lon="03.898691"><ele>-2.7</ele><time>2023-12-06T11:19:39Z</time><name>PT3142</name></trkpt>
<trkpt lat="51.793831" lon="03.898708"><ele>-2.7</ele><time>2023-12-06T11:19:41Z</time><name>PT3143</name></trkpt>
<trkpt lat="51.793825" lon="03.898724"><ele>-2.6</ele><time>2023-12-06T11:19:42Z</time><name>PT3144</name></trkpt>
<trkpt lat="51.793819" lon="03.898739"><ele>-2.6</ele><time>2023-12-06T11:19:42Z</time><name>PT3145</name></trkpt>
<trkpt lat="51.793815" lon="03.898753"><ele>-2.5</ele><time>2023-12-06T11:19:44Z</time><name>PT3146</name></trkpt>
<trkpt lat="51.793811" lon="03.898769"><ele>-2.5</ele><time>2023-12-06T11:19:45Z</time><name>PT3147</name></trkpt>
<trkpt lat="51.793805" lon="03.898785"><ele>-2.3</ele><time>2023-12-06T11:19:45Z</time><name>PT3148</name></trkpt>
<trkpt lat="51.793800" lon="03.898801"><ele>-2.3</ele><time>2023-12-06T11:19:47Z</time><name>PT3149</name></trkpt>
<trkpt lat="51.793794" lon="03.898818"><ele>-2.4</ele><time>2023-12-06T11:19:48Z</time><name>PT3150</name></trkpt>
<trkpt lat="51.793790" lon="03.898833"><ele>-2.4</ele><time>2023-12-06T11:19:48Z</time><name>PT3151</name></trkpt>
<trkpt lat="51.793785" lon="03.898850"><ele>-2.6</ele><time>2023-12-06T11:19:50Z</time><name>PT3152</name></trkpt>
<trkpt lat="51.793780" lon="03.898868"><ele>-2.7</ele><time>2023-12-06T11:19:51Z</time><name>PT3153</name></trkpt>
<trkpt lat="51.793776" lon="03.898883"><ele>-2.8</ele><time>2023-12-06T11:19:51Z</time><name>PT3154</name></trkpt>
<trkpt lat="51.793771" lon="03.898899"><ele>-3</ele><time>2023-12-06T11:19:53Z</time><name>PT3155</name></trkpt>
<trkpt lat="51.793765" lon="03.898915"><ele>-2.9</ele><time>2023-12-06T11:19:54Z</time><name>PT3156</name></trkpt>
<trkpt lat="51.793759" lon="03.898931"><ele>-2.9</ele><time>2023-12-06T11:19:54Z</time><name>PT3157</name></trkpt>
<trkpt lat="51.793753" lon="03.898947"><ele>-2.7</ele><time>2023-12-06T11:19:56Z</time><name>PT3158</name></trkpt>
<trkpt lat="51.793747" lon="03.898962"><ele>-2.8</ele><time>2023-12-06T11:19:57Z</time><name>PT3159</name></trkpt>
<trkpt lat="51.793741" lon="03.898978"><ele>-2.7</ele><time>2023-12-06T11:19:57Z</time><name>PT3160</name></trkpt>
<trkpt lat="51.793735" lon="03.898994"><ele>-2.7</ele><time>2023-12-06T11:19:59Z</time><name>PT3161</name></trkpt>
<trkpt lat="51.793731" lon="03.899009"><ele>-2.8</ele><time>2023-12-06T11:20:00Z</time><name>PT3162</name></trkpt>
<trkpt lat="51.793727" lon="03.899024"><ele>-2.7</ele><time>2023-12-06T11:20:01Z</time><name>PT3163</name></trkpt>
<trkpt lat="51.793722" lon="03.899039"><ele>-2.7</ele><time>2023-12-06T11:20:02Z</time><name>PT3164</name></trkpt>
<trkpt lat="51.793720" lon="03.899055"><ele>-2.6</ele><time>2023-12-06T11:20:03Z</time><name>PT3165</name></trkpt>
<trkpt lat="51.793715" lon="03.899072"><ele>-2.6</ele><time>2023-12-06T11:20:03Z</time><name>PT3166</name></trkpt>
<trkpt lat="51.793712" lon="03.899090"><ele>-2.7</ele><time>2023-12-06T11:20:05Z</time><name>PT3167</name></trkpt>
<trkpt lat="51.793710" lon="03.899109"><ele>-2.7</ele><time>2023-12-06T11:20:06Z</time><name>PT3168</name></trkpt>
<trkpt lat="51.793707" lon="03.899126"><ele>-2.9</ele><time>2023-12-06T11:20:06Z</time><name>PT3169</name></trkpt>
<trkpt lat="51.793703" lon="03.899142"><ele>-2.8</ele><time>2023-12-06T11:20:08Z</time><name>PT3170</name></trkpt>
<trkpt lat="51.793699" lon="03.899157"><ele>-2.7</ele><time>2023-12-06T11:20:09Z</time><name>PT3171</name></trkpt>
<trkpt lat="51.793694" lon="03.899173"><ele>-2.6</ele><time>2023-12-06T11:20:09Z</time><name>PT3172</name></trkpt>
<trkpt lat="51.793691" lon="03.899190"><ele>-2.6</ele><time>2023-12-06T11:20:11Z</time><name>PT3173</name></trkpt>
<trkpt lat="51.793686" lon="03.899208"><ele>-2.8</ele><time>2023-12-06T11:20:12Z</time><name>PT3174</name></trkpt>
<trkpt lat="51.793680" lon="03.899226"><ele>-2.8</ele><time>2023-12-06T11:20:12Z</time><name>PT3175</name></trkpt>
<trkpt lat="51.793674" lon="03.899244"><ele>-2.9</ele><time>2023-12-06T11:20:14Z</time><name>PT3176</name></trkpt>
<trkpt lat="51.793669" lon="03.899260"><ele>-3</ele><time>2023-12-06T11:20:15Z</time><name>PT3177</name></trkpt>
<trkpt lat="51.793665" lon="03.899276"><ele>-3</ele><time>2023-12-06T11:20:15Z</time><name>PT3178</name></trkpt>
<trkpt lat="51.793661" lon="03.899293"><ele>-3.1</ele><time>2023-12-06T11:20:17Z</time><name>PT3179</name></trkpt>
<trkpt lat="51.793656" lon="03.899308"><ele>-3.1</ele><time>2023-12-06T11:20:18Z</time><name>PT3180</name></trkpt>
<trkpt lat="51.793653" lon="03.899323"><ele>-3.2</ele><time>2023-12-06T11:20:18Z</time><name>PT3181</name></trkpt>
<trkpt lat="51.793649" lon="03.899339"><ele>-3.2</ele><time>2023-12-06T11:20:20Z</time><name>PT3182</name></trkpt>
<trkpt lat="51.793644" lon="03.899357"><ele>-3.1</ele><time>2023-12-06T11:20:21Z</time><name>PT3183</name></trkpt>
<trkpt lat="51.793640" lon="03.899374"><ele>-3.2</ele><time>2023-12-06T11:20:21Z</time><name>PT3184</name></trkpt>
<trkpt lat="51.793637" lon="03.899391"><ele>-3.1</ele><time>2023-12-06T11:20:23Z</time><name>PT3185</name></trkpt>
<trkpt lat="51.793634" lon="03.899408"><ele>-3.1</ele><time>2023-12-06T11:20:24Z</time><name>PT3186</name></trkpt>
<trkpt lat="51.793630" lon="03.899425"><ele>-3</ele><time>2023-12-06T11:20:24Z</time><name>PT3187</name></trkpt>
<trkpt lat="51.793626" lon="03.899441"><ele>-2.9</ele><time>2023-12-06T11:20:26Z</time><name>PT3188</name></trkpt>
<trkpt lat="51.793621" lon="03.899457"><ele>-3</ele><time>2023-12-06T11:20:27Z</time><name>PT3189</name></trkpt>
<trkpt lat="51.793616" lon="03.899473"><ele>-2.7</ele><time>2023-12-06T11:20:27Z</time><name>PT3190</name></trkpt>
<trkpt lat="51.793610" lon="03.899489"><ele>-2.7</ele><time>2023-12-06T11:20:29Z</time><name>PT3191</name></trkpt>
<trkpt lat="51.793604" lon="03.899506"><ele>-2.7</ele><time>2023-12-06T11:20:30Z</time><name>PT3192</name></trkpt>
<trkpt lat="51.793597" lon="03.899523"><ele>-2.7</ele><time>2023-12-06T11:20:30Z</time><name>PT3193</name></trkpt>
<trkpt lat="51.793592" lon="03.899538"><ele>-2.8</ele><time>2023-12-06T11:20:32Z</time><name>PT3194</name></trkpt>
<trkpt lat="51.793588" lon="03.899550"><ele>-3</ele><time>2023-12-06T11:20:33Z</time><name>PT3195</name></trkpt>
<trkpt lat="51.793583" lon="03.899564"><ele>-3</ele><time>2023-12-06T11:20:33Z</time><name>PT3196</name></trkpt>
<trkpt lat="51.793577" lon="03.899580"><ele>-3</ele><time>2023-12-06T11:20:35Z</time><name>PT3197</name></trkpt>
<trkpt lat="51.793574" lon="03.899596"><ele>-2.8</ele><time>2023-12-06T11:20:36Z</time><name>PT3198</name></trkpt>
<trkpt lat="51.793569" lon="03.899612"><ele>-2.8</ele><time>2023-12-06T11:20:36Z</time><name>PT3199</name></trkpt>
<trkpt lat="51.793565" lon="03.899625"><ele>-2.8</ele><time>2023-12-06T11:20:38Z</time><name>PT3200</name></trkpt>
<trkpt lat="51.793562" lon="03.899636"><ele>-2.9</ele><time>2023-12-06T11:20:39Z</time><name>PT3201</name></trkpt>
<trkpt lat="51.793558" lon="03.899647"><ele>-2.9</ele><time>2023-12-06T11:20:40Z</time><name>PT3202</name></trkpt>
<trkpt lat="51.793555" lon="03.899656"><ele>-2.9</ele><time>2023-12-06T11:20:41Z</time><name>PT3203</name></trkpt>
<trkpt lat="51.793553" lon="03.899663"><ele>-2.9</ele><time>2023-12-06T11:20:42Z</time><name>PT3204</name></trkpt>
<trkpt lat="51.793552" lon="03.899665"><ele>-2.9</ele><time>2023-12-06T11:20:42Z</time><name>PT3205</name></trkpt>
<trkpt lat="51.793552" lon="03.899666"><ele>-2.8</ele><time>2023-12-06T11:20:44Z</time><name>PT3206</name></trkpt>
<trkpt lat="51.793551" lon="03.899668"><ele>-2.8</ele><time>2023-12-06T11:20:45Z</time><name>PT3207</name></trkpt>
<trkpt lat="51.793553" lon="03.899681"><ele>-2.7</ele><time>2023-12-06T11:20:50Z</time><name>PT3208</name></trkpt>
<trkpt lat="51.793546" lon="03.899690"><ele>-2.7</ele><time>2023-12-06T11:20:51Z</time><name>PT3209</name></trkpt>
<trkpt lat="51.793541" lon="03.899704"><ele>-2.7</ele><time>2023-12-06T11:20:52Z</time><name>PT3210</name></trkpt>
<trkpt lat="51.793537" lon="03.899718"><ele>-2.8</ele><time>2023-12-06T11:20:53Z</time><name>PT3211</name></trkpt>
<trkpt lat="51.793533" lon="03.899730"><ele>-3</ele><time>2023-12-06T11:20:54Z</time><name>PT3212</name></trkpt>
<trkpt lat="51.793528" lon="03.899742"><ele>-3</ele><time>2023-12-06T11:20:54Z</time><name>PT3213</name></trkpt>
<trkpt lat="51.793525" lon="03.899754"><ele>-3</ele><time>2023-12-06T11:20:56Z</time><name>PT3214</name></trkpt>
<trkpt lat="51.793521" lon="03.899767"><ele>-2.8</ele><time>2023-12-06T11:20:57Z</time><name>PT3215</name></trkpt>
<trkpt lat="51.793518" lon="03.899781"><ele>-2.8</ele><time>2023-12-06T11:20:57Z</time><name>PT3216</name></trkpt>
<trkpt lat="51.793514" lon="03.899796"><ele>-2.9</ele><time>2023-12-06T11:20:59Z</time><name>PT3217</name></trkpt>
<trkpt lat="51.793511" lon="03.899809"><ele>-2.8</ele><time>2023-12-06T11:21:00Z</time><name>PT3218</name></trkpt>
<trkpt lat="51.793507" lon="03.899820"><ele>-2.9</ele><time>2023-12-06T11:21:00Z</time><name>PT3219</name></trkpt>
<trkpt lat="51.793503" lon="03.899832"><ele>-2.8</ele><time>2023-12-06T11:21:02Z</time><name>PT3220</name></trkpt>
<trkpt lat="51.793499" lon="03.899844"><ele>-2.9</ele><time>2023-12-06T11:21:03Z</time><name>PT3221</name></trkpt>
<trkpt lat="51.793498" lon="03.899855"><ele>-2.8</ele><time>2023-12-06T11:21:03Z</time><name>PT3222</name></trkpt>
<trkpt lat="51.793497" lon="03.899858"><ele>-2.7</ele><time>2023-12-06T11:21:05Z</time><name>PT3223</name></trkpt>
<trkpt lat="51.793498" lon="03.899858"><ele>-2.8</ele><time>2023-12-06T11:21:06Z</time><name>PT3224</name></trkpt>
<trkpt lat="51.793497" lon="03.899859"><ele>-2.8</ele><time>2023-12-06T11:21:06Z</time><name>PT3225</name></trkpt>
<trkpt lat="51.793496" lon="03.899860"><ele>-2.7</ele><time>2023-12-06T11:21:08Z</time><name>PT3226</name></trkpt>
<trkpt lat="51.793493" lon="03.899862"><ele>-2.6</ele><time>2023-12-06T11:21:12Z</time><name>PT3227</name></trkpt>
<trkpt lat="51.793488" lon="03.899875"><ele>-2.7</ele><time>2023-12-06T11:21:13Z</time><name>PT3228</name></trkpt>
<trkpt lat="51.793481" lon="03.899883"><ele>-2.6</ele><time>2023-12-06T11:21:14Z</time><name>PT3229</name></trkpt>
<trkpt lat="51.793481" lon="03.899890"><ele>-2.7</ele><time>2023-12-06T11:21:15Z</time><name>PT3230</name></trkpt>
<trkpt lat="51.793477" lon="03.899898"><ele>-2.7</ele><time>2023-12-06T11:21:15Z</time><name>PT3231</name></trkpt>
<trkpt lat="51.793474" lon="03.899911"><ele>-2.7</ele><time>2023-12-06T11:21:17Z</time><name>PT3232</name></trkpt>
<trkpt lat="51.793470" lon="03.899922"><ele>-2.7</ele><time>2023-12-06T11:21:18Z</time><name>PT3233</name></trkpt>
<trkpt lat="51.793469" lon="03.899937"><ele>-2.7</ele><time>2023-12-06T11:21:18Z</time><name>PT3234</name></trkpt>
<trkpt lat="51.793470" lon="03.899950"><ele>-2.8</ele><time>2023-12-06T11:21:20Z</time><name>PT3235</name></trkpt>
<trkpt lat="51.793467" lon="03.899963"><ele>-2.7</ele><time>2023-12-06T11:21:21Z</time><name>PT3236</name></trkpt>
<trkpt lat="51.793463" lon="03.899973"><ele>-2.7</ele><time>2023-12-06T11:21:21Z</time><name>PT3237</name></trkpt>
<trkpt lat="51.793460" lon="03.899983"><ele>-2.8</ele><time>2023-12-06T11:21:23Z</time><name>PT3238</name></trkpt>
<trkpt lat="51.793457" lon="03.899994"><ele>-2.7</ele><time>2023-12-06T11:21:24Z</time><name>PT3239</name></trkpt>
<trkpt lat="51.793455" lon="03.900007"><ele>-2.9</ele><time>2023-12-06T11:21:24Z</time><name>PT3240</name></trkpt>
<trkpt lat="51.793451" lon="03.900019"><ele>-3</ele><time>2023-12-06T11:21:26Z</time><name>PT3241</name></trkpt>
<trkpt lat="51.793447" lon="03.900032"><ele>-3.1</ele><time>2023-12-06T11:21:27Z</time><name>PT3242</name></trkpt>
<trkpt lat="51.793446" lon="03.900047"><ele>-3</ele><time>2023-12-06T11:21:27Z</time><name>PT3243</name></trkpt>
<trkpt lat="51.793442" lon="03.900063"><ele>-2.8</ele><time>2023-12-06T11:21:29Z</time><name>PT3244</name></trkpt>
<trkpt lat="51.793438" lon="03.900078"><ele>-2.7</ele><time>2023-12-06T11:21:30Z</time><name>PT3245</name></trkpt>
<trkpt lat="51.793433" lon="03.900092"><ele>-2.7</ele><time>2023-12-06T11:21:30Z</time><name>PT3246</name></trkpt>
<trkpt lat="51.793428" lon="03.900107"><ele>-2.6</ele><time>2023-12-06T11:21:32Z</time><name>PT3247</name></trkpt>
<trkpt lat="51.793424" lon="03.900124"><ele>-2.7</ele><time>2023-12-06T11:21:33Z</time><name>PT3248</name></trkpt>
<trkpt lat="51.793420" lon="03.900139"><ele>-2.7</ele><time>2023-12-06T11:21:34Z</time><name>PT3249</name></trkpt>
<trkpt lat="51.793415" lon="03.900154"><ele>-2.6</ele><time>2023-12-06T11:21:35Z</time><name>PT3250</name></trkpt>
<trkpt lat="51.793411" lon="03.900170"><ele>-2.7</ele><time>2023-12-06T11:21:36Z</time><name>PT3251</name></trkpt>
<trkpt lat="51.793408" lon="03.900185"><ele>-2.7</ele><time>2023-12-06T11:21:36Z</time><name>PT3252</name></trkpt>
<trkpt lat="51.793403" lon="03.900201"><ele>-2.9</ele><time>2023-12-06T11:21:38Z</time><name>PT3253</name></trkpt>
<trkpt lat="51.793396" lon="03.900217"><ele>-3</ele><time>2023-12-06T11:21:39Z</time><name>PT3254</name></trkpt>
<trkpt lat="51.793391" lon="03.900234"><ele>-2.9</ele><time>2023-12-06T11:21:40Z</time><name>PT3255</name></trkpt>
<trkpt lat="51.793386" lon="03.900250"><ele>-3.1</ele><time>2023-12-06T11:21:41Z</time><name>PT3256</name></trkpt>
<trkpt lat="51.793381" lon="03.900267"><ele>-3</ele><time>2023-12-06T11:21:42Z</time><name>PT3257</name></trkpt>
<trkpt lat="51.793376" lon="03.900282"><ele>-2.9</ele><time>2023-12-06T11:21:42Z</time><name>PT3258</name></trkpt>
<trkpt lat="51.793372" lon="03.900299"><ele>-2.9</ele><time>2023-12-06T11:21:44Z</time><name>PT3259</name></trkpt>
<trkpt lat="51.793368" lon="03.900316"><ele>-2.7</ele><time>2023-12-06T11:21:45Z</time><name>PT3260</name></trkpt>
<trkpt lat="51.793366" lon="03.900330"><ele>-2.7</ele><time>2023-12-06T11:21:45Z</time><name>PT3261</name></trkpt>
<trkpt lat="51.793363" lon="03.900345"><ele>-2.6</ele><time>2023-12-06T11:21:47Z</time><name>PT3262</name></trkpt>
<trkpt lat="51.793359" lon="03.900360"><ele>-2.6</ele><time>2023-12-06T11:21:48Z</time><name>PT3263</name></trkpt>
<trkpt lat="51.793355" lon="03.900375"><ele>-2.7</ele><time>2023-12-06T11:21:49Z</time><name>PT3264</name></trkpt>
<trkpt lat="51.793347" lon="03.900390"><ele>-2.8</ele><time>2023-12-06T11:21:50Z</time><name>PT3265</name></trkpt>
<trkpt lat="51.793340" lon="03.900403"><ele>-2.8</ele><time>2023-12-06T11:21:51Z</time><name>PT3266</name></trkpt>
<trkpt lat="51.793334" lon="03.900419"><ele>-2.8</ele><time>2023-12-06T11:21:51Z</time><name>PT3267</name></trkpt>
<trkpt lat="51.793329" lon="03.900435"><ele>-2.7</ele><time>2023-12-06T11:21:53Z</time><name>PT3268</name></trkpt>
<trkpt lat="51.793326" lon="03.900451"><ele>-2.7</ele><time>2023-12-06T11:21:54Z</time><name>PT3269</name></trkpt>
<trkpt lat="51.793323" lon="03.900467"><ele>-2.7</ele><time>2023-12-06T11:21:54Z</time><name>PT3270</name></trkpt>
<trkpt lat="51.793318" lon="03.900485"><ele>-2.9</ele><time>2023-12-06T11:21:56Z</time><name>PT3271</name></trkpt>
<trkpt lat="51.793314" lon="03.900503"><ele>-2.7</ele><time>2023-12-06T11:21:57Z</time><name>PT3272</name></trkpt>
<trkpt lat="51.793311" lon="03.900519"><ele>-2.8</ele><time>2023-12-06T11:21:57Z</time><name>PT3273</name></trkpt>
<trkpt lat="51.793307" lon="03.900534"><ele>-2.7</ele><time>2023-12-06T11:21:59Z</time><name>PT3274</name></trkpt>
<trkpt lat="51.793302" lon="03.900550"><ele>-2.6</ele><time>2023-12-06T11:22:00Z</time><name>PT3275</name></trkpt>
<trkpt lat="51.793297" lon="03.900567"><ele>-2.7</ele><time>2023-12-06T11:22:00Z</time><name>PT3276</name></trkpt>
<trkpt lat="51.793293" lon="03.900579"><ele>-2.8</ele><time>2023-12-06T11:22:02Z</time><name>PT3277</name></trkpt>
<trkpt lat="51.793290" lon="03.900593"><ele>-2.9</ele><time>2023-12-06T11:22:03Z</time><name>PT3278</name></trkpt>
<trkpt lat="51.793286" lon="03.900609"><ele>-2.7</ele><time>2023-12-06T11:22:04Z</time><name>PT3279</name></trkpt>
<trkpt lat="51.793282" lon="03.900623"><ele>-2.7</ele><time>2023-12-06T11:22:05Z</time><name>PT3280</name></trkpt>
<trkpt lat="51.793276" lon="03.900637"><ele>-2.7</ele><time>2023-12-06T11:22:06Z</time><name>PT3281</name></trkpt>
<trkpt lat="51.793271" lon="03.900652"><ele>-2.7</ele><time>2023-12-06T11:22:06Z</time><name>PT3282</name></trkpt>
<trkpt lat="51.793267" lon="03.900667"><ele>-2.7</ele><time>2023-12-06T11:22:08Z</time><name>PT3283</name></trkpt>
<trkpt lat="51.793262" lon="03.900681"><ele>-2.8</ele><time>2023-12-06T11:22:09Z</time><name>PT3284</name></trkpt>
<trkpt lat="51.793257" lon="03.900697"><ele>-2.8</ele><time>2023-12-06T11:22:09Z</time><name>PT3285</name></trkpt>
<trkpt lat="51.793253" lon="03.900714"><ele>-2.7</ele><time>2023-12-06T11:22:11Z</time><name>PT3286</name></trkpt>
<trkpt lat="51.793249" lon="03.900723"><ele>-2.6</ele><time>2023-12-06T11:22:12Z</time><name>PT3287</name></trkpt>
<trkpt lat="51.793247" lon="03.900726"><ele>-2.5</ele><time>2023-12-06T11:22:13Z</time><name>PT3288</name></trkpt>
<trkpt lat="51.793248" lon="03.900730"><ele>-2.4</ele><time>2023-12-06T11:22:14Z</time><name>PT3289</name></trkpt>
<trkpt lat="51.793247" lon="03.900731"><ele>-2.5</ele><time>2023-12-06T11:22:15Z</time><name>PT3290</name></trkpt>
<trkpt lat="51.793246" lon="03.900736"><ele>-2.7</ele><time>2023-12-06T11:22:16Z</time><name>PT3291</name></trkpt>
<trkpt lat="51.793244" lon="03.900748"><ele>-2.7</ele><time>2023-12-06T11:22:17Z</time><name>PT3292</name></trkpt>
<trkpt lat="51.793242" lon="03.900763"><ele>-2.9</ele><time>2023-12-06T11:22:18Z</time><name>PT3293</name></trkpt>
<trkpt lat="51.793238" lon="03.900778"><ele>-2.8</ele><time>2023-12-06T11:22:18Z</time><name>PT3294</name></trkpt>
<trkpt lat="51.793232" lon="03.900792"><ele>-2.7</ele><time>2023-12-06T11:22:20Z</time><name>PT3295</name></trkpt>
<trkpt lat="51.793227" lon="03.900807"><ele>-2.7</ele><time>2023-12-06T11:22:21Z</time><name>PT3296</name></trkpt>
<trkpt lat="51.793222" lon="03.900821"><ele>-2.6</ele><time>2023-12-06T11:22:22Z</time><name>PT3297</name></trkpt>
<trkpt lat="51.793218" lon="03.900835"><ele>-2.5</ele><time>2023-12-06T11:22:23Z</time><name>PT3298</name></trkpt>
<trkpt lat="51.793215" lon="03.900852"><ele>-2.6</ele><time>2023-12-06T11:22:24Z</time><name>PT3299</name></trkpt>
<trkpt lat="51.793214" lon="03.900869"><ele>-2.6</ele><time>2023-12-06T11:22:24Z</time><name>PT3300</name></trkpt>
<trkpt lat="51.793210" lon="03.900886"><ele>-2.7</ele><time>2023-12-06T11:22:26Z</time><name>PT3301</name></trkpt>
<trkpt lat="51.793207" lon="03.900901"><ele>-2.7</ele><time>2023-12-06T11:22:27Z</time><name>PT3302</name></trkpt>
<trkpt lat="51.793204" lon="03.900917"><ele>-2.7</ele><time>2023-12-06T11:22:27Z</time><name>PT3303</name></trkpt>
<trkpt lat="51.793201" lon="03.900931"><ele>-2.7</ele><time>2023-12-06T11:22:29Z</time><name>PT3304</name></trkpt>
<trkpt lat="51.793196" lon="03.900943"><ele>-2.7</ele><time>2023-12-06T11:22:30Z</time><name>PT3305</name></trkpt>
<trkpt lat="51.793192" lon="03.900955"><ele>-2.6</ele><time>2023-12-06T11:22:30Z</time><name>PT3306</name></trkpt>
<trkpt lat="51.793186" lon="03.900966"><ele>-2.8</ele><time>2023-12-06T11:22:32Z</time><name>PT3307</name></trkpt>
<trkpt lat="51.793183" lon="03.900979"><ele>-2.8</ele><time>2023-12-06T11:22:33Z</time><name>PT3308</name></trkpt>
<trkpt lat="51.793182" lon="03.900994"><ele>-2.8</ele><time>2023-12-06T11:22:33Z</time><name>PT3309</name></trkpt>
<trkpt lat="51.793181" lon="03.901011"><ele>-2.8</ele><time>2023-12-06T11:22:35Z</time><name>PT3310</name></trkpt>
<trkpt lat="51.793178" lon="03.901029"><ele>-2.5</ele><time>2023-12-06T11:22:36Z</time><name>PT3311</name></trkpt>
<trkpt lat="51.793173" lon="03.901043"><ele>-2.7</ele><time>2023-12-06T11:22:37Z</time><name>PT3312</name></trkpt>
<trkpt lat="51.793169" lon="03.901058"><ele>-2.7</ele><time>2023-12-06T11:22:38Z</time><name>PT3313</name></trkpt>
<trkpt lat="51.793165" lon="03.901075"><ele>-2.6</ele><time>2023-12-06T11:22:39Z</time><name>PT3314</name></trkpt>
<trkpt lat="51.793161" lon="03.901092"><ele>-2.8</ele><time>2023-12-06T11:22:40Z</time><name>PT3315</name></trkpt>
<trkpt lat="51.793156" lon="03.901110"><ele>-2.7</ele><time>2023-12-06T11:22:41Z</time><name>PT3316</name></trkpt>
<trkpt lat="51.793152" lon="03.901127"><ele>-2.6</ele><time>2023-12-06T11:22:42Z</time><name>PT3317</name></trkpt>
<trkpt lat="51.793149" lon="03.901144"><ele>-2.7</ele><time>2023-12-06T11:22:42Z</time><name>PT3318</name></trkpt>
<trkpt lat="51.793146" lon="03.901162"><ele>-2.8</ele><time>2023-12-06T11:22:44Z</time><name>PT3319</name></trkpt>
<trkpt lat="51.793143" lon="03.901179"><ele>-2.9</ele><time>2023-12-06T11:22:45Z</time><name>PT3320</name></trkpt>
<trkpt lat="51.793140" lon="03.901195"><ele>-2.9</ele><time>2023-12-06T11:22:46Z</time><name>PT3321</name></trkpt>
<trkpt lat="51.793139" lon="03.901213"><ele>-2.8</ele><time>2023-12-06T11:22:47Z</time><name>PT3322</name></trkpt>
<trkpt lat="51.793137" lon="03.901230"><ele>-2.5</ele><time>2023-12-06T11:22:48Z</time><name>PT3323</name></trkpt>
<trkpt lat="51.793134" lon="03.901246"><ele>-2.3</ele><time>2023-12-06T11:22:48Z</time><name>PT3324</name></trkpt>
<trkpt lat="51.793128" lon="03.901263"><ele>-2.4</ele><time>2023-12-06T11:22:50Z</time><name>PT3325</name></trkpt>
<trkpt lat="51.793125" lon="03.901275"><ele>-2.4</ele><time>2023-12-06T11:22:51Z</time><name>PT3326</name></trkpt>
<trkpt lat="51.793123" lon="03.901288"><ele>-2.4</ele><time>2023-12-06T11:22:51Z</time><name>PT3327</name></trkpt>
<trkpt lat="51.793121" lon="03.901304"><ele>-2.6</ele><time>2023-12-06T11:22:53Z</time><name>PT3328</name></trkpt>
<trkpt lat="51.793118" lon="03.901317"><ele>-2.4</ele><time>2023-12-06T11:22:54Z</time><name>PT3329</name></trkpt>
<trkpt lat="51.793116" lon="03.901329"><ele>-2.3</ele><time>2023-12-06T11:22:54Z</time><name>PT3330</name></trkpt>
<trkpt lat="51.793111" lon="03.901344"><ele>-2.3</ele><time>2023-12-06T11:22:56Z</time><name>PT3331</name></trkpt>
<trkpt lat="51.793108" lon="03.901358"><ele>-2.4</ele><time>2023-12-06T11:22:57Z</time><name>PT3332</name></trkpt>
<trkpt lat="51.793105" lon="03.901372"><ele>-2.6</ele><time>2023-12-06T11:22:57Z</time><name>PT3333</name></trkpt>
<trkpt lat="51.793104" lon="03.901383"><ele>-2.7</ele><time>2023-12-06T11:22:59Z</time><name>PT3334</name></trkpt>
<trkpt lat="51.793103" lon="03.901395"><ele>-2.7</ele><time>2023-12-06T11:23:00Z</time><name>PT3335</name></trkpt>
<trkpt lat="51.793100" lon="03.901408"><ele>-2.7</ele><time>2023-12-06T11:23:00Z</time><name>PT3336</name></trkpt>
<trkpt lat="51.793097" lon="03.901422"><ele>-2.6</ele><time>2023-12-06T11:23:02Z</time><name>PT3337</name></trkpt>
<trkpt lat="51.793095" lon="03.901436"><ele>-2.6</ele><time>2023-12-06T11:23:03Z</time><name>PT3338</name></trkpt>
<trkpt lat="51.793092" lon="03.901448"><ele>-2.7</ele><time>2023-12-06T11:23:03Z</time><name>PT3339</name></trkpt>
<trkpt lat="51.793088" lon="03.901457"><ele>-2.7</ele><time>2023-12-06T11:23:05Z</time><name>PT3340</name></trkpt>
<trkpt lat="51.793086" lon="03.901465"><ele>-2.6</ele><time>2023-12-06T11:23:06Z</time><name>PT3341</name></trkpt>
<trkpt lat="51.793084" lon="03.901476"><ele>-2.6</ele><time>2023-12-06T11:23:07Z</time><name>PT3342</name></trkpt>
<trkpt lat="51.793083" lon="03.901486"><ele>-2.6</ele><time>2023-12-06T11:23:08Z</time><name>PT3343</name></trkpt>
<trkpt lat="51.793081" lon="03.901498"><ele>-2.7</ele><time>2023-12-06T11:23:09Z</time><name>PT3344</name></trkpt>
<trkpt lat="51.793079" lon="03.901509"><ele>-2.7</ele><time>2023-12-06T11:23:09Z</time><name>PT3345</name></trkpt>
<trkpt lat="51.793076" lon="03.901521"><ele>-2.7</ele><time>2023-12-06T11:23:11Z</time><name>PT3346</name></trkpt>
<trkpt lat="51.793073" lon="03.901533"><ele>-2.6</ele><time>2023-12-06T11:23:12Z</time><name>PT3347</name></trkpt>
<trkpt lat="51.793070" lon="03.901548"><ele>-2.6</ele><time>2023-12-06T11:23:12Z</time><name>PT3348</name></trkpt>
<trkpt lat="51.793070" lon="03.901561"><ele>-2.6</ele><time>2023-12-06T11:23:14Z</time><name>PT3349</name></trkpt>
<trkpt lat="51.793068" lon="03.901574"><ele>-2.6</ele><time>2023-12-06T11:23:15Z</time><name>PT3350</name></trkpt>
<trkpt lat="51.793065" lon="03.901585"><ele>-2.5</ele><time>2023-12-06T11:23:15Z</time><name>PT3351</name></trkpt>
<trkpt lat="51.793062" lon="03.901596"><ele>-2.5</ele><time>2023-12-06T11:23:17Z</time><name>PT3352</name></trkpt>
<trkpt lat="51.793059" lon="03.901611"><ele>-2.4</ele><time>2023-12-06T11:23:18Z</time><name>PT3353</name></trkpt>
<trkpt lat="51.793056" lon="03.901624"><ele>-2.5</ele><time>2023-12-06T11:23:18Z</time><name>PT3354</name></trkpt>
<trkpt lat="51.793053" lon="03.901637"><ele>-2.3</ele><time>2023-12-06T11:23:20Z</time><name>PT3355</name></trkpt>
<trkpt lat="51.793050" lon="03.901651"><ele>-2.5</ele><time>2023-12-06T11:23:21Z</time><name>PT3356</name></trkpt>
<trkpt lat="51.793047" lon="03.901663"><ele>-2.5</ele><time>2023-12-06T11:23:21Z</time><name>PT3357</name></trkpt>
<trkpt lat="51.793045" lon="03.901677"><ele>-2.5</ele><time>2023-12-06T11:23:23Z</time><name>PT3358</name></trkpt>
<trkpt lat="51.793042" lon="03.901687"><ele>-2.4</ele><time>2023-12-06T11:23:24Z</time><name>PT3359</name></trkpt>
<trkpt lat="51.793042" lon="03.901693"><ele>-2.3</ele><time>2023-12-06T11:23:24Z</time><name>PT3360</name></trkpt>
<trkpt lat="51.793042" lon="03.901694"><ele>-2.5</ele><time>2023-12-06T11:23:26Z</time><name>PT3361</name></trkpt>
<trkpt lat="51.793039" lon="03.901699"><ele>-2.5</ele><time>2023-12-06T11:23:27Z</time><name>PT3362</name></trkpt>
<trkpt lat="51.793038" lon="03.901705"><ele>-2.6</ele><time>2023-12-06T11:23:28Z</time><name>PT3363</name></trkpt>
<trkpt lat="51.793038" lon="03.901713"><ele>-2.7</ele><time>2023-12-06T11:23:29Z</time><name>PT3364</name></trkpt>
<trkpt lat="51.793036" lon="03.901721"><ele>-2.4</ele><time>2023-12-06T11:23:30Z</time><name>PT3365</name></trkpt>
<trkpt lat="51.793035" lon="03.901727"><ele>-2.4</ele><time>2023-12-06T11:23:30Z</time><name>PT3366</name></trkpt>
<trkpt lat="51.793033" lon="03.901728"><ele>-2.3</ele><time>2023-12-06T11:23:32Z</time><name>PT3367</name></trkpt>
<trkpt lat="51.793032" lon="03.901727"><ele>-2.4</ele><time>2023-12-06T11:23:33Z</time><name>PT3368</name></trkpt>
<trkpt lat="51.793032" lon="03.901728"><ele>-2.3</ele><time>2023-12-06T11:23:33Z</time><name>PT3369</name></trkpt>
<trkpt lat="51.793033" lon="03.901738"><ele>-2.5</ele><time>2023-12-06T11:23:39Z</time><name>PT3370</name></trkpt>
<trkpt lat="51.793030" lon="03.901755"><ele>-2.6</ele><time>2023-12-06T11:23:39Z</time><name>PT3371</name></trkpt>
<trkpt lat="51.793026" lon="03.901775"><ele>-2.6</ele><time>2023-12-06T11:23:41Z</time><name>PT3372</name></trkpt>
<trkpt lat="51.793023" lon="03.901790"><ele>-2.6</ele><time>2023-12-06T11:23:42Z</time><name>PT3373</name></trkpt>
<trkpt lat="51.793021" lon="03.901808"><ele>-2.7</ele><time>2023-12-06T11:23:42Z</time><name>PT3374</name></trkpt>
<trkpt lat="51.793018" lon="03.901828"><ele>-2.5</ele><time>2023-12-06T11:23:44Z</time><name>PT3375</name></trkpt>
<trkpt lat="51.793014" lon="03.901844"><ele>-2.4</ele><time>2023-12-06T11:23:45Z</time><name>PT3376</name></trkpt>
<trkpt lat="51.793010" lon="03.901858"><ele>-2.3</ele><time>2023-12-06T11:23:46Z</time><name>PT3377</name></trkpt>
<trkpt lat="51.793007" lon="03.901873"><ele>-2.2</ele><time>2023-12-06T11:23:47Z</time><name>PT3378</name></trkpt>
<trkpt lat="51.793005" lon="03.901890"><ele>-2.4</ele><time>2023-12-06T11:23:48Z</time><name>PT3379</name></trkpt>
<trkpt lat="51.793003" lon="03.901904"><ele>-2.4</ele><time>2023-12-06T11:23:49Z</time><name>PT3380</name></trkpt>
<trkpt lat="51.793001" lon="03.901917"><ele>-2.6</ele><time>2023-12-06T11:23:50Z</time><name>PT3381</name></trkpt>
<trkpt lat="51.792997" lon="03.901932"><ele>-2.7</ele><time>2023-12-06T11:23:51Z</time><name>PT3382</name></trkpt>
<trkpt lat="51.792993" lon="03.901946"><ele>-2.7</ele><time>2023-12-06T11:23:52Z</time><name>PT3383</name></trkpt>
<trkpt lat="51.792991" lon="03.901961"><ele>-2.6</ele><time>2023-12-06T11:23:53Z</time><name>PT3384</name></trkpt>
<trkpt lat="51.792988" lon="03.901977"><ele>-2.4</ele><time>2023-12-06T11:23:54Z</time><name>PT3385</name></trkpt>
<trkpt lat="51.792986" lon="03.901993"><ele>-2.3</ele><time>2023-12-06T11:23:54Z</time><name>PT3386</name></trkpt>
<trkpt lat="51.792984" lon="03.902009"><ele>-2.3</ele><time>2023-12-06T11:23:56Z</time><name>PT3387</name></trkpt>
<trkpt lat="51.792981" lon="03.902024"><ele>-2.3</ele><time>2023-12-06T11:23:57Z</time><name>PT3388</name></trkpt>
<trkpt lat="51.792977" lon="03.902040"><ele>-2.3</ele><time>2023-12-06T11:23:57Z</time><name>PT3389</name></trkpt>
<trkpt lat="51.792973" lon="03.902055"><ele>-2.2</ele><time>2023-12-06T11:23:59Z</time><name>PT3390</name></trkpt>
<trkpt lat="51.792972" lon="03.902070"><ele>-2.2</ele><time>2023-12-06T11:24:00Z</time><name>PT3391</name></trkpt>
<trkpt lat="51.792971" lon="03.902082"><ele>-2.2</ele><time>2023-12-06T11:24:01Z</time><name>PT3392</name></trkpt>
<trkpt lat="51.792967" lon="03.902094"><ele>-2.5</ele><time>2023-12-06T11:24:02Z</time><name>PT3393</name></trkpt>
<trkpt lat="51.792964" lon="03.902107"><ele>-2.4</ele><time>2023-12-06T11:24:03Z</time><name>PT3394</name></trkpt>
<trkpt lat="51.792962" lon="03.902119"><ele>-2.3</ele><time>2023-12-06T11:24:04Z</time><name>PT3395</name></trkpt>
<trkpt lat="51.792961" lon="03.902131"><ele>-2.2</ele><time>2023-12-06T11:24:05Z</time><name>PT3396</name></trkpt>
<trkpt lat="51.792958" lon="03.902138"><ele>-1.9</ele><time>2023-12-06T11:24:06Z</time><name>PT3397</name></trkpt>
<trkpt lat="51.792957" lon="03.902143"><ele>-2</ele><time>2023-12-06T11:24:06Z</time><name>PT3398</name></trkpt>
<trkpt lat="51.792956" lon="03.902149"><ele>-2.1</ele><time>2023-12-06T11:24:08Z</time><name>PT3399</name></trkpt>
<trkpt lat="51.792955" lon="03.902157"><ele>-2</ele><time>2023-12-06T11:24:09Z</time><name>PT3400</name></trkpt>
<trkpt lat="51.792954" lon="03.902163"><ele>-2</ele><time>2023-12-06T11:24:09Z</time><name>PT3401</name></trkpt>
<trkpt lat="51.792953" lon="03.902167"><ele>-2</ele><time>2023-12-06T11:24:11Z</time><name>PT3402</name></trkpt>
<trkpt lat="51.792952" lon="03.902166"><ele>-1.8</ele><time>2023-12-06T11:24:12Z</time><name>PT3403</name></trkpt>
<trkpt lat="51.792952" lon="03.902166"><ele>-1.8</ele><time>2023-12-06T11:24:12Z</time><name>PT3404</name></trkpt>
<trkpt lat="51.792952" lon="03.902169"><ele>-1.9</ele><time>2023-12-06T11:24:14Z</time><name>PT3405</name></trkpt>
<trkpt lat="51.792951" lon="03.902178"><ele>-1.9</ele><time>2023-12-06T11:24:15Z</time><name>PT3406</name></trkpt>
<trkpt lat="51.792949" lon="03.902190"><ele>-2</ele><time>2023-12-06T11:24:15Z</time><name>PT3407</name></trkpt>
<trkpt lat="51.792946" lon="03.902205"><ele>-2.1</ele><time>2023-12-06T11:24:17Z</time><name>PT3408</name></trkpt>
<trkpt lat="51.792944" lon="03.902221"><ele>-2.1</ele><time>2023-12-06T11:24:18Z</time><name>PT3409</name></trkpt>
<trkpt lat="51.792943" lon="03.902236"><ele>-2.2</ele><time>2023-12-06T11:24:18Z</time><name>PT3410</name></trkpt>
<trkpt lat="51.792941" lon="03.902244"><ele>-2.1</ele><time>2023-12-06T11:24:20Z</time><name>PT3411</name></trkpt>
<trkpt lat="51.792939" lon="03.902247"><ele>-2.1</ele><time>2023-12-06T11:24:21Z</time><name>PT3412</name></trkpt>
<trkpt lat="51.792939" lon="03.902247"><ele>-2.2</ele><time>2023-12-06T11:24:21Z</time><name>PT3413</name></trkpt>
<trkpt lat="51.792940" lon="03.902246"><ele>-2.2</ele><time>2023-12-06T11:24:23Z</time><name>PT3414</name></trkpt>
<trkpt lat="51.792942" lon="03.902246"><ele>-2.3</ele><time>2023-12-06T11:24:24Z</time><name>PT3415</name></trkpt>
<trkpt lat="51.792941" lon="03.902251"><ele>-2.6</ele><time>2023-12-06T11:25:33Z</time><name>PT3416</name></trkpt>
<trkpt lat="51.792939" lon="03.902263"><ele>-2.5</ele><time>2023-12-06T11:25:33Z</time><name>PT3417</name></trkpt>
<trkpt lat="51.792936" lon="03.902277"><ele>-2.5</ele><time>2023-12-06T11:25:35Z</time><name>PT3418</name></trkpt>
<trkpt lat="51.792936" lon="03.902293"><ele>-2.4</ele><time>2023-12-06T11:25:36Z</time><name>PT3419</name></trkpt>
<trkpt lat="51.792935" lon="03.902307"><ele>-2.5</ele><time>2023-12-06T11:25:36Z</time><name>PT3420</name></trkpt>
<trkpt lat="51.792933" lon="03.902317"><ele>-2.4</ele><time>2023-12-06T11:25:38Z</time><name>PT3421</name></trkpt>
<trkpt lat="51.792933" lon="03.902322"><ele>-2.3</ele><time>2023-12-06T11:25:39Z</time><name>PT3422</name></trkpt>
<trkpt lat="51.792932" lon="03.902323"><ele>-2.3</ele><time>2023-12-06T11:25:39Z</time><name>PT3423</name></trkpt>
<trkpt lat="51.792931" lon="03.902323"><ele>-2.3</ele><time>2023-12-06T11:25:41Z</time><name>PT3424</name></trkpt>
<trkpt lat="51.792930" lon="03.902328"><ele>-2.2</ele><time>2023-12-06T11:25:48Z</time><name>PT3425</name></trkpt>
<trkpt lat="51.792926" lon="03.902341"><ele>-2.3</ele><time>2023-12-06T11:25:50Z</time><name>PT3426</name></trkpt>
<trkpt lat="51.792923" lon="03.902357"><ele>-2.3</ele><time>2023-12-06T11:25:51Z</time><name>PT3427</name></trkpt>
<trkpt lat="51.792921" lon="03.902373"><ele>-2.3</ele><time>2023-12-06T11:25:51Z</time><name>PT3428</name></trkpt>
<trkpt lat="51.792919" lon="03.902389"><ele>-2.3</ele><time>2023-12-06T11:25:53Z</time><name>PT3429</name></trkpt>
<trkpt lat="51.792916" lon="03.902403"><ele>-2.2</ele><time>2023-12-06T11:25:54Z</time><name>PT3430</name></trkpt>
<trkpt lat="51.792913" lon="03.902416"><ele>-2.2</ele><time>2023-12-06T11:25:54Z</time><name>PT3431</name></trkpt>
<trkpt lat="51.792909" lon="03.902429"><ele>-2.2</ele><time>2023-12-06T11:25:56Z</time><name>PT3432</name></trkpt>
<trkpt lat="51.792906" lon="03.902442"><ele>-2.1</ele><time>2023-12-06T11:25:57Z</time><name>PT3433</name></trkpt>
<trkpt lat="51.792905" lon="03.902457"><ele>-2.2</ele><time>2023-12-06T11:25:57Z</time><name>PT3434</name></trkpt>
<trkpt lat="51.792904" lon="03.902471"><ele>-2</ele><time>2023-12-06T11:25:59Z</time><name>PT3435</name></trkpt>
<trkpt lat="51.792902" lon="03.902485"><ele>-2.1</ele><time>2023-12-06T11:26:00Z</time><name>PT3436</name></trkpt>
<trkpt lat="51.792900" lon="03.902501"><ele>-2.2</ele><time>2023-12-06T11:26:00Z</time><name>PT3437</name></trkpt>
<trkpt lat="51.792898" lon="03.902516"><ele>-2.2</ele><time>2023-12-06T11:26:02Z</time><name>PT3438</name></trkpt>
<trkpt lat="51.792896" lon="03.902530"><ele>-2.4</ele><time>2023-12-06T11:26:03Z</time><name>PT3439</name></trkpt>
<trkpt lat="51.792894" lon="03.902545"><ele>-2.4</ele><time>2023-12-06T11:26:03Z</time><name>PT3440</name></trkpt>
<trkpt lat="51.792892" lon="03.902558"><ele>-2.5</ele><time>2023-12-06T11:26:05Z</time><name>PT3441</name></trkpt>
<trkpt lat="51.792888" lon="03.902572"><ele>-2.3</ele><time>2023-12-06T11:26:06Z</time><name>PT3442</name></trkpt>
<trkpt lat="51.792882" lon="03.902590"><ele>-2.2</ele><time>2023-12-06T11:26:06Z</time><name>PT3443</name></trkpt>
<trkpt lat="51.792877" lon="03.902607"><ele>-2.1</ele><time>2023-12-06T11:26:08Z</time><name>PT3444</name></trkpt>
<trkpt lat="51.792873" lon="03.902624"><ele>-2</ele><time>2023-12-06T11:26:09Z</time><name>PT3445</name></trkpt>
<trkpt lat="51.792870" lon="03.902639"><ele>-2.1</ele><time>2023-12-06T11:26:09Z</time><name>PT3446</name></trkpt>
<trkpt lat="51.792868" lon="03.902655"><ele>-2</ele><time>2023-12-06T11:26:11Z</time><name>PT3447</name></trkpt>
<trkpt lat="51.792865" lon="03.902670"><ele>-2</ele><time>2023-12-06T11:26:12Z</time><name>PT3448</name></trkpt>
<trkpt lat="51.792862" lon="03.902686"><ele>-2</ele><time>2023-12-06T11:26:12Z</time><name>PT3449</name></trkpt>
<trkpt lat="51.792859" lon="03.902700"><ele>-2</ele><time>2023-12-06T11:26:14Z</time><name>PT3450</name></trkpt>
<trkpt lat="51.792856" lon="03.902715"><ele>-2.1</ele><time>2023-12-06T11:26:15Z</time><name>PT3451</name></trkpt>
<trkpt lat="51.792854" lon="03.902730"><ele>-2.2</ele><time>2023-12-06T11:26:15Z</time><name>PT3452</name></trkpt>
<trkpt lat="51.792851" lon="03.902745"><ele>-2.1</ele><time>2023-12-06T11:26:17Z</time><name>PT3453</name></trkpt>
<trkpt lat="51.792848" lon="03.902759"><ele>-2</ele><time>2023-12-06T11:26:18Z</time><name>PT3454</name></trkpt>
<trkpt lat="51.792845" lon="03.902773"><ele>-2.1</ele><time>2023-12-06T11:26:18Z</time><name>PT3455</name></trkpt>
<trkpt lat="51.792843" lon="03.902788"><ele>-2</ele><time>2023-12-06T11:26:20Z</time><name>PT3456</name></trkpt>
<trkpt lat="51.792842" lon="03.902803"><ele>-2.1</ele><time>2023-12-06T11:26:21Z</time><name>PT3457</name></trkpt>
<trkpt lat="51.792840" lon="03.902818"><ele>-2.2</ele><time>2023-12-06T11:26:21Z</time><name>PT3458</name></trkpt>
<trkpt lat="51.792837" lon="03.902834"><ele>-2.1</ele><time>2023-12-06T11:26:23Z</time><name>PT3459</name></trkpt>
<trkpt lat="51.792834" lon="03.902849"><ele>-2.1</ele><time>2023-12-06T11:26:24Z</time><name>PT3460</name></trkpt>
<trkpt lat="51.792829" lon="03.902864"><ele>-1.9</ele><time>2023-12-06T11:26:24Z</time><name>PT3461</name></trkpt>
<trkpt lat="51.792825" lon="03.902882"><ele>-2.1</ele><time>2023-12-06T11:26:26Z</time><name>PT3462</name></trkpt>
<trkpt lat="51.792822" lon="03.902898"><ele>-2.2</ele><time>2023-12-06T11:26:27Z</time><name>PT3463</name></trkpt>
<trkpt lat="51.792820" lon="03.902916"><ele>-2.2</ele><time>2023-12-06T11:26:27Z</time><name>PT3464</name></trkpt>
<trkpt lat="51.792818" lon="03.902935"><ele>-2.2</ele><time>2023-12-06T11:26:29Z</time><name>PT3465</name></trkpt>
<trkpt lat="51.792816" lon="03.902952"><ele>-2.2</ele><time>2023-12-06T11:26:30Z</time><name>PT3466</name></trkpt>
<trkpt lat="51.792813" lon="03.902969"><ele>-2.2</ele><time>2023-12-06T11:26:30Z</time><name>PT3467</name></trkpt>
<trkpt lat="51.792808" lon="03.902985"><ele>-2</ele><time>2023-12-06T11:26:32Z</time><name>PT3468</name></trkpt>
<trkpt lat="51.792804" lon="03.903000"><ele>-2.1</ele><time>2023-12-06T11:26:33Z</time><name>PT3469</name></trkpt>
<trkpt lat="51.792800" lon="03.903011"><ele>-2.3</ele><time>2023-12-06T11:26:33Z</time><name>PT3470</name></trkpt>
<trkpt lat="51.792796" lon="03.903028"><ele>-2.4</ele><time>2023-12-06T11:26:35Z</time><name>PT3471</name></trkpt>
<trkpt lat="51.792793" lon="03.903045"><ele>-2.3</ele><time>2023-12-06T11:26:36Z</time><name>PT3472</name></trkpt>
<trkpt lat="51.792792" lon="03.903061"><ele>-2.2</ele><time>2023-12-06T11:26:36Z</time><name>PT3473</name></trkpt>
<trkpt lat="51.792792" lon="03.903072"><ele>-2.2</ele><time>2023-12-06T11:26:38Z</time><name>PT3474</name></trkpt>
<trkpt lat="51.792792" lon="03.903079"><ele>-2.2</ele><time>2023-12-06T11:26:39Z</time><name>PT3475</name></trkpt>
<trkpt lat="51.792791" lon="03.903080"><ele>-2.2</ele><time>2023-12-06T11:26:39Z</time><name>PT3476</name></trkpt>
<trkpt lat="51.792791" lon="03.903086"><ele>-2.2</ele><time>2023-12-06T11:26:41Z</time><name>PT3477</name></trkpt>
<trkpt lat="51.792789" lon="03.903096"><ele>-2.3</ele><time>2023-12-06T11:26:42Z</time><name>PT3478</name></trkpt>
<trkpt lat="51.792786" lon="03.903109"><ele>-2.2</ele><time>2023-12-06T11:26:42Z</time><name>PT3479</name></trkpt>
<trkpt lat="51.792782" lon="03.903125"><ele>-2.2</ele><time>2023-12-06T11:26:44Z</time><name>PT3480</name></trkpt>
<trkpt lat="51.792778" lon="03.903139"><ele>-2.2</ele><time>2023-12-06T11:26:45Z</time><name>PT3481</name></trkpt>
<trkpt lat="51.792774" lon="03.903156"><ele>-2.2</ele><time>2023-12-06T11:26:45Z</time><name>PT3482</name></trkpt>
<trkpt lat="51.792772" lon="03.903169"><ele>-2.2</ele><time>2023-12-06T11:26:47Z</time><name>PT3483</name></trkpt>
<trkpt lat="51.792770" lon="03.903186"><ele>-2.1</ele><time>2023-12-06T11:26:48Z</time><name>PT3484</name></trkpt>
<trkpt lat="51.792767" lon="03.903201"><ele>-2.2</ele><time>2023-12-06T11:26:48Z</time><name>PT3485</name></trkpt>
<trkpt lat="51.792765" lon="03.903217"><ele>-2.2</ele><time>2023-12-06T11:26:50Z</time><name>PT3486</name></trkpt>
<trkpt lat="51.792761" lon="03.903231"><ele>-2.2</ele><time>2023-12-06T11:26:51Z</time><name>PT3487</name></trkpt>
<trkpt lat="51.792757" lon="03.903245"><ele>-2.3</ele><time>2023-12-06T11:26:51Z</time><name>PT3488</name></trkpt>
<trkpt lat="51.792753" lon="03.903257"><ele>-2.5</ele><time>2023-12-06T11:26:53Z</time><name>PT3489</name></trkpt>
<trkpt lat="51.792752" lon="03.903269"><ele>-2.5</ele><time>2023-12-06T11:26:54Z</time><name>PT3490</name></trkpt>
<trkpt lat="51.792752" lon="03.903281"><ele>-2.5</ele><time>2023-12-06T11:26:54Z</time><name>PT3491</name></trkpt>
<trkpt lat="51.792751" lon="03.903292"><ele>-2.5</ele><time>2023-12-06T11:26:56Z</time><name>PT3492</name></trkpt>
<trkpt lat="51.792749" lon="03.903302"><ele>-2.5</ele><time>2023-12-06T11:26:57Z</time><name>PT3493</name></trkpt>
<trkpt lat="51.792747" lon="03.903311"><ele>-2.4</ele><time>2023-12-06T11:26:57Z</time><name>PT3494</name></trkpt>
<trkpt lat="51.792744" lon="03.903325"><ele>-2.5</ele><time>2023-12-06T11:26:59Z</time><name>PT3495</name></trkpt>
<trkpt lat="51.792744" lon="03.903340"><ele>-2.6</ele><time>2023-12-06T11:27:00Z</time><name>PT3496</name></trkpt>
<trkpt lat="51.792741" lon="03.903354"><ele>-2.5</ele><time>2023-12-06T11:27:00Z</time><name>PT3497</name></trkpt>
<trkpt lat="51.792738" lon="03.903368"><ele>-2.5</ele><time>2023-12-06T11:27:02Z</time><name>PT3498</name></trkpt>
<trkpt lat="51.792733" lon="03.903384"><ele>-2.5</ele><time>2023-12-06T11:27:03Z</time><name>PT3499</name></trkpt>
<trkpt lat="51.792728" lon="03.903398"><ele>-2.3</ele><time>2023-12-06T11:27:03Z</time><name>PT3500</name></trkpt>
<trkpt lat="51.792724" lon="03.903414"><ele>-2.2</ele><time>2023-12-06T11:27:05Z</time><name>PT3501</name></trkpt>
<trkpt lat="51.792721" lon="03.903427"><ele>-2.2</ele><time>2023-12-06T11:27:06Z</time><name>PT3502</name></trkpt>
<trkpt lat="51.792716" lon="03.903448"><ele>-2.3</ele><time>2023-12-06T11:27:07Z</time><name>PT3503</name></trkpt>
<trkpt lat="51.792715" lon="03.903466"><ele>-2.4</ele><time>2023-12-06T11:27:08Z</time><name>PT3504</name></trkpt>
<trkpt lat="51.792712" lon="03.903482"><ele>-2.5</ele><time>2023-12-06T11:27:08Z</time><name>PT3505</name></trkpt>
<trkpt lat="51.792709" lon="03.903502"><ele>-2.4</ele><time>2023-12-06T11:27:10Z</time><name>PT3506</name></trkpt>
<trkpt lat="51.792706" lon="03.903518"><ele>-2.3</ele><time>2023-12-06T11:27:11Z</time><name>PT3507</name></trkpt>
<trkpt lat="51.792704" lon="03.903537"><ele>-2.3</ele><time>2023-12-06T11:27:11Z</time><name>PT3508</name></trkpt>
<trkpt lat="51.792702" lon="03.903554"><ele>-2.3</ele><time>2023-12-06T11:27:13Z</time><name>PT3509</name></trkpt>
<trkpt lat="51.792699" lon="03.903572"><ele>-2.4</ele><time>2023-12-06T11:27:14Z</time><name>PT3510</name></trkpt>
<trkpt lat="51.792695" lon="03.903590"><ele>-2.4</ele><time>2023-12-06T11:27:15Z</time><name>PT3511</name></trkpt>
<trkpt lat="51.792692" lon="03.903606"><ele>-2.3</ele><time>2023-12-06T11:27:16Z</time><name>PT3512</name></trkpt>
<trkpt lat="51.792690" lon="03.903621"><ele>-2.3</ele><time>2023-12-06T11:27:17Z</time><name>PT3513</name></trkpt>
<trkpt lat="51.792688" lon="03.903638"><ele>-2.3</ele><time>2023-12-06T11:27:17Z</time><name>PT3514</name></trkpt>
<trkpt lat="51.792686" lon="03.903656"><ele>-2.4</ele><time>2023-12-06T11:27:19Z</time><name>PT3515</name></trkpt>
<trkpt lat="51.792683" lon="03.903673"><ele>-2.5</ele><time>2023-12-06T11:27:20Z</time><name>PT3516</name></trkpt>
<trkpt lat="51.792681" lon="03.903687"><ele>-2.5</ele><time>2023-12-06T11:27:20Z</time><name>PT3517</name></trkpt>
<trkpt lat="51.792680" lon="03.903702"><ele>-2.6</ele><time>2023-12-06T11:27:22Z</time><name>PT3518</name></trkpt>
<trkpt lat="51.792677" lon="03.903718"><ele>-2.4</ele><time>2023-12-06T11:27:23Z</time><name>PT3519</name></trkpt>
<trkpt lat="51.792673" lon="03.903735"><ele>-2.5</ele><time>2023-12-06T11:27:23Z</time><name>PT3520</name></trkpt>
<trkpt lat="51.792670" lon="03.903754"><ele>-2.6</ele><time>2023-12-06T11:27:25Z</time><name>PT3521</name></trkpt>
<trkpt lat="51.792666" lon="03.903772"><ele>-2.5</ele><time>2023-12-06T11:27:26Z</time><name>PT3522</name></trkpt>
<trkpt lat="51.792663" lon="03.903788"><ele>-2.6</ele><time>2023-12-06T11:27:26Z</time><name>PT3523</name></trkpt>
<trkpt lat="51.792658" lon="03.903804"><ele>-2.6</ele><time>2023-12-06T11:27:28Z</time><name>PT3524</name></trkpt>
<trkpt lat="51.792654" lon="03.903820"><ele>-2.7</ele><time>2023-12-06T11:27:29Z</time><name>PT3525</name></trkpt>
<trkpt lat="51.792651" lon="03.903836"><ele>-2.6</ele><time>2023-12-06T11:27:29Z</time><name>PT3526</name></trkpt>
<trkpt lat="51.792648" lon="03.903852"><ele>-2.6</ele><time>2023-12-06T11:27:31Z</time><name>PT3527</name></trkpt>
<trkpt lat="51.792646" lon="03.903867"><ele>-2.7</ele><time>2023-12-06T11:27:32Z</time><name>PT3528</name></trkpt>
<trkpt lat="51.792644" lon="03.903883"><ele>-2.6</ele><time>2023-12-06T11:27:32Z</time><name>PT3529</name></trkpt>
<trkpt lat="51.792642" lon="03.903899"><ele>-2.4</ele><time>2023-12-06T11:27:34Z</time><name>PT3530</name></trkpt>
<trkpt lat="51.792638" lon="03.903913"><ele>-2.3</ele><time>2023-12-06T11:27:35Z</time><name>PT3531</name></trkpt>
<trkpt lat="51.792635" lon="03.903927"><ele>-2.2</ele><time>2023-12-06T11:27:35Z</time><name>PT3532</name></trkpt>
<trkpt lat="51.792633" lon="03.903940"><ele>-2.1</ele><time>2023-12-06T11:27:37Z</time><name>PT3533</name></trkpt>
<trkpt lat="51.792630" lon="03.903956"><ele>-2.3</ele><time>2023-12-06T11:27:38Z</time><name>PT3534</name></trkpt>
<trkpt lat="51.792627" lon="03.903975"><ele>-2.2</ele><time>2023-12-06T11:27:38Z</time><name>PT3535</name></trkpt>
<trkpt lat="51.792625" lon="03.903991"><ele>-2.5</ele><time>2023-12-06T11:27:40Z</time><name>PT3536</name></trkpt>
<trkpt lat="51.792623" lon="03.904001"><ele>-2.5</ele><time>2023-12-06T11:27:41Z</time><name>PT3537</name></trkpt>
<trkpt lat="51.792619" lon="03.904014"><ele>-2.5</ele><time>2023-12-06T11:27:41Z</time><name>PT3538</name></trkpt>
<trkpt lat="51.792615" lon="03.904028"><ele>-2.5</ele><time>2023-12-06T11:27:43Z</time><name>PT3539</name></trkpt>
<trkpt lat="51.792611" lon="03.904045"><ele>-2.3</ele><time>2023-12-06T11:27:44Z</time><name>PT3540</name></trkpt>
<trkpt lat="51.792608" lon="03.904062"><ele>-2.3</ele><time>2023-12-06T11:27:45Z</time><name>PT3541</name></trkpt>
<trkpt lat="51.792606" lon="03.904075"><ele>-2.1</ele><time>2023-12-06T11:27:46Z</time><name>PT3542</name></trkpt>
<trkpt lat="51.792605" lon="03.904087"><ele>-2.1</ele><time>2023-12-06T11:27:47Z</time><name>PT3543</name></trkpt>
<trkpt lat="51.792604" lon="03.904099"><ele>-2.2</ele><time>2023-12-06T11:27:47Z</time><name>PT3544</name></trkpt>
<trkpt lat="51.792602" lon="03.904112"><ele>-2.3</ele><time>2023-12-06T11:27:49Z</time><name>PT3545</name></trkpt>
<trkpt lat="51.792600" lon="03.904127"><ele>-2.5</ele><time>2023-12-06T11:27:50Z</time><name>PT3546</name></trkpt>
<trkpt lat="51.792595" lon="03.904144"><ele>-2.7</ele><time>2023-12-06T11:27:50Z</time><name>PT3547</name></trkpt>
<trkpt lat="51.792592" lon="03.904158"><ele>-2.6</ele><time>2023-12-06T11:27:52Z</time><name>PT3548</name></trkpt>
<trkpt lat="51.792588" lon="03.904175"><ele>-2.6</ele><time>2023-12-06T11:27:53Z</time><name>PT3549</name></trkpt>
<trkpt lat="51.792585" lon="03.904190"><ele>-2.6</ele><time>2023-12-06T11:27:53Z</time><name>PT3550</name></trkpt>
<trkpt lat="51.792583" lon="03.904208"><ele>-2.5</ele><time>2023-12-06T11:27:55Z</time><name>PT3551</name></trkpt>
<trkpt lat="51.792582" lon="03.904227"><ele>-2.7</ele><time>2023-12-06T11:27:56Z</time><name>PT3552</name></trkpt>
<trkpt lat="51.792579" lon="03.904247"><ele>-2.7</ele><time>2023-12-06T11:27:56Z</time><name>PT3553</name></trkpt>
<trkpt lat="51.792578" lon="03.904264"><ele>-2.7</ele><time>2023-12-06T11:27:58Z</time><name>PT3554</name></trkpt>
<trkpt lat="51.792577" lon="03.904281"><ele>-2.8</ele><time>2023-12-06T11:27:59Z</time><name>PT3555</name></trkpt>
<trkpt lat="51.792576" lon="03.904299"><ele>-2.9</ele><time>2023-12-06T11:27:59Z</time><name>PT3556</name></trkpt>
<trkpt lat="51.792574" lon="03.904315"><ele>-2.6</ele><time>2023-12-06T11:28:01Z</time><name>PT3557</name></trkpt>
<trkpt lat="51.792572" lon="03.904331"><ele>-2.6</ele><time>2023-12-06T11:28:02Z</time><name>PT3558</name></trkpt>
<trkpt lat="51.792571" lon="03.904343"><ele>-2.5</ele><time>2023-12-06T11:28:02Z</time><name>PT3559</name></trkpt>
<trkpt lat="51.792570" lon="03.904354"><ele>-2.4</ele><time>2023-12-06T11:28:04Z</time><name>PT3560</name></trkpt>
<trkpt lat="51.792567" lon="03.904363"><ele>-2.6</ele><time>2023-12-06T11:28:05Z</time><name>PT3561</name></trkpt>
<trkpt lat="51.792566" lon="03.904368"><ele>-2.6</ele><time>2023-12-06T11:28:05Z</time><name>PT3562</name></trkpt>
<trkpt lat="51.792567" lon="03.904369"><ele>-2.5</ele><time>2023-12-06T11:28:07Z</time><name>PT3563</name></trkpt>
<trkpt lat="51.792566" lon="03.904369"><ele>-2.7</ele><time>2023-12-06T11:28:08Z</time><name>PT3564</name></trkpt>
<trkpt lat="51.792567" lon="03.904373"><ele>-3.1</ele><time>2023-12-06T11:28:11Z</time><name>PT3565</name></trkpt>
<trkpt lat="51.792565" lon="03.904384"><ele>-3.1</ele><time>2023-12-06T11:28:11Z</time><name>PT3566</name></trkpt>
<trkpt lat="51.792560" lon="03.904402"><ele>-3.2</ele><time>2023-12-06T11:28:13Z</time><name>PT3567</name></trkpt>
<trkpt lat="51.792556" lon="03.904415"><ele>-3.1</ele><time>2023-12-06T11:28:14Z</time><name>PT3568</name></trkpt>
<trkpt lat="51.792548" lon="03.904424"><ele>-3.1</ele><time>2023-12-06T11:28:14Z</time><name>PT3569</name></trkpt>
<trkpt lat="51.792545" lon="03.904437"><ele>-2.9</ele><time>2023-12-06T11:28:16Z</time><name>PT3570</name></trkpt>
<trkpt lat="51.792547" lon="03.904463"><ele>-2.9</ele><time>2023-12-06T11:28:17Z</time><name>PT3571</name></trkpt>
<trkpt lat="51.792544" lon="03.904476"><ele>-3.1</ele><time>2023-12-06T11:28:17Z</time><name>PT3572</name></trkpt>
<trkpt lat="51.792542" lon="03.904494"><ele>-2.9</ele><time>2023-12-06T11:28:19Z</time><name>PT3573</name></trkpt>
<trkpt lat="51.792541" lon="03.904513"><ele>-2.9</ele><time>2023-12-06T11:28:20Z</time><name>PT3574</name></trkpt>
<trkpt lat="51.792540" lon="03.904528"><ele>-2.9</ele><time>2023-12-06T11:28:20Z</time><name>PT3575</name></trkpt>
<trkpt lat="51.792534" lon="03.904548"><ele>-3</ele><time>2023-12-06T11:28:22Z</time><name>PT3576</name></trkpt>
<trkpt lat="51.792531" lon="03.904564"><ele>-2.9</ele><time>2023-12-06T11:28:23Z</time><name>PT3577</name></trkpt>
<trkpt lat="51.792526" lon="03.904581"><ele>-2.9</ele><time>2023-12-06T11:28:23Z</time><name>PT3578</name></trkpt>
<trkpt lat="51.792523" lon="03.904595"><ele>-2.9</ele><time>2023-12-06T11:28:25Z</time><name>PT3579</name></trkpt>
<trkpt lat="51.792521" lon="03.904610"><ele>-2.9</ele><time>2023-12-06T11:28:26Z</time><name>PT3580</name></trkpt>
<trkpt lat="51.792520" lon="03.904626"><ele>-2.8</ele><time>2023-12-06T11:28:26Z</time><name>PT3581</name></trkpt>
<trkpt lat="51.792517" lon="03.904645"><ele>-3.1</ele><time>2023-12-06T11:28:28Z</time><name>PT3582</name></trkpt>
<trkpt lat="51.792514" lon="03.904663"><ele>-3</ele><time>2023-12-06T11:28:29Z</time><name>PT3583</name></trkpt>
<trkpt lat="51.792510" lon="03.904679"><ele>-2.9</ele><time>2023-12-06T11:28:29Z</time><name>PT3584</name></trkpt>
<trkpt lat="51.792505" lon="03.904695"><ele>-2.9</ele><time>2023-12-06T11:28:31Z</time><name>PT3585</name></trkpt>
<trkpt lat="51.792502" lon="03.904712"><ele>-2.9</ele><time>2023-12-06T11:28:32Z</time><name>PT3586</name></trkpt>
<trkpt lat="51.792499" lon="03.904727"><ele>-3.1</ele><time>2023-12-06T11:28:32Z</time><name>PT3587</name></trkpt>
<trkpt lat="51.792497" lon="03.904742"><ele>-3.2</ele><time>2023-12-06T11:28:34Z</time><name>PT3588</name></trkpt>
<trkpt lat="51.792496" lon="03.904756"><ele>-3.2</ele><time>2023-12-06T11:28:35Z</time><name>PT3589</name></trkpt>
<trkpt lat="51.792496" lon="03.904771"><ele>-3.2</ele><time>2023-12-06T11:28:35Z</time><name>PT3590</name></trkpt>
<trkpt lat="51.792494" lon="03.904784"><ele>-3</ele><time>2023-12-06T11:28:37Z</time><name>PT3591</name></trkpt>
<trkpt lat="51.792492" lon="03.904799"><ele>-3</ele><time>2023-12-06T11:28:38Z</time><name>PT3592</name></trkpt>
<trkpt lat="51.792487" lon="03.904813"><ele>-2.9</ele><time>2023-12-06T11:28:38Z</time><name>PT3593</name></trkpt>
<trkpt lat="51.792482" lon="03.904828"><ele>-2.9</ele><time>2023-12-06T11:28:40Z</time><name>PT3594</name></trkpt>
<trkpt lat="51.792478" lon="03.904842"><ele>-2.9</ele><time>2023-12-06T11:28:41Z</time><name>PT3595</name></trkpt>
<trkpt lat="51.792475" lon="03.904856"><ele>-2.9</ele><time>2023-12-06T11:28:41Z</time><name>PT3596</name></trkpt>
<trkpt lat="51.792473" lon="03.904871"><ele>-3</ele><time>2023-12-06T11:28:43Z</time><name>PT3597</name></trkpt>
<trkpt lat="51.792472" lon="03.904888"><ele>-3.1</ele><time>2023-12-06T11:28:44Z</time><name>PT3598</name></trkpt>
<trkpt lat="51.792469" lon="03.904905"><ele>-3.2</ele><time>2023-12-06T11:28:44Z</time><name>PT3599</name></trkpt>
<trkpt lat="51.792467" lon="03.904921"><ele>-3.2</ele><time>2023-12-06T11:28:46Z</time><name>PT3600</name></trkpt>
<trkpt lat="51.792463" lon="03.904935"><ele>-3.2</ele><time>2023-12-06T11:28:47Z</time><name>PT3601</name></trkpt>
<trkpt lat="51.792460" lon="03.904946"><ele>-3.2</ele><time>2023-12-06T11:28:47Z</time><name>PT3602</name></trkpt>
<trkpt lat="51.792457" lon="03.904962"><ele>-3.2</ele><time>2023-12-06T11:28:49Z</time><name>PT3603</name></trkpt>
<trkpt lat="51.792456" lon="03.904977"><ele>-3.2</ele><time>2023-12-06T11:28:50Z</time><name>PT3604</name></trkpt>
<trkpt lat="51.792455" lon="03.904992"><ele>-3.2</ele><time>2023-12-06T11:28:50Z</time><name>PT3605</name></trkpt>
<trkpt lat="51.792451" lon="03.905010"><ele>-3.2</ele><time>2023-12-06T11:28:52Z</time><name>PT3606</name></trkpt>
<trkpt lat="51.792449" lon="03.905026"><ele>-3.2</ele><time>2023-12-06T11:28:53Z</time><name>PT3607</name></trkpt>
<trkpt lat="51.792448" lon="03.905041"><ele>-3.1</ele><time>2023-12-06T11:28:53Z</time><name>PT3608</name></trkpt>
<trkpt lat="51.792447" lon="03.905055"><ele>-3.2</ele><time>2023-12-06T11:28:55Z</time><name>PT3609</name></trkpt>
<trkpt lat="51.792445" lon="03.905070"><ele>-3.2</ele><time>2023-12-06T11:28:56Z</time><name>PT3610</name></trkpt>
<trkpt lat="51.792441" lon="03.905086"><ele>-3.1</ele><time>2023-12-06T11:28:56Z</time><name>PT3611</name></trkpt>
<trkpt lat="51.792440" lon="03.905104"><ele>-3</ele><time>2023-12-06T11:28:58Z</time><name>PT3612</name></trkpt>
<trkpt lat="51.792439" lon="03.905121"><ele>-2.8</ele><time>2023-12-06T11:28:59Z</time><name>PT3613</name></trkpt>
<trkpt lat="51.792438" lon="03.905138"><ele>-2.7</ele><time>2023-12-06T11:28:59Z</time><name>PT3614</name></trkpt>
<trkpt lat="51.792439" lon="03.905155"><ele>-2.9</ele><time>2023-12-06T11:29:01Z</time><name>PT3615</name></trkpt>
<trkpt lat="51.792438" lon="03.905171"><ele>-3</ele><time>2023-12-06T11:29:02Z</time><name>PT3616</name></trkpt>
<trkpt lat="51.792437" lon="03.905189"><ele>-3.2</ele><time>2023-12-06T11:29:02Z</time><name>PT3617</name></trkpt>
<trkpt lat="51.792436" lon="03.905207"><ele>-3.1</ele><time>2023-12-06T11:29:04Z</time><name>PT3618</name></trkpt>
<trkpt lat="51.792436" lon="03.905226"><ele>-3.1</ele><time>2023-12-06T11:29:05Z</time><name>PT3619</name></trkpt>
<trkpt lat="51.792435" lon="03.905245"><ele>-3.2</ele><time>2023-12-06T11:29:05Z</time><name>PT3620</name></trkpt>
<trkpt lat="51.792433" lon="03.905264"><ele>-2.9</ele><time>2023-12-06T11:29:07Z</time><name>PT3621</name></trkpt>
<trkpt lat="51.792433" lon="03.905282"><ele>-3.1</ele><time>2023-12-06T11:29:08Z</time><name>PT3622</name></trkpt>
<trkpt lat="51.792434" lon="03.905300"><ele>-3.1</ele><time>2023-12-06T11:29:08Z</time><name>PT3623</name></trkpt>
<trkpt lat="51.792436" lon="03.905315"><ele>-2.9</ele><time>2023-12-06T11:29:10Z</time><name>PT3624</name></trkpt>
<trkpt lat="51.792439" lon="03.905331"><ele>-3.1</ele><time>2023-12-06T11:29:11Z</time><name>PT3625</name></trkpt>
<trkpt lat="51.792441" lon="03.905348"><ele>-3</ele><time>2023-12-06T11:29:11Z</time><name>PT3626</name></trkpt>
<trkpt lat="51.792444" lon="03.905366"><ele>-3.1</ele><time>2023-12-06T11:29:13Z</time><name>PT3627</name></trkpt>
<trkpt lat="51.792446" lon="03.905382"><ele>-3</ele><time>2023-12-06T11:29:14Z</time><name>PT3628</name></trkpt>
<trkpt lat="51.792446" lon="03.905401"><ele>-3</ele><time>2023-12-06T11:29:14Z</time><name>PT3629</name></trkpt>
<trkpt lat="51.792448" lon="03.905418"><ele>-3.2</ele><time>2023-12-06T11:29:16Z</time><name>PT3630</name></trkpt>
<trkpt lat="51.792452" lon="03.905431"><ele>-3</ele><time>2023-12-06T11:29:17Z</time><name>PT3631</name></trkpt>
<trkpt lat="51.792455" lon="03.905446"><ele>-3</ele><time>2023-12-06T11:29:17Z</time><name>PT3632</name></trkpt>
<trkpt lat="51.792458" lon="03.905461"><ele>-3.1</ele><time>2023-12-06T11:29:19Z</time><name>PT3633</name></trkpt>
<trkpt lat="51.792460" lon="03.905478"><ele>-2.9</ele><time>2023-12-06T11:29:20Z</time><name>PT3634</name></trkpt>
<trkpt lat="51.792463" lon="03.905497"><ele>-3</ele><time>2023-12-06T11:29:20Z</time><name>PT3635</name></trkpt>
<trkpt lat="51.792466" lon="03.905515"><ele>-3</ele><time>2023-12-06T11:29:22Z</time><name>PT3636</name></trkpt>
<trkpt lat="51.792470" lon="03.905531"><ele>-2.8</ele><time>2023-12-06T11:29:23Z</time><name>PT3637</name></trkpt>
<trkpt lat="51.792474" lon="03.905547"><ele>-2.9</ele><time>2023-12-06T11:29:23Z</time><name>PT3638</name></trkpt>
<trkpt lat="51.792479" lon="03.905561"><ele>-3</ele><time>2023-12-06T11:29:25Z</time><name>PT3639</name></trkpt>
<trkpt lat="51.792484" lon="03.905576"><ele>-3.1</ele><time>2023-12-06T11:29:26Z</time><name>PT3640</name></trkpt>
<trkpt lat="51.792487" lon="03.905592"><ele>-3.2</ele><time>2023-12-06T11:29:26Z</time><name>PT3641</name></trkpt>
<trkpt lat="51.792490" lon="03.905608"><ele>-3.2</ele><time>2023-12-06T11:29:28Z</time><name>PT3642</name></trkpt>
<trkpt lat="51.792495" lon="03.905624"><ele>-3</ele><time>2023-12-06T11:29:29Z</time><name>PT3643</name></trkpt>
<trkpt lat="51.792498" lon="03.905643"><ele>-3.1</ele><time>2023-12-06T11:29:29Z</time><name>PT3644</name></trkpt>
<trkpt lat="51.792502" lon="03.905661"><ele>-3.1</ele><time>2023-12-06T11:29:31Z</time><name>PT3645</name></trkpt>
<trkpt lat="51.792506" lon="03.905678"><ele>-3.1</ele><time>2023-12-06T11:29:32Z</time><name>PT3646</name></trkpt>
<trkpt lat="51.792509" lon="03.905694"><ele>-3.1</ele><time>2023-12-06T11:29:32Z</time><name>PT3647</name></trkpt>
<trkpt lat="51.792513" lon="03.905709"><ele>-2.8</ele><time>2023-12-06T11:29:34Z</time><name>PT3648</name></trkpt>
<trkpt lat="51.792517" lon="03.905723"><ele>-2.9</ele><time>2023-12-06T11:29:35Z</time><name>PT3649</name></trkpt>
<trkpt lat="51.792523" lon="03.905740"><ele>-2.9</ele><time>2023-12-06T11:29:35Z</time><name>PT3650</name></trkpt>
<trkpt lat="51.792527" lon="03.905758"><ele>-3.1</ele><time>2023-12-06T11:29:37Z</time><name>PT3651</name></trkpt>
<trkpt lat="51.792531" lon="03.905773"><ele>-3.2</ele><time>2023-12-06T11:29:38Z</time><name>PT3652</name></trkpt>
<trkpt lat="51.792534" lon="03.905789"><ele>-3.1</ele><time>2023-12-06T11:29:38Z</time><name>PT3653</name></trkpt>
<trkpt lat="51.792537" lon="03.905806"><ele>-2.9</ele><time>2023-12-06T11:29:40Z</time><name>PT3654</name></trkpt>
<trkpt lat="51.792540" lon="03.905820"><ele>-2.8</ele><time>2023-12-06T11:29:41Z</time><name>PT3655</name></trkpt>
<trkpt lat="51.792543" lon="03.905834"><ele>-2.9</ele><time>2023-12-06T11:29:41Z</time><name>PT3656</name></trkpt>
<trkpt lat="51.792548" lon="03.905846"><ele>-3.2</ele><time>2023-12-06T11:29:43Z</time><name>PT3657</name></trkpt>
<trkpt lat="51.792553" lon="03.905860"><ele>-3.3</ele><time>2023-12-06T11:29:44Z</time><name>PT3658</name></trkpt>
<trkpt lat="51.792558" lon="03.905874"><ele>-3.3</ele><time>2023-12-06T11:29:44Z</time><name>PT3659</name></trkpt>
<trkpt lat="51.792563" lon="03.905889"><ele>-3.4</ele><time>2023-12-06T11:29:46Z</time><name>PT3660</name></trkpt>
<trkpt lat="51.792567" lon="03.905905"><ele>-3.2</ele><time>2023-12-06T11:29:47Z</time><name>PT3661</name></trkpt>
<trkpt lat="51.792570" lon="03.905922"><ele>-3.1</ele><time>2023-12-06T11:29:47Z</time><name>PT3662</name></trkpt>
<trkpt lat="51.792573" lon="03.905940"><ele>-3.1</ele><time>2023-12-06T11:29:49Z</time><name>PT3663</name></trkpt>
<trkpt lat="51.792577" lon="03.905954"><ele>-3.1</ele><time>2023-12-06T11:29:50Z</time><name>PT3664</name></trkpt>
<trkpt lat="51.792581" lon="03.905968"><ele>-3.2</ele><time>2023-12-06T11:29:50Z</time><name>PT3665</name></trkpt>
<trkpt lat="51.792585" lon="03.905983"><ele>-3.2</ele><time>2023-12-06T11:29:52Z</time><name>PT3666</name></trkpt>
<trkpt lat="51.792588" lon="03.906000"><ele>-3.2</ele><time>2023-12-06T11:29:53Z</time><name>PT3667</name></trkpt>
<trkpt lat="51.792593" lon="03.906016"><ele>-3.3</ele><time>2023-12-06T11:29:53Z</time><name>PT3668</name></trkpt>
<trkpt lat="51.792597" lon="03.906033"><ele>-3.2</ele><time>2023-12-06T11:29:55Z</time><name>PT3669</name></trkpt>
<trkpt lat="51.792602" lon="03.906050"><ele>-3.1</ele><time>2023-12-06T11:29:56Z</time><name>PT3670</name></trkpt>
<trkpt lat="51.792606" lon="03.906067"><ele>-3.1</ele><time>2023-12-06T11:29:56Z</time><name>PT3671</name></trkpt>
<trkpt lat="51.792610" lon="03.906085"><ele>-2.9</ele><time>2023-12-06T11:29:58Z</time><name>PT3672</name></trkpt>
<trkpt lat="51.792612" lon="03.906101"><ele>-2.9</ele><time>2023-12-06T11:29:59Z</time><name>PT3673</name></trkpt>
<trkpt lat="51.792614" lon="03.906116"><ele>-3</ele><time>2023-12-06T11:29:59Z</time><name>PT3674</name></trkpt>
<trkpt lat="51.792619" lon="03.906130"><ele>-3</ele><time>2023-12-06T11:30:01Z</time><name>PT3675</name></trkpt>
<trkpt lat="51.792623" lon="03.906145"><ele>-2.9</ele><time>2023-12-06T11:30:02Z</time><name>PT3676</name></trkpt>
<trkpt lat="51.792628" lon="03.906161"><ele>-2.9</ele><time>2023-12-06T11:30:02Z</time><name>PT3677</name></trkpt>
<trkpt lat="51.792632" lon="03.906176"><ele>-2.8</ele><time>2023-12-06T11:30:04Z</time><name>PT3678</name></trkpt>
<trkpt lat="51.792636" lon="03.906191"><ele>-2.9</ele><time>2023-12-06T11:30:05Z</time><name>PT3679</name></trkpt>
<trkpt lat="51.792640" lon="03.906206"><ele>-3</ele><time>2023-12-06T11:30:05Z</time><name>PT3680</name></trkpt>
<trkpt lat="51.792643" lon="03.906222"><ele>-3.2</ele><time>2023-12-06T11:30:07Z</time><name>PT3681</name></trkpt>
<trkpt lat="51.792646" lon="03.906239"><ele>-3</ele><time>2023-12-06T11:30:08Z</time><name>PT3682</name></trkpt>
<trkpt lat="51.792648" lon="03.906258"><ele>-3.1</ele><time>2023-12-06T11:30:08Z</time><name>PT3683</name></trkpt>
<trkpt lat="51.792651" lon="03.906276"><ele>-3.2</ele><time>2023-12-06T11:30:10Z</time><name>PT3684</name></trkpt>
<trkpt lat="51.792654" lon="03.906291"><ele>-3</ele><time>2023-12-06T11:30:11Z</time><name>PT3685</name></trkpt>
<trkpt lat="51.792657" lon="03.906305"><ele>-3.1</ele><time>2023-12-06T11:30:11Z</time><name>PT3686</name></trkpt>
<trkpt lat="51.792660" lon="03.906322"><ele>-2.9</ele><time>2023-12-06T11:30:13Z</time><name>PT3687</name></trkpt>
<trkpt lat="51.792664" lon="03.906337"><ele>-2.8</ele><time>2023-12-06T11:30:14Z</time><name>PT3688</name></trkpt>
<trkpt lat="51.792668" lon="03.906352"><ele>-3</ele><time>2023-12-06T11:30:14Z</time><name>PT3689</name></trkpt>
<trkpt lat="51.792672" lon="03.906368"><ele>-2.8</ele><time>2023-12-06T11:30:16Z</time><name>PT3690</name></trkpt>
<trkpt lat="51.792674" lon="03.906385"><ele>-2.9</ele><time>2023-12-06T11:30:17Z</time><name>PT3691</name></trkpt>
<trkpt lat="51.792675" lon="03.906404"><ele>-3.1</ele><time>2023-12-06T11:30:17Z</time><name>PT3692</name></trkpt>
<trkpt lat="51.792677" lon="03.906421"><ele>-3.2</ele><time>2023-12-06T11:30:19Z</time><name>PT3693</name></trkpt>
<trkpt lat="51.792678" lon="03.906434"><ele>-3.4</ele><time>2023-12-06T11:30:20Z</time><name>PT3694</name></trkpt>
<trkpt lat="51.792678" lon="03.906449"><ele>-3.4</ele><time>2023-12-06T11:30:20Z</time><name>PT3695</name></trkpt>
<trkpt lat="51.792680" lon="03.906463"><ele>-3.5</ele><time>2023-12-06T11:30:22Z</time><name>PT3696</name></trkpt>
<trkpt lat="51.792679" lon="03.906475"><ele>-3.4</ele><time>2023-12-06T11:30:23Z</time><name>PT3697</name></trkpt>
<trkpt lat="51.792678" lon="03.906484"><ele>-3.4</ele><time>2023-12-06T11:30:23Z</time><name>PT3698</name></trkpt>
<trkpt lat="51.792678" lon="03.906491"><ele>-3.3</ele><time>2023-12-06T11:30:25Z</time><name>PT3699</name></trkpt>
<trkpt lat="51.792677" lon="03.906500"><ele>-3.3</ele><time>2023-12-06T11:30:26Z</time><name>PT3700</name></trkpt>
<trkpt lat="51.792678" lon="03.906503"><ele>-3.4</ele><time>2023-12-06T11:30:26Z</time><name>PT3701</name></trkpt>
<trkpt lat="51.792678" lon="03.906501"><ele>-3.4</ele><time>2023-12-06T11:30:28Z</time><name>PT3702</name></trkpt>
<trkpt lat="51.792680" lon="03.906506"><ele>-3.5</ele><time>2023-12-06T11:30:29Z</time><name>PT3703</name></trkpt>
<trkpt lat="51.792680" lon="03.906516"><ele>-3.4</ele><time>2023-12-06T11:30:29Z</time><name>PT3704</name></trkpt>
<trkpt lat="51.792680" lon="03.906529"><ele>-3.2</ele><time>2023-12-06T11:30:31Z</time><name>PT3705</name></trkpt>
<trkpt lat="51.792676" lon="03.906544"><ele>-3.2</ele><time>2023-12-06T11:30:32Z</time><name>PT3706</name></trkpt>
<trkpt lat="51.792675" lon="03.906559"><ele>-3.2</ele><time>2023-12-06T11:30:32Z</time><name>PT3707</name></trkpt>
<trkpt lat="51.792676" lon="03.906574"><ele>-3.1</ele><time>2023-12-06T11:30:34Z</time><name>PT3708</name></trkpt>
<trkpt lat="51.792677" lon="03.906589"><ele>-3</ele><time>2023-12-06T11:30:35Z</time><name>PT3709</name></trkpt>
<trkpt lat="51.792677" lon="03.906602"><ele>-3</ele><time>2023-12-06T11:30:35Z</time><name>PT3710</name></trkpt>
<trkpt lat="51.792675" lon="03.906617"><ele>-3</ele><time>2023-12-06T11:30:37Z</time><name>PT3711</name></trkpt>
<trkpt lat="51.792671" lon="03.906630"><ele>-3.2</ele><time>2023-12-06T11:30:38Z</time><name>PT3712</name></trkpt>
<trkpt lat="51.792666" lon="03.906645"><ele>-3.2</ele><time>2023-12-06T11:30:38Z</time><name>PT3713</name></trkpt>
<trkpt lat="51.792663" lon="03.906660"><ele>-3.3</ele><time>2023-12-06T11:30:40Z</time><name>PT3714</name></trkpt>
<trkpt lat="51.792660" lon="03.906673"><ele>-3.4</ele><time>2023-12-06T11:30:41Z</time><name>PT3715</name></trkpt>
<trkpt lat="51.792657" lon="03.906686"><ele>-3.2</ele><time>2023-12-06T11:30:41Z</time><name>PT3716</name></trkpt>
<trkpt lat="51.792653" lon="03.906700"><ele>-3.4</ele><time>2023-12-06T11:30:43Z</time><name>PT3717</name></trkpt>
<trkpt lat="51.792650" lon="03.906715"><ele>-3.5</ele><time>2023-12-06T11:30:44Z</time><name>PT3718</name></trkpt>
<trkpt lat="51.792647" lon="03.906731"><ele>-3.4</ele><time>2023-12-06T11:30:44Z</time><name>PT3719</name></trkpt>
<trkpt lat="51.792643" lon="03.906745"><ele>-3.6</ele><time>2023-12-06T11:30:46Z</time><name>PT3720</name></trkpt>
<trkpt lat="51.792637" lon="03.906757"><ele>-3.5</ele><time>2023-12-06T11:30:47Z</time><name>PT3721</name></trkpt>
<trkpt lat="51.792630" lon="03.906766"><ele>-3.4</ele><time>2023-12-06T11:30:47Z</time><name>PT3722</name></trkpt>
<trkpt lat="51.792626" lon="03.906776"><ele>-3.3</ele><time>2023-12-06T11:30:49Z</time><name>PT3723</name></trkpt>
<trkpt lat="51.792623" lon="03.906787"><ele>-3.2</ele><time>2023-12-06T11:30:50Z</time><name>PT3724</name></trkpt>
<trkpt lat="51.792618" lon="03.906800"><ele>-3.2</ele><time>2023-12-06T11:30:50Z</time><name>PT3725</name></trkpt>
<trkpt lat="51.792614" lon="03.906813"><ele>-3.2</ele><time>2023-12-06T11:30:52Z</time><name>PT3726</name></trkpt>
<trkpt lat="51.792609" lon="03.906828"><ele>-3.2</ele><time>2023-12-06T11:30:53Z</time><name>PT3727</name></trkpt>
<trkpt lat="51.792604" lon="03.906842"><ele>-3.3</ele><time>2023-12-06T11:30:53Z</time><name>PT3728</name></trkpt>
<trkpt lat="51.792599" lon="03.906854"><ele>-3.5</ele><time>2023-12-06T11:30:55Z</time><name>PT3729</name></trkpt>
<trkpt lat="51.792595" lon="03.906867"><ele>-3.6</ele><time>2023-12-06T11:30:56Z</time><name>PT3730</name></trkpt>
<trkpt lat="51.792592" lon="03.906880"><ele>-3.6</ele><time>2023-12-06T11:30:56Z</time><name>PT3731</name></trkpt>
<trkpt lat="51.792587" lon="03.906894"><ele>-3.4</ele><time>2023-12-06T11:30:58Z</time><name>PT3732</name></trkpt>
<trkpt lat="51.792581" lon="03.906906"><ele>-3.3</ele><time>2023-12-06T11:30:59Z</time><name>PT3733</name></trkpt>
<trkpt lat="51.792575" lon="03.906922"><ele>-3.2</ele><time>2023-12-06T11:30:59Z</time><name>PT3734</name></trkpt>
<trkpt lat="51.792569" lon="03.906935"><ele>-3.1</ele><time>2023-12-06T11:31:01Z</time><name>PT3735</name></trkpt>
<trkpt lat="51.792563" lon="03.906949"><ele>-2.9</ele><time>2023-12-06T11:31:02Z</time><name>PT3736</name></trkpt>
<trkpt lat="51.792558" lon="03.906961"><ele>-2.8</ele><time>2023-12-06T11:31:02Z</time><name>PT3737</name></trkpt>
<trkpt lat="51.792553" lon="03.906970"><ele>-3</ele><time>2023-12-06T11:31:04Z</time><name>PT3738</name></trkpt>
<trkpt lat="51.792547" lon="03.906982"><ele>-3</ele><time>2023-12-06T11:31:05Z</time><name>PT3739</name></trkpt>
<trkpt lat="51.792543" lon="03.906994"><ele>-3</ele><time>2023-12-06T11:31:05Z</time><name>PT3740</name></trkpt>
<trkpt lat="51.792540" lon="03.907006"><ele>-3.1</ele><time>2023-12-06T11:31:07Z</time><name>PT3741</name></trkpt>
<trkpt lat="51.792537" lon="03.907017"><ele>-3</ele><time>2023-12-06T11:31:08Z</time><name>PT3742</name></trkpt>
<trkpt lat="51.792536" lon="03.907026"><ele>-3.1</ele><time>2023-12-06T11:31:08Z</time><name>PT3743</name></trkpt>
<trkpt lat="51.792535" lon="03.907034"><ele>-3.2</ele><time>2023-12-06T11:31:10Z</time><name>PT3744</name></trkpt>
<trkpt lat="51.792534" lon="03.907037"><ele>-3.3</ele><time>2023-12-06T11:31:11Z</time><name>PT3745</name></trkpt>
<trkpt lat="51.792535" lon="03.907037"><ele>-3.3</ele><time>2023-12-06T11:31:11Z</time><name>PT3746</name></trkpt>
<trkpt lat="51.792535" lon="03.907038"><ele>-3.2</ele><time>2023-12-06T11:31:13Z</time><name>PT3747</name></trkpt>
<trkpt lat="51.792533" lon="03.907041"><ele>-3</ele><time>2023-12-06T11:31:26Z</time><name>PT3748</name></trkpt>
<trkpt lat="51.792531" lon="03.907050"><ele>-3</ele><time>2023-12-06T11:31:28Z</time><name>PT3749</name></trkpt>
<trkpt lat="51.792531" lon="03.907059"><ele>-3.1</ele><time>2023-12-06T11:31:29Z</time><name>PT3750</name></trkpt>
<trkpt lat="51.792530" lon="03.907063"><ele>-3.1</ele><time>2023-12-06T11:31:29Z</time><name>PT3751</name></trkpt>
<trkpt lat="51.792531" lon="03.907063"><ele>-3</ele><time>2023-12-06T11:31:31Z</time><name>PT3752</name></trkpt>
<trkpt lat="51.792530" lon="03.907064"><ele>-3.1</ele><time>2023-12-06T11:31:32Z</time><name>PT3753</name></trkpt>
<trkpt lat="51.792527" lon="03.907069"><ele>-3</ele><time>2023-12-06T11:31:32Z</time><name>PT3754</name></trkpt>
<trkpt lat="51.792523" lon="03.907077"><ele>-3.1</ele><time>2023-12-06T11:31:34Z</time><name>PT3755</name></trkpt>
<trkpt lat="51.792520" lon="03.907088"><ele>-3.1</ele><time>2023-12-06T11:31:35Z</time><name>PT3756</name></trkpt>
<trkpt lat="51.792518" lon="03.907100"><ele>-3.1</ele><time>2023-12-06T11:31:35Z</time><name>PT3757</name></trkpt>
<trkpt lat="51.792514" lon="03.907109"><ele>-3.2</ele><time>2023-12-06T11:31:37Z</time><name>PT3758</name></trkpt>
<trkpt lat="51.792511" lon="03.907118"><ele>-3.2</ele><time>2023-12-06T11:31:38Z</time><name>PT3759</name></trkpt>
<trkpt lat="51.792508" lon="03.907127"><ele>-3.3</ele><time>2023-12-06T11:31:38Z</time><name>PT3760</name></trkpt>
<trkpt lat="51.792505" lon="03.907134"><ele>-3.3</ele><time>2023-12-06T11:31:40Z</time><name>PT3761</name></trkpt>
<trkpt lat="51.792503" lon="03.907140"><ele>-3.3</ele><time>2023-12-06T11:31:41Z</time><name>PT3762</name></trkpt>
<trkpt lat="51.792502" lon="03.907146"><ele>-3.2</ele><time>2023-12-06T11:31:41Z</time><name>PT3763</name></trkpt>
<trkpt lat="51.792500" lon="03.907153"><ele>-3.2</ele><time>2023-12-06T11:31:43Z</time><name>PT3764</name></trkpt>
<trkpt lat="51.792494" lon="03.907163"><ele>-3.2</ele><time>2023-12-06T11:31:53Z</time><name>PT3765</name></trkpt>
<trkpt lat="51.792490" lon="03.907171"><ele>-3.2</ele><time>2023-12-06T11:31:55Z</time><name>PT3766</name></trkpt>
<trkpt lat="51.792485" lon="03.907183"><ele>-3.2</ele><time>2023-12-06T11:31:56Z</time><name>PT3767</name></trkpt>
<trkpt lat="51.792479" lon="03.907196"><ele>-3.1</ele><time>2023-12-06T11:31:56Z</time><name>PT3768</name></trkpt>
<trkpt lat="51.792472" lon="03.907208"><ele>-3.2</ele><time>2023-12-06T11:31:58Z</time><name>PT3769</name></trkpt>
<trkpt lat="51.792466" lon="03.907219"><ele>-3.2</ele><time>2023-12-06T11:31:59Z</time><name>PT3770</name></trkpt>
<trkpt lat="51.792460" lon="03.907232"><ele>-3.2</ele><time>2023-12-06T11:31:59Z</time><name>PT3771</name></trkpt>
<trkpt lat="51.792454" lon="03.907243"><ele>-3.3</ele><time>2023-12-06T11:32:01Z</time><name>PT3772</name></trkpt>
<trkpt lat="51.792447" lon="03.907254"><ele>-3.3</ele><time>2023-12-06T11:32:02Z</time><name>PT3773</name></trkpt>
<trkpt lat="51.792439" lon="03.907263"><ele>-3.3</ele><time>2023-12-06T11:32:02Z</time><name>PT3774</name></trkpt>
<trkpt lat="51.792434" lon="03.907271"><ele>-3.5</ele><time>2023-12-06T11:32:04Z</time><name>PT3775</name></trkpt>
<trkpt lat="51.792427" lon="03.907279"><ele>-3.6</ele><time>2023-12-06T11:32:05Z</time><name>PT3776</name></trkpt>
<trkpt lat="51.792421" lon="03.907291"><ele>-3.5</ele><time>2023-12-06T11:32:05Z</time><name>PT3777</name></trkpt>
<trkpt lat="51.792418" lon="03.907303"><ele>-3.4</ele><time>2023-12-06T11:32:07Z</time><name>PT3778</name></trkpt>
<trkpt lat="51.792415" lon="03.907313"><ele>-3.3</ele><time>2023-12-06T11:32:08Z</time><name>PT3779</name></trkpt>
<trkpt lat="51.792411" lon="03.907322"><ele>-3.2</ele><time>2023-12-06T11:32:08Z</time><name>PT3780</name></trkpt>
<trkpt lat="51.792409" lon="03.907329"><ele>-3.4</ele><time>2023-12-06T11:32:10Z</time><name>PT3781</name></trkpt>
<trkpt lat="51.792406" lon="03.907336"><ele>-3.5</ele><time>2023-12-06T11:32:11Z</time><name>PT3782</name></trkpt>
<trkpt lat="51.792405" lon="03.907342"><ele>-3.7</ele><time>2023-12-06T11:32:11Z</time><name>PT3783</name></trkpt>
<trkpt lat="51.792404" lon="03.907347"><ele>-3.6</ele><time>2023-12-06T11:32:13Z</time><name>PT3784</name></trkpt>
<trkpt lat="51.792403" lon="03.907349"><ele>-3.6</ele><time>2023-12-06T11:32:14Z</time><name>PT3785</name></trkpt>
<trkpt lat="51.792401" lon="03.907351"><ele>-3.5</ele><time>2023-12-06T11:32:14Z</time><name>PT3786</name></trkpt>
<trkpt lat="51.792401" lon="03.907352"><ele>-3.2</ele><time>2023-12-06T11:32:16Z</time><name>PT3787</name></trkpt>
<trkpt lat="51.792399" lon="03.907351"><ele>-3.5</ele><time>2023-12-06T11:32:19Z</time><name>PT3788</name></trkpt>
<trkpt lat="51.792395" lon="03.907353"><ele>0</ele><time>2023-12-06T11:32:20Z</time><name>PT3789</name></trkpt>
<trkpt lat="51.792392" lon="03.907358"><ele>0</ele><time>2023-12-06T11:32:21Z</time><name>PT3790</name></trkpt>
<trkpt lat="51.792388" lon="03.907363"><ele>0.1</ele><time>2023-12-06T11:32:22Z</time><name>PT3791</name></trkpt>
<trkpt lat="51.792384" lon="03.907369"><ele>0.1</ele><time>2023-12-06T11:32:23Z</time><name>PT3792</name></trkpt>
<trkpt lat="51.792384" lon="03.907370"><ele>0</ele><time>2023-12-06T11:32:23Z</time><name>PT3793</name></trkpt>
<trkpt lat="51.792384" lon="03.907371"><ele>0</ele><time>2023-12-06T11:32:25Z</time><name>PT3794</name></trkpt>
<trkpt lat="51.792383" lon="03.907373"><ele>0</ele><time>2023-12-06T11:32:26Z</time><name>PT3795</name></trkpt>
<trkpt lat="51.792382" lon="03.907375"><ele>0.1</ele><time>2023-12-06T11:32:26Z</time><name>PT3796</name></trkpt>
<trkpt lat="51.792380" lon="03.907381"><ele>0</ele><time>2023-12-06T11:32:44Z</time><name>PT3797</name></trkpt>
<trkpt lat="51.792376" lon="03.907388"><ele>0</ele><time>2023-12-06T11:32:44Z</time><name>PT3798</name></trkpt>
<trkpt lat="51.792370" lon="03.907391"><ele>0</ele><time>2023-12-06T11:32:46Z</time><name>PT3799</name></trkpt>
<trkpt lat="51.792366" lon="03.907402"><ele>0.1</ele><time>2023-12-06T11:32:47Z</time><name>PT3800</name></trkpt>
<trkpt lat="51.792365" lon="03.907413"><ele>0.1</ele><time>2023-12-06T11:32:47Z</time><name>PT3801</name></trkpt>
<trkpt lat="51.792364" lon="03.907424"><ele>0.2</ele><time>2023-12-06T11:32:49Z</time><name>PT3802</name></trkpt>
<trkpt lat="51.792362" lon="03.907434"><ele>0.2</ele><time>2023-12-06T11:32:50Z</time><name>PT3803</name></trkpt>
<trkpt lat="51.792362" lon="03.907444"><ele>0.1</ele><time>2023-12-06T11:32:50Z</time><name>PT3804</name></trkpt>
<trkpt lat="51.792365" lon="03.907452"><ele>0</ele><time>2023-12-06T11:32:52Z</time><name>PT3805</name></trkpt>
<trkpt lat="51.792366" lon="03.907462"><ele>0</ele><time>2023-12-06T11:32:53Z</time><name>PT3806</name></trkpt>
<trkpt lat="51.792367" lon="03.907465"><ele>0</ele><time>2023-12-06T11:32:53Z</time><name>PT3807</name></trkpt>
<trkpt lat="51.792366" lon="03.907468"><ele>0</ele><time>2023-12-06T11:32:55Z</time><name>PT3808</name></trkpt>
<trkpt lat="51.792366" lon="03.907469"><ele>0.1</ele><time>2023-12-06T11:32:56Z</time><name>PT3809</name></trkpt>
<trkpt lat="51.792365" lon="03.907471"><ele>0</ele><time>2023-12-06T11:32:56Z</time><name>PT3810</name></trkpt>
<trkpt lat="51.792365" lon="03.907471"><ele>0</ele><time>2023-12-06T11:32:58Z</time><name>PT3811</name></trkpt>
<trkpt lat="51.792366" lon="03.907476"><ele>0.5</ele><time>2023-12-06T11:38:05Z</time><name>PT3812</name></trkpt>
<trkpt lat="51.792367" lon="03.907477"><ele>0.4</ele><time>2023-12-06T11:38:07Z</time><name>PT3813</name></trkpt>
<trkpt lat="51.792368" lon="03.907478"><ele>0.3</ele><time>2023-12-06T11:38:08Z</time><name>PT3814</name></trkpt>
<trkpt lat="51.792368" lon="03.907479"><ele>0.5</ele><time>2023-12-06T11:38:08Z</time><name>PT3815</name></trkpt>
<trkpt lat="51.792369" lon="03.907480"><ele>0.5</ele><time>2023-12-06T11:38:10Z</time><name>PT3816</name></trkpt>
<trkpt lat="51.792369" lon="03.907486"><ele>-1</ele><time>2023-12-06T11:39:20Z</time><name>PT3817</name></trkpt>
<trkpt lat="51.792367" lon="03.907487"><ele>-1.2</ele><time>2023-12-06T11:39:22Z</time><name>PT3818</name></trkpt>
<trkpt lat="51.792365" lon="03.907491"><ele>-1.1</ele><time>2023-12-06T11:39:23Z</time><name>PT3819</name></trkpt>
<trkpt lat="51.792361" lon="03.907498"><ele>-1.2</ele><time>2023-12-06T11:39:23Z</time><name>PT3820</name></trkpt>
<trkpt lat="51.792361" lon="03.907499"><ele>-1.1</ele><time>2023-12-06T11:39:25Z</time><name>PT3821</name></trkpt>
<trkpt lat="51.792361" lon="03.907497"><ele>0.9</ele><time>2023-12-06T11:39:26Z</time><name>PT3822</name></trkpt>
<trkpt lat="51.792361" lon="03.907498"><ele>0.9</ele><time>2023-12-06T11:39:26Z</time><name>PT3823</name></trkpt>
<trkpt lat="51.792361" lon="03.907500"><ele>0.6</ele><time>2023-12-06T11:39:28Z</time><name>PT3824</name></trkpt>
<trkpt lat="51.792359" lon="03.907507"><ele>0.6</ele><time>2023-12-06T11:39:29Z</time><name>PT3825</name></trkpt>
<trkpt lat="51.792357" lon="03.907519"><ele>0.6</ele><time>2023-12-06T11:39:29Z</time><name>PT3826</name></trkpt>
<trkpt lat="51.792360" lon="03.907526"><ele>0.5</ele><time>2023-12-06T11:39:31Z</time><name>PT3827</name></trkpt>
<trkpt lat="51.792366" lon="03.907528"><ele>0.4</ele><time>2023-12-06T11:39:32Z</time><name>PT3828</name></trkpt>
<trkpt lat="51.792365" lon="03.907526"><ele>0.4</ele><time>2023-12-06T11:39:32Z</time><name>PT3829</name></trkpt>
<trkpt lat="51.792360" lon="03.907526"><ele>0.4</ele><time>2023-12-06T11:39:34Z</time><name>PT3830</name></trkpt>
<trkpt lat="51.792360" lon="03.907528"><ele>0.5</ele><time>2023-12-06T11:39:35Z</time><name>PT3831</name></trkpt>
<trkpt lat="51.792360" lon="03.907528"><ele>0.5</ele><time>2023-12-06T11:39:35Z</time><name>PT3832</name></trkpt>
<trkpt lat="51.792359" lon="03.907529"><ele>0.8</ele><time>2023-12-06T11:39:47Z</time><name>PT3833</name></trkpt>
<trkpt lat="51.792360" lon="03.907530"><ele>0.9</ele><time>2023-12-06T11:39:49Z</time><name>PT3834</name></trkpt>
<trkpt lat="51.792365" lon="03.907530"><ele>0.9</ele><time>2023-12-06T11:39:55Z</time><name>PT3835</name></trkpt>
<trkpt lat="51.792370" lon="03.907526"><ele>-1</ele><time>2023-12-06T11:39:56Z</time><name>PT3836</name></trkpt>
<trkpt lat="51.792371" lon="03.907528"><ele>-1.1</ele><time>2023-12-06T11:39:56Z</time><name>PT3837</name></trkpt>
<trkpt lat="51.792370" lon="03.907524"><ele>-1.2</ele><time>2023-12-06T11:39:58Z</time><name>PT3838</name></trkpt>
<trkpt lat="51.792369" lon="03.907522"><ele>-1</ele><time>2023-12-06T11:39:59Z</time><name>PT3839</name></trkpt>
<trkpt lat="51.792367" lon="03.907522"><ele>0.7</ele><time>2023-12-06T11:39:59Z</time><name>PT3840</name></trkpt>
<trkpt lat="51.792368" lon="03.907520"><ele>0.3</ele><time>2023-12-06T11:40:05Z</time><name>PT3841</name></trkpt>
<trkpt lat="51.792367" lon="03.907515"><ele>0.4</ele><time>2023-12-06T11:40:07Z</time><name>PT3842</name></trkpt>
<trkpt lat="51.792366" lon="03.907514"><ele>0.5</ele><time>2023-12-06T11:40:08Z</time><name>PT3843</name></trkpt>
<trkpt lat="51.792364" lon="03.907513"><ele>0.7</ele><time>2023-12-06T11:40:10Z</time><name>PT3844</name></trkpt>
<trkpt lat="51.792364" lon="03.907513"><ele>0.8</ele><time>2023-12-06T11:40:11Z</time><name>PT3845</name></trkpt>
<trkpt lat="51.792365" lon="03.907509"><ele>0.8</ele><time>2023-12-06T11:40:11Z</time><name>PT3846</name></trkpt>
<trkpt lat="51.792364" lon="03.907502"><ele>-1</ele><time>2023-12-06T11:40:13Z</time><name>PT3847</name></trkpt>
<trkpt lat="51.792362" lon="03.907500"><ele>0.9</ele><time>2023-12-06T11:40:14Z</time><name>PT3848</name></trkpt>
<trkpt lat="51.792363" lon="03.907501"><ele>-1</ele><time>2023-12-06T11:40:14Z</time><name>PT3849</name></trkpt>
<trkpt lat="51.792362" lon="03.907501"><ele>-1</ele><time>2023-12-06T11:40:16Z</time><name>PT3850</name></trkpt>
<trkpt lat="51.792361" lon="03.907499"><ele>-1</ele><time>2023-12-06T11:40:17Z</time><name>PT3851</name></trkpt>
<trkpt lat="51.792362" lon="03.907495"><ele>-1.2</ele><time>2023-12-06T11:40:17Z</time><name>PT3852</name></trkpt>
<trkpt lat="51.792363" lon="03.907494"><ele>-1</ele><time>2023-12-06T11:40:19Z</time><name>PT3853</name></trkpt>
<trkpt lat="51.792360" lon="03.907496"><ele>-1.1</ele><time>2023-12-06T11:40:20Z</time><name>PT3854</name></trkpt>
<trkpt lat="51.792359" lon="03.907496"><ele>-1.3</ele><time>2023-12-06T11:40:20Z</time><name>PT3855</name></trkpt>
<trkpt lat="51.792359" lon="03.907494"><ele>-1.1</ele><time>2023-12-06T11:40:22Z</time><name>PT3856</name></trkpt>
<trkpt lat="51.792360" lon="03.907494"><ele>-1.1</ele><time>2023-12-06T11:40:23Z</time><name>PT3857</name></trkpt>
<trkpt lat="51.792360" lon="03.907491"><ele>-1.1</ele><time>2023-12-06T11:40:23Z</time><name>PT3858</name></trkpt>
<trkpt lat="51.792358" lon="03.907489"><ele>-1</ele><time>2023-12-06T11:40:25Z</time><name>PT3859</name></trkpt>
<trkpt lat="51.792357" lon="03.907492"><ele>-1</ele><time>2023-12-06T11:40:26Z</time><name>PT3860</name></trkpt>
<trkpt lat="51.792359" lon="03.907498"><ele>-1</ele><time>2023-12-06T11:40:26Z</time><name>PT3861</name></trkpt>
<trkpt lat="51.792361" lon="03.907504"><ele>-1</ele><time>2023-12-06T11:40:28Z</time><name>PT3862</name></trkpt>
<trkpt lat="51.792359" lon="03.907511"><ele>0.8</ele><time>2023-12-06T11:40:29Z</time><name>PT3863</name></trkpt>
<trkpt lat="51.792358" lon="03.907513"><ele>0.6</ele><time>2023-12-06T11:40:29Z</time><name>PT3864</name></trkpt>
<trkpt lat="51.792357" lon="03.907514"><ele>0.4</ele><time>2023-12-06T11:40:31Z</time><name>PT3865</name></trkpt>
<trkpt lat="51.792360" lon="03.907511"><ele>0.4</ele><time>2023-12-06T11:40:32Z</time><name>PT3866</name></trkpt>
<trkpt lat="51.792358" lon="03.907513"><ele>0.4</ele><time>2023-12-06T11:40:34Z</time><name>PT3867</name></trkpt>
<trkpt lat="51.792357" lon="03.907507"><ele>0.2</ele><time>2023-12-06T11:40:35Z</time><name>PT3868</name></trkpt>
<trkpt lat="51.792355" lon="03.907501"><ele>0.2</ele><time>2023-12-06T11:40:35Z</time><name>PT3869</name></trkpt>
<trkpt lat="51.792356" lon="03.907498"><ele>0.2</ele><time>2023-12-06T11:40:37Z</time><name>PT3870</name></trkpt>
<trkpt lat="51.792359" lon="03.907500"><ele>0.9</ele><time>2023-12-06T11:40:38Z</time><name>PT3871</name></trkpt>
<trkpt lat="51.792358" lon="03.907503"><ele>-1</ele><time>2023-12-06T11:40:38Z</time><name>PT3872</name></trkpt>
<trkpt lat="51.792359" lon="03.907498"><ele>-1.5</ele><time>2023-12-06T11:40:40Z</time><name>PT3873</name></trkpt>
<trkpt lat="51.792359" lon="03.907494"><ele>-1.5</ele><time>2023-12-06T11:40:41Z</time><name>PT3874</name></trkpt>
<trkpt lat="51.792359" lon="03.907497"><ele>-1.4</ele><time>2023-12-06T11:40:41Z</time><name>PT3875</name></trkpt>
<trkpt lat="51.792357" lon="03.907499"><ele>-1</ele><time>2023-12-06T11:40:43Z</time><name>PT3876</name></trkpt>
<trkpt lat="51.792355" lon="03.907500"><ele>0.7</ele><time>2023-12-06T11:40:44Z</time><name>PT3877</name></trkpt>
<trkpt lat="51.792357" lon="03.907501"><ele>0.7</ele><time>2023-12-06T11:41:08Z</time><name>PT3878</name></trkpt>
<trkpt lat="51.792359" lon="03.907498"><ele>0.6</ele><time>2023-12-06T11:41:10Z</time><name>PT3879</name></trkpt>
<trkpt lat="51.792362" lon="03.907494"><ele>0.6</ele><time>2023-12-06T11:41:11Z</time><name>PT3880</name></trkpt>
<trkpt lat="51.792365" lon="03.907490"><ele>0.8</ele><time>2023-12-06T11:41:11Z</time><name>PT3881</name></trkpt>
<trkpt lat="51.792364" lon="03.907493"><ele>0.9</ele><time>2023-12-06T11:41:14Z</time><name>PT3882</name></trkpt>
<trkpt lat="51.792363" lon="03.907495"><ele>-1</ele><time>2023-12-06T11:41:14Z</time><name>PT3883</name></trkpt>
<trkpt lat="51.792363" lon="03.907490"><ele>0.8</ele><time>2023-12-06T11:41:19Z</time><name>PT3884</name></trkpt>
<trkpt lat="51.792362" lon="03.907489"><ele>0.9</ele><time>2023-12-06T11:41:20Z</time><name>PT3885</name></trkpt>
<trkpt lat="51.792362" lon="03.907491"><ele>-1</ele><time>2023-12-06T11:41:20Z</time><name>PT3886</name></trkpt>
<trkpt lat="51.792362" lon="03.907490"><ele>-1.1</ele><time>2023-12-06T11:41:22Z</time><name>PT3887</name></trkpt>
<trkpt lat="51.792361" lon="03.907484"><ele>-1</ele><time>2023-12-06T11:41:29Z</time><name>PT3888</name></trkpt>
<trkpt lat="51.792361" lon="03.907479"><ele>0.9</ele><time>2023-12-06T11:41:29Z</time><name>PT3889</name></trkpt>
<trkpt lat="51.792360" lon="03.907480"><ele>0.8</ele><time>2023-12-06T11:41:31Z</time><name>PT3890</name></trkpt>
<trkpt lat="51.792359" lon="03.907482"><ele>0.7</ele><time>2023-12-06T11:41:32Z</time><name>PT3891</name></trkpt>
<trkpt lat="51.792360" lon="03.907483"><ele>0.8</ele><time>2023-12-06T11:41:34Z</time><name>PT3892</name></trkpt>
<trkpt lat="51.792360" lon="03.907486"><ele>0.8</ele><time>2023-12-06T11:41:35Z</time><name>PT3893</name></trkpt>
<trkpt lat="51.792361" lon="03.907479"><ele>-1</ele><time>2023-12-06T11:41:38Z</time><name>PT3894</name></trkpt>
<trkpt lat="51.792368" lon="03.907464"><ele>-1</ele><time>2023-12-06T11:41:40Z</time><name>PT3895</name></trkpt>
<trkpt lat="51.792373" lon="03.907456"><ele>-1</ele><time>2023-12-06T11:41:41Z</time><name>PT3896</name></trkpt>
<trkpt lat="51.792377" lon="03.907447"><ele>-1</ele><time>2023-12-06T11:41:41Z</time><name>PT3897</name></trkpt>
<trkpt lat="51.792385" lon="03.907441"><ele>-1</ele><time>2023-12-06T11:41:43Z</time><name>PT3898</name></trkpt>
<trkpt lat="51.792393" lon="03.907433"><ele>-1</ele><time>2023-12-06T11:41:44Z</time><name>PT3899</name></trkpt>
<trkpt lat="51.792402" lon="03.907422"><ele>-1</ele><time>2023-12-06T11:41:44Z</time><name>PT3900</name></trkpt>
<trkpt lat="51.792409" lon="03.907410"><ele>0.7</ele><time>2023-12-06T11:41:46Z</time><name>PT3901</name></trkpt>
<trkpt lat="51.792419" lon="03.907400"><ele>0.8</ele><time>2023-12-06T11:41:47Z</time><name>PT3902</name></trkpt>
<trkpt lat="51.792426" lon="03.907392"><ele>-1</ele><time>2023-12-06T11:41:47Z</time><name>PT3903</name></trkpt>
<trkpt lat="51.792434" lon="03.907384"><ele>-1.4</ele><time>2023-12-06T11:41:49Z</time><name>PT3904</name></trkpt>
<trkpt lat="51.792443" lon="03.907377"><ele>-1.8</ele><time>2023-12-06T11:41:50Z</time><name>PT3905</name></trkpt>
<trkpt lat="51.792452" lon="03.907369"><ele>-1.8</ele><time>2023-12-06T11:41:50Z</time><name>PT3906</name></trkpt>
<trkpt lat="51.792461" lon="03.907362"><ele>-1.5</ele><time>2023-12-06T11:41:52Z</time><name>PT3907</name></trkpt>
<trkpt lat="51.792469" lon="03.907354"><ele>-1.5</ele><time>2023-12-06T11:41:53Z</time><name>PT3908</name></trkpt>
<trkpt lat="51.792477" lon="03.907347"><ele>-1.5</ele><time>2023-12-06T11:41:53Z</time><name>PT3909</name></trkpt>
<trkpt lat="51.792484" lon="03.907340"><ele>-1.5</ele><time>2023-12-06T11:41:55Z</time><name>PT3910</name></trkpt>
<trkpt lat="51.792490" lon="03.907333"><ele>-1.7</ele><time>2023-12-06T11:41:56Z</time><name>PT3911</name></trkpt>
<trkpt lat="51.792496" lon="03.907327"><ele>-1.7</ele><time>2023-12-06T11:41:56Z</time><name>PT3912</name></trkpt>
<trkpt lat="51.792500" lon="03.907321"><ele>-1.5</ele><time>2023-12-06T11:41:58Z</time><name>PT3913</name></trkpt>
<trkpt lat="51.792504" lon="03.907315"><ele>-1.7</ele><time>2023-12-06T11:41:59Z</time><name>PT3914</name></trkpt>
<trkpt lat="51.792506" lon="03.907310"><ele>-1.7</ele><time>2023-12-06T11:41:59Z</time><name>PT3915</name></trkpt>
<trkpt lat="51.792507" lon="03.907309"><ele>-1.7</ele><time>2023-12-06T11:42:01Z</time><name>PT3916</name></trkpt>
<trkpt lat="51.792507" lon="03.907310"><ele>-1.8</ele><time>2023-12-06T11:42:02Z</time><name>PT3917</name></trkpt>
<trkpt lat="51.792507" lon="03.907310"><ele>-1.6</ele><time>2023-12-06T11:42:02Z</time><name>PT3918</name></trkpt>
<trkpt lat="51.792510" lon="03.907306"><ele>-1.5</ele><time>2023-12-06T11:42:08Z</time><name>PT3919</name></trkpt>
<trkpt lat="51.792513" lon="03.907298"><ele>-1.6</ele><time>2023-12-06T11:42:08Z</time><name>PT3920</name></trkpt>
<trkpt lat="51.792515" lon="03.907299"><ele>-2.1</ele><time>2023-12-06T11:42:11Z</time><name>PT3921</name></trkpt>
<trkpt lat="51.792518" lon="03.907291"><ele>-2.3</ele><time>2023-12-06T11:42:13Z</time><name>PT3922</name></trkpt>
<trkpt lat="51.792518" lon="03.907288"><ele>-2.1</ele><time>2023-12-06T11:42:14Z</time><name>PT3923</name></trkpt>
<trkpt lat="51.792519" lon="03.907286"><ele>-2</ele><time>2023-12-06T11:42:17Z</time><name>PT3924</name></trkpt>
<trkpt lat="51.792520" lon="03.907285"><ele>-1.9</ele><time>2023-12-06T11:42:17Z</time><name>PT3925</name></trkpt>
<trkpt lat="51.792520" lon="03.907285"><ele>-1.8</ele><time>2023-12-06T11:42:19Z</time><name>PT3926</name></trkpt>
<trkpt lat="51.792518" lon="03.907285"><ele>-2</ele><time>2023-12-06T11:42:20Z</time><name>PT3927</name></trkpt>
<trkpt lat="51.792519" lon="03.907285"><ele>-2</ele><time>2023-12-06T11:42:22Z</time><name>PT3928</name></trkpt>
<trkpt lat="51.792519" lon="03.907286"><ele>-2.2</ele><time>2023-12-06T11:42:23Z</time><name>PT3929</name></trkpt>
<trkpt lat="51.792520" lon="03.907287"><ele>-1.6</ele><time>2023-12-06T11:42:47Z</time><name>PT3930</name></trkpt>
<trkpt lat="51.792520" lon="03.907287"><ele>-1.7</ele><time>2023-12-06T11:42:47Z</time><name>PT3931</name></trkpt>
<trkpt lat="51.792517" lon="03.907287"><ele>-1.6</ele><time>2023-12-06T11:42:49Z</time><name>PT3932</name></trkpt>
<trkpt lat="51.792520" lon="03.907290"><ele>-1.6</ele><time>2023-12-06T11:42:50Z</time><name>PT3933</name></trkpt>
<trkpt lat="51.792521" lon="03.907294"><ele>-1.5</ele><time>2023-12-06T11:42:51Z</time><name>PT3934</name></trkpt>
<trkpt lat="51.792519" lon="03.907304"><ele>-1.5</ele><time>2023-12-06T11:42:52Z</time><name>PT3935</name></trkpt>
<trkpt lat="51.792515" lon="03.907315"><ele>-1.5</ele><time>2023-12-06T11:42:53Z</time><name>PT3936</name></trkpt>
<trkpt lat="51.792510" lon="03.907325"><ele>-1.5</ele><time>2023-12-06T11:42:53Z</time><name>PT3937</name></trkpt>
<trkpt lat="51.792504" lon="03.907334"><ele>-1.5</ele><time>2023-12-06T11:42:55Z</time><name>PT3938</name></trkpt>
<trkpt lat="51.792496" lon="03.907341"><ele>-1.4</ele><time>2023-12-06T11:42:56Z</time><name>PT3939</name></trkpt>
<trkpt lat="51.792487" lon="03.907350"><ele>-1.1</ele><time>2023-12-06T11:42:57Z</time><name>PT3940</name></trkpt>
<trkpt lat="51.792478" lon="03.907357"><ele>0.9</ele><time>2023-12-06T11:42:58Z</time><name>PT3941</name></trkpt>
<trkpt lat="51.792470" lon="03.907364"><ele>0.7</ele><time>2023-12-06T11:42:59Z</time><name>PT3942</name></trkpt>
<trkpt lat="51.792463" lon="03.907374"><ele>0.6</ele><time>2023-12-06T11:42:59Z</time><name>PT3943</name></trkpt>
<trkpt lat="51.792457" lon="03.907385"><ele>0.5</ele><time>2023-12-06T11:43:01Z</time><name>PT3944</name></trkpt>
<trkpt lat="51.792452" lon="03.907393"><ele>0.4</ele><time>2023-12-06T11:43:02Z</time><name>PT3945</name></trkpt>
<trkpt lat="51.792444" lon="03.907399"><ele>0.4</ele><time>2023-12-06T11:43:02Z</time><name>PT3946</name></trkpt>
<trkpt lat="51.792437" lon="03.907405"><ele>0.3</ele><time>2023-12-06T11:43:04Z</time><name>PT3947</name></trkpt>
<trkpt lat="51.792430" lon="03.907411"><ele>0.2</ele><time>2023-12-06T11:43:05Z</time><name>PT3948</name></trkpt>
<trkpt lat="51.792424" lon="03.907420"><ele>0.1</ele><time>2023-12-06T11:43:05Z</time><name>PT3949</name></trkpt>
<trkpt lat="51.792419" lon="03.907429"><ele>0.1</ele><time>2023-12-06T11:43:07Z</time><name>PT3950</name></trkpt>
<trkpt lat="51.792414" lon="03.907435"><ele>0</ele><time>2023-12-06T11:43:08Z</time><name>PT3951</name></trkpt>
<trkpt lat="51.792409" lon="03.907440"><ele>0.1</ele><time>2023-12-06T11:43:08Z</time><name>PT3952</name></trkpt>
<trkpt lat="51.792404" lon="03.907446"><ele>0.2</ele><time>2023-12-06T11:43:10Z</time><name>PT3953</name></trkpt>
<trkpt lat="51.792398" lon="03.907452"><ele>0.3</ele><time>2023-12-06T11:43:11Z</time><name>PT3954</name></trkpt>
<trkpt lat="51.792394" lon="03.907456"><ele>0.3</ele><time>2023-12-06T11:43:11Z</time><name>PT3955</name></trkpt>
<trkpt lat="51.792390" lon="03.907460"><ele>0.3</ele><time>2023-12-06T11:43:13Z</time><name>PT3956</name></trkpt>
<trkpt lat="51.792389" lon="03.907462"><ele>0.3</ele><time>2023-12-06T11:43:14Z</time><name>PT3957</name></trkpt>
<trkpt lat="51.792388" lon="03.907463"><ele>0.5</ele><time>2023-12-06T11:43:14Z</time><name>PT3958</name></trkpt>
<trkpt lat="51.792388" lon="03.907463"><ele>0.9</ele><time>2023-12-06T11:43:16Z</time><name>PT3959</name></trkpt>
<trkpt lat="51.792388" lon="03.907461"><ele>0.8</ele><time>2023-12-06T11:43:17Z</time><name>PT3960</name></trkpt>
<trkpt lat="51.792389" lon="03.907459"><ele>0.8</ele><time>2023-12-06T11:43:19Z</time><name>PT3961</name></trkpt>
<trkpt lat="51.792389" lon="03.907459"><ele>0.8</ele><time>2023-12-06T11:43:20Z</time><name>PT3962</name></trkpt>
<trkpt lat="51.792389" lon="03.907459"><ele>0.8</ele><time>2023-12-06T11:43:20Z</time><name>PT3963</name></trkpt>
<trkpt lat="51.792387" lon="03.907460"><ele>1.5</ele><time>2023-12-06T11:43:26Z</time><name>PT3964</name></trkpt>
<trkpt lat="51.792385" lon="03.907463"><ele>0.8</ele><time>2023-12-06T11:43:28Z</time><name>PT3965</name></trkpt>
<trkpt lat="51.792385" lon="03.907465"><ele>0.3</ele><time>2023-12-06T11:43:29Z</time><name>PT3966</name></trkpt>
<trkpt lat="51.792384" lon="03.907468"><ele>0.2</ele><time>2023-12-06T11:43:29Z</time><name>PT3967</name></trkpt>
<trkpt lat="51.792364" lon="03.907451"><ele>0.4</ele><time>2023-12-06T11:51:35Z</time><name>PT3968</name></trkpt>
<trkpt lat="51.792362" lon="03.907462"><ele>0.3</ele><time>2023-12-06T11:51:38Z</time><name>PT3969</name></trkpt>
<trkpt lat="51.792361" lon="03.907480"><ele>0.3</ele><time>2023-12-06T11:51:38Z</time><name>PT3970</name></trkpt>
<trkpt lat="51.792360" lon="03.907496"><ele>0.2</ele><time>2023-12-06T11:51:40Z</time><name>PT3971</name></trkpt>
<trkpt lat="51.792360" lon="03.907512"><ele>0.4</ele><time>2023-12-06T11:51:41Z</time><name>PT3972</name></trkpt>
<trkpt lat="51.792360" lon="03.907528"><ele>0.6</ele><time>2023-12-06T11:51:41Z</time><name>PT3973</name></trkpt>
<trkpt lat="51.792361" lon="03.907542"><ele>0.8</ele><time>2023-12-06T11:51:43Z</time><name>PT3974</name></trkpt>
<trkpt lat="51.792362" lon="03.907555"><ele>0.9</ele><time>2023-12-06T11:51:44Z</time><name>PT3975</name></trkpt>
<trkpt lat="51.792364" lon="03.907571"><ele>1</ele><time>2023-12-06T11:51:44Z</time><name>PT3976</name></trkpt>
<trkpt lat="51.792366" lon="03.907583"><ele>0.8</ele><time>2023-12-06T11:51:46Z</time><name>PT3977</name></trkpt>
<trkpt lat="51.792369" lon="03.907598"><ele>0.8</ele><time>2023-12-06T11:51:47Z</time><name>PT3978</name></trkpt>
<trkpt lat="51.792371" lon="03.907612"><ele>0.9</ele><time>2023-12-06T11:51:47Z</time><name>PT3979</name></trkpt>
<trkpt lat="51.792374" lon="03.907626"><ele>1.1</ele><time>2023-12-06T11:51:49Z</time><name>PT3980</name></trkpt>
<trkpt lat="51.792376" lon="03.907642"><ele>1.2</ele><time>2023-12-06T11:51:50Z</time><name>PT3981</name></trkpt>
<trkpt lat="51.792377" lon="03.907657"><ele>1.2</ele><time>2023-12-06T11:51:50Z</time><name>PT3982</name></trkpt>
<trkpt lat="51.792379" lon="03.907672"><ele>1.2</ele><time>2023-12-06T11:51:52Z</time><name>PT3983</name></trkpt>
<trkpt lat="51.792382" lon="03.907687"><ele>1.1</ele><time>2023-12-06T11:51:53Z</time><name>PT3984</name></trkpt>
<trkpt lat="51.792386" lon="03.907700"><ele>1</ele><time>2023-12-06T11:51:53Z</time><name>PT3985</name></trkpt>
<trkpt lat="51.792391" lon="03.907714"><ele>1</ele><time>2023-12-06T11:51:55Z</time><name>PT3986</name></trkpt>
<trkpt lat="51.792395" lon="03.907728"><ele>0.9</ele><time>2023-12-06T11:51:56Z</time><name>PT3987</name></trkpt>
<trkpt lat="51.792399" lon="03.907742"><ele>0.8</ele><time>2023-12-06T11:51:56Z</time><name>PT3988</name></trkpt>
<trkpt lat="51.792401" lon="03.907758"><ele>0.7</ele><time>2023-12-06T11:51:58Z</time><name>PT3989</name></trkpt>
<trkpt lat="51.792404" lon="03.907773"><ele>0.8</ele><time>2023-12-06T11:51:59Z</time><name>PT3990</name></trkpt>
<trkpt lat="51.792408" lon="03.907790"><ele>0.7</ele><time>2023-12-06T11:51:59Z</time><name>PT3991</name></trkpt>
<trkpt lat="51.792412" lon="03.907806"><ele>0.8</ele><time>2023-12-06T11:52:01Z</time><name>PT3992</name></trkpt>
<trkpt lat="51.792417" lon="03.907822"><ele>0.8</ele><time>2023-12-06T11:52:02Z</time><name>PT3993</name></trkpt>
<trkpt lat="51.792422" lon="03.907836"><ele>0.8</ele><time>2023-12-06T11:52:02Z</time><name>PT3994</name></trkpt>
<trkpt lat="51.792427" lon="03.907849"><ele>0.9</ele><time>2023-12-06T11:52:04Z</time><name>PT3995</name></trkpt>
<trkpt lat="51.792430" lon="03.907860"><ele>0.8</ele><time>2023-12-06T11:52:05Z</time><name>PT3996</name></trkpt>
<trkpt lat="51.792431" lon="03.907863"><ele>0.8</ele><time>2023-12-06T11:52:05Z</time><name>PT3997</name></trkpt>
<trkpt lat="51.792431" lon="03.907864"><ele>0.9</ele><time>2023-12-06T11:52:07Z</time><name>PT3998</name></trkpt>
<trkpt lat="51.792431" lon="03.907866"><ele>0.8</ele><time>2023-12-06T11:52:08Z</time><name>PT3999</name></trkpt>
<trkpt lat="51.792433" lon="03.907870"><ele>0.7</ele><time>2023-12-06T11:52:10Z</time><name>PT4000</name></trkpt>
<trkpt lat="51.792438" lon="03.907888"><ele>0.8</ele><time>2023-12-06T11:52:11Z</time><name>PT4001</name></trkpt>
<trkpt lat="51.792445" lon="03.907904"><ele>1</ele><time>2023-12-06T11:52:11Z</time><name>PT4002</name></trkpt>
<trkpt lat="51.792452" lon="03.907917"><ele>0.9</ele><time>2023-12-06T11:52:13Z</time><name>PT4003</name></trkpt>
<trkpt lat="51.792457" lon="03.907931"><ele>1.2</ele><time>2023-12-06T11:52:14Z</time><name>PT4004</name></trkpt>
<trkpt lat="51.792462" lon="03.907947"><ele>1.2</ele><time>2023-12-06T11:52:15Z</time><name>PT4005</name></trkpt>
<trkpt lat="51.792467" lon="03.907962"><ele>1.2</ele><time>2023-12-06T11:52:16Z</time><name>PT4006</name></trkpt>
<trkpt lat="51.792469" lon="03.907973"><ele>1</ele><time>2023-12-06T11:52:17Z</time><name>PT4007</name></trkpt>
<trkpt lat="51.792473" lon="03.907989"><ele>0.8</ele><time>2023-12-06T11:52:17Z</time><name>PT4008</name></trkpt>
<trkpt lat="51.792478" lon="03.908004"><ele>0.7</ele><time>2023-12-06T11:52:19Z</time><name>PT4009</name></trkpt>
<trkpt lat="51.792483" lon="03.908021"><ele>0.7</ele><time>2023-12-06T11:52:20Z</time><name>PT4010</name></trkpt>
<trkpt lat="51.792489" lon="03.908038"><ele>0.7</ele><time>2023-12-06T11:52:20Z</time><name>PT4011</name></trkpt>
<trkpt lat="51.792494" lon="03.908055"><ele>0.8</ele><time>2023-12-06T11:52:22Z</time><name>PT4012</name></trkpt>
<trkpt lat="51.792499" lon="03.908072"><ele>1.2</ele><time>2023-12-06T11:52:23Z</time><name>PT4013</name></trkpt>
<trkpt lat="51.792505" lon="03.908089"><ele>1.3</ele><time>2023-12-06T11:52:23Z</time><name>PT4014</name></trkpt>
<trkpt lat="51.792511" lon="03.908105"><ele>1.3</ele><time>2023-12-06T11:52:25Z</time><name>PT4015</name></trkpt>
<trkpt lat="51.792516" lon="03.908121"><ele>1</ele><time>2023-12-06T11:52:26Z</time><name>PT4016</name></trkpt>
<trkpt lat="51.792521" lon="03.908140"><ele>1.1</ele><time>2023-12-06T11:52:26Z</time><name>PT4017</name></trkpt>
<trkpt lat="51.792525" lon="03.908158"><ele>0.9</ele><time>2023-12-06T11:52:28Z</time><name>PT4018</name></trkpt>
<trkpt lat="51.792529" lon="03.908175"><ele>0.8</ele><time>2023-12-06T11:52:29Z</time><name>PT4019</name></trkpt>
<trkpt lat="51.792533" lon="03.908190"><ele>0.9</ele><time>2023-12-06T11:52:29Z</time><name>PT4020</name></trkpt>
<trkpt lat="51.792538" lon="03.908205"><ele>1</ele><time>2023-12-06T11:52:31Z</time><name>PT4021</name></trkpt>
<trkpt lat="51.792543" lon="03.908222"><ele>1.2</ele><time>2023-12-06T11:52:32Z</time><name>PT4022</name></trkpt>
<trkpt lat="51.792548" lon="03.908239"><ele>1.2</ele><time>2023-12-06T11:52:32Z</time><name>PT4023</name></trkpt>
<trkpt lat="51.792554" lon="03.908255"><ele>1</ele><time>2023-12-06T11:52:34Z</time><name>PT4024</name></trkpt>
<trkpt lat="51.792559" lon="03.908270"><ele>1.1</ele><time>2023-12-06T11:52:35Z</time><name>PT4025</name></trkpt>
<trkpt lat="51.792565" lon="03.908284"><ele>1.1</ele><time>2023-12-06T11:52:35Z</time><name>PT4026</name></trkpt>
<trkpt lat="51.792570" lon="03.908298"><ele>0.8</ele><time>2023-12-06T11:52:37Z</time><name>PT4027</name></trkpt>
<trkpt lat="51.792575" lon="03.908312"><ele>0.8</ele><time>2023-12-06T11:52:38Z</time><name>PT4028</name></trkpt>
<trkpt lat="51.792581" lon="03.908328"><ele>0.7</ele><time>2023-12-06T11:52:38Z</time><name>PT4029</name></trkpt>
<trkpt lat="51.792585" lon="03.908345"><ele>0.7</ele><time>2023-12-06T11:52:40Z</time><name>PT4030</name></trkpt>
<trkpt lat="51.792590" lon="03.908362"><ele>0.8</ele><time>2023-12-06T11:52:41Z</time><name>PT4031</name></trkpt>
<trkpt lat="51.792594" lon="03.908381"><ele>0.8</ele><time>2023-12-06T11:52:41Z</time><name>PT4032</name></trkpt>
<trkpt lat="51.792598" lon="03.908399"><ele>0.7</ele><time>2023-12-06T11:52:43Z</time><name>PT4033</name></trkpt>
<trkpt lat="51.792602" lon="03.908414"><ele>0.6</ele><time>2023-12-06T11:52:44Z</time><name>PT4034</name></trkpt>
<trkpt lat="51.792606" lon="03.908429"><ele>0.5</ele><time>2023-12-06T11:52:44Z</time><name>PT4035</name></trkpt>
<trkpt lat="51.792611" lon="03.908446"><ele>0.5</ele><time>2023-12-06T11:52:46Z</time><name>PT4036</name></trkpt>
<trkpt lat="51.792616" lon="03.908461"><ele>0.3</ele><time>2023-12-06T11:52:47Z</time><name>PT4037</name></trkpt>
<trkpt lat="51.792621" lon="03.908476"><ele>0.3</ele><time>2023-12-06T11:52:47Z</time><name>PT4038</name></trkpt>
<trkpt lat="51.792625" lon="03.908493"><ele>0.3</ele><time>2023-12-06T11:52:49Z</time><name>PT4039</name></trkpt>
<trkpt lat="51.792629" lon="03.908508"><ele>0.2</ele><time>2023-12-06T11:52:50Z</time><name>PT4040</name></trkpt>
<trkpt lat="51.792633" lon="03.908520"><ele>0.2</ele><time>2023-12-06T11:52:50Z</time><name>PT4041</name></trkpt>
<trkpt lat="51.792636" lon="03.908533"><ele>0.2</ele><time>2023-12-06T11:52:52Z</time><name>PT4042</name></trkpt>
<trkpt lat="51.792640" lon="03.908547"><ele>0.2</ele><time>2023-12-06T11:52:53Z</time><name>PT4043</name></trkpt>
<trkpt lat="51.792646" lon="03.908562"><ele>0.2</ele><time>2023-12-06T11:52:53Z</time><name>PT4044</name></trkpt>
<trkpt lat="51.792651" lon="03.908577"><ele>0.3</ele><time>2023-12-06T11:52:55Z</time><name>PT4045</name></trkpt>
<trkpt lat="51.792657" lon="03.908592"><ele>0.4</ele><time>2023-12-06T11:52:56Z</time><name>PT4046</name></trkpt>
<trkpt lat="51.792661" lon="03.908608"><ele>0.6</ele><time>2023-12-06T11:52:56Z</time><name>PT4047</name></trkpt>
<trkpt lat="51.792664" lon="03.908622"><ele>0.6</ele><time>2023-12-06T11:52:58Z</time><name>PT4048</name></trkpt>
<trkpt lat="51.792668" lon="03.908637"><ele>0.5</ele><time>2023-12-06T11:52:59Z</time><name>PT4049</name></trkpt>
<trkpt lat="51.792673" lon="03.908651"><ele>0.4</ele><time>2023-12-06T11:52:59Z</time><name>PT4050</name></trkpt>
<trkpt lat="51.792677" lon="03.908666"><ele>0.4</ele><time>2023-12-06T11:53:01Z</time><name>PT4051</name></trkpt>
<trkpt lat="51.792680" lon="03.908682"><ele>0.4</ele><time>2023-12-06T11:53:02Z</time><name>PT4052</name></trkpt>
<trkpt lat="51.792685" lon="03.908697"><ele>0.3</ele><time>2023-12-06T11:53:02Z</time><name>PT4053</name></trkpt>
<trkpt lat="51.792691" lon="03.908711"><ele>0.4</ele><time>2023-12-06T11:53:04Z</time><name>PT4054</name></trkpt>
<trkpt lat="51.792697" lon="03.908724"><ele>0.5</ele><time>2023-12-06T11:53:05Z</time><name>PT4055</name></trkpt>
<trkpt lat="51.792701" lon="03.908737"><ele>0.6</ele><time>2023-12-06T11:53:05Z</time><name>PT4056</name></trkpt>
<trkpt lat="51.792703" lon="03.908749"><ele>0.5</ele><time>2023-12-06T11:53:07Z</time><name>PT4057</name></trkpt>
<trkpt lat="51.792707" lon="03.908763"><ele>0.4</ele><time>2023-12-06T11:53:08Z</time><name>PT4058</name></trkpt>
<trkpt lat="51.792710" lon="03.908780"><ele>0.3</ele><time>2023-12-06T11:53:09Z</time><name>PT4059</name></trkpt>
<trkpt lat="51.792714" lon="03.908796"><ele>0.3</ele><time>2023-12-06T11:53:10Z</time><name>PT4060</name></trkpt>
<trkpt lat="51.792719" lon="03.908811"><ele>0.4</ele><time>2023-12-06T11:53:11Z</time><name>PT4061</name></trkpt>
<trkpt lat="51.792723" lon="03.908824"><ele>0.3</ele><time>2023-12-06T11:53:12Z</time><name>PT4062</name></trkpt>
<trkpt lat="51.792728" lon="03.908838"><ele>0.3</ele><time>2023-12-06T11:53:13Z</time><name>PT4063</name></trkpt>
<trkpt lat="51.792732" lon="03.908852"><ele>0.5</ele><time>2023-12-06T11:53:14Z</time><name>PT4064</name></trkpt>
<trkpt lat="51.792735" lon="03.908866"><ele>0.5</ele><time>2023-12-06T11:53:15Z</time><name>PT4065</name></trkpt>
<trkpt lat="51.792740" lon="03.908880"><ele>0.5</ele><time>2023-12-06T11:53:16Z</time><name>PT4066</name></trkpt>
<trkpt lat="51.792743" lon="03.908895"><ele>0.7</ele><time>2023-12-06T11:53:17Z</time><name>PT4067</name></trkpt>
<trkpt lat="51.792747" lon="03.908910"><ele>0.8</ele><time>2023-12-06T11:53:18Z</time><name>PT4068</name></trkpt>
<trkpt lat="51.792751" lon="03.908924"><ele>1.1</ele><time>2023-12-06T11:53:19Z</time><name>PT4069</name></trkpt>
<trkpt lat="51.792756" lon="03.908938"><ele>1.3</ele><time>2023-12-06T11:53:20Z</time><name>PT4070</name></trkpt>
<trkpt lat="51.792759" lon="03.908952"><ele>1.4</ele><time>2023-12-06T11:53:21Z</time><name>PT4071</name></trkpt>
<trkpt lat="51.792764" lon="03.908966"><ele>1.2</ele><time>2023-12-06T11:53:22Z</time><name>PT4072</name></trkpt>
<trkpt lat="51.792770" lon="03.908978"><ele>1.3</ele><time>2023-12-06T11:53:23Z</time><name>PT4073</name></trkpt>
<trkpt lat="51.792775" lon="03.908989"><ele>1.3</ele><time>2023-12-06T11:53:24Z</time><name>PT4074</name></trkpt>
<trkpt lat="51.792779" lon="03.909002"><ele>1.3</ele><time>2023-12-06T11:53:25Z</time><name>PT4075</name></trkpt>
<trkpt lat="51.792783" lon="03.909017"><ele>1.4</ele><time>2023-12-06T11:53:26Z</time><name>PT4076</name></trkpt>
<trkpt lat="51.792787" lon="03.909033"><ele>1.7</ele><time>2023-12-06T11:53:27Z</time><name>PT4077</name></trkpt>
<trkpt lat="51.792791" lon="03.909048"><ele>1.7</ele><time>2023-12-06T11:53:28Z</time><name>PT4078</name></trkpt>
<trkpt lat="51.792794" lon="03.909061"><ele>1.8</ele><time>2023-12-06T11:53:29Z</time><name>PT4079</name></trkpt>
<trkpt lat="51.792797" lon="03.909074"><ele>2</ele><time>2023-12-06T11:53:29Z</time><name>PT4080</name></trkpt>
<trkpt lat="51.792802" lon="03.909085"><ele>2.1</ele><time>2023-12-06T11:53:31Z</time><name>PT4081</name></trkpt>
<trkpt lat="51.792807" lon="03.909097"><ele>2.1</ele><time>2023-12-06T11:53:32Z</time><name>PT4082</name></trkpt>
<trkpt lat="51.792812" lon="03.909110"><ele>2</ele><time>2023-12-06T11:53:32Z</time><name>PT4083</name></trkpt>
<trkpt lat="51.792817" lon="03.909124"><ele>1.6</ele><time>2023-12-06T11:53:34Z</time><name>PT4084</name></trkpt>
<trkpt lat="51.792822" lon="03.909138"><ele>1.1</ele><time>2023-12-06T11:53:35Z</time><name>PT4085</name></trkpt>
<trkpt lat="51.792825" lon="03.909154"><ele>1</ele><time>2023-12-06T11:53:35Z</time><name>PT4086</name></trkpt>
<trkpt lat="51.792829" lon="03.909168"><ele>0.9</ele><time>2023-12-06T11:53:37Z</time><name>PT4087</name></trkpt>
<trkpt lat="51.792834" lon="03.909180"><ele>0.8</ele><time>2023-12-06T11:53:38Z</time><name>PT4088</name></trkpt>
<trkpt lat="51.792840" lon="03.909191"><ele>0.9</ele><time>2023-12-06T11:53:38Z</time><name>PT4089</name></trkpt>
<trkpt lat="51.792847" lon="03.909204"><ele>1.1</ele><time>2023-12-06T11:53:40Z</time><name>PT4090</name></trkpt>
<trkpt lat="51.792855" lon="03.909218"><ele>1.2</ele><time>2023-12-06T11:53:41Z</time><name>PT4091</name></trkpt>
<trkpt lat="51.792861" lon="03.909229"><ele>1.3</ele><time>2023-12-06T11:53:41Z</time><name>PT4092</name></trkpt>
<trkpt lat="51.792868" lon="03.909239"><ele>1.3</ele><time>2023-12-06T11:53:43Z</time><name>PT4093</name></trkpt>
<trkpt lat="51.792875" lon="03.909247"><ele>1.3</ele><time>2023-12-06T11:53:44Z</time><name>PT4094</name></trkpt>
<trkpt lat="51.792882" lon="03.909257"><ele>1.3</ele><time>2023-12-06T11:53:44Z</time><name>PT4095</name></trkpt>
<trkpt lat="51.792888" lon="03.909269"><ele>1</ele><time>2023-12-06T11:53:46Z</time><name>PT4096</name></trkpt>
<trkpt lat="51.792894" lon="03.909278"><ele>0.8</ele><time>2023-12-06T11:53:47Z</time><name>PT4097</name></trkpt>
<trkpt lat="51.792903" lon="03.909285"><ele>0.7</ele><time>2023-12-06T11:53:47Z</time><name>PT4098</name></trkpt>
<trkpt lat="51.792913" lon="03.909293"><ele>0.5</ele><time>2023-12-06T11:53:49Z</time><name>PT4099</name></trkpt>
<trkpt lat="51.792921" lon="03.909299"><ele>0.4</ele><time>2023-12-06T11:53:50Z</time><name>PT4100</name></trkpt>
<trkpt lat="51.792930" lon="03.909304"><ele>0.4</ele><time>2023-12-06T11:53:50Z</time><name>PT4101</name></trkpt>
<trkpt lat="51.792940" lon="03.909310"><ele>0.5</ele><time>2023-12-06T11:53:52Z</time><name>PT4102</name></trkpt>
<trkpt lat="51.792948" lon="03.909317"><ele>0.4</ele><time>2023-12-06T11:53:53Z</time><name>PT4103</name></trkpt>
<trkpt lat="51.792956" lon="03.909326"><ele>0.6</ele><time>2023-12-06T11:53:53Z</time><name>PT4104</name></trkpt>
<trkpt lat="51.792965" lon="03.909335"><ele>0.3</ele><time>2023-12-06T11:53:55Z</time><name>PT4105</name></trkpt>
<trkpt lat="51.792974" lon="03.909343"><ele>0.3</ele><time>2023-12-06T11:53:56Z</time><name>PT4106</name></trkpt>
<trkpt lat="51.792983" lon="03.909350"><ele>0.2</ele><time>2023-12-06T11:53:56Z</time><name>PT4107</name></trkpt>
<trkpt lat="51.792993" lon="03.909357"><ele>0.3</ele><time>2023-12-06T11:53:58Z</time><name>PT4108</name></trkpt>
<trkpt lat="51.793003" lon="03.909362"><ele>0.3</ele><time>2023-12-06T11:53:59Z</time><name>PT4109</name></trkpt>
<trkpt lat="51.793014" lon="03.909367"><ele>0.3</ele><time>2023-12-06T11:53:59Z</time><name>PT4110</name></trkpt>
<trkpt lat="51.793024" lon="03.909372"><ele>0.1</ele><time>2023-12-06T11:54:01Z</time><name>PT4111</name></trkpt>
<trkpt lat="51.793035" lon="03.909375"><ele>0</ele><time>2023-12-06T11:54:02Z</time><name>PT4112</name></trkpt>
<trkpt lat="51.793043" lon="03.909378"><ele>0</ele><time>2023-12-06T11:54:02Z</time><name>PT4113</name></trkpt>
<trkpt lat="51.793052" lon="03.909384"><ele>0.1</ele><time>2023-12-06T11:54:04Z</time><name>PT4114</name></trkpt>
<trkpt lat="51.793060" lon="03.909391"><ele>0.3</ele><time>2023-12-06T11:54:05Z</time><name>PT4115</name></trkpt>
<trkpt lat="51.793069" lon="03.909400"><ele>0.5</ele><time>2023-12-06T11:54:05Z</time><name>PT4116</name></trkpt>
<trkpt lat="51.793078" lon="03.909406"><ele>0.6</ele><time>2023-12-06T11:54:07Z</time><name>PT4117</name></trkpt>
<trkpt lat="51.793087" lon="03.909410"><ele>0.9</ele><time>2023-12-06T11:54:08Z</time><name>PT4118</name></trkpt>
<trkpt lat="51.793096" lon="03.909415"><ele>0.9</ele><time>2023-12-06T11:54:08Z</time><name>PT4119</name></trkpt>
<trkpt lat="51.793104" lon="03.909418"><ele>0.7</ele><time>2023-12-06T11:54:10Z</time><name>PT4120</name></trkpt>
<trkpt lat="51.793113" lon="03.909423"><ele>0.6</ele><time>2023-12-06T11:54:11Z</time><name>PT4121</name></trkpt>
<trkpt lat="51.793122" lon="03.909430"><ele>0.7</ele><time>2023-12-06T11:54:11Z</time><name>PT4122</name></trkpt>
<trkpt lat="51.793131" lon="03.909439"><ele>0.6</ele><time>2023-12-06T11:54:13Z</time><name>PT4123</name></trkpt>
<trkpt lat="51.793141" lon="03.909448"><ele>0.5</ele><time>2023-12-06T11:54:14Z</time><name>PT4124</name></trkpt>
<trkpt lat="51.793150" lon="03.909457"><ele>0.5</ele><time>2023-12-06T11:54:14Z</time><name>PT4125</name></trkpt>
<trkpt lat="51.793160" lon="03.909465"><ele>0.5</ele><time>2023-12-06T11:54:16Z</time><name>PT4126</name></trkpt>
<trkpt lat="51.793168" lon="03.909473"><ele>0.5</ele><time>2023-12-06T11:54:17Z</time><name>PT4127</name></trkpt>
<trkpt lat="51.793177" lon="03.909478"><ele>0.5</ele><time>2023-12-06T11:54:18Z</time><name>PT4128</name></trkpt>
<trkpt lat="51.793186" lon="03.909484"><ele>0.7</ele><time>2023-12-06T11:54:19Z</time><name>PT4129</name></trkpt>
<trkpt lat="51.793196" lon="03.909490"><ele>0.7</ele><time>2023-12-06T11:54:20Z</time><name>PT4130</name></trkpt>
<trkpt lat="51.793207" lon="03.909497"><ele>0.7</ele><time>2023-12-06T11:54:20Z</time><name>PT4131</name></trkpt>
<trkpt lat="51.793216" lon="03.909506"><ele>0.5</ele><time>2023-12-06T11:54:22Z</time><name>PT4132</name></trkpt>
<trkpt lat="51.793225" lon="03.909516"><ele>0.5</ele><time>2023-12-06T11:54:23Z</time><name>PT4133</name></trkpt>
<trkpt lat="51.793235" lon="03.909525"><ele>0.4</ele><time>2023-12-06T11:54:24Z</time><name>PT4134</name></trkpt>
<trkpt lat="51.793244" lon="03.909534"><ele>0.3</ele><time>2023-12-06T11:54:25Z</time><name>PT4135</name></trkpt>
<trkpt lat="51.793254" lon="03.909543"><ele>0.4</ele><time>2023-12-06T11:54:26Z</time><name>PT4136</name></trkpt>
<trkpt lat="51.793262" lon="03.909553"><ele>0.2</ele><time>2023-12-06T11:54:27Z</time><name>PT4137</name></trkpt>
<trkpt lat="51.793270" lon="03.909563"><ele>0.1</ele><time>2023-12-06T11:54:28Z</time><name>PT4138</name></trkpt>
<trkpt lat="51.793278" lon="03.909571"><ele>0</ele><time>2023-12-06T11:54:29Z</time><name>PT4139</name></trkpt>
<trkpt lat="51.793288" lon="03.909579"><ele>0</ele><time>2023-12-06T11:54:30Z</time><name>PT4140</name></trkpt>
<trkpt lat="51.793298" lon="03.909586"><ele>0</ele><time>2023-12-06T11:54:31Z</time><name>PT4141</name></trkpt>
<trkpt lat="51.793308" lon="03.909594"><ele>0.1</ele><time>2023-12-06T11:54:32Z</time><name>PT4142</name></trkpt>
<trkpt lat="51.793316" lon="03.909604"><ele>0.3</ele><time>2023-12-06T11:54:33Z</time><name>PT4143</name></trkpt>
<trkpt lat="51.793324" lon="03.909613"><ele>0.3</ele><time>2023-12-06T11:54:34Z</time><name>PT4144</name></trkpt>
<trkpt lat="51.793332" lon="03.909624"><ele>0.2</ele><time>2023-12-06T11:54:35Z</time><name>PT4145</name></trkpt>
<trkpt lat="51.793339" lon="03.909635"><ele>0.1</ele><time>2023-12-06T11:54:35Z</time><name>PT4146</name></trkpt>
<trkpt lat="51.793346" lon="03.909644"><ele>0</ele><time>2023-12-06T11:54:37Z</time><name>PT4147</name></trkpt>
<trkpt lat="51.793352" lon="03.909656"><ele>0.1</ele><time>2023-12-06T11:54:38Z</time><name>PT4148</name></trkpt>
<trkpt lat="51.793359" lon="03.909670"><ele>0.1</ele><time>2023-12-06T11:54:38Z</time><name>PT4149</name></trkpt>
<trkpt lat="51.793366" lon="03.909683"><ele>0</ele><time>2023-12-06T11:54:40Z</time><name>PT4150</name></trkpt>
<trkpt lat="51.793375" lon="03.909694"><ele>0</ele><time>2023-12-06T11:54:41Z</time><name>PT4151</name></trkpt>
<trkpt lat="51.793384" lon="03.909703"><ele>0</ele><time>2023-12-06T11:54:41Z</time><name>PT4152</name></trkpt>
<trkpt lat="51.793392" lon="03.909713"><ele>0.1</ele><time>2023-12-06T11:54:43Z</time><name>PT4153</name></trkpt>
<trkpt lat="51.793398" lon="03.909725"><ele>0.2</ele><time>2023-12-06T11:54:44Z</time><name>PT4154</name></trkpt>
<trkpt lat="51.793404" lon="03.909738"><ele>0.2</ele><time>2023-12-06T11:54:44Z</time><name>PT4155</name></trkpt>
<trkpt lat="51.793410" lon="03.909752"><ele>0.3</ele><time>2023-12-06T11:54:46Z</time><name>PT4156</name></trkpt>
<trkpt lat="51.793415" lon="03.909768"><ele>0.5</ele><time>2023-12-06T11:54:47Z</time><name>PT4157</name></trkpt>
<trkpt lat="51.793422" lon="03.909780"><ele>0.6</ele><time>2023-12-06T11:54:47Z</time><name>PT4158</name></trkpt>
<trkpt lat="51.793428" lon="03.909791"><ele>0.4</ele><time>2023-12-06T11:54:49Z</time><name>PT4159</name></trkpt>
<trkpt lat="51.793435" lon="03.909802"><ele>0.3</ele><time>2023-12-06T11:54:50Z</time><name>PT4160</name></trkpt>
<trkpt lat="51.793440" lon="03.909814"><ele>0.2</ele><time>2023-12-06T11:54:51Z</time><name>PT4161</name></trkpt>
<trkpt lat="51.793446" lon="03.909828"><ele>0</ele><time>2023-12-06T11:54:52Z</time><name>PT4162</name></trkpt>
<trkpt lat="51.793453" lon="03.909844"><ele>0</ele><time>2023-12-06T11:54:53Z</time><name>PT4163</name></trkpt>
<trkpt lat="51.793459" lon="03.909860"><ele>0.3</ele><time>2023-12-06T11:54:53Z</time><name>PT4164</name></trkpt>
<trkpt lat="51.793464" lon="03.909876"><ele>0.3</ele><time>2023-12-06T11:54:55Z</time><name>PT4165</name></trkpt>
<trkpt lat="51.793468" lon="03.909891"><ele>0.6</ele><time>2023-12-06T11:54:56Z</time><name>PT4166</name></trkpt>
<trkpt lat="51.793473" lon="03.909907"><ele>0.7</ele><time>2023-12-06T11:54:56Z</time><name>PT4167</name></trkpt>
<trkpt lat="51.793477" lon="03.909923"><ele>0.8</ele><time>2023-12-06T11:54:58Z</time><name>PT4168</name></trkpt>
<trkpt lat="51.793483" lon="03.909937"><ele>1</ele><time>2023-12-06T11:54:59Z</time><name>PT4169</name></trkpt>
<trkpt lat="51.793489" lon="03.909950"><ele>1.2</ele><time>2023-12-06T11:54:59Z</time><name>PT4170</name></trkpt>
<trkpt lat="51.793495" lon="03.909964"><ele>1</ele><time>2023-12-06T11:55:01Z</time><name>PT4171</name></trkpt>
<trkpt lat="51.793499" lon="03.909977"><ele>1</ele><time>2023-12-06T11:55:02Z</time><name>PT4172</name></trkpt>
<trkpt lat="51.793503" lon="03.909991"><ele>0.8</ele><time>2023-12-06T11:55:02Z</time><name>PT4173</name></trkpt>
<trkpt lat="51.793508" lon="03.910006"><ele>0.7</ele><time>2023-12-06T11:55:04Z</time><name>PT4174</name></trkpt>
<trkpt lat="51.793512" lon="03.910023"><ele>0.6</ele><time>2023-12-06T11:55:05Z</time><name>PT4175</name></trkpt>
<trkpt lat="51.793514" lon="03.910039"><ele>0.3</ele><time>2023-12-06T11:55:05Z</time><name>PT4176</name></trkpt>
<trkpt lat="51.793517" lon="03.910055"><ele>0.5</ele><time>2023-12-06T11:55:07Z</time><name>PT4177</name></trkpt>
<trkpt lat="51.793521" lon="03.910071"><ele>0.4</ele><time>2023-12-06T11:55:08Z</time><name>PT4178</name></trkpt>
<trkpt lat="51.793525" lon="03.910087"><ele>0.4</ele><time>2023-12-06T11:55:08Z</time><name>PT4179</name></trkpt>
<trkpt lat="51.793527" lon="03.910103"><ele>0.4</ele><time>2023-12-06T11:55:10Z</time><name>PT4180</name></trkpt>
<trkpt lat="51.793531" lon="03.910119"><ele>0.6</ele><time>2023-12-06T11:55:11Z</time><name>PT4181</name></trkpt>
<trkpt lat="51.793535" lon="03.910133"><ele>0.6</ele><time>2023-12-06T11:55:12Z</time><name>PT4182</name></trkpt>
<trkpt lat="51.793538" lon="03.910150"><ele>0.7</ele><time>2023-12-06T11:55:13Z</time><name>PT4183</name></trkpt>
<trkpt lat="51.793541" lon="03.910167"><ele>0.8</ele><time>2023-12-06T11:55:14Z</time><name>PT4184</name></trkpt>
<trkpt lat="51.793543" lon="03.910186"><ele>0.7</ele><time>2023-12-06T11:55:15Z</time><name>PT4185</name></trkpt>
<trkpt lat="51.793544" lon="03.910202"><ele>0.8</ele><time>2023-12-06T11:55:16Z</time><name>PT4186</name></trkpt>
<trkpt lat="51.793546" lon="03.910218"><ele>1.1</ele><time>2023-12-06T11:55:17Z</time><name>PT4187</name></trkpt>
<trkpt lat="51.793549" lon="03.910234"><ele>1.2</ele><time>2023-12-06T11:55:18Z</time><name>PT4188</name></trkpt>
<trkpt lat="51.793553" lon="03.910250"><ele>1.3</ele><time>2023-12-06T11:55:19Z</time><name>PT4189</name></trkpt>
<trkpt lat="51.793556" lon="03.910264"><ele>1.4</ele><time>2023-12-06T11:55:20Z</time><name>PT4190</name></trkpt>
<trkpt lat="51.793558" lon="03.910279"><ele>1.3</ele><time>2023-12-06T11:55:21Z</time><name>PT4191</name></trkpt>
<trkpt lat="51.793558" lon="03.910297"><ele>1.3</ele><time>2023-12-06T11:55:22Z</time><name>PT4192</name></trkpt>
<trkpt lat="51.793559" lon="03.910314"><ele>1.3</ele><time>2023-12-06T11:55:23Z</time><name>PT4193</name></trkpt>
<trkpt lat="51.793560" lon="03.910331"><ele>1.3</ele><time>2023-12-06T11:55:24Z</time><name>PT4194</name></trkpt>
<trkpt lat="51.793562" lon="03.910348"><ele>1.3</ele><time>2023-12-06T11:55:25Z</time><name>PT4195</name></trkpt>
<trkpt lat="51.793565" lon="03.910365"><ele>1.3</ele><time>2023-12-06T11:55:26Z</time><name>PT4196</name></trkpt>
<trkpt lat="51.793567" lon="03.910382"><ele>1.3</ele><time>2023-12-06T11:55:26Z</time><name>PT4197</name></trkpt>
<trkpt lat="51.793570" lon="03.910399"><ele>1.3</ele><time>2023-12-06T11:55:28Z</time><name>PT4198</name></trkpt>
<trkpt lat="51.793571" lon="03.910416"><ele>1.4</ele><time>2023-12-06T11:55:29Z</time><name>PT4199</name></trkpt>
<trkpt lat="51.793572" lon="03.910433"><ele>1.6</ele><time>2023-12-06T11:55:29Z</time><name>PT4200</name></trkpt>
<trkpt lat="51.793573" lon="03.910452"><ele>1.7</ele><time>2023-12-06T11:55:31Z</time><name>PT4201</name></trkpt>
<trkpt lat="51.793574" lon="03.910469"><ele>1.8</ele><time>2023-12-06T11:55:32Z</time><name>PT4202</name></trkpt>
<trkpt lat="51.793574" lon="03.910485"><ele>1.7</ele><time>2023-12-06T11:55:32Z</time><name>PT4203</name></trkpt>
<trkpt lat="51.793576" lon="03.910501"><ele>1.7</ele><time>2023-12-06T11:55:34Z</time><name>PT4204</name></trkpt>
<trkpt lat="51.793578" lon="03.910517"><ele>1.4</ele><time>2023-12-06T11:55:35Z</time><name>PT4205</name></trkpt>
<trkpt lat="51.793580" lon="03.910532"><ele>1.4</ele><time>2023-12-06T11:55:35Z</time><name>PT4206</name></trkpt>
<trkpt lat="51.793582" lon="03.910549"><ele>1.4</ele><time>2023-12-06T11:55:37Z</time><name>PT4207</name></trkpt>
<trkpt lat="51.793583" lon="03.910567"><ele>1.4</ele><time>2023-12-06T11:55:38Z</time><name>PT4208</name></trkpt>
<trkpt lat="51.793584" lon="03.910585"><ele>1.4</ele><time>2023-12-06T11:55:38Z</time><name>PT4209</name></trkpt>
<trkpt lat="51.793584" lon="03.910603"><ele>1.3</ele><time>2023-12-06T11:55:40Z</time><name>PT4210</name></trkpt>
<trkpt lat="51.793583" lon="03.910620"><ele>1</ele><time>2023-12-06T11:55:41Z</time><name>PT4211</name></trkpt>
<trkpt lat="51.793583" lon="03.910637"><ele>1</ele><time>2023-12-06T11:55:41Z</time><name>PT4212</name></trkpt>
<trkpt lat="51.793584" lon="03.910655"><ele>0.9</ele><time>2023-12-06T11:55:43Z</time><name>PT4213</name></trkpt>
<trkpt lat="51.793587" lon="03.910672"><ele>0.9</ele><time>2023-12-06T11:55:44Z</time><name>PT4214</name></trkpt>
<trkpt lat="51.793590" lon="03.910689"><ele>0.8</ele><time>2023-12-06T11:55:44Z</time><name>PT4215</name></trkpt>
<trkpt lat="51.793591" lon="03.910706"><ele>0.8</ele><time>2023-12-06T11:55:46Z</time><name>PT4216</name></trkpt>
<trkpt lat="51.793592" lon="03.910723"><ele>0.8</ele><time>2023-12-06T11:55:47Z</time><name>PT4217</name></trkpt>
<trkpt lat="51.793592" lon="03.910741"><ele>0.8</ele><time>2023-12-06T11:55:48Z</time><name>PT4218</name></trkpt>
<trkpt lat="51.793592" lon="03.910760"><ele>0.7</ele><time>2023-12-06T11:55:49Z</time><name>PT4219</name></trkpt>
<trkpt lat="51.793591" lon="03.910777"><ele>0.8</ele><time>2023-12-06T11:55:50Z</time><name>PT4220</name></trkpt>
<trkpt lat="51.793591" lon="03.910793"><ele>0.9</ele><time>2023-12-06T11:55:50Z</time><name>PT4221</name></trkpt>
<trkpt lat="51.793592" lon="03.910810"><ele>1.4</ele><time>2023-12-06T11:55:52Z</time><name>PT4222</name></trkpt>
<trkpt lat="51.793594" lon="03.910827"><ele>1.8</ele><time>2023-12-06T11:55:53Z</time><name>PT4223</name></trkpt>
<trkpt lat="51.793596" lon="03.910841"><ele>2</ele><time>2023-12-06T11:55:53Z</time><name>PT4224</name></trkpt>
<trkpt lat="51.793596" lon="03.910857"><ele>2.2</ele><time>2023-12-06T11:55:55Z</time><name>PT4225</name></trkpt>
<trkpt lat="51.793594" lon="03.910874"><ele>2.2</ele><time>2023-12-06T11:55:56Z</time><name>PT4226</name></trkpt>
<trkpt lat="51.793593" lon="03.910894"><ele>2</ele><time>2023-12-06T11:55:57Z</time><name>PT4227</name></trkpt>
<trkpt lat="51.793592" lon="03.910914"><ele>1.8</ele><time>2023-12-06T11:55:58Z</time><name>PT4228</name></trkpt>
<trkpt lat="51.793592" lon="03.910931"><ele>1.7</ele><time>2023-12-06T11:55:59Z</time><name>PT4229</name></trkpt>
<trkpt lat="51.793593" lon="03.910948"><ele>1.3</ele><time>2023-12-06T11:56:00Z</time><name>PT4230</name></trkpt>
<trkpt lat="51.793594" lon="03.910966"><ele>1.3</ele><time>2023-12-06T11:56:01Z</time><name>PT4231</name></trkpt>
<trkpt lat="51.793594" lon="03.910981"><ele>1.2</ele><time>2023-12-06T11:56:02Z</time><name>PT4232</name></trkpt>
<trkpt lat="51.793593" lon="03.910996"><ele>1</ele><time>2023-12-06T11:56:03Z</time><name>PT4233</name></trkpt>
<trkpt lat="51.793591" lon="03.911015"><ele>1.1</ele><time>2023-12-06T11:56:04Z</time><name>PT4234</name></trkpt>
<trkpt lat="51.793588" lon="03.911031"><ele>1.1</ele><time>2023-12-06T11:56:05Z</time><name>PT4235</name></trkpt>
<trkpt lat="51.793586" lon="03.911048"><ele>1</ele><time>2023-12-06T11:56:05Z</time><name>PT4236</name></trkpt>
<trkpt lat="51.793585" lon="03.911064"><ele>1</ele><time>2023-12-06T11:56:07Z</time><name>PT4237</name></trkpt>
<trkpt lat="51.793586" lon="03.911079"><ele>0.9</ele><time>2023-12-06T11:56:08Z</time><name>PT4238</name></trkpt>
<trkpt lat="51.793587" lon="03.911093"><ele>0.8</ele><time>2023-12-06T11:56:08Z</time><name>PT4239</name></trkpt>
<trkpt lat="51.793586" lon="03.911107"><ele>0.8</ele><time>2023-12-06T11:56:10Z</time><name>PT4240</name></trkpt>
<trkpt lat="51.793585" lon="03.911123"><ele>0.6</ele><time>2023-12-06T11:56:11Z</time><name>PT4241</name></trkpt>
<trkpt lat="51.793583" lon="03.911139"><ele>0.5</ele><time>2023-12-06T11:56:11Z</time><name>PT4242</name></trkpt>
<trkpt lat="51.793581" lon="03.911156"><ele>0.4</ele><time>2023-12-06T11:56:13Z</time><name>PT4243</name></trkpt>
<trkpt lat="51.793578" lon="03.911170"><ele>0.3</ele><time>2023-12-06T11:56:14Z</time><name>PT4244</name></trkpt>
<trkpt lat="51.793577" lon="03.911186"><ele>0.3</ele><time>2023-12-06T11:56:14Z</time><name>PT4245</name></trkpt>
<trkpt lat="51.793577" lon="03.911204"><ele>0.3</ele><time>2023-12-06T11:56:16Z</time><name>PT4246</name></trkpt>
<trkpt lat="51.793577" lon="03.911222"><ele>0.4</ele><time>2023-12-06T11:56:17Z</time><name>PT4247</name></trkpt>
<trkpt lat="51.793577" lon="03.911239"><ele>0.4</ele><time>2023-12-06T11:56:18Z</time><name>PT4248</name></trkpt>
<trkpt lat="51.793577" lon="03.911256"><ele>0.5</ele><time>2023-12-06T11:56:19Z</time><name>PT4249</name></trkpt>
<trkpt lat="51.793577" lon="03.911272"><ele>0.6</ele><time>2023-12-06T11:56:20Z</time><name>PT4250</name></trkpt>
<trkpt lat="51.793575" lon="03.911289"><ele>0.7</ele><time>2023-12-06T11:56:20Z</time><name>PT4251</name></trkpt>
<trkpt lat="51.793573" lon="03.911307"><ele>0.5</ele><time>2023-12-06T11:56:22Z</time><name>PT4252</name></trkpt>
<trkpt lat="51.793571" lon="03.911323"><ele>0.6</ele><time>2023-12-06T11:56:23Z</time><name>PT4253</name></trkpt>
<trkpt lat="51.793571" lon="03.911338"><ele>0.8</ele><time>2023-12-06T11:56:23Z</time><name>PT4254</name></trkpt>
<trkpt lat="51.793572" lon="03.911354"><ele>0.8</ele><time>2023-12-06T11:56:25Z</time><name>PT4255</name></trkpt>
<trkpt lat="51.793574" lon="03.911372"><ele>0.7</ele><time>2023-12-06T11:56:26Z</time><name>PT4256</name></trkpt>
<trkpt lat="51.793575" lon="03.911389"><ele>0.8</ele><time>2023-12-06T11:56:26Z</time><name>PT4257</name></trkpt>
<trkpt lat="51.793576" lon="03.911406"><ele>0.8</ele><time>2023-12-06T11:56:28Z</time><name>PT4258</name></trkpt>
<trkpt lat="51.793576" lon="03.911420"><ele>0.7</ele><time>2023-12-06T11:56:29Z</time><name>PT4259</name></trkpt>
<trkpt lat="51.793575" lon="03.911436"><ele>0.6</ele><time>2023-12-06T11:56:29Z</time><name>PT4260</name></trkpt>
<trkpt lat="51.793575" lon="03.911453"><ele>0.5</ele><time>2023-12-06T11:56:31Z</time><name>PT4261</name></trkpt>
<trkpt lat="51.793578" lon="03.911468"><ele>0.3</ele><time>2023-12-06T11:56:32Z</time><name>PT4262</name></trkpt>
<trkpt lat="51.793581" lon="03.911484"><ele>0.3</ele><time>2023-12-06T11:56:33Z</time><name>PT4263</name></trkpt>
<trkpt lat="51.793583" lon="03.911500"><ele>0.1</ele><time>2023-12-06T11:56:34Z</time><name>PT4264</name></trkpt>
<trkpt lat="51.793583" lon="03.911516"><ele>0.3</ele><time>2023-12-06T11:56:35Z</time><name>PT4265</name></trkpt>
<trkpt lat="51.793583" lon="03.911533"><ele>0.3</ele><time>2023-12-06T11:56:36Z</time><name>PT4266</name></trkpt>
<trkpt lat="51.793584" lon="03.911550"><ele>0.4</ele><time>2023-12-06T11:56:37Z</time><name>PT4267</name></trkpt>
<trkpt lat="51.793585" lon="03.911567"><ele>0.5</ele><time>2023-12-06T11:56:38Z</time><name>PT4268</name></trkpt>
<trkpt lat="51.793586" lon="03.911584"><ele>0.8</ele><time>2023-12-06T11:56:39Z</time><name>PT4269</name></trkpt>
<trkpt lat="51.793589" lon="03.911598"><ele>0.8</ele><time>2023-12-06T11:56:40Z</time><name>PT4270</name></trkpt>
<trkpt lat="51.793593" lon="03.911612"><ele>0.6</ele><time>2023-12-06T11:56:41Z</time><name>PT4271</name></trkpt>
<trkpt lat="51.793598" lon="03.911627"><ele>0.6</ele><time>2023-12-06T11:56:42Z</time><name>PT4272</name></trkpt>
<trkpt lat="51.793602" lon="03.911640"><ele>0.6</ele><time>2023-12-06T11:56:43Z</time><name>PT4273</name></trkpt>
<trkpt lat="51.793605" lon="03.911654"><ele>0.7</ele><time>2023-12-06T11:56:44Z</time><name>PT4274</name></trkpt>
<trkpt lat="51.793609" lon="03.911672"><ele>0.8</ele><time>2023-12-06T11:56:45Z</time><name>PT4275</name></trkpt>
<trkpt lat="51.793614" lon="03.911686"><ele>0.6</ele><time>2023-12-06T11:56:46Z</time><name>PT4276</name></trkpt>
<trkpt lat="51.793618" lon="03.911702"><ele>0.3</ele><time>2023-12-06T11:56:47Z</time><name>PT4277</name></trkpt>
<trkpt lat="51.793622" lon="03.911719"><ele>0.1</ele><time>2023-12-06T11:56:47Z</time><name>PT4278</name></trkpt>
<trkpt lat="51.793627" lon="03.911735"><ele>0</ele><time>2023-12-06T11:56:49Z</time><name>PT4279</name></trkpt>
<trkpt lat="51.793634" lon="03.911750"><ele>0</ele><time>2023-12-06T11:56:50Z</time><name>PT4280</name></trkpt>
<trkpt lat="51.793640" lon="03.911765"><ele>0</ele><time>2023-12-06T11:56:50Z</time><name>PT4281</name></trkpt>
<trkpt lat="51.793645" lon="03.911780"><ele>0</ele><time>2023-12-06T11:56:52Z</time><name>PT4282</name></trkpt>
<trkpt lat="51.793649" lon="03.911795"><ele>0.1</ele><time>2023-12-06T11:56:53Z</time><name>PT4283</name></trkpt>
<trkpt lat="51.793652" lon="03.911809"><ele>0.1</ele><time>2023-12-06T11:56:53Z</time><name>PT4284</name></trkpt>
<trkpt lat="51.793657" lon="03.911823"><ele>0.1</ele><time>2023-12-06T11:56:55Z</time><name>PT4285</name></trkpt>
<trkpt lat="51.793662" lon="03.911837"><ele>0</ele><time>2023-12-06T11:56:56Z</time><name>PT4286</name></trkpt>
<trkpt lat="51.793667" lon="03.911851"><ele>0</ele><time>2023-12-06T11:56:56Z</time><name>PT4287</name></trkpt>
<trkpt lat="51.793672" lon="03.911864"><ele>0.2</ele><time>2023-12-06T11:56:58Z</time><name>PT4288</name></trkpt>
<trkpt lat="51.793677" lon="03.911878"><ele>0</ele><time>2023-12-06T11:56:59Z</time><name>PT4289</name></trkpt>
<trkpt lat="51.793683" lon="03.911890"><ele>0</ele><time>2023-12-06T11:56:59Z</time><name>PT4290</name></trkpt>
<trkpt lat="51.793687" lon="03.911904"><ele>0</ele><time>2023-12-06T11:57:01Z</time><name>PT4291</name></trkpt>
<trkpt lat="51.793692" lon="03.911917"><ele>0</ele><time>2023-12-06T11:57:02Z</time><name>PT4292</name></trkpt>
<trkpt lat="51.793699" lon="03.911929"><ele>0</ele><time>2023-12-06T11:57:02Z</time><name>PT4293</name></trkpt>
<trkpt lat="51.793706" lon="03.911938"><ele>0.2</ele><time>2023-12-06T11:57:04Z</time><name>PT4294</name></trkpt>
<trkpt lat="51.793712" lon="03.911944"><ele>0.2</ele><time>2023-12-06T11:57:05Z</time><name>PT4295</name></trkpt>
<trkpt lat="51.793720" lon="03.911951"><ele>0.2</ele><time>2023-12-06T11:57:05Z</time><name>PT4296</name></trkpt>
<trkpt lat="51.793728" lon="03.911961"><ele>0.4</ele><time>2023-12-06T11:57:07Z</time><name>PT4297</name></trkpt>
<trkpt lat="51.793734" lon="03.911973"><ele>0.3</ele><time>2023-12-06T11:57:08Z</time><name>PT4298</name></trkpt>
<trkpt lat="51.793738" lon="03.911985"><ele>0</ele><time>2023-12-06T11:57:08Z</time><name>PT4299</name></trkpt>
<trkpt lat="51.793741" lon="03.911996"><ele>0</ele><time>2023-12-06T11:57:10Z</time><name>PT4300</name></trkpt>
<trkpt lat="51.793746" lon="03.912004"><ele>0.1</ele><time>2023-12-06T11:57:11Z</time><name>PT4301</name></trkpt>
<trkpt lat="51.793753" lon="03.912009"><ele>0</ele><time>2023-12-06T11:57:11Z</time><name>PT4302</name></trkpt>
<trkpt lat="51.793763" lon="03.912007"><ele>0.5</ele><time>2023-12-06T11:57:13Z</time><name>PT4303</name></trkpt>
<trkpt lat="51.793772" lon="03.912004"><ele>-1.3</ele><time>2023-12-06T11:57:14Z</time><name>PT4304</name></trkpt>
<trkpt lat="51.793781" lon="03.912002"><ele>-1.6</ele><time>2023-12-06T11:57:14Z</time><name>PT4305</name></trkpt>
<trkpt lat="51.793790" lon="03.912001"><ele>-1.8</ele><time>2023-12-06T11:57:16Z</time><name>PT4306</name></trkpt>
<trkpt lat="51.793799" lon="03.911997"><ele>-1.6</ele><time>2023-12-06T11:57:17Z</time><name>PT4307</name></trkpt>
<trkpt lat="51.793806" lon="03.911993"><ele>-1.4</ele><time>2023-12-06T11:57:17Z</time><name>PT4308</name></trkpt>
<trkpt lat="51.793813" lon="03.911985"><ele>-1.1</ele><time>2023-12-06T11:57:19Z</time><name>PT4309</name></trkpt>
<trkpt lat="51.793819" lon="03.911975"><ele>0.9</ele><time>2023-12-06T11:57:20Z</time><name>PT4310</name></trkpt>
<trkpt lat="51.793826" lon="03.911966"><ele>0.7</ele><time>2023-12-06T11:57:20Z</time><name>PT4311</name></trkpt>
<trkpt lat="51.793832" lon="03.911956"><ele>0.4</ele><time>2023-12-06T11:57:22Z</time><name>PT4312</name></trkpt>
<trkpt lat="51.793838" lon="03.911946"><ele>0.1</ele><time>2023-12-06T11:57:23Z</time><name>PT4313</name></trkpt>
<trkpt lat="51.793845" lon="03.911935"><ele>0.2</ele><time>2023-12-06T11:57:23Z</time><name>PT4314</name></trkpt>
<trkpt lat="51.793852" lon="03.911925"><ele>0.2</ele><time>2023-12-06T11:57:25Z</time><name>PT4315</name></trkpt>
<trkpt lat="51.793858" lon="03.911913"><ele>0.2</ele><time>2023-12-06T11:57:26Z</time><name>PT4316</name></trkpt>
<trkpt lat="51.793864" lon="03.911899"><ele>0.2</ele><time>2023-12-06T11:57:26Z</time><name>PT4317</name></trkpt>
<trkpt lat="51.793870" lon="03.911885"><ele>0</ele><time>2023-12-06T11:57:28Z</time><name>PT4318</name></trkpt>
<trkpt lat="51.793876" lon="03.911873"><ele>0.2</ele><time>2023-12-06T11:57:29Z</time><name>PT4319</name></trkpt>
<trkpt lat="51.793883" lon="03.911861"><ele>0.2</ele><time>2023-12-06T11:57:29Z</time><name>PT4320</name></trkpt>
<trkpt lat="51.793890" lon="03.911847"><ele>0.4</ele><time>2023-12-06T11:57:31Z</time><name>PT4321</name></trkpt>
<trkpt lat="51.793896" lon="03.911835"><ele>0.3</ele><time>2023-12-06T11:57:32Z</time><name>PT4322</name></trkpt>
<trkpt lat="51.793903" lon="03.911824"><ele>0.3</ele><time>2023-12-06T11:57:32Z</time><name>PT4323</name></trkpt>
<trkpt lat="51.793911" lon="03.911811"><ele>0.3</ele><time>2023-12-06T11:57:34Z</time><name>PT4324</name></trkpt>
<trkpt lat="51.793919" lon="03.911799"><ele>0.3</ele><time>2023-12-06T11:57:35Z</time><name>PT4325</name></trkpt>
<trkpt lat="51.793927" lon="03.911785"><ele>0.1</ele><time>2023-12-06T11:57:35Z</time><name>PT4326</name></trkpt>
<trkpt lat="51.793934" lon="03.911771"><ele>0.2</ele><time>2023-12-06T11:57:37Z</time><name>PT4327</name></trkpt>
<trkpt lat="51.793942" lon="03.911758"><ele>0.2</ele><time>2023-12-06T11:57:38Z</time><name>PT4328</name></trkpt>
<trkpt lat="51.793949" lon="03.911745"><ele>0.1</ele><time>2023-12-06T11:57:38Z</time><name>PT4329</name></trkpt>
<trkpt lat="51.793957" lon="03.911732"><ele>0</ele><time>2023-12-06T11:57:40Z</time><name>PT4330</name></trkpt>
<trkpt lat="51.793962" lon="03.911719"><ele>0.1</ele><time>2023-12-06T11:57:41Z</time><name>PT4331</name></trkpt>
<trkpt lat="51.793968" lon="03.911705"><ele>0.1</ele><time>2023-12-06T11:57:42Z</time><name>PT4332</name></trkpt>
<trkpt lat="51.793973" lon="03.911690"><ele>0</ele><time>2023-12-06T11:57:43Z</time><name>PT4333</name></trkpt>
<trkpt lat="51.793978" lon="03.911676"><ele>0.1</ele><time>2023-12-06T11:57:44Z</time><name>PT4334</name></trkpt>
<trkpt lat="51.793984" lon="03.911663"><ele>0.1</ele><time>2023-12-06T11:57:44Z</time><name>PT4335</name></trkpt>
<trkpt lat="51.793993" lon="03.911651"><ele>0.2</ele><time>2023-12-06T11:57:46Z</time><name>PT4336</name></trkpt>
<trkpt lat="51.794000" lon="03.911640"><ele>0.2</ele><time>2023-12-06T11:57:47Z</time><name>PT4337</name></trkpt>
<trkpt lat="51.794007" lon="03.911627"><ele>0.2</ele><time>2023-12-06T11:57:47Z</time><name>PT4338</name></trkpt>
<trkpt lat="51.794013" lon="03.911611"><ele>0.3</ele><time>2023-12-06T11:57:49Z</time><name>PT4339</name></trkpt>
<trkpt lat="51.794017" lon="03.911595"><ele>0.3</ele><time>2023-12-06T11:57:50Z</time><name>PT4340</name></trkpt>
<trkpt lat="51.794022" lon="03.911583"><ele>0.1</ele><time>2023-12-06T11:57:50Z</time><name>PT4341</name></trkpt>
<trkpt lat="51.794028" lon="03.911572"><ele>0.1</ele><time>2023-12-06T11:57:52Z</time><name>PT4342</name></trkpt>
<trkpt lat="51.794033" lon="03.911557"><ele>0</ele><time>2023-12-06T11:57:53Z</time><name>PT4343</name></trkpt>
<trkpt lat="51.794038" lon="03.911542"><ele>0.2</ele><time>2023-12-06T11:57:53Z</time><name>PT4344</name></trkpt>
<trkpt lat="51.794044" lon="03.911529"><ele>0.2</ele><time>2023-12-06T11:57:55Z</time><name>PT4345</name></trkpt>
<trkpt lat="51.794050" lon="03.911516"><ele>0</ele><time>2023-12-06T11:57:56Z</time><name>PT4346</name></trkpt>
<trkpt lat="51.794057" lon="03.911504"><ele>0</ele><time>2023-12-06T11:57:56Z</time><name>PT4347</name></trkpt>
<trkpt lat="51.794064" lon="03.911494"><ele>0</ele><time>2023-12-06T11:57:58Z</time><name>PT4348</name></trkpt>
<trkpt lat="51.794071" lon="03.911482"><ele>0.1</ele><time>2023-12-06T11:57:59Z</time><name>PT4349</name></trkpt>
<trkpt lat="51.794078" lon="03.911469"><ele>0.3</ele><time>2023-12-06T11:57:59Z</time><name>PT4350</name></trkpt>
<trkpt lat="51.794085" lon="03.911457"><ele>0.2</ele><time>2023-12-06T11:58:01Z</time><name>PT4351</name></trkpt>
<trkpt lat="51.794092" lon="03.911444"><ele>0.2</ele><time>2023-12-06T11:58:02Z</time><name>PT4352</name></trkpt>
<trkpt lat="51.794098" lon="03.911431"><ele>0.3</ele><time>2023-12-06T11:58:02Z</time><name>PT4353</name></trkpt>
<trkpt lat="51.794102" lon="03.911419"><ele>0.3</ele><time>2023-12-06T11:58:04Z</time><name>PT4354</name></trkpt>
<trkpt lat="51.794108" lon="03.911409"><ele>0.3</ele><time>2023-12-06T11:58:05Z</time><name>PT4355</name></trkpt>
<trkpt lat="51.794117" lon="03.911399"><ele>0.3</ele><time>2023-12-06T11:58:05Z</time><name>PT4356</name></trkpt>
<trkpt lat="51.794125" lon="03.911389"><ele>0.3</ele><time>2023-12-06T11:58:07Z</time><name>PT4357</name></trkpt>
<trkpt lat="51.794131" lon="03.911378"><ele>0.3</ele><time>2023-12-06T11:58:08Z</time><name>PT4358</name></trkpt>
<trkpt lat="51.794136" lon="03.911364"><ele>0.3</ele><time>2023-12-06T11:58:08Z</time><name>PT4359</name></trkpt>
<trkpt lat="51.794140" lon="03.911350"><ele>0.3</ele><time>2023-12-06T11:58:10Z</time><name>PT4360</name></trkpt>
<trkpt lat="51.794145" lon="03.911336"><ele>0.2</ele><time>2023-12-06T11:58:11Z</time><name>PT4361</name></trkpt>
<trkpt lat="51.794150" lon="03.911325"><ele>0.3</ele><time>2023-12-06T11:58:12Z</time><name>PT4362</name></trkpt>
<trkpt lat="51.794157" lon="03.911313"><ele>0.3</ele><time>2023-12-06T11:58:13Z</time><name>PT4363</name></trkpt>
<trkpt lat="51.794165" lon="03.911303"><ele>0.1</ele><time>2023-12-06T11:58:14Z</time><name>PT4364</name></trkpt>
<trkpt lat="51.794172" lon="03.911291"><ele>0.3</ele><time>2023-12-06T11:58:15Z</time><name>PT4365</name></trkpt>
<trkpt lat="51.794179" lon="03.911279"><ele>0.3</ele><time>2023-12-06T11:58:16Z</time><name>PT4366</name></trkpt>
<trkpt lat="51.794183" lon="03.911264"><ele>0.1</ele><time>2023-12-06T11:58:17Z</time><name>PT4367</name></trkpt>
<trkpt lat="51.794189" lon="03.911248"><ele>0.1</ele><time>2023-12-06T11:58:18Z</time><name>PT4368</name></trkpt>
<trkpt lat="51.794194" lon="03.911234"><ele>0.2</ele><time>2023-12-06T11:58:19Z</time><name>PT4369</name></trkpt>
<trkpt lat="51.794202" lon="03.911221"><ele>0.1</ele><time>2023-12-06T11:58:20Z</time><name>PT4370</name></trkpt>
<trkpt lat="51.794210" lon="03.911209"><ele>0.1</ele><time>2023-12-06T11:58:21Z</time><name>PT4371</name></trkpt>
<trkpt lat="51.794219" lon="03.911198"><ele>0</ele><time>2023-12-06T11:58:22Z</time><name>PT4372</name></trkpt>
<trkpt lat="51.794224" lon="03.911187"><ele>0.2</ele><time>2023-12-06T11:58:23Z</time><name>PT4373</name></trkpt>
<trkpt lat="51.794231" lon="03.911174"><ele>0.2</ele><time>2023-12-06T11:58:24Z</time><name>PT4374</name></trkpt>
<trkpt lat="51.794236" lon="03.911160"><ele>0.3</ele><time>2023-12-06T11:58:25Z</time><name>PT4375</name></trkpt>
<trkpt lat="51.794240" lon="03.911147"><ele>0.4</ele><time>2023-12-06T11:58:26Z</time><name>PT4376</name></trkpt>
<trkpt lat="51.794245" lon="03.911133"><ele>0.3</ele><time>2023-12-06T11:58:27Z</time><name>PT4377</name></trkpt>
<trkpt lat="51.794251" lon="03.911122"><ele>0.3</ele><time>2023-12-06T11:58:28Z</time><name>PT4378</name></trkpt>
<trkpt lat="51.794258" lon="03.911113"><ele>0.3</ele><time>2023-12-06T11:58:29Z</time><name>PT4379</name></trkpt>
<trkpt lat="51.794265" lon="03.911102"><ele>0.1</ele><time>2023-12-06T11:58:30Z</time><name>PT4380</name></trkpt>
<trkpt lat="51.794270" lon="03.911090"><ele>0.2</ele><time>2023-12-06T11:58:31Z</time><name>PT4381</name></trkpt>
<trkpt lat="51.794275" lon="03.911075"><ele>0.3</ele><time>2023-12-06T11:58:32Z</time><name>PT4382</name></trkpt>
<trkpt lat="51.794278" lon="03.911061"><ele>0.4</ele><time>2023-12-06T11:58:32Z</time><name>PT4383</name></trkpt>
<trkpt lat="51.794283" lon="03.911050"><ele>0.4</ele><time>2023-12-06T11:58:34Z</time><name>PT4384</name></trkpt>
<trkpt lat="51.794290" lon="03.911039"><ele>0.5</ele><time>2023-12-06T11:58:35Z</time><name>PT4385</name></trkpt>
<trkpt lat="51.794299" lon="03.911029"><ele>0.3</ele><time>2023-12-06T11:58:35Z</time><name>PT4386</name></trkpt>
<trkpt lat="51.794306" lon="03.911018"><ele>0.3</ele><time>2023-12-06T11:58:37Z</time><name>PT4387</name></trkpt>
<trkpt lat="51.794311" lon="03.911003"><ele>0.1</ele><time>2023-12-06T11:58:38Z</time><name>PT4388</name></trkpt>
<trkpt lat="51.794316" lon="03.910989"><ele>0.1</ele><time>2023-12-06T11:58:38Z</time><name>PT4389</name></trkpt>
<trkpt lat="51.794322" lon="03.910977"><ele>0</ele><time>2023-12-06T11:58:40Z</time><name>PT4390</name></trkpt>
<trkpt lat="51.794329" lon="03.910964"><ele>0.1</ele><time>2023-12-06T11:58:41Z</time><name>PT4391</name></trkpt>
<trkpt lat="51.794337" lon="03.910952"><ele>0.1</ele><time>2023-12-06T11:58:41Z</time><name>PT4392</name></trkpt>
<trkpt lat="51.794344" lon="03.910939"><ele>0.2</ele><time>2023-12-06T11:58:43Z</time><name>PT4393</name></trkpt>
<trkpt lat="51.794351" lon="03.910922"><ele>0.3</ele><time>2023-12-06T11:58:44Z</time><name>PT4394</name></trkpt>
<trkpt lat="51.794358" lon="03.910908"><ele>0.3</ele><time>2023-12-06T11:58:44Z</time><name>PT4395</name></trkpt>
<trkpt lat="51.794365" lon="03.910896"><ele>0.3</ele><time>2023-12-06T11:58:46Z</time><name>PT4396</name></trkpt>
<trkpt lat="51.794372" lon="03.910883"><ele>0.4</ele><time>2023-12-06T11:58:47Z</time><name>PT4397</name></trkpt>
<trkpt lat="51.794378" lon="03.910870"><ele>0.4</ele><time>2023-12-06T11:58:47Z</time><name>PT4398</name></trkpt>
<trkpt lat="51.794383" lon="03.910855"><ele>0.3</ele><time>2023-12-06T11:58:49Z</time><name>PT4399</name></trkpt>
<trkpt lat="51.794389" lon="03.910840"><ele>0.3</ele><time>2023-12-06T11:58:50Z</time><name>PT4400</name></trkpt>
<trkpt lat="51.794396" lon="03.910827"><ele>0.3</ele><time>2023-12-06T11:58:50Z</time><name>PT4401</name></trkpt>
<trkpt lat="51.794403" lon="03.910815"><ele>0.2</ele><time>2023-12-06T11:58:52Z</time><name>PT4402</name></trkpt>
<trkpt lat="51.794411" lon="03.910803"><ele>0.3</ele><time>2023-12-06T11:58:53Z</time><name>PT4403</name></trkpt>
<trkpt lat="51.794418" lon="03.910791"><ele>0.2</ele><time>2023-12-06T11:58:53Z</time><name>PT4404</name></trkpt>
<trkpt lat="51.794424" lon="03.910779"><ele>0.3</ele><time>2023-12-06T11:58:55Z</time><name>PT4405</name></trkpt>
<trkpt lat="51.794430" lon="03.910765"><ele>0.5</ele><time>2023-12-06T11:58:56Z</time><name>PT4406</name></trkpt>
<trkpt lat="51.794435" lon="03.910751"><ele>0.7</ele><time>2023-12-06T11:58:56Z</time><name>PT4407</name></trkpt>
<trkpt lat="51.794441" lon="03.910738"><ele>0.7</ele><time>2023-12-06T11:58:58Z</time><name>PT4408</name></trkpt>
<trkpt lat="51.794448" lon="03.910726"><ele>0.8</ele><time>2023-12-06T11:58:59Z</time><name>PT4409</name></trkpt>
<trkpt lat="51.794454" lon="03.910714"><ele>0.8</ele><time>2023-12-06T11:58:59Z</time><name>PT4410</name></trkpt>
<trkpt lat="51.794462" lon="03.910702"><ele>0.6</ele><time>2023-12-06T11:59:01Z</time><name>PT4411</name></trkpt>
<trkpt lat="51.794469" lon="03.910689"><ele>0.4</ele><time>2023-12-06T11:59:02Z</time><name>PT4412</name></trkpt>
<trkpt lat="51.794475" lon="03.910677"><ele>0.5</ele><time>2023-12-06T11:59:02Z</time><name>PT4413</name></trkpt>
<trkpt lat="51.794481" lon="03.910665"><ele>0.4</ele><time>2023-12-06T11:59:04Z</time><name>PT4414</name></trkpt>
<trkpt lat="51.794486" lon="03.910655"><ele>0.3</ele><time>2023-12-06T11:59:05Z</time><name>PT4415</name></trkpt>
<trkpt lat="51.794493" lon="03.910645"><ele>0.3</ele><time>2023-12-06T11:59:05Z</time><name>PT4416</name></trkpt>
<trkpt lat="51.794497" lon="03.910634"><ele>0.5</ele><time>2023-12-06T11:59:07Z</time><name>PT4417</name></trkpt>
<trkpt lat="51.794501" lon="03.910620"><ele>0.6</ele><time>2023-12-06T11:59:08Z</time><name>PT4418</name></trkpt>
<trkpt lat="51.794506" lon="03.910607"><ele>0.5</ele><time>2023-12-06T11:59:08Z</time><name>PT4419</name></trkpt>
<trkpt lat="51.794511" lon="03.910596"><ele>0.5</ele><time>2023-12-06T11:59:10Z</time><name>PT4420</name></trkpt>
<trkpt lat="51.794516" lon="03.910584"><ele>0.7</ele><time>2023-12-06T11:59:11Z</time><name>PT4421</name></trkpt>
<trkpt lat="51.794523" lon="03.910570"><ele>0.7</ele><time>2023-12-06T11:59:11Z</time><name>PT4422</name></trkpt>
<trkpt lat="51.794530" lon="03.910560"><ele>0.8</ele><time>2023-12-06T11:59:13Z</time><name>PT4423</name></trkpt>
<trkpt lat="51.794535" lon="03.910551"><ele>0.8</ele><time>2023-12-06T11:59:14Z</time><name>PT4424</name></trkpt>
<trkpt lat="51.794539" lon="03.910539"><ele>0.8</ele><time>2023-12-06T11:59:14Z</time><name>PT4425</name></trkpt>
<trkpt lat="51.794543" lon="03.910529"><ele>0.7</ele><time>2023-12-06T11:59:16Z</time><name>PT4426</name></trkpt>
<trkpt lat="51.794549" lon="03.910521"><ele>0.6</ele><time>2023-12-06T11:59:17Z</time><name>PT4427</name></trkpt>
<trkpt lat="51.794556" lon="03.910511"><ele>0.6</ele><time>2023-12-06T11:59:17Z</time><name>PT4428</name></trkpt>
<trkpt lat="51.794562" lon="03.910500"><ele>0.6</ele><time>2023-12-06T11:59:19Z</time><name>PT4429</name></trkpt>
<trkpt lat="51.794566" lon="03.910485"><ele>0.7</ele><time>2023-12-06T11:59:20Z</time><name>PT4430</name></trkpt>
<trkpt lat="51.794572" lon="03.910469"><ele>0.7</ele><time>2023-12-06T11:59:21Z</time><name>PT4431</name></trkpt>
<trkpt lat="51.794577" lon="03.910454"><ele>0.6</ele><time>2023-12-06T11:59:22Z</time><name>PT4432</name></trkpt>
<trkpt lat="51.794584" lon="03.910442"><ele>0.7</ele><time>2023-12-06T11:59:23Z</time><name>PT4433</name></trkpt>
<trkpt lat="51.794592" lon="03.910430"><ele>0.6</ele><time>2023-12-06T11:59:24Z</time><name>PT4434</name></trkpt>
<trkpt lat="51.794600" lon="03.910419"><ele>0.6</ele><time>2023-12-06T11:59:25Z</time><name>PT4435</name></trkpt>
<trkpt lat="51.794608" lon="03.910408"><ele>0.7</ele><time>2023-12-06T11:59:26Z</time><name>PT4436</name></trkpt>
<trkpt lat="51.794615" lon="03.910397"><ele>0.6</ele><time>2023-12-06T11:59:27Z</time><name>PT4437</name></trkpt>
<trkpt lat="51.794621" lon="03.910385"><ele>0.5</ele><time>2023-12-06T11:59:28Z</time><name>PT4438</name></trkpt>
<trkpt lat="51.794627" lon="03.910373"><ele>0.6</ele><time>2023-12-06T11:59:29Z</time><name>PT4439</name></trkpt>
<trkpt lat="51.794632" lon="03.910360"><ele>0.6</ele><time>2023-12-06T11:59:30Z</time><name>PT4440</name></trkpt>
<trkpt lat="51.794638" lon="03.910346"><ele>0.6</ele><time>2023-12-06T11:59:31Z</time><name>PT4441</name></trkpt>
<trkpt lat="51.794644" lon="03.910333"><ele>0.6</ele><time>2023-12-06T11:59:32Z</time><name>PT4442</name></trkpt>
<trkpt lat="51.794651" lon="03.910322"><ele>0.7</ele><time>2023-12-06T11:59:32Z</time><name>PT4443</name></trkpt>
<trkpt lat="51.794658" lon="03.910309"><ele>0.7</ele><time>2023-12-06T11:59:34Z</time><name>PT4444</name></trkpt>
<trkpt lat="51.794664" lon="03.910296"><ele>0.6</ele><time>2023-12-06T11:59:35Z</time><name>PT4445</name></trkpt>
<trkpt lat="51.794670" lon="03.910285"><ele>0.6</ele><time>2023-12-06T11:59:36Z</time><name>PT4446</name></trkpt>
<trkpt lat="51.794678" lon="03.910275"><ele>0.7</ele><time>2023-12-06T11:59:37Z</time><name>PT4447</name></trkpt>
<trkpt lat="51.794685" lon="03.910265"><ele>0.8</ele><time>2023-12-06T11:59:38Z</time><name>PT4448</name></trkpt>
<trkpt lat="51.794694" lon="03.910257"><ele>0.7</ele><time>2023-12-06T11:59:39Z</time><name>PT4449</name></trkpt>
<trkpt lat="51.794702" lon="03.910246"><ele>0.8</ele><time>2023-12-06T11:59:40Z</time><name>PT4450</name></trkpt>
<trkpt lat="51.794708" lon="03.910235"><ele>0.8</ele><time>2023-12-06T11:59:41Z</time><name>PT4451</name></trkpt>
<trkpt lat="51.794716" lon="03.910226"><ele>0.7</ele><time>2023-12-06T11:59:41Z</time><name>PT4452</name></trkpt>
<trkpt lat="51.794724" lon="03.910218"><ele>0.4</ele><time>2023-12-06T11:59:43Z</time><name>PT4453</name></trkpt>
<trkpt lat="51.794732" lon="03.910216"><ele>0.3</ele><time>2023-12-06T11:59:44Z</time><name>PT4454</name></trkpt>
<trkpt lat="51.794737" lon="03.910214"><ele>0.2</ele><time>2023-12-06T11:59:44Z</time><name>PT4455</name></trkpt>
<trkpt lat="51.794744" lon="03.910213"><ele>0</ele><time>2023-12-06T11:59:46Z</time><name>PT4456</name></trkpt>
<trkpt lat="51.794752" lon="03.910207"><ele>0</ele><time>2023-12-06T11:59:47Z</time><name>PT4457</name></trkpt>
<trkpt lat="51.794760" lon="03.910198"><ele>0</ele><time>2023-12-06T11:59:47Z</time><name>PT4458</name></trkpt>
<trkpt lat="51.794769" lon="03.910189"><ele>0</ele><time>2023-12-06T11:59:49Z</time><name>PT4459</name></trkpt>
<trkpt lat="51.794778" lon="03.910183"><ele>0</ele><time>2023-12-06T11:59:50Z</time><name>PT4460</name></trkpt>
<trkpt lat="51.794787" lon="03.910179"><ele>0.1</ele><time>2023-12-06T11:59:50Z</time><name>PT4461</name></trkpt>
<trkpt lat="51.794798" lon="03.910177"><ele>0.1</ele><time>2023-12-06T11:59:52Z</time><name>PT4462</name></trkpt>
<trkpt lat="51.794809" lon="03.910177"><ele>0.5</ele><time>2023-12-06T11:59:53Z</time><name>PT4463</name></trkpt>
<trkpt lat="51.794820" lon="03.910177"><ele>0.7</ele><time>2023-12-06T11:59:53Z</time><name>PT4464</name></trkpt>
<trkpt lat="51.794830" lon="03.910176"><ele>0.7</ele><time>2023-12-06T11:59:55Z</time><name>PT4465</name></trkpt>
<trkpt lat="51.794839" lon="03.910173"><ele>-1</ele><time>2023-12-06T11:59:56Z</time><name>PT4466</name></trkpt>
<trkpt lat="51.794848" lon="03.910167"><ele>-1</ele><time>2023-12-06T11:59:56Z</time><name>PT4467</name></trkpt>
<trkpt lat="51.794856" lon="03.910161"><ele>0.7</ele><time>2023-12-06T11:59:58Z</time><name>PT4468</name></trkpt>
<trkpt lat="51.794864" lon="03.910159"><ele>0.5</ele><time>2023-12-06T11:59:59Z</time><name>PT4469</name></trkpt>
<trkpt lat="51.794872" lon="03.910161"><ele>0.7</ele><time>2023-12-06T11:59:59Z</time><name>PT4470</name></trkpt>
<trkpt lat="51.794883" lon="03.910163"><ele>0.5</ele><time>2023-12-06T12:00:01Z</time><name>PT4471</name></trkpt>
<trkpt lat="51.794895" lon="03.910163"><ele>0.5</ele><time>2023-12-06T12:00:02Z</time><name>PT4472</name></trkpt>
<trkpt lat="51.794906" lon="03.910163"><ele>0.5</ele><time>2023-12-06T12:00:03Z</time><name>PT4473</name></trkpt>
<trkpt lat="51.794917" lon="03.910166"><ele>0.5</ele><time>2023-12-06T12:00:04Z</time><name>PT4474</name></trkpt>
<trkpt lat="51.794927" lon="03.910169"><ele>0.1</ele><time>2023-12-06T12:00:05Z</time><name>PT4475</name></trkpt>
<trkpt lat="51.794937" lon="03.910170"><ele>0.2</ele><time>2023-12-06T12:00:05Z</time><name>PT4476</name></trkpt>
<trkpt lat="51.794948" lon="03.910169"><ele>0.4</ele><time>2023-12-06T12:00:07Z</time><name>PT4477</name></trkpt>
<trkpt lat="51.794960" lon="03.910167"><ele>0.5</ele><time>2023-12-06T12:00:08Z</time><name>PT4478</name></trkpt>
<trkpt lat="51.794971" lon="03.910167"><ele>0.5</ele><time>2023-12-06T12:00:08Z</time><name>PT4479</name></trkpt>
<trkpt lat="51.794982" lon="03.910168"><ele>0.7</ele><time>2023-12-06T12:00:10Z</time><name>PT4480</name></trkpt>
<trkpt lat="51.794992" lon="03.910169"><ele>0.4</ele><time>2023-12-06T12:00:11Z</time><name>PT4481</name></trkpt>
<trkpt lat="51.795002" lon="03.910172"><ele>0.3</ele><time>2023-12-06T12:00:11Z</time><name>PT4482</name></trkpt>
<trkpt lat="51.795013" lon="03.910177"><ele>0.4</ele><time>2023-12-06T12:00:13Z</time><name>PT4483</name></trkpt>
<trkpt lat="51.795022" lon="03.910179"><ele>0.2</ele><time>2023-12-06T12:00:14Z</time><name>PT4484</name></trkpt>
<trkpt lat="51.795032" lon="03.910180"><ele>0</ele><time>2023-12-06T12:00:14Z</time><name>PT4485</name></trkpt>
<trkpt lat="51.795042" lon="03.910183"><ele>0</ele><time>2023-12-06T12:00:16Z</time><name>PT4486</name></trkpt>
<trkpt lat="51.795051" lon="03.910184"><ele>0</ele><time>2023-12-06T12:00:17Z</time><name>PT4487</name></trkpt>
<trkpt lat="51.795061" lon="03.910182"><ele>0</ele><time>2023-12-06T12:00:17Z</time><name>PT4488</name></trkpt>
<trkpt lat="51.795070" lon="03.910180"><ele>0</ele><time>2023-12-06T12:00:19Z</time><name>PT4489</name></trkpt>
<trkpt lat="51.795080" lon="03.910182"><ele>0.2</ele><time>2023-12-06T12:00:20Z</time><name>PT4490</name></trkpt>
<trkpt lat="51.795089" lon="03.910183"><ele>0.2</ele><time>2023-12-06T12:00:20Z</time><name>PT4491</name></trkpt>
<trkpt lat="51.795100" lon="03.910184"><ele>0.4</ele><time>2023-12-06T12:00:22Z</time><name>PT4492</name></trkpt>
<trkpt lat="51.795111" lon="03.910187"><ele>0.3</ele><time>2023-12-06T12:00:23Z</time><name>PT4493</name></trkpt>
<trkpt lat="51.795121" lon="03.910190"><ele>0.4</ele><time>2023-12-06T12:00:24Z</time><name>PT4494</name></trkpt>
<trkpt lat="51.795131" lon="03.910192"><ele>0.5</ele><time>2023-12-06T12:00:25Z</time><name>PT4495</name></trkpt>
<trkpt lat="51.795141" lon="03.910193"><ele>0.5</ele><time>2023-12-06T12:00:26Z</time><name>PT4496</name></trkpt>
<trkpt lat="51.795151" lon="03.910192"><ele>0.4</ele><time>2023-12-06T12:00:27Z</time><name>PT4497</name></trkpt>
<trkpt lat="51.795162" lon="03.910190"><ele>0.3</ele><time>2023-12-06T12:00:28Z</time><name>PT4498</name></trkpt>
<trkpt lat="51.795172" lon="03.910189"><ele>0.3</ele><time>2023-12-06T12:00:29Z</time><name>PT4499</name></trkpt>
<trkpt lat="51.795180" lon="03.910190"><ele>0.2</ele><time>2023-12-06T12:00:30Z</time><name>PT4500</name></trkpt>
<trkpt lat="51.795190" lon="03.910191"><ele>0.1</ele><time>2023-12-06T12:00:31Z</time><name>PT4501</name></trkpt>
<trkpt lat="51.795202" lon="03.910192"><ele>0.3</ele><time>2023-12-06T12:00:32Z</time><name>PT4502</name></trkpt>
<trkpt lat="51.795213" lon="03.910193"><ele>0.5</ele><time>2023-12-06T12:00:33Z</time><name>PT4503</name></trkpt>
<trkpt lat="51.795223" lon="03.910193"><ele>0.5</ele><time>2023-12-06T12:00:34Z</time><name>PT4504</name></trkpt>
<trkpt lat="51.795232" lon="03.910197"><ele>0.4</ele><time>2023-12-06T12:00:35Z</time><name>PT4505</name></trkpt>
<trkpt lat="51.795240" lon="03.910197"><ele>0.5</ele><time>2023-12-06T12:00:36Z</time><name>PT4506</name></trkpt>
<trkpt lat="51.795248" lon="03.910195"><ele>0.7</ele><time>2023-12-06T12:00:37Z</time><name>PT4507</name></trkpt>
<trkpt lat="51.795258" lon="03.910195"><ele>0.6</ele><time>2023-12-06T12:00:38Z</time><name>PT4508</name></trkpt>
<trkpt lat="51.795268" lon="03.910194"><ele>0.5</ele><time>2023-12-06T12:00:38Z</time><name>PT4509</name></trkpt>
<trkpt lat="51.795278" lon="03.910196"><ele>0.6</ele><time>2023-12-06T12:00:40Z</time><name>PT4510</name></trkpt>
<trkpt lat="51.795290" lon="03.910199"><ele>0.6</ele><time>2023-12-06T12:00:41Z</time><name>PT4511</name></trkpt>
<trkpt lat="51.795301" lon="03.910202"><ele>0.5</ele><time>2023-12-06T12:00:41Z</time><name>PT4512</name></trkpt>
<trkpt lat="51.795310" lon="03.910207"><ele>0.4</ele><time>2023-12-06T12:00:43Z</time><name>PT4513</name></trkpt>
<trkpt lat="51.795318" lon="03.910212"><ele>0.5</ele><time>2023-12-06T12:00:44Z</time><name>PT4514</name></trkpt>
<trkpt lat="51.795326" lon="03.910213"><ele>0.5</ele><time>2023-12-06T12:00:44Z</time><name>PT4515</name></trkpt>
<trkpt lat="51.795337" lon="03.910211"><ele>0.2</ele><time>2023-12-06T12:00:46Z</time><name>PT4516</name></trkpt>
<trkpt lat="51.795348" lon="03.910210"><ele>0.3</ele><time>2023-12-06T12:00:47Z</time><name>PT4517</name></trkpt>
<trkpt lat="51.795359" lon="03.910211"><ele>0.4</ele><time>2023-12-06T12:00:47Z</time><name>PT4518</name></trkpt>
<trkpt lat="51.795367" lon="03.910212"><ele>0.3</ele><time>2023-12-06T12:00:49Z</time><name>PT4519</name></trkpt>
<trkpt lat="51.795377" lon="03.910214"><ele>0.5</ele><time>2023-12-06T12:00:50Z</time><name>PT4520</name></trkpt>
<trkpt lat="51.795388" lon="03.910216"><ele>0.5</ele><time>2023-12-06T12:00:50Z</time><name>PT4521</name></trkpt>
<trkpt lat="51.795399" lon="03.910216"><ele>0.4</ele><time>2023-12-06T12:00:52Z</time><name>PT4522</name></trkpt>
<trkpt lat="51.795410" lon="03.910217"><ele>0.3</ele><time>2023-12-06T12:00:53Z</time><name>PT4523</name></trkpt>
<trkpt lat="51.795420" lon="03.910221"><ele>0.4</ele><time>2023-12-06T12:00:53Z</time><name>PT4524</name></trkpt>
<trkpt lat="51.795430" lon="03.910223"><ele>0.5</ele><time>2023-12-06T12:00:55Z</time><name>PT4525</name></trkpt>
<trkpt lat="51.795440" lon="03.910223"><ele>0.7</ele><time>2023-12-06T12:00:56Z</time><name>PT4526</name></trkpt>
<trkpt lat="51.795451" lon="03.910220"><ele>0.6</ele><time>2023-12-06T12:00:56Z</time><name>PT4527</name></trkpt>
<trkpt lat="51.795462" lon="03.910218"><ele>0.6</ele><time>2023-12-06T12:00:58Z</time><name>PT4528</name></trkpt>
<trkpt lat="51.795472" lon="03.910219"><ele>0.6</ele><time>2023-12-06T12:00:59Z</time><name>PT4529</name></trkpt>
<trkpt lat="51.795482" lon="03.910222"><ele>0.6</ele><time>2023-12-06T12:00:59Z</time><name>PT4530</name></trkpt>
<trkpt lat="51.795495" lon="03.910226"><ele>0.5</ele><time>2023-12-06T12:01:01Z</time><name>PT4531</name></trkpt>
<trkpt lat="51.795505" lon="03.910229"><ele>0.6</ele><time>2023-12-06T12:01:02Z</time><name>PT4532</name></trkpt>
<trkpt lat="51.795515" lon="03.910231"><ele>0.6</ele><time>2023-12-06T12:01:02Z</time><name>PT4533</name></trkpt>
<trkpt lat="51.795525" lon="03.910231"><ele>0.6</ele><time>2023-12-06T12:01:04Z</time><name>PT4534</name></trkpt>
<trkpt lat="51.795536" lon="03.910229"><ele>0.5</ele><time>2023-12-06T12:01:05Z</time><name>PT4535</name></trkpt>
<trkpt lat="51.795546" lon="03.910229"><ele>0.4</ele><time>2023-12-06T12:01:05Z</time><name>PT4536</name></trkpt>
<trkpt lat="51.795557" lon="03.910228"><ele>0.2</ele><time>2023-12-06T12:01:07Z</time><name>PT4537</name></trkpt>
<trkpt lat="51.795567" lon="03.910227"><ele>0.1</ele><time>2023-12-06T12:01:08Z</time><name>PT4538</name></trkpt>
<trkpt lat="51.795577" lon="03.910227"><ele>0.2</ele><time>2023-12-06T12:01:08Z</time><name>PT4539</name></trkpt>
<trkpt lat="51.795588" lon="03.910230"><ele>0.2</ele><time>2023-12-06T12:01:10Z</time><name>PT4540</name></trkpt>
<trkpt lat="51.795598" lon="03.910236"><ele>0.2</ele><time>2023-12-06T12:01:11Z</time><name>PT4541</name></trkpt>
<trkpt lat="51.795609" lon="03.910242"><ele>0.2</ele><time>2023-12-06T12:01:12Z</time><name>PT4542</name></trkpt>
<trkpt lat="51.795620" lon="03.910247"><ele>0.2</ele><time>2023-12-06T12:01:13Z</time><name>PT4543</name></trkpt>
<trkpt lat="51.795630" lon="03.910249"><ele>0.5</ele><time>2023-12-06T12:01:14Z</time><name>PT4544</name></trkpt>
<trkpt lat="51.795641" lon="03.910250"><ele>0.3</ele><time>2023-12-06T12:01:15Z</time><name>PT4545</name></trkpt>
<trkpt lat="51.795652" lon="03.910248"><ele>0.4</ele><time>2023-12-06T12:01:16Z</time><name>PT4546</name></trkpt>
<trkpt lat="51.795663" lon="03.910247"><ele>0.4</ele><time>2023-12-06T12:01:17Z</time><name>PT4547</name></trkpt>
<trkpt lat="51.795674" lon="03.910246"><ele>0.5</ele><time>2023-12-06T12:01:18Z</time><name>PT4548</name></trkpt>
<trkpt lat="51.795684" lon="03.910245"><ele>0.3</ele><time>2023-12-06T12:01:19Z</time><name>PT4549</name></trkpt>
<trkpt lat="51.795694" lon="03.910247"><ele>0.4</ele><time>2023-12-06T12:01:20Z</time><name>PT4550</name></trkpt>
<trkpt lat="51.795705" lon="03.910249"><ele>0.4</ele><time>2023-12-06T12:01:21Z</time><name>PT4551</name></trkpt>
<trkpt lat="51.795713" lon="03.910251"><ele>0.6</ele><time>2023-12-06T12:01:22Z</time><name>PT4552</name></trkpt>
<trkpt lat="51.795719" lon="03.910250"><ele>0.7</ele><time>2023-12-06T12:01:23Z</time><name>PT4553</name></trkpt>
<trkpt lat="51.795725" lon="03.910249"><ele>0.6</ele><time>2023-12-06T12:01:24Z</time><name>PT4554</name></trkpt>
<trkpt lat="51.795728" lon="03.910249"><ele>0.8</ele><time>2023-12-06T12:01:25Z</time><name>PT4555</name></trkpt>
<trkpt lat="51.795734" lon="03.910249"><ele>0.6</ele><time>2023-12-06T12:01:26Z</time><name>PT4556</name></trkpt>
<trkpt lat="51.795739" lon="03.910249"><ele>0.5</ele><time>2023-12-06T12:01:26Z</time><name>PT4557</name></trkpt>
<trkpt lat="51.795746" lon="03.910250"><ele>0.5</ele><time>2023-12-06T12:01:28Z</time><name>PT4558</name></trkpt>
<trkpt lat="51.795754" lon="03.910253"><ele>0.5</ele><time>2023-12-06T12:01:29Z</time><name>PT4559</name></trkpt>
<trkpt lat="51.795761" lon="03.910256"><ele>0.6</ele><time>2023-12-06T12:01:29Z</time><name>PT4560</name></trkpt>
<trkpt lat="51.795768" lon="03.910257"><ele>0.7</ele><time>2023-12-06T12:01:31Z</time><name>PT4561</name></trkpt>
<trkpt lat="51.795775" lon="03.910256"><ele>0.6</ele><time>2023-12-06T12:01:32Z</time><name>PT4562</name></trkpt>
<trkpt lat="51.795780" lon="03.910259"><ele>0.7</ele><time>2023-12-06T12:01:32Z</time><name>PT4563</name></trkpt>
<trkpt lat="51.795787" lon="03.910260"><ele>0.4</ele><time>2023-12-06T12:01:34Z</time><name>PT4564</name></trkpt>
<trkpt lat="51.795795" lon="03.910260"><ele>0.3</ele><time>2023-12-06T12:01:35Z</time><name>PT4565</name></trkpt>
<trkpt lat="51.795803" lon="03.910259"><ele>0.3</ele><time>2023-12-06T12:01:35Z</time><name>PT4566</name></trkpt>
<trkpt lat="51.795810" lon="03.910258"><ele>0.3</ele><time>2023-12-06T12:01:37Z</time><name>PT4567</name></trkpt>
<trkpt lat="51.795819" lon="03.910260"><ele>0.3</ele><time>2023-12-06T12:01:38Z</time><name>PT4568</name></trkpt>
<trkpt lat="51.795827" lon="03.910264"><ele>0.3</ele><time>2023-12-06T12:01:38Z</time><name>PT4569</name></trkpt>
<trkpt lat="51.795835" lon="03.910268"><ele>0.3</ele><time>2023-12-06T12:01:40Z</time><name>PT4570</name></trkpt>
<trkpt lat="51.795843" lon="03.910272"><ele>0.3</ele><time>2023-12-06T12:01:41Z</time><name>PT4571</name></trkpt>
<trkpt lat="51.795850" lon="03.910273"><ele>0.3</ele><time>2023-12-06T12:01:41Z</time><name>PT4572</name></trkpt>
<trkpt lat="51.795856" lon="03.910276"><ele>0.4</ele><time>2023-12-06T12:01:43Z</time><name>PT4573</name></trkpt>
<trkpt lat="51.795865" lon="03.910279"><ele>0.5</ele><time>2023-12-06T12:01:44Z</time><name>PT4574</name></trkpt>
<trkpt lat="51.795873" lon="03.910279"><ele>0.5</ele><time>2023-12-06T12:01:44Z</time><name>PT4575</name></trkpt>
<trkpt lat="51.795881" lon="03.910279"><ele>0.5</ele><time>2023-12-06T12:01:46Z</time><name>PT4576</name></trkpt>
<trkpt lat="51.795890" lon="03.910280"><ele>0.3</ele><time>2023-12-06T12:01:47Z</time><name>PT4577</name></trkpt>
<trkpt lat="51.795899" lon="03.910279"><ele>0.3</ele><time>2023-12-06T12:01:47Z</time><name>PT4578</name></trkpt>
<trkpt lat="51.795910" lon="03.910279"><ele>0.2</ele><time>2023-12-06T12:01:49Z</time><name>PT4579</name></trkpt>
<trkpt lat="51.795918" lon="03.910282"><ele>0.2</ele><time>2023-12-06T12:01:50Z</time><name>PT4580</name></trkpt>
<trkpt lat="51.795927" lon="03.910284"><ele>0.1</ele><time>2023-12-06T12:01:50Z</time><name>PT4581</name></trkpt>
<trkpt lat="51.795935" lon="03.910286"><ele>0.2</ele><time>2023-12-06T12:01:52Z</time><name>PT4582</name></trkpt>
<trkpt lat="51.795943" lon="03.910285"><ele>0.1</ele><time>2023-12-06T12:01:53Z</time><name>PT4583</name></trkpt>
<trkpt lat="51.795951" lon="03.910284"><ele>0.1</ele><time>2023-12-06T12:01:53Z</time><name>PT4584</name></trkpt>
<trkpt lat="51.795959" lon="03.910285"><ele>0.1</ele><time>2023-12-06T12:01:55Z</time><name>PT4585</name></trkpt>
<trkpt lat="51.795967" lon="03.910288"><ele>0.3</ele><time>2023-12-06T12:01:56Z</time><name>PT4586</name></trkpt>
<trkpt lat="51.795980" lon="03.910290"><ele>0.5</ele><time>2023-12-06T12:01:57Z</time><name>PT4587</name></trkpt>
<trkpt lat="51.795989" lon="03.910291"><ele>0.4</ele><time>2023-12-06T12:01:58Z</time><name>PT4588</name></trkpt>
<trkpt lat="51.795996" lon="03.910293"><ele>0.4</ele><time>2023-12-06T12:01:59Z</time><name>PT4589</name></trkpt>
<trkpt lat="51.796001" lon="03.910290"><ele>0.5</ele><time>2023-12-06T12:01:59Z</time><name>PT4590</name></trkpt>
<trkpt lat="51.796008" lon="03.910288"><ele>0.5</ele><time>2023-12-06T12:02:01Z</time><name>PT4591</name></trkpt>
<trkpt lat="51.796015" lon="03.910285"><ele>0.5</ele><time>2023-12-06T12:02:02Z</time><name>PT4592</name></trkpt>
<trkpt lat="51.796019" lon="03.910283"><ele>0.5</ele><time>2023-12-06T12:02:02Z</time><name>PT4593</name></trkpt>
<trkpt lat="51.796020" lon="03.910283"><ele>0.5</ele><time>2023-12-06T12:02:04Z</time><name>PT4594</name></trkpt>
<trkpt lat="51.796024" lon="03.910280"><ele>0.3</ele><time>2023-12-06T12:02:05Z</time><name>PT4595</name></trkpt>
<trkpt lat="51.796029" lon="03.910276"><ele>0.2</ele><time>2023-12-06T12:02:05Z</time><name>PT4596</name></trkpt>
<trkpt lat="51.796036" lon="03.910276"><ele>0</ele><time>2023-12-06T12:02:07Z</time><name>PT4597</name></trkpt>
<trkpt lat="51.796045" lon="03.910278"><ele>0.2</ele><time>2023-12-06T12:02:08Z</time><name>PT4598</name></trkpt>
<trkpt lat="51.796054" lon="03.910277"><ele>0.1</ele><time>2023-12-06T12:02:08Z</time><name>PT4599</name></trkpt>
<trkpt lat="51.796062" lon="03.910277"><ele>0.1</ele><time>2023-12-06T12:02:10Z</time><name>PT4600</name></trkpt>
<trkpt lat="51.796070" lon="03.910275"><ele>0.1</ele><time>2023-12-06T12:02:11Z</time><name>PT4601</name></trkpt>
<trkpt lat="51.796079" lon="03.910272"><ele>0.1</ele><time>2023-12-06T12:02:11Z</time><name>PT4602</name></trkpt>
<trkpt lat="51.796084" lon="03.910269"><ele>0.1</ele><time>2023-12-06T12:02:13Z</time><name>PT4603</name></trkpt>
<trkpt lat="51.796088" lon="03.910263"><ele>0</ele><time>2023-12-06T12:02:14Z</time><name>PT4604</name></trkpt>
<trkpt lat="51.796093" lon="03.910256"><ele>0</ele><time>2023-12-06T12:02:14Z</time><name>PT4605</name></trkpt>
<trkpt lat="51.796096" lon="03.910250"><ele>0.1</ele><time>2023-12-06T12:02:16Z</time><name>PT4606</name></trkpt>
<trkpt lat="51.796100" lon="03.910247"><ele>0.2</ele><time>2023-12-06T12:02:17Z</time><name>PT4607</name></trkpt>
<trkpt lat="51.796103" lon="03.910249"><ele>0.2</ele><time>2023-12-06T12:02:17Z</time><name>PT4608</name></trkpt>
<trkpt lat="51.796105" lon="03.910252"><ele>0.3</ele><time>2023-12-06T12:02:19Z</time><name>PT4609</name></trkpt>
<trkpt lat="51.796106" lon="03.910255"><ele>0.3</ele><time>2023-12-06T12:02:20Z</time><name>PT4610</name></trkpt>
<trkpt lat="51.796110" lon="03.910261"><ele>0.5</ele><time>2023-12-06T12:02:26Z</time><name>PT4611</name></trkpt>
<trkpt lat="51.796120" lon="03.910271"><ele>0.5</ele><time>2023-12-06T12:02:26Z</time><name>PT4612</name></trkpt>
<trkpt lat="51.796129" lon="03.910279"><ele>0.5</ele><time>2023-12-06T12:02:28Z</time><name>PT4613</name></trkpt>
<trkpt lat="51.796139" lon="03.910288"><ele>0.5</ele><time>2023-12-06T12:02:29Z</time><name>PT4614</name></trkpt>
<trkpt lat="51.796148" lon="03.910300"><ele>0.5</ele><time>2023-12-06T12:02:29Z</time><name>PT4615</name></trkpt>
<trkpt lat="51.796156" lon="03.910313"><ele>0.5</ele><time>2023-12-06T12:02:31Z</time><name>PT4616</name></trkpt>
<trkpt lat="51.796163" lon="03.910319"><ele>0.5</ele><time>2023-12-06T12:02:32Z</time><name>PT4617</name></trkpt>
<trkpt lat="51.796171" lon="03.910326"><ele>0.5</ele><time>2023-12-06T12:02:32Z</time><name>PT4618</name></trkpt>
<trkpt lat="51.796176" lon="03.910333"><ele>0.3</ele><time>2023-12-06T12:02:34Z</time><name>PT4619</name></trkpt>
<trkpt lat="51.796178" lon="03.910337"><ele>0.3</ele><time>2023-12-06T12:02:35Z</time><name>PT4620</name></trkpt>
<trkpt lat="51.796178" lon="03.910340"><ele>0.2</ele><time>2023-12-06T12:02:35Z</time><name>PT4621</name></trkpt>
<trkpt lat="51.796179" lon="03.910340"><ele>0.2</ele><time>2023-12-06T12:02:37Z</time><name>PT4622</name></trkpt>
<trkpt lat="51.796181" lon="03.910347"><ele>0.2</ele><time>2023-12-06T12:02:49Z</time><name>PT4623</name></trkpt>
<trkpt lat="51.796187" lon="03.910355"><ele>0.2</ele><time>2023-12-06T12:02:50Z</time><name>PT4624</name></trkpt>
<trkpt lat="51.796191" lon="03.910365"><ele>0.2</ele><time>2023-12-06T12:02:50Z</time><name>PT4625</name></trkpt>
<trkpt lat="51.796194" lon="03.910378"><ele>0</ele><time>2023-12-06T12:02:52Z</time><name>PT4626</name></trkpt>
<trkpt lat="51.796197" lon="03.910393"><ele>0</ele><time>2023-12-06T12:02:53Z</time><name>PT4627</name></trkpt>
<trkpt lat="51.796202" lon="03.910410"><ele>0</ele><time>2023-12-06T12:02:53Z</time><name>PT4628</name></trkpt>
<trkpt lat="51.796206" lon="03.910428"><ele>0.1</ele><time>2023-12-06T12:02:55Z</time><name>PT4629</name></trkpt>
<trkpt lat="51.796211" lon="03.910446"><ele>0</ele><time>2023-12-06T12:02:56Z</time><name>PT4630</name></trkpt>
<trkpt lat="51.796214" lon="03.910456"><ele>0</ele><time>2023-12-06T12:02:56Z</time><name>PT4631</name></trkpt>
<trkpt lat="51.796217" lon="03.910461"><ele>0</ele><time>2023-12-06T12:02:58Z</time><name>PT4632</name></trkpt>
<trkpt lat="51.796217" lon="03.910466"><ele>0</ele><time>2023-12-06T12:02:59Z</time><name>PT4633</name></trkpt>
<trkpt lat="51.796217" lon="03.910475"><ele>0</ele><time>2023-12-06T12:02:59Z</time><name>PT4634</name></trkpt>
<trkpt lat="51.796218" lon="03.910485"><ele>0</ele><time>2023-12-06T12:03:01Z</time><name>PT4635</name></trkpt>
<trkpt lat="51.796220" lon="03.910491"><ele>0</ele><time>2023-12-06T12:03:02Z</time><name>PT4636</name></trkpt>
<trkpt lat="51.796221" lon="03.910494"><ele>0</ele><time>2023-12-06T12:03:02Z</time><name>PT4637</name></trkpt>
<trkpt lat="51.796222" lon="03.910496"><ele>0.1</ele><time>2023-12-06T12:03:04Z</time><name>PT4638</name></trkpt>
<trkpt lat="51.796223" lon="03.910495"><ele>0</ele><time>2023-12-06T12:03:05Z</time><name>PT4639</name></trkpt>
<trkpt lat="51.796225" lon="03.910500"><ele>0.2</ele><time>2023-12-06T12:03:07Z</time><name>PT4640</name></trkpt>
<trkpt lat="51.796229" lon="03.910515"><ele>0.3</ele><time>2023-12-06T12:03:08Z</time><name>PT4641</name></trkpt>
<trkpt lat="51.796233" lon="03.910532"><ele>0.3</ele><time>2023-12-06T12:03:08Z</time><name>PT4642</name></trkpt>
<trkpt lat="51.796235" lon="03.910544"><ele>0.2</ele><time>2023-12-06T12:03:10Z</time><name>PT4643</name></trkpt>
<trkpt lat="51.796233" lon="03.910547"><ele>0.3</ele><time>2023-12-06T12:03:11Z</time><name>PT4644</name></trkpt>
<trkpt lat="51.796233" lon="03.910550"><ele>0.3</ele><time>2023-12-06T12:03:11Z</time><name>PT4645</name></trkpt>
<trkpt lat="51.796233" lon="03.910552"><ele>0.2</ele><time>2023-12-06T12:03:13Z</time><name>PT4646</name></trkpt>
<trkpt lat="51.796233" lon="03.910562"><ele>0.4</ele><time>2023-12-06T12:03:14Z</time><name>PT4647</name></trkpt>
<trkpt lat="51.796232" lon="03.910575"><ele>0.3</ele><time>2023-12-06T12:03:14Z</time><name>PT4648</name></trkpt>
<trkpt lat="51.796233" lon="03.910591"><ele>0.3</ele><time>2023-12-06T12:03:16Z</time><name>PT4649</name></trkpt>
<trkpt lat="51.796236" lon="03.910606"><ele>0.4</ele><time>2023-12-06T12:03:17Z</time><name>PT4650</name></trkpt>
<trkpt lat="51.796236" lon="03.910615"><ele>0.5</ele><time>2023-12-06T12:03:17Z</time><name>PT4651</name></trkpt>
<trkpt lat="51.796236" lon="03.910619"><ele>0.4</ele><time>2023-12-06T12:03:19Z</time><name>PT4652</name></trkpt>
<trkpt lat="51.796238" lon="03.910627"><ele>0.3</ele><time>2023-12-06T12:03:20Z</time><name>PT4653</name></trkpt>
<trkpt lat="51.796238" lon="03.910642"><ele>0.4</ele><time>2023-12-06T12:03:20Z</time><name>PT4654</name></trkpt>
<trkpt lat="51.796239" lon="03.910660"><ele>0.3</ele><time>2023-12-06T12:03:22Z</time><name>PT4655</name></trkpt>
<trkpt lat="51.796240" lon="03.910678"><ele>0.2</ele><time>2023-12-06T12:03:23Z</time><name>PT4656</name></trkpt>
<trkpt lat="51.796241" lon="03.910696"><ele>0.3</ele><time>2023-12-06T12:03:23Z</time><name>PT4657</name></trkpt>
<trkpt lat="51.796240" lon="03.910714"><ele>0.3</ele><time>2023-12-06T12:03:25Z</time><name>PT4658</name></trkpt>
<trkpt lat="51.796239" lon="03.910734"><ele>0.1</ele><time>2023-12-06T12:03:26Z</time><name>PT4659</name></trkpt>
<trkpt lat="51.796238" lon="03.910753"><ele>0.2</ele><time>2023-12-06T12:03:26Z</time><name>PT4660</name></trkpt>
<trkpt lat="51.796238" lon="03.910773"><ele>0.2</ele><time>2023-12-06T12:03:28Z</time><name>PT4661</name></trkpt>
<trkpt lat="51.796236" lon="03.910794"><ele>0</ele><time>2023-12-06T12:03:29Z</time><name>PT4662</name></trkpt>
<trkpt lat="51.796235" lon="03.910812"><ele>0</ele><time>2023-12-06T12:03:29Z</time><name>PT4663</name></trkpt>
<trkpt lat="51.796234" lon="03.910829"><ele>0</ele><time>2023-12-06T12:03:31Z</time><name>PT4664</name></trkpt>
<trkpt lat="51.796235" lon="03.910847"><ele>0.1</ele><time>2023-12-06T12:03:32Z</time><name>PT4665</name></trkpt>
<trkpt lat="51.796235" lon="03.910865"><ele>0</ele><time>2023-12-06T12:03:32Z</time><name>PT4666</name></trkpt>
<trkpt lat="51.796235" lon="03.910882"><ele>0.1</ele><time>2023-12-06T12:03:34Z</time><name>PT4667</name></trkpt>
<trkpt lat="51.796235" lon="03.910899"><ele>0</ele><time>2023-12-06T12:03:35Z</time><name>PT4668</name></trkpt>
<trkpt lat="51.796235" lon="03.910920"><ele>0</ele><time>2023-12-06T12:03:35Z</time><name>PT4669</name></trkpt>
<trkpt lat="51.796234" lon="03.910939"><ele>0.1</ele><time>2023-12-06T12:03:37Z</time><name>PT4670</name></trkpt>
<trkpt lat="51.796233" lon="03.910958"><ele>0.2</ele><time>2023-12-06T12:03:38Z</time><name>PT4671</name></trkpt>
<trkpt lat="51.796232" lon="03.910976"><ele>0.2</ele><time>2023-12-06T12:03:38Z</time><name>PT4672</name></trkpt>
<trkpt lat="51.796231" lon="03.910994"><ele>0.3</ele><time>2023-12-06T12:03:40Z</time><name>PT4673</name></trkpt>
<trkpt lat="51.796231" lon="03.911011"><ele>0.1</ele><time>2023-12-06T12:03:41Z</time><name>PT4674</name></trkpt>
<trkpt lat="51.796231" lon="03.911029"><ele>0.1</ele><time>2023-12-06T12:03:41Z</time><name>PT4675</name></trkpt>
<trkpt lat="51.796231" lon="03.911048"><ele>0</ele><time>2023-12-06T12:03:43Z</time><name>PT4676</name></trkpt>
<trkpt lat="51.796232" lon="03.911067"><ele>0</ele><time>2023-12-06T12:03:44Z</time><name>PT4677</name></trkpt>
<trkpt lat="51.796232" lon="03.911085"><ele>0</ele><time>2023-12-06T12:03:44Z</time><name>PT4678</name></trkpt>
<trkpt lat="51.796233" lon="03.911103"><ele>0.3</ele><time>2023-12-06T12:03:46Z</time><name>PT4679</name></trkpt>
<trkpt lat="51.796233" lon="03.911122"><ele>0.3</ele><time>2023-12-06T12:03:47Z</time><name>PT4680</name></trkpt>
<trkpt lat="51.796232" lon="03.911142"><ele>0.2</ele><time>2023-12-06T12:03:47Z</time><name>PT4681</name></trkpt>
<trkpt lat="51.796231" lon="03.911160"><ele>0.2</ele><time>2023-12-06T12:03:49Z</time><name>PT4682</name></trkpt>
<trkpt lat="51.796230" lon="03.911178"><ele>0</ele><time>2023-12-06T12:03:50Z</time><name>PT4683</name></trkpt>
<trkpt lat="51.796230" lon="03.911196"><ele>0</ele><time>2023-12-06T12:03:50Z</time><name>PT4684</name></trkpt>
<trkpt lat="51.796230" lon="03.911213"><ele>0.1</ele><time>2023-12-06T12:03:52Z</time><name>PT4685</name></trkpt>
<trkpt lat="51.796231" lon="03.911231"><ele>0.1</ele><time>2023-12-06T12:03:53Z</time><name>PT4686</name></trkpt>
<trkpt lat="51.796231" lon="03.911248"><ele>0.2</ele><time>2023-12-06T12:03:53Z</time><name>PT4687</name></trkpt>
<trkpt lat="51.796230" lon="03.911267"><ele>0.3</ele><time>2023-12-06T12:03:55Z</time><name>PT4688</name></trkpt>
<trkpt lat="51.796230" lon="03.911286"><ele>0.3</ele><time>2023-12-06T12:03:56Z</time><name>PT4689</name></trkpt>
<trkpt lat="51.796230" lon="03.911305"><ele>0.3</ele><time>2023-12-06T12:03:56Z</time><name>PT4690</name></trkpt>
<trkpt lat="51.796230" lon="03.911323"><ele>0.2</ele><time>2023-12-06T12:03:58Z</time><name>PT4691</name></trkpt>
<trkpt lat="51.796230" lon="03.911343"><ele>0</ele><time>2023-12-06T12:03:59Z</time><name>PT4692</name></trkpt>
<trkpt lat="51.796232" lon="03.911362"><ele>0.1</ele><time>2023-12-06T12:03:59Z</time><name>PT4693</name></trkpt>
<trkpt lat="51.796233" lon="03.911380"><ele>0</ele><time>2023-12-06T12:04:01Z</time><name>PT4694</name></trkpt>
<trkpt lat="51.796234" lon="03.911399"><ele>0.1</ele><time>2023-12-06T12:04:02Z</time><name>PT4695</name></trkpt>
<trkpt lat="51.796233" lon="03.911417"><ele>0.1</ele><time>2023-12-06T12:04:02Z</time><name>PT4696</name></trkpt>
<trkpt lat="51.796232" lon="03.911435"><ele>0.1</ele><time>2023-12-06T12:04:04Z</time><name>PT4697</name></trkpt>
<trkpt lat="51.796230" lon="03.911455"><ele>0.1</ele><time>2023-12-06T12:04:05Z</time><name>PT4698</name></trkpt>
<trkpt lat="51.796229" lon="03.911475"><ele>0.1</ele><time>2023-12-06T12:04:05Z</time><name>PT4699</name></trkpt>
<trkpt lat="51.796228" lon="03.911493"><ele>0.2</ele><time>2023-12-06T12:04:07Z</time><name>PT4700</name></trkpt>
<trkpt lat="51.796228" lon="03.911512"><ele>0.3</ele><time>2023-12-06T12:04:08Z</time><name>PT4701</name></trkpt>
<trkpt lat="51.796227" lon="03.911532"><ele>0.2</ele><time>2023-12-06T12:04:08Z</time><name>PT4702</name></trkpt>
<trkpt lat="51.796227" lon="03.911552"><ele>0.1</ele><time>2023-12-06T12:04:10Z</time><name>PT4703</name></trkpt>
<trkpt lat="51.796226" lon="03.911572"><ele>0.1</ele><time>2023-12-06T12:04:11Z</time><name>PT4704</name></trkpt>
<trkpt lat="51.796227" lon="03.911591"><ele>0</ele><time>2023-12-06T12:04:11Z</time><name>PT4705</name></trkpt>
<trkpt lat="51.796228" lon="03.911610"><ele>0.3</ele><time>2023-12-06T12:04:13Z</time><name>PT4706</name></trkpt>
<trkpt lat="51.796228" lon="03.911628"><ele>0.4</ele><time>2023-12-06T12:04:14Z</time><name>PT4707</name></trkpt>
<trkpt lat="51.796229" lon="03.911646"><ele>0.4</ele><time>2023-12-06T12:04:14Z</time><name>PT4708</name></trkpt>
<trkpt lat="51.796228" lon="03.911664"><ele>0.3</ele><time>2023-12-06T12:04:16Z</time><name>PT4709</name></trkpt>
<trkpt lat="51.796227" lon="03.911683"><ele>0.2</ele><time>2023-12-06T12:04:17Z</time><name>PT4710</name></trkpt>
<trkpt lat="51.796226" lon="03.911701"><ele>0.2</ele><time>2023-12-06T12:04:17Z</time><name>PT4711</name></trkpt>
<trkpt lat="51.796225" lon="03.911722"><ele>0.1</ele><time>2023-12-06T12:04:19Z</time><name>PT4712</name></trkpt>
<trkpt lat="51.796223" lon="03.911741"><ele>0.1</ele><time>2023-12-06T12:04:20Z</time><name>PT4713</name></trkpt>
<trkpt lat="51.796222" lon="03.911759"><ele>0.2</ele><time>2023-12-06T12:04:20Z</time><name>PT4714</name></trkpt>
<trkpt lat="51.796222" lon="03.911778"><ele>0.2</ele><time>2023-12-06T12:04:22Z</time><name>PT4715</name></trkpt>
<trkpt lat="51.796222" lon="03.911794"><ele>0.2</ele><time>2023-12-06T12:04:23Z</time><name>PT4716</name></trkpt>
<trkpt lat="51.796223" lon="03.911812"><ele>0.3</ele><time>2023-12-06T12:04:23Z</time><name>PT4717</name></trkpt>
<trkpt lat="51.796223" lon="03.911831"><ele>0.3</ele><time>2023-12-06T12:04:25Z</time><name>PT4718</name></trkpt>
<trkpt lat="51.796223" lon="03.911849"><ele>0.3</ele><time>2023-12-06T12:04:26Z</time><name>PT4719</name></trkpt>
<trkpt lat="51.796224" lon="03.911867"><ele>0.5</ele><time>2023-12-06T12:04:26Z</time><name>PT4720</name></trkpt>
<trkpt lat="51.796223" lon="03.911886"><ele>0.5</ele><time>2023-12-06T12:04:28Z</time><name>PT4721</name></trkpt>
<trkpt lat="51.796223" lon="03.911906"><ele>0.6</ele><time>2023-12-06T12:04:29Z</time><name>PT4722</name></trkpt>
<trkpt lat="51.796222" lon="03.911928"><ele>0.5</ele><time>2023-12-06T12:04:29Z</time><name>PT4723</name></trkpt>
<trkpt lat="51.796222" lon="03.911949"><ele>0.6</ele><time>2023-12-06T12:04:31Z</time><name>PT4724</name></trkpt>
<trkpt lat="51.796220" lon="03.911969"><ele>0.6</ele><time>2023-12-06T12:04:32Z</time><name>PT4725</name></trkpt>
<trkpt lat="51.796219" lon="03.911988"><ele>0.7</ele><time>2023-12-06T12:04:32Z</time><name>PT4726</name></trkpt>
<trkpt lat="51.796219" lon="03.912006"><ele>0.7</ele><time>2023-12-06T12:04:34Z</time><name>PT4727</name></trkpt>
<trkpt lat="51.796219" lon="03.912024"><ele>0.6</ele><time>2023-12-06T12:04:35Z</time><name>PT4728</name></trkpt>
<trkpt lat="51.796220" lon="03.912043"><ele>0.5</ele><time>2023-12-06T12:04:35Z</time><name>PT4729</name></trkpt>
<trkpt lat="51.796222" lon="03.912063"><ele>0.5</ele><time>2023-12-06T12:04:37Z</time><name>PT4730</name></trkpt>
<trkpt lat="51.796223" lon="03.912081"><ele>0.5</ele><time>2023-12-06T12:04:38Z</time><name>PT4731</name></trkpt>
<trkpt lat="51.796224" lon="03.912098"><ele>0.5</ele><time>2023-12-06T12:04:38Z</time><name>PT4732</name></trkpt>
<trkpt lat="51.796224" lon="03.912117"><ele>0.6</ele><time>2023-12-06T12:04:40Z</time><name>PT4733</name></trkpt>
<trkpt lat="51.796224" lon="03.912134"><ele>0.6</ele><time>2023-12-06T12:04:41Z</time><name>PT4734</name></trkpt>
<trkpt lat="51.796224" lon="03.912150"><ele>0.6</ele><time>2023-12-06T12:04:41Z</time><name>PT4735</name></trkpt>
<trkpt lat="51.796223" lon="03.912166"><ele>0.6</ele><time>2023-12-06T12:04:43Z</time><name>PT4736</name></trkpt>
<trkpt lat="51.796222" lon="03.912184"><ele>0.8</ele><time>2023-12-06T12:04:44Z</time><name>PT4737</name></trkpt>
<trkpt lat="51.796222" lon="03.912202"><ele>0.8</ele><time>2023-12-06T12:04:44Z</time><name>PT4738</name></trkpt>
<trkpt lat="51.796222" lon="03.912222"><ele>0.8</ele><time>2023-12-06T12:04:46Z</time><name>PT4739</name></trkpt>
<trkpt lat="51.796222" lon="03.912240"><ele>1</ele><time>2023-12-06T12:04:47Z</time><name>PT4740</name></trkpt>
<trkpt lat="51.796222" lon="03.912260"><ele>0.9</ele><time>2023-12-06T12:04:47Z</time><name>PT4741</name></trkpt>
<trkpt lat="51.796223" lon="03.912279"><ele>0.9</ele><time>2023-12-06T12:04:49Z</time><name>PT4742</name></trkpt>
<trkpt lat="51.796222" lon="03.912297"><ele>0.8</ele><time>2023-12-06T12:04:50Z</time><name>PT4743</name></trkpt>
<trkpt lat="51.796222" lon="03.912316"><ele>0.8</ele><time>2023-12-06T12:04:50Z</time><name>PT4744</name></trkpt>
<trkpt lat="51.796221" lon="03.912336"><ele>0.8</ele><time>2023-12-06T12:04:52Z</time><name>PT4745</name></trkpt>
<trkpt lat="51.796220" lon="03.912355"><ele>0.8</ele><time>2023-12-06T12:04:53Z</time><name>PT4746</name></trkpt>
<trkpt lat="51.796218" lon="03.912374"><ele>0.9</ele><time>2023-12-06T12:04:53Z</time><name>PT4747</name></trkpt>
<trkpt lat="51.796217" lon="03.912394"><ele>0.9</ele><time>2023-12-06T12:04:55Z</time><name>PT4748</name></trkpt>
<trkpt lat="51.796215" lon="03.912413"><ele>0.8</ele><time>2023-12-06T12:04:56Z</time><name>PT4749</name></trkpt>
<trkpt lat="51.796213" lon="03.912432"><ele>0.8</ele><time>2023-12-06T12:04:56Z</time><name>PT4750</name></trkpt>
<trkpt lat="51.796213" lon="03.912448"><ele>0.7</ele><time>2023-12-06T12:04:58Z</time><name>PT4751</name></trkpt>
<trkpt lat="51.796212" lon="03.912466"><ele>0.7</ele><time>2023-12-06T12:04:59Z</time><name>PT4752</name></trkpt>
<trkpt lat="51.796211" lon="03.912484"><ele>0.7</ele><time>2023-12-06T12:04:59Z</time><name>PT4753</name></trkpt>
<trkpt lat="51.796211" lon="03.912503"><ele>0.6</ele><time>2023-12-06T12:05:01Z</time><name>PT4754</name></trkpt>
<trkpt lat="51.796213" lon="03.912521"><ele>0.8</ele><time>2023-12-06T12:05:02Z</time><name>PT4755</name></trkpt>
<trkpt lat="51.796213" lon="03.912539"><ele>0.8</ele><time>2023-12-06T12:05:02Z</time><name>PT4756</name></trkpt>
<trkpt lat="51.796214" lon="03.912555"><ele>0.7</ele><time>2023-12-06T12:05:04Z</time><name>PT4757</name></trkpt>
<trkpt lat="51.796214" lon="03.912573"><ele>0.6</ele><time>2023-12-06T12:05:05Z</time><name>PT4758</name></trkpt>
<trkpt lat="51.796214" lon="03.912592"><ele>0.4</ele><time>2023-12-06T12:05:05Z</time><name>PT4759</name></trkpt>
<trkpt lat="51.796213" lon="03.912611"><ele>0.3</ele><time>2023-12-06T12:05:07Z</time><name>PT4760</name></trkpt>
<trkpt lat="51.796212" lon="03.912629"><ele>0.5</ele><time>2023-12-06T12:05:08Z</time><name>PT4761</name></trkpt>
<trkpt lat="51.796211" lon="03.912648"><ele>0.7</ele><time>2023-12-06T12:05:08Z</time><name>PT4762</name></trkpt>
<trkpt lat="51.796211" lon="03.912667"><ele>0.8</ele><time>2023-12-06T12:05:10Z</time><name>PT4763</name></trkpt>
<trkpt lat="51.796210" lon="03.912687"><ele>0.7</ele><time>2023-12-06T12:05:11Z</time><name>PT4764</name></trkpt>
<trkpt lat="51.796209" lon="03.912706"><ele>0.8</ele><time>2023-12-06T12:05:11Z</time><name>PT4765</name></trkpt>
<trkpt lat="51.796208" lon="03.912724"><ele>0.8</ele><time>2023-12-06T12:05:13Z</time><name>PT4766</name></trkpt>
<trkpt lat="51.796208" lon="03.912740"><ele>0.8</ele><time>2023-12-06T12:05:14Z</time><name>PT4767</name></trkpt>
<trkpt lat="51.796208" lon="03.912757"><ele>0.8</ele><time>2023-12-06T12:05:14Z</time><name>PT4768</name></trkpt>
<trkpt lat="51.796210" lon="03.912774"><ele>0.8</ele><time>2023-12-06T12:05:16Z</time><name>PT4769</name></trkpt>
<trkpt lat="51.796210" lon="03.912792"><ele>0.7</ele><time>2023-12-06T12:05:17Z</time><name>PT4770</name></trkpt>
<trkpt lat="51.796210" lon="03.912810"><ele>0.4</ele><time>2023-12-06T12:05:17Z</time><name>PT4771</name></trkpt>
<trkpt lat="51.796210" lon="03.912828"><ele>0.6</ele><time>2023-12-06T12:05:19Z</time><name>PT4772</name></trkpt>
<trkpt lat="51.796209" lon="03.912847"><ele>0.6</ele><time>2023-12-06T12:05:20Z</time><name>PT4773</name></trkpt>
<trkpt lat="51.796208" lon="03.912867"><ele>0.6</ele><time>2023-12-06T12:05:20Z</time><name>PT4774</name></trkpt>
<trkpt lat="51.796207" lon="03.912887"><ele>0.8</ele><time>2023-12-06T12:05:22Z</time><name>PT4775</name></trkpt>
<trkpt lat="51.796206" lon="03.912906"><ele>0.8</ele><time>2023-12-06T12:05:23Z</time><name>PT4776</name></trkpt>
<trkpt lat="51.796204" lon="03.912924"><ele>0.9</ele><time>2023-12-06T12:05:23Z</time><name>PT4777</name></trkpt>
<trkpt lat="51.796204" lon="03.912943"><ele>0.8</ele><time>2023-12-06T12:05:25Z</time><name>PT4778</name></trkpt>
<trkpt lat="51.796204" lon="03.912960"><ele>0.8</ele><time>2023-12-06T12:05:26Z</time><name>PT4779</name></trkpt>
<trkpt lat="51.796207" lon="03.912979"><ele>0.8</ele><time>2023-12-06T12:05:26Z</time><name>PT4780</name></trkpt>
<trkpt lat="51.796208" lon="03.912999"><ele>0.8</ele><time>2023-12-06T12:05:28Z</time><name>PT4781</name></trkpt>
<trkpt lat="51.796208" lon="03.913019"><ele>0.9</ele><time>2023-12-06T12:05:29Z</time><name>PT4782</name></trkpt>
<trkpt lat="51.796209" lon="03.913038"><ele>1</ele><time>2023-12-06T12:05:29Z</time><name>PT4783</name></trkpt>
<trkpt lat="51.796210" lon="03.913057"><ele>1</ele><time>2023-12-06T12:05:31Z</time><name>PT4784</name></trkpt>
<trkpt lat="51.796212" lon="03.913074"><ele>1.1</ele><time>2023-12-06T12:05:32Z</time><name>PT4785</name></trkpt>
<trkpt lat="51.796213" lon="03.913091"><ele>1.1</ele><time>2023-12-06T12:05:32Z</time><name>PT4786</name></trkpt>
<trkpt lat="51.796212" lon="03.913110"><ele>1.1</ele><time>2023-12-06T12:05:34Z</time><name>PT4787</name></trkpt>
<trkpt lat="51.796211" lon="03.913129"><ele>1.1</ele><time>2023-12-06T12:05:35Z</time><name>PT4788</name></trkpt>
<trkpt lat="51.796210" lon="03.913149"><ele>1.2</ele><time>2023-12-06T12:05:35Z</time><name>PT4789</name></trkpt>
<trkpt lat="51.796209" lon="03.913168"><ele>1.3</ele><time>2023-12-06T12:05:37Z</time><name>PT4790</name></trkpt>
<trkpt lat="51.796207" lon="03.913187"><ele>1.3</ele><time>2023-12-06T12:05:38Z</time><name>PT4791</name></trkpt>
<trkpt lat="51.796206" lon="03.913206"><ele>1.4</ele><time>2023-12-06T12:05:38Z</time><name>PT4792</name></trkpt>
<trkpt lat="51.796207" lon="03.913225"><ele>1.4</ele><time>2023-12-06T12:05:40Z</time><name>PT4793</name></trkpt>
<trkpt lat="51.796207" lon="03.913245"><ele>1.5</ele><time>2023-12-06T12:05:41Z</time><name>PT4794</name></trkpt>
<trkpt lat="51.796208" lon="03.913263"><ele>1.4</ele><time>2023-12-06T12:05:41Z</time><name>PT4795</name></trkpt>
<trkpt lat="51.796208" lon="03.913282"><ele>1.2</ele><time>2023-12-06T12:05:43Z</time><name>PT4796</name></trkpt>
<trkpt lat="51.796208" lon="03.913300"><ele>0.8</ele><time>2023-12-06T12:05:44Z</time><name>PT4797</name></trkpt>
<trkpt lat="51.796207" lon="03.913317"><ele>0.8</ele><time>2023-12-06T12:05:44Z</time><name>PT4798</name></trkpt>
<trkpt lat="51.796205" lon="03.913336"><ele>0.7</ele><time>2023-12-06T12:05:46Z</time><name>PT4799</name></trkpt>
<trkpt lat="51.796204" lon="03.913355"><ele>0.8</ele><time>2023-12-06T12:05:47Z</time><name>PT4800</name></trkpt>
<trkpt lat="51.796202" lon="03.913373"><ele>1</ele><time>2023-12-06T12:05:47Z</time><name>PT4801</name></trkpt>
<trkpt lat="51.796202" lon="03.913390"><ele>1.1</ele><time>2023-12-06T12:05:49Z</time><name>PT4802</name></trkpt>
<trkpt lat="51.796202" lon="03.913407"><ele>1.1</ele><time>2023-12-06T12:05:50Z</time><name>PT4803</name></trkpt>
<trkpt lat="51.796202" lon="03.913425"><ele>1.2</ele><time>2023-12-06T12:05:50Z</time><name>PT4804</name></trkpt>
<trkpt lat="51.796202" lon="03.913445"><ele>1.2</ele><time>2023-12-06T12:05:52Z</time><name>PT4805</name></trkpt>
<trkpt lat="51.796203" lon="03.913465"><ele>1.2</ele><time>2023-12-06T12:05:53Z</time><name>PT4806</name></trkpt>
<trkpt lat="51.796203" lon="03.913482"><ele>1.2</ele><time>2023-12-06T12:05:53Z</time><name>PT4807</name></trkpt>
<trkpt lat="51.796202" lon="03.913501"><ele>1.1</ele><time>2023-12-06T12:05:55Z</time><name>PT4808</name></trkpt>
<trkpt lat="51.796201" lon="03.913520"><ele>0.9</ele><time>2023-12-06T12:05:56Z</time><name>PT4809</name></trkpt>
<trkpt lat="51.796200" lon="03.913538"><ele>0.9</ele><time>2023-12-06T12:05:56Z</time><name>PT4810</name></trkpt>
<trkpt lat="51.796198" lon="03.913555"><ele>1</ele><time>2023-12-06T12:05:58Z</time><name>PT4811</name></trkpt>
<trkpt lat="51.796197" lon="03.913573"><ele>1.1</ele><time>2023-12-06T12:05:59Z</time><name>PT4812</name></trkpt>
<trkpt lat="51.796198" lon="03.913584"><ele>1.2</ele><time>2023-12-06T12:05:59Z</time><name>PT4813</name></trkpt>
<trkpt lat="51.796197" lon="03.913587"><ele>1.4</ele><time>2023-12-06T12:06:01Z</time><name>PT4814</name></trkpt>
<trkpt lat="51.796198" lon="03.913587"><ele>1.3</ele><time>2023-12-06T12:06:02Z</time><name>PT4815</name></trkpt>
<trkpt lat="51.796198" lon="03.913587"><ele>1.3</ele><time>2023-12-06T12:06:02Z</time><name>PT4816</name></trkpt>
<trkpt lat="51.796197" lon="03.913590"><ele>1.3</ele><time>2023-12-06T12:06:08Z</time><name>PT4817</name></trkpt>
<trkpt lat="51.796196" lon="03.913607"><ele>1.2</ele><time>2023-12-06T12:06:10Z</time><name>PT4818</name></trkpt>
<trkpt lat="51.796195" lon="03.913625"><ele>1.2</ele><time>2023-12-06T12:06:11Z</time><name>PT4819</name></trkpt>
<trkpt lat="51.796194" lon="03.913643"><ele>1.1</ele><time>2023-12-06T12:06:11Z</time><name>PT4820</name></trkpt>
<trkpt lat="51.796192" lon="03.913659"><ele>1.1</ele><time>2023-12-06T12:06:13Z</time><name>PT4821</name></trkpt>
<trkpt lat="51.796191" lon="03.913674"><ele>1.2</ele><time>2023-12-06T12:06:14Z</time><name>PT4822</name></trkpt>
<trkpt lat="51.796189" lon="03.913688"><ele>1.1</ele><time>2023-12-06T12:06:14Z</time><name>PT4823</name></trkpt>
<trkpt lat="51.796187" lon="03.913701"><ele>1</ele><time>2023-12-06T12:06:16Z</time><name>PT4824</name></trkpt>
<trkpt lat="51.796187" lon="03.913711"><ele>1</ele><time>2023-12-06T12:06:17Z</time><name>PT4825</name></trkpt>
<trkpt lat="51.796188" lon="03.913717"><ele>0.9</ele><time>2023-12-06T12:06:17Z</time><name>PT4826</name></trkpt>
<trkpt lat="51.796188" lon="03.913717"><ele>0.6</ele><time>2023-12-06T12:06:19Z</time><name>PT4827</name></trkpt>
<trkpt lat="51.796187" lon="03.913719"><ele>0.5</ele><time>2023-12-06T12:06:20Z</time><name>PT4828</name></trkpt>
<trkpt lat="51.796184" lon="03.913723"><ele>0.8</ele><time>2023-12-06T12:06:22Z</time><name>PT4829</name></trkpt>
<trkpt lat="51.796181" lon="03.913738"><ele>1</ele><time>2023-12-06T12:06:23Z</time><name>PT4830</name></trkpt>
<trkpt lat="51.796179" lon="03.913754"><ele>1.2</ele><time>2023-12-06T12:06:23Z</time><name>PT4831</name></trkpt>
<trkpt lat="51.796177" lon="03.913767"><ele>1.4</ele><time>2023-12-06T12:06:25Z</time><name>PT4832</name></trkpt>
<trkpt lat="51.796177" lon="03.913777"><ele>1.3</ele><time>2023-12-06T12:06:26Z</time><name>PT4833</name></trkpt>
<trkpt lat="51.796176" lon="03.913781"><ele>1.3</ele><time>2023-12-06T12:06:26Z</time><name>PT4834</name></trkpt>
<trkpt lat="51.796176" lon="03.913782"><ele>1.3</ele><time>2023-12-06T12:06:28Z</time><name>PT4835</name></trkpt>
<trkpt lat="51.796176" lon="03.913782"><ele>1.1</ele><time>2023-12-06T12:06:29Z</time><name>PT4836</name></trkpt>
<trkpt lat="51.796176" lon="03.913786"><ele>0.8</ele><time>2023-12-06T12:06:56Z</time><name>PT4837</name></trkpt>
<trkpt lat="51.796177" lon="03.913788"><ele>0.8</ele><time>2023-12-06T12:06:56Z</time><name>PT4838</name></trkpt>
<trkpt lat="51.796177" lon="03.913791"><ele>1.3</ele><time>2023-12-06T12:07:26Z</time><name>PT4839</name></trkpt>
<trkpt lat="51.796175" lon="03.913800"><ele>1.2</ele><time>2023-12-06T12:07:26Z</time><name>PT4840</name></trkpt>
<trkpt lat="51.796173" lon="03.913807"><ele>1</ele><time>2023-12-06T12:07:28Z</time><name>PT4841</name></trkpt>
<trkpt lat="51.796171" lon="03.913819"><ele>1.1</ele><time>2023-12-06T12:07:29Z</time><name>PT4842</name></trkpt>
<trkpt lat="51.796169" lon="03.913826"><ele>1</ele><time>2023-12-06T12:07:29Z</time><name>PT4843</name></trkpt>
<trkpt lat="51.796169" lon="03.913829"><ele>0.8</ele><time>2023-12-06T12:07:31Z</time><name>PT4844</name></trkpt>
<trkpt lat="51.796166" lon="03.913832"><ele>0.9</ele><time>2023-12-06T12:07:38Z</time><name>PT4845</name></trkpt>
<trkpt lat="51.796163" lon="03.913842"><ele>1</ele><time>2023-12-06T12:07:40Z</time><name>PT4846</name></trkpt>
<trkpt lat="51.796161" lon="03.913851"><ele>0.9</ele><time>2023-12-06T12:07:41Z</time><name>PT4847</name></trkpt>
<trkpt lat="51.796159" lon="03.913860"><ele>0.9</ele><time>2023-12-06T12:07:41Z</time><name>PT4848</name></trkpt>
<trkpt lat="51.796157" lon="03.913867"><ele>0.8</ele><time>2023-12-06T12:07:43Z</time><name>PT4849</name></trkpt>
<trkpt lat="51.796155" lon="03.913878"><ele>0.8</ele><time>2023-12-06T12:07:44Z</time><name>PT4850</name></trkpt>
<trkpt lat="51.796153" lon="03.913889"><ele>0.8</ele><time>2023-12-06T12:07:44Z</time><name>PT4851</name></trkpt>
<trkpt lat="51.796151" lon="03.913897"><ele>0.9</ele><time>2023-12-06T12:07:46Z</time><name>PT4852</name></trkpt>
<trkpt lat="51.796151" lon="03.913901"><ele>1.1</ele><time>2023-12-06T12:07:47Z</time><name>PT4853</name></trkpt>
<trkpt lat="51.796150" lon="03.913904"><ele>1.2</ele><time>2023-12-06T12:07:47Z</time><name>PT4854</name></trkpt>
<trkpt lat="51.796149" lon="03.913905"><ele>1.3</ele><time>2023-12-06T12:07:49Z</time><name>PT4855</name></trkpt>
<trkpt lat="51.796151" lon="03.913908"><ele>1.3</ele><time>2023-12-06T12:08:08Z</time><name>PT4856</name></trkpt>
<trkpt lat="51.796148" lon="03.913917"><ele>1.3</ele><time>2023-12-06T12:08:10Z</time><name>PT4857</name></trkpt>
<trkpt lat="51.796145" lon="03.913925"><ele>1.1</ele><time>2023-12-06T12:08:11Z</time><name>PT4858</name></trkpt>
<trkpt lat="51.796143" lon="03.913934"><ele>1</ele><time>2023-12-06T12:08:11Z</time><name>PT4859</name></trkpt>
<trkpt lat="51.796140" lon="03.913942"><ele>0.9</ele><time>2023-12-06T12:08:13Z</time><name>PT4860</name></trkpt>
<trkpt lat="51.796136" lon="03.913949"><ele>0.9</ele><time>2023-12-06T12:08:14Z</time><name>PT4861</name></trkpt>
<trkpt lat="51.796134" lon="03.913958"><ele>0.8</ele><time>2023-12-06T12:08:14Z</time><name>PT4862</name></trkpt>
<trkpt lat="51.796131" lon="03.913966"><ele>0.8</ele><time>2023-12-06T12:08:16Z</time><name>PT4863</name></trkpt>
<trkpt lat="51.796128" lon="03.913973"><ele>0.8</ele><time>2023-12-06T12:08:17Z</time><name>PT4864</name></trkpt>
<trkpt lat="51.796126" lon="03.913982"><ele>0.9</ele><time>2023-12-06T12:08:17Z</time><name>PT4865</name></trkpt>
<trkpt lat="51.796125" lon="03.913989"><ele>1.2</ele><time>2023-12-06T12:08:19Z</time><name>PT4866</name></trkpt>
<trkpt lat="51.796124" lon="03.913994"><ele>1.1</ele><time>2023-12-06T12:08:20Z</time><name>PT4867</name></trkpt>
<trkpt lat="51.796125" lon="03.913992"><ele>1.1</ele><time>2023-12-06T12:08:20Z</time><name>PT4868</name></trkpt>
<trkpt lat="51.796129" lon="03.913985"><ele>1</ele><time>2023-12-06T12:08:22Z</time><name>PT4869</name></trkpt>
<trkpt lat="51.796130" lon="03.913984"><ele>0.8</ele><time>2023-12-06T12:08:23Z</time><name>PT4870</name></trkpt>
<trkpt lat="51.796129" lon="03.913994"><ele>1.3</ele><time>2023-12-06T12:08:59Z</time><name>PT4871</name></trkpt>
<trkpt lat="51.796128" lon="03.914019"><ele>1.3</ele><time>2023-12-06T12:08:59Z</time><name>PT4872</name></trkpt>
<trkpt lat="51.796120" lon="03.914033"><ele>1.3</ele><time>2023-12-06T12:09:01Z</time><name>PT4873</name></trkpt>
<trkpt lat="51.796116" lon="03.914053"><ele>1.3</ele><time>2023-12-06T12:09:02Z</time><name>PT4874</name></trkpt>
<trkpt lat="51.796110" lon="03.914069"><ele>1.4</ele><time>2023-12-06T12:09:02Z</time><name>PT4875</name></trkpt>
<trkpt lat="51.796102" lon="03.914084"><ele>1.3</ele><time>2023-12-06T12:09:04Z</time><name>PT4876</name></trkpt>
<trkpt lat="51.796096" lon="03.914103"><ele>1.5</ele><time>2023-12-06T12:09:05Z</time><name>PT4877</name></trkpt>
<trkpt lat="51.796091" lon="03.914119"><ele>1.4</ele><time>2023-12-06T12:09:05Z</time><name>PT4878</name></trkpt>
<trkpt lat="51.796085" lon="03.914136"><ele>1.4</ele><time>2023-12-06T12:09:07Z</time><name>PT4879</name></trkpt>
<trkpt lat="51.796079" lon="03.914153"><ele>1.3</ele><time>2023-12-06T12:09:08Z</time><name>PT4880</name></trkpt>
<trkpt lat="51.796074" lon="03.914169"><ele>1.3</ele><time>2023-12-06T12:09:08Z</time><name>PT4881</name></trkpt>
<trkpt lat="51.796068" lon="03.914185"><ele>1.4</ele><time>2023-12-06T12:09:10Z</time><name>PT4882</name></trkpt>
<trkpt lat="51.796059" lon="03.914200"><ele>1.3</ele><time>2023-12-06T12:09:11Z</time><name>PT4883</name></trkpt>
<trkpt lat="51.796051" lon="03.914216"><ele>1.3</ele><time>2023-12-06T12:09:11Z</time><name>PT4884</name></trkpt>
<trkpt lat="51.796044" lon="03.914234"><ele>1.3</ele><time>2023-12-06T12:09:13Z</time><name>PT4885</name></trkpt>
<trkpt lat="51.796042" lon="03.914247"><ele>1.4</ele><time>2023-12-06T12:09:14Z</time><name>PT4886</name></trkpt>
<trkpt lat="51.796039" lon="03.914262"><ele>1.4</ele><time>2023-12-06T12:09:14Z</time><name>PT4887</name></trkpt>
<trkpt lat="51.796036" lon="03.914275"><ele>1.5</ele><time>2023-12-06T12:09:16Z</time><name>PT4888</name></trkpt>
<trkpt lat="51.796034" lon="03.914281"><ele>1.4</ele><time>2023-12-06T12:09:17Z</time><name>PT4889</name></trkpt>
<trkpt lat="51.796030" lon="03.914288"><ele>1.2</ele><time>2023-12-06T12:09:17Z</time><name>PT4890</name></trkpt>
<trkpt lat="51.796025" lon="03.914298"><ele>1.3</ele><time>2023-12-06T12:09:19Z</time><name>PT4891</name></trkpt>
<trkpt lat="51.796020" lon="03.914310"><ele>1.3</ele><time>2023-12-06T12:09:20Z</time><name>PT4892</name></trkpt>
<trkpt lat="51.796015" lon="03.914325"><ele>1.3</ele><time>2023-12-06T12:09:20Z</time><name>PT4893</name></trkpt>
<trkpt lat="51.796010" lon="03.914342"><ele>1.4</ele><time>2023-12-06T12:09:22Z</time><name>PT4894</name></trkpt>
<trkpt lat="51.796006" lon="03.914356"><ele>1.4</ele><time>2023-12-06T12:09:23Z</time><name>PT4895</name></trkpt>
<trkpt lat="51.796000" lon="03.914371"><ele>1.3</ele><time>2023-12-06T12:09:23Z</time><name>PT4896</name></trkpt>
<trkpt lat="51.795994" lon="03.914385"><ele>1.3</ele><time>2023-12-06T12:09:25Z</time><name>PT4897</name></trkpt>
<trkpt lat="51.795989" lon="03.914398"><ele>1.3</ele><time>2023-12-06T12:09:26Z</time><name>PT4898</name></trkpt>
<trkpt lat="51.795985" lon="03.914413"><ele>1.3</ele><time>2023-12-06T12:09:26Z</time><name>PT4899</name></trkpt>
<trkpt lat="51.795980" lon="03.914428"><ele>1.2</ele><time>2023-12-06T12:09:28Z</time><name>PT4900</name></trkpt>
<trkpt lat="51.795976" lon="03.914444"><ele>1.2</ele><time>2023-12-06T12:09:29Z</time><name>PT4901</name></trkpt>
<trkpt lat="51.795972" lon="03.914461"><ele>1.3</ele><time>2023-12-06T12:09:29Z</time><name>PT4902</name></trkpt>
<trkpt lat="51.795966" lon="03.914479"><ele>1.3</ele><time>2023-12-06T12:09:31Z</time><name>PT4903</name></trkpt>
<trkpt lat="51.795961" lon="03.914494"><ele>1.3</ele><time>2023-12-06T12:09:32Z</time><name>PT4904</name></trkpt>
<trkpt lat="51.795957" lon="03.914510"><ele>1.5</ele><time>2023-12-06T12:09:32Z</time><name>PT4905</name></trkpt>
<trkpt lat="51.795952" lon="03.914526"><ele>1.6</ele><time>2023-12-06T12:09:34Z</time><name>PT4906</name></trkpt>
<trkpt lat="51.795947" lon="03.914543"><ele>1.6</ele><time>2023-12-06T12:09:35Z</time><name>PT4907</name></trkpt>
<trkpt lat="51.795942" lon="03.914559"><ele>1.6</ele><time>2023-12-06T12:09:35Z</time><name>PT4908</name></trkpt>
<trkpt lat="51.795937" lon="03.914574"><ele>1.7</ele><time>2023-12-06T12:09:37Z</time><name>PT4909</name></trkpt>
<trkpt lat="51.795932" lon="03.914591"><ele>1.6</ele><time>2023-12-06T12:09:38Z</time><name>PT4910</name></trkpt>
<trkpt lat="51.795928" lon="03.914608"><ele>1.6</ele><time>2023-12-06T12:09:38Z</time><name>PT4911</name></trkpt>
<trkpt lat="51.795924" lon="03.914625"><ele>1.5</ele><time>2023-12-06T12:09:40Z</time><name>PT4912</name></trkpt>
<trkpt lat="51.795920" lon="03.914641"><ele>1.4</ele><time>2023-12-06T12:09:41Z</time><name>PT4913</name></trkpt>
<trkpt lat="51.795915" lon="03.914658"><ele>1.4</ele><time>2023-12-06T12:09:41Z</time><name>PT4914</name></trkpt>
<trkpt lat="51.795912" lon="03.914675"><ele>1.4</ele><time>2023-12-06T12:09:43Z</time><name>PT4915</name></trkpt>
<trkpt lat="51.795908" lon="03.914692"><ele>1.7</ele><time>2023-12-06T12:09:44Z</time><name>PT4916</name></trkpt>
<trkpt lat="51.795902" lon="03.914710"><ele>1.5</ele><time>2023-12-06T12:09:44Z</time><name>PT4917</name></trkpt>
<trkpt lat="51.795896" lon="03.914729"><ele>1.6</ele><time>2023-12-06T12:09:46Z</time><name>PT4918</name></trkpt>
<trkpt lat="51.795890" lon="03.914746"><ele>1.5</ele><time>2023-12-06T12:09:47Z</time><name>PT4919</name></trkpt>
<trkpt lat="51.795885" lon="03.914763"><ele>1.3</ele><time>2023-12-06T12:09:47Z</time><name>PT4920</name></trkpt>
<trkpt lat="51.795881" lon="03.914782"><ele>1.3</ele><time>2023-12-06T12:09:49Z</time><name>PT4921</name></trkpt>
<trkpt lat="51.795876" lon="03.914799"><ele>1.2</ele><time>2023-12-06T12:09:50Z</time><name>PT4922</name></trkpt>
<trkpt lat="51.795873" lon="03.914817"><ele>1.3</ele><time>2023-12-06T12:09:50Z</time><name>PT4923</name></trkpt>
<trkpt lat="51.795870" lon="03.914833"><ele>1.3</ele><time>2023-12-06T12:09:52Z</time><name>PT4924</name></trkpt>
<trkpt lat="51.795865" lon="03.914848"><ele>1.4</ele><time>2023-12-06T12:09:53Z</time><name>PT4925</name></trkpt>
<trkpt lat="51.795858" lon="03.914863"><ele>1.4</ele><time>2023-12-06T12:09:53Z</time><name>PT4926</name></trkpt>
<trkpt lat="51.795851" lon="03.914879"><ele>1.4</ele><time>2023-12-06T12:09:55Z</time><name>PT4927</name></trkpt>
<trkpt lat="51.795846" lon="03.914895"><ele>1.4</ele><time>2023-12-06T12:09:56Z</time><name>PT4928</name></trkpt>
<trkpt lat="51.795842" lon="03.914911"><ele>1.3</ele><time>2023-12-06T12:09:56Z</time><name>PT4929</name></trkpt>
<trkpt lat="51.795838" lon="03.914929"><ele>1.4</ele><time>2023-12-06T12:09:58Z</time><name>PT4930</name></trkpt>
<trkpt lat="51.795834" lon="03.914946"><ele>1.2</ele><time>2023-12-06T12:09:59Z</time><name>PT4931</name></trkpt>
<trkpt lat="51.795830" lon="03.914964"><ele>1.2</ele><time>2023-12-06T12:09:59Z</time><name>PT4932</name></trkpt>
<trkpt lat="51.795827" lon="03.914980"><ele>1.3</ele><time>2023-12-06T12:10:01Z</time><name>PT4933</name></trkpt>
<trkpt lat="51.795822" lon="03.914997"><ele>1.3</ele><time>2023-12-06T12:10:02Z</time><name>PT4934</name></trkpt>
<trkpt lat="51.795816" lon="03.915015"><ele>1.3</ele><time>2023-12-06T12:10:02Z</time><name>PT4935</name></trkpt>
<trkpt lat="51.795810" lon="03.915032"><ele>1.4</ele><time>2023-12-06T12:10:04Z</time><name>PT4936</name></trkpt>
<trkpt lat="51.795805" lon="03.915049"><ele>1.3</ele><time>2023-12-06T12:10:05Z</time><name>PT4937</name></trkpt>
<trkpt lat="51.795801" lon="03.915066"><ele>1.4</ele><time>2023-12-06T12:10:05Z</time><name>PT4938</name></trkpt>
<trkpt lat="51.795798" lon="03.915084"><ele>1.3</ele><time>2023-12-06T12:10:07Z</time><name>PT4939</name></trkpt>
<trkpt lat="51.795795" lon="03.915102"><ele>1.3</ele><time>2023-12-06T12:10:08Z</time><name>PT4940</name></trkpt>
<trkpt lat="51.795794" lon="03.915121"><ele>1.3</ele><time>2023-12-06T12:10:08Z</time><name>PT4941</name></trkpt>
<trkpt lat="51.795793" lon="03.915141"><ele>1.3</ele><time>2023-12-06T12:10:10Z</time><name>PT4942</name></trkpt>
<trkpt lat="51.795793" lon="03.915159"><ele>1.3</ele><time>2023-12-06T12:10:11Z</time><name>PT4943</name></trkpt>
<trkpt lat="51.795791" lon="03.915176"><ele>1.4</ele><time>2023-12-06T12:10:11Z</time><name>PT4944</name></trkpt>
<trkpt lat="51.795789" lon="03.915193"><ele>1.4</ele><time>2023-12-06T12:10:13Z</time><name>PT4945</name></trkpt>
<trkpt lat="51.795787" lon="03.915210"><ele>1.6</ele><time>2023-12-06T12:10:14Z</time><name>PT4946</name></trkpt>
<trkpt lat="51.795786" lon="03.915226"><ele>1.7</ele><time>2023-12-06T12:10:14Z</time><name>PT4947</name></trkpt>
<trkpt lat="51.795787" lon="03.915244"><ele>1.5</ele><time>2023-12-06T12:10:16Z</time><name>PT4948</name></trkpt>
<trkpt lat="51.795789" lon="03.915261"><ele>1.5</ele><time>2023-12-06T12:10:17Z</time><name>PT4949</name></trkpt>
<trkpt lat="51.795789" lon="03.915280"><ele>1.5</ele><time>2023-12-06T12:10:17Z</time><name>PT4950</name></trkpt>
<trkpt lat="51.795790" lon="03.915299"><ele>1.5</ele><time>2023-12-06T12:10:19Z</time><name>PT4951</name></trkpt>
<trkpt lat="51.795790" lon="03.915318"><ele>1.5</ele><time>2023-12-06T12:10:20Z</time><name>PT4952</name></trkpt>
<trkpt lat="51.795791" lon="03.915338"><ele>1.6</ele><time>2023-12-06T12:10:20Z</time><name>PT4953</name></trkpt>
<trkpt lat="51.795792" lon="03.915359"><ele>1.4</ele><time>2023-12-06T12:10:22Z</time><name>PT4954</name></trkpt>
<trkpt lat="51.795793" lon="03.915377"><ele>1.4</ele><time>2023-12-06T12:10:23Z</time><name>PT4955</name></trkpt>
<trkpt lat="51.795796" lon="03.915394"><ele>1.4</ele><time>2023-12-06T12:10:23Z</time><name>PT4956</name></trkpt>
<trkpt lat="51.795799" lon="03.915413"><ele>1.3</ele><time>2023-12-06T12:10:25Z</time><name>PT4957</name></trkpt>
<trkpt lat="51.795801" lon="03.915433"><ele>1.6</ele><time>2023-12-06T12:10:26Z</time><name>PT4958</name></trkpt>
<trkpt lat="51.795803" lon="03.915454"><ele>1.5</ele><time>2023-12-06T12:10:26Z</time><name>PT4959</name></trkpt>
<trkpt lat="51.795805" lon="03.915474"><ele>1.5</ele><time>2023-12-06T12:10:28Z</time><name>PT4960</name></trkpt>
<trkpt lat="51.795807" lon="03.915490"><ele>1.6</ele><time>2023-12-06T12:10:29Z</time><name>PT4961</name></trkpt>
<trkpt lat="51.795810" lon="03.915506"><ele>1.5</ele><time>2023-12-06T12:10:29Z</time><name>PT4962</name></trkpt>
<trkpt lat="51.795813" lon="03.915522"><ele>1.5</ele><time>2023-12-06T12:10:31Z</time><name>PT4963</name></trkpt>
<trkpt lat="51.795818" lon="03.915537"><ele>1.4</ele><time>2023-12-06T12:10:32Z</time><name>PT4964</name></trkpt>
<trkpt lat="51.795821" lon="03.915552"><ele>1.5</ele><time>2023-12-06T12:10:32Z</time><name>PT4965</name></trkpt>
<trkpt lat="51.795823" lon="03.915568"><ele>1.3</ele><time>2023-12-06T12:10:34Z</time><name>PT4966</name></trkpt>
<trkpt lat="51.795826" lon="03.915584"><ele>1.3</ele><time>2023-12-06T12:10:35Z</time><name>PT4967</name></trkpt>
<trkpt lat="51.795829" lon="03.915600"><ele>1.4</ele><time>2023-12-06T12:10:35Z</time><name>PT4968</name></trkpt>
<trkpt lat="51.795833" lon="03.915616"><ele>1.7</ele><time>2023-12-06T12:10:37Z</time><name>PT4969</name></trkpt>
<trkpt lat="51.795837" lon="03.915633"><ele>1.8</ele><time>2023-12-06T12:10:38Z</time><name>PT4970</name></trkpt>
<trkpt lat="51.795841" lon="03.915649"><ele>1.7</ele><time>2023-12-06T12:10:38Z</time><name>PT4971</name></trkpt>
<trkpt lat="51.795845" lon="03.915665"><ele>1.7</ele><time>2023-12-06T12:10:40Z</time><name>PT4972</name></trkpt>
<trkpt lat="51.795848" lon="03.915682"><ele>1.5</ele><time>2023-12-06T12:10:41Z</time><name>PT4973</name></trkpt>
<trkpt lat="51.795852" lon="03.915701"><ele>1.3</ele><time>2023-12-06T12:10:41Z</time><name>PT4974</name></trkpt>
<trkpt lat="51.795855" lon="03.915717"><ele>1.3</ele><time>2023-12-06T12:10:43Z</time><name>PT4975</name></trkpt>
<trkpt lat="51.795858" lon="03.915734"><ele>1.3</ele><time>2023-12-06T12:10:44Z</time><name>PT4976</name></trkpt>
<trkpt lat="51.795862" lon="03.915750"><ele>1.4</ele><time>2023-12-06T12:10:44Z</time><name>PT4977</name></trkpt>
<trkpt lat="51.795867" lon="03.915766"><ele>1.4</ele><time>2023-12-06T12:10:46Z</time><name>PT4978</name></trkpt>
<trkpt lat="51.795871" lon="03.915782"><ele>1.5</ele><time>2023-12-06T12:10:47Z</time><name>PT4979</name></trkpt>
<trkpt lat="51.795874" lon="03.915798"><ele>1.4</ele><time>2023-12-06T12:10:47Z</time><name>PT4980</name></trkpt>
<trkpt lat="51.795876" lon="03.915816"><ele>1.4</ele><time>2023-12-06T12:10:49Z</time><name>PT4981</name></trkpt>
<trkpt lat="51.795878" lon="03.915831"><ele>1.3</ele><time>2023-12-06T12:10:50Z</time><name>PT4982</name></trkpt>
<trkpt lat="51.795883" lon="03.915847"><ele>1.4</ele><time>2023-12-06T12:10:50Z</time><name>PT4983</name></trkpt>
<trkpt lat="51.795887" lon="03.915864"><ele>1.4</ele><time>2023-12-06T12:10:52Z</time><name>PT4984</name></trkpt>
<trkpt lat="51.795893" lon="03.915879"><ele>1.5</ele><time>2023-12-06T12:10:53Z</time><name>PT4985</name></trkpt>
<trkpt lat="51.795896" lon="03.915894"><ele>1.6</ele><time>2023-12-06T12:10:53Z</time><name>PT4986</name></trkpt>
<trkpt lat="51.795899" lon="03.915911"><ele>1.8</ele><time>2023-12-06T12:10:55Z</time><name>PT4987</name></trkpt>
<trkpt lat="51.795901" lon="03.915929"><ele>1.6</ele><time>2023-12-06T12:10:56Z</time><name>PT4988</name></trkpt>
<trkpt lat="51.795904" lon="03.915946"><ele>1.6</ele><time>2023-12-06T12:10:56Z</time><name>PT4989</name></trkpt>
<trkpt lat="51.795907" lon="03.915961"><ele>1.6</ele><time>2023-12-06T12:10:58Z</time><name>PT4990</name></trkpt>
<trkpt lat="51.795912" lon="03.915975"><ele>1.7</ele><time>2023-12-06T12:10:59Z</time><name>PT4991</name></trkpt>
<trkpt lat="51.795917" lon="03.915992"><ele>1.7</ele><time>2023-12-06T12:10:59Z</time><name>PT4992</name></trkpt>
<trkpt lat="51.795921" lon="03.916007"><ele>1.7</ele><time>2023-12-06T12:11:01Z</time><name>PT4993</name></trkpt>
<trkpt lat="51.795925" lon="03.916023"><ele>1.7</ele><time>2023-12-06T12:11:02Z</time><name>PT4994</name></trkpt>
<trkpt lat="51.795928" lon="03.916042"><ele>1.5</ele><time>2023-12-06T12:11:02Z</time><name>PT4995</name></trkpt>
<trkpt lat="51.795931" lon="03.916060"><ele>1.5</ele><time>2023-12-06T12:11:04Z</time><name>PT4996</name></trkpt>
<trkpt lat="51.795934" lon="03.916075"><ele>1.6</ele><time>2023-12-06T12:11:05Z</time><name>PT4997</name></trkpt>
<trkpt lat="51.795937" lon="03.916090"><ele>1.6</ele><time>2023-12-06T12:11:05Z</time><name>PT4998</name></trkpt>
<trkpt lat="51.795941" lon="03.916106"><ele>1.7</ele><time>2023-12-06T12:11:07Z</time><name>PT4999</name></trkpt>
<trkpt lat="51.795945" lon="03.916123"><ele>1.8</ele><time>2023-12-06T12:11:08Z</time><name>PT5000</name></trkpt>
<trkpt lat="51.795950" lon="03.916140"><ele>1.8</ele><time>2023-12-06T12:11:08Z</time><name>PT5001</name></trkpt>
<trkpt lat="51.795956" lon="03.916155"><ele>1.7</ele><time>2023-12-06T12:11:10Z</time><name>PT5002</name></trkpt>
<trkpt lat="51.795959" lon="03.916172"><ele>1.7</ele><time>2023-12-06T12:11:11Z</time><name>PT5003</name></trkpt>
<trkpt lat="51.795964" lon="03.916189"><ele>1.6</ele><time>2023-12-06T12:11:11Z</time><name>PT5004</name></trkpt>
<trkpt lat="51.795968" lon="03.916205"><ele>1.6</ele><time>2023-12-06T12:11:13Z</time><name>PT5005</name></trkpt>
<trkpt lat="51.795972" lon="03.916220"><ele>1.5</ele><time>2023-12-06T12:11:14Z</time><name>PT5006</name></trkpt>
<trkpt lat="51.795977" lon="03.916235"><ele>1.5</ele><time>2023-12-06T12:11:14Z</time><name>PT5007</name></trkpt>
<trkpt lat="51.795982" lon="03.916249"><ele>1.6</ele><time>2023-12-06T12:11:16Z</time><name>PT5008</name></trkpt>
<trkpt lat="51.795986" lon="03.916264"><ele>1.7</ele><time>2023-12-06T12:11:17Z</time><name>PT5009</name></trkpt>
<trkpt lat="51.795990" lon="03.916281"><ele>1.8</ele><time>2023-12-06T12:11:17Z</time><name>PT5010</name></trkpt>
<trkpt lat="51.795994" lon="03.916300"><ele>2</ele><time>2023-12-06T12:11:19Z</time><name>PT5011</name></trkpt>
<trkpt lat="51.795999" lon="03.916317"><ele>1.9</ele><time>2023-12-06T12:11:20Z</time><name>PT5012</name></trkpt>
<trkpt lat="51.796005" lon="03.916332"><ele>1.8</ele><time>2023-12-06T12:11:20Z</time><name>PT5013</name></trkpt>
<trkpt lat="51.796010" lon="03.916345"><ele>1.9</ele><time>2023-12-06T12:11:22Z</time><name>PT5014</name></trkpt>
<trkpt lat="51.796016" lon="03.916360"><ele>1.8</ele><time>2023-12-06T12:11:23Z</time><name>PT5015</name></trkpt>
<trkpt lat="51.796021" lon="03.916375"><ele>1.8</ele><time>2023-12-06T12:11:23Z</time><name>PT5016</name></trkpt>
<trkpt lat="51.796028" lon="03.916390"><ele>1.8</ele><time>2023-12-06T12:11:25Z</time><name>PT5017</name></trkpt>
<trkpt lat="51.796033" lon="03.916406"><ele>1.7</ele><time>2023-12-06T12:11:26Z</time><name>PT5018</name></trkpt>
<trkpt lat="51.796038" lon="03.916423"><ele>1.6</ele><time>2023-12-06T12:11:26Z</time><name>PT5019</name></trkpt>
<trkpt lat="51.796043" lon="03.916439"><ele>1.4</ele><time>2023-12-06T12:11:28Z</time><name>PT5020</name></trkpt>
<trkpt lat="51.796049" lon="03.916453"><ele>1.5</ele><time>2023-12-06T12:11:29Z</time><name>PT5021</name></trkpt>
<trkpt lat="51.796055" lon="03.916467"><ele>1.5</ele><time>2023-12-06T12:11:29Z</time><name>PT5022</name></trkpt>
<trkpt lat="51.796061" lon="03.916482"><ele>1.3</ele><time>2023-12-06T12:11:31Z</time><name>PT5023</name></trkpt>
<trkpt lat="51.796067" lon="03.916497"><ele>1.5</ele><time>2023-12-06T12:11:32Z</time><name>PT5024</name></trkpt>
<trkpt lat="51.796074" lon="03.916511"><ele>1.5</ele><time>2023-12-06T12:11:32Z</time><name>PT5025</name></trkpt>
<trkpt lat="51.796079" lon="03.916526"><ele>1.5</ele><time>2023-12-06T12:11:34Z</time><name>PT5026</name></trkpt>
<trkpt lat="51.796085" lon="03.916541"><ele>1.8</ele><time>2023-12-06T12:11:35Z</time><name>PT5027</name></trkpt>
<trkpt lat="51.796091" lon="03.916555"><ele>1.7</ele><time>2023-12-06T12:11:35Z</time><name>PT5028</name></trkpt>
<trkpt lat="51.796097" lon="03.916570"><ele>1.7</ele><time>2023-12-06T12:11:37Z</time><name>PT5029</name></trkpt>
<trkpt lat="51.796103" lon="03.916585"><ele>1.5</ele><time>2023-12-06T12:11:38Z</time><name>PT5030</name></trkpt>
<trkpt lat="51.796109" lon="03.916599"><ele>1.4</ele><time>2023-12-06T12:11:38Z</time><name>PT5031</name></trkpt>
<trkpt lat="51.796114" lon="03.916614"><ele>1.5</ele><time>2023-12-06T12:11:40Z</time><name>PT5032</name></trkpt>
<trkpt lat="51.796120" lon="03.916629"><ele>1.3</ele><time>2023-12-06T12:11:41Z</time><name>PT5033</name></trkpt>
<trkpt lat="51.796125" lon="03.916646"><ele>1.4</ele><time>2023-12-06T12:11:41Z</time><name>PT5034</name></trkpt>
<trkpt lat="51.796131" lon="03.916662"><ele>1.7</ele><time>2023-12-06T12:11:43Z</time><name>PT5035</name></trkpt>
<trkpt lat="51.796137" lon="03.916676"><ele>1.5</ele><time>2023-12-06T12:11:44Z</time><name>PT5036</name></trkpt>
<trkpt lat="51.796143" lon="03.916685"><ele>1.6</ele><time>2023-12-06T12:11:44Z</time><name>PT5037</name></trkpt>
<trkpt lat="51.796144" lon="03.916690"><ele>1.7</ele><time>2023-12-06T12:11:46Z</time><name>PT5038</name></trkpt>
<trkpt lat="51.796146" lon="03.916696"><ele>1.7</ele><time>2023-12-06T12:11:47Z</time><name>PT5039</name></trkpt>
<trkpt lat="51.796151" lon="03.916707"><ele>1.7</ele><time>2023-12-06T12:11:47Z</time><name>PT5040</name></trkpt>
<trkpt lat="51.796156" lon="03.916719"><ele>1.7</ele><time>2023-12-06T12:11:49Z</time><name>PT5041</name></trkpt>
<trkpt lat="51.796160" lon="03.916730"><ele>1.7</ele><time>2023-12-06T12:11:50Z</time><name>PT5042</name></trkpt>
<trkpt lat="51.796163" lon="03.916742"><ele>1.5</ele><time>2023-12-06T12:11:50Z</time><name>PT5043</name></trkpt>
<trkpt lat="51.796166" lon="03.916753"><ele>1.5</ele><time>2023-12-06T12:11:52Z</time><name>PT5044</name></trkpt>
<trkpt lat="51.796170" lon="03.916762"><ele>1.3</ele><time>2023-12-06T12:11:53Z</time><name>PT5045</name></trkpt>
<trkpt lat="51.796174" lon="03.916774"><ele>1.3</ele><time>2023-12-06T12:11:53Z</time><name>PT5046</name></trkpt>
<trkpt lat="51.796180" lon="03.916787"><ele>1.3</ele><time>2023-12-06T12:11:55Z</time><name>PT5047</name></trkpt>
<trkpt lat="51.796185" lon="03.916798"><ele>1.3</ele><time>2023-12-06T12:11:56Z</time><name>PT5048</name></trkpt>
<trkpt lat="51.796188" lon="03.916809"><ele>1.3</ele><time>2023-12-06T12:11:56Z</time><name>PT5049</name></trkpt>
<trkpt lat="51.796192" lon="03.916818"><ele>1.3</ele><time>2023-12-06T12:11:58Z</time><name>PT5050</name></trkpt>
<trkpt lat="51.796196" lon="03.916823"><ele>1.2</ele><time>2023-12-06T12:11:59Z</time><name>PT5051</name></trkpt>
<trkpt lat="51.796199" lon="03.916827"><ele>1.2</ele><time>2023-12-06T12:11:59Z</time><name>PT5052</name></trkpt>
<trkpt lat="51.796199" lon="03.916831"><ele>1.3</ele><time>2023-12-06T12:12:01Z</time><name>PT5053</name></trkpt>
<trkpt lat="51.796199" lon="03.916832"><ele>1.3</ele><time>2023-12-06T12:12:02Z</time><name>PT5054</name></trkpt>
<trkpt lat="51.796199" lon="03.916837"><ele>1.3</ele><time>2023-12-06T12:12:02Z</time><name>PT5055</name></trkpt>
<trkpt lat="51.796199" lon="03.916841"><ele>1.4</ele><time>2023-12-06T12:12:04Z</time><name>PT5056</name></trkpt>
<trkpt lat="51.796199" lon="03.916843"><ele>1.4</ele><time>2023-12-06T12:12:05Z</time><name>PT5057</name></trkpt>
<trkpt lat="51.796200" lon="03.916843"><ele>1.5</ele><time>2023-12-06T12:12:05Z</time><name>PT5058</name></trkpt>
<trkpt lat="51.796200" lon="03.916844"><ele>1.6</ele><time>2023-12-06T12:12:07Z</time><name>PT5059</name></trkpt>
<trkpt lat="51.796201" lon="03.916841"><ele>1.3</ele><time>2023-12-06T12:12:20Z</time><name>PT5060</name></trkpt>
<trkpt lat="51.796202" lon="03.916842"><ele>1.5</ele><time>2023-12-06T12:12:20Z</time><name>PT5061</name></trkpt>
<trkpt lat="51.796204" lon="03.916850"><ele>1.7</ele><time>2023-12-06T12:12:23Z</time><name>PT5062</name></trkpt>
<trkpt lat="51.796209" lon="03.916870"><ele>1.7</ele><time>2023-12-06T12:12:25Z</time><name>PT5063</name></trkpt>
<trkpt lat="51.796214" lon="03.916889"><ele>1.5</ele><time>2023-12-06T12:12:26Z</time><name>PT5064</name></trkpt>
<trkpt lat="51.796218" lon="03.916907"><ele>1.3</ele><time>2023-12-06T12:12:26Z</time><name>PT5065</name></trkpt>
<trkpt lat="51.796223" lon="03.916924"><ele>1.4</ele><time>2023-12-06T12:12:28Z</time><name>PT5066</name></trkpt>
<trkpt lat="51.796228" lon="03.916942"><ele>1.4</ele><time>2023-12-06T12:12:29Z</time><name>PT5067</name></trkpt>
<trkpt lat="51.796233" lon="03.916956"><ele>1.4</ele><time>2023-12-06T12:12:29Z</time><name>PT5068</name></trkpt>
<trkpt lat="51.796240" lon="03.916970"><ele>1.6</ele><time>2023-12-06T12:12:31Z</time><name>PT5069</name></trkpt>
<trkpt lat="51.796247" lon="03.916984"><ele>1.4</ele><time>2023-12-06T12:12:32Z</time><name>PT5070</name></trkpt>
<trkpt lat="51.796253" lon="03.916999"><ele>1.4</ele><time>2023-12-06T12:12:32Z</time><name>PT5071</name></trkpt>
<trkpt lat="51.796259" lon="03.917016"><ele>1.6</ele><time>2023-12-06T12:12:34Z</time><name>PT5072</name></trkpt>
<trkpt lat="51.796263" lon="03.917032"><ele>1.5</ele><time>2023-12-06T12:12:35Z</time><name>PT5073</name></trkpt>
<trkpt lat="51.796268" lon="03.917050"><ele>1.6</ele><time>2023-12-06T12:12:35Z</time><name>PT5074</name></trkpt>
<trkpt lat="51.796271" lon="03.917066"><ele>1.7</ele><time>2023-12-06T12:12:37Z</time><name>PT5075</name></trkpt>
<trkpt lat="51.796275" lon="03.917082"><ele>1.7</ele><time>2023-12-06T12:12:38Z</time><name>PT5076</name></trkpt>
<trkpt lat="51.796280" lon="03.917099"><ele>1.6</ele><time>2023-12-06T12:12:38Z</time><name>PT5077</name></trkpt>
<trkpt lat="51.796283" lon="03.917115"><ele>1.4</ele><time>2023-12-06T12:12:40Z</time><name>PT5078</name></trkpt>
<trkpt lat="51.796286" lon="03.917133"><ele>1.3</ele><time>2023-12-06T12:12:41Z</time><name>PT5079</name></trkpt>
<trkpt lat="51.796289" lon="03.917150"><ele>1.2</ele><time>2023-12-06T12:12:41Z</time><name>PT5080</name></trkpt>
<trkpt lat="51.796291" lon="03.917168"><ele>1.4</ele><time>2023-12-06T12:12:43Z</time><name>PT5081</name></trkpt>
<trkpt lat="51.796293" lon="03.917186"><ele>1.5</ele><time>2023-12-06T12:12:44Z</time><name>PT5082</name></trkpt>
<trkpt lat="51.796293" lon="03.917202"><ele>1.5</ele><time>2023-12-06T12:12:44Z</time><name>PT5083</name></trkpt>
<trkpt lat="51.796292" lon="03.917219"><ele>1.4</ele><time>2023-12-06T12:12:46Z</time><name>PT5084</name></trkpt>
<trkpt lat="51.796292" lon="03.917236"><ele>1.4</ele><time>2023-12-06T12:12:47Z</time><name>PT5085</name></trkpt>
<trkpt lat="51.796293" lon="03.917254"><ele>1.4</ele><time>2023-12-06T12:12:47Z</time><name>PT5086</name></trkpt>
<trkpt lat="51.796294" lon="03.917274"><ele>1.4</ele><time>2023-12-06T12:12:49Z</time><name>PT5087</name></trkpt>
<trkpt lat="51.796294" lon="03.917295"><ele>1.7</ele><time>2023-12-06T12:12:50Z</time><name>PT5088</name></trkpt>
<trkpt lat="51.796295" lon="03.917314"><ele>1.6</ele><time>2023-12-06T12:12:50Z</time><name>PT5089</name></trkpt>
<trkpt lat="51.796294" lon="03.917333"><ele>1.6</ele><time>2023-12-06T12:12:52Z</time><name>PT5090</name></trkpt>
<trkpt lat="51.796295" lon="03.917352"><ele>1.6</ele><time>2023-12-06T12:12:53Z</time><name>PT5091</name></trkpt>
<trkpt lat="51.796295" lon="03.917372"><ele>1.3</ele><time>2023-12-06T12:12:53Z</time><name>PT5092</name></trkpt>
<trkpt lat="51.796296" lon="03.917393"><ele>1.2</ele><time>2023-12-06T12:12:55Z</time><name>PT5093</name></trkpt>
<trkpt lat="51.796299" lon="03.917414"><ele>1.3</ele><time>2023-12-06T12:12:56Z</time><name>PT5094</name></trkpt>
<trkpt lat="51.796302" lon="03.917436"><ele>1.3</ele><time>2023-12-06T12:12:56Z</time><name>PT5095</name></trkpt>
<trkpt lat="51.796303" lon="03.917455"><ele>1.3</ele><time>2023-12-06T12:12:58Z</time><name>PT5096</name></trkpt>
<trkpt lat="51.796305" lon="03.917474"><ele>1.4</ele><time>2023-12-06T12:12:59Z</time><name>PT5097</name></trkpt>
<trkpt lat="51.796304" lon="03.917492"><ele>1.3</ele><time>2023-12-06T12:12:59Z</time><name>PT5098</name></trkpt>
<trkpt lat="51.796304" lon="03.917511"><ele>1.3</ele><time>2023-12-06T12:13:01Z</time><name>PT5099</name></trkpt>
<trkpt lat="51.796304" lon="03.917531"><ele>1.3</ele><time>2023-12-06T12:13:02Z</time><name>PT5100</name></trkpt>
<trkpt lat="51.796304" lon="03.917550"><ele>1.4</ele><time>2023-12-06T12:13:02Z</time><name>PT5101</name></trkpt>
<trkpt lat="51.796304" lon="03.917568"><ele>1.5</ele><time>2023-12-06T12:13:04Z</time><name>PT5102</name></trkpt>
<trkpt lat="51.796304" lon="03.917586"><ele>1.5</ele><time>2023-12-06T12:13:05Z</time><name>PT5103</name></trkpt>
<trkpt lat="51.796305" lon="03.917606"><ele>1.6</ele><time>2023-12-06T12:13:05Z</time><name>PT5104</name></trkpt>
<trkpt lat="51.796305" lon="03.917626"><ele>1.5</ele><time>2023-12-06T12:13:07Z</time><name>PT5105</name></trkpt>
<trkpt lat="51.796307" lon="03.917644"><ele>1.5</ele><time>2023-12-06T12:13:08Z</time><name>PT5106</name></trkpt>
<trkpt lat="51.796309" lon="03.917660"><ele>1.4</ele><time>2023-12-06T12:13:08Z</time><name>PT5107</name></trkpt>
<trkpt lat="51.796308" lon="03.917678"><ele>1.5</ele><time>2023-12-06T12:13:10Z</time><name>PT5108</name></trkpt>
<trkpt lat="51.796307" lon="03.917697"><ele>1.7</ele><time>2023-12-06T12:13:11Z</time><name>PT5109</name></trkpt>
<trkpt lat="51.796306" lon="03.917718"><ele>1.5</ele><time>2023-12-06T12:13:11Z</time><name>PT5110</name></trkpt>
<trkpt lat="51.796308" lon="03.917738"><ele>1.5</ele><time>2023-12-06T12:13:13Z</time><name>PT5111</name></trkpt>
<trkpt lat="51.796309" lon="03.917757"><ele>1.4</ele><time>2023-12-06T12:13:14Z</time><name>PT5112</name></trkpt>
<trkpt lat="51.796308" lon="03.917776"><ele>1.4</ele><time>2023-12-06T12:13:14Z</time><name>PT5113</name></trkpt>
<trkpt lat="51.796308" lon="03.917795"><ele>1.3</ele><time>2023-12-06T12:13:16Z</time><name>PT5114</name></trkpt>
<trkpt lat="51.796309" lon="03.917815"><ele>1.4</ele><time>2023-12-06T12:13:17Z</time><name>PT5115</name></trkpt>
<trkpt lat="51.796310" lon="03.917834"><ele>1.3</ele><time>2023-12-06T12:13:17Z</time><name>PT5116</name></trkpt>
<trkpt lat="51.796311" lon="03.917850"><ele>1.3</ele><time>2023-12-06T12:13:19Z</time><name>PT5117</name></trkpt>
<trkpt lat="51.796311" lon="03.917867"><ele>1.3</ele><time>2023-12-06T12:13:20Z</time><name>PT5118</name></trkpt>
<trkpt lat="51.796312" lon="03.917886"><ele>1.4</ele><time>2023-12-06T12:13:20Z</time><name>PT5119</name></trkpt>
<trkpt lat="51.796312" lon="03.917906"><ele>1.5</ele><time>2023-12-06T12:13:22Z</time><name>PT5120</name></trkpt>
<trkpt lat="51.796313" lon="03.917924"><ele>1.6</ele><time>2023-12-06T12:13:23Z</time><name>PT5121</name></trkpt>
<trkpt lat="51.796314" lon="03.917942"><ele>1.7</ele><time>2023-12-06T12:13:23Z</time><name>PT5122</name></trkpt>
<trkpt lat="51.796315" lon="03.917960"><ele>1.7</ele><time>2023-12-06T12:13:25Z</time><name>PT5123</name></trkpt>
<trkpt lat="51.796316" lon="03.917978"><ele>1.5</ele><time>2023-12-06T12:13:26Z</time><name>PT5124</name></trkpt>
<trkpt lat="51.796317" lon="03.917997"><ele>1.5</ele><time>2023-12-06T12:13:26Z</time><name>PT5125</name></trkpt>
<trkpt lat="51.796318" lon="03.918017"><ele>1.3</ele><time>2023-12-06T12:13:28Z</time><name>PT5126</name></trkpt>
<trkpt lat="51.796318" lon="03.918036"><ele>1.3</ele><time>2023-12-06T12:13:29Z</time><name>PT5127</name></trkpt>
<trkpt lat="51.796316" lon="03.918054"><ele>1.3</ele><time>2023-12-06T12:13:29Z</time><name>PT5128</name></trkpt>
<trkpt lat="51.796315" lon="03.918072"><ele>1.4</ele><time>2023-12-06T12:13:31Z</time><name>PT5129</name></trkpt>
<trkpt lat="51.796315" lon="03.918090"><ele>1.5</ele><time>2023-12-06T12:13:32Z</time><name>PT5130</name></trkpt>
<trkpt lat="51.796316" lon="03.918106"><ele>1.4</ele><time>2023-12-06T12:13:32Z</time><name>PT5131</name></trkpt>
<trkpt lat="51.796317" lon="03.918122"><ele>1.6</ele><time>2023-12-06T12:13:34Z</time><name>PT5132</name></trkpt>
<trkpt lat="51.796318" lon="03.918138"><ele>1.5</ele><time>2023-12-06T12:13:35Z</time><name>PT5133</name></trkpt>
<trkpt lat="51.796320" lon="03.918156"><ele>1.6</ele><time>2023-12-06T12:13:35Z</time><name>PT5134</name></trkpt>
<trkpt lat="51.796322" lon="03.918174"><ele>1.4</ele><time>2023-12-06T12:13:37Z</time><name>PT5135</name></trkpt>
<trkpt lat="51.796323" lon="03.918193"><ele>1.4</ele><time>2023-12-06T12:13:38Z</time><name>PT5136</name></trkpt>
<trkpt lat="51.796323" lon="03.918212"><ele>1.5</ele><time>2023-12-06T12:13:38Z</time><name>PT5137</name></trkpt>
<trkpt lat="51.796323" lon="03.918231"><ele>1.4</ele><time>2023-12-06T12:13:40Z</time><name>PT5138</name></trkpt>
<trkpt lat="51.796323" lon="03.918250"><ele>1.6</ele><time>2023-12-06T12:13:41Z</time><name>PT5139</name></trkpt>
<trkpt lat="51.796324" lon="03.918269"><ele>1.5</ele><time>2023-12-06T12:13:41Z</time><name>PT5140</name></trkpt>
<trkpt lat="51.796325" lon="03.918289"><ele>1.5</ele><time>2023-12-06T12:13:43Z</time><name>PT5141</name></trkpt>
<trkpt lat="51.796327" lon="03.918308"><ele>1.4</ele><time>2023-12-06T12:13:44Z</time><name>PT5142</name></trkpt>
<trkpt lat="51.796329" lon="03.918327"><ele>1.5</ele><time>2023-12-06T12:13:44Z</time><name>PT5143</name></trkpt>
<trkpt lat="51.796331" lon="03.918347"><ele>1.6</ele><time>2023-12-06T12:13:46Z</time><name>PT5144</name></trkpt>
<trkpt lat="51.796334" lon="03.918366"><ele>1.4</ele><time>2023-12-06T12:13:47Z</time><name>PT5145</name></trkpt>
<trkpt lat="51.796337" lon="03.918382"><ele>1.4</ele><time>2023-12-06T12:13:47Z</time><name>PT5146</name></trkpt>
<trkpt lat="51.796339" lon="03.918398"><ele>1.5</ele><time>2023-12-06T12:13:49Z</time><name>PT5147</name></trkpt>
<trkpt lat="51.796341" lon="03.918416"><ele>1.5</ele><time>2023-12-06T12:13:50Z</time><name>PT5148</name></trkpt>
<trkpt lat="51.796342" lon="03.918436"><ele>1.5</ele><time>2023-12-06T12:13:50Z</time><name>PT5149</name></trkpt>
<trkpt lat="51.796344" lon="03.918454"><ele>1.7</ele><time>2023-12-06T12:13:52Z</time><name>PT5150</name></trkpt>
<trkpt lat="51.796348" lon="03.918473"><ele>1.8</ele><time>2023-12-06T12:13:53Z</time><name>PT5151</name></trkpt>
<trkpt lat="51.796352" lon="03.918492"><ele>1.8</ele><time>2023-12-06T12:13:53Z</time><name>PT5152</name></trkpt>
<trkpt lat="51.796357" lon="03.918510"><ele>1.8</ele><time>2023-12-06T12:13:55Z</time><name>PT5153</name></trkpt>
<trkpt lat="51.796361" lon="03.918528"><ele>1.9</ele><time>2023-12-06T12:13:56Z</time><name>PT5154</name></trkpt>
<trkpt lat="51.796366" lon="03.918544"><ele>2</ele><time>2023-12-06T12:13:56Z</time><name>PT5155</name></trkpt>
<trkpt lat="51.796371" lon="03.918559"><ele>1.8</ele><time>2023-12-06T12:13:58Z</time><name>PT5156</name></trkpt>
<trkpt lat="51.796375" lon="03.918577"><ele>1.8</ele><time>2023-12-06T12:13:59Z</time><name>PT5157</name></trkpt>
<trkpt lat="51.796378" lon="03.918597"><ele>1.8</ele><time>2023-12-06T12:13:59Z</time><name>PT5158</name></trkpt>
<trkpt lat="51.796381" lon="03.918616"><ele>1.6</ele><time>2023-12-06T12:14:01Z</time><name>PT5159</name></trkpt>
<trkpt lat="51.796384" lon="03.918634"><ele>1.7</ele><time>2023-12-06T12:14:02Z</time><name>PT5160</name></trkpt>
<trkpt lat="51.796388" lon="03.918651"><ele>1.8</ele><time>2023-12-06T12:14:02Z</time><name>PT5161</name></trkpt>
<trkpt lat="51.796393" lon="03.918667"><ele>1.6</ele><time>2023-12-06T12:14:04Z</time><name>PT5162</name></trkpt>
<trkpt lat="51.796397" lon="03.918684"><ele>1.6</ele><time>2023-12-06T12:14:05Z</time><name>PT5163</name></trkpt>
<trkpt lat="51.796402" lon="03.918699"><ele>1.7</ele><time>2023-12-06T12:14:05Z</time><name>PT5164</name></trkpt>
<trkpt lat="51.796406" lon="03.918714"><ele>1.7</ele><time>2023-12-06T12:14:07Z</time><name>PT5165</name></trkpt>
<trkpt lat="51.796410" lon="03.918732"><ele>1.8</ele><time>2023-12-06T12:14:08Z</time><name>PT5166</name></trkpt>
<trkpt lat="51.796414" lon="03.918750"><ele>1.8</ele><time>2023-12-06T12:14:08Z</time><name>PT5167</name></trkpt>
<trkpt lat="51.796418" lon="03.918770"><ele>2</ele><time>2023-12-06T12:14:10Z</time><name>PT5168</name></trkpt>
<trkpt lat="51.796423" lon="03.918789"><ele>1.9</ele><time>2023-12-06T12:14:11Z</time><name>PT5169</name></trkpt>
<trkpt lat="51.796426" lon="03.918804"><ele>1.8</ele><time>2023-12-06T12:14:11Z</time><name>PT5170</name></trkpt>
<trkpt lat="51.796429" lon="03.918821"><ele>1.7</ele><time>2023-12-06T12:14:13Z</time><name>PT5171</name></trkpt>
<trkpt lat="51.796432" lon="03.918841"><ele>1.3</ele><time>2023-12-06T12:14:14Z</time><name>PT5172</name></trkpt>
<trkpt lat="51.796437" lon="03.918861"><ele>1.3</ele><time>2023-12-06T12:14:14Z</time><name>PT5173</name></trkpt>
<trkpt lat="51.796442" lon="03.918879"><ele>1.4</ele><time>2023-12-06T12:14:16Z</time><name>PT5174</name></trkpt>
<trkpt lat="51.796446" lon="03.918895"><ele>1.6</ele><time>2023-12-06T12:14:17Z</time><name>PT5175</name></trkpt>
<trkpt lat="51.796449" lon="03.918912"><ele>1.7</ele><time>2023-12-06T12:14:17Z</time><name>PT5176</name></trkpt>
<trkpt lat="51.796453" lon="03.918929"><ele>1.8</ele><time>2023-12-06T12:14:19Z</time><name>PT5177</name></trkpt>
<trkpt lat="51.796456" lon="03.918948"><ele>1.8</ele><time>2023-12-06T12:14:20Z</time><name>PT5178</name></trkpt>
<trkpt lat="51.796461" lon="03.918967"><ele>1.8</ele><time>2023-12-06T12:14:20Z</time><name>PT5179</name></trkpt>
<trkpt lat="51.796465" lon="03.918987"><ele>1.7</ele><time>2023-12-06T12:14:22Z</time><name>PT5180</name></trkpt>
<trkpt lat="51.796469" lon="03.919007"><ele>1.7</ele><time>2023-12-06T12:14:23Z</time><name>PT5181</name></trkpt>
<trkpt lat="51.796473" lon="03.919027"><ele>1.6</ele><time>2023-12-06T12:14:23Z</time><name>PT5182</name></trkpt>
<trkpt lat="51.796477" lon="03.919045"><ele>1.5</ele><time>2023-12-06T12:14:25Z</time><name>PT5183</name></trkpt>
<trkpt lat="51.796481" lon="03.919062"><ele>1.6</ele><time>2023-12-06T12:14:26Z</time><name>PT5184</name></trkpt>
<trkpt lat="51.796485" lon="03.919078"><ele>1.5</ele><time>2023-12-06T12:14:26Z</time><name>PT5185</name></trkpt>
<trkpt lat="51.796490" lon="03.919094"><ele>1.4</ele><time>2023-12-06T12:14:28Z</time><name>PT5186</name></trkpt>
<trkpt lat="51.796495" lon="03.919110"><ele>1.6</ele><time>2023-12-06T12:14:29Z</time><name>PT5187</name></trkpt>
<trkpt lat="51.796499" lon="03.919127"><ele>1.6</ele><time>2023-12-06T12:14:29Z</time><name>PT5188</name></trkpt>
<trkpt lat="51.796504" lon="03.919142"><ele>1.6</ele><time>2023-12-06T12:14:31Z</time><name>PT5189</name></trkpt>
<trkpt lat="51.796508" lon="03.919157"><ele>1.5</ele><time>2023-12-06T12:14:32Z</time><name>PT5190</name></trkpt>
<trkpt lat="51.796512" lon="03.919174"><ele>1.5</ele><time>2023-12-06T12:14:32Z</time><name>PT5191</name></trkpt>
<trkpt lat="51.796517" lon="03.919192"><ele>1.3</ele><time>2023-12-06T12:14:34Z</time><name>PT5192</name></trkpt>
<trkpt lat="51.796521" lon="03.919211"><ele>1.3</ele><time>2023-12-06T12:14:35Z</time><name>PT5193</name></trkpt>
<trkpt lat="51.796525" lon="03.919231"><ele>1.1</ele><time>2023-12-06T12:14:35Z</time><name>PT5194</name></trkpt>
<trkpt lat="51.796529" lon="03.919250"><ele>1.3</ele><time>2023-12-06T12:14:37Z</time><name>PT5195</name></trkpt>
<trkpt lat="51.796533" lon="03.919268"><ele>1.3</ele><time>2023-12-06T12:14:38Z</time><name>PT5196</name></trkpt>
<trkpt lat="51.796538" lon="03.919284"><ele>1.3</ele><time>2023-12-06T12:14:38Z</time><name>PT5197</name></trkpt>
<trkpt lat="51.796544" lon="03.919299"><ele>1.5</ele><time>2023-12-06T12:14:40Z</time><name>PT5198</name></trkpt>
<trkpt lat="51.796552" lon="03.919313"><ele>1.5</ele><time>2023-12-06T12:14:41Z</time><name>PT5199</name></trkpt>
<trkpt lat="51.796558" lon="03.919329"><ele>1.6</ele><time>2023-12-06T12:14:41Z</time><name>PT5200</name></trkpt>
<trkpt lat="51.796563" lon="03.919344"><ele>1.6</ele><time>2023-12-06T12:14:43Z</time><name>PT5201</name></trkpt>
<trkpt lat="51.796568" lon="03.919361"><ele>1.5</ele><time>2023-12-06T12:14:44Z</time><name>PT5202</name></trkpt>
<trkpt lat="51.796572" lon="03.919380"><ele>1.5</ele><time>2023-12-06T12:14:44Z</time><name>PT5203</name></trkpt>
<trkpt lat="51.796577" lon="03.919400"><ele>1.6</ele><time>2023-12-06T12:14:46Z</time><name>PT5204</name></trkpt>
<trkpt lat="51.796583" lon="03.919417"><ele>1.7</ele><time>2023-12-06T12:14:47Z</time><name>PT5205</name></trkpt>
<trkpt lat="51.796589" lon="03.919435"><ele>1.7</ele><time>2023-12-06T12:14:47Z</time><name>PT5206</name></trkpt>
<trkpt lat="51.796595" lon="03.919453"><ele>1.8</ele><time>2023-12-06T12:14:49Z</time><name>PT5207</name></trkpt>
<trkpt lat="51.796602" lon="03.919467"><ele>1.8</ele><time>2023-12-06T12:14:50Z</time><name>PT5208</name></trkpt>
<trkpt lat="51.796609" lon="03.919481"><ele>1.7</ele><time>2023-12-06T12:14:50Z</time><name>PT5209</name></trkpt>
<trkpt lat="51.796616" lon="03.919494"><ele>1.7</ele><time>2023-12-06T12:14:52Z</time><name>PT5210</name></trkpt>
<trkpt lat="51.796623" lon="03.919506"><ele>1.8</ele><time>2023-12-06T12:14:53Z</time><name>PT5211</name></trkpt>
<trkpt lat="51.796629" lon="03.919520"><ele>1.7</ele><time>2023-12-06T12:14:53Z</time><name>PT5212</name></trkpt>
<trkpt lat="51.796636" lon="03.919535"><ele>1.8</ele><time>2023-12-06T12:14:55Z</time><name>PT5213</name></trkpt>
<trkpt lat="51.796642" lon="03.919552"><ele>1.9</ele><time>2023-12-06T12:14:56Z</time><name>PT5214</name></trkpt>
<trkpt lat="51.796649" lon="03.919569"><ele>1.8</ele><time>2023-12-06T12:14:56Z</time><name>PT5215</name></trkpt>
<trkpt lat="51.796656" lon="03.919586"><ele>1.8</ele><time>2023-12-06T12:14:58Z</time><name>PT5216</name></trkpt>
<trkpt lat="51.796662" lon="03.919605"><ele>1.6</ele><time>2023-12-06T12:14:59Z</time><name>PT5217</name></trkpt>
<trkpt lat="51.796668" lon="03.919624"><ele>1.4</ele><time>2023-12-06T12:14:59Z</time><name>PT5218</name></trkpt>
<trkpt lat="51.796673" lon="03.919641"><ele>1.4</ele><time>2023-12-06T12:15:01Z</time><name>PT5219</name></trkpt>
<trkpt lat="51.796679" lon="03.919655"><ele>1.3</ele><time>2023-12-06T12:15:02Z</time><name>PT5220</name></trkpt>
<trkpt lat="51.796686" lon="03.919668"><ele>1.4</ele><time>2023-12-06T12:15:02Z</time><name>PT5221</name></trkpt>
<trkpt lat="51.796693" lon="03.919680"><ele>1.4</ele><time>2023-12-06T12:15:04Z</time><name>PT5222</name></trkpt>
<trkpt lat="51.796701" lon="03.919694"><ele>1.7</ele><time>2023-12-06T12:15:05Z</time><name>PT5223</name></trkpt>
<trkpt lat="51.796708" lon="03.919709"><ele>1.7</ele><time>2023-12-06T12:15:05Z</time><name>PT5224</name></trkpt>
<trkpt lat="51.796715" lon="03.919721"><ele>1.8</ele><time>2023-12-06T12:15:07Z</time><name>PT5225</name></trkpt>
<trkpt lat="51.796721" lon="03.919738"><ele>1.8</ele><time>2023-12-06T12:15:08Z</time><name>PT5226</name></trkpt>
<trkpt lat="51.796727" lon="03.919755"><ele>1.7</ele><time>2023-12-06T12:15:08Z</time><name>PT5227</name></trkpt>
<trkpt lat="51.796734" lon="03.919771"><ele>1.8</ele><time>2023-12-06T12:15:10Z</time><name>PT5228</name></trkpt>
<trkpt lat="51.796741" lon="03.919785"><ele>1.6</ele><time>2023-12-06T12:15:11Z</time><name>PT5229</name></trkpt>
<trkpt lat="51.796749" lon="03.919800"><ele>1.7</ele><time>2023-12-06T12:15:11Z</time><name>PT5230</name></trkpt>
<trkpt lat="51.796756" lon="03.919816"><ele>1.6</ele><time>2023-12-06T12:15:13Z</time><name>PT5231</name></trkpt>
<trkpt lat="51.796764" lon="03.919830"><ele>1.3</ele><time>2023-12-06T12:15:14Z</time><name>PT5232</name></trkpt>
<trkpt lat="51.796770" lon="03.919844"><ele>1.3</ele><time>2023-12-06T12:15:14Z</time><name>PT5233</name></trkpt>
<trkpt lat="51.796776" lon="03.919858"><ele>1.3</ele><time>2023-12-06T12:15:16Z</time><name>PT5234</name></trkpt>
<trkpt lat="51.796783" lon="03.919873"><ele>1.3</ele><time>2023-12-06T12:15:17Z</time><name>PT5235</name></trkpt>
<trkpt lat="51.796788" lon="03.919891"><ele>1.3</ele><time>2023-12-06T12:15:17Z</time><name>PT5236</name></trkpt>
<trkpt lat="51.796793" lon="03.919906"><ele>1.4</ele><time>2023-12-06T12:15:19Z</time><name>PT5237</name></trkpt>
<trkpt lat="51.796799" lon="03.919923"><ele>1.7</ele><time>2023-12-06T12:15:20Z</time><name>PT5238</name></trkpt>
<trkpt lat="51.796807" lon="03.919937"><ele>1.5</ele><time>2023-12-06T12:15:20Z</time><name>PT5239</name></trkpt>
<trkpt lat="51.796816" lon="03.919951"><ele>1.7</ele><time>2023-12-06T12:15:22Z</time><name>PT5240</name></trkpt>
<trkpt lat="51.796824" lon="03.919967"><ele>1.6</ele><time>2023-12-06T12:15:23Z</time><name>PT5241</name></trkpt>
<trkpt lat="51.796830" lon="03.919980"><ele>1.6</ele><time>2023-12-06T12:15:23Z</time><name>PT5242</name></trkpt>
<trkpt lat="51.796835" lon="03.919994"><ele>1.5</ele><time>2023-12-06T12:15:25Z</time><name>PT5243</name></trkpt>
<trkpt lat="51.796841" lon="03.920010"><ele>1.5</ele><time>2023-12-06T12:15:26Z</time><name>PT5244</name></trkpt>
<trkpt lat="51.796847" lon="03.920029"><ele>1.5</ele><time>2023-12-06T12:15:26Z</time><name>PT5245</name></trkpt>
<trkpt lat="51.796853" lon="03.920044"><ele>1.5</ele><time>2023-12-06T12:15:28Z</time><name>PT5246</name></trkpt>
<trkpt lat="51.796860" lon="03.920058"><ele>1.6</ele><time>2023-12-06T12:15:29Z</time><name>PT5247</name></trkpt>
<trkpt lat="51.796868" lon="03.920074"><ele>1.5</ele><time>2023-12-06T12:15:29Z</time><name>PT5248</name></trkpt>
<trkpt lat="51.796874" lon="03.920090"><ele>1.4</ele><time>2023-12-06T12:15:31Z</time><name>PT5249</name></trkpt>
<trkpt lat="51.796880" lon="03.920106"><ele>1.3</ele><time>2023-12-06T12:15:32Z</time><name>PT5250</name></trkpt>
<trkpt lat="51.796887" lon="03.920123"><ele>1.4</ele><time>2023-12-06T12:15:33Z</time><name>PT5251</name></trkpt>
<trkpt lat="51.796894" lon="03.920138"><ele>1.3</ele><time>2023-12-06T12:15:34Z</time><name>PT5252</name></trkpt>
<trkpt lat="51.796901" lon="03.920153"><ele>1.3</ele><time>2023-12-06T12:15:35Z</time><name>PT5253</name></trkpt>
<trkpt lat="51.796906" lon="03.920170"><ele>1.4</ele><time>2023-12-06T12:15:35Z</time><name>PT5254</name></trkpt>
<trkpt lat="51.796912" lon="03.920187"><ele>1.5</ele><time>2023-12-06T12:15:37Z</time><name>PT5255</name></trkpt>
<trkpt lat="51.796916" lon="03.920207"><ele>1.4</ele><time>2023-12-06T12:15:38Z</time><name>PT5256</name></trkpt>
<trkpt lat="51.796923" lon="03.920221"><ele>1.4</ele><time>2023-12-06T12:15:38Z</time><name>PT5257</name></trkpt>
<trkpt lat="51.796927" lon="03.920238"><ele>1.3</ele><time>2023-12-06T12:15:40Z</time><name>PT5258</name></trkpt>
<trkpt lat="51.796932" lon="03.920258"><ele>1.3</ele><time>2023-12-06T12:15:41Z</time><name>PT5259</name></trkpt>
<trkpt lat="51.796937" lon="03.920276"><ele>1.3</ele><time>2023-12-06T12:15:41Z</time><name>PT5260</name></trkpt>
<trkpt lat="51.796943" lon="03.920293"><ele>1.3</ele><time>2023-12-06T12:15:43Z</time><name>PT5261</name></trkpt>
<trkpt lat="51.796949" lon="03.920310"><ele>1.3</ele><time>2023-12-06T12:15:44Z</time><name>PT5262</name></trkpt>
<trkpt lat="51.796955" lon="03.920325"><ele>1.3</ele><time>2023-12-06T12:15:44Z</time><name>PT5263</name></trkpt>
<trkpt lat="51.796960" lon="03.920340"><ele>1.3</ele><time>2023-12-06T12:15:46Z</time><name>PT5264</name></trkpt>
<trkpt lat="51.796964" lon="03.920357"><ele>1.1</ele><time>2023-12-06T12:15:47Z</time><name>PT5265</name></trkpt>
<trkpt lat="51.796967" lon="03.920374"><ele>1.1</ele><time>2023-12-06T12:15:47Z</time><name>PT5266</name></trkpt>
<trkpt lat="51.796972" lon="03.920391"><ele>1.2</ele><time>2023-12-06T12:15:49Z</time><name>PT5267</name></trkpt>
<trkpt lat="51.796976" lon="03.920408"><ele>1.2</ele><time>2023-12-06T12:15:50Z</time><name>PT5268</name></trkpt>
<trkpt lat="51.796981" lon="03.920426"><ele>1</ele><time>2023-12-06T12:15:50Z</time><name>PT5269</name></trkpt>
<trkpt lat="51.796986" lon="03.920443"><ele>1.2</ele><time>2023-12-06T12:15:52Z</time><name>PT5270</name></trkpt>
<trkpt lat="51.796990" lon="03.920460"><ele>1.3</ele><time>2023-12-06T12:15:53Z</time><name>PT5271</name></trkpt>
<trkpt lat="51.796995" lon="03.920476"><ele>1.3</ele><time>2023-12-06T12:15:53Z</time><name>PT5272</name></trkpt>
<trkpt lat="51.796999" lon="03.920493"><ele>1.3</ele><time>2023-12-06T12:15:55Z</time><name>PT5273</name></trkpt>
<trkpt lat="51.797003" lon="03.920511"><ele>1.3</ele><time>2023-12-06T12:15:56Z</time><name>PT5274</name></trkpt>
<trkpt lat="51.797007" lon="03.920529"><ele>1.2</ele><time>2023-12-06T12:15:56Z</time><name>PT5275</name></trkpt>
<trkpt lat="51.797011" lon="03.920547"><ele>1.2</ele><time>2023-12-06T12:15:58Z</time><name>PT5276</name></trkpt>
<trkpt lat="51.797015" lon="03.920565"><ele>1.1</ele><time>2023-12-06T12:15:59Z</time><name>PT5277</name></trkpt>
<trkpt lat="51.797020" lon="03.920582"><ele>1</ele><time>2023-12-06T12:15:59Z</time><name>PT5278</name></trkpt>
<trkpt lat="51.797024" lon="03.920600"><ele>1.1</ele><time>2023-12-06T12:16:01Z</time><name>PT5279</name></trkpt>
<trkpt lat="51.797029" lon="03.920617"><ele>1.2</ele><time>2023-12-06T12:16:02Z</time><name>PT5280</name></trkpt>
<trkpt lat="51.797034" lon="03.920635"><ele>1.1</ele><time>2023-12-06T12:16:02Z</time><name>PT5281</name></trkpt>
<trkpt lat="51.797038" lon="03.920653"><ele>1.3</ele><time>2023-12-06T12:16:04Z</time><name>PT5282</name></trkpt>
<trkpt lat="51.797041" lon="03.920673"><ele>1.3</ele><time>2023-12-06T12:16:05Z</time><name>PT5283</name></trkpt>
<trkpt lat="51.797045" lon="03.920692"><ele>1.5</ele><time>2023-12-06T12:16:05Z</time><name>PT5284</name></trkpt>
<trkpt lat="51.797049" lon="03.920712"><ele>1.6</ele><time>2023-12-06T12:16:07Z</time><name>PT5285</name></trkpt>
<trkpt lat="51.797054" lon="03.920731"><ele>1.5</ele><time>2023-12-06T12:16:08Z</time><name>PT5286</name></trkpt>
<trkpt lat="51.797057" lon="03.920748"><ele>1.4</ele><time>2023-12-06T12:16:08Z</time><name>PT5287</name></trkpt>
<trkpt lat="51.797061" lon="03.920767"><ele>1.3</ele><time>2023-12-06T12:16:10Z</time><name>PT5288</name></trkpt>
<trkpt lat="51.797065" lon="03.920785"><ele>1.3</ele><time>2023-12-06T12:16:11Z</time><name>PT5289</name></trkpt>
<trkpt lat="51.797069" lon="03.920802"><ele>1.3</ele><time>2023-12-06T12:16:11Z</time><name>PT5290</name></trkpt>
<trkpt lat="51.797074" lon="03.920820"><ele>1.4</ele><time>2023-12-06T12:16:13Z</time><name>PT5291</name></trkpt>
<trkpt lat="51.797078" lon="03.920839"><ele>1.5</ele><time>2023-12-06T12:16:14Z</time><name>PT5292</name></trkpt>
<trkpt lat="51.797081" lon="03.920860"><ele>1.4</ele><time>2023-12-06T12:16:14Z</time><name>PT5293</name></trkpt>
<trkpt lat="51.797084" lon="03.920881"><ele>1.5</ele><time>2023-12-06T12:16:16Z</time><name>PT5294</name></trkpt>
<trkpt lat="51.797087" lon="03.920901"><ele>1.4</ele><time>2023-12-06T12:16:17Z</time><name>PT5295</name></trkpt>
<trkpt lat="51.797089" lon="03.920923"><ele>1.4</ele><time>2023-12-06T12:16:17Z</time><name>PT5296</name></trkpt>
<trkpt lat="51.797092" lon="03.920943"><ele>1.4</ele><time>2023-12-06T12:16:19Z</time><name>PT5297</name></trkpt>
<trkpt lat="51.797094" lon="03.920963"><ele>1.4</ele><time>2023-12-06T12:16:20Z</time><name>PT5298</name></trkpt>
<trkpt lat="51.797097" lon="03.920984"><ele>1.4</ele><time>2023-12-06T12:16:20Z</time><name>PT5299</name></trkpt>
<trkpt lat="51.797100" lon="03.921003"><ele>1.5</ele><time>2023-12-06T12:16:22Z</time><name>PT5300</name></trkpt>
<trkpt lat="51.797102" lon="03.921022"><ele>1.3</ele><time>2023-12-06T12:16:23Z</time><name>PT5301</name></trkpt>
<trkpt lat="51.797105" lon="03.921042"><ele>1.3</ele><time>2023-12-06T12:16:23Z</time><name>PT5302</name></trkpt>
<trkpt lat="51.797107" lon="03.921059"><ele>1.3</ele><time>2023-12-06T12:16:25Z</time><name>PT5303</name></trkpt>
<trkpt lat="51.797110" lon="03.921077"><ele>1.3</ele><time>2023-12-06T12:16:26Z</time><name>PT5304</name></trkpt>
<trkpt lat="51.797113" lon="03.921095"><ele>1.3</ele><time>2023-12-06T12:16:26Z</time><name>PT5305</name></trkpt>
<trkpt lat="51.797117" lon="03.921112"><ele>1.4</ele><time>2023-12-06T12:16:28Z</time><name>PT5306</name></trkpt>
<trkpt lat="51.797120" lon="03.921130"><ele>1.4</ele><time>2023-12-06T12:16:29Z</time><name>PT5307</name></trkpt>
<trkpt lat="51.797122" lon="03.921148"><ele>1.4</ele><time>2023-12-06T12:16:29Z</time><name>PT5308</name></trkpt>
<trkpt lat="51.797124" lon="03.921166"><ele>1.4</ele><time>2023-12-06T12:16:31Z</time><name>PT5309</name></trkpt>
<trkpt lat="51.797126" lon="03.921186"><ele>1.3</ele><time>2023-12-06T12:16:32Z</time><name>PT5310</name></trkpt>
<trkpt lat="51.797127" lon="03.921205"><ele>1.4</ele><time>2023-12-06T12:16:32Z</time><name>PT5311</name></trkpt>
<trkpt lat="51.797128" lon="03.921224"><ele>1.3</ele><time>2023-12-06T12:16:34Z</time><name>PT5312</name></trkpt>
<trkpt lat="51.797129" lon="03.921242"><ele>1.4</ele><time>2023-12-06T12:16:35Z</time><name>PT5313</name></trkpt>
<trkpt lat="51.797132" lon="03.921259"><ele>1.5</ele><time>2023-12-06T12:16:35Z</time><name>PT5314</name></trkpt>
<trkpt lat="51.797134" lon="03.921277"><ele>1.7</ele><time>2023-12-06T12:16:37Z</time><name>PT5315</name></trkpt>
<trkpt lat="51.797137" lon="03.921294"><ele>1.5</ele><time>2023-12-06T12:16:38Z</time><name>PT5316</name></trkpt>
<trkpt lat="51.797140" lon="03.921311"><ele>1.6</ele><time>2023-12-06T12:16:38Z</time><name>PT5317</name></trkpt>
<trkpt lat="51.797142" lon="03.921328"><ele>1.4</ele><time>2023-12-06T12:16:40Z</time><name>PT5318</name></trkpt>
<trkpt lat="51.797144" lon="03.921347"><ele>1.4</ele><time>2023-12-06T12:16:41Z</time><name>PT5319</name></trkpt>
<trkpt lat="51.797145" lon="03.921365"><ele>1.5</ele><time>2023-12-06T12:16:41Z</time><name>PT5320</name></trkpt>
<trkpt lat="51.797146" lon="03.921383"><ele>1.5</ele><time>2023-12-06T12:16:43Z</time><name>PT5321</name></trkpt>
<trkpt lat="51.797147" lon="03.921402"><ele>1.6</ele><time>2023-12-06T12:16:44Z</time><name>PT5322</name></trkpt>
<trkpt lat="51.797147" lon="03.921421"><ele>1.6</ele><time>2023-12-06T12:16:44Z</time><name>PT5323</name></trkpt>
<trkpt lat="51.797147" lon="03.921437"><ele>1.4</ele><time>2023-12-06T12:16:46Z</time><name>PT5324</name></trkpt>
<trkpt lat="51.797148" lon="03.921455"><ele>1.5</ele><time>2023-12-06T12:16:47Z</time><name>PT5325</name></trkpt>
<trkpt lat="51.797149" lon="03.921471"><ele>1.6</ele><time>2023-12-06T12:16:47Z</time><name>PT5326</name></trkpt>
<trkpt lat="51.797151" lon="03.921487"><ele>1.5</ele><time>2023-12-06T12:16:49Z</time><name>PT5327</name></trkpt>
<trkpt lat="51.797153" lon="03.921505"><ele>1.3</ele><time>2023-12-06T12:16:50Z</time><name>PT5328</name></trkpt>
<trkpt lat="51.797154" lon="03.921525"><ele>1.4</ele><time>2023-12-06T12:16:50Z</time><name>PT5329</name></trkpt>
<trkpt lat="51.797155" lon="03.921543"><ele>1.4</ele><time>2023-12-06T12:16:52Z</time><name>PT5330</name></trkpt>
<trkpt lat="51.797155" lon="03.921563"><ele>1.4</ele><time>2023-12-06T12:16:53Z</time><name>PT5331</name></trkpt>
<trkpt lat="51.797154" lon="03.921582"><ele>1.5</ele><time>2023-12-06T12:16:53Z</time><name>PT5332</name></trkpt>
<trkpt lat="51.797152" lon="03.921601"><ele>1.6</ele><time>2023-12-06T12:16:55Z</time><name>PT5333</name></trkpt>
<trkpt lat="51.797151" lon="03.921621"><ele>1.6</ele><time>2023-12-06T12:16:56Z</time><name>PT5334</name></trkpt>
<trkpt lat="51.797150" lon="03.921638"><ele>1.6</ele><time>2023-12-06T12:16:56Z</time><name>PT5335</name></trkpt>
<trkpt lat="51.797149" lon="03.921656"><ele>1.6</ele><time>2023-12-06T12:16:58Z</time><name>PT5336</name></trkpt>
<trkpt lat="51.797149" lon="03.921672"><ele>1.7</ele><time>2023-12-06T12:16:59Z</time><name>PT5337</name></trkpt>
<trkpt lat="51.797149" lon="03.921686"><ele>1.8</ele><time>2023-12-06T12:16:59Z</time><name>PT5338</name></trkpt>
<trkpt lat="51.797150" lon="03.921702"><ele>1.8</ele><time>2023-12-06T12:17:01Z</time><name>PT5339</name></trkpt>
<trkpt lat="51.797149" lon="03.921721"><ele>1.8</ele><time>2023-12-06T12:17:02Z</time><name>PT5340</name></trkpt>
<trkpt lat="51.797149" lon="03.921739"><ele>1.7</ele><time>2023-12-06T12:17:02Z</time><name>PT5341</name></trkpt>
<trkpt lat="51.797146" lon="03.921756"><ele>1.4</ele><time>2023-12-06T12:17:04Z</time><name>PT5342</name></trkpt>
<trkpt lat="51.797144" lon="03.921774"><ele>1.3</ele><time>2023-12-06T12:17:05Z</time><name>PT5343</name></trkpt>
<trkpt lat="51.797141" lon="03.921792"><ele>1.4</ele><time>2023-12-06T12:17:05Z</time><name>PT5344</name></trkpt>
<trkpt lat="51.797138" lon="03.921810"><ele>1.5</ele><time>2023-12-06T12:17:07Z</time><name>PT5345</name></trkpt>
<trkpt lat="51.797136" lon="03.921828"><ele>1.8</ele><time>2023-12-06T12:17:08Z</time><name>PT5346</name></trkpt>
<trkpt lat="51.797134" lon="03.921845"><ele>1.9</ele><time>2023-12-06T12:17:08Z</time><name>PT5347</name></trkpt>
<trkpt lat="51.797131" lon="03.921862"><ele>1.8</ele><time>2023-12-06T12:17:10Z</time><name>PT5348</name></trkpt>
<trkpt lat="51.797129" lon="03.921880"><ele>1.7</ele><time>2023-12-06T12:17:11Z</time><name>PT5349</name></trkpt>
<trkpt lat="51.797126" lon="03.921898"><ele>1.8</ele><time>2023-12-06T12:17:11Z</time><name>PT5350</name></trkpt>
<trkpt lat="51.797125" lon="03.921915"><ele>1.6</ele><time>2023-12-06T12:17:13Z</time><name>PT5351</name></trkpt>
<trkpt lat="51.797124" lon="03.921933"><ele>1.8</ele><time>2023-12-06T12:17:14Z</time><name>PT5352</name></trkpt>
<trkpt lat="51.797122" lon="03.921952"><ele>1.8</ele><time>2023-12-06T12:17:14Z</time><name>PT5353</name></trkpt>
<trkpt lat="51.797120" lon="03.921969"><ele>1.8</ele><time>2023-12-06T12:17:16Z</time><name>PT5354</name></trkpt>
<trkpt lat="51.797117" lon="03.921986"><ele>1.8</ele><time>2023-12-06T12:17:17Z</time><name>PT5355</name></trkpt>
<trkpt lat="51.797115" lon="03.922004"><ele>1.8</ele><time>2023-12-06T12:17:17Z</time><name>PT5356</name></trkpt>
<trkpt lat="51.797112" lon="03.922023"><ele>2</ele><time>2023-12-06T12:17:19Z</time><name>PT5357</name></trkpt>
<trkpt lat="51.797109" lon="03.922043"><ele>2</ele><time>2023-12-06T12:17:20Z</time><name>PT5358</name></trkpt>
<trkpt lat="51.797105" lon="03.922062"><ele>1.9</ele><time>2023-12-06T12:17:20Z</time><name>PT5359</name></trkpt>
<trkpt lat="51.797102" lon="03.922078"><ele>1.9</ele><time>2023-12-06T12:17:22Z</time><name>PT5360</name></trkpt>
<trkpt lat="51.797100" lon="03.922095"><ele>1.8</ele><time>2023-12-06T12:17:23Z</time><name>PT5361</name></trkpt>
<trkpt lat="51.797098" lon="03.922112"><ele>1.8</ele><time>2023-12-06T12:17:23Z</time><name>PT5362</name></trkpt>
<trkpt lat="51.797097" lon="03.922129"><ele>1.7</ele><time>2023-12-06T12:17:25Z</time><name>PT5363</name></trkpt>
<trkpt lat="51.797096" lon="03.922145"><ele>1.8</ele><time>2023-12-06T12:17:26Z</time><name>PT5364</name></trkpt>
<trkpt lat="51.797096" lon="03.922163"><ele>1.8</ele><time>2023-12-06T12:17:26Z</time><name>PT5365</name></trkpt>
<trkpt lat="51.797094" lon="03.922180"><ele>1.8</ele><time>2023-12-06T12:17:28Z</time><name>PT5366</name></trkpt>
<trkpt lat="51.797093" lon="03.922199"><ele>1.8</ele><time>2023-12-06T12:17:29Z</time><name>PT5367</name></trkpt>
<trkpt lat="51.797092" lon="03.922217"><ele>1.8</ele><time>2023-12-06T12:17:29Z</time><name>PT5368</name></trkpt>
<trkpt lat="51.797090" lon="03.922234"><ele>1.8</ele><time>2023-12-06T12:17:31Z</time><name>PT5369</name></trkpt>
<trkpt lat="51.797087" lon="03.922249"><ele>1.9</ele><time>2023-12-06T12:17:32Z</time><name>PT5370</name></trkpt>
<trkpt lat="51.797086" lon="03.922263"><ele>1.9</ele><time>2023-12-06T12:17:32Z</time><name>PT5371</name></trkpt>
<trkpt lat="51.797085" lon="03.922280"><ele>1.9</ele><time>2023-12-06T12:17:34Z</time><name>PT5372</name></trkpt>
<trkpt lat="51.797084" lon="03.922297"><ele>1.9</ele><time>2023-12-06T12:17:35Z</time><name>PT5373</name></trkpt>
<trkpt lat="51.797083" lon="03.922315"><ele>1.9</ele><time>2023-12-06T12:17:35Z</time><name>PT5374</name></trkpt>
<trkpt lat="51.797081" lon="03.922334"><ele>1.9</ele><time>2023-12-06T12:17:37Z</time><name>PT5375</name></trkpt>
<trkpt lat="51.797080" lon="03.922354"><ele>1.8</ele><time>2023-12-06T12:17:38Z</time><name>PT5376</name></trkpt>
<trkpt lat="51.797080" lon="03.922374"><ele>1.7</ele><time>2023-12-06T12:17:38Z</time><name>PT5377</name></trkpt>
<trkpt lat="51.797079" lon="03.922392"><ele>1.8</ele><time>2023-12-06T12:17:40Z</time><name>PT5378</name></trkpt>
<trkpt lat="51.797077" lon="03.922408"><ele>1.8</ele><time>2023-12-06T12:17:41Z</time><name>PT5379</name></trkpt>
<trkpt lat="51.797074" lon="03.922426"><ele>1.8</ele><time>2023-12-06T12:17:41Z</time><name>PT5380</name></trkpt>
<trkpt lat="51.797071" lon="03.922446"><ele>1.8</ele><time>2023-12-06T12:17:43Z</time><name>PT5381</name></trkpt>
<trkpt lat="51.797069" lon="03.922465"><ele>1.7</ele><time>2023-12-06T12:17:44Z</time><name>PT5382</name></trkpt>
<trkpt lat="51.797067" lon="03.922483"><ele>1.6</ele><time>2023-12-06T12:17:44Z</time><name>PT5383</name></trkpt>
<trkpt lat="51.797065" lon="03.922501"><ele>1.4</ele><time>2023-12-06T12:17:46Z</time><name>PT5384</name></trkpt>
<trkpt lat="51.797064" lon="03.922520"><ele>1.6</ele><time>2023-12-06T12:17:47Z</time><name>PT5385</name></trkpt>
<trkpt lat="51.797062" lon="03.922538"><ele>1.8</ele><time>2023-12-06T12:17:47Z</time><name>PT5386</name></trkpt>
<trkpt lat="51.797061" lon="03.922557"><ele>1.8</ele><time>2023-12-06T12:17:49Z</time><name>PT5387</name></trkpt>
<trkpt lat="51.797061" lon="03.922576"><ele>2</ele><time>2023-12-06T12:17:50Z</time><name>PT5388</name></trkpt>
<trkpt lat="51.797060" lon="03.922595"><ele>1.9</ele><time>2023-12-06T12:17:50Z</time><name>PT5389</name></trkpt>
<trkpt lat="51.797059" lon="03.922614"><ele>1.6</ele><time>2023-12-06T12:17:52Z</time><name>PT5390</name></trkpt>
<trkpt lat="51.797058" lon="03.922633"><ele>1.7</ele><time>2023-12-06T12:17:53Z</time><name>PT5391</name></trkpt>
<trkpt lat="51.797057" lon="03.922650"><ele>1.7</ele><time>2023-12-06T12:17:53Z</time><name>PT5392</name></trkpt>
<trkpt lat="51.797055" lon="03.922668"><ele>1.8</ele><time>2023-12-06T12:17:55Z</time><name>PT5393</name></trkpt>
<trkpt lat="51.797053" lon="03.922688"><ele>2</ele><time>2023-12-06T12:17:56Z</time><name>PT5394</name></trkpt>
<trkpt lat="51.797050" lon="03.922708"><ele>2.1</ele><time>2023-12-06T12:17:56Z</time><name>PT5395</name></trkpt>
<trkpt lat="51.797048" lon="03.922726"><ele>2</ele><time>2023-12-06T12:17:58Z</time><name>PT5396</name></trkpt>
<trkpt lat="51.797046" lon="03.922745"><ele>1.9</ele><time>2023-12-06T12:17:59Z</time><name>PT5397</name></trkpt>
<trkpt lat="51.797045" lon="03.922765"><ele>1.9</ele><time>2023-12-06T12:17:59Z</time><name>PT5398</name></trkpt>
<trkpt lat="51.797045" lon="03.922784"><ele>1.8</ele><time>2023-12-06T12:18:01Z</time><name>PT5399</name></trkpt>
<trkpt lat="51.797044" lon="03.922801"><ele>1.8</ele><time>2023-12-06T12:18:02Z</time><name>PT5400</name></trkpt>
<trkpt lat="51.797044" lon="03.922819"><ele>1.8</ele><time>2023-12-06T12:18:02Z</time><name>PT5401</name></trkpt>
<trkpt lat="51.797044" lon="03.922837"><ele>1.6</ele><time>2023-12-06T12:18:04Z</time><name>PT5402</name></trkpt>
<trkpt lat="51.797045" lon="03.922854"><ele>1.6</ele><time>2023-12-06T12:18:05Z</time><name>PT5403</name></trkpt>
<trkpt lat="51.797044" lon="03.922872"><ele>1.6</ele><time>2023-12-06T12:18:05Z</time><name>PT5404</name></trkpt>
<trkpt lat="51.797042" lon="03.922891"><ele>1.7</ele><time>2023-12-06T12:18:07Z</time><name>PT5405</name></trkpt>
<trkpt lat="51.797040" lon="03.922910"><ele>1.9</ele><time>2023-12-06T12:18:08Z</time><name>PT5406</name></trkpt>
<trkpt lat="51.797038" lon="03.922930"><ele>1.9</ele><time>2023-12-06T12:18:08Z</time><name>PT5407</name></trkpt>
<trkpt lat="51.797036" lon="03.922948"><ele>1.8</ele><time>2023-12-06T12:18:10Z</time><name>PT5408</name></trkpt>
<trkpt lat="51.797035" lon="03.922967"><ele>1.8</ele><time>2023-12-06T12:18:11Z</time><name>PT5409</name></trkpt>
<trkpt lat="51.797035" lon="03.922984"><ele>1.6</ele><time>2023-12-06T12:18:11Z</time><name>PT5410</name></trkpt>
<trkpt lat="51.797035" lon="03.923003"><ele>1.5</ele><time>2023-12-06T12:18:13Z</time><name>PT5411</name></trkpt>
<trkpt lat="51.797036" lon="03.923021"><ele>1.7</ele><time>2023-12-06T12:18:14Z</time><name>PT5412</name></trkpt>
<trkpt lat="51.797036" lon="03.923038"><ele>1.7</ele><time>2023-12-06T12:18:14Z</time><name>PT5413</name></trkpt>
<trkpt lat="51.797037" lon="03.923055"><ele>1.6</ele><time>2023-12-06T12:18:16Z</time><name>PT5414</name></trkpt>
<trkpt lat="51.797036" lon="03.923074"><ele>1.6</ele><time>2023-12-06T12:18:17Z</time><name>PT5415</name></trkpt>
<trkpt lat="51.797035" lon="03.923094"><ele>1.4</ele><time>2023-12-06T12:18:17Z</time><name>PT5416</name></trkpt>
<trkpt lat="51.797033" lon="03.923112"><ele>1.3</ele><time>2023-12-06T12:18:19Z</time><name>PT5417</name></trkpt>
<trkpt lat="51.797032" lon="03.923131"><ele>1.3</ele><time>2023-12-06T12:18:20Z</time><name>PT5418</name></trkpt>
<trkpt lat="51.797031" lon="03.923152"><ele>1.3</ele><time>2023-12-06T12:18:20Z</time><name>PT5419</name></trkpt>
<trkpt lat="51.797032" lon="03.923171"><ele>1.4</ele><time>2023-12-06T12:18:22Z</time><name>PT5420</name></trkpt>
<trkpt lat="51.797032" lon="03.923191"><ele>1.5</ele><time>2023-12-06T12:18:23Z</time><name>PT5421</name></trkpt>
<trkpt lat="51.797033" lon="03.923210"><ele>1.4</ele><time>2023-12-06T12:18:23Z</time><name>PT5422</name></trkpt>
<trkpt lat="51.797033" lon="03.923227"><ele>1.5</ele><time>2023-12-06T12:18:25Z</time><name>PT5423</name></trkpt>
<trkpt lat="51.797033" lon="03.923245"><ele>1.7</ele><time>2023-12-06T12:18:26Z</time><name>PT5424</name></trkpt>
<trkpt lat="51.797031" lon="03.923262"><ele>1.7</ele><time>2023-12-06T12:18:26Z</time><name>PT5425</name></trkpt>
<trkpt lat="51.797029" lon="03.923282"><ele>1.9</ele><time>2023-12-06T12:18:28Z</time><name>PT5426</name></trkpt>
<trkpt lat="51.797027" lon="03.923300"><ele>1.8</ele><time>2023-12-06T12:18:29Z</time><name>PT5427</name></trkpt>
<trkpt lat="51.797027" lon="03.923319"><ele>1.8</ele><time>2023-12-06T12:18:29Z</time><name>PT5428</name></trkpt>
<trkpt lat="51.797027" lon="03.923339"><ele>1.8</ele><time>2023-12-06T12:18:31Z</time><name>PT5429</name></trkpt>
<trkpt lat="51.797028" lon="03.923357"><ele>1.5</ele><time>2023-12-06T12:18:32Z</time><name>PT5430</name></trkpt>
<trkpt lat="51.797029" lon="03.923375"><ele>1.6</ele><time>2023-12-06T12:18:32Z</time><name>PT5431</name></trkpt>
<trkpt lat="51.797029" lon="03.923391"><ele>1.7</ele><time>2023-12-06T12:18:34Z</time><name>PT5432</name></trkpt>
<trkpt lat="51.797028" lon="03.923410"><ele>1.8</ele><time>2023-12-06T12:18:35Z</time><name>PT5433</name></trkpt>
<trkpt lat="51.797028" lon="03.923429"><ele>1.8</ele><time>2023-12-06T12:18:35Z</time><name>PT5434</name></trkpt>
<trkpt lat="51.797027" lon="03.923449"><ele>1.8</ele><time>2023-12-06T12:18:37Z</time><name>PT5435</name></trkpt>
<trkpt lat="51.797027" lon="03.923470"><ele>1.7</ele><time>2023-12-06T12:18:38Z</time><name>PT5436</name></trkpt>
<trkpt lat="51.797027" lon="03.923488"><ele>1.6</ele><time>2023-12-06T12:18:38Z</time><name>PT5437</name></trkpt>
<trkpt lat="51.797028" lon="03.923505"><ele>1.8</ele><time>2023-12-06T12:18:40Z</time><name>PT5438</name></trkpt>
<trkpt lat="51.797028" lon="03.923523"><ele>1.6</ele><time>2023-12-06T12:18:41Z</time><name>PT5439</name></trkpt>
<trkpt lat="51.797030" lon="03.923541"><ele>1.6</ele><time>2023-12-06T12:18:41Z</time><name>PT5440</name></trkpt>
<trkpt lat="51.797031" lon="03.923560"><ele>1.7</ele><time>2023-12-06T12:18:43Z</time><name>PT5441</name></trkpt>
<trkpt lat="51.797032" lon="03.923578"><ele>1.4</ele><time>2023-12-06T12:18:44Z</time><name>PT5442</name></trkpt>
<trkpt lat="51.797033" lon="03.923598"><ele>1.6</ele><time>2023-12-06T12:18:44Z</time><name>PT5443</name></trkpt>
<trkpt lat="51.797033" lon="03.923617"><ele>1.6</ele><time>2023-12-06T12:18:46Z</time><name>PT5444</name></trkpt>
<trkpt lat="51.797033" lon="03.923637"><ele>1.8</ele><time>2023-12-06T12:18:47Z</time><name>PT5445</name></trkpt>
<trkpt lat="51.797032" lon="03.923657"><ele>1.7</ele><time>2023-12-06T12:18:47Z</time><name>PT5446</name></trkpt>
<trkpt lat="51.797031" lon="03.923675"><ele>1.4</ele><time>2023-12-06T12:18:49Z</time><name>PT5447</name></trkpt>
<trkpt lat="51.797030" lon="03.923691"><ele>1.4</ele><time>2023-12-06T12:18:50Z</time><name>PT5448</name></trkpt>
<trkpt lat="51.797029" lon="03.923709"><ele>1.3</ele><time>2023-12-06T12:18:50Z</time><name>PT5449</name></trkpt>
<trkpt lat="51.797030" lon="03.923731"><ele>1.4</ele><time>2023-12-06T12:18:52Z</time><name>PT5450</name></trkpt>
<trkpt lat="51.797030" lon="03.923747"><ele>1.6</ele><time>2023-12-06T12:18:53Z</time><name>PT5451</name></trkpt>
<trkpt lat="51.797031" lon="03.923764"><ele>1.6</ele><time>2023-12-06T12:18:53Z</time><name>PT5452</name></trkpt>
<trkpt lat="51.797031" lon="03.923782"><ele>1.6</ele><time>2023-12-06T12:18:55Z</time><name>PT5453</name></trkpt>
<trkpt lat="51.797031" lon="03.923800"><ele>1.5</ele><time>2023-12-06T12:18:56Z</time><name>PT5454</name></trkpt>
<trkpt lat="51.797030" lon="03.923819"><ele>1.5</ele><time>2023-12-06T12:18:56Z</time><name>PT5455</name></trkpt>
<trkpt lat="51.797028" lon="03.923839"><ele>1.5</ele><time>2023-12-06T12:18:58Z</time><name>PT5456</name></trkpt>
<trkpt lat="51.797026" lon="03.923857"><ele>1.5</ele><time>2023-12-06T12:18:59Z</time><name>PT5457</name></trkpt>
<trkpt lat="51.797027" lon="03.923874"><ele>1.5</ele><time>2023-12-06T12:18:59Z</time><name>PT5458</name></trkpt>
<trkpt lat="51.797027" lon="03.923893"><ele>1.6</ele><time>2023-12-06T12:19:01Z</time><name>PT5459</name></trkpt>
<trkpt lat="51.797028" lon="03.923913"><ele>1.8</ele><time>2023-12-06T12:19:02Z</time><name>PT5460</name></trkpt>
<trkpt lat="51.797028" lon="03.923931"><ele>1.8</ele><time>2023-12-06T12:19:02Z</time><name>PT5461</name></trkpt>
<trkpt lat="51.797030" lon="03.923948"><ele>1.8</ele><time>2023-12-06T12:19:04Z</time><name>PT5462</name></trkpt>
<trkpt lat="51.797032" lon="03.923966"><ele>1.8</ele><time>2023-12-06T12:19:05Z</time><name>PT5463</name></trkpt>
<trkpt lat="51.797033" lon="03.923984"><ele>1.8</ele><time>2023-12-06T12:19:05Z</time><name>PT5464</name></trkpt>
<trkpt lat="51.797032" lon="03.924004"><ele>1.8</ele><time>2023-12-06T12:19:07Z</time><name>PT5465</name></trkpt>
<trkpt lat="51.797032" lon="03.924022"><ele>1.7</ele><time>2023-12-06T12:19:08Z</time><name>PT5466</name></trkpt>
<trkpt lat="51.797031" lon="03.924040"><ele>1.6</ele><time>2023-12-06T12:19:08Z</time><name>PT5467</name></trkpt>
<trkpt lat="51.797028" lon="03.924059"><ele>1.5</ele><time>2023-12-06T12:19:10Z</time><name>PT5468</name></trkpt>
<trkpt lat="51.797027" lon="03.924078"><ele>1.5</ele><time>2023-12-06T12:19:11Z</time><name>PT5469</name></trkpt>
<trkpt lat="51.797027" lon="03.924096"><ele>1.8</ele><time>2023-12-06T12:19:11Z</time><name>PT5470</name></trkpt>
<trkpt lat="51.797028" lon="03.924116"><ele>1.8</ele><time>2023-12-06T12:19:13Z</time><name>PT5471</name></trkpt>
<trkpt lat="51.797029" lon="03.924135"><ele>2</ele><time>2023-12-06T12:19:14Z</time><name>PT5472</name></trkpt>
<trkpt lat="51.797031" lon="03.924153"><ele>1.8</ele><time>2023-12-06T12:19:14Z</time><name>PT5473</name></trkpt>
<trkpt lat="51.797033" lon="03.924172"><ele>1.8</ele><time>2023-12-06T12:19:16Z</time><name>PT5474</name></trkpt>
<trkpt lat="51.797032" lon="03.924190"><ele>1.7</ele><time>2023-12-06T12:19:17Z</time><name>PT5475</name></trkpt>
<trkpt lat="51.797032" lon="03.924210"><ele>1.8</ele><time>2023-12-06T12:19:17Z</time><name>PT5476</name></trkpt>
<trkpt lat="51.797031" lon="03.924230"><ele>1.7</ele><time>2023-12-06T12:19:19Z</time><name>PT5477</name></trkpt>
<trkpt lat="51.797031" lon="03.924249"><ele>1.6</ele><time>2023-12-06T12:19:20Z</time><name>PT5478</name></trkpt>
<trkpt lat="51.797030" lon="03.924266"><ele>1.6</ele><time>2023-12-06T12:19:20Z</time><name>PT5479</name></trkpt>
<trkpt lat="51.797030" lon="03.924285"><ele>1.5</ele><time>2023-12-06T12:19:22Z</time><name>PT5480</name></trkpt>
<trkpt lat="51.797030" lon="03.924304"><ele>1.7</ele><time>2023-12-06T12:19:23Z</time><name>PT5481</name></trkpt>
<trkpt lat="51.797030" lon="03.924323"><ele>1.6</ele><time>2023-12-06T12:19:23Z</time><name>PT5482</name></trkpt>
<trkpt lat="51.797031" lon="03.924340"><ele>1.6</ele><time>2023-12-06T12:19:25Z</time><name>PT5483</name></trkpt>
<trkpt lat="51.797032" lon="03.924358"><ele>1.6</ele><time>2023-12-06T12:19:26Z</time><name>PT5484</name></trkpt>
<trkpt lat="51.797032" lon="03.924377"><ele>1.6</ele><time>2023-12-06T12:19:26Z</time><name>PT5485</name></trkpt>
<trkpt lat="51.797033" lon="03.924396"><ele>1.6</ele><time>2023-12-06T12:19:28Z</time><name>PT5486</name></trkpt>
<trkpt lat="51.797032" lon="03.924415"><ele>1.6</ele><time>2023-12-06T12:19:29Z</time><name>PT5487</name></trkpt>
<trkpt lat="51.797031" lon="03.924433"><ele>1.6</ele><time>2023-12-06T12:19:29Z</time><name>PT5488</name></trkpt>
<trkpt lat="51.797030" lon="03.924452"><ele>1.7</ele><time>2023-12-06T12:19:31Z</time><name>PT5489</name></trkpt>
<trkpt lat="51.797030" lon="03.924471"><ele>1.6</ele><time>2023-12-06T12:19:32Z</time><name>PT5490</name></trkpt>
<trkpt lat="51.797028" lon="03.924490"><ele>1.5</ele><time>2023-12-06T12:19:32Z</time><name>PT5491</name></trkpt>
<trkpt lat="51.797027" lon="03.924508"><ele>1.6</ele><time>2023-12-06T12:19:34Z</time><name>PT5492</name></trkpt>
<trkpt lat="51.797027" lon="03.924526"><ele>1.5</ele><time>2023-12-06T12:19:35Z</time><name>PT5493</name></trkpt>
<trkpt lat="51.797027" lon="03.924543"><ele>1.6</ele><time>2023-12-06T12:19:35Z</time><name>PT5494</name></trkpt>
<trkpt lat="51.797027" lon="03.924560"><ele>1.8</ele><time>2023-12-06T12:19:37Z</time><name>PT5495</name></trkpt>
<trkpt lat="51.797028" lon="03.924578"><ele>1.7</ele><time>2023-12-06T12:19:38Z</time><name>PT5496</name></trkpt>
<trkpt lat="51.797029" lon="03.924596"><ele>1.7</ele><time>2023-12-06T12:19:38Z</time><name>PT5497</name></trkpt>
<trkpt lat="51.797030" lon="03.924615"><ele>1.8</ele><time>2023-12-06T12:19:40Z</time><name>PT5498</name></trkpt>
<trkpt lat="51.797032" lon="03.924631"><ele>1.7</ele><time>2023-12-06T12:19:41Z</time><name>PT5499</name></trkpt>
<trkpt lat="51.797033" lon="03.924648"><ele>1.6</ele><time>2023-12-06T12:19:41Z</time><name>PT5500</name></trkpt>
<trkpt lat="51.797032" lon="03.924665"><ele>1.6</ele><time>2023-12-06T12:19:43Z</time><name>PT5501</name></trkpt>
<trkpt lat="51.797033" lon="03.924684"><ele>1.6</ele><time>2023-12-06T12:19:44Z</time><name>PT5502</name></trkpt>
<trkpt lat="51.797034" lon="03.924700"><ele>1.4</ele><time>2023-12-06T12:19:44Z</time><name>PT5503</name></trkpt>
<trkpt lat="51.797036" lon="03.924716"><ele>1.6</ele><time>2023-12-06T12:19:46Z</time><name>PT5504</name></trkpt>
<trkpt lat="51.797038" lon="03.924732"><ele>1.6</ele><time>2023-12-06T12:19:47Z</time><name>PT5505</name></trkpt>
<trkpt lat="51.797042" lon="03.924749"><ele>1.6</ele><time>2023-12-06T12:19:47Z</time><name>PT5506</name></trkpt>
<trkpt lat="51.797047" lon="03.924765"><ele>1.7</ele><time>2023-12-06T12:19:49Z</time><name>PT5507</name></trkpt>
<trkpt lat="51.797051" lon="03.924781"><ele>1.8</ele><time>2023-12-06T12:19:50Z</time><name>PT5508</name></trkpt>
<trkpt lat="51.797057" lon="03.924798"><ele>1.7</ele><time>2023-12-06T12:19:50Z</time><name>PT5509</name></trkpt>
<trkpt lat="51.797063" lon="03.924816"><ele>1.6</ele><time>2023-12-06T12:19:52Z</time><name>PT5510</name></trkpt>
<trkpt lat="51.797069" lon="03.924833"><ele>1.4</ele><time>2023-12-06T12:19:53Z</time><name>PT5511</name></trkpt>
<trkpt lat="51.797075" lon="03.924849"><ele>1.4</ele><time>2023-12-06T12:19:53Z</time><name>PT5512</name></trkpt>
<trkpt lat="51.797083" lon="03.924862"><ele>1.4</ele><time>2023-12-06T12:19:55Z</time><name>PT5513</name></trkpt>
<trkpt lat="51.797091" lon="03.924875"><ele>1.6</ele><time>2023-12-06T12:19:56Z</time><name>PT5514</name></trkpt>
<trkpt lat="51.797100" lon="03.924885"><ele>1.6</ele><time>2023-12-06T12:19:56Z</time><name>PT5515</name></trkpt>
<trkpt lat="51.797108" lon="03.924896"><ele>1.7</ele><time>2023-12-06T12:19:58Z</time><name>PT5516</name></trkpt>
<trkpt lat="51.797116" lon="03.924908"><ele>1.7</ele><time>2023-12-06T12:19:59Z</time><name>PT5517</name></trkpt>
<trkpt lat="51.797124" lon="03.924920"><ele>1.7</ele><time>2023-12-06T12:19:59Z</time><name>PT5518</name></trkpt>
<trkpt lat="51.797134" lon="03.924932"><ele>1.7</ele><time>2023-12-06T12:20:01Z</time><name>PT5519</name></trkpt>
<trkpt lat="51.797143" lon="03.924942"><ele>1.7</ele><time>2023-12-06T12:20:02Z</time><name>PT5520</name></trkpt>
<trkpt lat="51.797152" lon="03.924949"><ele>1.7</ele><time>2023-12-06T12:20:02Z</time><name>PT5521</name></trkpt>
<trkpt lat="51.797163" lon="03.924958"><ele>1.7</ele><time>2023-12-06T12:20:04Z</time><name>PT5522</name></trkpt>
<trkpt lat="51.797171" lon="03.924964"><ele>1.5</ele><time>2023-12-06T12:20:05Z</time><name>PT5523</name></trkpt>
<trkpt lat="51.797180" lon="03.924970"><ele>1.5</ele><time>2023-12-06T12:20:05Z</time><name>PT5524</name></trkpt>
<trkpt lat="51.797189" lon="03.924977"><ele>1.5</ele><time>2023-12-06T12:20:07Z</time><name>PT5525</name></trkpt>
<trkpt lat="51.797200" lon="03.924984"><ele>1.6</ele><time>2023-12-06T12:20:08Z</time><name>PT5526</name></trkpt>
<trkpt lat="51.797210" lon="03.924989"><ele>1.5</ele><time>2023-12-06T12:20:08Z</time><name>PT5527</name></trkpt>
<trkpt lat="51.797218" lon="03.924994"><ele>1.6</ele><time>2023-12-06T12:20:10Z</time><name>PT5528</name></trkpt>
<trkpt lat="51.797229" lon="03.924996"><ele>1.7</ele><time>2023-12-06T12:20:11Z</time><name>PT5529</name></trkpt>
<trkpt lat="51.797239" lon="03.924999"><ele>1.6</ele><time>2023-12-06T12:20:11Z</time><name>PT5530</name></trkpt>
<trkpt lat="51.797251" lon="03.925002"><ele>1.6</ele><time>2023-12-06T12:20:13Z</time><name>PT5531</name></trkpt>
<trkpt lat="51.797263" lon="03.925003"><ele>1.6</ele><time>2023-12-06T12:20:14Z</time><name>PT5532</name></trkpt>
<trkpt lat="51.797273" lon="03.925009"><ele>1.8</ele><time>2023-12-06T12:20:14Z</time><name>PT5533</name></trkpt>
<trkpt lat="51.797284" lon="03.925016"><ele>1.8</ele><time>2023-12-06T12:20:16Z</time><name>PT5534</name></trkpt>
<trkpt lat="51.797295" lon="03.925022"><ele>1.6</ele><time>2023-12-06T12:20:17Z</time><name>PT5535</name></trkpt>
<trkpt lat="51.797305" lon="03.925026"><ele>1.7</ele><time>2023-12-06T12:20:17Z</time><name>PT5536</name></trkpt>
<trkpt lat="51.797315" lon="03.925033"><ele>1.6</ele><time>2023-12-06T12:20:19Z</time><name>PT5537</name></trkpt>
<trkpt lat="51.797326" lon="03.925039"><ele>1.5</ele><time>2023-12-06T12:20:20Z</time><name>PT5538</name></trkpt>
<trkpt lat="51.797338" lon="03.925042"><ele>1.6</ele><time>2023-12-06T12:20:20Z</time><name>PT5539</name></trkpt>
<trkpt lat="51.797350" lon="03.925046"><ele>1.5</ele><time>2023-12-06T12:20:22Z</time><name>PT5540</name></trkpt>
<trkpt lat="51.797360" lon="03.925051"><ele>1.5</ele><time>2023-12-06T12:20:23Z</time><name>PT5541</name></trkpt>
<trkpt lat="51.797371" lon="03.925055"><ele>1.4</ele><time>2023-12-06T12:20:23Z</time><name>PT5542</name></trkpt>
<trkpt lat="51.797382" lon="03.925062"><ele>1.4</ele><time>2023-12-06T12:20:25Z</time><name>PT5543</name></trkpt>
<trkpt lat="51.797392" lon="03.925069"><ele>1.6</ele><time>2023-12-06T12:20:26Z</time><name>PT5544</name></trkpt>
<trkpt lat="51.797402" lon="03.925074"><ele>1.6</ele><time>2023-12-06T12:20:26Z</time><name>PT5545</name></trkpt>
<trkpt lat="51.797412" lon="03.925080"><ele>1.8</ele><time>2023-12-06T12:20:28Z</time><name>PT5546</name></trkpt>
<trkpt lat="51.797421" lon="03.925084"><ele>1.8</ele><time>2023-12-06T12:20:29Z</time><name>PT5547</name></trkpt>
<trkpt lat="51.797431" lon="03.925088"><ele>1.9</ele><time>2023-12-06T12:20:29Z</time><name>PT5548</name></trkpt>
<trkpt lat="51.797442" lon="03.925093"><ele>1.8</ele><time>2023-12-06T12:20:31Z</time><name>PT5549</name></trkpt>
<trkpt lat="51.797452" lon="03.925098"><ele>1.8</ele><time>2023-12-06T12:20:32Z</time><name>PT5550</name></trkpt>
<trkpt lat="51.797463" lon="03.925102"><ele>1.8</ele><time>2023-12-06T12:20:32Z</time><name>PT5551</name></trkpt>
<trkpt lat="51.797474" lon="03.925109"><ele>1.8</ele><time>2023-12-06T12:20:34Z</time><name>PT5552</name></trkpt>
<trkpt lat="51.797485" lon="03.925116"><ele>1.8</ele><time>2023-12-06T12:20:35Z</time><name>PT5553</name></trkpt>
<trkpt lat="51.797495" lon="03.925124"><ele>1.8</ele><time>2023-12-06T12:20:35Z</time><name>PT5554</name></trkpt>
<trkpt lat="51.797505" lon="03.925130"><ele>1.7</ele><time>2023-12-06T12:20:37Z</time><name>PT5555</name></trkpt>
<trkpt lat="51.797516" lon="03.925136"><ele>1.8</ele><time>2023-12-06T12:20:38Z</time><name>PT5556</name></trkpt>
<trkpt lat="51.797525" lon="03.925142"><ele>1.7</ele><time>2023-12-06T12:20:38Z</time><name>PT5557</name></trkpt>
<trkpt lat="51.797535" lon="03.925150"><ele>1.9</ele><time>2023-12-06T12:20:40Z</time><name>PT5558</name></trkpt>
<trkpt lat="51.797546" lon="03.925157"><ele>1.8</ele><time>2023-12-06T12:20:41Z</time><name>PT5559</name></trkpt>
<trkpt lat="51.797556" lon="03.925165"><ele>1.8</ele><time>2023-12-06T12:20:41Z</time><name>PT5560</name></trkpt>
<trkpt lat="51.797567" lon="03.925173"><ele>2</ele><time>2023-12-06T12:20:43Z</time><name>PT5561</name></trkpt>
<trkpt lat="51.797577" lon="03.925184"><ele>2.1</ele><time>2023-12-06T12:20:44Z</time><name>PT5562</name></trkpt>
<trkpt lat="51.797587" lon="03.925195"><ele>2.2</ele><time>2023-12-06T12:20:44Z</time><name>PT5563</name></trkpt>
<trkpt lat="51.797596" lon="03.925205"><ele>2.1</ele><time>2023-12-06T12:20:46Z</time><name>PT5564</name></trkpt>
<trkpt lat="51.797605" lon="03.925216"><ele>1.8</ele><time>2023-12-06T12:20:47Z</time><name>PT5565</name></trkpt>
<trkpt lat="51.797615" lon="03.925228"><ele>1.8</ele><time>2023-12-06T12:20:47Z</time><name>PT5566</name></trkpt>
<trkpt lat="51.797625" lon="03.925241"><ele>1.6</ele><time>2023-12-06T12:20:49Z</time><name>PT5567</name></trkpt>
<trkpt lat="51.797635" lon="03.925253"><ele>1.6</ele><time>2023-12-06T12:20:50Z</time><name>PT5568</name></trkpt>
<trkpt lat="51.797644" lon="03.925264"><ele>1.4</ele><time>2023-12-06T12:20:50Z</time><name>PT5569</name></trkpt>
<trkpt lat="51.797651" lon="03.925278"><ele>1.4</ele><time>2023-12-06T12:20:52Z</time><name>PT5570</name></trkpt>
<trkpt lat="51.797660" lon="03.925292"><ele>1.5</ele><time>2023-12-06T12:20:53Z</time><name>PT5571</name></trkpt>
<trkpt lat="51.797667" lon="03.925308"><ele>1.4</ele><time>2023-12-06T12:20:53Z</time><name>PT5572</name></trkpt>
<trkpt lat="51.797674" lon="03.925322"><ele>1.5</ele><time>2023-12-06T12:20:55Z</time><name>PT5573</name></trkpt>
<trkpt lat="51.797681" lon="03.925337"><ele>1.6</ele><time>2023-12-06T12:20:56Z</time><name>PT5574</name></trkpt>
<trkpt lat="51.797688" lon="03.925352"><ele>1.5</ele><time>2023-12-06T12:20:56Z</time><name>PT5575</name></trkpt>
<trkpt lat="51.797696" lon="03.925367"><ele>1.7</ele><time>2023-12-06T12:20:58Z</time><name>PT5576</name></trkpt>
<trkpt lat="51.797704" lon="03.925382"><ele>1.7</ele><time>2023-12-06T12:20:59Z</time><name>PT5577</name></trkpt>
<trkpt lat="51.797711" lon="03.925397"><ele>1.7</ele><time>2023-12-06T12:20:59Z</time><name>PT5578</name></trkpt>
<trkpt lat="51.797718" lon="03.925411"><ele>1.8</ele><time>2023-12-06T12:21:01Z</time><name>PT5579</name></trkpt>
<trkpt lat="51.797725" lon="03.925427"><ele>1.8</ele><time>2023-12-06T12:21:02Z</time><name>PT5580</name></trkpt>
<trkpt lat="51.797731" lon="03.925442"><ele>1.7</ele><time>2023-12-06T12:21:02Z</time><name>PT5581</name></trkpt>
<trkpt lat="51.797736" lon="03.925459"><ele>1.5</ele><time>2023-12-06T12:21:04Z</time><name>PT5582</name></trkpt>
<trkpt lat="51.797741" lon="03.925474"><ele>1.5</ele><time>2023-12-06T12:21:05Z</time><name>PT5583</name></trkpt>
<trkpt lat="51.797747" lon="03.925488"><ele>1.6</ele><time>2023-12-06T12:21:05Z</time><name>PT5584</name></trkpt>
<trkpt lat="51.797753" lon="03.925506"><ele>1.8</ele><time>2023-12-06T12:21:07Z</time><name>PT5585</name></trkpt>
<trkpt lat="51.797760" lon="03.925522"><ele>1.8</ele><time>2023-12-06T12:21:08Z</time><name>PT5586</name></trkpt>
<trkpt lat="51.797766" lon="03.925536"><ele>1.8</ele><time>2023-12-06T12:21:08Z</time><name>PT5587</name></trkpt>
<trkpt lat="51.797773" lon="03.925550"><ele>1.7</ele><time>2023-12-06T12:21:10Z</time><name>PT5588</name></trkpt>
<trkpt lat="51.797780" lon="03.925566"><ele>1.4</ele><time>2023-12-06T12:21:11Z</time><name>PT5589</name></trkpt>
<trkpt lat="51.797786" lon="03.925581"><ele>1.5</ele><time>2023-12-06T12:21:11Z</time><name>PT5590</name></trkpt>
<trkpt lat="51.797791" lon="03.925597"><ele>1.3</ele><time>2023-12-06T12:21:13Z</time><name>PT5591</name></trkpt>
<trkpt lat="51.797796" lon="03.925614"><ele>1.4</ele><time>2023-12-06T12:21:14Z</time><name>PT5592</name></trkpt>
<trkpt lat="51.797801" lon="03.925631"><ele>1.4</ele><time>2023-12-06T12:21:14Z</time><name>PT5593</name></trkpt>
<trkpt lat="51.797806" lon="03.925649"><ele>1.3</ele><time>2023-12-06T12:21:16Z</time><name>PT5594</name></trkpt>
<trkpt lat="51.797810" lon="03.925668"><ele>1.4</ele><time>2023-12-06T12:21:17Z</time><name>PT5595</name></trkpt>
<trkpt lat="51.797814" lon="03.925685"><ele>1.5</ele><time>2023-12-06T12:21:17Z</time><name>PT5596</name></trkpt>
<trkpt lat="51.797817" lon="03.925701"><ele>1.6</ele><time>2023-12-06T12:21:19Z</time><name>PT5597</name></trkpt>
<trkpt lat="51.797821" lon="03.925718"><ele>1.7</ele><time>2023-12-06T12:21:20Z</time><name>PT5598</name></trkpt>
<trkpt lat="51.797825" lon="03.925736"><ele>1.7</ele><time>2023-12-06T12:21:20Z</time><name>PT5599</name></trkpt>
<trkpt lat="51.797830" lon="03.925754"><ele>1.6</ele><time>2023-12-06T12:21:22Z</time><name>PT5600</name></trkpt>
<trkpt lat="51.797833" lon="03.925772"><ele>1.5</ele><time>2023-12-06T12:21:23Z</time><name>PT5601</name></trkpt>
<trkpt lat="51.797836" lon="03.925789"><ele>1.5</ele><time>2023-12-06T12:21:23Z</time><name>PT5602</name></trkpt>
<trkpt lat="51.797840" lon="03.925807"><ele>1.4</ele><time>2023-12-06T12:21:25Z</time><name>PT5603</name></trkpt>
<trkpt lat="51.797842" lon="03.925824"><ele>1.4</ele><time>2023-12-06T12:21:26Z</time><name>PT5604</name></trkpt>
<trkpt lat="51.797844" lon="03.925842"><ele>1.4</ele><time>2023-12-06T12:21:26Z</time><name>PT5605</name></trkpt>
<trkpt lat="51.797846" lon="03.925862"><ele>1.4</ele><time>2023-12-06T12:21:28Z</time><name>PT5606</name></trkpt>
<trkpt lat="51.797846" lon="03.925880"><ele>1.5</ele><time>2023-12-06T12:21:29Z</time><name>PT5607</name></trkpt>
<trkpt lat="51.797846" lon="03.925896"><ele>1.4</ele><time>2023-12-06T12:21:29Z</time><name>PT5608</name></trkpt>
<trkpt lat="51.797847" lon="03.925914"><ele>1.3</ele><time>2023-12-06T12:21:31Z</time><name>PT5609</name></trkpt>
<trkpt lat="51.797847" lon="03.925931"><ele>1.3</ele><time>2023-12-06T12:21:32Z</time><name>PT5610</name></trkpt>
<trkpt lat="51.797847" lon="03.925948"><ele>1.5</ele><time>2023-12-06T12:21:32Z</time><name>PT5611</name></trkpt>
<trkpt lat="51.797848" lon="03.925964"><ele>1.5</ele><time>2023-12-06T12:21:34Z</time><name>PT5612</name></trkpt>
<trkpt lat="51.797848" lon="03.925981"><ele>1.4</ele><time>2023-12-06T12:21:35Z</time><name>PT5613</name></trkpt>
<trkpt lat="51.797846" lon="03.926000"><ele>1.4</ele><time>2023-12-06T12:21:35Z</time><name>PT5614</name></trkpt>
<trkpt lat="51.797844" lon="03.926016"><ele>1.4</ele><time>2023-12-06T12:21:37Z</time><name>PT5615</name></trkpt>
<trkpt lat="51.797842" lon="03.926033"><ele>1.4</ele><time>2023-12-06T12:21:38Z</time><name>PT5616</name></trkpt>
<trkpt lat="51.797842" lon="03.926051"><ele>1.4</ele><time>2023-12-06T12:21:38Z</time><name>PT5617</name></trkpt>
<trkpt lat="51.797841" lon="03.926070"><ele>1.4</ele><time>2023-12-06T12:21:40Z</time><name>PT5618</name></trkpt>
<trkpt lat="51.797841" lon="03.926089"><ele>1.4</ele><time>2023-12-06T12:21:41Z</time><name>PT5619</name></trkpt>
<trkpt lat="51.797842" lon="03.926107"><ele>1.4</ele><time>2023-12-06T12:21:41Z</time><name>PT5620</name></trkpt>
<trkpt lat="51.797843" lon="03.926125"><ele>1.5</ele><time>2023-12-06T12:21:43Z</time><name>PT5621</name></trkpt>
<trkpt lat="51.797845" lon="03.926144"><ele>1.5</ele><time>2023-12-06T12:21:44Z</time><name>PT5622</name></trkpt>
<trkpt lat="51.797846" lon="03.926161"><ele>1.3</ele><time>2023-12-06T12:21:44Z</time><name>PT5623</name></trkpt>
<trkpt lat="51.797846" lon="03.926179"><ele>1.3</ele><time>2023-12-06T12:21:46Z</time><name>PT5624</name></trkpt>
<trkpt lat="51.797846" lon="03.926196"><ele>1.3</ele><time>2023-12-06T12:21:47Z</time><name>PT5625</name></trkpt>
<trkpt lat="51.797845" lon="03.926209"><ele>1.4</ele><time>2023-12-06T12:21:47Z</time><name>PT5626</name></trkpt>
<trkpt lat="51.797844" lon="03.926224"><ele>1.4</ele><time>2023-12-06T12:21:49Z</time><name>PT5627</name></trkpt>
<trkpt lat="51.797846" lon="03.926238"><ele>1.5</ele><time>2023-12-06T12:21:50Z</time><name>PT5628</name></trkpt>
<trkpt lat="51.797846" lon="03.926250"><ele>1.4</ele><time>2023-12-06T12:21:50Z</time><name>PT5629</name></trkpt>
<trkpt lat="51.797847" lon="03.926261"><ele>1.3</ele><time>2023-12-06T12:21:52Z</time><name>PT5630</name></trkpt>
<trkpt lat="51.797847" lon="03.926275"><ele>1.5</ele><time>2023-12-06T12:21:53Z</time><name>PT5631</name></trkpt>
<trkpt lat="51.797847" lon="03.926296"><ele>1.5</ele><time>2023-12-06T12:21:53Z</time><name>PT5632</name></trkpt>
<trkpt lat="51.797845" lon="03.926316"><ele>1.4</ele><time>2023-12-06T12:21:55Z</time><name>PT5633</name></trkpt>
<trkpt lat="51.797846" lon="03.926338"><ele>1.3</ele><time>2023-12-06T12:21:56Z</time><name>PT5634</name></trkpt>
<trkpt lat="51.797847" lon="03.926358"><ele>1.3</ele><time>2023-12-06T12:21:56Z</time><name>PT5635</name></trkpt>
<trkpt lat="51.797847" lon="03.926377"><ele>1.3</ele><time>2023-12-06T12:21:58Z</time><name>PT5636</name></trkpt>
<trkpt lat="51.797849" lon="03.926398"><ele>1.3</ele><time>2023-12-06T12:21:59Z</time><name>PT5637</name></trkpt>
<trkpt lat="51.797850" lon="03.926418"><ele>1.4</ele><time>2023-12-06T12:21:59Z</time><name>PT5638</name></trkpt>
<trkpt lat="51.797849" lon="03.926440"><ele>1.4</ele><time>2023-12-06T12:22:01Z</time><name>PT5639</name></trkpt>
<trkpt lat="51.797848" lon="03.926461"><ele>1.5</ele><time>2023-12-06T12:22:02Z</time><name>PT5640</name></trkpt>
<trkpt lat="51.797847" lon="03.926481"><ele>1.7</ele><time>2023-12-06T12:22:02Z</time><name>PT5641</name></trkpt>
<trkpt lat="51.797846" lon="03.926502"><ele>1.6</ele><time>2023-12-06T12:22:04Z</time><name>PT5642</name></trkpt>
<trkpt lat="51.797845" lon="03.926522"><ele>1.7</ele><time>2023-12-06T12:22:05Z</time><name>PT5643</name></trkpt>
<trkpt lat="51.797845" lon="03.926543"><ele>1.7</ele><time>2023-12-06T12:22:05Z</time><name>PT5644</name></trkpt>
<trkpt lat="51.797844" lon="03.926563"><ele>1.7</ele><time>2023-12-06T12:22:07Z</time><name>PT5645</name></trkpt>
<trkpt lat="51.797844" lon="03.926583"><ele>1.9</ele><time>2023-12-06T12:22:08Z</time><name>PT5646</name></trkpt>
<trkpt lat="51.797845" lon="03.926601"><ele>1.9</ele><time>2023-12-06T12:22:08Z</time><name>PT5647</name></trkpt>
<trkpt lat="51.797844" lon="03.926621"><ele>1.8</ele><time>2023-12-06T12:22:10Z</time><name>PT5648</name></trkpt>
<trkpt lat="51.797842" lon="03.926640"><ele>1.8</ele><time>2023-12-06T12:22:11Z</time><name>PT5649</name></trkpt>
<trkpt lat="51.797841" lon="03.926658"><ele>1.8</ele><time>2023-12-06T12:22:11Z</time><name>PT5650</name></trkpt>
<trkpt lat="51.797842" lon="03.926676"><ele>1.7</ele><time>2023-12-06T12:22:13Z</time><name>PT5651</name></trkpt>
<trkpt lat="51.797844" lon="03.926693"><ele>1.8</ele><time>2023-12-06T12:22:14Z</time><name>PT5652</name></trkpt>
<trkpt lat="51.797846" lon="03.926711"><ele>1.8</ele><time>2023-12-06T12:22:14Z</time><name>PT5653</name></trkpt>
<trkpt lat="51.797848" lon="03.926728"><ele>1.7</ele><time>2023-12-06T12:22:16Z</time><name>PT5654</name></trkpt>
<trkpt lat="51.797848" lon="03.926746"><ele>1.7</ele><time>2023-12-06T12:22:17Z</time><name>PT5655</name></trkpt>
<trkpt lat="51.797847" lon="03.926764"><ele>1.7</ele><time>2023-12-06T12:22:17Z</time><name>PT5656</name></trkpt>
<trkpt lat="51.797846" lon="03.926784"><ele>1.7</ele><time>2023-12-06T12:22:19Z</time><name>PT5657</name></trkpt>
<trkpt lat="51.797845" lon="03.926805"><ele>1.7</ele><time>2023-12-06T12:22:20Z</time><name>PT5658</name></trkpt>
<trkpt lat="51.797843" lon="03.926826"><ele>1.6</ele><time>2023-12-06T12:22:20Z</time><name>PT5659</name></trkpt>
<trkpt lat="51.797843" lon="03.926844"><ele>1.7</ele><time>2023-12-06T12:22:22Z</time><name>PT5660</name></trkpt>
<trkpt lat="51.797843" lon="03.926862"><ele>1.7</ele><time>2023-12-06T12:22:23Z</time><name>PT5661</name></trkpt>
<trkpt lat="51.797844" lon="03.926880"><ele>1.8</ele><time>2023-12-06T12:22:23Z</time><name>PT5662</name></trkpt>
<trkpt lat="51.797845" lon="03.926900"><ele>1.8</ele><time>2023-12-06T12:22:25Z</time><name>PT5663</name></trkpt>
<trkpt lat="51.797846" lon="03.926918"><ele>1.7</ele><time>2023-12-06T12:22:26Z</time><name>PT5664</name></trkpt>
<trkpt lat="51.797847" lon="03.926936"><ele>1.7</ele><time>2023-12-06T12:22:26Z</time><name>PT5665</name></trkpt>
<trkpt lat="51.797847" lon="03.926955"><ele>1.6</ele><time>2023-12-06T12:22:28Z</time><name>PT5666</name></trkpt>
<trkpt lat="51.797847" lon="03.926974"><ele>1.4</ele><time>2023-12-06T12:22:29Z</time><name>PT5667</name></trkpt>
<trkpt lat="51.797847" lon="03.926995"><ele>1.5</ele><time>2023-12-06T12:22:29Z</time><name>PT5668</name></trkpt>
<trkpt lat="51.797847" lon="03.927016"><ele>1.5</ele><time>2023-12-06T12:22:31Z</time><name>PT5669</name></trkpt>
<trkpt lat="51.797846" lon="03.927036"><ele>1.6</ele><time>2023-12-06T12:22:32Z</time><name>PT5670</name></trkpt>
<trkpt lat="51.797845" lon="03.927055"><ele>1.8</ele><time>2023-12-06T12:22:32Z</time><name>PT5671</name></trkpt>
<trkpt lat="51.797846" lon="03.927073"><ele>1.6</ele><time>2023-12-06T12:22:34Z</time><name>PT5672</name></trkpt>
<trkpt lat="51.797846" lon="03.927091"><ele>1.4</ele><time>2023-12-06T12:22:35Z</time><name>PT5673</name></trkpt>
<trkpt lat="51.797847" lon="03.927110"><ele>1.3</ele><time>2023-12-06T12:22:35Z</time><name>PT5674</name></trkpt>
<trkpt lat="51.797848" lon="03.927129"><ele>1.3</ele><time>2023-12-06T12:22:37Z</time><name>PT5675</name></trkpt>
<trkpt lat="51.797850" lon="03.927148"><ele>1.3</ele><time>2023-12-06T12:22:38Z</time><name>PT5676</name></trkpt>
<trkpt lat="51.797851" lon="03.927166"><ele>1.4</ele><time>2023-12-06T12:22:38Z</time><name>PT5677</name></trkpt>
<trkpt lat="51.797851" lon="03.927184"><ele>1.5</ele><time>2023-12-06T12:22:40Z</time><name>PT5678</name></trkpt>
<trkpt lat="51.797851" lon="03.927204"><ele>1.7</ele><time>2023-12-06T12:22:41Z</time><name>PT5679</name></trkpt>
<trkpt lat="51.797851" lon="03.927223"><ele>1.8</ele><time>2023-12-06T12:22:41Z</time><name>PT5680</name></trkpt>
<trkpt lat="51.797850" lon="03.927241"><ele>1.6</ele><time>2023-12-06T12:22:43Z</time><name>PT5681</name></trkpt>
<trkpt lat="51.797850" lon="03.927257"><ele>1.8</ele><time>2023-12-06T12:22:44Z</time><name>PT5682</name></trkpt>
<trkpt lat="51.797851" lon="03.927274"><ele>1.7</ele><time>2023-12-06T12:22:44Z</time><name>PT5683</name></trkpt>
<trkpt lat="51.797853" lon="03.927293"><ele>1.6</ele><time>2023-12-06T12:22:46Z</time><name>PT5684</name></trkpt>
<trkpt lat="51.797854" lon="03.927313"><ele>1.6</ele><time>2023-12-06T12:22:47Z</time><name>PT5685</name></trkpt>
<trkpt lat="51.797856" lon="03.927334"><ele>1.6</ele><time>2023-12-06T12:22:47Z</time><name>PT5686</name></trkpt>
<trkpt lat="51.797857" lon="03.927353"><ele>1.6</ele><time>2023-12-06T12:22:49Z</time><name>PT5687</name></trkpt>
<trkpt lat="51.797859" lon="03.927371"><ele>1.6</ele><time>2023-12-06T12:22:50Z</time><name>PT5688</name></trkpt>
<trkpt lat="51.797860" lon="03.927391"><ele>1.6</ele><time>2023-12-06T12:22:50Z</time><name>PT5689</name></trkpt>
<trkpt lat="51.797860" lon="03.927410"><ele>1.5</ele><time>2023-12-06T12:22:52Z</time><name>PT5690</name></trkpt>
<trkpt lat="51.797860" lon="03.927428"><ele>1.6</ele><time>2023-12-06T12:22:53Z</time><name>PT5691</name></trkpt>
<trkpt lat="51.797861" lon="03.927446"><ele>1.6</ele><time>2023-12-06T12:22:53Z</time><name>PT5692</name></trkpt>
<trkpt lat="51.797862" lon="03.927462"><ele>1.7</ele><time>2023-12-06T12:22:55Z</time><name>PT5693</name></trkpt>
<trkpt lat="51.797863" lon="03.927479"><ele>1.8</ele><time>2023-12-06T12:22:56Z</time><name>PT5694</name></trkpt>
<trkpt lat="51.797865" lon="03.927497"><ele>1.9</ele><time>2023-12-06T12:22:56Z</time><name>PT5695</name></trkpt>
<trkpt lat="51.797866" lon="03.927513"><ele>1.9</ele><time>2023-12-06T12:22:58Z</time><name>PT5696</name></trkpt>
<trkpt lat="51.797867" lon="03.927531"><ele>1.8</ele><time>2023-12-06T12:22:59Z</time><name>PT5697</name></trkpt>
<trkpt lat="51.797868" lon="03.927550"><ele>1.7</ele><time>2023-12-06T12:22:59Z</time><name>PT5698</name></trkpt>
<trkpt lat="51.797869" lon="03.927570"><ele>1.6</ele><time>2023-12-06T12:23:01Z</time><name>PT5699</name></trkpt>
<trkpt lat="51.797870" lon="03.927589"><ele>1.5</ele><time>2023-12-06T12:23:02Z</time><name>PT5700</name></trkpt>
<trkpt lat="51.797871" lon="03.927609"><ele>1.6</ele><time>2023-12-06T12:23:02Z</time><name>PT5701</name></trkpt>
<trkpt lat="51.797872" lon="03.927626"><ele>1.5</ele><time>2023-12-06T12:23:04Z</time><name>PT5702</name></trkpt>
<trkpt lat="51.797873" lon="03.927644"><ele>1.6</ele><time>2023-12-06T12:23:05Z</time><name>PT5703</name></trkpt>
<trkpt lat="51.797875" lon="03.927663"><ele>1.5</ele><time>2023-12-06T12:23:05Z</time><name>PT5704</name></trkpt>
<trkpt lat="51.797878" lon="03.927682"><ele>1.6</ele><time>2023-12-06T12:23:07Z</time><name>PT5705</name></trkpt>
<trkpt lat="51.797880" lon="03.927700"><ele>1.6</ele><time>2023-12-06T12:23:08Z</time><name>PT5706</name></trkpt>
<trkpt lat="51.797883" lon="03.927717"><ele>1.5</ele><time>2023-12-06T12:23:08Z</time><name>PT5707</name></trkpt>
<trkpt lat="51.797885" lon="03.927736"><ele>1.4</ele><time>2023-12-06T12:23:10Z</time><name>PT5708</name></trkpt>
<trkpt lat="51.797886" lon="03.927756"><ele>1.3</ele><time>2023-12-06T12:23:11Z</time><name>PT5709</name></trkpt>
<trkpt lat="51.797887" lon="03.927776"><ele>1.4</ele><time>2023-12-06T12:23:11Z</time><name>PT5710</name></trkpt>
<trkpt lat="51.797888" lon="03.927796"><ele>1.6</ele><time>2023-12-06T12:23:13Z</time><name>PT5711</name></trkpt>
<trkpt lat="51.797890" lon="03.927814"><ele>1.6</ele><time>2023-12-06T12:23:14Z</time><name>PT5712</name></trkpt>
<trkpt lat="51.797892" lon="03.927831"><ele>1.6</ele><time>2023-12-06T12:23:14Z</time><name>PT5713</name></trkpt>
<trkpt lat="51.797895" lon="03.927849"><ele>1.6</ele><time>2023-12-06T12:23:16Z</time><name>PT5714</name></trkpt>
<trkpt lat="51.797897" lon="03.927867"><ele>1.4</ele><time>2023-12-06T12:23:17Z</time><name>PT5715</name></trkpt>
<trkpt lat="51.797900" lon="03.927884"><ele>1.2</ele><time>2023-12-06T12:23:17Z</time><name>PT5716</name></trkpt>
<trkpt lat="51.797903" lon="03.927900"><ele>1.3</ele><time>2023-12-06T12:23:19Z</time><name>PT5717</name></trkpt>
<trkpt lat="51.797904" lon="03.927918"><ele>1.3</ele><time>2023-12-06T12:23:20Z</time><name>PT5718</name></trkpt>
<trkpt lat="51.797905" lon="03.927936"><ele>1.4</ele><time>2023-12-06T12:23:20Z</time><name>PT5719</name></trkpt>
<trkpt lat="51.797905" lon="03.927957"><ele>1.7</ele><time>2023-12-06T12:23:22Z</time><name>PT5720</name></trkpt>
<trkpt lat="51.797907" lon="03.927975"><ele>1.8</ele><time>2023-12-06T12:23:23Z</time><name>PT5721</name></trkpt>
<trkpt lat="51.797908" lon="03.927993"><ele>1.9</ele><time>2023-12-06T12:23:23Z</time><name>PT5722</name></trkpt>
<trkpt lat="51.797910" lon="03.928012"><ele>1.8</ele><time>2023-12-06T12:23:25Z</time><name>PT5723</name></trkpt>
<trkpt lat="51.797912" lon="03.928031"><ele>1.8</ele><time>2023-12-06T12:23:26Z</time><name>PT5724</name></trkpt>
<trkpt lat="51.797914" lon="03.928049"><ele>1.8</ele><time>2023-12-06T12:23:26Z</time><name>PT5725</name></trkpt>
<trkpt lat="51.797918" lon="03.928066"><ele>1.8</ele><time>2023-12-06T12:23:28Z</time><name>PT5726</name></trkpt>
<trkpt lat="51.797921" lon="03.928084"><ele>1.7</ele><time>2023-12-06T12:23:29Z</time><name>PT5727</name></trkpt>
<trkpt lat="51.797924" lon="03.928101"><ele>1.6</ele><time>2023-12-06T12:23:29Z</time><name>PT5728</name></trkpt>
<trkpt lat="51.797927" lon="03.928118"><ele>1.5</ele><time>2023-12-06T12:23:31Z</time><name>PT5729</name></trkpt>
<trkpt lat="51.797929" lon="03.928135"><ele>1.3</ele><time>2023-12-06T12:23:32Z</time><name>PT5730</name></trkpt>
<trkpt lat="51.797930" lon="03.928154"><ele>1.4</ele><time>2023-12-06T12:23:32Z</time><name>PT5731</name></trkpt>
<trkpt lat="51.797932" lon="03.928172"><ele>1.3</ele><time>2023-12-06T12:23:34Z</time><name>PT5732</name></trkpt>
<trkpt lat="51.797933" lon="03.928189"><ele>1.3</ele><time>2023-12-06T12:23:35Z</time><name>PT5733</name></trkpt>
<trkpt lat="51.797934" lon="03.928206"><ele>1.3</ele><time>2023-12-06T12:23:35Z</time><name>PT5734</name></trkpt>
<trkpt lat="51.797936" lon="03.928224"><ele>1.4</ele><time>2023-12-06T12:23:37Z</time><name>PT5735</name></trkpt>
<trkpt lat="51.797938" lon="03.928242"><ele>1.4</ele><time>2023-12-06T12:23:38Z</time><name>PT5736</name></trkpt>
<trkpt lat="51.797941" lon="03.928260"><ele>1.6</ele><time>2023-12-06T12:23:38Z</time><name>PT5737</name></trkpt>
<trkpt lat="51.797945" lon="03.928278"><ele>1.7</ele><time>2023-12-06T12:23:40Z</time><name>PT5738</name></trkpt>
<trkpt lat="51.797947" lon="03.928298"><ele>1.7</ele><time>2023-12-06T12:23:41Z</time><name>PT5739</name></trkpt>
<trkpt lat="51.797949" lon="03.928316"><ele>1.7</ele><time>2023-12-06T12:23:41Z</time><name>PT5740</name></trkpt>
<trkpt lat="51.797950" lon="03.928333"><ele>1.7</ele><time>2023-12-06T12:23:43Z</time><name>PT5741</name></trkpt>
<trkpt lat="51.797952" lon="03.928351"><ele>1.6</ele><time>2023-12-06T12:23:44Z</time><name>PT5742</name></trkpt>
<trkpt lat="51.797954" lon="03.928370"><ele>1.8</ele><time>2023-12-06T12:23:44Z</time><name>PT5743</name></trkpt>
<trkpt lat="51.797955" lon="03.928388"><ele>1.8</ele><time>2023-12-06T12:23:46Z</time><name>PT5744</name></trkpt>
<trkpt lat="51.797957" lon="03.928405"><ele>1.8</ele><time>2023-12-06T12:23:47Z</time><name>PT5745</name></trkpt>
<trkpt lat="51.797959" lon="03.928422"><ele>1.8</ele><time>2023-12-06T12:23:47Z</time><name>PT5746</name></trkpt>
<trkpt lat="51.797961" lon="03.928438"><ele>1.8</ele><time>2023-12-06T12:23:49Z</time><name>PT5747</name></trkpt>
<trkpt lat="51.797963" lon="03.928456"><ele>1.7</ele><time>2023-12-06T12:23:50Z</time><name>PT5748</name></trkpt>
<trkpt lat="51.797965" lon="03.928474"><ele>1.8</ele><time>2023-12-06T12:23:50Z</time><name>PT5749</name></trkpt>
<trkpt lat="51.797968" lon="03.928493"><ele>1.7</ele><time>2023-12-06T12:23:52Z</time><name>PT5750</name></trkpt>
<trkpt lat="51.797971" lon="03.928513"><ele>1.7</ele><time>2023-12-06T12:23:53Z</time><name>PT5751</name></trkpt>
<trkpt lat="51.797974" lon="03.928530"><ele>1.6</ele><time>2023-12-06T12:23:53Z</time><name>PT5752</name></trkpt>
<trkpt lat="51.797976" lon="03.928548"><ele>1.8</ele><time>2023-12-06T12:23:55Z</time><name>PT5753</name></trkpt>
<trkpt lat="51.797977" lon="03.928568"><ele>1.7</ele><time>2023-12-06T12:23:56Z</time><name>PT5754</name></trkpt>
<trkpt lat="51.797978" lon="03.928586"><ele>1.8</ele><time>2023-12-06T12:23:56Z</time><name>PT5755</name></trkpt>
<trkpt lat="51.797978" lon="03.928605"><ele>1.7</ele><time>2023-12-06T12:23:58Z</time><name>PT5756</name></trkpt>
<trkpt lat="51.797978" lon="03.928624"><ele>1.8</ele><time>2023-12-06T12:23:59Z</time><name>PT5757</name></trkpt>
<trkpt lat="51.797980" lon="03.928642"><ele>1.8</ele><time>2023-12-06T12:23:59Z</time><name>PT5758</name></trkpt>
<trkpt lat="51.797982" lon="03.928661"><ele>1.8</ele><time>2023-12-06T12:24:01Z</time><name>PT5759</name></trkpt>
<trkpt lat="51.797984" lon="03.928680"><ele>1.8</ele><time>2023-12-06T12:24:02Z</time><name>PT5760</name></trkpt>
<trkpt lat="51.797985" lon="03.928700"><ele>1.8</ele><time>2023-12-06T12:24:02Z</time><name>PT5761</name></trkpt>
<trkpt lat="51.797987" lon="03.928720"><ele>1.7</ele><time>2023-12-06T12:24:04Z</time><name>PT5762</name></trkpt>
<trkpt lat="51.797990" lon="03.928737"><ele>1.6</ele><time>2023-12-06T12:24:05Z</time><name>PT5763</name></trkpt>
<trkpt lat="51.797993" lon="03.928755"><ele>1.7</ele><time>2023-12-06T12:24:05Z</time><name>PT5764</name></trkpt>
<trkpt lat="51.797996" lon="03.928772"><ele>1.5</ele><time>2023-12-06T12:24:07Z</time><name>PT5765</name></trkpt>
<trkpt lat="51.797997" lon="03.928790"><ele>1.5</ele><time>2023-12-06T12:24:08Z</time><name>PT5766</name></trkpt>
<trkpt lat="51.797999" lon="03.928808"><ele>1.5</ele><time>2023-12-06T12:24:08Z</time><name>PT5767</name></trkpt>
<trkpt lat="51.798000" lon="03.928827"><ele>1.3</ele><time>2023-12-06T12:24:10Z</time><name>PT5768</name></trkpt>
<trkpt lat="51.798000" lon="03.928847"><ele>1.5</ele><time>2023-12-06T12:24:11Z</time><name>PT5769</name></trkpt>
<trkpt lat="51.798002" lon="03.928868"><ele>1.5</ele><time>2023-12-06T12:24:11Z</time><name>PT5770</name></trkpt>
<trkpt lat="51.798004" lon="03.928889"><ele>1.6</ele><time>2023-12-06T12:24:13Z</time><name>PT5771</name></trkpt>
<trkpt lat="51.798006" lon="03.928908"><ele>1.7</ele><time>2023-12-06T12:24:14Z</time><name>PT5772</name></trkpt>
<trkpt lat="51.798007" lon="03.928926"><ele>1.7</ele><time>2023-12-06T12:24:14Z</time><name>PT5773</name></trkpt>
<trkpt lat="51.798009" lon="03.928944"><ele>1.3</ele><time>2023-12-06T12:24:16Z</time><name>PT5774</name></trkpt>
<trkpt lat="51.798011" lon="03.928962"><ele>1.2</ele><time>2023-12-06T12:24:17Z</time><name>PT5775</name></trkpt>
<trkpt lat="51.798013" lon="03.928980"><ele>1</ele><time>2023-12-06T12:24:17Z</time><name>PT5776</name></trkpt>
<trkpt lat="51.798014" lon="03.928998"><ele>1</ele><time>2023-12-06T12:24:19Z</time><name>PT5777</name></trkpt>
<trkpt lat="51.798017" lon="03.929017"><ele>1.2</ele><time>2023-12-06T12:24:20Z</time><name>PT5778</name></trkpt>
<trkpt lat="51.798020" lon="03.929035"><ele>1.2</ele><time>2023-12-06T12:24:20Z</time><name>PT5779</name></trkpt>
<trkpt lat="51.798022" lon="03.929053"><ele>1.4</ele><time>2023-12-06T12:24:22Z</time><name>PT5780</name></trkpt>
<trkpt lat="51.798024" lon="03.929071"><ele>1.4</ele><time>2023-12-06T12:24:23Z</time><name>PT5781</name></trkpt>
<trkpt lat="51.798027" lon="03.929090"><ele>1.6</ele><time>2023-12-06T12:24:23Z</time><name>PT5782</name></trkpt>
<trkpt lat="51.798029" lon="03.929108"><ele>1.7</ele><time>2023-12-06T12:24:25Z</time><name>PT5783</name></trkpt>
<trkpt lat="51.798032" lon="03.929127"><ele>1.5</ele><time>2023-12-06T12:24:26Z</time><name>PT5784</name></trkpt>
<trkpt lat="51.798035" lon="03.929144"><ele>1.6</ele><time>2023-12-06T12:24:26Z</time><name>PT5785</name></trkpt>
<trkpt lat="51.798037" lon="03.929161"><ele>1.4</ele><time>2023-12-06T12:24:28Z</time><name>PT5786</name></trkpt>
<trkpt lat="51.798038" lon="03.929180"><ele>1.3</ele><time>2023-12-06T12:24:29Z</time><name>PT5787</name></trkpt>
<trkpt lat="51.798038" lon="03.929196"><ele>1.4</ele><time>2023-12-06T12:24:29Z</time><name>PT5788</name></trkpt>
<trkpt lat="51.798040" lon="03.929208"><ele>1.3</ele><time>2023-12-06T12:24:31Z</time><name>PT5789</name></trkpt>
<trkpt lat="51.798041" lon="03.929217"><ele>1.3</ele><time>2023-12-06T12:24:32Z</time><name>PT5790</name></trkpt>
<trkpt lat="51.798042" lon="03.929232"><ele>1.3</ele><time>2023-12-06T12:24:32Z</time><name>PT5791</name></trkpt>
<trkpt lat="51.798045" lon="03.929250"><ele>1.3</ele><time>2023-12-06T12:24:34Z</time><name>PT5792</name></trkpt>
<trkpt lat="51.798046" lon="03.929267"><ele>1.3</ele><time>2023-12-06T12:24:35Z</time><name>PT5793</name></trkpt>
<trkpt lat="51.798047" lon="03.929283"><ele>1.4</ele><time>2023-12-06T12:24:35Z</time><name>PT5794</name></trkpt>
<trkpt lat="51.798049" lon="03.929302"><ele>1.4</ele><time>2023-12-06T12:24:37Z</time><name>PT5795</name></trkpt>
<trkpt lat="51.798050" lon="03.929322"><ele>1.4</ele><time>2023-12-06T12:24:38Z</time><name>PT5796</name></trkpt>
<trkpt lat="51.798051" lon="03.929342"><ele>1.5</ele><time>2023-12-06T12:24:38Z</time><name>PT5797</name></trkpt>
<trkpt lat="51.798054" lon="03.929360"><ele>1.6</ele><time>2023-12-06T12:24:40Z</time><name>PT5798</name></trkpt>
<trkpt lat="51.798056" lon="03.929378"><ele>1.7</ele><time>2023-12-06T12:24:41Z</time><name>PT5799</name></trkpt>
<trkpt lat="51.798058" lon="03.929396"><ele>1.5</ele><time>2023-12-06T12:24:41Z</time><name>PT5800</name></trkpt>
<trkpt lat="51.798060" lon="03.929414"><ele>1.4</ele><time>2023-12-06T12:24:43Z</time><name>PT5801</name></trkpt>
<trkpt lat="51.798061" lon="03.929432"><ele>1.5</ele><time>2023-12-06T12:24:44Z</time><name>PT5802</name></trkpt>
<trkpt lat="51.798061" lon="03.929452"><ele>1.4</ele><time>2023-12-06T12:24:44Z</time><name>PT5803</name></trkpt>
<trkpt lat="51.798062" lon="03.929471"><ele>1.3</ele><time>2023-12-06T12:24:46Z</time><name>PT5804</name></trkpt>
<trkpt lat="51.798063" lon="03.929492"><ele>1.3</ele><time>2023-12-06T12:24:47Z</time><name>PT5805</name></trkpt>
<trkpt lat="51.798064" lon="03.929511"><ele>1.3</ele><time>2023-12-06T12:24:47Z</time><name>PT5806</name></trkpt>
<trkpt lat="51.798065" lon="03.929526"><ele>1.3</ele><time>2023-12-06T12:24:49Z</time><name>PT5807</name></trkpt>
<trkpt lat="51.798067" lon="03.929542"><ele>1.4</ele><time>2023-12-06T12:24:50Z</time><name>PT5808</name></trkpt>
<trkpt lat="51.798070" lon="03.929560"><ele>1.5</ele><time>2023-12-06T12:24:50Z</time><name>PT5809</name></trkpt>
<trkpt lat="51.798073" lon="03.929578"><ele>1.6</ele><time>2023-12-06T12:24:52Z</time><name>PT5810</name></trkpt>
<trkpt lat="51.798075" lon="03.929596"><ele>1.7</ele><time>2023-12-06T12:24:53Z</time><name>PT5811</name></trkpt>
<trkpt lat="51.798077" lon="03.929613"><ele>1.8</ele><time>2023-12-06T12:24:53Z</time><name>PT5812</name></trkpt>
<trkpt lat="51.798077" lon="03.929631"><ele>1.7</ele><time>2023-12-06T12:24:55Z</time><name>PT5813</name></trkpt>
<trkpt lat="51.798077" lon="03.929652"><ele>1.8</ele><time>2023-12-06T12:24:56Z</time><name>PT5814</name></trkpt>
<trkpt lat="51.798078" lon="03.929670"><ele>1.6</ele><time>2023-12-06T12:24:56Z</time><name>PT5815</name></trkpt>
<trkpt lat="51.798079" lon="03.929686"><ele>1.6</ele><time>2023-12-06T12:24:58Z</time><name>PT5816</name></trkpt>
<trkpt lat="51.798080" lon="03.929701"><ele>1.5</ele><time>2023-12-06T12:24:59Z</time><name>PT5817</name></trkpt>
<trkpt lat="51.798081" lon="03.929715"><ele>1.5</ele><time>2023-12-06T12:24:59Z</time><name>PT5818</name></trkpt>
<trkpt lat="51.798084" lon="03.929733"><ele>1.4</ele><time>2023-12-06T12:25:01Z</time><name>PT5819</name></trkpt>
<trkpt lat="51.798086" lon="03.929753"><ele>1.3</ele><time>2023-12-06T12:25:02Z</time><name>PT5820</name></trkpt>
<trkpt lat="51.798089" lon="03.929769"><ele>1.4</ele><time>2023-12-06T12:25:02Z</time><name>PT5821</name></trkpt>
<trkpt lat="51.798091" lon="03.929787"><ele>1.5</ele><time>2023-12-06T12:25:04Z</time><name>PT5822</name></trkpt>
<trkpt lat="51.798093" lon="03.929807"><ele>1.5</ele><time>2023-12-06T12:25:05Z</time><name>PT5823</name></trkpt>
<trkpt lat="51.798095" lon="03.929829"><ele>1.6</ele><time>2023-12-06T12:25:05Z</time><name>PT5824</name></trkpt>
<trkpt lat="51.798096" lon="03.929846"><ele>1.5</ele><time>2023-12-06T12:25:07Z</time><name>PT5825</name></trkpt>
<trkpt lat="51.798098" lon="03.929863"><ele>1.5</ele><time>2023-12-06T12:25:08Z</time><name>PT5826</name></trkpt>
<trkpt lat="51.798100" lon="03.929881"><ele>1.3</ele><time>2023-12-06T12:25:08Z</time><name>PT5827</name></trkpt>
<trkpt lat="51.798104" lon="03.929900"><ele>1.3</ele><time>2023-12-06T12:25:10Z</time><name>PT5828</name></trkpt>
<trkpt lat="51.798105" lon="03.929919"><ele>1.3</ele><time>2023-12-06T12:25:11Z</time><name>PT5829</name></trkpt>
<trkpt lat="51.798107" lon="03.929936"><ele>1.2</ele><time>2023-12-06T12:25:11Z</time><name>PT5830</name></trkpt>
<trkpt lat="51.798106" lon="03.929956"><ele>1.2</ele><time>2023-12-06T12:25:13Z</time><name>PT5831</name></trkpt>
<trkpt lat="51.798107" lon="03.929972"><ele>1.3</ele><time>2023-12-06T12:25:14Z</time><name>PT5832</name></trkpt>
<trkpt lat="51.798107" lon="03.929987"><ele>1.3</ele><time>2023-12-06T12:25:14Z</time><name>PT5833</name></trkpt>
<trkpt lat="51.798107" lon="03.930001"><ele>1.3</ele><time>2023-12-06T12:25:16Z</time><name>PT5834</name></trkpt>
<trkpt lat="51.798108" lon="03.930015"><ele>1.5</ele><time>2023-12-06T12:25:17Z</time><name>PT5835</name></trkpt>
<trkpt lat="51.798109" lon="03.930030"><ele>1.4</ele><time>2023-12-06T12:25:17Z</time><name>PT5836</name></trkpt>
<trkpt lat="51.798110" lon="03.930047"><ele>1.7</ele><time>2023-12-06T12:25:19Z</time><name>PT5837</name></trkpt>
<trkpt lat="51.798112" lon="03.930063"><ele>1.7</ele><time>2023-12-06T12:25:20Z</time><name>PT5838</name></trkpt>
<trkpt lat="51.798112" lon="03.930071"><ele>1.6</ele><time>2023-12-06T12:25:20Z</time><name>PT5839</name></trkpt>
<trkpt lat="51.798113" lon="03.930071"><ele>1.7</ele><time>2023-12-06T12:25:22Z</time><name>PT5840</name></trkpt>
<trkpt lat="51.798113" lon="03.930071"><ele>1.6</ele><time>2023-12-06T12:25:23Z</time><name>PT5841</name></trkpt>
<trkpt lat="51.798113" lon="03.930071"><ele>1.7</ele><time>2023-12-06T12:25:23Z</time><name>PT5842</name></trkpt>
<trkpt lat="51.798111" lon="03.930076"><ele>1.4</ele><time>2023-12-06T12:25:26Z</time><name>PT5843</name></trkpt>
<trkpt lat="51.798109" lon="03.930095"><ele>1.5</ele><time>2023-12-06T12:25:26Z</time><name>PT5844</name></trkpt>
<trkpt lat="51.798110" lon="03.930110"><ele>1.5</ele><time>2023-12-06T12:25:28Z</time><name>PT5845</name></trkpt>
<trkpt lat="51.798112" lon="03.930121"><ele>1.5</ele><time>2023-12-06T12:25:29Z</time><name>PT5846</name></trkpt>
<trkpt lat="51.798114" lon="03.930128"><ele>1.8</ele><time>2023-12-06T12:25:29Z</time><name>PT5847</name></trkpt>
<trkpt lat="51.798114" lon="03.930137"><ele>1.9</ele><time>2023-12-06T12:25:31Z</time><name>PT5848</name></trkpt>
<trkpt lat="51.798116" lon="03.930146"><ele>1.9</ele><time>2023-12-06T12:25:32Z</time><name>PT5849</name></trkpt>
<trkpt lat="51.798118" lon="03.930154"><ele>1.8</ele><time>2023-12-06T12:25:32Z</time><name>PT5850</name></trkpt>
<trkpt lat="51.798120" lon="03.930157"><ele>1.6</ele><time>2023-12-06T12:25:34Z</time><name>PT5851</name></trkpt>
<trkpt lat="51.798121" lon="03.930159"><ele>1.5</ele><time>2023-12-06T12:25:35Z</time><name>PT5852</name></trkpt>
<trkpt lat="51.798122" lon="03.930162"><ele>1.5</ele><time>2023-12-06T12:25:35Z</time><name>PT5853</name></trkpt>
<trkpt lat="51.798129" lon="03.930176"><ele>1.5</ele><time>2023-12-06T12:25:38Z</time><name>PT5854</name></trkpt>
<trkpt lat="51.798131" lon="03.930196"><ele>1.4</ele><time>2023-12-06T12:25:40Z</time><name>PT5855</name></trkpt>
<trkpt lat="51.798132" lon="03.930218"><ele>1.4</ele><time>2023-12-06T12:25:41Z</time><name>PT5856</name></trkpt>
<trkpt lat="51.798134" lon="03.930241"><ele>1.4</ele><time>2023-12-06T12:25:41Z</time><name>PT5857</name></trkpt>
<trkpt lat="51.798136" lon="03.930261"><ele>1.5</ele><time>2023-12-06T12:25:43Z</time><name>PT5858</name></trkpt>
<trkpt lat="51.798138" lon="03.930280"><ele>1.6</ele><time>2023-12-06T12:25:44Z</time><name>PT5859</name></trkpt>
<trkpt lat="51.798140" lon="03.930300"><ele>1.6</ele><time>2023-12-06T12:25:44Z</time><name>PT5860</name></trkpt>
<trkpt lat="51.798143" lon="03.930319"><ele>1.5</ele><time>2023-12-06T12:25:46Z</time><name>PT5861</name></trkpt>
<trkpt lat="51.798145" lon="03.930337"><ele>1.7</ele><time>2023-12-06T12:25:47Z</time><name>PT5862</name></trkpt>
<trkpt lat="51.798148" lon="03.930355"><ele>1.6</ele><time>2023-12-06T12:25:47Z</time><name>PT5863</name></trkpt>
<trkpt lat="51.798151" lon="03.930372"><ele>1.7</ele><time>2023-12-06T12:25:49Z</time><name>PT5864</name></trkpt>
<trkpt lat="51.798153" lon="03.930391"><ele>1.7</ele><time>2023-12-06T12:25:50Z</time><name>PT5865</name></trkpt>
<trkpt lat="51.798156" lon="03.930411"><ele>1.6</ele><time>2023-12-06T12:25:50Z</time><name>PT5866</name></trkpt>
<trkpt lat="51.798158" lon="03.930428"><ele>1.6</ele><time>2023-12-06T12:25:52Z</time><name>PT5867</name></trkpt>
<trkpt lat="51.798160" lon="03.930444"><ele>1.4</ele><time>2023-12-06T12:25:53Z</time><name>PT5868</name></trkpt>
<trkpt lat="51.798162" lon="03.930460"><ele>1.4</ele><time>2023-12-06T12:25:53Z</time><name>PT5869</name></trkpt>
<trkpt lat="51.798163" lon="03.930477"><ele>1.6</ele><time>2023-12-06T12:25:55Z</time><name>PT5870</name></trkpt>
<trkpt lat="51.798163" lon="03.930495"><ele>1.6</ele><time>2023-12-06T12:25:56Z</time><name>PT5871</name></trkpt>
<trkpt lat="51.798165" lon="03.930514"><ele>1.5</ele><time>2023-12-06T12:25:56Z</time><name>PT5872</name></trkpt>
<trkpt lat="51.798166" lon="03.930532"><ele>1.4</ele><time>2023-12-06T12:25:58Z</time><name>PT5873</name></trkpt>
<trkpt lat="51.798169" lon="03.930549"><ele>1.4</ele><time>2023-12-06T12:25:59Z</time><name>PT5874</name></trkpt>
<trkpt lat="51.798170" lon="03.930568"><ele>1.3</ele><time>2023-12-06T12:25:59Z</time><name>PT5875</name></trkpt>
<trkpt lat="51.798169" lon="03.930589"><ele>1.3</ele><time>2023-12-06T12:26:01Z</time><name>PT5876</name></trkpt>
<trkpt lat="51.798169" lon="03.930608"><ele>1.3</ele><time>2023-12-06T12:26:02Z</time><name>PT5877</name></trkpt>
<trkpt lat="51.798169" lon="03.930626"><ele>1.3</ele><time>2023-12-06T12:26:02Z</time><name>PT5878</name></trkpt>
<trkpt lat="51.798171" lon="03.930644"><ele>1.5</ele><time>2023-12-06T12:26:04Z</time><name>PT5879</name></trkpt>
<trkpt lat="51.798174" lon="03.930661"><ele>1.5</ele><time>2023-12-06T12:26:05Z</time><name>PT5880</name></trkpt>
<trkpt lat="51.798175" lon="03.930676"><ele>1.5</ele><time>2023-12-06T12:26:05Z</time><name>PT5881</name></trkpt>
<trkpt lat="51.798175" lon="03.930694"><ele>1.5</ele><time>2023-12-06T12:26:07Z</time><name>PT5882</name></trkpt>
<trkpt lat="51.798175" lon="03.930709"><ele>1.3</ele><time>2023-12-06T12:26:08Z</time><name>PT5883</name></trkpt>
<trkpt lat="51.798174" lon="03.930720"><ele>1.3</ele><time>2023-12-06T12:26:08Z</time><name>PT5884</name></trkpt>
<trkpt lat="51.798172" lon="03.930724"><ele>1.4</ele><time>2023-12-06T12:26:10Z</time><name>PT5885</name></trkpt>
<trkpt lat="51.798173" lon="03.930723"><ele>1.4</ele><time>2023-12-06T12:26:11Z</time><name>PT5886</name></trkpt>
<trkpt lat="51.798175" lon="03.930722"><ele>1.5</ele><time>2023-12-06T12:26:11Z</time><name>PT5887</name></trkpt>
<trkpt lat="51.798175" lon="03.930723"><ele>1.4</ele><time>2023-12-06T12:26:13Z</time><name>PT5888</name></trkpt>
<trkpt lat="51.798176" lon="03.930733"><ele>1.3</ele><time>2023-12-06T12:27:11Z</time><name>PT5889</name></trkpt>
<trkpt lat="51.798183" lon="03.930759"><ele>1.2</ele><time>2023-12-06T12:27:13Z</time><name>PT5890</name></trkpt>
<trkpt lat="51.798185" lon="03.930778"><ele>1.3</ele><time>2023-12-06T12:27:14Z</time><name>PT5891</name></trkpt>
<trkpt lat="51.798189" lon="03.930792"><ele>1.3</ele><time>2023-12-06T12:27:14Z</time><name>PT5892</name></trkpt>
<trkpt lat="51.798191" lon="03.930808"><ele>1.2</ele><time>2023-12-06T12:27:16Z</time><name>PT5893</name></trkpt>
<trkpt lat="51.798192" lon="03.930820"><ele>1.3</ele><time>2023-12-06T12:27:17Z</time><name>PT5894</name></trkpt>
<trkpt lat="51.798191" lon="03.930834"><ele>1.3</ele><time>2023-12-06T12:27:17Z</time><name>PT5895</name></trkpt>
<trkpt lat="51.798192" lon="03.930846"><ele>1.2</ele><time>2023-12-06T12:27:19Z</time><name>PT5896</name></trkpt>
<trkpt lat="51.798194" lon="03.930858"><ele>1.3</ele><time>2023-12-06T12:27:20Z</time><name>PT5897</name></trkpt>
<trkpt lat="51.798196" lon="03.930867"><ele>1.3</ele><time>2023-12-06T12:27:20Z</time><name>PT5898</name></trkpt>
<trkpt lat="51.798195" lon="03.930874"><ele>1.1</ele><time>2023-12-06T12:27:22Z</time><name>PT5899</name></trkpt>
<trkpt lat="51.798194" lon="03.930877"><ele>1.1</ele><time>2023-12-06T12:27:23Z</time><name>PT5900</name></trkpt>
<trkpt lat="51.798194" lon="03.930877"><ele>1.2</ele><time>2023-12-06T12:27:23Z</time><name>PT5901</name></trkpt>
<trkpt lat="51.798194" lon="03.930876"><ele>1.1</ele><time>2023-12-06T12:27:25Z</time><name>PT5902</name></trkpt>
<trkpt lat="51.798193" lon="03.930881"><ele>1.4</ele><time>2023-12-06T12:27:31Z</time><name>PT5903</name></trkpt>
<trkpt lat="51.798196" lon="03.930898"><ele>1.5</ele><time>2023-12-06T12:27:32Z</time><name>PT5904</name></trkpt>
<trkpt lat="51.798199" lon="03.930912"><ele>1.4</ele><time>2023-12-06T12:27:32Z</time><name>PT5905</name></trkpt>
<trkpt lat="51.798202" lon="03.930930"><ele>1.3</ele><time>2023-12-06T12:27:34Z</time><name>PT5906</name></trkpt>
<trkpt lat="51.798201" lon="03.930943"><ele>1.3</ele><time>2023-12-06T12:27:35Z</time><name>PT5907</name></trkpt>
<trkpt lat="51.798204" lon="03.930957"><ele>1.4</ele><time>2023-12-06T12:27:35Z</time><name>PT5908</name></trkpt>
<trkpt lat="51.798207" lon="03.930976"><ele>1.3</ele><time>2023-12-06T12:27:37Z</time><name>PT5909</name></trkpt>
<trkpt lat="51.798211" lon="03.930992"><ele>1.3</ele><time>2023-12-06T12:27:38Z</time><name>PT5910</name></trkpt>
<trkpt lat="51.798213" lon="03.931009"><ele>1.3</ele><time>2023-12-06T12:27:38Z</time><name>PT5911</name></trkpt>
<trkpt lat="51.798212" lon="03.931023"><ele>1.2</ele><time>2023-12-06T12:27:40Z</time><name>PT5912</name></trkpt>
<trkpt lat="51.798212" lon="03.931038"><ele>1.2</ele><time>2023-12-06T12:27:41Z</time><name>PT5913</name></trkpt>
<trkpt lat="51.798213" lon="03.931053"><ele>1.3</ele><time>2023-12-06T12:27:41Z</time><name>PT5914</name></trkpt>
<trkpt lat="51.798216" lon="03.931068"><ele>1.2</ele><time>2023-12-06T12:27:43Z</time><name>PT5915</name></trkpt>
<trkpt lat="51.798217" lon="03.931083"><ele>1.3</ele><time>2023-12-06T12:27:44Z</time><name>PT5916</name></trkpt>
<trkpt lat="51.798219" lon="03.931098"><ele>1.2</ele><time>2023-12-06T12:27:44Z</time><name>PT5917</name></trkpt>
<trkpt lat="51.798221" lon="03.931112"><ele>1.3</ele><time>2023-12-06T12:27:46Z</time><name>PT5918</name></trkpt>
<trkpt lat="51.798223" lon="03.931131"><ele>1.3</ele><time>2023-12-06T12:27:47Z</time><name>PT5919</name></trkpt>
<trkpt lat="51.798224" lon="03.931147"><ele>1.3</ele><time>2023-12-06T12:27:47Z</time><name>PT5920</name></trkpt>
<trkpt lat="51.798226" lon="03.931160"><ele>1.5</ele><time>2023-12-06T12:27:49Z</time><name>PT5921</name></trkpt>
<trkpt lat="51.798229" lon="03.931172"><ele>1.5</ele><time>2023-12-06T12:27:50Z</time><name>PT5922</name></trkpt>
<trkpt lat="51.798229" lon="03.931183"><ele>1.5</ele><time>2023-12-06T12:27:50Z</time><name>PT5923</name></trkpt>
<trkpt lat="51.798229" lon="03.931196"><ele>1.6</ele><time>2023-12-06T12:27:52Z</time><name>PT5924</name></trkpt>
<trkpt lat="51.798230" lon="03.931208"><ele>1.4</ele><time>2023-12-06T12:27:53Z</time><name>PT5925</name></trkpt>
<trkpt lat="51.798233" lon="03.931220"><ele>1.4</ele><time>2023-12-06T12:27:53Z</time><name>PT5926</name></trkpt>
<trkpt lat="51.798235" lon="03.931234"><ele>1.5</ele><time>2023-12-06T12:27:55Z</time><name>PT5927</name></trkpt>
<trkpt lat="51.798235" lon="03.931253"><ele>1.3</ele><time>2023-12-06T12:27:56Z</time><name>PT5928</name></trkpt>
<trkpt lat="51.798236" lon="03.931270"><ele>1.3</ele><time>2023-12-06T12:27:56Z</time><name>PT5929</name></trkpt>
<trkpt lat="51.798237" lon="03.931284"><ele>1.4</ele><time>2023-12-06T12:27:58Z</time><name>PT5930</name></trkpt>
<trkpt lat="51.798239" lon="03.931295"><ele>1.5</ele><time>2023-12-06T12:27:59Z</time><name>PT5931</name></trkpt>
<trkpt lat="51.798242" lon="03.931308"><ele>1.4</ele><time>2023-12-06T12:27:59Z</time><name>PT5932</name></trkpt>
<trkpt lat="51.798244" lon="03.931322"><ele>1.3</ele><time>2023-12-06T12:28:01Z</time><name>PT5933</name></trkpt>
<trkpt lat="51.798245" lon="03.931338"><ele>1.3</ele><time>2023-12-06T12:28:02Z</time><name>PT5934</name></trkpt>
<trkpt lat="51.798246" lon="03.931352"><ele>1.3</ele><time>2023-12-06T12:28:02Z</time><name>PT5935</name></trkpt>
<trkpt lat="51.798248" lon="03.931362"><ele>1.3</ele><time>2023-12-06T12:28:04Z</time><name>PT5936</name></trkpt>
<trkpt lat="51.798249" lon="03.931370"><ele>1.5</ele><time>2023-12-06T12:28:05Z</time><name>PT5937</name></trkpt>
<trkpt lat="51.798249" lon="03.931384"><ele>1.5</ele><time>2023-12-06T12:28:05Z</time><name>PT5938</name></trkpt>
<trkpt lat="51.798249" lon="03.931399"><ele>1.6</ele><time>2023-12-06T12:28:07Z</time><name>PT5939</name></trkpt>
<trkpt lat="51.798251" lon="03.931414"><ele>1.4</ele><time>2023-12-06T12:28:08Z</time><name>PT5940</name></trkpt>
<trkpt lat="51.798253" lon="03.931428"><ele>1.3</ele><time>2023-12-06T12:28:08Z</time><name>PT5941</name></trkpt>
<trkpt lat="51.798255" lon="03.931442"><ele>1.2</ele><time>2023-12-06T12:28:10Z</time><name>PT5942</name></trkpt>
<trkpt lat="51.798256" lon="03.931454"><ele>1.2</ele><time>2023-12-06T12:28:11Z</time><name>PT5943</name></trkpt>
<trkpt lat="51.798257" lon="03.931465"><ele>1.2</ele><time>2023-12-06T12:28:11Z</time><name>PT5944</name></trkpt>
<trkpt lat="51.798258" lon="03.931476"><ele>1.3</ele><time>2023-12-06T12:28:13Z</time><name>PT5945</name></trkpt>
<trkpt lat="51.798260" lon="03.931488"><ele>1.2</ele><time>2023-12-06T12:28:14Z</time><name>PT5946</name></trkpt>
<trkpt lat="51.798261" lon="03.931501"><ele>1.3</ele><time>2023-12-06T12:28:14Z</time><name>PT5947</name></trkpt>
<trkpt lat="51.798261" lon="03.931515"><ele>1.3</ele><time>2023-12-06T12:28:16Z</time><name>PT5948</name></trkpt>
<trkpt lat="51.798262" lon="03.931526"><ele>1.2</ele><time>2023-12-06T12:28:17Z</time><name>PT5949</name></trkpt>
<trkpt lat="51.798263" lon="03.931531"><ele>1.3</ele><time>2023-12-06T12:28:17Z</time><name>PT5950</name></trkpt>
<trkpt lat="51.798263" lon="03.931532"><ele>1.3</ele><time>2023-12-06T12:28:19Z</time><name>PT5951</name></trkpt>
<trkpt lat="51.798263" lon="03.931531"><ele>1.1</ele><time>2023-12-06T12:28:20Z</time><name>PT5952</name></trkpt>
<trkpt lat="51.798262" lon="03.931532"><ele>1.2</ele><time>2023-12-06T12:28:20Z</time><name>PT5953</name></trkpt>
<trkpt lat="51.798263" lon="03.931535"><ele>1.5</ele><time>2023-12-06T12:28:31Z</time><name>PT5954</name></trkpt>
<trkpt lat="51.798264" lon="03.931548"><ele>1.5</ele><time>2023-12-06T12:28:32Z</time><name>PT5955</name></trkpt>
<trkpt lat="51.798265" lon="03.931565"><ele>1.4</ele><time>2023-12-06T12:28:32Z</time><name>PT5956</name></trkpt>
<trkpt lat="51.798268" lon="03.931580"><ele>1.3</ele><time>2023-12-06T12:28:34Z</time><name>PT5957</name></trkpt>
<trkpt lat="51.798271" lon="03.931596"><ele>1.3</ele><time>2023-12-06T12:28:35Z</time><name>PT5958</name></trkpt>
<trkpt lat="51.798272" lon="03.931610"><ele>1.3</ele><time>2023-12-06T12:28:35Z</time><name>PT5959</name></trkpt>
<trkpt lat="51.798273" lon="03.931626"><ele>1.3</ele><time>2023-12-06T12:28:37Z</time><name>PT5960</name></trkpt>
<trkpt lat="51.798273" lon="03.931641"><ele>1.4</ele><time>2023-12-06T12:28:38Z</time><name>PT5961</name></trkpt>
<trkpt lat="51.798275" lon="03.931656"><ele>1.3</ele><time>2023-12-06T12:28:38Z</time><name>PT5962</name></trkpt>
<trkpt lat="51.798278" lon="03.931669"><ele>1.3</ele><time>2023-12-06T12:28:40Z</time><name>PT5963</name></trkpt>
<trkpt lat="51.798280" lon="03.931682"><ele>1.5</ele><time>2023-12-06T12:28:41Z</time><name>PT5964</name></trkpt>
<trkpt lat="51.798281" lon="03.931696"><ele>1.5</ele><time>2023-12-06T12:28:41Z</time><name>PT5965</name></trkpt>
<trkpt lat="51.798281" lon="03.931708"><ele>1.6</ele><time>2023-12-06T12:28:43Z</time><name>PT5966</name></trkpt>
<trkpt lat="51.798282" lon="03.931718"><ele>1.8</ele><time>2023-12-06T12:28:44Z</time><name>PT5967</name></trkpt>
<trkpt lat="51.798285" lon="03.931728"><ele>1.8</ele><time>2023-12-06T12:28:44Z</time><name>PT5968</name></trkpt>
<trkpt lat="51.798286" lon="03.931741"><ele>1.8</ele><time>2023-12-06T12:28:46Z</time><name>PT5969</name></trkpt>
<trkpt lat="51.798287" lon="03.931757"><ele>1.8</ele><time>2023-12-06T12:28:47Z</time><name>PT5970</name></trkpt>
<trkpt lat="51.798288" lon="03.931771"><ele>1.7</ele><time>2023-12-06T12:28:47Z</time><name>PT5971</name></trkpt>
<trkpt lat="51.798289" lon="03.931785"><ele>1.4</ele><time>2023-12-06T12:28:49Z</time><name>PT5972</name></trkpt>
<trkpt lat="51.798291" lon="03.931798"><ele>1.3</ele><time>2023-12-06T12:28:50Z</time><name>PT5973</name></trkpt>
<trkpt lat="51.798293" lon="03.931811"><ele>1.3</ele><time>2023-12-06T12:28:50Z</time><name>PT5974</name></trkpt>
<trkpt lat="51.798294" lon="03.931825"><ele>1.3</ele><time>2023-12-06T12:28:52Z</time><name>PT5975</name></trkpt>
<trkpt lat="51.798295" lon="03.931842"><ele>1.4</ele><time>2023-12-06T12:28:53Z</time><name>PT5976</name></trkpt>
<trkpt lat="51.798296" lon="03.931858"><ele>1.4</ele><time>2023-12-06T12:28:53Z</time><name>PT5977</name></trkpt>
<trkpt lat="51.798298" lon="03.931875"><ele>1.3</ele><time>2023-12-06T12:28:55Z</time><name>PT5978</name></trkpt>
<trkpt lat="51.798300" lon="03.931891"><ele>1.3</ele><time>2023-12-06T12:28:56Z</time><name>PT5979</name></trkpt>
<trkpt lat="51.798305" lon="03.931907"><ele>1.3</ele><time>2023-12-06T12:28:56Z</time><name>PT5980</name></trkpt>
<trkpt lat="51.798308" lon="03.931923"><ele>1.3</ele><time>2023-12-06T12:28:58Z</time><name>PT5981</name></trkpt>
<trkpt lat="51.798311" lon="03.931938"><ele>1.4</ele><time>2023-12-06T12:28:59Z</time><name>PT5982</name></trkpt>
<trkpt lat="51.798314" lon="03.931954"><ele>1.3</ele><time>2023-12-06T12:28:59Z</time><name>PT5983</name></trkpt>
<trkpt lat="51.798315" lon="03.931970"><ele>1.3</ele><time>2023-12-06T12:29:01Z</time><name>PT5984</name></trkpt>
<trkpt lat="51.798316" lon="03.931987"><ele>1</ele><time>2023-12-06T12:29:02Z</time><name>PT5985</name></trkpt>
<trkpt lat="51.798317" lon="03.931999"><ele>1.1</ele><time>2023-12-06T12:29:02Z</time><name>PT5986</name></trkpt>
<trkpt lat="51.798318" lon="03.932009"><ele>1.2</ele><time>2023-12-06T12:29:04Z</time><name>PT5987</name></trkpt>
<trkpt lat="51.798319" lon="03.932021"><ele>1.3</ele><time>2023-12-06T12:29:05Z</time><name>PT5988</name></trkpt>
<trkpt lat="51.798321" lon="03.932032"><ele>1.6</ele><time>2023-12-06T12:29:05Z</time><name>PT5989</name></trkpt>
<trkpt lat="51.798322" lon="03.932043"><ele>1.8</ele><time>2023-12-06T12:29:07Z</time><name>PT5990</name></trkpt>
<trkpt lat="51.798325" lon="03.932058"><ele>1.7</ele><time>2023-12-06T12:29:08Z</time><name>PT5991</name></trkpt>
<trkpt lat="51.798327" lon="03.932072"><ele>1.7</ele><time>2023-12-06T12:29:08Z</time><name>PT5992</name></trkpt>
<trkpt lat="51.798328" lon="03.932087"><ele>1.5</ele><time>2023-12-06T12:29:10Z</time><name>PT5993</name></trkpt>
<trkpt lat="51.798329" lon="03.932104"><ele>1.3</ele><time>2023-12-06T12:29:11Z</time><name>PT5994</name></trkpt>
<trkpt lat="51.798330" lon="03.932120"><ele>1.3</ele><time>2023-12-06T12:29:11Z</time><name>PT5995</name></trkpt>
<trkpt lat="51.798332" lon="03.932135"><ele>1.3</ele><time>2023-12-06T12:29:13Z</time><name>PT5996</name></trkpt>
<trkpt lat="51.798334" lon="03.932152"><ele>1.4</ele><time>2023-12-06T12:29:14Z</time><name>PT5997</name></trkpt>
<trkpt lat="51.798337" lon="03.932169"><ele>1.3</ele><time>2023-12-06T12:29:14Z</time><name>PT5998</name></trkpt>
<trkpt lat="51.798340" lon="03.932187"><ele>1.3</ele><time>2023-12-06T12:29:16Z</time><name>PT5999</name></trkpt>
<trkpt lat="51.798342" lon="03.932205"><ele>1.2</ele><time>2023-12-06T12:29:17Z</time><name>PT6000</name></trkpt>
<trkpt lat="51.798346" lon="03.932220"><ele>1.2</ele><time>2023-12-06T12:29:17Z</time><name>PT6001</name></trkpt>
<trkpt lat="51.798349" lon="03.932238"><ele>1.3</ele><time>2023-12-06T12:29:19Z</time><name>PT6002</name></trkpt>
<trkpt lat="51.798352" lon="03.932256"><ele>1.4</ele><time>2023-12-06T12:29:20Z</time><name>PT6003</name></trkpt>
<trkpt lat="51.798353" lon="03.932279"><ele>1.4</ele><time>2023-12-06T12:29:20Z</time><name>PT6004</name></trkpt>
<trkpt lat="51.798353" lon="03.932282"><ele>1.3</ele><time>2023-12-06T12:29:22Z</time><name>PT6005</name></trkpt>
<trkpt lat="51.798350" lon="03.932285"><ele>1.1</ele><time>2023-12-06T12:29:23Z</time><name>PT6006</name></trkpt>
<trkpt lat="51.798353" lon="03.932279"><ele>1.2</ele><time>2023-12-06T12:29:23Z</time><name>PT6007</name></trkpt>
<trkpt lat="51.798353" lon="03.932278"><ele>1.2</ele><time>2023-12-06T12:29:25Z</time><name>PT6008</name></trkpt>
<trkpt lat="51.798355" lon="03.932276"><ele>1.3</ele><time>2023-12-06T12:29:26Z</time><name>PT6009</name></trkpt>
<trkpt lat="51.798353" lon="03.932277"><ele>1.3</ele><time>2023-12-06T12:29:26Z</time><name>PT6010</name></trkpt>
<trkpt lat="51.798351" lon="03.932277"><ele>1.4</ele><time>2023-12-06T12:29:28Z</time><name>PT6011</name></trkpt>
<trkpt lat="51.798351" lon="03.932276"><ele>1.4</ele><time>2023-12-06T12:29:29Z</time><name>PT6012</name></trkpt>
<trkpt lat="51.798351" lon="03.932276"><ele>1.5</ele><time>2023-12-06T12:29:29Z</time><name>PT6013</name></trkpt>
<trkpt lat="51.798346" lon="03.932275"><ele>1.3</ele><time>2023-12-06T12:29:32Z</time><name>PT6014</name></trkpt>
<trkpt lat="51.798347" lon="03.932266"><ele>1.3</ele><time>2023-12-06T12:29:34Z</time><name>PT6015</name></trkpt>
<trkpt lat="51.798345" lon="03.932257"><ele>1.2</ele><time>2023-12-06T12:29:35Z</time><name>PT6016</name></trkpt>
<trkpt lat="51.798343" lon="03.932254"><ele>1</ele><time>2023-12-06T12:29:35Z</time><name>PT6017</name></trkpt>
<trkpt lat="51.798343" lon="03.932252"><ele>1.3</ele><time>2023-12-06T12:29:37Z</time><name>PT6018</name></trkpt>
<trkpt lat="51.798340" lon="03.932246"><ele>1.3</ele><time>2023-12-06T12:29:38Z</time><name>PT6019</name></trkpt>
<trkpt lat="51.798335" lon="03.932234"><ele>1.3</ele><time>2023-12-06T12:29:38Z</time><name>PT6020</name></trkpt>
<trkpt lat="51.798332" lon="03.932231"><ele>1.6</ele><time>2023-12-06T12:29:40Z</time><name>PT6021</name></trkpt>
<trkpt lat="51.798324" lon="03.932221"><ele>1.5</ele><time>2023-12-06T12:29:41Z</time><name>PT6022</name></trkpt>
<trkpt lat="51.798323" lon="03.932220"><ele>1.5</ele><time>2023-12-06T12:29:42Z</time><name>PT6023</name></trkpt>
<trkpt lat="51.798328" lon="03.932246"><ele>1.3</ele><time>2023-12-06T12:31:46Z</time><name>PT6024</name></trkpt>
<trkpt lat="51.798327" lon="03.932253"><ele>1.2</ele><time>2023-12-06T12:31:50Z</time><name>PT6025</name></trkpt>
<trkpt lat="51.798331" lon="03.932275"><ele>1.3</ele><time>2023-12-06T12:31:50Z</time><name>PT6026</name></trkpt>
<trkpt lat="51.798331" lon="03.932293"><ele>1.1</ele><time>2023-12-06T12:31:52Z</time><name>PT6027</name></trkpt>
<trkpt lat="51.798333" lon="03.932310"><ele>1.1</ele><time>2023-12-06T12:31:53Z</time><name>PT6028</name></trkpt>
<trkpt lat="51.798334" lon="03.932326"><ele>0.9</ele><time>2023-12-06T12:31:53Z</time><name>PT6029</name></trkpt>
<trkpt lat="51.798337" lon="03.932346"><ele>1.1</ele><time>2023-12-06T12:31:55Z</time><name>PT6030</name></trkpt>
<trkpt lat="51.798339" lon="03.932368"><ele>1.3</ele><time>2023-12-06T12:31:56Z</time><name>PT6031</name></trkpt>
<trkpt lat="51.798341" lon="03.932387"><ele>1.3</ele><time>2023-12-06T12:31:56Z</time><name>PT6032</name></trkpt>
<trkpt lat="51.798344" lon="03.932405"><ele>1.2</ele><time>2023-12-06T12:31:58Z</time><name>PT6033</name></trkpt>
<trkpt lat="51.798348" lon="03.932424"><ele>1.3</ele><time>2023-12-06T12:31:59Z</time><name>PT6034</name></trkpt>
<trkpt lat="51.798351" lon="03.932443"><ele>1.3</ele><time>2023-12-06T12:31:59Z</time><name>PT6035</name></trkpt>
<trkpt lat="51.798353" lon="03.932462"><ele>1</ele><time>2023-12-06T12:32:01Z</time><name>PT6036</name></trkpt>
<trkpt lat="51.798354" lon="03.932480"><ele>0.9</ele><time>2023-12-06T12:32:02Z</time><name>PT6037</name></trkpt>
<trkpt lat="51.798355" lon="03.932499"><ele>1.1</ele><time>2023-12-06T12:32:02Z</time><name>PT6038</name></trkpt>
<trkpt lat="51.798356" lon="03.932517"><ele>1</ele><time>2023-12-06T12:32:04Z</time><name>PT6039</name></trkpt>
<trkpt lat="51.798357" lon="03.932535"><ele>1</ele><time>2023-12-06T12:32:05Z</time><name>PT6040</name></trkpt>
<trkpt lat="51.798357" lon="03.932554"><ele>1.2</ele><time>2023-12-06T12:32:05Z</time><name>PT6041</name></trkpt>
<trkpt lat="51.798358" lon="03.932571"><ele>1.3</ele><time>2023-12-06T12:32:07Z</time><name>PT6042</name></trkpt>
<trkpt lat="51.798361" lon="03.932589"><ele>1.5</ele><time>2023-12-06T12:32:08Z</time><name>PT6043</name></trkpt>
<trkpt lat="51.798364" lon="03.932608"><ele>1.6</ele><time>2023-12-06T12:32:08Z</time><name>PT6044</name></trkpt>
<trkpt lat="51.798366" lon="03.932628"><ele>1.6</ele><time>2023-12-06T12:32:10Z</time><name>PT6045</name></trkpt>
<trkpt lat="51.798369" lon="03.932648"><ele>1.6</ele><time>2023-12-06T12:32:11Z</time><name>PT6046</name></trkpt>
<trkpt lat="51.798371" lon="03.932666"><ele>1.4</ele><time>2023-12-06T12:32:11Z</time><name>PT6047</name></trkpt>
<trkpt lat="51.798374" lon="03.932685"><ele>1.3</ele><time>2023-12-06T12:32:13Z</time><name>PT6048</name></trkpt>
<trkpt lat="51.798376" lon="03.932706"><ele>1.3</ele><time>2023-12-06T12:32:14Z</time><name>PT6049</name></trkpt>
<trkpt lat="51.798378" lon="03.932733"><ele>1.3</ele><time>2023-12-06T12:32:14Z</time><name>PT6050</name></trkpt>
<trkpt lat="51.798382" lon="03.932752"><ele>1.3</ele><time>2023-12-06T12:32:16Z</time><name>PT6051</name></trkpt>
<trkpt lat="51.798387" lon="03.932775"><ele>1.3</ele><time>2023-12-06T12:32:17Z</time><name>PT6052</name></trkpt>
<trkpt lat="51.798388" lon="03.932790"><ele>1.4</ele><time>2023-12-06T12:32:17Z</time><name>PT6053</name></trkpt>
<trkpt lat="51.798389" lon="03.932807"><ele>1.3</ele><time>2023-12-06T12:32:19Z</time><name>PT6054</name></trkpt>
<trkpt lat="51.798389" lon="03.932829"><ele>1.3</ele><time>2023-12-06T12:32:20Z</time><name>PT6055</name></trkpt>
<trkpt lat="51.798393" lon="03.932848"><ele>1.3</ele><time>2023-12-06T12:32:20Z</time><name>PT6056</name></trkpt>
<trkpt lat="51.798396" lon="03.932865"><ele>1.3</ele><time>2023-12-06T12:32:22Z</time><name>PT6057</name></trkpt>
<trkpt lat="51.798401" lon="03.932884"><ele>1.3</ele><time>2023-12-06T12:32:23Z</time><name>PT6058</name></trkpt>
<trkpt lat="51.798407" lon="03.932902"><ele>1.3</ele><time>2023-12-06T12:32:23Z</time><name>PT6059</name></trkpt>
<trkpt lat="51.798409" lon="03.932920"><ele>1.5</ele><time>2023-12-06T12:32:25Z</time><name>PT6060</name></trkpt>
<trkpt lat="51.798411" lon="03.932937"><ele>1.6</ele><time>2023-12-06T12:32:26Z</time><name>PT6061</name></trkpt>
<trkpt lat="51.798413" lon="03.932957"><ele>1.5</ele><time>2023-12-06T12:32:26Z</time><name>PT6062</name></trkpt>
<trkpt lat="51.798414" lon="03.932974"><ele>1.5</ele><time>2023-12-06T12:32:28Z</time><name>PT6063</name></trkpt>
<trkpt lat="51.798416" lon="03.932992"><ele>1.6</ele><time>2023-12-06T12:32:29Z</time><name>PT6064</name></trkpt>
<trkpt lat="51.798417" lon="03.933009"><ele>1.6</ele><time>2023-12-06T12:32:29Z</time><name>PT6065</name></trkpt>
<trkpt lat="51.798420" lon="03.933026"><ele>1.5</ele><time>2023-12-06T12:32:31Z</time><name>PT6066</name></trkpt>
<trkpt lat="51.798423" lon="03.933044"><ele>1.4</ele><time>2023-12-06T12:32:32Z</time><name>PT6067</name></trkpt>
<trkpt lat="51.798425" lon="03.933062"><ele>1.3</ele><time>2023-12-06T12:32:32Z</time><name>PT6068</name></trkpt>
<trkpt lat="51.798428" lon="03.933079"><ele>1.3</ele><time>2023-12-06T12:32:34Z</time><name>PT6069</name></trkpt>
<trkpt lat="51.798431" lon="03.933096"><ele>1.1</ele><time>2023-12-06T12:32:35Z</time><name>PT6070</name></trkpt>
<trkpt lat="51.798433" lon="03.933113"><ele>1.1</ele><time>2023-12-06T12:32:36Z</time><name>PT6071</name></trkpt>
<trkpt lat="51.798434" lon="03.933130"><ele>1.2</ele><time>2023-12-06T12:32:37Z</time><name>PT6072</name></trkpt>
<trkpt lat="51.798434" lon="03.933153"><ele>1.2</ele><time>2023-12-06T12:32:38Z</time><name>PT6073</name></trkpt>
<trkpt lat="51.798434" lon="03.933172"><ele>1</ele><time>2023-12-06T12:32:38Z</time><name>PT6074</name></trkpt>
<trkpt lat="51.798434" lon="03.933192"><ele>1.3</ele><time>2023-12-06T12:32:40Z</time><name>PT6075</name></trkpt>
<trkpt lat="51.798433" lon="03.933210"><ele>1.3</ele><time>2023-12-06T12:32:41Z</time><name>PT6076</name></trkpt>
<trkpt lat="51.798435" lon="03.933228"><ele>1.3</ele><time>2023-12-06T12:32:42Z</time><name>PT6077</name></trkpt>
<trkpt lat="51.798437" lon="03.933246"><ele>1.4</ele><time>2023-12-06T12:32:43Z</time><name>PT6078</name></trkpt>
<trkpt lat="51.798438" lon="03.933265"><ele>1.5</ele><time>2023-12-06T12:32:44Z</time><name>PT6079</name></trkpt>
<trkpt lat="51.798441" lon="03.933282"><ele>1.4</ele><time>2023-12-06T12:32:45Z</time><name>PT6080</name></trkpt>
<trkpt lat="51.798445" lon="03.933300"><ele>1.6</ele><time>2023-12-06T12:32:46Z</time><name>PT6081</name></trkpt>
<trkpt lat="51.798448" lon="03.933316"><ele>1.5</ele><time>2023-12-06T12:32:47Z</time><name>PT6082</name></trkpt>
<trkpt lat="51.798451" lon="03.933335"><ele>1.5</ele><time>2023-12-06T12:32:48Z</time><name>PT6083</name></trkpt>
<trkpt lat="51.798454" lon="03.933353"><ele>1.5</ele><time>2023-12-06T12:32:49Z</time><name>PT6084</name></trkpt>
<trkpt lat="51.798456" lon="03.933372"><ele>1.4</ele><time>2023-12-06T12:32:50Z</time><name>PT6085</name></trkpt>
<trkpt lat="51.798458" lon="03.933391"><ele>1.3</ele><time>2023-12-06T12:32:51Z</time><name>PT6086</name></trkpt>
<trkpt lat="51.798460" lon="03.933410"><ele>1.3</ele><time>2023-12-06T12:32:52Z</time><name>PT6087</name></trkpt>
<trkpt lat="51.798462" lon="03.933428"><ele>1.3</ele><time>2023-12-06T12:32:53Z</time><name>PT6088</name></trkpt>
<trkpt lat="51.798464" lon="03.933445"><ele>1.3</ele><time>2023-12-06T12:32:53Z</time><name>PT6089</name></trkpt>
<trkpt lat="51.798465" lon="03.933462"><ele>1.3</ele><time>2023-12-06T12:32:55Z</time><name>PT6090</name></trkpt>
<trkpt lat="51.798466" lon="03.933481"><ele>1.1</ele><time>2023-12-06T12:32:56Z</time><name>PT6091</name></trkpt>
<trkpt lat="51.798468" lon="03.933498"><ele>1.2</ele><time>2023-12-06T12:32:56Z</time><name>PT6092</name></trkpt>
<trkpt lat="51.798471" lon="03.933513"><ele>1.3</ele><time>2023-12-06T12:32:58Z</time><name>PT6093</name></trkpt>
<trkpt lat="51.798472" lon="03.933529"><ele>1.3</ele><time>2023-12-06T12:32:59Z</time><name>PT6094</name></trkpt>
<trkpt lat="51.798473" lon="03.933547"><ele>1.3</ele><time>2023-12-06T12:32:59Z</time><name>PT6095</name></trkpt>
<trkpt lat="51.798474" lon="03.933567"><ele>1.4</ele><time>2023-12-06T12:33:01Z</time><name>PT6096</name></trkpt>
<trkpt lat="51.798473" lon="03.933587"><ele>1.3</ele><time>2023-12-06T12:33:02Z</time><name>PT6097</name></trkpt>
<trkpt lat="51.798473" lon="03.933605"><ele>1.4</ele><time>2023-12-06T12:33:02Z</time><name>PT6098</name></trkpt>
<trkpt lat="51.798474" lon="03.933622"><ele>1.5</ele><time>2023-12-06T12:33:04Z</time><name>PT6099</name></trkpt>
<trkpt lat="51.798476" lon="03.933637"><ele>1.3</ele><time>2023-12-06T12:33:05Z</time><name>PT6100</name></trkpt>
<trkpt lat="51.798477" lon="03.933653"><ele>1.3</ele><time>2023-12-06T12:33:05Z</time><name>PT6101</name></trkpt>
<trkpt lat="51.798476" lon="03.933670"><ele>1.3</ele><time>2023-12-06T12:33:07Z</time><name>PT6102</name></trkpt>
<trkpt lat="51.798476" lon="03.933691"><ele>1.3</ele><time>2023-12-06T12:33:08Z</time><name>PT6103</name></trkpt>
<trkpt lat="51.798475" lon="03.933709"><ele>1.3</ele><time>2023-12-06T12:33:08Z</time><name>PT6104</name></trkpt>
<trkpt lat="51.798473" lon="03.933725"><ele>1.4</ele><time>2023-12-06T12:33:10Z</time><name>PT6105</name></trkpt>
<trkpt lat="51.798473" lon="03.933743"><ele>1.4</ele><time>2023-12-06T12:33:11Z</time><name>PT6106</name></trkpt>
<trkpt lat="51.798472" lon="03.933760"><ele>1.3</ele><time>2023-12-06T12:33:11Z</time><name>PT6107</name></trkpt>
<trkpt lat="51.798470" lon="03.933776"><ele>1.3</ele><time>2023-12-06T12:33:13Z</time><name>PT6108</name></trkpt>
<trkpt lat="51.798469" lon="03.933793"><ele>1.2</ele><time>2023-12-06T12:33:14Z</time><name>PT6109</name></trkpt>
<trkpt lat="51.798470" lon="03.933810"><ele>1</ele><time>2023-12-06T12:33:14Z</time><name>PT6110</name></trkpt>
<trkpt lat="51.798472" lon="03.933826"><ele>1</ele><time>2023-12-06T12:33:16Z</time><name>PT6111</name></trkpt>
<trkpt lat="51.798475" lon="03.933843"><ele>1.1</ele><time>2023-12-06T12:33:17Z</time><name>PT6112</name></trkpt>
<trkpt lat="51.798476" lon="03.933857"><ele>1.3</ele><time>2023-12-06T12:33:18Z</time><name>PT6113</name></trkpt>
<trkpt lat="51.798477" lon="03.933870"><ele>1.1</ele><time>2023-12-06T12:33:19Z</time><name>PT6114</name></trkpt>
<trkpt lat="51.798477" lon="03.933882"><ele>1</ele><time>2023-12-06T12:33:20Z</time><name>PT6115</name></trkpt>
<trkpt lat="51.798477" lon="03.933893"><ele>1</ele><time>2023-12-06T12:33:20Z</time><name>PT6116</name></trkpt>
<trkpt lat="51.798479" lon="03.933905"><ele>0.8</ele><time>2023-12-06T12:33:22Z</time><name>PT6117</name></trkpt>
<trkpt lat="51.798481" lon="03.933917"><ele>0.7</ele><time>2023-12-06T12:33:23Z</time><name>PT6118</name></trkpt>
<trkpt lat="51.798480" lon="03.933931"><ele>0.7</ele><time>2023-12-06T12:33:23Z</time><name>PT6119</name></trkpt>
<trkpt lat="51.798477" lon="03.933945"><ele>0.4</ele><time>2023-12-06T12:33:25Z</time><name>PT6120</name></trkpt>
<trkpt lat="51.798473" lon="03.933960"><ele>0.5</ele><time>2023-12-06T12:33:26Z</time><name>PT6121</name></trkpt>
<trkpt lat="51.798467" lon="03.933973"><ele>0.5</ele><time>2023-12-06T12:33:26Z</time><name>PT6122</name></trkpt>
<trkpt lat="51.798461" lon="03.933988"><ele>0.5</ele><time>2023-12-06T12:33:28Z</time><name>PT6123</name></trkpt>
<trkpt lat="51.798454" lon="03.934003"><ele>0.5</ele><time>2023-12-06T12:33:29Z</time><name>PT6124</name></trkpt>
<trkpt lat="51.798446" lon="03.934014"><ele>0.7</ele><time>2023-12-06T12:33:29Z</time><name>PT6125</name></trkpt>
<trkpt lat="51.798438" lon="03.934023"><ele>0.6</ele><time>2023-12-06T12:33:31Z</time><name>PT6126</name></trkpt>
<trkpt lat="51.798431" lon="03.934032"><ele>0.7</ele><time>2023-12-06T12:33:32Z</time><name>PT6127</name></trkpt>
<trkpt lat="51.798424" lon="03.934042"><ele>0.8</ele><time>2023-12-06T12:33:32Z</time><name>PT6128</name></trkpt>
<trkpt lat="51.798417" lon="03.934054"><ele>0.9</ele><time>2023-12-06T12:33:34Z</time><name>PT6129</name></trkpt>
<trkpt lat="51.798410" lon="03.934065"><ele>0.9</ele><time>2023-12-06T12:33:35Z</time><name>PT6130</name></trkpt>
<trkpt lat="51.798404" lon="03.934075"><ele>1</ele><time>2023-12-06T12:33:36Z</time><name>PT6131</name></trkpt>
<trkpt lat="51.798396" lon="03.934085"><ele>0.8</ele><time>2023-12-06T12:33:37Z</time><name>PT6132</name></trkpt>
<trkpt lat="51.798388" lon="03.934095"><ele>1</ele><time>2023-12-06T12:33:38Z</time><name>PT6133</name></trkpt>
<trkpt lat="51.798380" lon="03.934104"><ele>0.8</ele><time>2023-12-06T12:33:38Z</time><name>PT6134</name></trkpt>
<trkpt lat="51.798373" lon="03.934116"><ele>0.8</ele><time>2023-12-06T12:33:40Z</time><name>PT6135</name></trkpt>
<trkpt lat="51.798367" lon="03.934131"><ele>0.7</ele><time>2023-12-06T12:33:41Z</time><name>PT6136</name></trkpt>
<trkpt lat="51.798362" lon="03.934144"><ele>0.6</ele><time>2023-12-06T12:33:42Z</time><name>PT6137</name></trkpt>
<trkpt lat="51.798358" lon="03.934156"><ele>0.3</ele><time>2023-12-06T12:33:43Z</time><name>PT6138</name></trkpt>
<trkpt lat="51.798353" lon="03.934168"><ele>0.1</ele><time>2023-12-06T12:33:44Z</time><name>PT6139</name></trkpt>
<trkpt lat="51.798347" lon="03.934181"><ele>0</ele><time>2023-12-06T12:33:44Z</time><name>PT6140</name></trkpt>
<trkpt lat="51.798342" lon="03.934193"><ele>0</ele><time>2023-12-06T12:33:46Z</time><name>PT6141</name></trkpt>
<trkpt lat="51.798337" lon="03.934205"><ele>0</ele><time>2023-12-06T12:33:47Z</time><name>PT6142</name></trkpt>
<trkpt lat="51.798333" lon="03.934218"><ele>0.2</ele><time>2023-12-06T12:33:48Z</time><name>PT6143</name></trkpt>
<trkpt lat="51.798329" lon="03.934233"><ele>0.2</ele><time>2023-12-06T12:33:49Z</time><name>PT6144</name></trkpt>
<trkpt lat="51.798326" lon="03.934248"><ele>0.3</ele><time>2023-12-06T12:33:50Z</time><name>PT6145</name></trkpt>
<trkpt lat="51.798323" lon="03.934262"><ele>0.5</ele><time>2023-12-06T12:33:51Z</time><name>PT6146</name></trkpt>
<trkpt lat="51.798320" lon="03.934277"><ele>0.6</ele><time>2023-12-06T12:33:52Z</time><name>PT6147</name></trkpt>
<trkpt lat="51.798319" lon="03.934294"><ele>0.8</ele><time>2023-12-06T12:33:53Z</time><name>PT6148</name></trkpt>
<trkpt lat="51.798318" lon="03.934311"><ele>0.9</ele><time>2023-12-06T12:33:54Z</time><name>PT6149</name></trkpt>
<trkpt lat="51.798319" lon="03.934326"><ele>-1</ele><time>2023-12-06T12:33:55Z</time><name>PT6150</name></trkpt>
<trkpt lat="51.798319" lon="03.934341"><ele>-1</ele><time>2023-12-06T12:33:56Z</time><name>PT6151</name></trkpt>
<trkpt lat="51.798317" lon="03.934358"><ele>-1</ele><time>2023-12-06T12:33:57Z</time><name>PT6152</name></trkpt>
<trkpt lat="51.798316" lon="03.934375"><ele>0.9</ele><time>2023-12-06T12:33:58Z</time><name>PT6153</name></trkpt>
<trkpt lat="51.798317" lon="03.934391"><ele>0.9</ele><time>2023-12-06T12:33:59Z</time><name>PT6154</name></trkpt>
<trkpt lat="51.798316" lon="03.934409"><ele>-1</ele><time>2023-12-06T12:34:00Z</time><name>PT6155</name></trkpt>
<trkpt lat="51.798315" lon="03.934426"><ele>-1.2</ele><time>2023-12-06T12:34:01Z</time><name>PT6156</name></trkpt>
<trkpt lat="51.798316" lon="03.934443"><ele>-1.5</ele><time>2023-12-06T12:34:02Z</time><name>PT6157</name></trkpt>
<trkpt lat="51.798319" lon="03.934460"><ele>-1.5</ele><time>2023-12-06T12:34:02Z</time><name>PT6158</name></trkpt>
<trkpt lat="51.798322" lon="03.934476"><ele>-1.7</ele><time>2023-12-06T12:34:04Z</time><name>PT6159</name></trkpt>
<trkpt lat="51.798326" lon="03.934492"><ele>-1.7</ele><time>2023-12-06T12:34:05Z</time><name>PT6160</name></trkpt>
<trkpt lat="51.798329" lon="03.934508"><ele>-1.8</ele><time>2023-12-06T12:34:05Z</time><name>PT6161</name></trkpt>
<trkpt lat="51.798331" lon="03.934524"><ele>-1.9</ele><time>2023-12-06T12:34:07Z</time><name>PT6162</name></trkpt>
<trkpt lat="51.798331" lon="03.934541"><ele>-1.9</ele><time>2023-12-06T12:34:08Z</time><name>PT6163</name></trkpt>
<trkpt lat="51.798333" lon="03.934558"><ele>-1.8</ele><time>2023-12-06T12:34:08Z</time><name>PT6164</name></trkpt>
<trkpt lat="51.798336" lon="03.934573"><ele>-1.9</ele><time>2023-12-06T12:34:10Z</time><name>PT6165</name></trkpt>
<trkpt lat="51.798341" lon="03.934589"><ele>-2</ele><time>2023-12-06T12:34:11Z</time><name>PT6166</name></trkpt>
<trkpt lat="51.798343" lon="03.934604"><ele>-1.9</ele><time>2023-12-06T12:34:11Z</time><name>PT6167</name></trkpt>
<trkpt lat="51.798344" lon="03.934620"><ele>-2</ele><time>2023-12-06T12:34:13Z</time><name>PT6168</name></trkpt>
<trkpt lat="51.798347" lon="03.934635"><ele>-2.1</ele><time>2023-12-06T12:34:14Z</time><name>PT6169</name></trkpt>
<trkpt lat="51.798350" lon="03.934653"><ele>-2.1</ele><time>2023-12-06T12:34:14Z</time><name>PT6170</name></trkpt>
<trkpt lat="51.798353" lon="03.934671"><ele>-2.1</ele><time>2023-12-06T12:34:16Z</time><name>PT6171</name></trkpt>
<trkpt lat="51.798357" lon="03.934688"><ele>-2</ele><time>2023-12-06T12:34:17Z</time><name>PT6172</name></trkpt>
<trkpt lat="51.798363" lon="03.934701"><ele>-2.1</ele><time>2023-12-06T12:34:17Z</time><name>PT6173</name></trkpt>
<trkpt lat="51.798368" lon="03.934714"><ele>-2.1</ele><time>2023-12-06T12:34:19Z</time><name>PT6174</name></trkpt>
<trkpt lat="51.798373" lon="03.934729"><ele>-2.4</ele><time>2023-12-06T12:34:20Z</time><name>PT6175</name></trkpt>
<trkpt lat="51.798376" lon="03.934748"><ele>-2.4</ele><time>2023-12-06T12:34:20Z</time><name>PT6176</name></trkpt>
<trkpt lat="51.798380" lon="03.934766"><ele>-2.6</ele><time>2023-12-06T12:34:22Z</time><name>PT6177</name></trkpt>
<trkpt lat="51.798383" lon="03.934782"><ele>-2.6</ele><time>2023-12-06T12:34:23Z</time><name>PT6178</name></trkpt>
<trkpt lat="51.798386" lon="03.934796"><ele>-2.6</ele><time>2023-12-06T12:34:23Z</time><name>PT6179</name></trkpt>
<trkpt lat="51.798387" lon="03.934814"><ele>-2.6</ele><time>2023-12-06T12:34:25Z</time><name>PT6180</name></trkpt>
<trkpt lat="51.798388" lon="03.934828"><ele>-2.6</ele><time>2023-12-06T12:34:26Z</time><name>PT6181</name></trkpt>
<trkpt lat="51.798390" lon="03.934844"><ele>-2.6</ele><time>2023-12-06T12:34:26Z</time><name>PT6182</name></trkpt>
<trkpt lat="51.798392" lon="03.934858"><ele>-2.7</ele><time>2023-12-06T12:34:28Z</time><name>PT6183</name></trkpt>
<trkpt lat="51.798399" lon="03.934871"><ele>-2.6</ele><time>2023-12-06T12:34:29Z</time><name>PT6184</name></trkpt>
<trkpt lat="51.798405" lon="03.934884"><ele>-2.8</ele><time>2023-12-06T12:34:29Z</time><name>PT6185</name></trkpt>
<trkpt lat="51.798409" lon="03.934896"><ele>-2.7</ele><time>2023-12-06T12:34:31Z</time><name>PT6186</name></trkpt>
<trkpt lat="51.798411" lon="03.934913"><ele>-2.8</ele><time>2023-12-06T12:34:32Z</time><name>PT6187</name></trkpt>
<trkpt lat="51.798412" lon="03.934931"><ele>-2.7</ele><time>2023-12-06T12:34:32Z</time><name>PT6188</name></trkpt>
<trkpt lat="51.798415" lon="03.934948"><ele>-2.6</ele><time>2023-12-06T12:34:34Z</time><name>PT6189</name></trkpt>
<trkpt lat="51.798419" lon="03.934965"><ele>-2.5</ele><time>2023-12-06T12:34:35Z</time><name>PT6190</name></trkpt>
<trkpt lat="51.798420" lon="03.934981"><ele>-2.4</ele><time>2023-12-06T12:34:35Z</time><name>PT6191</name></trkpt>
<trkpt lat="51.798422" lon="03.934999"><ele>-2.5</ele><time>2023-12-06T12:34:37Z</time><name>PT6192</name></trkpt>
<trkpt lat="51.798423" lon="03.935019"><ele>-2.6</ele><time>2023-12-06T12:34:38Z</time><name>PT6193</name></trkpt>
<trkpt lat="51.798424" lon="03.935039"><ele>-2.7</ele><time>2023-12-06T12:34:39Z</time><name>PT6194</name></trkpt>
<trkpt lat="51.798424" lon="03.935058"><ele>-2.8</ele><time>2023-12-06T12:34:40Z</time><name>PT6195</name></trkpt>
<trkpt lat="51.798425" lon="03.935076"><ele>-3</ele><time>2023-12-06T12:34:41Z</time><name>PT6196</name></trkpt>
<trkpt lat="51.798426" lon="03.935100"><ele>-2.9</ele><time>2023-12-06T12:34:42Z</time><name>PT6197</name></trkpt>
<trkpt lat="51.798426" lon="03.935118"><ele>-2.9</ele><time>2023-12-06T12:34:43Z</time><name>PT6198</name></trkpt>
<trkpt lat="51.798427" lon="03.935134"><ele>-2.9</ele><time>2023-12-06T12:34:44Z</time><name>PT6199</name></trkpt>
<trkpt lat="51.798427" lon="03.935146"><ele>-2.8</ele><time>2023-12-06T12:34:45Z</time><name>PT6200</name></trkpt>
<trkpt lat="51.798426" lon="03.935160"><ele>-2.8</ele><time>2023-12-06T12:34:46Z</time><name>PT6201</name></trkpt>
<trkpt lat="51.798427" lon="03.935175"><ele>-2.9</ele><time>2023-12-06T12:34:47Z</time><name>PT6202</name></trkpt>
<trkpt lat="51.798427" lon="03.935188"><ele>-2.9</ele><time>2023-12-06T12:34:48Z</time><name>PT6203</name></trkpt>
<trkpt lat="51.798427" lon="03.935200"><ele>-2.9</ele><time>2023-12-06T12:34:49Z</time><name>PT6204</name></trkpt>
<trkpt lat="51.798430" lon="03.935210"><ele>-2.9</ele><time>2023-12-06T12:34:50Z</time><name>PT6205</name></trkpt>
<trkpt lat="51.798434" lon="03.935220"><ele>-3.1</ele><time>2023-12-06T12:34:51Z</time><name>PT6206</name></trkpt>
<trkpt lat="51.798435" lon="03.935236"><ele>-2.9</ele><time>2023-12-06T12:34:52Z</time><name>PT6207</name></trkpt>
<trkpt lat="51.798436" lon="03.935250"><ele>-2.9</ele><time>2023-12-06T12:34:53Z</time><name>PT6208</name></trkpt>
<trkpt lat="51.798436" lon="03.935264"><ele>-2.8</ele><time>2023-12-06T12:34:53Z</time><name>PT6209</name></trkpt>
<trkpt lat="51.798437" lon="03.935281"><ele>-2.6</ele><time>2023-12-06T12:34:55Z</time><name>PT6210</name></trkpt>
<trkpt lat="51.798439" lon="03.935298"><ele>-2.8</ele><time>2023-12-06T12:34:56Z</time><name>PT6211</name></trkpt>
<trkpt lat="51.798443" lon="03.935313"><ele>-2.8</ele><time>2023-12-06T12:34:56Z</time><name>PT6212</name></trkpt>
<trkpt lat="51.798448" lon="03.935328"><ele>-2.8</ele><time>2023-12-06T12:34:58Z</time><name>PT6213</name></trkpt>
<trkpt lat="51.798452" lon="03.935343"><ele>-2.9</ele><time>2023-12-06T12:34:59Z</time><name>PT6214</name></trkpt>
<trkpt lat="51.798456" lon="03.935353"><ele>-2.9</ele><time>2023-12-06T12:34:59Z</time><name>PT6215</name></trkpt>
<trkpt lat="51.798460" lon="03.935367"><ele>-2.7</ele><time>2023-12-06T12:35:01Z</time><name>PT6216</name></trkpt>
<trkpt lat="51.798462" lon="03.935382"><ele>-2.6</ele><time>2023-12-06T12:35:02Z</time><name>PT6217</name></trkpt>
<trkpt lat="51.798466" lon="03.935399"><ele>-2.6</ele><time>2023-12-06T12:35:02Z</time><name>PT6218</name></trkpt>
<trkpt lat="51.798468" lon="03.935417"><ele>-2.4</ele><time>2023-12-06T12:35:04Z</time><name>PT6219</name></trkpt>
<trkpt lat="51.798470" lon="03.935434"><ele>-2.5</ele><time>2023-12-06T12:35:05Z</time><name>PT6220</name></trkpt>
<trkpt lat="51.798473" lon="03.935448"><ele>-2.6</ele><time>2023-12-06T12:35:05Z</time><name>PT6221</name></trkpt>
<trkpt lat="51.798478" lon="03.935460"><ele>-2.8</ele><time>2023-12-06T12:35:07Z</time><name>PT6222</name></trkpt>
<trkpt lat="51.798482" lon="03.935474"><ele>-2.9</ele><time>2023-12-06T12:35:08Z</time><name>PT6223</name></trkpt>
<trkpt lat="51.798486" lon="03.935488"><ele>-2.8</ele><time>2023-12-06T12:35:08Z</time><name>PT6224</name></trkpt>
<trkpt lat="51.798489" lon="03.935503"><ele>-2.8</ele><time>2023-12-06T12:35:10Z</time><name>PT6225</name></trkpt>
<trkpt lat="51.798492" lon="03.935519"><ele>-2.6</ele><time>2023-12-06T12:35:11Z</time><name>PT6226</name></trkpt>
<trkpt lat="51.798492" lon="03.935535"><ele>-2.5</ele><time>2023-12-06T12:35:11Z</time><name>PT6227</name></trkpt>
<trkpt lat="51.798495" lon="03.935552"><ele>-2.4</ele><time>2023-12-06T12:35:13Z</time><name>PT6228</name></trkpt>
<trkpt lat="51.798498" lon="03.935569"><ele>-2.4</ele><time>2023-12-06T12:35:14Z</time><name>PT6229</name></trkpt>
<trkpt lat="51.798501" lon="03.935584"><ele>-2.2</ele><time>2023-12-06T12:35:14Z</time><name>PT6230</name></trkpt>
<trkpt lat="51.798503" lon="03.935598"><ele>-2.3</ele><time>2023-12-06T12:35:16Z</time><name>PT6231</name></trkpt>
<trkpt lat="51.798506" lon="03.935616"><ele>-2.2</ele><time>2023-12-06T12:35:17Z</time><name>PT6232</name></trkpt>
<trkpt lat="51.798508" lon="03.935633"><ele>-2.4</ele><time>2023-12-06T12:35:17Z</time><name>PT6233</name></trkpt>
<trkpt lat="51.798511" lon="03.935650"><ele>-2.3</ele><time>2023-12-06T12:35:19Z</time><name>PT6234</name></trkpt>
<trkpt lat="51.798515" lon="03.935664"><ele>-2.4</ele><time>2023-12-06T12:35:20Z</time><name>PT6235</name></trkpt>
<trkpt lat="51.798519" lon="03.935680"><ele>-2.4</ele><time>2023-12-06T12:35:20Z</time><name>PT6236</name></trkpt>
<trkpt lat="51.798522" lon="03.935696"><ele>-2.4</ele><time>2023-12-06T12:35:22Z</time><name>PT6237</name></trkpt>
<trkpt lat="51.798523" lon="03.935713"><ele>-2.6</ele><time>2023-12-06T12:35:23Z</time><name>PT6238</name></trkpt>
<trkpt lat="51.798524" lon="03.935730"><ele>-2.7</ele><time>2023-12-06T12:35:23Z</time><name>PT6239</name></trkpt>
<trkpt lat="51.798527" lon="03.935747"><ele>-2.8</ele><time>2023-12-06T12:35:25Z</time><name>PT6240</name></trkpt>
<trkpt lat="51.798529" lon="03.935764"><ele>-2.9</ele><time>2023-12-06T12:35:26Z</time><name>PT6241</name></trkpt>
<trkpt lat="51.798533" lon="03.935779"><ele>-2.9</ele><time>2023-12-06T12:35:27Z</time><name>PT6242</name></trkpt>
<trkpt lat="51.798537" lon="03.935795"><ele>-2.8</ele><time>2023-12-06T12:35:28Z</time><name>PT6243</name></trkpt>
<trkpt lat="51.798538" lon="03.935809"><ele>-2.9</ele><time>2023-12-06T12:35:29Z</time><name>PT6244</name></trkpt>
<trkpt lat="51.798538" lon="03.935823"><ele>-2.7</ele><time>2023-12-06T12:35:30Z</time><name>PT6245</name></trkpt>
<trkpt lat="51.798539" lon="03.935840"><ele>-2.6</ele><time>2023-12-06T12:35:31Z</time><name>PT6246</name></trkpt>
<trkpt lat="51.798540" lon="03.935858"><ele>-2.4</ele><time>2023-12-06T12:35:32Z</time><name>PT6247</name></trkpt>
<trkpt lat="51.798543" lon="03.935874"><ele>-2.4</ele><time>2023-12-06T12:35:33Z</time><name>PT6248</name></trkpt>
<trkpt lat="51.798544" lon="03.935888"><ele>-2.3</ele><time>2023-12-06T12:35:34Z</time><name>PT6249</name></trkpt>
<trkpt lat="51.798547" lon="03.935906"><ele>-2.3</ele><time>2023-12-06T12:35:35Z</time><name>PT6250</name></trkpt>
<trkpt lat="51.798551" lon="03.935925"><ele>-2.2</ele><time>2023-12-06T12:35:36Z</time><name>PT6251</name></trkpt>
<trkpt lat="51.798554" lon="03.935944"><ele>-2.3</ele><time>2023-12-06T12:35:37Z</time><name>PT6252</name></trkpt>
<trkpt lat="51.798556" lon="03.935962"><ele>-2.4</ele><time>2023-12-06T12:35:38Z</time><name>PT6253</name></trkpt>
<trkpt lat="51.798558" lon="03.935979"><ele>-2.4</ele><time>2023-12-06T12:35:38Z</time><name>PT6254</name></trkpt>
<trkpt lat="51.798560" lon="03.935997"><ele>-2.4</ele><time>2023-12-06T12:35:40Z</time><name>PT6255</name></trkpt>
<trkpt lat="51.798562" lon="03.936013"><ele>-2.4</ele><time>2023-12-06T12:35:41Z</time><name>PT6256</name></trkpt>
<trkpt lat="51.798566" lon="03.936030"><ele>-2.4</ele><time>2023-12-06T12:35:41Z</time><name>PT6257</name></trkpt>
<trkpt lat="51.798569" lon="03.936046"><ele>-2.5</ele><time>2023-12-06T12:35:43Z</time><name>PT6258</name></trkpt>
<trkpt lat="51.798573" lon="03.936062"><ele>-2.4</ele><time>2023-12-06T12:35:44Z</time><name>PT6259</name></trkpt>
<trkpt lat="51.798576" lon="03.936076"><ele>-2.5</ele><time>2023-12-06T12:35:44Z</time><name>PT6260</name></trkpt>
<trkpt lat="51.798579" lon="03.936092"><ele>-2.7</ele><time>2023-12-06T12:35:46Z</time><name>PT6261</name></trkpt>
<trkpt lat="51.798582" lon="03.936110"><ele>-2.7</ele><time>2023-12-06T12:35:47Z</time><name>PT6262</name></trkpt>
<trkpt lat="51.798584" lon="03.936131"><ele>-2.8</ele><time>2023-12-06T12:35:47Z</time><name>PT6263</name></trkpt>
<trkpt lat="51.798585" lon="03.936147"><ele>-2.9</ele><time>2023-12-06T12:35:49Z</time><name>PT6264</name></trkpt>
<trkpt lat="51.798586" lon="03.936164"><ele>-2.7</ele><time>2023-12-06T12:35:50Z</time><name>PT6265</name></trkpt>
<trkpt lat="51.798589" lon="03.936179"><ele>-2.6</ele><time>2023-12-06T12:35:50Z</time><name>PT6266</name></trkpt>
<trkpt lat="51.798591" lon="03.936186"><ele>-2.7</ele><time>2023-12-06T12:35:52Z</time><name>PT6267</name></trkpt>
<trkpt lat="51.798592" lon="03.936190"><ele>-2.5</ele><time>2023-12-06T12:35:53Z</time><name>PT6268</name></trkpt>
<trkpt lat="51.798591" lon="03.936195"><ele>-2.5</ele><time>2023-12-06T12:35:53Z</time><name>PT6269</name></trkpt>
<trkpt lat="51.798591" lon="03.936198"><ele>-2.4</ele><time>2023-12-06T12:35:55Z</time><name>PT6270</name></trkpt>
<trkpt lat="51.798592" lon="03.936207"><ele>-2.4</ele><time>2023-12-06T12:35:59Z</time><name>PT6271</name></trkpt>
<trkpt lat="51.798591" lon="03.936225"><ele>-2.6</ele><time>2023-12-06T12:35:59Z</time><name>PT6272</name></trkpt>
<trkpt lat="51.798592" lon="03.936242"><ele>-2.8</ele><time>2023-12-06T12:36:01Z</time><name>PT6273</name></trkpt>
<trkpt lat="51.798589" lon="03.936258"><ele>-2.7</ele><time>2023-12-06T12:36:02Z</time><name>PT6274</name></trkpt>
<trkpt lat="51.798589" lon="03.936276"><ele>-2.7</ele><time>2023-12-06T12:36:03Z</time><name>PT6275</name></trkpt>
<trkpt lat="51.798591" lon="03.936293"><ele>-2.7</ele><time>2023-12-06T12:36:04Z</time><name>PT6276</name></trkpt>
<trkpt lat="51.798594" lon="03.936309"><ele>-2.8</ele><time>2023-12-06T12:36:05Z</time><name>PT6277</name></trkpt>
<trkpt lat="51.798596" lon="03.936328"><ele>-2.6</ele><time>2023-12-06T12:36:06Z</time><name>PT6278</name></trkpt>
<trkpt lat="51.798600" lon="03.936346"><ele>-2.6</ele><time>2023-12-06T12:36:07Z</time><name>PT6279</name></trkpt>
<trkpt lat="51.798602" lon="03.936361"><ele>-2.6</ele><time>2023-12-06T12:36:08Z</time><name>PT6280</name></trkpt>
<trkpt lat="51.798604" lon="03.936377"><ele>-2.6</ele><time>2023-12-06T12:36:08Z</time><name>PT6281</name></trkpt>
<trkpt lat="51.798604" lon="03.936396"><ele>-2.4</ele><time>2023-12-06T12:36:10Z</time><name>PT6282</name></trkpt>
<trkpt lat="51.798605" lon="03.936415"><ele>-2.5</ele><time>2023-12-06T12:36:11Z</time><name>PT6283</name></trkpt>
<trkpt lat="51.798606" lon="03.936432"><ele>-2.4</ele><time>2023-12-06T12:36:11Z</time><name>PT6284</name></trkpt>
<trkpt lat="51.798607" lon="03.936448"><ele>-2.5</ele><time>2023-12-06T12:36:13Z</time><name>PT6285</name></trkpt>
<trkpt lat="51.798610" lon="03.936467"><ele>-2.6</ele><time>2023-12-06T12:36:14Z</time><name>PT6286</name></trkpt>
<trkpt lat="51.798613" lon="03.936483"><ele>-2.7</ele><time>2023-12-06T12:36:14Z</time><name>PT6287</name></trkpt>
<trkpt lat="51.798615" lon="03.936499"><ele>-2.5</ele><time>2023-12-06T12:36:16Z</time><name>PT6288</name></trkpt>
<trkpt lat="51.798617" lon="03.936516"><ele>-2.4</ele><time>2023-12-06T12:36:17Z</time><name>PT6289</name></trkpt>
<trkpt lat="51.798618" lon="03.936535"><ele>-2.2</ele><time>2023-12-06T12:36:17Z</time><name>PT6290</name></trkpt>
<trkpt lat="51.798620" lon="03.936553"><ele>-2.1</ele><time>2023-12-06T12:36:19Z</time><name>PT6291</name></trkpt>
<trkpt lat="51.798622" lon="03.936573"><ele>-2</ele><time>2023-12-06T12:36:20Z</time><name>PT6292</name></trkpt>
<trkpt lat="51.798624" lon="03.936591"><ele>-1.9</ele><time>2023-12-06T12:36:20Z</time><name>PT6293</name></trkpt>
<trkpt lat="51.798627" lon="03.936610"><ele>-2</ele><time>2023-12-06T12:36:22Z</time><name>PT6294</name></trkpt>
<trkpt lat="51.798630" lon="03.936624"><ele>-2</ele><time>2023-12-06T12:36:23Z</time><name>PT6295</name></trkpt>
<trkpt lat="51.798634" lon="03.936641"><ele>-1.9</ele><time>2023-12-06T12:36:23Z</time><name>PT6296</name></trkpt>
<trkpt lat="51.798640" lon="03.936656"><ele>-1.8</ele><time>2023-12-06T12:36:25Z</time><name>PT6297</name></trkpt>
<trkpt lat="51.798645" lon="03.936672"><ele>-1.8</ele><time>2023-12-06T12:36:26Z</time><name>PT6298</name></trkpt>
<trkpt lat="51.798649" lon="03.936690"><ele>-1.7</ele><time>2023-12-06T12:36:26Z</time><name>PT6299</name></trkpt>
<trkpt lat="51.798652" lon="03.936709"><ele>-1.6</ele><time>2023-12-06T12:36:28Z</time><name>PT6300</name></trkpt>
<trkpt lat="51.798655" lon="03.936728"><ele>-1.5</ele><time>2023-12-06T12:36:29Z</time><name>PT6301</name></trkpt>
<trkpt lat="51.798660" lon="03.936745"><ele>-1.5</ele><time>2023-12-06T12:36:29Z</time><name>PT6302</name></trkpt>
<trkpt lat="51.798664" lon="03.936761"><ele>-1.5</ele><time>2023-12-06T12:36:31Z</time><name>PT6303</name></trkpt>
<trkpt lat="51.798666" lon="03.936778"><ele>-1.3</ele><time>2023-12-06T12:36:32Z</time><name>PT6304</name></trkpt>
<trkpt lat="51.798670" lon="03.936794"><ele>-1.2</ele><time>2023-12-06T12:36:32Z</time><name>PT6305</name></trkpt>
<trkpt lat="51.798673" lon="03.936811"><ele>-1</ele><time>2023-12-06T12:36:34Z</time><name>PT6306</name></trkpt>
<trkpt lat="51.798678" lon="03.936827"><ele>-1</ele><time>2023-12-06T12:36:35Z</time><name>PT6307</name></trkpt>
<trkpt lat="51.798684" lon="03.936841"><ele>0.7</ele><time>2023-12-06T12:36:35Z</time><name>PT6308</name></trkpt>
<trkpt lat="51.798690" lon="03.936857"><ele>0.5</ele><time>2023-12-06T12:36:37Z</time><name>PT6309</name></trkpt>
<trkpt lat="51.798695" lon="03.936875"><ele>0.6</ele><time>2023-12-06T12:36:38Z</time><name>PT6310</name></trkpt>
<trkpt lat="51.798698" lon="03.936891"><ele>0.6</ele><time>2023-12-06T12:36:38Z</time><name>PT6311</name></trkpt>
<trkpt lat="51.798702" lon="03.936907"><ele>0.6</ele><time>2023-12-06T12:36:40Z</time><name>PT6312</name></trkpt>
<trkpt lat="51.798704" lon="03.936924"><ele>0.6</ele><time>2023-12-06T12:36:41Z</time><name>PT6313</name></trkpt>
<trkpt lat="51.798704" lon="03.936945"><ele>0.8</ele><time>2023-12-06T12:36:41Z</time><name>PT6314</name></trkpt>
<trkpt lat="51.798704" lon="03.936963"><ele>0.5</ele><time>2023-12-06T12:36:43Z</time><name>PT6315</name></trkpt>
<trkpt lat="51.798701" lon="03.936985"><ele>0.6</ele><time>2023-12-06T12:36:44Z</time><name>PT6316</name></trkpt>
<trkpt lat="51.798696" lon="03.937006"><ele>0.5</ele><time>2023-12-06T12:36:44Z</time><name>PT6317</name></trkpt>
<trkpt lat="51.798690" lon="03.937027"><ele>0.3</ele><time>2023-12-06T12:36:46Z</time><name>PT6318</name></trkpt>
<trkpt lat="51.798686" lon="03.937046"><ele>0.3</ele><time>2023-12-06T12:36:47Z</time><name>PT6319</name></trkpt>
<trkpt lat="51.798682" lon="03.937062"><ele>0.4</ele><time>2023-12-06T12:36:47Z</time><name>PT6320</name></trkpt>
<trkpt lat="51.798680" lon="03.937078"><ele>0.3</ele><time>2023-12-06T12:36:49Z</time><name>PT6321</name></trkpt>
<trkpt lat="51.798678" lon="03.937099"><ele>0.4</ele><time>2023-12-06T12:36:50Z</time><name>PT6322</name></trkpt>
<trkpt lat="51.798675" lon="03.937118"><ele>0.5</ele><time>2023-12-06T12:36:50Z</time><name>PT6323</name></trkpt>
<trkpt lat="51.798672" lon="03.937135"><ele>0.4</ele><time>2023-12-06T12:36:52Z</time><name>PT6324</name></trkpt>
<trkpt lat="51.798671" lon="03.937155"><ele>0.3</ele><time>2023-12-06T12:36:53Z</time><name>PT6325</name></trkpt>
<trkpt lat="51.798671" lon="03.937172"><ele>0.2</ele><time>2023-12-06T12:36:53Z</time><name>PT6326</name></trkpt>
<trkpt lat="51.798670" lon="03.937187"><ele>0.2</ele><time>2023-12-06T12:36:55Z</time><name>PT6327</name></trkpt>
<trkpt lat="51.798669" lon="03.937204"><ele>0.3</ele><time>2023-12-06T12:36:56Z</time><name>PT6328</name></trkpt>
<trkpt lat="51.798668" lon="03.937221"><ele>0.2</ele><time>2023-12-06T12:36:56Z</time><name>PT6329</name></trkpt>
<trkpt lat="51.798668" lon="03.937239"><ele>0.4</ele><time>2023-12-06T12:36:58Z</time><name>PT6330</name></trkpt>
<trkpt lat="51.798670" lon="03.937257"><ele>0.3</ele><time>2023-12-06T12:36:59Z</time><name>PT6331</name></trkpt>
<trkpt lat="51.798673" lon="03.937275"><ele>0.3</ele><time>2023-12-06T12:36:59Z</time><name>PT6332</name></trkpt>
<trkpt lat="51.798675" lon="03.937295"><ele>0.1</ele><time>2023-12-06T12:37:01Z</time><name>PT6333</name></trkpt>
<trkpt lat="51.798678" lon="03.937315"><ele>0.1</ele><time>2023-12-06T12:37:02Z</time><name>PT6334</name></trkpt>
<trkpt lat="51.798682" lon="03.937333"><ele>0</ele><time>2023-12-06T12:37:02Z</time><name>PT6335</name></trkpt>
<trkpt lat="51.798687" lon="03.937351"><ele>0.1</ele><time>2023-12-06T12:37:04Z</time><name>PT6336</name></trkpt>
<trkpt lat="51.798692" lon="03.937366"><ele>0.2</ele><time>2023-12-06T12:37:05Z</time><name>PT6337</name></trkpt>
<trkpt lat="51.798697" lon="03.937382"><ele>0.2</ele><time>2023-12-06T12:37:05Z</time><name>PT6338</name></trkpt>
<trkpt lat="51.798700" lon="03.937399"><ele>0.1</ele><time>2023-12-06T12:37:07Z</time><name>PT6339</name></trkpt>
<trkpt lat="51.798705" lon="03.937416"><ele>0.1</ele><time>2023-12-06T12:37:08Z</time><name>PT6340</name></trkpt>
<trkpt lat="51.798710" lon="03.937433"><ele>0.2</ele><time>2023-12-06T12:37:09Z</time><name>PT6341</name></trkpt>
<trkpt lat="51.798714" lon="03.937452"><ele>0.2</ele><time>2023-12-06T12:37:10Z</time><name>PT6342</name></trkpt>
<trkpt lat="51.798717" lon="03.937467"><ele>0.1</ele><time>2023-12-06T12:37:11Z</time><name>PT6343</name></trkpt>
<trkpt lat="51.798721" lon="03.937481"><ele>0.3</ele><time>2023-12-06T12:37:11Z</time><name>PT6344</name></trkpt>
<trkpt lat="51.798724" lon="03.937490"><ele>0.1</ele><time>2023-12-06T12:37:13Z</time><name>PT6345</name></trkpt>
<trkpt lat="51.798725" lon="03.937496"><ele>0.1</ele><time>2023-12-06T12:37:14Z</time><name>PT6346</name></trkpt>
<trkpt lat="51.798726" lon="03.937498"><ele>0.1</ele><time>2023-12-06T12:37:14Z</time><name>PT6347</name></trkpt>
<trkpt lat="51.798728" lon="03.937510"><ele>0.2</ele><time>2023-12-06T12:37:16Z</time><name>PT6348</name></trkpt>
<trkpt lat="51.798731" lon="03.937526"><ele>0.2</ele><time>2023-12-06T12:37:17Z</time><name>PT6349</name></trkpt>
<trkpt lat="51.798736" lon="03.937539"><ele>0.1</ele><time>2023-12-06T12:37:17Z</time><name>PT6350</name></trkpt>
<trkpt lat="51.798741" lon="03.937555"><ele>0</ele><time>2023-12-06T12:37:19Z</time><name>PT6351</name></trkpt>
<trkpt lat="51.798747" lon="03.937572"><ele>0</ele><time>2023-12-06T12:37:20Z</time><name>PT6352</name></trkpt>
<trkpt lat="51.798753" lon="03.937586"><ele>0</ele><time>2023-12-06T12:37:20Z</time><name>PT6353</name></trkpt>
<trkpt lat="51.798759" lon="03.937601"><ele>0.3</ele><time>2023-12-06T12:37:22Z</time><name>PT6354</name></trkpt>
<trkpt lat="51.798765" lon="03.937617"><ele>0.3</ele><time>2023-12-06T12:37:23Z</time><name>PT6355</name></trkpt>
<trkpt lat="51.798769" lon="03.937634"><ele>0.3</ele><time>2023-12-06T12:37:23Z</time><name>PT6356</name></trkpt>
<trkpt lat="51.798774" lon="03.937652"><ele>0.3</ele><time>2023-12-06T12:37:25Z</time><name>PT6357</name></trkpt>
<trkpt lat="51.798781" lon="03.937670"><ele>0.3</ele><time>2023-12-06T12:37:26Z</time><name>PT6358</name></trkpt>
<trkpt lat="51.798787" lon="03.937686"><ele>0.3</ele><time>2023-12-06T12:37:27Z</time><name>PT6359</name></trkpt>
<trkpt lat="51.798794" lon="03.937702"><ele>0.1</ele><time>2023-12-06T12:37:28Z</time><name>PT6360</name></trkpt>
<trkpt lat="51.798800" lon="03.937718"><ele>0.1</ele><time>2023-12-06T12:37:29Z</time><name>PT6361</name></trkpt>
<trkpt lat="51.798807" lon="03.937733"><ele>0.1</ele><time>2023-12-06T12:37:30Z</time><name>PT6362</name></trkpt>
<trkpt lat="51.798814" lon="03.937748"><ele>0</ele><time>2023-12-06T12:37:31Z</time><name>PT6363</name></trkpt>
<trkpt lat="51.798820" lon="03.937763"><ele>0.1</ele><time>2023-12-06T12:37:32Z</time><name>PT6364</name></trkpt>
<trkpt lat="51.798827" lon="03.937780"><ele>0</ele><time>2023-12-06T12:37:33Z</time><name>PT6365</name></trkpt>
<trkpt lat="51.798833" lon="03.937797"><ele>0</ele><time>2023-12-06T12:37:34Z</time><name>PT6366</name></trkpt>
<trkpt lat="51.798839" lon="03.937815"><ele>0.3</ele><time>2023-12-06T12:37:35Z</time><name>PT6367</name></trkpt>
<trkpt lat="51.798843" lon="03.937833"><ele>0.4</ele><time>2023-12-06T12:37:36Z</time><name>PT6368</name></trkpt>
<trkpt lat="51.798848" lon="03.937849"><ele>0.4</ele><time>2023-12-06T12:37:37Z</time><name>PT6369</name></trkpt>
<trkpt lat="51.798854" lon="03.937864"><ele>0.4</ele><time>2023-12-06T12:37:38Z</time><name>PT6370</name></trkpt>
<trkpt lat="51.798861" lon="03.937880"><ele>0.5</ele><time>2023-12-06T12:37:39Z</time><name>PT6371</name></trkpt>
<trkpt lat="51.798868" lon="03.937896"><ele>0.5</ele><time>2023-12-06T12:37:40Z</time><name>PT6372</name></trkpt>
<trkpt lat="51.798875" lon="03.937911"><ele>0.6</ele><time>2023-12-06T12:37:41Z</time><name>PT6373</name></trkpt>
<trkpt lat="51.798881" lon="03.937926"><ele>0.7</ele><time>2023-12-06T12:37:41Z</time><name>PT6374</name></trkpt>
<trkpt lat="51.798887" lon="03.937942"><ele>0.7</ele><time>2023-12-06T12:37:43Z</time><name>PT6375</name></trkpt>
<trkpt lat="51.798891" lon="03.937959"><ele>0.8</ele><time>2023-12-06T12:37:44Z</time><name>PT6376</name></trkpt>
<trkpt lat="51.798894" lon="03.937977"><ele>0.7</ele><time>2023-12-06T12:37:44Z</time><name>PT6377</name></trkpt>
<trkpt lat="51.798897" lon="03.937996"><ele>0.5</ele><time>2023-12-06T12:37:46Z</time><name>PT6378</name></trkpt>
<trkpt lat="51.798903" lon="03.938013"><ele>0.6</ele><time>2023-12-06T12:37:47Z</time><name>PT6379</name></trkpt>
<trkpt lat="51.798909" lon="03.938030"><ele>0.5</ele><time>2023-12-06T12:37:47Z</time><name>PT6380</name></trkpt>
<trkpt lat="51.798914" lon="03.938047"><ele>0.3</ele><time>2023-12-06T12:37:49Z</time><name>PT6381</name></trkpt>
<trkpt lat="51.798920" lon="03.938063"><ele>0.3</ele><time>2023-12-06T12:37:50Z</time><name>PT6382</name></trkpt>
<trkpt lat="51.798926" lon="03.938079"><ele>0.4</ele><time>2023-12-06T12:37:50Z</time><name>PT6383</name></trkpt>
<trkpt lat="51.798932" lon="03.938095"><ele>0.3</ele><time>2023-12-06T12:37:52Z</time><name>PT6384</name></trkpt>
<trkpt lat="51.798937" lon="03.938112"><ele>0.5</ele><time>2023-12-06T12:37:53Z</time><name>PT6385</name></trkpt>
<trkpt lat="51.798941" lon="03.938131"><ele>0.5</ele><time>2023-12-06T12:37:53Z</time><name>PT6386</name></trkpt>
<trkpt lat="51.798945" lon="03.938148"><ele>0.8</ele><time>2023-12-06T12:37:55Z</time><name>PT6387</name></trkpt>
<trkpt lat="51.798949" lon="03.938167"><ele>0.7</ele><time>2023-12-06T12:37:56Z</time><name>PT6388</name></trkpt>
<trkpt lat="51.798953" lon="03.938185"><ele>0.8</ele><time>2023-12-06T12:37:56Z</time><name>PT6389</name></trkpt>
<trkpt lat="51.798958" lon="03.938203"><ele>0.8</ele><time>2023-12-06T12:37:58Z</time><name>PT6390</name></trkpt>
<trkpt lat="51.798964" lon="03.938220"><ele>0.7</ele><time>2023-12-06T12:37:59Z</time><name>PT6391</name></trkpt>
<trkpt lat="51.798970" lon="03.938236"><ele>0.7</ele><time>2023-12-06T12:37:59Z</time><name>PT6392</name></trkpt>
<trkpt lat="51.798977" lon="03.938251"><ele>0.6</ele><time>2023-12-06T12:38:01Z</time><name>PT6393</name></trkpt>
<trkpt lat="51.798982" lon="03.938267"><ele>0.7</ele><time>2023-12-06T12:38:02Z</time><name>PT6394</name></trkpt>
<trkpt lat="51.798987" lon="03.938282"><ele>0.7</ele><time>2023-12-06T12:38:02Z</time><name>PT6395</name></trkpt>
<trkpt lat="51.798992" lon="03.938299"><ele>0.6</ele><time>2023-12-06T12:38:04Z</time><name>PT6396</name></trkpt>
<trkpt lat="51.798997" lon="03.938317"><ele>0.6</ele><time>2023-12-06T12:38:05Z</time><name>PT6397</name></trkpt>
<trkpt lat="51.799001" lon="03.938336"><ele>0.7</ele><time>2023-12-06T12:38:05Z</time><name>PT6398</name></trkpt>
<trkpt lat="51.799006" lon="03.938354"><ele>0.8</ele><time>2023-12-06T12:38:07Z</time><name>PT6399</name></trkpt>
<trkpt lat="51.799011" lon="03.938368"><ele>0.8</ele><time>2023-12-06T12:38:08Z</time><name>PT6400</name></trkpt>
<trkpt lat="51.799017" lon="03.938383"><ele>0.8</ele><time>2023-12-06T12:38:08Z</time><name>PT6401</name></trkpt>
<trkpt lat="51.799022" lon="03.938395"><ele>1.1</ele><time>2023-12-06T12:38:10Z</time><name>PT6402</name></trkpt>
<trkpt lat="51.799027" lon="03.938410"><ele>1.2</ele><time>2023-12-06T12:38:11Z</time><name>PT6403</name></trkpt>
<trkpt lat="51.799032" lon="03.938426"><ele>1.1</ele><time>2023-12-06T12:38:11Z</time><name>PT6404</name></trkpt>
<trkpt lat="51.799037" lon="03.938444"><ele>1.2</ele><time>2023-12-06T12:38:13Z</time><name>PT6405</name></trkpt>
<trkpt lat="51.799043" lon="03.938461"><ele>1.3</ele><time>2023-12-06T12:38:14Z</time><name>PT6406</name></trkpt>
<trkpt lat="51.799048" lon="03.938477"><ele>1.4</ele><time>2023-12-06T12:38:14Z</time><name>PT6407</name></trkpt>
<trkpt lat="51.799052" lon="03.938493"><ele>1.3</ele><time>2023-12-06T12:38:16Z</time><name>PT6408</name></trkpt>
<trkpt lat="51.799058" lon="03.938509"><ele>1.5</ele><time>2023-12-06T12:38:17Z</time><name>PT6409</name></trkpt>
<trkpt lat="51.799064" lon="03.938526"><ele>1.4</ele><time>2023-12-06T12:38:17Z</time><name>PT6410</name></trkpt>
<trkpt lat="51.799069" lon="03.938540"><ele>1.3</ele><time>2023-12-06T12:38:19Z</time><name>PT6411</name></trkpt>
<trkpt lat="51.799075" lon="03.938555"><ele>1.2</ele><time>2023-12-06T12:38:20Z</time><name>PT6412</name></trkpt>
<trkpt lat="51.799081" lon="03.938571"><ele>1.1</ele><time>2023-12-06T12:38:20Z</time><name>PT6413</name></trkpt>
<trkpt lat="51.799087" lon="03.938587"><ele>0.9</ele><time>2023-12-06T12:38:22Z</time><name>PT6414</name></trkpt>
<trkpt lat="51.799093" lon="03.938601"><ele>1.2</ele><time>2023-12-06T12:38:23Z</time><name>PT6415</name></trkpt>
<trkpt lat="51.799101" lon="03.938613"><ele>1.1</ele><time>2023-12-06T12:38:23Z</time><name>PT6416</name></trkpt>
<trkpt lat="51.799111" lon="03.938621"><ele>1.3</ele><time>2023-12-06T12:38:25Z</time><name>PT6417</name></trkpt>
<trkpt lat="51.799121" lon="03.938629"><ele>1.5</ele><time>2023-12-06T12:38:26Z</time><name>PT6418</name></trkpt>
<trkpt lat="51.799128" lon="03.938638"><ele>1.5</ele><time>2023-12-06T12:38:27Z</time><name>PT6419</name></trkpt>
<trkpt lat="51.799137" lon="03.938647"><ele>1.6</ele><time>2023-12-06T12:38:28Z</time><name>PT6420</name></trkpt>
<trkpt lat="51.799147" lon="03.938657"><ele>1.5</ele><time>2023-12-06T12:38:29Z</time><name>PT6421</name></trkpt>
<trkpt lat="51.799158" lon="03.938667"><ele>1.5</ele><time>2023-12-06T12:38:30Z</time><name>PT6422</name></trkpt>
<trkpt lat="51.799168" lon="03.938672"><ele>1.6</ele><time>2023-12-06T12:38:31Z</time><name>PT6423</name></trkpt>
<trkpt lat="51.799178" lon="03.938676"><ele>1.8</ele><time>2023-12-06T12:38:32Z</time><name>PT6424</name></trkpt>
<trkpt lat="51.799187" lon="03.938678"><ele>1.8</ele><time>2023-12-06T12:38:33Z</time><name>PT6425</name></trkpt>
<trkpt lat="51.799197" lon="03.938679"><ele>1.7</ele><time>2023-12-06T12:38:34Z</time><name>PT6426</name></trkpt>
<trkpt lat="51.799208" lon="03.938681"><ele>1.8</ele><time>2023-12-06T12:38:35Z</time><name>PT6427</name></trkpt>
<trkpt lat="51.799218" lon="03.938683"><ele>1.8</ele><time>2023-12-06T12:38:36Z</time><name>PT6428</name></trkpt>
<trkpt lat="51.799229" lon="03.938684"><ele>1.8</ele><time>2023-12-06T12:38:37Z</time><name>PT6429</name></trkpt>
<trkpt lat="51.799239" lon="03.938682"><ele>1.9</ele><time>2023-12-06T12:38:38Z</time><name>PT6430</name></trkpt>
<trkpt lat="51.799249" lon="03.938679"><ele>1.8</ele><time>2023-12-06T12:38:39Z</time><name>PT6431</name></trkpt>
<trkpt lat="51.799258" lon="03.938676"><ele>1.7</ele><time>2023-12-06T12:38:40Z</time><name>PT6432</name></trkpt>
<trkpt lat="51.799267" lon="03.938671"><ele>1.6</ele><time>2023-12-06T12:38:41Z</time><name>PT6433</name></trkpt>
<trkpt lat="51.799274" lon="03.938668"><ele>1.5</ele><time>2023-12-06T12:38:42Z</time><name>PT6434</name></trkpt>
<trkpt lat="51.799284" lon="03.938665"><ele>1.5</ele><time>2023-12-06T12:38:43Z</time><name>PT6435</name></trkpt>
<trkpt lat="51.799295" lon="03.938662"><ele>1.5</ele><time>2023-12-06T12:38:44Z</time><name>PT6436</name></trkpt>
<trkpt lat="51.799306" lon="03.938661"><ele>1.5</ele><time>2023-12-06T12:38:44Z</time><name>PT6437</name></trkpt>
<trkpt lat="51.799314" lon="03.938657"><ele>1.5</ele><time>2023-12-06T12:38:46Z</time><name>PT6438</name></trkpt>
<trkpt lat="51.799323" lon="03.938652"><ele>1.5</ele><time>2023-12-06T12:38:47Z</time><name>PT6439</name></trkpt>
<trkpt lat="51.799332" lon="03.938646"><ele>1.4</ele><time>2023-12-06T12:38:47Z</time><name>PT6440</name></trkpt>
<trkpt lat="51.799342" lon="03.938640"><ele>1.5</ele><time>2023-12-06T12:38:49Z</time><name>PT6441</name></trkpt>
<trkpt lat="51.799352" lon="03.938636"><ele>1.8</ele><time>2023-12-06T12:38:50Z</time><name>PT6442</name></trkpt>
<trkpt lat="51.799363" lon="03.938635"><ele>1.8</ele><time>2023-12-06T12:38:50Z</time><name>PT6443</name></trkpt>
<trkpt lat="51.799374" lon="03.938633"><ele>1.9</ele><time>2023-12-06T12:38:52Z</time><name>PT6444</name></trkpt>
<trkpt lat="51.799384" lon="03.938631"><ele>2</ele><time>2023-12-06T12:38:53Z</time><name>PT6445</name></trkpt>
<trkpt lat="51.799394" lon="03.938628"><ele>2</ele><time>2023-12-06T12:38:53Z</time><name>PT6446</name></trkpt>
<trkpt lat="51.799403" lon="03.938626"><ele>1.9</ele><time>2023-12-06T12:38:55Z</time><name>PT6447</name></trkpt>
<trkpt lat="51.799412" lon="03.938623"><ele>1.8</ele><time>2023-12-06T12:38:56Z</time><name>PT6448</name></trkpt>
<trkpt lat="51.799422" lon="03.938620"><ele>1.8</ele><time>2023-12-06T12:38:56Z</time><name>PT6449</name></trkpt>
<trkpt lat="51.799433" lon="03.938617"><ele>1.7</ele><time>2023-12-06T12:38:58Z</time><name>PT6450</name></trkpt>
<trkpt lat="51.799444" lon="03.938613"><ele>1.8</ele><time>2023-12-06T12:38:59Z</time><name>PT6451</name></trkpt>
<trkpt lat="51.799456" lon="03.938610"><ele>1.7</ele><time>2023-12-06T12:38:59Z</time><name>PT6452</name></trkpt>
<trkpt lat="51.799466" lon="03.938607"><ele>1.5</ele><time>2023-12-06T12:39:01Z</time><name>PT6453</name></trkpt>
<trkpt lat="51.799477" lon="03.938603"><ele>1.4</ele><time>2023-12-06T12:39:02Z</time><name>PT6454</name></trkpt>
<trkpt lat="51.799488" lon="03.938599"><ele>1.5</ele><time>2023-12-06T12:39:02Z</time><name>PT6455</name></trkpt>
<trkpt lat="51.799498" lon="03.938595"><ele>1.5</ele><time>2023-12-06T12:39:04Z</time><name>PT6456</name></trkpt>
<trkpt lat="51.799509" lon="03.938591"><ele>1.5</ele><time>2023-12-06T12:39:05Z</time><name>PT6457</name></trkpt>
<trkpt lat="51.799521" lon="03.938588"><ele>1.7</ele><time>2023-12-06T12:39:05Z</time><name>PT6458</name></trkpt>
<trkpt lat="51.799532" lon="03.938586"><ele>1.7</ele><time>2023-12-06T12:39:07Z</time><name>PT6459</name></trkpt>
<trkpt lat="51.799544" lon="03.938585"><ele>1.6</ele><time>2023-12-06T12:39:08Z</time><name>PT6460</name></trkpt>
<trkpt lat="51.799554" lon="03.938583"><ele>1.5</ele><time>2023-12-06T12:39:08Z</time><name>PT6461</name></trkpt>
<trkpt lat="51.799564" lon="03.938580"><ele>1.3</ele><time>2023-12-06T12:39:10Z</time><name>PT6462</name></trkpt>
<trkpt lat="51.799574" lon="03.938575"><ele>1.3</ele><time>2023-12-06T12:39:11Z</time><name>PT6463</name></trkpt>
<trkpt lat="51.799585" lon="03.938569"><ele>1.2</ele><time>2023-12-06T12:39:11Z</time><name>PT6464</name></trkpt>
<trkpt lat="51.799595" lon="03.938565"><ele>1.1</ele><time>2023-12-06T12:39:13Z</time><name>PT6465</name></trkpt>
<trkpt lat="51.799604" lon="03.938562"><ele>1.3</ele><time>2023-12-06T12:39:14Z</time><name>PT6466</name></trkpt>
<trkpt lat="51.799613" lon="03.938560"><ele>1.3</ele><time>2023-12-06T12:39:14Z</time><name>PT6467</name></trkpt>
<trkpt lat="51.799623" lon="03.938558"><ele>1.4</ele><time>2023-12-06T12:39:16Z</time><name>PT6468</name></trkpt>
<trkpt lat="51.799634" lon="03.938556"><ele>1.5</ele><time>2023-12-06T12:39:17Z</time><name>PT6469</name></trkpt>
<trkpt lat="51.799645" lon="03.938555"><ele>1.6</ele><time>2023-12-06T12:39:17Z</time><name>PT6470</name></trkpt>
<trkpt lat="51.799657" lon="03.938550"><ele>1.5</ele><time>2023-12-06T12:39:19Z</time><name>PT6471</name></trkpt>
<trkpt lat="51.799667" lon="03.938545"><ele>1.5</ele><time>2023-12-06T12:39:20Z</time><name>PT6472</name></trkpt>
<trkpt lat="51.799679" lon="03.938542"><ele>1.3</ele><time>2023-12-06T12:39:20Z</time><name>PT6473</name></trkpt>
<trkpt lat="51.799689" lon="03.938544"><ele>1.3</ele><time>2023-12-06T12:39:22Z</time><name>PT6474</name></trkpt>
<trkpt lat="51.799700" lon="03.938544"><ele>1.1</ele><time>2023-12-06T12:39:23Z</time><name>PT6475</name></trkpt>
<trkpt lat="51.799711" lon="03.938542"><ele>1.1</ele><time>2023-12-06T12:39:23Z</time><name>PT6476</name></trkpt>
<trkpt lat="51.799722" lon="03.938538"><ele>1</ele><time>2023-12-06T12:39:25Z</time><name>PT6477</name></trkpt>
<trkpt lat="51.799733" lon="03.938532"><ele>1.2</ele><time>2023-12-06T12:39:26Z</time><name>PT6478</name></trkpt>
<trkpt lat="51.799744" lon="03.938532"><ele>1.2</ele><time>2023-12-06T12:39:26Z</time><name>PT6479</name></trkpt>
<trkpt lat="51.799753" lon="03.938536"><ele>1.3</ele><time>2023-12-06T12:39:28Z</time><name>PT6480</name></trkpt>
<trkpt lat="51.799762" lon="03.938539"><ele>1.3</ele><time>2023-12-06T12:39:29Z</time><name>PT6481</name></trkpt>
<trkpt lat="51.799773" lon="03.938537"><ele>1.3</ele><time>2023-12-06T12:39:29Z</time><name>PT6482</name></trkpt>
<trkpt lat="51.799784" lon="03.938532"><ele>1.2</ele><time>2023-12-06T12:39:31Z</time><name>PT6483</name></trkpt>
<trkpt lat="51.799795" lon="03.938527"><ele>0.9</ele><time>2023-12-06T12:39:32Z</time><name>PT6484</name></trkpt>
<trkpt lat="51.799806" lon="03.938525"><ele>0.7</ele><time>2023-12-06T12:39:32Z</time><name>PT6485</name></trkpt>
<trkpt lat="51.799817" lon="03.938526"><ele>0.7</ele><time>2023-12-06T12:39:34Z</time><name>PT6486</name></trkpt>
<trkpt lat="51.799828" lon="03.938526"><ele>0.9</ele><time>2023-12-06T12:39:35Z</time><name>PT6487</name></trkpt>
<trkpt lat="51.799840" lon="03.938524"><ele>0.8</ele><time>2023-12-06T12:39:36Z</time><name>PT6488</name></trkpt>
<trkpt lat="51.799852" lon="03.938522"><ele>0.8</ele><time>2023-12-06T12:39:37Z</time><name>PT6489</name></trkpt>
<trkpt lat="51.799863" lon="03.938523"><ele>0.8</ele><time>2023-12-06T12:39:38Z</time><name>PT6490</name></trkpt>
<trkpt lat="51.799875" lon="03.938527"><ele>0.8</ele><time>2023-12-06T12:39:39Z</time><name>PT6491</name></trkpt>
<trkpt lat="51.799885" lon="03.938532"><ele>0.8</ele><time>2023-12-06T12:39:40Z</time><name>PT6492</name></trkpt>
<trkpt lat="51.799895" lon="03.938541"><ele>0.9</ele><time>2023-12-06T12:39:41Z</time><name>PT6493</name></trkpt>
<trkpt lat="51.799904" lon="03.938550"><ele>1.1</ele><time>2023-12-06T12:39:42Z</time><name>PT6494</name></trkpt>
<trkpt lat="51.799910" lon="03.938561"><ele>1.1</ele><time>2023-12-06T12:39:43Z</time><name>PT6495</name></trkpt>
<trkpt lat="51.799920" lon="03.938573"><ele>0.9</ele><time>2023-12-06T12:39:44Z</time><name>PT6496</name></trkpt>
<trkpt lat="51.799930" lon="03.938584"><ele>0.8</ele><time>2023-12-06T12:39:44Z</time><name>PT6497</name></trkpt>
<trkpt lat="51.799940" lon="03.938596"><ele>0.7</ele><time>2023-12-06T12:39:46Z</time><name>PT6498</name></trkpt>
<trkpt lat="51.799949" lon="03.938607"><ele>0.7</ele><time>2023-12-06T12:39:47Z</time><name>PT6499</name></trkpt>
<trkpt lat="51.799958" lon="03.938619"><ele>0.7</ele><time>2023-12-06T12:39:47Z</time><name>PT6500</name></trkpt>
<trkpt lat="51.799964" lon="03.938632"><ele>0.5</ele><time>2023-12-06T12:39:49Z</time><name>PT6501</name></trkpt>
<trkpt lat="51.799969" lon="03.938648"><ele>0.4</ele><time>2023-12-06T12:39:50Z</time><name>PT6502</name></trkpt>
<trkpt lat="51.799974" lon="03.938666"><ele>0.3</ele><time>2023-12-06T12:39:50Z</time><name>PT6503</name></trkpt>
<trkpt lat="51.799976" lon="03.938682"><ele>0.1</ele><time>2023-12-06T12:39:52Z</time><name>PT6504</name></trkpt>
<trkpt lat="51.799980" lon="03.938698"><ele>0.1</ele><time>2023-12-06T12:39:53Z</time><name>PT6505</name></trkpt>
<trkpt lat="51.799982" lon="03.938715"><ele>0.1</ele><time>2023-12-06T12:39:53Z</time><name>PT6506</name></trkpt>
<trkpt lat="51.799983" lon="03.938733"><ele>0.2</ele><time>2023-12-06T12:39:55Z</time><name>PT6507</name></trkpt>
<trkpt lat="51.799984" lon="03.938748"><ele>0.3</ele><time>2023-12-06T12:39:56Z</time><name>PT6508</name></trkpt>
<trkpt lat="51.799986" lon="03.938763"><ele>0.3</ele><time>2023-12-06T12:39:56Z</time><name>PT6509</name></trkpt>
<trkpt lat="51.799986" lon="03.938780"><ele>0.3</ele><time>2023-12-06T12:39:58Z</time><name>PT6510</name></trkpt>
<trkpt lat="51.799986" lon="03.938797"><ele>0.3</ele><time>2023-12-06T12:39:59Z</time><name>PT6511</name></trkpt>
<trkpt lat="51.799988" lon="03.938813"><ele>0.3</ele><time>2023-12-06T12:39:59Z</time><name>PT6512</name></trkpt>
<trkpt lat="51.799992" lon="03.938829"><ele>0.1</ele><time>2023-12-06T12:40:01Z</time><name>PT6513</name></trkpt>
<trkpt lat="51.799997" lon="03.938846"><ele>0</ele><time>2023-12-06T12:40:02Z</time><name>PT6514</name></trkpt>
<trkpt lat="51.800001" lon="03.938863"><ele>0</ele><time>2023-12-06T12:40:02Z</time><name>PT6515</name></trkpt>
<trkpt lat="51.800003" lon="03.938879"><ele>0.1</ele><time>2023-12-06T12:40:04Z</time><name>PT6516</name></trkpt>
<trkpt lat="51.800005" lon="03.938895"><ele>0</ele><time>2023-12-06T12:40:05Z</time><name>PT6517</name></trkpt>
<trkpt lat="51.800007" lon="03.938913"><ele>0.1</ele><time>2023-12-06T12:40:05Z</time><name>PT6518</name></trkpt>
<trkpt lat="51.800008" lon="03.938930"><ele>0.3</ele><time>2023-12-06T12:40:07Z</time><name>PT6519</name></trkpt>
<trkpt lat="51.800009" lon="03.938946"><ele>0.1</ele><time>2023-12-06T12:40:08Z</time><name>PT6520</name></trkpt>
<trkpt lat="51.800010" lon="03.938963"><ele>0</ele><time>2023-12-06T12:40:08Z</time><name>PT6521</name></trkpt>
<trkpt lat="51.800012" lon="03.938980"><ele>0</ele><time>2023-12-06T12:40:10Z</time><name>PT6522</name></trkpt>
<trkpt lat="51.800012" lon="03.938995"><ele>0</ele><time>2023-12-06T12:40:11Z</time><name>PT6523</name></trkpt>
<trkpt lat="51.800013" lon="03.939011"><ele>0.2</ele><time>2023-12-06T12:40:11Z</time><name>PT6524</name></trkpt>
<trkpt lat="51.800015" lon="03.939032"><ele>0.1</ele><time>2023-12-06T12:40:13Z</time><name>PT6525</name></trkpt>
<trkpt lat="51.800017" lon="03.939051"><ele>0.1</ele><time>2023-12-06T12:40:14Z</time><name>PT6526</name></trkpt>
<trkpt lat="51.800019" lon="03.939067"><ele>0</ele><time>2023-12-06T12:40:14Z</time><name>PT6527</name></trkpt>
<trkpt lat="51.800021" lon="03.939084"><ele>0</ele><time>2023-12-06T12:40:16Z</time><name>PT6528</name></trkpt>
<trkpt lat="51.800023" lon="03.939101"><ele>0</ele><time>2023-12-06T12:40:17Z</time><name>PT6529</name></trkpt>
<trkpt lat="51.800024" lon="03.939117"><ele>0.1</ele><time>2023-12-06T12:40:17Z</time><name>PT6530</name></trkpt>
<trkpt lat="51.800025" lon="03.939132"><ele>0.2</ele><time>2023-12-06T12:40:19Z</time><name>PT6531</name></trkpt>
<trkpt lat="51.800025" lon="03.939149"><ele>0.3</ele><time>2023-12-06T12:40:20Z</time><name>PT6532</name></trkpt>
<trkpt lat="51.800025" lon="03.939169"><ele>0.2</ele><time>2023-12-06T12:40:20Z</time><name>PT6533</name></trkpt>
<trkpt lat="51.800027" lon="03.939188"><ele>0.4</ele><time>2023-12-06T12:40:22Z</time><name>PT6534</name></trkpt>
<trkpt lat="51.800028" lon="03.939205"><ele>0.4</ele><time>2023-12-06T12:40:23Z</time><name>PT6535</name></trkpt>
<trkpt lat="51.800031" lon="03.939222"><ele>0.4</ele><time>2023-12-06T12:40:23Z</time><name>PT6536</name></trkpt>
<trkpt lat="51.800033" lon="03.939239"><ele>0.4</ele><time>2023-12-06T12:40:25Z</time><name>PT6537</name></trkpt>
<trkpt lat="51.800036" lon="03.939254"><ele>0.3</ele><time>2023-12-06T12:40:26Z</time><name>PT6538</name></trkpt>
<trkpt lat="51.800037" lon="03.939270"><ele>0.2</ele><time>2023-12-06T12:40:26Z</time><name>PT6539</name></trkpt>
<trkpt lat="51.800039" lon="03.939290"><ele>0.3</ele><time>2023-12-06T12:40:28Z</time><name>PT6540</name></trkpt>
<trkpt lat="51.800041" lon="03.939307"><ele>0.5</ele><time>2023-12-06T12:40:29Z</time><name>PT6541</name></trkpt>
<trkpt lat="51.800043" lon="03.939322"><ele>0.5</ele><time>2023-12-06T12:40:29Z</time><name>PT6542</name></trkpt>
<trkpt lat="51.800045" lon="03.939339"><ele>0.4</ele><time>2023-12-06T12:40:31Z</time><name>PT6543</name></trkpt>
<trkpt lat="51.800047" lon="03.939355"><ele>0.5</ele><time>2023-12-06T12:40:32Z</time><name>PT6544</name></trkpt>
<trkpt lat="51.800049" lon="03.939371"><ele>0.6</ele><time>2023-12-06T12:40:32Z</time><name>PT6545</name></trkpt>
<trkpt lat="51.800049" lon="03.939389"><ele>0.5</ele><time>2023-12-06T12:40:34Z</time><name>PT6546</name></trkpt>
<trkpt lat="51.800052" lon="03.939407"><ele>0.6</ele><time>2023-12-06T12:40:35Z</time><name>PT6547</name></trkpt>
<trkpt lat="51.800054" lon="03.939425"><ele>0.9</ele><time>2023-12-06T12:40:35Z</time><name>PT6548</name></trkpt>
<trkpt lat="51.800056" lon="03.939443"><ele>0.9</ele><time>2023-12-06T12:40:37Z</time><name>PT6549</name></trkpt>
<trkpt lat="51.800058" lon="03.939459"><ele>0.9</ele><time>2023-12-06T12:40:38Z</time><name>PT6550</name></trkpt>
<trkpt lat="51.800061" lon="03.939476"><ele>-1</ele><time>2023-12-06T12:40:39Z</time><name>PT6551</name></trkpt>
<trkpt lat="51.800064" lon="03.939493"><ele>0.9</ele><time>2023-12-06T12:40:40Z</time><name>PT6552</name></trkpt>
<trkpt lat="51.800066" lon="03.939510"><ele>0.8</ele><time>2023-12-06T12:40:41Z</time><name>PT6553</name></trkpt>
<trkpt lat="51.800067" lon="03.939525"><ele>0.7</ele><time>2023-12-06T12:40:42Z</time><name>PT6554</name></trkpt>
<trkpt lat="51.800069" lon="03.939543"><ele>0.6</ele><time>2023-12-06T12:40:43Z</time><name>PT6555</name></trkpt>
<trkpt lat="51.800071" lon="03.939560"><ele>0.8</ele><time>2023-12-06T12:40:44Z</time><name>PT6556</name></trkpt>
<trkpt lat="51.800075" lon="03.939576"><ele>0.9</ele><time>2023-12-06T12:40:44Z</time><name>PT6557</name></trkpt>
<trkpt lat="51.800077" lon="03.939593"><ele>-1</ele><time>2023-12-06T12:40:46Z</time><name>PT6558</name></trkpt>
<trkpt lat="51.800080" lon="03.939610"><ele>-1.1</ele><time>2023-12-06T12:40:47Z</time><name>PT6559</name></trkpt>
<trkpt lat="51.800082" lon="03.939624"><ele>-1.1</ele><time>2023-12-06T12:40:47Z</time><name>PT6560</name></trkpt>
<trkpt lat="51.800084" lon="03.939639"><ele>-1.1</ele><time>2023-12-06T12:40:49Z</time><name>PT6561</name></trkpt>
<trkpt lat="51.800087" lon="03.939656"><ele>-1.2</ele><time>2023-12-06T12:40:50Z</time><name>PT6562</name></trkpt>
<trkpt lat="51.800090" lon="03.939675"><ele>-1.3</ele><time>2023-12-06T12:40:50Z</time><name>PT6563</name></trkpt>
<trkpt lat="51.800091" lon="03.939692"><ele>-1.3</ele><time>2023-12-06T12:40:52Z</time><name>PT6564</name></trkpt>
<trkpt lat="51.800094" lon="03.939707"><ele>-1.4</ele><time>2023-12-06T12:40:53Z</time><name>PT6565</name></trkpt>
<trkpt lat="51.800096" lon="03.939724"><ele>-1.4</ele><time>2023-12-06T12:40:53Z</time><name>PT6566</name></trkpt>
<trkpt lat="51.800100" lon="03.939741"><ele>-1.3</ele><time>2023-12-06T12:40:55Z</time><name>PT6567</name></trkpt>
<trkpt lat="51.800103" lon="03.939756"><ele>-1.5</ele><time>2023-12-06T12:40:56Z</time><name>PT6568</name></trkpt>
<trkpt lat="51.800106" lon="03.939772"><ele>-1.5</ele><time>2023-12-06T12:40:56Z</time><name>PT6569</name></trkpt>
<trkpt lat="51.800108" lon="03.939794"><ele>-1.5</ele><time>2023-12-06T12:40:58Z</time><name>PT6570</name></trkpt>
<trkpt lat="51.800111" lon="03.939817"><ele>-1.5</ele><time>2023-12-06T12:40:59Z</time><name>PT6571</name></trkpt>
<trkpt lat="51.800114" lon="03.939833"><ele>-1.5</ele><time>2023-12-06T12:40:59Z</time><name>PT6572</name></trkpt>
<trkpt lat="51.800117" lon="03.939850"><ele>-1.5</ele><time>2023-12-06T12:41:01Z</time><name>PT6573</name></trkpt>
<trkpt lat="51.800121" lon="03.939867"><ele>-1.4</ele><time>2023-12-06T12:41:02Z</time><name>PT6574</name></trkpt>
<trkpt lat="51.800123" lon="03.939882"><ele>-1.4</ele><time>2023-12-06T12:41:02Z</time><name>PT6575</name></trkpt>
<trkpt lat="51.800124" lon="03.939898"><ele>-1.3</ele><time>2023-12-06T12:41:04Z</time><name>PT6576</name></trkpt>
<trkpt lat="51.800126" lon="03.939916"><ele>-1.3</ele><time>2023-12-06T12:41:05Z</time><name>PT6577</name></trkpt>
<trkpt lat="51.800127" lon="03.939937"><ele>-1.4</ele><time>2023-12-06T12:41:05Z</time><name>PT6578</name></trkpt>
<trkpt lat="51.800129" lon="03.939955"><ele>-1.4</ele><time>2023-12-06T12:41:07Z</time><name>PT6579</name></trkpt>
<trkpt lat="51.800133" lon="03.939971"><ele>-1.5</ele><time>2023-12-06T12:41:08Z</time><name>PT6580</name></trkpt>
<trkpt lat="51.800136" lon="03.939986"><ele>-1.5</ele><time>2023-12-06T12:41:08Z</time><name>PT6581</name></trkpt>
<trkpt lat="51.800141" lon="03.940003"><ele>-1.6</ele><time>2023-12-06T12:41:10Z</time><name>PT6582</name></trkpt>
<trkpt lat="51.800144" lon="03.940020"><ele>-1.5</ele><time>2023-12-06T12:41:11Z</time><name>PT6583</name></trkpt>
<trkpt lat="51.800148" lon="03.940036"><ele>-1.6</ele><time>2023-12-06T12:41:11Z</time><name>PT6584</name></trkpt>
<trkpt lat="51.800150" lon="03.940051"><ele>-1.8</ele><time>2023-12-06T12:41:13Z</time><name>PT6585</name></trkpt>
<trkpt lat="51.800153" lon="03.940068"><ele>-1.8</ele><time>2023-12-06T12:41:14Z</time><name>PT6586</name></trkpt>
<trkpt lat="51.800156" lon="03.940085"><ele>-1.9</ele><time>2023-12-06T12:41:14Z</time><name>PT6587</name></trkpt>
<trkpt lat="51.800158" lon="03.940101"><ele>-2.1</ele><time>2023-12-06T12:41:16Z</time><name>PT6588</name></trkpt>
<trkpt lat="51.800162" lon="03.940117"><ele>-2.1</ele><time>2023-12-06T12:41:17Z</time><name>PT6589</name></trkpt>
<trkpt lat="51.800166" lon="03.940133"><ele>-2</ele><time>2023-12-06T12:41:17Z</time><name>PT6590</name></trkpt>
<trkpt lat="51.800170" lon="03.940149"><ele>-2</ele><time>2023-12-06T12:41:19Z</time><name>PT6591</name></trkpt>
<trkpt lat="51.800172" lon="03.940164"><ele>-2</ele><time>2023-12-06T12:41:20Z</time><name>PT6592</name></trkpt>
<trkpt lat="51.800174" lon="03.940182"><ele>-2.1</ele><time>2023-12-06T12:41:20Z</time><name>PT6593</name></trkpt>
<trkpt lat="51.800177" lon="03.940202"><ele>-2.4</ele><time>2023-12-06T12:41:22Z</time><name>PT6594</name></trkpt>
<trkpt lat="51.800180" lon="03.940221"><ele>-2.6</ele><time>2023-12-06T12:41:23Z</time><name>PT6595</name></trkpt>
<trkpt lat="51.800182" lon="03.940239"><ele>-2.7</ele><time>2023-12-06T12:41:23Z</time><name>PT6596</name></trkpt>
<trkpt lat="51.800185" lon="03.940256"><ele>-2.9</ele><time>2023-12-06T12:41:25Z</time><name>PT6597</name></trkpt>
<trkpt lat="51.800188" lon="03.940274"><ele>-2.9</ele><time>2023-12-06T12:41:26Z</time><name>PT6598</name></trkpt>
<trkpt lat="51.800192" lon="03.940291"><ele>-2.9</ele><time>2023-12-06T12:41:26Z</time><name>PT6599</name></trkpt>
<trkpt lat="51.800197" lon="03.940309"><ele>-2.9</ele><time>2023-12-06T12:41:28Z</time><name>PT6600</name></trkpt>
<trkpt lat="51.800201" lon="03.940324"><ele>-2.9</ele><time>2023-12-06T12:41:29Z</time><name>PT6601</name></trkpt>
<trkpt lat="51.800206" lon="03.940338"><ele>-3</ele><time>2023-12-06T12:41:29Z</time><name>PT6602</name></trkpt>
<trkpt lat="51.800210" lon="03.940351"><ele>-3</ele><time>2023-12-06T12:41:31Z</time><name>PT6603</name></trkpt>
<trkpt lat="51.800214" lon="03.940366"><ele>-3.1</ele><time>2023-12-06T12:41:32Z</time><name>PT6604</name></trkpt>
<trkpt lat="51.800220" lon="03.940377"><ele>-3.1</ele><time>2023-12-06T12:41:32Z</time><name>PT6605</name></trkpt>
<trkpt lat="51.800226" lon="03.940387"><ele>-3.2</ele><time>2023-12-06T12:41:34Z</time><name>PT6606</name></trkpt>
<trkpt lat="51.800234" lon="03.940391"><ele>-3.1</ele><time>2023-12-06T12:41:35Z</time><name>PT6607</name></trkpt>
<trkpt lat="51.800240" lon="03.940396"><ele>-3.1</ele><time>2023-12-06T12:41:35Z</time><name>PT6608</name></trkpt>
<trkpt lat="51.800247" lon="03.940399"><ele>-3</ele><time>2023-12-06T12:41:37Z</time><name>PT6609</name></trkpt>
<trkpt lat="51.800255" lon="03.940405"><ele>-3.2</ele><time>2023-12-06T12:41:38Z</time><name>PT6610</name></trkpt>
<trkpt lat="51.800260" lon="03.940414"><ele>-3.3</ele><time>2023-12-06T12:41:38Z</time><name>PT6611</name></trkpt>
<trkpt lat="51.800264" lon="03.940423"><ele>-3.5</ele><time>2023-12-06T12:41:40Z</time><name>PT6612</name></trkpt>
<trkpt lat="51.800269" lon="03.940432"><ele>-3.7</ele><time>2023-12-06T12:41:41Z</time><name>PT6613</name></trkpt>
<trkpt lat="51.800271" lon="03.940444"><ele>-3.8</ele><time>2023-12-06T12:41:41Z</time><name>PT6614</name></trkpt>
<trkpt lat="51.800273" lon="03.940455"><ele>-4</ele><time>2023-12-06T12:41:43Z</time><name>PT6615</name></trkpt>
<trkpt lat="51.800276" lon="03.940466"><ele>-4.2</ele><time>2023-12-06T12:41:44Z</time><name>PT6616</name></trkpt>
<trkpt lat="51.800281" lon="03.940476"><ele>-4.1</ele><time>2023-12-06T12:41:44Z</time><name>PT6617</name></trkpt>
<trkpt lat="51.800285" lon="03.940487"><ele>-4.2</ele><time>2023-12-06T12:41:46Z</time><name>PT6618</name></trkpt>
<trkpt lat="51.800291" lon="03.940499"><ele>-4.3</ele><time>2023-12-06T12:41:47Z</time><name>PT6619</name></trkpt>
<trkpt lat="51.800297" lon="03.940509"><ele>-4.4</ele><time>2023-12-06T12:41:47Z</time><name>PT6620</name></trkpt>
<trkpt lat="51.800303" lon="03.940520"><ele>-4.5</ele><time>2023-12-06T12:41:49Z</time><name>PT6621</name></trkpt>
<trkpt lat="51.800309" lon="03.940530"><ele>-4.8</ele><time>2023-12-06T12:41:50Z</time><name>PT6622</name></trkpt>
<trkpt lat="51.800316" lon="03.940539"><ele>-4.8</ele><time>2023-12-06T12:41:50Z</time><name>PT6623</name></trkpt>
<trkpt lat="51.800323" lon="03.940547"><ele>-5.1</ele><time>2023-12-06T12:41:52Z</time><name>PT6624</name></trkpt>
<trkpt lat="51.800329" lon="03.940556"><ele>-5.3</ele><time>2023-12-06T12:41:53Z</time><name>PT6625</name></trkpt>
<trkpt lat="51.800336" lon="03.940559"><ele>-5.5</ele><time>2023-12-06T12:41:53Z</time><name>PT6626</name></trkpt>
<trkpt lat="51.800344" lon="03.940563"><ele>-5.6</ele><time>2023-12-06T12:41:55Z</time><name>PT6627</name></trkpt>
<trkpt lat="51.800353" lon="03.940568"><ele>-5.8</ele><time>2023-12-06T12:41:56Z</time><name>PT6628</name></trkpt>
<trkpt lat="51.800363" lon="03.940569"><ele>-5.8</ele><time>2023-12-06T12:41:56Z</time><name>PT6629</name></trkpt>
<trkpt lat="51.800373" lon="03.940566"><ele>-5.7</ele><time>2023-12-06T12:41:58Z</time><name>PT6630</name></trkpt>
<trkpt lat="51.800382" lon="03.940562"><ele>-5.8</ele><time>2023-12-06T12:41:59Z</time><name>PT6631</name></trkpt>
<trkpt lat="51.800392" lon="03.940556"><ele>-5.9</ele><time>2023-12-06T12:41:59Z</time><name>PT6632</name></trkpt>
<trkpt lat="51.800402" lon="03.940552"><ele>-6.1</ele><time>2023-12-06T12:42:01Z</time><name>PT6633</name></trkpt>
<trkpt lat="51.800412" lon="03.940549"><ele>-6.3</ele><time>2023-12-06T12:42:02Z</time><name>PT6634</name></trkpt>
<trkpt lat="51.800423" lon="03.940544"><ele>-6.3</ele><time>2023-12-06T12:42:02Z</time><name>PT6635</name></trkpt>
<trkpt lat="51.800434" lon="03.940538"><ele>-6.4</ele><time>2023-12-06T12:42:04Z</time><name>PT6636</name></trkpt>
<trkpt lat="51.800442" lon="03.940532"><ele>-6.3</ele><time>2023-12-06T12:42:05Z</time><name>PT6637</name></trkpt>
<trkpt lat="51.800451" lon="03.940529"><ele>-6.3</ele><time>2023-12-06T12:42:05Z</time><name>PT6638</name></trkpt>
<trkpt lat="51.800459" lon="03.940525"><ele>-6.3</ele><time>2023-12-06T12:42:07Z</time><name>PT6639</name></trkpt>
<trkpt lat="51.800468" lon="03.940520"><ele>-6.2</ele><time>2023-12-06T12:42:08Z</time><name>PT6640</name></trkpt>
<trkpt lat="51.800476" lon="03.940515"><ele>-6.2</ele><time>2023-12-06T12:42:08Z</time><name>PT6641</name></trkpt>
<trkpt lat="51.800486" lon="03.940510"><ele>-6.3</ele><time>2023-12-06T12:42:10Z</time><name>PT6642</name></trkpt>
<trkpt lat="51.800496" lon="03.940504"><ele>-6.1</ele><time>2023-12-06T12:42:11Z</time><name>PT6643</name></trkpt>
<trkpt lat="51.800506" lon="03.940498"><ele>-6.1</ele><time>2023-12-06T12:42:11Z</time><name>PT6644</name></trkpt>
<trkpt lat="51.800515" lon="03.940494"><ele>-6.1</ele><time>2023-12-06T12:42:13Z</time><name>PT6645</name></trkpt>
<trkpt lat="51.800524" lon="03.940490"><ele>-5.9</ele><time>2023-12-06T12:42:14Z</time><name>PT6646</name></trkpt>
<trkpt lat="51.800533" lon="03.940487"><ele>-5.8</ele><time>2023-12-06T12:42:14Z</time><name>PT6647</name></trkpt>
<trkpt lat="51.800543" lon="03.940484"><ele>-6.1</ele><time>2023-12-06T12:42:16Z</time><name>PT6648</name></trkpt>
<trkpt lat="51.800551" lon="03.940480"><ele>-6.3</ele><time>2023-12-06T12:42:17Z</time><name>PT6649</name></trkpt>
<trkpt lat="51.800559" lon="03.940477"><ele>-6.2</ele><time>2023-12-06T12:42:17Z</time><name>PT6650</name></trkpt>
<trkpt lat="51.800568" lon="03.940473"><ele>-6.1</ele><time>2023-12-06T12:42:19Z</time><name>PT6651</name></trkpt>
<trkpt lat="51.800579" lon="03.940469"><ele>-6.2</ele><time>2023-12-06T12:42:20Z</time><name>PT6652</name></trkpt>
<trkpt lat="51.800588" lon="03.940463"><ele>-6.2</ele><time>2023-12-06T12:42:20Z</time><name>PT6653</name></trkpt>
<trkpt lat="51.800597" lon="03.940454"><ele>-6.3</ele><time>2023-12-06T12:42:22Z</time><name>PT6654</name></trkpt>
<trkpt lat="51.800603" lon="03.940441"><ele>-6.5</ele><time>2023-12-06T12:42:23Z</time><name>PT6655</name></trkpt>
<trkpt lat="51.800608" lon="03.940426"><ele>-6.5</ele><time>2023-12-06T12:42:23Z</time><name>PT6656</name></trkpt>
<trkpt lat="51.800612" lon="03.940412"><ele>-6.7</ele><time>2023-12-06T12:42:25Z</time><name>PT6657</name></trkpt>
<trkpt lat="51.800617" lon="03.940398"><ele>-6.6</ele><time>2023-12-06T12:42:26Z</time><name>PT6658</name></trkpt>
<trkpt lat="51.800622" lon="03.940384"><ele>-6.7</ele><time>2023-12-06T12:42:26Z</time><name>PT6659</name></trkpt>
<trkpt lat="51.800628" lon="03.940370"><ele>-6.7</ele><time>2023-12-06T12:42:28Z</time><name>PT6660</name></trkpt>
<trkpt lat="51.800639" lon="03.940355"><ele>-6.5</ele><time>2023-12-06T12:42:29Z</time><name>PT6661</name></trkpt>
<trkpt lat="51.800647" lon="03.940343"><ele>-6.6</ele><time>2023-12-06T12:42:29Z</time><name>PT6662</name></trkpt>
<trkpt lat="51.800654" lon="03.940331"><ele>-6.5</ele><time>2023-12-06T12:42:31Z</time><name>PT6663</name></trkpt>
<trkpt lat="51.800660" lon="03.940320"><ele>-6.6</ele><time>2023-12-06T12:42:32Z</time><name>PT6664</name></trkpt>
<trkpt lat="51.800668" lon="03.940306"><ele>-6.7</ele><time>2023-12-06T12:42:32Z</time><name>PT6665</name></trkpt>
<trkpt lat="51.800675" lon="03.940292"><ele>-7.1</ele><time>2023-12-06T12:42:34Z</time><name>PT6666</name></trkpt>
<trkpt lat="51.800681" lon="03.940278"><ele>-7</ele><time>2023-12-06T12:42:35Z</time><name>PT6667</name></trkpt>
<trkpt lat="51.800687" lon="03.940267"><ele>-7.1</ele><time>2023-12-06T12:42:35Z</time><name>PT6668</name></trkpt>
<trkpt lat="51.800695" lon="03.940258"><ele>-7.1</ele><time>2023-12-06T12:42:37Z</time><name>PT6669</name></trkpt>
<trkpt lat="51.800702" lon="03.940252"><ele>-6.8</ele><time>2023-12-06T12:42:38Z</time><name>PT6670</name></trkpt>
<trkpt lat="51.800708" lon="03.940239"><ele>-6.8</ele><time>2023-12-06T12:42:38Z</time><name>PT6671</name></trkpt>
<trkpt lat="51.800715" lon="03.940229"><ele>-6.7</ele><time>2023-12-06T12:42:40Z</time><name>PT6672</name></trkpt>
<trkpt lat="51.800725" lon="03.940216"><ele>-6.6</ele><time>2023-12-06T12:42:41Z</time><name>PT6673</name></trkpt>
<trkpt lat="51.800733" lon="03.940205"><ele>-6.6</ele><time>2023-12-06T12:42:41Z</time><name>PT6674</name></trkpt>
<trkpt lat="51.800740" lon="03.940194"><ele>-6.5</ele><time>2023-12-06T12:42:43Z</time><name>PT6675</name></trkpt>
<trkpt lat="51.800749" lon="03.940181"><ele>-6.5</ele><time>2023-12-06T12:42:44Z</time><name>PT6676</name></trkpt>
<trkpt lat="51.800759" lon="03.940170"><ele>-6.7</ele><time>2023-12-06T12:42:44Z</time><name>PT6677</name></trkpt>
<trkpt lat="51.800770" lon="03.940161"><ele>-6.7</ele><time>2023-12-06T12:42:46Z</time><name>PT6678</name></trkpt>
<trkpt lat="51.800779" lon="03.940150"><ele>-6.6</ele><time>2023-12-06T12:42:47Z</time><name>PT6679</name></trkpt>
<trkpt lat="51.800788" lon="03.940140"><ele>-6.6</ele><time>2023-12-06T12:42:47Z</time><name>PT6680</name></trkpt>
<trkpt lat="51.800797" lon="03.940132"><ele>-6.6</ele><time>2023-12-06T12:42:49Z</time><name>PT6681</name></trkpt>
<trkpt lat="51.800806" lon="03.940124"><ele>-6.5</ele><time>2023-12-06T12:42:50Z</time><name>PT6682</name></trkpt>
<trkpt lat="51.800816" lon="03.940118"><ele>-6.5</ele><time>2023-12-06T12:42:50Z</time><name>PT6683</name></trkpt>
<trkpt lat="51.800825" lon="03.940112"><ele>-6.7</ele><time>2023-12-06T12:42:52Z</time><name>PT6684</name></trkpt>
<trkpt lat="51.800831" lon="03.940104"><ele>-6.7</ele><time>2023-12-06T12:42:53Z</time><name>PT6685</name></trkpt>
<trkpt lat="51.800841" lon="03.940096"><ele>-6.8</ele><time>2023-12-06T12:42:53Z</time><name>PT6686</name></trkpt>
<trkpt lat="51.800851" lon="03.940087"><ele>-6.8</ele><time>2023-12-06T12:42:55Z</time><name>PT6687</name></trkpt>
<trkpt lat="51.800861" lon="03.940077"><ele>-6.7</ele><time>2023-12-06T12:42:56Z</time><name>PT6688</name></trkpt>
<trkpt lat="51.800868" lon="03.940068"><ele>-6.7</ele><time>2023-12-06T12:42:56Z</time><name>PT6689</name></trkpt>
<trkpt lat="51.800878" lon="03.940058"><ele>-6.7</ele><time>2023-12-06T12:42:58Z</time><name>PT6690</name></trkpt>
<trkpt lat="51.800889" lon="03.940050"><ele>-6.7</ele><time>2023-12-06T12:42:59Z</time><name>PT6691</name></trkpt>
<trkpt lat="51.800898" lon="03.940042"><ele>-6.7</ele><time>2023-12-06T12:42:59Z</time><name>PT6692</name></trkpt>
<trkpt lat="51.800909" lon="03.940036"><ele>-6.7</ele><time>2023-12-06T12:43:01Z</time><name>PT6693</name></trkpt>
<trkpt lat="51.800919" lon="03.940029"><ele>-6.7</ele><time>2023-12-06T12:43:02Z</time><name>PT6694</name></trkpt>
<trkpt lat="51.800931" lon="03.940021"><ele>-7</ele><time>2023-12-06T12:43:02Z</time><name>PT6695</name></trkpt>
<trkpt lat="51.800941" lon="03.940011"><ele>-7.3</ele><time>2023-12-06T12:43:04Z</time><name>PT6696</name></trkpt>
<trkpt lat="51.800953" lon="03.940002"><ele>-7.5</ele><time>2023-12-06T12:43:05Z</time><name>PT6697</name></trkpt>
<trkpt lat="51.800963" lon="03.939993"><ele>-7.4</ele><time>2023-12-06T12:43:05Z</time><name>PT6698</name></trkpt>
<trkpt lat="51.800973" lon="03.939983"><ele>-7.4</ele><time>2023-12-06T12:43:07Z</time><name>PT6699</name></trkpt>
<trkpt lat="51.800983" lon="03.939974"><ele>-7.2</ele><time>2023-12-06T12:43:08Z</time><name>PT6700</name></trkpt>
<trkpt lat="51.800994" lon="03.939964"><ele>-7.5</ele><time>2023-12-06T12:43:08Z</time><name>PT6701</name></trkpt>
<trkpt lat="51.801004" lon="03.939957"><ele>-7.6</ele><time>2023-12-06T12:43:10Z</time><name>PT6702</name></trkpt>
<trkpt lat="51.801016" lon="03.939946"><ele>-7.6</ele><time>2023-12-06T12:43:11Z</time><name>PT6703</name></trkpt>
<trkpt lat="51.801028" lon="03.939938"><ele>-7.6</ele><time>2023-12-06T12:43:11Z</time><name>PT6704</name></trkpt>
<trkpt lat="51.801039" lon="03.939930"><ele>-7.3</ele><time>2023-12-06T12:43:13Z</time><name>PT6705</name></trkpt>
<trkpt lat="51.801050" lon="03.939921"><ele>-6.9</ele><time>2023-12-06T12:43:14Z</time><name>PT6706</name></trkpt>
<trkpt lat="51.801061" lon="03.939911"><ele>-6.7</ele><time>2023-12-06T12:43:14Z</time><name>PT6707</name></trkpt>
<trkpt lat="51.801070" lon="03.939901"><ele>-6.5</ele><time>2023-12-06T12:43:16Z</time><name>PT6708</name></trkpt>
<trkpt lat="51.801080" lon="03.939890"><ele>-6.4</ele><time>2023-12-06T12:43:17Z</time><name>PT6709</name></trkpt>
<trkpt lat="51.801089" lon="03.939882"><ele>-6.3</ele><time>2023-12-06T12:43:17Z</time><name>PT6710</name></trkpt>
<trkpt lat="51.801098" lon="03.939876"><ele>-6.4</ele><time>2023-12-06T12:43:19Z</time><name>PT6711</name></trkpt>
<trkpt lat="51.801108" lon="03.939868"><ele>-6.6</ele><time>2023-12-06T12:43:20Z</time><name>PT6712</name></trkpt>
<trkpt lat="51.801120" lon="03.939858"><ele>-6.7</ele><time>2023-12-06T12:43:20Z</time><name>PT6713</name></trkpt>
<trkpt lat="51.801132" lon="03.939850"><ele>-6.9</ele><time>2023-12-06T12:43:22Z</time><name>PT6714</name></trkpt>
<trkpt lat="51.801142" lon="03.939842"><ele>-7</ele><time>2023-12-06T12:43:23Z</time><name>PT6715</name></trkpt>
<trkpt lat="51.801152" lon="03.939833"><ele>-7.1</ele><time>2023-12-06T12:43:23Z</time><name>PT6716</name></trkpt>
<trkpt lat="51.801162" lon="03.939824"><ele>-7.1</ele><time>2023-12-06T12:43:25Z</time><name>PT6717</name></trkpt>
<trkpt lat="51.801172" lon="03.939816"><ele>-7.2</ele><time>2023-12-06T12:43:26Z</time><name>PT6718</name></trkpt>
<trkpt lat="51.801183" lon="03.939806"><ele>-7.2</ele><time>2023-12-06T12:43:26Z</time><name>PT6719</name></trkpt>
<trkpt lat="51.801190" lon="03.939797"><ele>-7.2</ele><time>2023-12-06T12:43:28Z</time><name>PT6720</name></trkpt>
<trkpt lat="51.801201" lon="03.939789"><ele>-7.4</ele><time>2023-12-06T12:43:29Z</time><name>PT6721</name></trkpt>
<trkpt lat="51.801211" lon="03.939781"><ele>-7.2</ele><time>2023-12-06T12:43:29Z</time><name>PT6722</name></trkpt>
<trkpt lat="51.801223" lon="03.939773"><ele>-7.2</ele><time>2023-12-06T12:43:31Z</time><name>PT6723</name></trkpt>
<trkpt lat="51.801235" lon="03.939764"><ele>-7.1</ele><time>2023-12-06T12:43:32Z</time><name>PT6724</name></trkpt>
<trkpt lat="51.801247" lon="03.939756"><ele>-6.9</ele><time>2023-12-06T12:43:32Z</time><name>PT6725</name></trkpt>
<trkpt lat="51.801256" lon="03.939746"><ele>-6.7</ele><time>2023-12-06T12:43:34Z</time><name>PT6726</name></trkpt>
<trkpt lat="51.801265" lon="03.939735"><ele>-6.7</ele><time>2023-12-06T12:43:35Z</time><name>PT6727</name></trkpt>
<trkpt lat="51.801273" lon="03.939726"><ele>-6.5</ele><time>2023-12-06T12:43:35Z</time><name>PT6728</name></trkpt>
<trkpt lat="51.801283" lon="03.939720"><ele>-6.4</ele><time>2023-12-06T12:43:37Z</time><name>PT6729</name></trkpt>
<trkpt lat="51.801295" lon="03.939712"><ele>-6.5</ele><time>2023-12-06T12:43:38Z</time><name>PT6730</name></trkpt>
<trkpt lat="51.801307" lon="03.939706"><ele>-6.5</ele><time>2023-12-06T12:43:38Z</time><name>PT6731</name></trkpt>
<trkpt lat="51.801319" lon="03.939698"><ele>-6.6</ele><time>2023-12-06T12:43:40Z</time><name>PT6732</name></trkpt>
<trkpt lat="51.801329" lon="03.939689"><ele>-6.7</ele><time>2023-12-06T12:43:41Z</time><name>PT6733</name></trkpt>
<trkpt lat="51.801342" lon="03.939682"><ele>-6.7</ele><time>2023-12-06T12:43:41Z</time><name>PT6734</name></trkpt>
<trkpt lat="51.801353" lon="03.939675"><ele>-6.8</ele><time>2023-12-06T12:43:43Z</time><name>PT6735</name></trkpt>
<trkpt lat="51.801365" lon="03.939665"><ele>-7</ele><time>2023-12-06T12:43:44Z</time><name>PT6736</name></trkpt>
<trkpt lat="51.801375" lon="03.939656"><ele>-7</ele><time>2023-12-06T12:43:44Z</time><name>PT6737</name></trkpt>
<trkpt lat="51.801384" lon="03.939645"><ele>-7.2</ele><time>2023-12-06T12:43:46Z</time><name>PT6738</name></trkpt>
<trkpt lat="51.801395" lon="03.939636"><ele>-7.3</ele><time>2023-12-06T12:43:47Z</time><name>PT6739</name></trkpt>
<trkpt lat="51.801404" lon="03.939627"><ele>-7.3</ele><time>2023-12-06T12:43:47Z</time><name>PT6740</name></trkpt>
<trkpt lat="51.801413" lon="03.939619"><ele>-7.4</ele><time>2023-12-06T12:43:49Z</time><name>PT6741</name></trkpt>
<trkpt lat="51.801424" lon="03.939610"><ele>-7.6</ele><time>2023-12-06T12:43:50Z</time><name>PT6742</name></trkpt>
<trkpt lat="51.801435" lon="03.939604"><ele>-7.7</ele><time>2023-12-06T12:43:50Z</time><name>PT6743</name></trkpt>
<trkpt lat="51.801443" lon="03.939596"><ele>-7.7</ele><time>2023-12-06T12:43:52Z</time><name>PT6744</name></trkpt>
<trkpt lat="51.801453" lon="03.939588"><ele>-7.4</ele><time>2023-12-06T12:43:53Z</time><name>PT6745</name></trkpt>
<trkpt lat="51.801460" lon="03.939581"><ele>-7.2</ele><time>2023-12-06T12:43:53Z</time><name>PT6746</name></trkpt>
<trkpt lat="51.801465" lon="03.939581"><ele>-6.7</ele><time>2023-12-06T12:43:55Z</time><name>PT6747</name></trkpt>
<trkpt lat="51.801466" lon="03.939581"><ele>-6.3</ele><time>2023-12-06T12:43:56Z</time><name>PT6748</name></trkpt>
<trkpt lat="51.801470" lon="03.939584"><ele>-6.1</ele><time>2023-12-06T12:43:56Z</time><name>PT6749</name></trkpt>
<trkpt lat="51.801472" lon="03.939586"><ele>-5.8</ele><time>2023-12-06T12:43:58Z</time><name>PT6750</name></trkpt>
<trkpt lat="51.801473" lon="03.939586"><ele>-5.8</ele><time>2023-12-06T12:43:59Z</time><name>PT6751</name></trkpt>
<trkpt lat="51.801475" lon="03.939588"><ele>-5.8</ele><time>2023-12-06T12:43:59Z</time><name>PT6752</name></trkpt>
<trkpt lat="51.801479" lon="03.939590"><ele>-5.8</ele><time>2023-12-06T12:44:01Z</time><name>PT6753</name></trkpt>
<trkpt lat="51.801482" lon="03.939592"><ele>-5.7</ele><time>2023-12-06T12:44:02Z</time><name>PT6754</name></trkpt>
<trkpt lat="51.801484" lon="03.939594"><ele>-5.6</ele><time>2023-12-06T12:44:07Z</time><name>PT6755</name></trkpt>
<trkpt lat="51.801495" lon="03.939585"><ele>-5.7</ele><time>2023-12-06T12:44:08Z</time><name>PT6756</name></trkpt>
<trkpt lat="51.801507" lon="03.939575"><ele>-6</ele><time>2023-12-06T12:44:08Z</time><name>PT6757</name></trkpt>
<trkpt lat="51.801515" lon="03.939562"><ele>-6.2</ele><time>2023-12-06T12:44:10Z</time><name>PT6758</name></trkpt>
<trkpt lat="51.801524" lon="03.939549"><ele>-6.3</ele><time>2023-12-06T12:44:11Z</time><name>PT6759</name></trkpt>
<trkpt lat="51.801532" lon="03.939539"><ele>-6.3</ele><time>2023-12-06T12:44:11Z</time><name>PT6760</name></trkpt>
<trkpt lat="51.801538" lon="03.939528"><ele>-6.1</ele><time>2023-12-06T12:44:13Z</time><name>PT6761</name></trkpt>
<trkpt lat="51.801545" lon="03.939518"><ele>-6</ele><time>2023-12-06T12:44:14Z</time><name>PT6762</name></trkpt>
<trkpt lat="51.801553" lon="03.939511"><ele>-6.1</ele><time>2023-12-06T12:44:14Z</time><name>PT6763</name></trkpt>
<trkpt lat="51.801563" lon="03.939507"><ele>-6.3</ele><time>2023-12-06T12:44:16Z</time><name>PT6764</name></trkpt>
<trkpt lat="51.801570" lon="03.939504"><ele>-6.4</ele><time>2023-12-06T12:44:17Z</time><name>PT6765</name></trkpt>
<trkpt lat="51.801577" lon="03.939496"><ele>-6.4</ele><time>2023-12-06T12:44:17Z</time><name>PT6766</name></trkpt>
<trkpt lat="51.801583" lon="03.939487"><ele>-6.3</ele><time>2023-12-06T12:44:19Z</time><name>PT6767</name></trkpt>
<trkpt lat="51.801591" lon="03.939481"><ele>-6.4</ele><time>2023-12-06T12:44:20Z</time><name>PT6768</name></trkpt>
<trkpt lat="51.801601" lon="03.939476"><ele>-6.6</ele><time>2023-12-06T12:44:20Z</time><name>PT6769</name></trkpt>
<trkpt lat="51.801609" lon="03.939471"><ele>-6.7</ele><time>2023-12-06T12:44:22Z</time><name>PT6770</name></trkpt>
<trkpt lat="51.801618" lon="03.939463"><ele>-6.9</ele><time>2023-12-06T12:44:23Z</time><name>PT6771</name></trkpt>
<trkpt lat="51.801626" lon="03.939458"><ele>-6.9</ele><time>2023-12-06T12:44:23Z</time><name>PT6772</name></trkpt>
<trkpt lat="51.801636" lon="03.939452"><ele>-6.8</ele><time>2023-12-06T12:44:25Z</time><name>PT6773</name></trkpt>
<trkpt lat="51.801641" lon="03.939447"><ele>-6.8</ele><time>2023-12-06T12:44:26Z</time><name>PT6774</name></trkpt>
<trkpt lat="51.801646" lon="03.939440"><ele>-6.8</ele><time>2023-12-06T12:44:26Z</time><name>PT6775</name></trkpt>
<trkpt lat="51.801654" lon="03.939435"><ele>-6.9</ele><time>2023-12-06T12:44:28Z</time><name>PT6776</name></trkpt>
<trkpt lat="51.801665" lon="03.939430"><ele>-6.9</ele><time>2023-12-06T12:44:29Z</time><name>PT6777</name></trkpt>
<trkpt lat="51.801673" lon="03.939424"><ele>-6.9</ele><time>2023-12-06T12:44:29Z</time><name>PT6778</name></trkpt>
<trkpt lat="51.801681" lon="03.939416"><ele>-7.2</ele><time>2023-12-06T12:44:31Z</time><name>PT6779</name></trkpt>
<trkpt lat="51.801690" lon="03.939409"><ele>-7.4</ele><time>2023-12-06T12:44:32Z</time><name>PT6780</name></trkpt>
<trkpt lat="51.801699" lon="03.939404"><ele>-7.7</ele><time>2023-12-06T12:44:32Z</time><name>PT6781</name></trkpt>
<trkpt lat="51.801709" lon="03.939399"><ele>-7.7</ele><time>2023-12-06T12:44:34Z</time><name>PT6782</name></trkpt>
<trkpt lat="51.801716" lon="03.939391"><ele>-7.6</ele><time>2023-12-06T12:44:35Z</time><name>PT6783</name></trkpt>
<trkpt lat="51.801725" lon="03.939382"><ele>-7.5</ele><time>2023-12-06T12:44:35Z</time><name>PT6784</name></trkpt>
<trkpt lat="51.801732" lon="03.939375"><ele>-7.3</ele><time>2023-12-06T12:44:37Z</time><name>PT6785</name></trkpt>
<trkpt lat="51.801739" lon="03.939369"><ele>-7.3</ele><time>2023-12-06T12:44:38Z</time><name>PT6786</name></trkpt>
<trkpt lat="51.801749" lon="03.939363"><ele>-7.3</ele><time>2023-12-06T12:44:38Z</time><name>PT6787</name></trkpt>
<trkpt lat="51.801757" lon="03.939354"><ele>-7.4</ele><time>2023-12-06T12:44:40Z</time><name>PT6788</name></trkpt>
<trkpt lat="51.801765" lon="03.939346"><ele>-7.3</ele><time>2023-12-06T12:44:41Z</time><name>PT6789</name></trkpt>
<trkpt lat="51.801773" lon="03.939338"><ele>-7.5</ele><time>2023-12-06T12:44:41Z</time><name>PT6790</name></trkpt>
<trkpt lat="51.801782" lon="03.939330"><ele>-7.2</ele><time>2023-12-06T12:44:43Z</time><name>PT6791</name></trkpt>
<trkpt lat="51.801794" lon="03.939322"><ele>-7.2</ele><time>2023-12-06T12:44:44Z</time><name>PT6792</name></trkpt>
<trkpt lat="51.801804" lon="03.939314"><ele>-7.2</ele><time>2023-12-06T12:44:44Z</time><name>PT6793</name></trkpt>
<trkpt lat="51.801814" lon="03.939306"><ele>-7.3</ele><time>2023-12-06T12:44:46Z</time><name>PT6794</name></trkpt>
<trkpt lat="51.801823" lon="03.939297"><ele>-7.3</ele><time>2023-12-06T12:44:47Z</time><name>PT6795</name></trkpt>
<trkpt lat="51.801831" lon="03.939289"><ele>-7.3</ele><time>2023-12-06T12:44:47Z</time><name>PT6796</name></trkpt>
<trkpt lat="51.801840" lon="03.939281"><ele>-7.1</ele><time>2023-12-06T12:44:49Z</time><name>PT6797</name></trkpt>
<trkpt lat="51.801852" lon="03.939272"><ele>-7</ele><time>2023-12-06T12:44:50Z</time><name>PT6798</name></trkpt>
<trkpt lat="51.801863" lon="03.939264"><ele>-7</ele><time>2023-12-06T12:44:50Z</time><name>PT6799</name></trkpt>
<trkpt lat="51.801872" lon="03.939257"><ele>-7.1</ele><time>2023-12-06T12:44:52Z</time><name>PT6800</name></trkpt>
<trkpt lat="51.801882" lon="03.939248"><ele>-7.2</ele><time>2023-12-06T12:44:53Z</time><name>PT6801</name></trkpt>
<trkpt lat="51.801890" lon="03.939238"><ele>-7.4</ele><time>2023-12-06T12:44:53Z</time><name>PT6802</name></trkpt>
<trkpt lat="51.801898" lon="03.939229"><ele>-7.4</ele><time>2023-12-06T12:44:55Z</time><name>PT6803</name></trkpt>
<trkpt lat="51.801907" lon="03.939220"><ele>-7.2</ele><time>2023-12-06T12:44:56Z</time><name>PT6804</name></trkpt>
<trkpt lat="51.801917" lon="03.939212"><ele>-7.3</ele><time>2023-12-06T12:44:56Z</time><name>PT6805</name></trkpt>
<trkpt lat="51.801928" lon="03.939204"><ele>-7.2</ele><time>2023-12-06T12:44:58Z</time><name>PT6806</name></trkpt>
<trkpt lat="51.801937" lon="03.939195"><ele>-6.8</ele><time>2023-12-06T12:44:59Z</time><name>PT6807</name></trkpt>
<trkpt lat="51.801950" lon="03.939187"><ele>-6.9</ele><time>2023-12-06T12:44:59Z</time><name>PT6808</name></trkpt>
<trkpt lat="51.801961" lon="03.939177"><ele>-7</ele><time>2023-12-06T12:45:01Z</time><name>PT6809</name></trkpt>
<trkpt lat="51.801971" lon="03.939166"><ele>-7</ele><time>2023-12-06T12:45:02Z</time><name>PT6810</name></trkpt>
<trkpt lat="51.801980" lon="03.939155"><ele>-7.1</ele><time>2023-12-06T12:45:02Z</time><name>PT6811</name></trkpt>
<trkpt lat="51.801990" lon="03.939147"><ele>-7.2</ele><time>2023-12-06T12:45:04Z</time><name>PT6812</name></trkpt>
<trkpt lat="51.802001" lon="03.939141"><ele>-6.9</ele><time>2023-12-06T12:45:05Z</time><name>PT6813</name></trkpt>
<trkpt lat="51.802012" lon="03.939133"><ele>-7</ele><time>2023-12-06T12:45:05Z</time><name>PT6814</name></trkpt>
<trkpt lat="51.802022" lon="03.939124"><ele>-6.9</ele><time>2023-12-06T12:45:07Z</time><name>PT6815</name></trkpt>
<trkpt lat="51.802031" lon="03.939114"><ele>-6.8</ele><time>2023-12-06T12:45:08Z</time><name>PT6816</name></trkpt>
<trkpt lat="51.802041" lon="03.939104"><ele>-6.7</ele><time>2023-12-06T12:45:08Z</time><name>PT6817</name></trkpt>
<trkpt lat="51.802053" lon="03.939093"><ele>-6.8</ele><time>2023-12-06T12:45:10Z</time><name>PT6818</name></trkpt>
<trkpt lat="51.802063" lon="03.939083"><ele>-6.9</ele><time>2023-12-06T12:45:11Z</time><name>PT6819</name></trkpt>
<trkpt lat="51.802072" lon="03.939072"><ele>-6.9</ele><time>2023-12-06T12:45:11Z</time><name>PT6820</name></trkpt>
<trkpt lat="51.802082" lon="03.939063"><ele>-6.9</ele><time>2023-12-06T12:45:13Z</time><name>PT6821</name></trkpt>
<trkpt lat="51.802093" lon="03.939055"><ele>-6.8</ele><time>2023-12-06T12:45:14Z</time><name>PT6822</name></trkpt>
<trkpt lat="51.802104" lon="03.939048"><ele>-6.8</ele><time>2023-12-06T12:45:14Z</time><name>PT6823</name></trkpt>
<trkpt lat="51.802114" lon="03.939040"><ele>-6.9</ele><time>2023-12-06T12:45:16Z</time><name>PT6824</name></trkpt>
<trkpt lat="51.802125" lon="03.939031"><ele>-6.9</ele><time>2023-12-06T12:45:17Z</time><name>PT6825</name></trkpt>
<trkpt lat="51.802135" lon="03.939021"><ele>-6.8</ele><time>2023-12-06T12:45:17Z</time><name>PT6826</name></trkpt>
<trkpt lat="51.802145" lon="03.939012"><ele>-7</ele><time>2023-12-06T12:45:19Z</time><name>PT6827</name></trkpt>
<trkpt lat="51.802154" lon="03.939003"><ele>-6.8</ele><time>2023-12-06T12:45:20Z</time><name>PT6828</name></trkpt>
<trkpt lat="51.802164" lon="03.938993"><ele>-7</ele><time>2023-12-06T12:45:20Z</time><name>PT6829</name></trkpt>
<trkpt lat="51.802176" lon="03.938985"><ele>-7.1</ele><time>2023-12-06T12:45:22Z</time><name>PT6830</name></trkpt>
<trkpt lat="51.802187" lon="03.938977"><ele>-7.1</ele><time>2023-12-06T12:45:23Z</time><name>PT6831</name></trkpt>
<trkpt lat="51.802197" lon="03.938969"><ele>-7.1</ele><time>2023-12-06T12:45:23Z</time><name>PT6832</name></trkpt>
<trkpt lat="51.802207" lon="03.938961"><ele>-7.3</ele><time>2023-12-06T12:45:25Z</time><name>PT6833</name></trkpt>
<trkpt lat="51.802217" lon="03.938952"><ele>-7.2</ele><time>2023-12-06T12:45:26Z</time><name>PT6834</name></trkpt>
<trkpt lat="51.802226" lon="03.938942"><ele>-7.2</ele><time>2023-12-06T12:45:26Z</time><name>PT6835</name></trkpt>
<trkpt lat="51.802236" lon="03.938933"><ele>-7.2</ele><time>2023-12-06T12:45:28Z</time><name>PT6836</name></trkpt>
<trkpt lat="51.802244" lon="03.938923"><ele>-7</ele><time>2023-12-06T12:45:29Z</time><name>PT6837</name></trkpt>
<trkpt lat="51.802254" lon="03.938916"><ele>-7.1</ele><time>2023-12-06T12:45:29Z</time><name>PT6838</name></trkpt>
<trkpt lat="51.802264" lon="03.938908"><ele>-7.3</ele><time>2023-12-06T12:45:31Z</time><name>PT6839</name></trkpt>
<trkpt lat="51.802275" lon="03.938901"><ele>-7.3</ele><time>2023-12-06T12:45:32Z</time><name>PT6840</name></trkpt>
<trkpt lat="51.802284" lon="03.938892"><ele>-7.4</ele><time>2023-12-06T12:45:32Z</time><name>PT6841</name></trkpt>
<trkpt lat="51.802294" lon="03.938884"><ele>-7.5</ele><time>2023-12-06T12:45:34Z</time><name>PT6842</name></trkpt>
<trkpt lat="51.802303" lon="03.938873"><ele>-7.5</ele><time>2023-12-06T12:45:35Z</time><name>PT6843</name></trkpt>
<trkpt lat="51.802313" lon="03.938864"><ele>-7.4</ele><time>2023-12-06T12:45:35Z</time><name>PT6844</name></trkpt>
<trkpt lat="51.802322" lon="03.938854"><ele>-7.2</ele><time>2023-12-06T12:45:37Z</time><name>PT6845</name></trkpt>
<trkpt lat="51.802330" lon="03.938844"><ele>-7</ele><time>2023-12-06T12:45:38Z</time><name>PT6846</name></trkpt>
<trkpt lat="51.802338" lon="03.938835"><ele>-6.9</ele><time>2023-12-06T12:45:38Z</time><name>PT6847</name></trkpt>
<trkpt lat="51.802349" lon="03.938829"><ele>-6.9</ele><time>2023-12-06T12:45:40Z</time><name>PT6848</name></trkpt>
<trkpt lat="51.802359" lon="03.938821"><ele>-7</ele><time>2023-12-06T12:45:41Z</time><name>PT6849</name></trkpt>
<trkpt lat="51.802369" lon="03.938813"><ele>-7.2</ele><time>2023-12-06T12:45:41Z</time><name>PT6850</name></trkpt>
<trkpt lat="51.802379" lon="03.938805"><ele>-7.2</ele><time>2023-12-06T12:45:43Z</time><name>PT6851</name></trkpt>
<trkpt lat="51.802388" lon="03.938796"><ele>-7.3</ele><time>2023-12-06T12:45:44Z</time><name>PT6852</name></trkpt>
<trkpt lat="51.802398" lon="03.938787"><ele>-7.4</ele><time>2023-12-06T12:45:44Z</time><name>PT6853</name></trkpt>
<trkpt lat="51.802407" lon="03.938781"><ele>-7.3</ele><time>2023-12-06T12:45:46Z</time><name>PT6854</name></trkpt>
<trkpt lat="51.802416" lon="03.938771"><ele>-7.3</ele><time>2023-12-06T12:45:47Z</time><name>PT6855</name></trkpt>
<trkpt lat="51.802425" lon="03.938761"><ele>-7.4</ele><time>2023-12-06T12:45:47Z</time><name>PT6856</name></trkpt>
<trkpt lat="51.802434" lon="03.938752"><ele>-7.3</ele><time>2023-12-06T12:45:49Z</time><name>PT6857</name></trkpt>
<trkpt lat="51.802444" lon="03.938745"><ele>-7.4</ele><time>2023-12-06T12:45:50Z</time><name>PT6858</name></trkpt>
<trkpt lat="51.802454" lon="03.938737"><ele>-7.3</ele><time>2023-12-06T12:45:50Z</time><name>PT6859</name></trkpt>
<trkpt lat="51.802465" lon="03.938729"><ele>-7.3</ele><time>2023-12-06T12:45:52Z</time><name>PT6860</name></trkpt>
<trkpt lat="51.802476" lon="03.938721"><ele>-7.1</ele><time>2023-12-06T12:45:53Z</time><name>PT6861</name></trkpt>
<trkpt lat="51.802485" lon="03.938714"><ele>-7.1</ele><time>2023-12-06T12:45:53Z</time><name>PT6862</name></trkpt>
<trkpt lat="51.802492" lon="03.938706"><ele>-6.9</ele><time>2023-12-06T12:45:55Z</time><name>PT6863</name></trkpt>
<trkpt lat="51.802499" lon="03.938698"><ele>-6.7</ele><time>2023-12-06T12:45:56Z</time><name>PT6864</name></trkpt>
<trkpt lat="51.802507" lon="03.938690"><ele>-6.7</ele><time>2023-12-06T12:45:56Z</time><name>PT6865</name></trkpt>
<trkpt lat="51.802518" lon="03.938682"><ele>-6.8</ele><time>2023-12-06T12:45:58Z</time><name>PT6866</name></trkpt>
<trkpt lat="51.802529" lon="03.938675"><ele>-6.7</ele><time>2023-12-06T12:45:59Z</time><name>PT6867</name></trkpt>
<trkpt lat="51.802539" lon="03.938669"><ele>-6.7</ele><time>2023-12-06T12:45:59Z</time><name>PT6868</name></trkpt>
<trkpt lat="51.802549" lon="03.938660"><ele>-6.8</ele><time>2023-12-06T12:46:01Z</time><name>PT6869</name></trkpt>
<trkpt lat="51.802559" lon="03.938651"><ele>-6.8</ele><time>2023-12-06T12:46:02Z</time><name>PT6870</name></trkpt>
<trkpt lat="51.802569" lon="03.938643"><ele>-6.8</ele><time>2023-12-06T12:46:02Z</time><name>PT6871</name></trkpt>
<trkpt lat="51.802579" lon="03.938638"><ele>-6.9</ele><time>2023-12-06T12:46:04Z</time><name>PT6872</name></trkpt>
<trkpt lat="51.802587" lon="03.938632"><ele>-6.7</ele><time>2023-12-06T12:46:05Z</time><name>PT6873</name></trkpt>
<trkpt lat="51.802598" lon="03.938628"><ele>-6.7</ele><time>2023-12-06T12:46:05Z</time><name>PT6874</name></trkpt>
<trkpt lat="51.802608" lon="03.938626"><ele>-6.7</ele><time>2023-12-06T12:46:07Z</time><name>PT6875</name></trkpt>
<trkpt lat="51.802619" lon="03.938623"><ele>-6.7</ele><time>2023-12-06T12:46:08Z</time><name>PT6876</name></trkpt>
<trkpt lat="51.802630" lon="03.938620"><ele>-6.5</ele><time>2023-12-06T12:46:08Z</time><name>PT6877</name></trkpt>
<trkpt lat="51.802640" lon="03.938617"><ele>-6.5</ele><time>2023-12-06T12:46:10Z</time><name>PT6878</name></trkpt>
<trkpt lat="51.802650" lon="03.938616"><ele>-6.3</ele><time>2023-12-06T12:46:11Z</time><name>PT6879</name></trkpt>
<trkpt lat="51.802661" lon="03.938614"><ele>-6.3</ele><time>2023-12-06T12:46:11Z</time><name>PT6880</name></trkpt>
<trkpt lat="51.802670" lon="03.938613"><ele>-6.5</ele><time>2023-12-06T12:46:13Z</time><name>PT6881</name></trkpt>
<trkpt lat="51.802680" lon="03.938612"><ele>-6.7</ele><time>2023-12-06T12:46:14Z</time><name>PT6882</name></trkpt>
<trkpt lat="51.802691" lon="03.938610"><ele>-6.7</ele><time>2023-12-06T12:46:14Z</time><name>PT6883</name></trkpt>
<trkpt lat="51.802702" lon="03.938607"><ele>-6.7</ele><time>2023-12-06T12:46:16Z</time><name>PT6884</name></trkpt>
<trkpt lat="51.802710" lon="03.938602"><ele>-6.7</ele><time>2023-12-06T12:46:17Z</time><name>PT6885</name></trkpt>
<trkpt lat="51.802715" lon="03.938597"><ele>-6.7</ele><time>2023-12-06T12:46:17Z</time><name>PT6886</name></trkpt>
<trkpt lat="51.802717" lon="03.938595"><ele>-6.6</ele><time>2023-12-06T12:46:19Z</time><name>PT6887</name></trkpt>
<trkpt lat="51.802724" lon="03.938596"><ele>-6.6</ele><time>2023-12-06T12:46:20Z</time><name>PT6888</name></trkpt>
<trkpt lat="51.802734" lon="03.938596"><ele>-6.7</ele><time>2023-12-06T12:46:20Z</time><name>PT6889</name></trkpt>
<trkpt lat="51.802744" lon="03.938590"><ele>-6.7</ele><time>2023-12-06T12:46:22Z</time><name>PT6890</name></trkpt>
<trkpt lat="51.802752" lon="03.938583"><ele>-7</ele><time>2023-12-06T12:46:23Z</time><name>PT6891</name></trkpt>
<trkpt lat="51.802759" lon="03.938572"><ele>-7.1</ele><time>2023-12-06T12:46:23Z</time><name>PT6892</name></trkpt>
<trkpt lat="51.802766" lon="03.938558"><ele>-6.8</ele><time>2023-12-06T12:46:25Z</time><name>PT6893</name></trkpt>
<trkpt lat="51.802773" lon="03.938543"><ele>-6.7</ele><time>2023-12-06T12:46:26Z</time><name>PT6894</name></trkpt>
<trkpt lat="51.802783" lon="03.938530"><ele>-6.7</ele><time>2023-12-06T12:46:26Z</time><name>PT6895</name></trkpt>
<trkpt lat="51.802792" lon="03.938517"><ele>-6.8</ele><time>2023-12-06T12:46:28Z</time><name>PT6896</name></trkpt>
<trkpt lat="51.802803" lon="03.938507"><ele>-6.9</ele><time>2023-12-06T12:46:29Z</time><name>PT6897</name></trkpt>
<trkpt lat="51.802815" lon="03.938500"><ele>-6.8</ele><time>2023-12-06T12:46:29Z</time><name>PT6898</name></trkpt>
<trkpt lat="51.802827" lon="03.938494"><ele>-6.7</ele><time>2023-12-06T12:46:31Z</time><name>PT6899</name></trkpt>
<trkpt lat="51.802837" lon="03.938486"><ele>-6.5</ele><time>2023-12-06T12:46:32Z</time><name>PT6900</name></trkpt>
<trkpt lat="51.802848" lon="03.938478"><ele>-6.5</ele><time>2023-12-06T12:46:32Z</time><name>PT6901</name></trkpt>
<trkpt lat="51.802859" lon="03.938469"><ele>-6.8</ele><time>2023-12-06T12:46:34Z</time><name>PT6902</name></trkpt>
<trkpt lat="51.802870" lon="03.938460"><ele>-6.8</ele><time>2023-12-06T12:46:35Z</time><name>PT6903</name></trkpt>
<trkpt lat="51.802880" lon="03.938451"><ele>-6.9</ele><time>2023-12-06T12:46:35Z</time><name>PT6904</name></trkpt>
<trkpt lat="51.802891" lon="03.938443"><ele>-6.9</ele><time>2023-12-06T12:46:37Z</time><name>PT6905</name></trkpt>
<trkpt lat="51.802902" lon="03.938436"><ele>-6.7</ele><time>2023-12-06T12:46:38Z</time><name>PT6906</name></trkpt>
<trkpt lat="51.802913" lon="03.938430"><ele>-6.7</ele><time>2023-12-06T12:46:38Z</time><name>PT6907</name></trkpt>
<trkpt lat="51.802922" lon="03.938425"><ele>-6.7</ele><time>2023-12-06T12:46:40Z</time><name>PT6908</name></trkpt>
<trkpt lat="51.802932" lon="03.938419"><ele>-6.7</ele><time>2023-12-06T12:46:41Z</time><name>PT6909</name></trkpt>
<trkpt lat="51.802943" lon="03.938414"><ele>-6.7</ele><time>2023-12-06T12:46:41Z</time><name>PT6910</name></trkpt>
<trkpt lat="51.802954" lon="03.938411"><ele>-6.9</ele><time>2023-12-06T12:46:43Z</time><name>PT6911</name></trkpt>
<trkpt lat="51.802965" lon="03.938409"><ele>-7</ele><time>2023-12-06T12:46:44Z</time><name>PT6912</name></trkpt>
<trkpt lat="51.802978" lon="03.938406"><ele>-7.1</ele><time>2023-12-06T12:46:44Z</time><name>PT6913</name></trkpt>
<trkpt lat="51.802990" lon="03.938400"><ele>-7.1</ele><time>2023-12-06T12:46:46Z</time><name>PT6914</name></trkpt>
<trkpt lat="51.803000" lon="03.938394"><ele>-6.9</ele><time>2023-12-06T12:46:47Z</time><name>PT6915</name></trkpt>
<trkpt lat="51.803012" lon="03.938387"><ele>-6.8</ele><time>2023-12-06T12:46:47Z</time><name>PT6916</name></trkpt>
<trkpt lat="51.803024" lon="03.938380"><ele>-6.8</ele><time>2023-12-06T12:46:49Z</time><name>PT6917</name></trkpt>
<trkpt lat="51.803034" lon="03.938373"><ele>-6.7</ele><time>2023-12-06T12:46:50Z</time><name>PT6918</name></trkpt>
<trkpt lat="51.803045" lon="03.938366"><ele>-6.7</ele><time>2023-12-06T12:46:50Z</time><name>PT6919</name></trkpt>
<trkpt lat="51.803058" lon="03.938357"><ele>-6.7</ele><time>2023-12-06T12:46:52Z</time><name>PT6920</name></trkpt>
<trkpt lat="51.803069" lon="03.938349"><ele>-6.7</ele><time>2023-12-06T12:46:53Z</time><name>PT6921</name></trkpt>
<trkpt lat="51.803080" lon="03.938340"><ele>-6.9</ele><time>2023-12-06T12:46:53Z</time><name>PT6922</name></trkpt>
<trkpt lat="51.803090" lon="03.938333"><ele>-6.8</ele><time>2023-12-06T12:46:55Z</time><name>PT6923</name></trkpt>
<trkpt lat="51.803100" lon="03.938327"><ele>-6.5</ele><time>2023-12-06T12:46:56Z</time><name>PT6924</name></trkpt>
<trkpt lat="51.803112" lon="03.938323"><ele>-6.3</ele><time>2023-12-06T12:46:56Z</time><name>PT6925</name></trkpt>
<trkpt lat="51.803123" lon="03.938316"><ele>-6.1</ele><time>2023-12-06T12:46:58Z</time><name>PT6926</name></trkpt>
<trkpt lat="51.803136" lon="03.938308"><ele>-5.9</ele><time>2023-12-06T12:46:59Z</time><name>PT6927</name></trkpt>
<trkpt lat="51.803147" lon="03.938300"><ele>-6.1</ele><time>2023-12-06T12:46:59Z</time><name>PT6928</name></trkpt>
<trkpt lat="51.803157" lon="03.938293"><ele>-6</ele><time>2023-12-06T12:47:01Z</time><name>PT6929</name></trkpt>
<trkpt lat="51.803167" lon="03.938285"><ele>-6.1</ele><time>2023-12-06T12:47:02Z</time><name>PT6930</name></trkpt>
<trkpt lat="51.803178" lon="03.938276"><ele>-6</ele><time>2023-12-06T12:47:02Z</time><name>PT6931</name></trkpt>
<trkpt lat="51.803189" lon="03.938267"><ele>-6.1</ele><time>2023-12-06T12:47:04Z</time><name>PT6932</name></trkpt>
<trkpt lat="51.803199" lon="03.938258"><ele>-6.3</ele><time>2023-12-06T12:47:05Z</time><name>PT6933</name></trkpt>
<trkpt lat="51.803207" lon="03.938252"><ele>-6.1</ele><time>2023-12-06T12:47:05Z</time><name>PT6934</name></trkpt>
<trkpt lat="51.803212" lon="03.938250"><ele>-5.9</ele><time>2023-12-06T12:47:07Z</time><name>PT6935</name></trkpt>
<trkpt lat="51.803216" lon="03.938245"><ele>-5.8</ele><time>2023-12-06T12:47:08Z</time><name>PT6936</name></trkpt>
<trkpt lat="51.803218" lon="03.938245"><ele>-5.7</ele><time>2023-12-06T12:47:08Z</time><name>PT6937</name></trkpt>
<trkpt lat="51.803221" lon="03.938244"><ele>-5.5</ele><time>2023-12-06T12:47:10Z</time><name>PT6938</name></trkpt>
<trkpt lat="51.803226" lon="03.938240"><ele>-5.4</ele><time>2023-12-06T12:47:11Z</time><name>PT6939</name></trkpt>
<trkpt lat="51.803230" lon="03.938241"><ele>-5.3</ele><time>2023-12-06T12:47:11Z</time><name>PT6940</name></trkpt>
<trkpt lat="51.803231" lon="03.938241"><ele>-5.3</ele><time>2023-12-06T12:47:13Z</time><name>PT6941</name></trkpt>
<trkpt lat="51.803232" lon="03.938241"><ele>-5.4</ele><time>2023-12-06T12:47:14Z</time><name>PT6942</name></trkpt>
<trkpt lat="51.803233" lon="03.938242"><ele>-5.5</ele><time>2023-12-06T12:47:14Z</time><name>PT6943</name></trkpt>
<trkpt lat="51.803234" lon="03.938240"><ele>-5.8</ele><time>2023-12-06T12:47:17Z</time><name>PT6944</name></trkpt>
<trkpt lat="51.803243" lon="03.938230"><ele>-5.9</ele><time>2023-12-06T12:47:17Z</time><name>PT6945</name></trkpt>
<trkpt lat="51.803252" lon="03.938227"><ele>-6.3</ele><time>2023-12-06T12:47:19Z</time><name>PT6946</name></trkpt>
<trkpt lat="51.803257" lon="03.938224"><ele>-6</ele><time>2023-12-06T12:47:20Z</time><name>PT6947</name></trkpt>
<trkpt lat="51.803259" lon="03.938224"><ele>-5.8</ele><time>2023-12-06T12:47:20Z</time><name>PT6948</name></trkpt>
<trkpt lat="51.803261" lon="03.938225"><ele>-5.6</ele><time>2023-12-06T12:47:22Z</time><name>PT6949</name></trkpt>
<trkpt lat="51.803264" lon="03.938225"><ele>-5.3</ele><time>2023-12-06T12:47:23Z</time><name>PT6950</name></trkpt>
<trkpt lat="51.803271" lon="03.938221"><ele>-5.3</ele><time>2023-12-06T12:47:23Z</time><name>PT6951</name></trkpt>
<trkpt lat="51.803279" lon="03.938210"><ele>-5.4</ele><time>2023-12-06T12:47:25Z</time><name>PT6952</name></trkpt>
<trkpt lat="51.803288" lon="03.938198"><ele>-5.7</ele><time>2023-12-06T12:47:26Z</time><name>PT6953</name></trkpt>
<trkpt lat="51.803296" lon="03.938187"><ele>-5.8</ele><time>2023-12-06T12:47:26Z</time><name>PT6954</name></trkpt>
<trkpt lat="51.803306" lon="03.938177"><ele>-6.3</ele><time>2023-12-06T12:47:28Z</time><name>PT6955</name></trkpt>
<trkpt lat="51.803317" lon="03.938168"><ele>-6.3</ele><time>2023-12-06T12:47:29Z</time><name>PT6956</name></trkpt>
<trkpt lat="51.803328" lon="03.938158"><ele>-6.4</ele><time>2023-12-06T12:47:29Z</time><name>PT6957</name></trkpt>
<trkpt lat="51.803339" lon="03.938147"><ele>-6.5</ele><time>2023-12-06T12:47:31Z</time><name>PT6958</name></trkpt>
<trkpt lat="51.803349" lon="03.938137"><ele>-6.7</ele><time>2023-12-06T12:47:32Z</time><name>PT6959</name></trkpt>
<trkpt lat="51.803361" lon="03.938132"><ele>-6.7</ele><time>2023-12-06T12:47:32Z</time><name>PT6960</name></trkpt>
<trkpt lat="51.803373" lon="03.938126"><ele>-6.9</ele><time>2023-12-06T12:47:34Z</time><name>PT6961</name></trkpt>
<trkpt lat="51.803384" lon="03.938115"><ele>-7.2</ele><time>2023-12-06T12:47:35Z</time><name>PT6962</name></trkpt>
<trkpt lat="51.803395" lon="03.938106"><ele>-7.2</ele><time>2023-12-06T12:47:35Z</time><name>PT6963</name></trkpt>
<trkpt lat="51.803405" lon="03.938096"><ele>-7.3</ele><time>2023-12-06T12:47:37Z</time><name>PT6964</name></trkpt>
<trkpt lat="51.803415" lon="03.938089"><ele>-7.2</ele><time>2023-12-06T12:47:38Z</time><name>PT6965</name></trkpt>
<trkpt lat="51.803426" lon="03.938081"><ele>-7.1</ele><time>2023-12-06T12:47:38Z</time><name>PT6966</name></trkpt>
<trkpt lat="51.803435" lon="03.938073"><ele>-6.8</ele><time>2023-12-06T12:47:40Z</time><name>PT6967</name></trkpt>
<trkpt lat="51.803444" lon="03.938065"><ele>-6.6</ele><time>2023-12-06T12:47:41Z</time><name>PT6968</name></trkpt>
<trkpt lat="51.803455" lon="03.938059"><ele>-6.4</ele><time>2023-12-06T12:47:41Z</time><name>PT6969</name></trkpt>
<trkpt lat="51.803466" lon="03.938051"><ele>-6.5</ele><time>2023-12-06T12:47:43Z</time><name>PT6970</name></trkpt>
<trkpt lat="51.803476" lon="03.938044"><ele>-6.5</ele><time>2023-12-06T12:47:44Z</time><name>PT6971</name></trkpt>
<trkpt lat="51.803487" lon="03.938039"><ele>-6.4</ele><time>2023-12-06T12:47:44Z</time><name>PT6972</name></trkpt>
<trkpt lat="51.803498" lon="03.938035"><ele>-6.4</ele><time>2023-12-06T12:47:46Z</time><name>PT6973</name></trkpt>
<trkpt lat="51.803509" lon="03.938031"><ele>-6.4</ele><time>2023-12-06T12:47:47Z</time><name>PT6974</name></trkpt>
<trkpt lat="51.803520" lon="03.938028"><ele>-6.3</ele><time>2023-12-06T12:47:47Z</time><name>PT6975</name></trkpt>
<trkpt lat="51.803531" lon="03.938026"><ele>-6.2</ele><time>2023-12-06T12:47:49Z</time><name>PT6976</name></trkpt>
<trkpt lat="51.803543" lon="03.938025"><ele>-6.1</ele><time>2023-12-06T12:47:50Z</time><name>PT6977</name></trkpt>
<trkpt lat="51.803554" lon="03.938021"><ele>-6.1</ele><time>2023-12-06T12:47:50Z</time><name>PT6978</name></trkpt>
<trkpt lat="51.803563" lon="03.938012"><ele>-6.1</ele><time>2023-12-06T12:47:52Z</time><name>PT6979</name></trkpt>
<trkpt lat="51.803573" lon="03.938002"><ele>-6.1</ele><time>2023-12-06T12:47:53Z</time><name>PT6980</name></trkpt>
<trkpt lat="51.803583" lon="03.937993"><ele>-5.8</ele><time>2023-12-06T12:47:53Z</time><name>PT6981</name></trkpt>
<trkpt lat="51.803593" lon="03.937989"><ele>-5.9</ele><time>2023-12-06T12:47:55Z</time><name>PT6982</name></trkpt>
<trkpt lat="51.803604" lon="03.937986"><ele>-5.8</ele><time>2023-12-06T12:47:56Z</time><name>PT6983</name></trkpt>
<trkpt lat="51.803615" lon="03.937983"><ele>-5.8</ele><time>2023-12-06T12:47:56Z</time><name>PT6984</name></trkpt>
<trkpt lat="51.803628" lon="03.937981"><ele>-6.1</ele><time>2023-12-06T12:47:58Z</time><name>PT6985</name></trkpt>
<trkpt lat="51.803639" lon="03.937976"><ele>-6.4</ele><time>2023-12-06T12:47:59Z</time><name>PT6986</name></trkpt>
<trkpt lat="51.803648" lon="03.937970"><ele>-6.5</ele><time>2023-12-06T12:47:59Z</time><name>PT6987</name></trkpt>
<trkpt lat="51.803658" lon="03.937966"><ele>-6.7</ele><time>2023-12-06T12:48:01Z</time><name>PT6988</name></trkpt>
<trkpt lat="51.803670" lon="03.937964"><ele>-6.3</ele><time>2023-12-06T12:48:02Z</time><name>PT6989</name></trkpt>
<trkpt lat="51.803680" lon="03.937960"><ele>-6.2</ele><time>2023-12-06T12:48:02Z</time><name>PT6990</name></trkpt>
<trkpt lat="51.803692" lon="03.937956"><ele>-6.1</ele><time>2023-12-06T12:48:04Z</time><name>PT6991</name></trkpt>
<trkpt lat="51.803703" lon="03.937952"><ele>-6</ele><time>2023-12-06T12:48:05Z</time><name>PT6992</name></trkpt>
<trkpt lat="51.803714" lon="03.937948"><ele>-6.1</ele><time>2023-12-06T12:48:05Z</time><name>PT6993</name></trkpt>
<trkpt lat="51.803726" lon="03.937942"><ele>-6.2</ele><time>2023-12-06T12:48:07Z</time><name>PT6994</name></trkpt>
<trkpt lat="51.803737" lon="03.937937"><ele>-6.3</ele><time>2023-12-06T12:48:08Z</time><name>PT6995</name></trkpt>
<trkpt lat="51.803749" lon="03.937932"><ele>-6.3</ele><time>2023-12-06T12:48:08Z</time><name>PT6996</name></trkpt>
<trkpt lat="51.803760" lon="03.937928"><ele>-6.4</ele><time>2023-12-06T12:48:10Z</time><name>PT6997</name></trkpt>
<trkpt lat="51.803772" lon="03.937925"><ele>-6.6</ele><time>2023-12-06T12:48:11Z</time><name>PT6998</name></trkpt>
<trkpt lat="51.803783" lon="03.937923"><ele>-6.7</ele><time>2023-12-06T12:48:11Z</time><name>PT6999</name></trkpt>
<trkpt lat="51.803794" lon="03.937920"><ele>-6.9</ele><time>2023-12-06T12:48:13Z</time><name>PT7000</name></trkpt>
<trkpt lat="51.803805" lon="03.937916"><ele>-7.2</ele><time>2023-12-06T12:48:14Z</time><name>PT7001</name></trkpt>
<trkpt lat="51.803816" lon="03.937913"><ele>-7.2</ele><time>2023-12-06T12:48:14Z</time><name>PT7002</name></trkpt>
<trkpt lat="51.803827" lon="03.937911"><ele>-7.2</ele><time>2023-12-06T12:48:16Z</time><name>PT7003</name></trkpt>
<trkpt lat="51.803838" lon="03.937910"><ele>-7.4</ele><time>2023-12-06T12:48:17Z</time><name>PT7004</name></trkpt>
<trkpt lat="51.803850" lon="03.937909"><ele>-7.4</ele><time>2023-12-06T12:48:17Z</time><name>PT7005</name></trkpt>
<trkpt lat="51.803861" lon="03.937906"><ele>-7.4</ele><time>2023-12-06T12:48:19Z</time><name>PT7006</name></trkpt>
<trkpt lat="51.803871" lon="03.937902"><ele>-7.2</ele><time>2023-12-06T12:48:20Z</time><name>PT7007</name></trkpt>
<trkpt lat="51.803881" lon="03.937902"><ele>-7.1</ele><time>2023-12-06T12:48:20Z</time><name>PT7008</name></trkpt>
<trkpt lat="51.803891" lon="03.937905"><ele>-6.8</ele><time>2023-12-06T12:48:22Z</time><name>PT7009</name></trkpt>
<trkpt lat="51.803902" lon="03.937907"><ele>-6.5</ele><time>2023-12-06T12:48:23Z</time><name>PT7010</name></trkpt>
<trkpt lat="51.803913" lon="03.937911"><ele>-6.5</ele><time>2023-12-06T12:48:23Z</time><name>PT7011</name></trkpt>
<trkpt lat="51.803925" lon="03.937917"><ele>-6.5</ele><time>2023-12-06T12:48:25Z</time><name>PT7012</name></trkpt>
<trkpt lat="51.803937" lon="03.937921"><ele>-6.3</ele><time>2023-12-06T12:48:26Z</time><name>PT7013</name></trkpt>
<trkpt lat="51.803948" lon="03.937924"><ele>-6.4</ele><time>2023-12-06T12:48:26Z</time><name>PT7014</name></trkpt>
<trkpt lat="51.803960" lon="03.937926"><ele>-6.6</ele><time>2023-12-06T12:48:28Z</time><name>PT7015</name></trkpt>
<trkpt lat="51.803971" lon="03.937927"><ele>-6.6</ele><time>2023-12-06T12:48:29Z</time><name>PT7016</name></trkpt>
<trkpt lat="51.803981" lon="03.937929"><ele>-6.7</ele><time>2023-12-06T12:48:29Z</time><name>PT7017</name></trkpt>
<trkpt lat="51.803992" lon="03.937933"><ele>-6.5</ele><time>2023-12-06T12:48:31Z</time><name>PT7018</name></trkpt>
<trkpt lat="51.804002" lon="03.937932"><ele>-6.4</ele><time>2023-12-06T12:48:32Z</time><name>PT7019</name></trkpt>
<trkpt lat="51.804011" lon="03.937930"><ele>-6.4</ele><time>2023-12-06T12:48:32Z</time><name>PT7020</name></trkpt>
<trkpt lat="51.804022" lon="03.937931"><ele>-6.3</ele><time>2023-12-06T12:48:34Z</time><name>PT7021</name></trkpt>
<trkpt lat="51.804034" lon="03.937933"><ele>-6.3</ele><time>2023-12-06T12:48:35Z</time><name>PT7022</name></trkpt>
<trkpt lat="51.804046" lon="03.937934"><ele>-6.3</ele><time>2023-12-06T12:48:35Z</time><name>PT7023</name></trkpt>
<trkpt lat="51.804057" lon="03.937935"><ele>-6.5</ele><time>2023-12-06T12:48:37Z</time><name>PT7024</name></trkpt>
<trkpt lat="51.804068" lon="03.937935"><ele>-6.5</ele><time>2023-12-06T12:48:38Z</time><name>PT7025</name></trkpt>
<trkpt lat="51.804080" lon="03.937936"><ele>-6.7</ele><time>2023-12-06T12:48:38Z</time><name>PT7026</name></trkpt>
<trkpt lat="51.804092" lon="03.937937"><ele>-6.7</ele><time>2023-12-06T12:48:40Z</time><name>PT7027</name></trkpt>
<trkpt lat="51.804104" lon="03.937938"><ele>-6.7</ele><time>2023-12-06T12:48:41Z</time><name>PT7028</name></trkpt>
<trkpt lat="51.804116" lon="03.937939"><ele>-6.7</ele><time>2023-12-06T12:48:41Z</time><name>PT7029</name></trkpt>
<trkpt lat="51.804128" lon="03.937941"><ele>-6.8</ele><time>2023-12-06T12:48:43Z</time><name>PT7030</name></trkpt>
<trkpt lat="51.804139" lon="03.937943"><ele>-6.7</ele><time>2023-12-06T12:48:44Z</time><name>PT7031</name></trkpt>
<trkpt lat="51.804151" lon="03.937944"><ele>-6.7</ele><time>2023-12-06T12:48:44Z</time><name>PT7032</name></trkpt>
<trkpt lat="51.804162" lon="03.937943"><ele>-6.7</ele><time>2023-12-06T12:48:46Z</time><name>PT7033</name></trkpt>
<trkpt lat="51.804173" lon="03.937941"><ele>-6.6</ele><time>2023-12-06T12:48:47Z</time><name>PT7034</name></trkpt>
<trkpt lat="51.804183" lon="03.937940"><ele>-6.6</ele><time>2023-12-06T12:48:47Z</time><name>PT7035</name></trkpt>
<trkpt lat="51.804192" lon="03.937941"><ele>-6.6</ele><time>2023-12-06T12:48:49Z</time><name>PT7036</name></trkpt>
<trkpt lat="51.804203" lon="03.937941"><ele>-6.6</ele><time>2023-12-06T12:48:50Z</time><name>PT7037</name></trkpt>
<trkpt lat="51.804214" lon="03.937940"><ele>-6.6</ele><time>2023-12-06T12:48:50Z</time><name>PT7038</name></trkpt>
<trkpt lat="51.804226" lon="03.937941"><ele>-6.7</ele><time>2023-12-06T12:48:52Z</time><name>PT7039</name></trkpt>
<trkpt lat="51.804238" lon="03.937943"><ele>-6.8</ele><time>2023-12-06T12:48:53Z</time><name>PT7040</name></trkpt>
<trkpt lat="51.804250" lon="03.937944"><ele>-6.7</ele><time>2023-12-06T12:48:53Z</time><name>PT7041</name></trkpt>
<trkpt lat="51.804262" lon="03.937942"><ele>-6.7</ele><time>2023-12-06T12:48:55Z</time><name>PT7042</name></trkpt>
<trkpt lat="51.804274" lon="03.937942"><ele>-6.7</ele><time>2023-12-06T12:48:56Z</time><name>PT7043</name></trkpt>
<trkpt lat="51.804285" lon="03.937941"><ele>-6.7</ele><time>2023-12-06T12:48:56Z</time><name>PT7044</name></trkpt>
<trkpt lat="51.804297" lon="03.937939"><ele>-6.9</ele><time>2023-12-06T12:48:58Z</time><name>PT7045</name></trkpt>
<trkpt lat="51.804308" lon="03.937937"><ele>-6.9</ele><time>2023-12-06T12:48:59Z</time><name>PT7046</name></trkpt>
<trkpt lat="51.804318" lon="03.937935"><ele>-6.7</ele><time>2023-12-06T12:48:59Z</time><name>PT7047</name></trkpt>
<trkpt lat="51.804328" lon="03.937934"><ele>-6.7</ele><time>2023-12-06T12:49:01Z</time><name>PT7048</name></trkpt>
<trkpt lat="51.804338" lon="03.937933"><ele>-6.6</ele><time>2023-12-06T12:49:02Z</time><name>PT7049</name></trkpt>
<trkpt lat="51.804349" lon="03.937935"><ele>-6.4</ele><time>2023-12-06T12:49:02Z</time><name>PT7050</name></trkpt>
<trkpt lat="51.804361" lon="03.937936"><ele>-6.3</ele><time>2023-12-06T12:49:04Z</time><name>PT7051</name></trkpt>
<trkpt lat="51.804373" lon="03.937934"><ele>-6.3</ele><time>2023-12-06T12:49:05Z</time><name>PT7052</name></trkpt>
<trkpt lat="51.804384" lon="03.937932"><ele>-6.2</ele><time>2023-12-06T12:49:05Z</time><name>PT7053</name></trkpt>
<trkpt lat="51.804396" lon="03.937929"><ele>-6.4</ele><time>2023-12-06T12:49:07Z</time><name>PT7054</name></trkpt>
<trkpt lat="51.804408" lon="03.937928"><ele>-6.4</ele><time>2023-12-06T12:49:08Z</time><name>PT7055</name></trkpt>
<trkpt lat="51.804420" lon="03.937925"><ele>-6.3</ele><time>2023-12-06T12:49:08Z</time><name>PT7056</name></trkpt>
<trkpt lat="51.804431" lon="03.937921"><ele>-6.6</ele><time>2023-12-06T12:49:10Z</time><name>PT7057</name></trkpt>
<trkpt lat="51.804442" lon="03.937919"><ele>-6.3</ele><time>2023-12-06T12:49:11Z</time><name>PT7058</name></trkpt>
<trkpt lat="51.804454" lon="03.937915"><ele>-6.3</ele><time>2023-12-06T12:49:11Z</time><name>PT7059</name></trkpt>
<trkpt lat="51.804464" lon="03.937913"><ele>-6.5</ele><time>2023-12-06T12:49:13Z</time><name>PT7060</name></trkpt>
<trkpt lat="51.804476" lon="03.937913"><ele>-6.6</ele><time>2023-12-06T12:49:14Z</time><name>PT7061</name></trkpt>
<trkpt lat="51.804486" lon="03.937914"><ele>-6.5</ele><time>2023-12-06T12:49:14Z</time><name>PT7062</name></trkpt>
<trkpt lat="51.804497" lon="03.937913"><ele>-6.6</ele><time>2023-12-06T12:49:16Z</time><name>PT7063</name></trkpt>
<trkpt lat="51.804509" lon="03.937910"><ele>-6.3</ele><time>2023-12-06T12:49:17Z</time><name>PT7064</name></trkpt>
<trkpt lat="51.804521" lon="03.937907"><ele>-6.3</ele><time>2023-12-06T12:49:17Z</time><name>PT7065</name></trkpt>
<trkpt lat="51.804533" lon="03.937904"><ele>-6.3</ele><time>2023-12-06T12:49:19Z</time><name>PT7066</name></trkpt>
<trkpt lat="51.804545" lon="03.937901"><ele>-6.4</ele><time>2023-12-06T12:49:20Z</time><name>PT7067</name></trkpt>
<trkpt lat="51.804556" lon="03.937899"><ele>-6.5</ele><time>2023-12-06T12:49:20Z</time><name>PT7068</name></trkpt>
<trkpt lat="51.804568" lon="03.937899"><ele>-6.4</ele><time>2023-12-06T12:49:22Z</time><name>PT7069</name></trkpt>
<trkpt lat="51.804580" lon="03.937900"><ele>-6.3</ele><time>2023-12-06T12:49:23Z</time><name>PT7070</name></trkpt>
<trkpt lat="51.804593" lon="03.937899"><ele>-6.2</ele><time>2023-12-06T12:49:23Z</time><name>PT7071</name></trkpt>
<trkpt lat="51.804607" lon="03.937899"><ele>-6.2</ele><time>2023-12-06T12:49:25Z</time><name>PT7072</name></trkpt>
<trkpt lat="51.804618" lon="03.937898"><ele>-6.3</ele><time>2023-12-06T12:49:26Z</time><name>PT7073</name></trkpt>
<trkpt lat="51.804630" lon="03.937898"><ele>-6.3</ele><time>2023-12-06T12:49:26Z</time><name>PT7074</name></trkpt>
<trkpt lat="51.804642" lon="03.937899"><ele>-6.6</ele><time>2023-12-06T12:49:28Z</time><name>PT7075</name></trkpt>
<trkpt lat="51.804653" lon="03.937900"><ele>-6.7</ele><time>2023-12-06T12:49:29Z</time><name>PT7076</name></trkpt>
<trkpt lat="51.804666" lon="03.937898"><ele>-6.7</ele><time>2023-12-06T12:49:29Z</time><name>PT7077</name></trkpt>
<trkpt lat="51.804679" lon="03.937895"><ele>-6.8</ele><time>2023-12-06T12:49:31Z</time><name>PT7078</name></trkpt>
<trkpt lat="51.804692" lon="03.937895"><ele>-6.6</ele><time>2023-12-06T12:49:32Z</time><name>PT7079</name></trkpt>
<trkpt lat="51.804702" lon="03.937896"><ele>-6.6</ele><time>2023-12-06T12:49:32Z</time><name>PT7080</name></trkpt>
<trkpt lat="51.804714" lon="03.937895"><ele>-6.4</ele><time>2023-12-06T12:49:34Z</time><name>PT7081</name></trkpt>
<trkpt lat="51.804724" lon="03.937895"><ele>-6.5</ele><time>2023-12-06T12:49:35Z</time><name>PT7082</name></trkpt>
<trkpt lat="51.804736" lon="03.937896"><ele>-6.4</ele><time>2023-12-06T12:49:35Z</time><name>PT7083</name></trkpt>
<trkpt lat="51.804747" lon="03.937896"><ele>-6.3</ele><time>2023-12-06T12:49:37Z</time><name>PT7084</name></trkpt>
<trkpt lat="51.804758" lon="03.937893"><ele>-6.4</ele><time>2023-12-06T12:49:38Z</time><name>PT7085</name></trkpt>
<trkpt lat="51.804769" lon="03.937895"><ele>-6.3</ele><time>2023-12-06T12:49:38Z</time><name>PT7086</name></trkpt>
<trkpt lat="51.804780" lon="03.937893"><ele>-6.4</ele><time>2023-12-06T12:49:40Z</time><name>PT7087</name></trkpt>
<trkpt lat="51.804791" lon="03.937895"><ele>-6.6</ele><time>2023-12-06T12:49:41Z</time><name>PT7088</name></trkpt>
<trkpt lat="51.804801" lon="03.937898"><ele>-6.7</ele><time>2023-12-06T12:49:41Z</time><name>PT7089</name></trkpt>
<trkpt lat="51.804814" lon="03.937899"><ele>-6.7</ele><time>2023-12-06T12:49:43Z</time><name>PT7090</name></trkpt>
<trkpt lat="51.804827" lon="03.937899"><ele>-6.8</ele><time>2023-12-06T12:49:44Z</time><name>PT7091</name></trkpt>
<trkpt lat="51.804838" lon="03.937898"><ele>-6.9</ele><time>2023-12-06T12:49:44Z</time><name>PT7092</name></trkpt>
<trkpt lat="51.804850" lon="03.937900"><ele>-6.7</ele><time>2023-12-06T12:49:46Z</time><name>PT7093</name></trkpt>
<trkpt lat="51.804861" lon="03.937905"><ele>-6.7</ele><time>2023-12-06T12:49:47Z</time><name>PT7094</name></trkpt>
<trkpt lat="51.804872" lon="03.937909"><ele>-6.6</ele><time>2023-12-06T12:49:47Z</time><name>PT7095</name></trkpt>
<trkpt lat="51.804881" lon="03.937910"><ele>-6.4</ele><time>2023-12-06T12:49:49Z</time><name>PT7096</name></trkpt>
<trkpt lat="51.804892" lon="03.937907"><ele>-6.4</ele><time>2023-12-06T12:49:50Z</time><name>PT7097</name></trkpt>
<trkpt lat="51.804903" lon="03.937905"><ele>-6.4</ele><time>2023-12-06T12:49:50Z</time><name>PT7098</name></trkpt>
<trkpt lat="51.804914" lon="03.937902"><ele>-6.4</ele><time>2023-12-06T12:49:52Z</time><name>PT7099</name></trkpt>
<trkpt lat="51.804924" lon="03.937898"><ele>-6.6</ele><time>2023-12-06T12:49:53Z</time><name>PT7100</name></trkpt>
<trkpt lat="51.804934" lon="03.937897"><ele>-6.7</ele><time>2023-12-06T12:49:53Z</time><name>PT7101</name></trkpt>
<trkpt lat="51.804945" lon="03.937898"><ele>-6.5</ele><time>2023-12-06T12:49:55Z</time><name>PT7102</name></trkpt>
<trkpt lat="51.804956" lon="03.937900"><ele>-6.7</ele><time>2023-12-06T12:49:56Z</time><name>PT7103</name></trkpt>
<trkpt lat="51.804967" lon="03.937903"><ele>-6.7</ele><time>2023-12-06T12:49:56Z</time><name>PT7104</name></trkpt>
<trkpt lat="51.804978" lon="03.937907"><ele>-6.7</ele><time>2023-12-06T12:49:58Z</time><name>PT7105</name></trkpt>
<trkpt lat="51.804988" lon="03.937907"><ele>-6.5</ele><time>2023-12-06T12:49:59Z</time><name>PT7106</name></trkpt>
<trkpt lat="51.804999" lon="03.937906"><ele>-6.6</ele><time>2023-12-06T12:49:59Z</time><name>PT7107</name></trkpt>
<trkpt lat="51.805009" lon="03.937905"><ele>-6.6</ele><time>2023-12-06T12:50:01Z</time><name>PT7108</name></trkpt>
<trkpt lat="51.805020" lon="03.937903"><ele>-6.6</ele><time>2023-12-06T12:50:02Z</time><name>PT7109</name></trkpt>
<trkpt lat="51.805030" lon="03.937901"><ele>-6.7</ele><time>2023-12-06T12:50:02Z</time><name>PT7110</name></trkpt>
<trkpt lat="51.805041" lon="03.937897"><ele>-6.8</ele><time>2023-12-06T12:50:04Z</time><name>PT7111</name></trkpt>
<trkpt lat="51.805052" lon="03.937893"><ele>-6.7</ele><time>2023-12-06T12:50:05Z</time><name>PT7112</name></trkpt>
<trkpt lat="51.805063" lon="03.937889"><ele>-6.7</ele><time>2023-12-06T12:50:05Z</time><name>PT7113</name></trkpt>
<trkpt lat="51.805075" lon="03.937885"><ele>-6.6</ele><time>2023-12-06T12:50:07Z</time><name>PT7114</name></trkpt>
<trkpt lat="51.805086" lon="03.937881"><ele>-6.7</ele><time>2023-12-06T12:50:08Z</time><name>PT7115</name></trkpt>
<trkpt lat="51.805096" lon="03.937879"><ele>-6.7</ele><time>2023-12-06T12:50:08Z</time><name>PT7116</name></trkpt>
<trkpt lat="51.805108" lon="03.937876"><ele>-6.7</ele><time>2023-12-06T12:50:10Z</time><name>PT7117</name></trkpt>
<trkpt lat="51.805120" lon="03.937874"><ele>-6.3</ele><time>2023-12-06T12:50:11Z</time><name>PT7118</name></trkpt>
<trkpt lat="51.805131" lon="03.937868"><ele>-6.2</ele><time>2023-12-06T12:50:11Z</time><name>PT7119</name></trkpt>
<trkpt lat="51.805141" lon="03.937861"><ele>-6.2</ele><time>2023-12-06T12:50:13Z</time><name>PT7120</name></trkpt>
<trkpt lat="51.805152" lon="03.937854"><ele>-6.3</ele><time>2023-12-06T12:50:14Z</time><name>PT7121</name></trkpt>
<trkpt lat="51.805161" lon="03.937847"><ele>-6.5</ele><time>2023-12-06T12:50:14Z</time><name>PT7122</name></trkpt>
<trkpt lat="51.805171" lon="03.937840"><ele>-6.8</ele><time>2023-12-06T12:50:16Z</time><name>PT7123</name></trkpt>
<trkpt lat="51.805183" lon="03.937835"><ele>-6.9</ele><time>2023-12-06T12:50:17Z</time><name>PT7124</name></trkpt>
<trkpt lat="51.805195" lon="03.937831"><ele>-6.8</ele><time>2023-12-06T12:50:17Z</time><name>PT7125</name></trkpt>
<trkpt lat="51.805206" lon="03.937825"><ele>-6.7</ele><time>2023-12-06T12:50:19Z</time><name>PT7126</name></trkpt>
<trkpt lat="51.805217" lon="03.937820"><ele>-6.6</ele><time>2023-12-06T12:50:20Z</time><name>PT7127</name></trkpt>
<trkpt lat="51.805227" lon="03.937814"><ele>-6.5</ele><time>2023-12-06T12:50:20Z</time><name>PT7128</name></trkpt>
<trkpt lat="51.805237" lon="03.937807"><ele>-6.5</ele><time>2023-12-06T12:50:22Z</time><name>PT7129</name></trkpt>
<trkpt lat="51.805246" lon="03.937800"><ele>-6.5</ele><time>2023-12-06T12:50:23Z</time><name>PT7130</name></trkpt>
<trkpt lat="51.805257" lon="03.937795"><ele>-6.6</ele><time>2023-12-06T12:50:23Z</time><name>PT7131</name></trkpt>
<trkpt lat="51.805268" lon="03.937786"><ele>-6.5</ele><time>2023-12-06T12:50:25Z</time><name>PT7132</name></trkpt>
<trkpt lat="51.805278" lon="03.937775"><ele>-6.7</ele><time>2023-12-06T12:50:26Z</time><name>PT7133</name></trkpt>
<trkpt lat="51.805288" lon="03.937763"><ele>-6.6</ele><time>2023-12-06T12:50:26Z</time><name>PT7134</name></trkpt>
<trkpt lat="51.805298" lon="03.937752"><ele>-6.5</ele><time>2023-12-06T12:50:28Z</time><name>PT7135</name></trkpt>
<trkpt lat="51.805311" lon="03.937742"><ele>-6.5</ele><time>2023-12-06T12:50:29Z</time><name>PT7136</name></trkpt>
<trkpt lat="51.805322" lon="03.937733"><ele>-6.5</ele><time>2023-12-06T12:50:30Z</time><name>PT7137</name></trkpt>
<trkpt lat="51.805333" lon="03.937725"><ele>-6.4</ele><time>2023-12-06T12:50:31Z</time><name>PT7138</name></trkpt>
<trkpt lat="51.805343" lon="03.937717"><ele>-6.4</ele><time>2023-12-06T12:50:32Z</time><name>PT7139</name></trkpt>
<trkpt lat="51.805355" lon="03.937708"><ele>-6.4</ele><time>2023-12-06T12:50:33Z</time><name>PT7140</name></trkpt>
<trkpt lat="51.805365" lon="03.937698"><ele>-6.3</ele><time>2023-12-06T12:50:34Z</time><name>PT7141</name></trkpt>
<trkpt lat="51.805376" lon="03.937689"><ele>-6.3</ele><time>2023-12-06T12:50:35Z</time><name>PT7142</name></trkpt>
<trkpt lat="51.805385" lon="03.937679"><ele>-6.3</ele><time>2023-12-06T12:50:35Z</time><name>PT7143</name></trkpt>
<trkpt lat="51.805396" lon="03.937670"><ele>-6.3</ele><time>2023-12-06T12:50:37Z</time><name>PT7144</name></trkpt>
<trkpt lat="51.805405" lon="03.937662"><ele>-6.3</ele><time>2023-12-06T12:50:38Z</time><name>PT7145</name></trkpt>
<trkpt lat="51.805415" lon="03.937653"><ele>-6.4</ele><time>2023-12-06T12:50:38Z</time><name>PT7146</name></trkpt>
<trkpt lat="51.805426" lon="03.937645"><ele>-6.4</ele><time>2023-12-06T12:50:40Z</time><name>PT7147</name></trkpt>
<trkpt lat="51.805437" lon="03.937635"><ele>-6.6</ele><time>2023-12-06T12:50:41Z</time><name>PT7148</name></trkpt>
<trkpt lat="51.805448" lon="03.937626"><ele>-6.4</ele><time>2023-12-06T12:50:41Z</time><name>PT7149</name></trkpt>
<trkpt lat="51.805459" lon="03.937617"><ele>-6.3</ele><time>2023-12-06T12:50:43Z</time><name>PT7150</name></trkpt>
<trkpt lat="51.805469" lon="03.937609"><ele>-6.3</ele><time>2023-12-06T12:50:44Z</time><name>PT7151</name></trkpt>
<trkpt lat="51.805477" lon="03.937601"><ele>-6.2</ele><time>2023-12-06T12:50:44Z</time><name>PT7152</name></trkpt>
<trkpt lat="51.805486" lon="03.937594"><ele>-6.2</ele><time>2023-12-06T12:50:46Z</time><name>PT7153</name></trkpt>
<trkpt lat="51.805495" lon="03.937587"><ele>-6.3</ele><time>2023-12-06T12:50:47Z</time><name>PT7154</name></trkpt>
<trkpt lat="51.805505" lon="03.937580"><ele>-6.3</ele><time>2023-12-06T12:50:47Z</time><name>PT7155</name></trkpt>
<trkpt lat="51.805515" lon="03.937571"><ele>-6.3</ele><time>2023-12-06T12:50:49Z</time><name>PT7156</name></trkpt>
<trkpt lat="51.805526" lon="03.937561"><ele>-6.3</ele><time>2023-12-06T12:50:50Z</time><name>PT7157</name></trkpt>
<trkpt lat="51.805535" lon="03.937552"><ele>-6.4</ele><time>2023-12-06T12:50:50Z</time><name>PT7158</name></trkpt>
<trkpt lat="51.805544" lon="03.937543"><ele>-6.5</ele><time>2023-12-06T12:50:52Z</time><name>PT7159</name></trkpt>
<trkpt lat="51.805555" lon="03.937535"><ele>-6.6</ele><time>2023-12-06T12:50:53Z</time><name>PT7160</name></trkpt>
<trkpt lat="51.805566" lon="03.937528"><ele>-6.6</ele><time>2023-12-06T12:50:53Z</time><name>PT7161</name></trkpt>
<trkpt lat="51.805577" lon="03.937519"><ele>-6.4</ele><time>2023-12-06T12:50:55Z</time><name>PT7162</name></trkpt>
<trkpt lat="51.805587" lon="03.937509"><ele>-6.3</ele><time>2023-12-06T12:50:56Z</time><name>PT7163</name></trkpt>
<trkpt lat="51.805597" lon="03.937500"><ele>-6.3</ele><time>2023-12-06T12:50:56Z</time><name>PT7164</name></trkpt>
<trkpt lat="51.805606" lon="03.937491"><ele>-6.4</ele><time>2023-12-06T12:50:58Z</time><name>PT7165</name></trkpt>
<trkpt lat="51.805615" lon="03.937483"><ele>-6.4</ele><time>2023-12-06T12:50:59Z</time><name>PT7166</name></trkpt>
<trkpt lat="51.805625" lon="03.937474"><ele>-6.5</ele><time>2023-12-06T12:50:59Z</time><name>PT7167</name></trkpt>
<trkpt lat="51.805634" lon="03.937463"><ele>-6.6</ele><time>2023-12-06T12:51:01Z</time><name>PT7168</name></trkpt>
<trkpt lat="51.805643" lon="03.937455"><ele>-6.5</ele><time>2023-12-06T12:51:02Z</time><name>PT7169</name></trkpt>
<trkpt lat="51.805652" lon="03.937449"><ele>-6.4</ele><time>2023-12-06T12:51:02Z</time><name>PT7170</name></trkpt>
<trkpt lat="51.805664" lon="03.937443"><ele>-6.5</ele><time>2023-12-06T12:51:04Z</time><name>PT7171</name></trkpt>
<trkpt lat="51.805675" lon="03.937439"><ele>-6.4</ele><time>2023-12-06T12:51:05Z</time><name>PT7172</name></trkpt>
<trkpt lat="51.805685" lon="03.937432"><ele>-6.3</ele><time>2023-12-06T12:51:05Z</time><name>PT7173</name></trkpt>
<trkpt lat="51.805697" lon="03.937423"><ele>-6.3</ele><time>2023-12-06T12:51:07Z</time><name>PT7174</name></trkpt>
<trkpt lat="51.805707" lon="03.937413"><ele>-6.3</ele><time>2023-12-06T12:51:08Z</time><name>PT7175</name></trkpt>
<trkpt lat="51.805717" lon="03.937404"><ele>-6</ele><time>2023-12-06T12:51:08Z</time><name>PT7176</name></trkpt>
<trkpt lat="51.805727" lon="03.937396"><ele>-5.9</ele><time>2023-12-06T12:51:10Z</time><name>PT7177</name></trkpt>
<trkpt lat="51.805737" lon="03.937391"><ele>-5.8</ele><time>2023-12-06T12:51:11Z</time><name>PT7178</name></trkpt>
<trkpt lat="51.805746" lon="03.937387"><ele>-5.9</ele><time>2023-12-06T12:51:11Z</time><name>PT7179</name></trkpt>
<trkpt lat="51.805757" lon="03.937380"><ele>-5.8</ele><time>2023-12-06T12:51:13Z</time><name>PT7180</name></trkpt>
<trkpt lat="51.805767" lon="03.937372"><ele>-6.1</ele><time>2023-12-06T12:51:14Z</time><name>PT7181</name></trkpt>
<trkpt lat="51.805780" lon="03.937365"><ele>-6.1</ele><time>2023-12-06T12:51:14Z</time><name>PT7182</name></trkpt>
<trkpt lat="51.805792" lon="03.937363"><ele>-6.1</ele><time>2023-12-06T12:51:16Z</time><name>PT7183</name></trkpt>
<trkpt lat="51.805802" lon="03.937358"><ele>-6</ele><time>2023-12-06T12:51:17Z</time><name>PT7184</name></trkpt>
<trkpt lat="51.805812" lon="03.937351"><ele>-5.9</ele><time>2023-12-06T12:51:17Z</time><name>PT7185</name></trkpt>
<trkpt lat="51.805823" lon="03.937346"><ele>-5.8</ele><time>2023-12-06T12:51:19Z</time><name>PT7186</name></trkpt>
<trkpt lat="51.805834" lon="03.937342"><ele>-5.6</ele><time>2023-12-06T12:51:20Z</time><name>PT7187</name></trkpt>
<trkpt lat="51.805846" lon="03.937339"><ele>-5.7</ele><time>2023-12-06T12:51:20Z</time><name>PT7188</name></trkpt>
<trkpt lat="51.805854" lon="03.937334"><ele>-5.8</ele><time>2023-12-06T12:51:22Z</time><name>PT7189</name></trkpt>
<trkpt lat="51.805863" lon="03.937330"><ele>-5.8</ele><time>2023-12-06T12:51:23Z</time><name>PT7190</name></trkpt>
<trkpt lat="51.805872" lon="03.937329"><ele>-5.9</ele><time>2023-12-06T12:51:23Z</time><name>PT7191</name></trkpt>
<trkpt lat="51.805880" lon="03.937326"><ele>-6.2</ele><time>2023-12-06T12:51:25Z</time><name>PT7192</name></trkpt>
<trkpt lat="51.805889" lon="03.937328"><ele>-6.1</ele><time>2023-12-06T12:51:26Z</time><name>PT7193</name></trkpt>
<trkpt lat="51.805899" lon="03.937329"><ele>-6.2</ele><time>2023-12-06T12:51:26Z</time><name>PT7194</name></trkpt>
<trkpt lat="51.805906" lon="03.937330"><ele>-6.1</ele><time>2023-12-06T12:51:28Z</time><name>PT7195</name></trkpt>
<trkpt lat="51.805914" lon="03.937333"><ele>-6.2</ele><time>2023-12-06T12:51:29Z</time><name>PT7196</name></trkpt>
<trkpt lat="51.805922" lon="03.937336"><ele>-6.2</ele><time>2023-12-06T12:51:30Z</time><name>PT7197</name></trkpt>
<trkpt lat="51.805930" lon="03.937337"><ele>-6.2</ele><time>2023-12-06T12:51:31Z</time><name>PT7198</name></trkpt>
<trkpt lat="51.805939" lon="03.937337"><ele>-6.2</ele><time>2023-12-06T12:51:32Z</time><name>PT7199</name></trkpt>
<trkpt lat="51.805948" lon="03.937339"><ele>-6.1</ele><time>2023-12-06T12:51:33Z</time><name>PT7200</name></trkpt>
<trkpt lat="51.805958" lon="03.937343"><ele>-5.9</ele><time>2023-12-06T12:51:34Z</time><name>PT7201</name></trkpt>
<trkpt lat="51.805966" lon="03.937347"><ele>-5.9</ele><time>2023-12-06T12:51:35Z</time><name>PT7202</name></trkpt>
<trkpt lat="51.805974" lon="03.937351"><ele>-5.9</ele><time>2023-12-06T12:51:36Z</time><name>PT7203</name></trkpt>
<trkpt lat="51.805984" lon="03.937357"><ele>-5.8</ele><time>2023-12-06T12:51:37Z</time><name>PT7204</name></trkpt>
<trkpt lat="51.805994" lon="03.937364"><ele>-5.8</ele><time>2023-12-06T12:51:38Z</time><name>PT7205</name></trkpt>
<trkpt lat="51.806004" lon="03.937371"><ele>-5.8</ele><time>2023-12-06T12:51:39Z</time><name>PT7206</name></trkpt>
<trkpt lat="51.806014" lon="03.937379"><ele>-5.6</ele><time>2023-12-06T12:51:40Z</time><name>PT7207</name></trkpt>
<trkpt lat="51.806024" lon="03.937386"><ele>-5.5</ele><time>2023-12-06T12:51:41Z</time><name>PT7208</name></trkpt>
<trkpt lat="51.806033" lon="03.937391"><ele>-5.4</ele><time>2023-12-06T12:51:42Z</time><name>PT7209</name></trkpt>
<trkpt lat="51.806044" lon="03.937395"><ele>-5.3</ele><time>2023-12-06T12:51:43Z</time><name>PT7210</name></trkpt>
<trkpt lat="51.806053" lon="03.937402"><ele>-5.3</ele><time>2023-12-06T12:51:44Z</time><name>PT7211</name></trkpt>
<trkpt lat="51.806065" lon="03.937408"><ele>-5.3</ele><time>2023-12-06T12:51:45Z</time><name>PT7212</name></trkpt>
<trkpt lat="51.806077" lon="03.937418"><ele>-5.4</ele><time>2023-12-06T12:51:46Z</time><name>PT7213</name></trkpt>
<trkpt lat="51.806090" lon="03.937428"><ele>-5.5</ele><time>2023-12-06T12:51:47Z</time><name>PT7214</name></trkpt>
<trkpt lat="51.806101" lon="03.937436"><ele>-5.5</ele><time>2023-12-06T12:51:47Z</time><name>PT7215</name></trkpt>
<trkpt lat="51.806111" lon="03.937444"><ele>-5.7</ele><time>2023-12-06T12:51:49Z</time><name>PT7216</name></trkpt>
<trkpt lat="51.806124" lon="03.937450"><ele>-5.6</ele><time>2023-12-06T12:51:50Z</time><name>PT7217</name></trkpt>
<trkpt lat="51.806135" lon="03.937455"><ele>-5.5</ele><time>2023-12-06T12:51:50Z</time><name>PT7218</name></trkpt>
<trkpt lat="51.806145" lon="03.937460"><ele>-5.6</ele><time>2023-12-06T12:51:52Z</time><name>PT7219</name></trkpt>
<trkpt lat="51.806153" lon="03.937466"><ele>-5.6</ele><time>2023-12-06T12:51:53Z</time><name>PT7220</name></trkpt>
<trkpt lat="51.806161" lon="03.937471"><ele>-5.5</ele><time>2023-12-06T12:51:53Z</time><name>PT7221</name></trkpt>
<trkpt lat="51.806167" lon="03.937479"><ele>-5.4</ele><time>2023-12-06T12:51:55Z</time><name>PT7222</name></trkpt>
<trkpt lat="51.806172" lon="03.937491"><ele>-5.6</ele><time>2023-12-06T12:51:56Z</time><name>PT7223</name></trkpt>
<trkpt lat="51.806179" lon="03.937502"><ele>-5.6</ele><time>2023-12-06T12:51:56Z</time><name>PT7224</name></trkpt>
<trkpt lat="51.806186" lon="03.937507"><ele>-5.4</ele><time>2023-12-06T12:51:58Z</time><name>PT7225</name></trkpt>
<trkpt lat="51.806190" lon="03.937510"><ele>-5.4</ele><time>2023-12-06T12:51:59Z</time><name>PT7226</name></trkpt>
<trkpt lat="51.806194" lon="03.937511"><ele>-5.4</ele><time>2023-12-06T12:51:59Z</time><name>PT7227</name></trkpt>
<trkpt lat="51.806196" lon="03.937512"><ele>-5.3</ele><time>2023-12-06T12:52:01Z</time><name>PT7228</name></trkpt>
<trkpt lat="51.806200" lon="03.937512"><ele>-5.3</ele><time>2023-12-06T12:52:02Z</time><name>PT7229</name></trkpt>
<trkpt lat="51.806203" lon="03.937514"><ele>-5.4</ele><time>2023-12-06T12:52:02Z</time><name>PT7230</name></trkpt>
<trkpt lat="51.806209" lon="03.937520"><ele>-5.3</ele><time>2023-12-06T12:52:04Z</time><name>PT7231</name></trkpt>
<trkpt lat="51.806215" lon="03.937527"><ele>-5.3</ele><time>2023-12-06T12:52:05Z</time><name>PT7232</name></trkpt>
<trkpt lat="51.806219" lon="03.937536"><ele>-5.3</ele><time>2023-12-06T12:52:05Z</time><name>PT7233</name></trkpt>
<trkpt lat="51.806222" lon="03.937542"><ele>-5.3</ele><time>2023-12-06T12:52:07Z</time><name>PT7234</name></trkpt>
<trkpt lat="51.806225" lon="03.937547"><ele>-5.3</ele><time>2023-12-06T12:52:08Z</time><name>PT7235</name></trkpt>
<trkpt lat="51.806229" lon="03.937547"><ele>-5.5</ele><time>2023-12-06T12:52:08Z</time><name>PT7236</name></trkpt>
<trkpt lat="51.806232" lon="03.937547"><ele>-5.5</ele><time>2023-12-06T12:52:10Z</time><name>PT7237</name></trkpt>
<trkpt lat="51.806233" lon="03.937548"><ele>-5.5</ele><time>2023-12-06T12:52:11Z</time><name>PT7238</name></trkpt>
<trkpt lat="51.806234" lon="03.937553"><ele>-5.4</ele><time>2023-12-06T12:52:14Z</time><name>PT7239</name></trkpt>
<trkpt lat="51.806240" lon="03.937563"><ele>-5.5</ele><time>2023-12-06T12:52:16Z</time><name>PT7240</name></trkpt>
<trkpt lat="51.806245" lon="03.937571"><ele>-5.5</ele><time>2023-12-06T12:52:17Z</time><name>PT7241</name></trkpt>
<trkpt lat="51.806247" lon="03.937577"><ele>-5.6</ele><time>2023-12-06T12:52:17Z</time><name>PT7242</name></trkpt>
<trkpt lat="51.806253" lon="03.937582"><ele>-5.6</ele><time>2023-12-06T12:52:19Z</time><name>PT7243</name></trkpt>
<trkpt lat="51.806258" lon="03.937588"><ele>-5.5</ele><time>2023-12-06T12:52:20Z</time><name>PT7244</name></trkpt>
<trkpt lat="51.806263" lon="03.937594"><ele>-5.5</ele><time>2023-12-06T12:52:21Z</time><name>PT7245</name></trkpt>
<trkpt lat="51.806269" lon="03.937599"><ele>-5.4</ele><time>2023-12-06T12:52:22Z</time><name>PT7246</name></trkpt>
<trkpt lat="51.806275" lon="03.937602"><ele>-5.3</ele><time>2023-12-06T12:52:23Z</time><name>PT7247</name></trkpt>
<trkpt lat="51.806277" lon="03.937601"><ele>-5.2</ele><time>2023-12-06T12:52:24Z</time><name>PT7248</name></trkpt>
<trkpt lat="51.806280" lon="03.937602"><ele>-5.2</ele><time>2023-12-06T12:52:25Z</time><name>PT7249</name></trkpt>
<trkpt lat="51.806282" lon="03.937603"><ele>-5.3</ele><time>2023-12-06T12:52:26Z</time><name>PT7250</name></trkpt>
<trkpt lat="51.806283" lon="03.937604"><ele>-5.3</ele><time>2023-12-06T12:52:27Z</time><name>PT7251</name></trkpt>
<trkpt lat="51.806285" lon="03.937596"><ele>-5.3</ele><time>2023-12-06T12:52:38Z</time><name>PT7252</name></trkpt>
<trkpt lat="51.806290" lon="03.937587"><ele>-5.3</ele><time>2023-12-06T12:52:38Z</time><name>PT7253</name></trkpt>
<trkpt lat="51.806297" lon="03.937573"><ele>-5.3</ele><time>2023-12-06T12:52:40Z</time><name>PT7254</name></trkpt>
<trkpt lat="51.806301" lon="03.937560"><ele>-5.4</ele><time>2023-12-06T12:52:41Z</time><name>PT7255</name></trkpt>
<trkpt lat="51.806303" lon="03.937545"><ele>-5.5</ele><time>2023-12-06T12:52:41Z</time><name>PT7256</name></trkpt>
<trkpt lat="51.806308" lon="03.937531"><ele>-5.7</ele><time>2023-12-06T12:52:43Z</time><name>PT7257</name></trkpt>
<trkpt lat="51.806316" lon="03.937516"><ele>-5.6</ele><time>2023-12-06T12:52:44Z</time><name>PT7258</name></trkpt>
<trkpt lat="51.806323" lon="03.937500"><ele>-5.7</ele><time>2023-12-06T12:52:44Z</time><name>PT7259</name></trkpt>
<trkpt lat="51.806328" lon="03.937486"><ele>-5.6</ele><time>2023-12-06T12:52:46Z</time><name>PT7260</name></trkpt>
<trkpt lat="51.806332" lon="03.937471"><ele>-5.5</ele><time>2023-12-06T12:52:47Z</time><name>PT7261</name></trkpt>
<trkpt lat="51.806337" lon="03.937455"><ele>-5.3</ele><time>2023-12-06T12:52:47Z</time><name>PT7262</name></trkpt>
<trkpt lat="51.806342" lon="03.937439"><ele>-5.3</ele><time>2023-12-06T12:52:49Z</time><name>PT7263</name></trkpt>
<trkpt lat="51.806347" lon="03.937423"><ele>-5.1</ele><time>2023-12-06T12:52:50Z</time><name>PT7264</name></trkpt>
<trkpt lat="51.806352" lon="03.937408"><ele>-4.9</ele><time>2023-12-06T12:52:51Z</time><name>PT7265</name></trkpt>
<trkpt lat="51.806355" lon="03.937393"><ele>-4.8</ele><time>2023-12-06T12:52:52Z</time><name>PT7266</name></trkpt>
<trkpt lat="51.806357" lon="03.937379"><ele>-4.6</ele><time>2023-12-06T12:52:53Z</time><name>PT7267</name></trkpt>
<trkpt lat="51.806358" lon="03.937363"><ele>-4.5</ele><time>2023-12-06T12:52:53Z</time><name>PT7268</name></trkpt>
<trkpt lat="51.806358" lon="03.937349"><ele>-4.6</ele><time>2023-12-06T12:52:55Z</time><name>PT7269</name></trkpt>
<trkpt lat="51.806360" lon="03.937336"><ele>-4.7</ele><time>2023-12-06T12:52:56Z</time><name>PT7270</name></trkpt>
<trkpt lat="51.806363" lon="03.937325"><ele>-4.9</ele><time>2023-12-06T12:52:57Z</time><name>PT7271</name></trkpt>
<trkpt lat="51.806364" lon="03.937315"><ele>-5.1</ele><time>2023-12-06T12:52:58Z</time><name>PT7272</name></trkpt>
<trkpt lat="51.806365" lon="03.937302"><ele>-5.2</ele><time>2023-12-06T12:52:59Z</time><name>PT7273</name></trkpt>
<trkpt lat="51.806367" lon="03.937288"><ele>-5.3</ele><time>2023-12-06T12:53:00Z</time><name>PT7274</name></trkpt>
<trkpt lat="51.806368" lon="03.937273"><ele>-5.4</ele><time>2023-12-06T12:53:01Z</time><name>PT7275</name></trkpt>
<trkpt lat="51.806369" lon="03.937257"><ele>-5.3</ele><time>2023-12-06T12:53:02Z</time><name>PT7276</name></trkpt>
<trkpt lat="51.806371" lon="03.937241"><ele>-5.1</ele><time>2023-12-06T12:53:03Z</time><name>PT7277</name></trkpt>
<trkpt lat="51.806372" lon="03.937225"><ele>-5</ele><time>2023-12-06T12:53:04Z</time><name>PT7278</name></trkpt>
<trkpt lat="51.806373" lon="03.937207"><ele>-4.8</ele><time>2023-12-06T12:53:05Z</time><name>PT7279</name></trkpt>
<trkpt lat="51.806374" lon="03.937192"><ele>-4.8</ele><time>2023-12-06T12:53:05Z</time><name>PT7280</name></trkpt>
<trkpt lat="51.806375" lon="03.937179"><ele>-4.9</ele><time>2023-12-06T12:53:07Z</time><name>PT7281</name></trkpt>
<trkpt lat="51.806376" lon="03.937172"><ele>-4.8</ele><time>2023-12-06T12:53:08Z</time><name>PT7282</name></trkpt>
<trkpt lat="51.806379" lon="03.937165"><ele>-4.8</ele><time>2023-12-06T12:53:08Z</time><name>PT7283</name></trkpt>
<trkpt lat="51.806385" lon="03.937156"><ele>-4.8</ele><time>2023-12-06T12:53:10Z</time><name>PT7284</name></trkpt>
<trkpt lat="51.806395" lon="03.937149"><ele>-4.9</ele><time>2023-12-06T12:53:11Z</time><name>PT7285</name></trkpt>
<trkpt lat="51.806407" lon="03.937142"><ele>-4.8</ele><time>2023-12-06T12:53:11Z</time><name>PT7286</name></trkpt>
<trkpt lat="51.806419" lon="03.937136"><ele>-5</ele><time>2023-12-06T12:53:13Z</time><name>PT7287</name></trkpt>
<trkpt lat="51.806429" lon="03.937130"><ele>-5.1</ele><time>2023-12-06T12:53:14Z</time><name>PT7288</name></trkpt>
<trkpt lat="51.806434" lon="03.937123"><ele>-5</ele><time>2023-12-06T12:53:14Z</time><name>PT7289</name></trkpt>
<trkpt lat="51.806440" lon="03.937114"><ele>-5</ele><time>2023-12-06T12:53:16Z</time><name>PT7290</name></trkpt>
<trkpt lat="51.806446" lon="03.937102"><ele>-5</ele><time>2023-12-06T12:53:17Z</time><name>PT7291</name></trkpt>
<trkpt lat="51.806452" lon="03.937087"><ele>-4.9</ele><time>2023-12-06T12:53:17Z</time><name>PT7292</name></trkpt>
<trkpt lat="51.806454" lon="03.937071"><ele>-4.8</ele><time>2023-12-06T12:53:19Z</time><name>PT7293</name></trkpt>
<trkpt lat="51.806455" lon="03.937054"><ele>-4.8</ele><time>2023-12-06T12:53:20Z</time><name>PT7294</name></trkpt>
<trkpt lat="51.806459" lon="03.937037"><ele>-4.8</ele><time>2023-12-06T12:53:20Z</time><name>PT7295</name></trkpt>
<trkpt lat="51.806463" lon="03.937019"><ele>-4.8</ele><time>2023-12-06T12:53:22Z</time><name>PT7296</name></trkpt>
<trkpt lat="51.806470" lon="03.937003"><ele>-4.8</ele><time>2023-12-06T12:53:23Z</time><name>PT7297</name></trkpt>
<trkpt lat="51.806479" lon="03.936989"><ele>-4.8</ele><time>2023-12-06T12:53:23Z</time><name>PT7298</name></trkpt>
<trkpt lat="51.806488" lon="03.936974"><ele>-4.6</ele><time>2023-12-06T12:53:25Z</time><name>PT7299</name></trkpt>
<trkpt lat="51.806496" lon="03.936964"><ele>-4.5</ele><time>2023-12-06T12:53:26Z</time><name>PT7300</name></trkpt>
<trkpt lat="51.806504" lon="03.936957"><ele>-4.5</ele><time>2023-12-06T12:53:26Z</time><name>PT7301</name></trkpt>
<trkpt lat="51.806512" lon="03.936944"><ele>-4.6</ele><time>2023-12-06T12:53:28Z</time><name>PT7302</name></trkpt>
<trkpt lat="51.806518" lon="03.936931"><ele>-4.5</ele><time>2023-12-06T12:53:29Z</time><name>PT7303</name></trkpt>
<trkpt lat="51.806525" lon="03.936916"><ele>-4.5</ele><time>2023-12-06T12:53:29Z</time><name>PT7304</name></trkpt>
<trkpt lat="51.806532" lon="03.936904"><ele>-4.6</ele><time>2023-12-06T12:53:31Z</time><name>PT7305</name></trkpt>
<trkpt lat="51.806540" lon="03.936891"><ele>-4.6</ele><time>2023-12-06T12:53:32Z</time><name>PT7306</name></trkpt>
<trkpt lat="51.806549" lon="03.936879"><ele>-4.6</ele><time>2023-12-06T12:53:32Z</time><name>PT7307</name></trkpt>
<trkpt lat="51.806557" lon="03.936867"><ele>-4.8</ele><time>2023-12-06T12:53:34Z</time><name>PT7308</name></trkpt>
<trkpt lat="51.806563" lon="03.936854"><ele>-4.8</ele><time>2023-12-06T12:53:35Z</time><name>PT7309</name></trkpt>
<trkpt lat="51.806571" lon="03.936840"><ele>-4.7</ele><time>2023-12-06T12:53:35Z</time><name>PT7310</name></trkpt>
<trkpt lat="51.806578" lon="03.936825"><ele>-4.6</ele><time>2023-12-06T12:53:37Z</time><name>PT7311</name></trkpt>
<trkpt lat="51.806586" lon="03.936812"><ele>-4.6</ele><time>2023-12-06T12:53:38Z</time><name>PT7312</name></trkpt>
<trkpt lat="51.806593" lon="03.936799"><ele>-4.6</ele><time>2023-12-06T12:53:38Z</time><name>PT7313</name></trkpt>
<trkpt lat="51.806601" lon="03.936787"><ele>-4.5</ele><time>2023-12-06T12:53:40Z</time><name>PT7314</name></trkpt>
<trkpt lat="51.806610" lon="03.936775"><ele>-4.5</ele><time>2023-12-06T12:53:41Z</time><name>PT7315</name></trkpt>
<trkpt lat="51.806619" lon="03.936763"><ele>-4.6</ele><time>2023-12-06T12:53:41Z</time><name>PT7316</name></trkpt>
<trkpt lat="51.806628" lon="03.936751"><ele>-4.6</ele><time>2023-12-06T12:53:43Z</time><name>PT7317</name></trkpt>
<trkpt lat="51.806639" lon="03.936742"><ele>-4.7</ele><time>2023-12-06T12:53:44Z</time><name>PT7318</name></trkpt>
<trkpt lat="51.806648" lon="03.936733"><ele>-4.8</ele><time>2023-12-06T12:53:44Z</time><name>PT7319</name></trkpt>
<trkpt lat="51.806658" lon="03.936723"><ele>-4.8</ele><time>2023-12-06T12:53:46Z</time><name>PT7320</name></trkpt>
<trkpt lat="51.806668" lon="03.936716"><ele>-4.8</ele><time>2023-12-06T12:53:47Z</time><name>PT7321</name></trkpt>
<trkpt lat="51.806677" lon="03.936707"><ele>-4.8</ele><time>2023-12-06T12:53:47Z</time><name>PT7322</name></trkpt>
<trkpt lat="51.806685" lon="03.936697"><ele>-4.8</ele><time>2023-12-06T12:53:49Z</time><name>PT7323</name></trkpt>
<trkpt lat="51.806693" lon="03.936687"><ele>-4.6</ele><time>2023-12-06T12:53:50Z</time><name>PT7324</name></trkpt>
<trkpt lat="51.806702" lon="03.936676"><ele>-4.8</ele><time>2023-12-06T12:53:50Z</time><name>PT7325</name></trkpt>
<trkpt lat="51.806709" lon="03.936665"><ele>-4.7</ele><time>2023-12-06T12:53:52Z</time><name>PT7326</name></trkpt>
<trkpt lat="51.806717" lon="03.936656"><ele>-4.6</ele><time>2023-12-06T12:53:53Z</time><name>PT7327</name></trkpt>
<trkpt lat="51.806727" lon="03.936645"><ele>-4.7</ele><time>2023-12-06T12:53:53Z</time><name>PT7328</name></trkpt>
<trkpt lat="51.806734" lon="03.936635"><ele>-4.8</ele><time>2023-12-06T12:53:55Z</time><name>PT7329</name></trkpt>
<trkpt lat="51.806742" lon="03.936620"><ele>-4.8</ele><time>2023-12-06T12:53:56Z</time><name>PT7330</name></trkpt>
<trkpt lat="51.806752" lon="03.936611"><ele>-4.8</ele><time>2023-12-06T12:53:56Z</time><name>PT7331</name></trkpt>
<trkpt lat="51.806762" lon="03.936600"><ele>-4.8</ele><time>2023-12-06T12:53:58Z</time><name>PT7332</name></trkpt>
<trkpt lat="51.806772" lon="03.936589"><ele>-4.7</ele><time>2023-12-06T12:53:59Z</time><name>PT7333</name></trkpt>
<trkpt lat="51.806781" lon="03.936580"><ele>-4.8</ele><time>2023-12-06T12:53:59Z</time><name>PT7334</name></trkpt>
<trkpt lat="51.806790" lon="03.936572"><ele>-4.8</ele><time>2023-12-06T12:54:01Z</time><name>PT7335</name></trkpt>
<trkpt lat="51.806798" lon="03.936562"><ele>-4.7</ele><time>2023-12-06T12:54:02Z</time><name>PT7336</name></trkpt>
<trkpt lat="51.806806" lon="03.936556"><ele>-4.6</ele><time>2023-12-06T12:54:02Z</time><name>PT7337</name></trkpt>
<trkpt lat="51.806814" lon="03.936546"><ele>-4.8</ele><time>2023-12-06T12:54:04Z</time><name>PT7338</name></trkpt>
<trkpt lat="51.806822" lon="03.936537"><ele>-4.6</ele><time>2023-12-06T12:54:05Z</time><name>PT7339</name></trkpt>
<trkpt lat="51.806830" lon="03.936525"><ele>-4.5</ele><time>2023-12-06T12:54:05Z</time><name>PT7340</name></trkpt>
<trkpt lat="51.806840" lon="03.936515"><ele>-4.5</ele><time>2023-12-06T12:54:07Z</time><name>PT7341</name></trkpt>
<trkpt lat="51.806850" lon="03.936506"><ele>-4.6</ele><time>2023-12-06T12:54:08Z</time><name>PT7342</name></trkpt>
<trkpt lat="51.806859" lon="03.936495"><ele>-4.6</ele><time>2023-12-06T12:54:08Z</time><name>PT7343</name></trkpt>
<trkpt lat="51.806869" lon="03.936486"><ele>-4.6</ele><time>2023-12-06T12:54:10Z</time><name>PT7344</name></trkpt>
<trkpt lat="51.806879" lon="03.936476"><ele>-4.7</ele><time>2023-12-06T12:54:11Z</time><name>PT7345</name></trkpt>
<trkpt lat="51.806888" lon="03.936468"><ele>-4.7</ele><time>2023-12-06T12:54:11Z</time><name>PT7346</name></trkpt>
<trkpt lat="51.806896" lon="03.936459"><ele>-4.7</ele><time>2023-12-06T12:54:13Z</time><name>PT7347</name></trkpt>
<trkpt lat="51.806905" lon="03.936449"><ele>-4.6</ele><time>2023-12-06T12:54:14Z</time><name>PT7348</name></trkpt>
<trkpt lat="51.806915" lon="03.936440"><ele>-4.7</ele><time>2023-12-06T12:54:14Z</time><name>PT7349</name></trkpt>
<trkpt lat="51.806923" lon="03.936427"><ele>-4.7</ele><time>2023-12-06T12:54:16Z</time><name>PT7350</name></trkpt>
<trkpt lat="51.806932" lon="03.936417"><ele>-4.6</ele><time>2023-12-06T12:54:17Z</time><name>PT7351</name></trkpt>
<trkpt lat="51.806942" lon="03.936404"><ele>-4.4</ele><time>2023-12-06T12:54:17Z</time><name>PT7352</name></trkpt>
<trkpt lat="51.806951" lon="03.936391"><ele>-4.4</ele><time>2023-12-06T12:54:19Z</time><name>PT7353</name></trkpt>
<trkpt lat="51.806960" lon="03.936380"><ele>-4.3</ele><time>2023-12-06T12:54:20Z</time><name>PT7354</name></trkpt>
<trkpt lat="51.806970" lon="03.936370"><ele>-4.3</ele><time>2023-12-06T12:54:20Z</time><name>PT7355</name></trkpt>
<trkpt lat="51.806980" lon="03.936360"><ele>-4.4</ele><time>2023-12-06T12:54:22Z</time><name>PT7356</name></trkpt>
<trkpt lat="51.806988" lon="03.936352"><ele>-4.4</ele><time>2023-12-06T12:54:23Z</time><name>PT7357</name></trkpt>
<trkpt lat="51.806996" lon="03.936340"><ele>-4.4</ele><time>2023-12-06T12:54:23Z</time><name>PT7358</name></trkpt>
<trkpt lat="51.807007" lon="03.936330"><ele>-4.4</ele><time>2023-12-06T12:54:25Z</time><name>PT7359</name></trkpt>
<trkpt lat="51.807017" lon="03.936322"><ele>-4.4</ele><time>2023-12-06T12:54:26Z</time><name>PT7360</name></trkpt>
<trkpt lat="51.807028" lon="03.936313"><ele>-4.4</ele><time>2023-12-06T12:54:26Z</time><name>PT7361</name></trkpt>
<trkpt lat="51.807037" lon="03.936303"><ele>-4.5</ele><time>2023-12-06T12:54:28Z</time><name>PT7362</name></trkpt>
<trkpt lat="51.807047" lon="03.936292"><ele>-4.6</ele><time>2023-12-06T12:54:29Z</time><name>PT7363</name></trkpt>
<trkpt lat="51.807056" lon="03.936281"><ele>-4.7</ele><time>2023-12-06T12:54:29Z</time><name>PT7364</name></trkpt>
<trkpt lat="51.807065" lon="03.936272"><ele>-4.7</ele><time>2023-12-06T12:54:31Z</time><name>PT7365</name></trkpt>
<trkpt lat="51.807073" lon="03.936263"><ele>-4.6</ele><time>2023-12-06T12:54:32Z</time><name>PT7366</name></trkpt>
<trkpt lat="51.807082" lon="03.936253"><ele>-4.4</ele><time>2023-12-06T12:54:33Z</time><name>PT7367</name></trkpt>
<trkpt lat="51.807090" lon="03.936242"><ele>-4.4</ele><time>2023-12-06T12:54:34Z</time><name>PT7368</name></trkpt>
<trkpt lat="51.807099" lon="03.936238"><ele>-4.3</ele><time>2023-12-06T12:54:35Z</time><name>PT7369</name></trkpt>
<trkpt lat="51.807109" lon="03.936232"><ele>-4.2</ele><time>2023-12-06T12:54:35Z</time><name>PT7370</name></trkpt>
<trkpt lat="51.807118" lon="03.936224"><ele>-4.3</ele><time>2023-12-06T12:54:37Z</time><name>PT7371</name></trkpt>
<trkpt lat="51.807126" lon="03.936211"><ele>-4.3</ele><time>2023-12-06T12:54:38Z</time><name>PT7372</name></trkpt>
<trkpt lat="51.807133" lon="03.936193"><ele>-4.3</ele><time>2023-12-06T12:54:38Z</time><name>PT7373</name></trkpt>
<trkpt lat="51.807138" lon="03.936175"><ele>-4.4</ele><time>2023-12-06T12:54:40Z</time><name>PT7374</name></trkpt>
<trkpt lat="51.807144" lon="03.936161"><ele>-4.6</ele><time>2023-12-06T12:54:41Z</time><name>PT7375</name></trkpt>
<trkpt lat="51.807152" lon="03.936148"><ele>-4.7</ele><time>2023-12-06T12:54:41Z</time><name>PT7376</name></trkpt>
<trkpt lat="51.807160" lon="03.936134"><ele>-4.8</ele><time>2023-12-06T12:54:43Z</time><name>PT7377</name></trkpt>
<trkpt lat="51.807167" lon="03.936118"><ele>-4.9</ele><time>2023-12-06T12:54:44Z</time><name>PT7378</name></trkpt>
<trkpt lat="51.807173" lon="03.936103"><ele>-4.8</ele><time>2023-12-06T12:54:45Z</time><name>PT7379</name></trkpt>
<trkpt lat="51.807176" lon="03.936086"><ele>-4.7</ele><time>2023-12-06T12:54:46Z</time><name>PT7380</name></trkpt>
<trkpt lat="51.807181" lon="03.936072"><ele>-4.5</ele><time>2023-12-06T12:54:47Z</time><name>PT7381</name></trkpt>
<trkpt lat="51.807186" lon="03.936056"><ele>-4.7</ele><time>2023-12-06T12:54:47Z</time><name>PT7382</name></trkpt>
<trkpt lat="51.807191" lon="03.936041"><ele>-4.6</ele><time>2023-12-06T12:54:49Z</time><name>PT7383</name></trkpt>
<trkpt lat="51.807197" lon="03.936027"><ele>-4.6</ele><time>2023-12-06T12:54:50Z</time><name>PT7384</name></trkpt>
<trkpt lat="51.807204" lon="03.936014"><ele>-4.6</ele><time>2023-12-06T12:54:50Z</time><name>PT7385</name></trkpt>
<trkpt lat="51.807214" lon="03.936002"><ele>-4.6</ele><time>2023-12-06T12:54:52Z</time><name>PT7386</name></trkpt>
<trkpt lat="51.807224" lon="03.935992"><ele>-4.4</ele><time>2023-12-06T12:54:53Z</time><name>PT7387</name></trkpt>
<trkpt lat="51.807234" lon="03.935983"><ele>-4.4</ele><time>2023-12-06T12:54:54Z</time><name>PT7388</name></trkpt>
<trkpt lat="51.807244" lon="03.935978"><ele>-4.4</ele><time>2023-12-06T12:54:55Z</time><name>PT7389</name></trkpt>
<trkpt lat="51.807254" lon="03.935976"><ele>-4.5</ele><time>2023-12-06T12:54:56Z</time><name>PT7390</name></trkpt>
<trkpt lat="51.807265" lon="03.935974"><ele>-4.8</ele><time>2023-12-06T12:54:57Z</time><name>PT7391</name></trkpt>
<trkpt lat="51.807275" lon="03.935972"><ele>-4.8</ele><time>2023-12-06T12:54:58Z</time><name>PT7392</name></trkpt>
<trkpt lat="51.807286" lon="03.935970"><ele>-4.8</ele><time>2023-12-06T12:54:59Z</time><name>PT7393</name></trkpt>
<trkpt lat="51.807297" lon="03.935968"><ele>-4.8</ele><time>2023-12-06T12:55:00Z</time><name>PT7394</name></trkpt>
<trkpt lat="51.807307" lon="03.935968"><ele>-4.9</ele><time>2023-12-06T12:55:01Z</time><name>PT7395</name></trkpt>
<trkpt lat="51.807318" lon="03.935968"><ele>-4.8</ele><time>2023-12-06T12:55:02Z</time><name>PT7396</name></trkpt>
<trkpt lat="51.807330" lon="03.935969"><ele>-4.8</ele><time>2023-12-06T12:55:03Z</time><name>PT7397</name></trkpt>
<trkpt lat="51.807342" lon="03.935969"><ele>-4.8</ele><time>2023-12-06T12:55:04Z</time><name>PT7398</name></trkpt>
<trkpt lat="51.807354" lon="03.935971"><ele>-4.8</ele><time>2023-12-06T12:55:05Z</time><name>PT7399</name></trkpt>
<trkpt lat="51.807363" lon="03.935974"><ele>-4.7</ele><time>2023-12-06T12:55:06Z</time><name>PT7400</name></trkpt>
<trkpt lat="51.807374" lon="03.935977"><ele>-4.5</ele><time>2023-12-06T12:55:07Z</time><name>PT7401</name></trkpt>
<trkpt lat="51.807386" lon="03.935979"><ele>-4.4</ele><time>2023-12-06T12:55:08Z</time><name>PT7402</name></trkpt>
<trkpt lat="51.807396" lon="03.935978"><ele>-4.4</ele><time>2023-12-06T12:55:08Z</time><name>PT7403</name></trkpt>
<trkpt lat="51.807407" lon="03.935977"><ele>-4.2</ele><time>2023-12-06T12:55:10Z</time><name>PT7404</name></trkpt>
<trkpt lat="51.807418" lon="03.935977"><ele>-4.4</ele><time>2023-12-06T12:55:11Z</time><name>PT7405</name></trkpt>
<trkpt lat="51.807429" lon="03.935976"><ele>-4.4</ele><time>2023-12-06T12:55:11Z</time><name>PT7406</name></trkpt>
<trkpt lat="51.807442" lon="03.935977"><ele>-4.4</ele><time>2023-12-06T12:55:13Z</time><name>PT7407</name></trkpt>
<trkpt lat="51.807455" lon="03.935978"><ele>-4.4</ele><time>2023-12-06T12:55:14Z</time><name>PT7408</name></trkpt>
<trkpt lat="51.807466" lon="03.935979"><ele>-4.4</ele><time>2023-12-06T12:55:14Z</time><name>PT7409</name></trkpt>
<trkpt lat="51.807476" lon="03.935982"><ele>-4.3</ele><time>2023-12-06T12:55:16Z</time><name>PT7410</name></trkpt>
<trkpt lat="51.807488" lon="03.935982"><ele>-4.4</ele><time>2023-12-06T12:55:17Z</time><name>PT7411</name></trkpt>
<trkpt lat="51.807500" lon="03.935980"><ele>-4.4</ele><time>2023-12-06T12:55:17Z</time><name>PT7412</name></trkpt>
<trkpt lat="51.807511" lon="03.935979"><ele>-4.4</ele><time>2023-12-06T12:55:19Z</time><name>PT7413</name></trkpt>
<trkpt lat="51.807522" lon="03.935980"><ele>-4.4</ele><time>2023-12-06T12:55:20Z</time><name>PT7414</name></trkpt>
<trkpt lat="51.807532" lon="03.935982"><ele>-4.4</ele><time>2023-12-06T12:55:20Z</time><name>PT7415</name></trkpt>
<trkpt lat="51.807542" lon="03.935983"><ele>-4.4</ele><time>2023-12-06T12:55:22Z</time><name>PT7416</name></trkpt>
<trkpt lat="51.807552" lon="03.935981"><ele>-4.5</ele><time>2023-12-06T12:55:23Z</time><name>PT7417</name></trkpt>
<trkpt lat="51.807561" lon="03.935980"><ele>-4.5</ele><time>2023-12-06T12:55:23Z</time><name>PT7418</name></trkpt>
<trkpt lat="51.807571" lon="03.935981"><ele>-4.5</ele><time>2023-12-06T12:55:25Z</time><name>PT7419</name></trkpt>
<trkpt lat="51.807583" lon="03.935982"><ele>-4.6</ele><time>2023-12-06T12:55:26Z</time><name>PT7420</name></trkpt>
<trkpt lat="51.807594" lon="03.935983"><ele>-4.6</ele><time>2023-12-06T12:55:26Z</time><name>PT7421</name></trkpt>
<trkpt lat="51.807606" lon="03.935983"><ele>-4.7</ele><time>2023-12-06T12:55:28Z</time><name>PT7422</name></trkpt>
<trkpt lat="51.807617" lon="03.935984"><ele>-4.8</ele><time>2023-12-06T12:55:29Z</time><name>PT7423</name></trkpt>
<trkpt lat="51.807628" lon="03.935986"><ele>-4.9</ele><time>2023-12-06T12:55:29Z</time><name>PT7424</name></trkpt>
<trkpt lat="51.807639" lon="03.935984"><ele>-4.8</ele><time>2023-12-06T12:55:31Z</time><name>PT7425</name></trkpt>
<trkpt lat="51.807649" lon="03.935982"><ele>-4.8</ele><time>2023-12-06T12:55:32Z</time><name>PT7426</name></trkpt>
<trkpt lat="51.807659" lon="03.935981"><ele>-4.8</ele><time>2023-12-06T12:55:32Z</time><name>PT7427</name></trkpt>
<trkpt lat="51.807669" lon="03.935981"><ele>-4.8</ele><time>2023-12-06T12:55:34Z</time><name>PT7428</name></trkpt>
<trkpt lat="51.807679" lon="03.935983"><ele>-4.7</ele><time>2023-12-06T12:55:35Z</time><name>PT7429</name></trkpt>
<trkpt lat="51.807691" lon="03.935984"><ele>-4.6</ele><time>2023-12-06T12:55:35Z</time><name>PT7430</name></trkpt>
<trkpt lat="51.807704" lon="03.935984"><ele>-4.7</ele><time>2023-12-06T12:55:37Z</time><name>PT7431</name></trkpt>
<trkpt lat="51.807715" lon="03.935986"><ele>-4.4</ele><time>2023-12-06T12:55:38Z</time><name>PT7432</name></trkpt>
<trkpt lat="51.807726" lon="03.935985"><ele>-4.4</ele><time>2023-12-06T12:55:38Z</time><name>PT7433</name></trkpt>
<trkpt lat="51.807737" lon="03.935983"><ele>-4.1</ele><time>2023-12-06T12:55:40Z</time><name>PT7434</name></trkpt>
<trkpt lat="51.807749" lon="03.935983"><ele>-4.1</ele><time>2023-12-06T12:55:41Z</time><name>PT7435</name></trkpt>
<trkpt lat="51.807760" lon="03.935983"><ele>-4.3</ele><time>2023-12-06T12:55:41Z</time><name>PT7436</name></trkpt>
<trkpt lat="51.807771" lon="03.935983"><ele>-4.4</ele><time>2023-12-06T12:55:43Z</time><name>PT7437</name></trkpt>
<trkpt lat="51.807784" lon="03.935985"><ele>-4.4</ele><time>2023-12-06T12:55:44Z</time><name>PT7438</name></trkpt>
<trkpt lat="51.807797" lon="03.935985"><ele>-4.4</ele><time>2023-12-06T12:55:44Z</time><name>PT7439</name></trkpt>
<trkpt lat="51.807809" lon="03.935985"><ele>-4.4</ele><time>2023-12-06T12:55:46Z</time><name>PT7440</name></trkpt>
<trkpt lat="51.807821" lon="03.935983"><ele>-4.3</ele><time>2023-12-06T12:55:47Z</time><name>PT7441</name></trkpt>
<trkpt lat="51.807832" lon="03.935980"><ele>-4.4</ele><time>2023-12-06T12:55:47Z</time><name>PT7442</name></trkpt>
<trkpt lat="51.807843" lon="03.935975"><ele>-4.2</ele><time>2023-12-06T12:55:49Z</time><name>PT7443</name></trkpt>
<trkpt lat="51.807853" lon="03.935968"><ele>-4.1</ele><time>2023-12-06T12:55:50Z</time><name>PT7444</name></trkpt>
<trkpt lat="51.807863" lon="03.935960"><ele>-4.2</ele><time>2023-12-06T12:55:50Z</time><name>PT7445</name></trkpt>
<trkpt lat="51.807873" lon="03.935953"><ele>-4.3</ele><time>2023-12-06T12:55:52Z</time><name>PT7446</name></trkpt>
<trkpt lat="51.807883" lon="03.935946"><ele>-4.3</ele><time>2023-12-06T12:55:53Z</time><name>PT7447</name></trkpt>
<trkpt lat="51.807894" lon="03.935941"><ele>-4.4</ele><time>2023-12-06T12:55:53Z</time><name>PT7448</name></trkpt>
<trkpt lat="51.807906" lon="03.935934"><ele>-4.5</ele><time>2023-12-06T12:55:55Z</time><name>PT7449</name></trkpt>
<trkpt lat="51.807917" lon="03.935927"><ele>-4.5</ele><time>2023-12-06T12:55:56Z</time><name>PT7450</name></trkpt>
<trkpt lat="51.807928" lon="03.935920"><ele>-4.6</ele><time>2023-12-06T12:55:56Z</time><name>PT7451</name></trkpt>
<trkpt lat="51.807938" lon="03.935913"><ele>-4.5</ele><time>2023-12-06T12:55:58Z</time><name>PT7452</name></trkpt>
<trkpt lat="51.807948" lon="03.935905"><ele>-4.4</ele><time>2023-12-06T12:55:59Z</time><name>PT7453</name></trkpt>
<trkpt lat="51.807959" lon="03.935898"><ele>-4.3</ele><time>2023-12-06T12:55:59Z</time><name>PT7454</name></trkpt>
<trkpt lat="51.807969" lon="03.935889"><ele>-4.2</ele><time>2023-12-06T12:56:01Z</time><name>PT7455</name></trkpt>
<trkpt lat="51.807978" lon="03.935880"><ele>-4.2</ele><time>2023-12-06T12:56:02Z</time><name>PT7456</name></trkpt>
<trkpt lat="51.807988" lon="03.935871"><ele>-4.2</ele><time>2023-12-06T12:56:02Z</time><name>PT7457</name></trkpt>
<trkpt lat="51.807998" lon="03.935863"><ele>-4.2</ele><time>2023-12-06T12:56:04Z</time><name>PT7458</name></trkpt>
<trkpt lat="51.808008" lon="03.935855"><ele>-4.4</ele><time>2023-12-06T12:56:05Z</time><name>PT7459</name></trkpt>
<trkpt lat="51.808020" lon="03.935849"><ele>-4.4</ele><time>2023-12-06T12:56:05Z</time><name>PT7460</name></trkpt>
<trkpt lat="51.808031" lon="03.935843"><ele>-4.4</ele><time>2023-12-06T12:56:07Z</time><name>PT7461</name></trkpt>
<trkpt lat="51.808042" lon="03.935837"><ele>-4.3</ele><time>2023-12-06T12:56:08Z</time><name>PT7462</name></trkpt>
<trkpt lat="51.808052" lon="03.935830"><ele>-4.4</ele><time>2023-12-06T12:56:08Z</time><name>PT7463</name></trkpt>
<trkpt lat="51.808062" lon="03.935822"><ele>-4.4</ele><time>2023-12-06T12:56:10Z</time><name>PT7464</name></trkpt>
<trkpt lat="51.808073" lon="03.935813"><ele>-4.4</ele><time>2023-12-06T12:56:11Z</time><name>PT7465</name></trkpt>
<trkpt lat="51.808083" lon="03.935805"><ele>-4.4</ele><time>2023-12-06T12:56:12Z</time><name>PT7466</name></trkpt>
<trkpt lat="51.808091" lon="03.935798"><ele>-4.4</ele><time>2023-12-06T12:56:13Z</time><name>PT7467</name></trkpt>
<trkpt lat="51.808100" lon="03.935791"><ele>-4.4</ele><time>2023-12-06T12:56:14Z</time><name>PT7468</name></trkpt>
<trkpt lat="51.808108" lon="03.935785"><ele>-4.4</ele><time>2023-12-06T12:56:15Z</time><name>PT7469</name></trkpt>
<trkpt lat="51.808118" lon="03.935778"><ele>-4.4</ele><time>2023-12-06T12:56:16Z</time><name>PT7470</name></trkpt>
<trkpt lat="51.808128" lon="03.935773"><ele>-4.4</ele><time>2023-12-06T12:56:17Z</time><name>PT7471</name></trkpt>
<trkpt lat="51.808137" lon="03.935766"><ele>-4.4</ele><time>2023-12-06T12:56:18Z</time><name>PT7472</name></trkpt>
<trkpt lat="51.808148" lon="03.935760"><ele>-4.3</ele><time>2023-12-06T12:56:19Z</time><name>PT7473</name></trkpt>
<trkpt lat="51.808157" lon="03.935753"><ele>-4.4</ele><time>2023-12-06T12:56:20Z</time><name>PT7474</name></trkpt>
<trkpt lat="51.808167" lon="03.935746"><ele>-4.2</ele><time>2023-12-06T12:56:21Z</time><name>PT7475</name></trkpt>
<trkpt lat="51.808176" lon="03.935739"><ele>-4.2</ele><time>2023-12-06T12:56:22Z</time><name>PT7476</name></trkpt>
<trkpt lat="51.808186" lon="03.935733"><ele>-4.3</ele><time>2023-12-06T12:56:23Z</time><name>PT7477</name></trkpt>
<trkpt lat="51.808197" lon="03.935731"><ele>-4.2</ele><time>2023-12-06T12:56:24Z</time><name>PT7478</name></trkpt>
<trkpt lat="51.808208" lon="03.935733"><ele>-4.1</ele><time>2023-12-06T12:56:25Z</time><name>PT7479</name></trkpt>
<trkpt lat="51.808220" lon="03.935735"><ele>-4</ele><time>2023-12-06T12:56:26Z</time><name>PT7480</name></trkpt>
<trkpt lat="51.808231" lon="03.935730"><ele>-4.1</ele><time>2023-12-06T12:56:26Z</time><name>PT7481</name></trkpt>
<trkpt lat="51.808242" lon="03.935722"><ele>-4.1</ele><time>2023-12-06T12:56:28Z</time><name>PT7482</name></trkpt>
<trkpt lat="51.808253" lon="03.935715"><ele>-4.1</ele><time>2023-12-06T12:56:29Z</time><name>PT7483</name></trkpt>
<trkpt lat="51.808263" lon="03.935707"><ele>-4.2</ele><time>2023-12-06T12:56:29Z</time><name>PT7484</name></trkpt>
<trkpt lat="51.808274" lon="03.935700"><ele>-4.4</ele><time>2023-12-06T12:56:31Z</time><name>PT7485</name></trkpt>
<trkpt lat="51.808285" lon="03.935693"><ele>-4.4</ele><time>2023-12-06T12:56:32Z</time><name>PT7486</name></trkpt>
<trkpt lat="51.808296" lon="03.935688"><ele>-4.4</ele><time>2023-12-06T12:56:32Z</time><name>PT7487</name></trkpt>
<trkpt lat="51.808305" lon="03.935684"><ele>-4.4</ele><time>2023-12-06T12:56:34Z</time><name>PT7488</name></trkpt>
<trkpt lat="51.808316" lon="03.935680"><ele>-4.4</ele><time>2023-12-06T12:56:35Z</time><name>PT7489</name></trkpt>
<trkpt lat="51.808327" lon="03.935677"><ele>-4.4</ele><time>2023-12-06T12:56:35Z</time><name>PT7490</name></trkpt>
<trkpt lat="51.808338" lon="03.935679"><ele>-4.5</ele><time>2023-12-06T12:56:37Z</time><name>PT7491</name></trkpt>
<trkpt lat="51.808349" lon="03.935678"><ele>-4.4</ele><time>2023-12-06T12:56:38Z</time><name>PT7492</name></trkpt>
<trkpt lat="51.808358" lon="03.935675"><ele>-4.6</ele><time>2023-12-06T12:56:38Z</time><name>PT7493</name></trkpt>
<trkpt lat="51.808367" lon="03.935667"><ele>-4.4</ele><time>2023-12-06T12:56:40Z</time><name>PT7494</name></trkpt>
<trkpt lat="51.808373" lon="03.935661"><ele>-4.3</ele><time>2023-12-06T12:56:41Z</time><name>PT7495</name></trkpt>
<trkpt lat="51.808382" lon="03.935660"><ele>-4.1</ele><time>2023-12-06T12:56:41Z</time><name>PT7496</name></trkpt>
<trkpt lat="51.808392" lon="03.935657"><ele>-3.9</ele><time>2023-12-06T12:56:43Z</time><name>PT7497</name></trkpt>
<trkpt lat="51.808405" lon="03.935655"><ele>-3.9</ele><time>2023-12-06T12:56:44Z</time><name>PT7498</name></trkpt>
<trkpt lat="51.808416" lon="03.935657"><ele>-4.1</ele><time>2023-12-06T12:56:44Z</time><name>PT7499</name></trkpt>
<trkpt lat="51.808423" lon="03.935659"><ele>-4.2</ele><time>2023-12-06T12:56:46Z</time><name>PT7500</name></trkpt>
<trkpt lat="51.808432" lon="03.935659"><ele>-4.5</ele><time>2023-12-06T12:56:47Z</time><name>PT7501</name></trkpt>
<trkpt lat="51.808440" lon="03.935658"><ele>-4.4</ele><time>2023-12-06T12:56:47Z</time><name>PT7502</name></trkpt>
<trkpt lat="51.808449" lon="03.935658"><ele>-4.4</ele><time>2023-12-06T12:56:49Z</time><name>PT7503</name></trkpt>
<trkpt lat="51.808457" lon="03.935656"><ele>-4.4</ele><time>2023-12-06T12:56:50Z</time><name>PT7504</name></trkpt>
<trkpt lat="51.808465" lon="03.935660"><ele>-4.3</ele><time>2023-12-06T12:56:50Z</time><name>PT7505</name></trkpt>
<trkpt lat="51.808472" lon="03.935662"><ele>-4.2</ele><time>2023-12-06T12:56:52Z</time><name>PT7506</name></trkpt>
<trkpt lat="51.808479" lon="03.935661"><ele>-4.3</ele><time>2023-12-06T12:56:53Z</time><name>PT7507</name></trkpt>
<trkpt lat="51.808487" lon="03.935659"><ele>-4.3</ele><time>2023-12-06T12:56:53Z</time><name>PT7508</name></trkpt>
<trkpt lat="51.808498" lon="03.935655"><ele>-4.3</ele><time>2023-12-06T12:56:55Z</time><name>PT7509</name></trkpt>
<trkpt lat="51.808511" lon="03.935654"><ele>-4.2</ele><time>2023-12-06T12:56:56Z</time><name>PT7510</name></trkpt>
<trkpt lat="51.808520" lon="03.935650"><ele>-4.2</ele><time>2023-12-06T12:56:56Z</time><name>PT7511</name></trkpt>
<trkpt lat="51.808529" lon="03.935648"><ele>-4.1</ele><time>2023-12-06T12:56:58Z</time><name>PT7512</name></trkpt>
<trkpt lat="51.808537" lon="03.935646"><ele>-4.1</ele><time>2023-12-06T12:56:59Z</time><name>PT7513</name></trkpt>
<trkpt lat="51.808547" lon="03.935641"><ele>-4.1</ele><time>2023-12-06T12:56:59Z</time><name>PT7514</name></trkpt>
<trkpt lat="51.808557" lon="03.935637"><ele>-4.1</ele><time>2023-12-06T12:57:01Z</time><name>PT7515</name></trkpt>
<trkpt lat="51.808568" lon="03.935633"><ele>-4</ele><time>2023-12-06T12:57:02Z</time><name>PT7516</name></trkpt>
<trkpt lat="51.808579" lon="03.935628"><ele>-4</ele><time>2023-12-06T12:57:02Z</time><name>PT7517</name></trkpt>
<trkpt lat="51.808588" lon="03.935627"><ele>-3.9</ele><time>2023-12-06T12:57:04Z</time><name>PT7518</name></trkpt>
<trkpt lat="51.808597" lon="03.935626"><ele>-4</ele><time>2023-12-06T12:57:05Z</time><name>PT7519</name></trkpt>
<trkpt lat="51.808603" lon="03.935622"><ele>-4</ele><time>2023-12-06T12:57:06Z</time><name>PT7520</name></trkpt>
<trkpt lat="51.808608" lon="03.935616"><ele>-4</ele><time>2023-12-06T12:57:07Z</time><name>PT7521</name></trkpt>
<trkpt lat="51.808615" lon="03.935614"><ele>-3.9</ele><time>2023-12-06T12:57:08Z</time><name>PT7522</name></trkpt>
<trkpt lat="51.808622" lon="03.935613"><ele>-3.7</ele><time>2023-12-06T12:57:08Z</time><name>PT7523</name></trkpt>
<trkpt lat="51.808632" lon="03.935610"><ele>-3.5</ele><time>2023-12-06T12:57:10Z</time><name>PT7524</name></trkpt>
<trkpt lat="51.808643" lon="03.935605"><ele>-3.3</ele><time>2023-12-06T12:57:11Z</time><name>PT7525</name></trkpt>
<trkpt lat="51.808650" lon="03.935601"><ele>-3.3</ele><time>2023-12-06T12:57:12Z</time><name>PT7526</name></trkpt>
<trkpt lat="51.808659" lon="03.935597"><ele>-3.3</ele><time>2023-12-06T12:57:13Z</time><name>PT7527</name></trkpt>
<trkpt lat="51.808670" lon="03.935597"><ele>-3.3</ele><time>2023-12-06T12:57:14Z</time><name>PT7528</name></trkpt>
<trkpt lat="51.808679" lon="03.935593"><ele>-3.2</ele><time>2023-12-06T12:57:15Z</time><name>PT7529</name></trkpt>
<trkpt lat="51.808687" lon="03.935585"><ele>-3.1</ele><time>2023-12-06T12:57:16Z</time><name>PT7530</name></trkpt>
<trkpt lat="51.808694" lon="03.935578"><ele>-3.1</ele><time>2023-12-06T12:57:17Z</time><name>PT7531</name></trkpt>
<trkpt lat="51.808700" lon="03.935569"><ele>-3.1</ele><time>2023-12-06T12:57:18Z</time><name>PT7532</name></trkpt>
<trkpt lat="51.808707" lon="03.935563"><ele>-3.1</ele><time>2023-12-06T12:57:19Z</time><name>PT7533</name></trkpt>
<trkpt lat="51.808715" lon="03.935557"><ele>-3</ele><time>2023-12-06T12:57:20Z</time><name>PT7534</name></trkpt>
<trkpt lat="51.808723" lon="03.935558"><ele>-3.2</ele><time>2023-12-06T12:57:20Z</time><name>PT7535</name></trkpt>
<trkpt lat="51.808733" lon="03.935555"><ele>-3.3</ele><time>2023-12-06T12:57:22Z</time><name>PT7536</name></trkpt>
<trkpt lat="51.808739" lon="03.935551"><ele>-3.2</ele><time>2023-12-06T12:57:23Z</time><name>PT7537</name></trkpt>
<trkpt lat="51.808749" lon="03.935551"><ele>-3.2</ele><time>2023-12-06T12:57:23Z</time><name>PT7538</name></trkpt>
<trkpt lat="51.808757" lon="03.935548"><ele>-3.4</ele><time>2023-12-06T12:57:25Z</time><name>PT7539</name></trkpt>
<trkpt lat="51.808765" lon="03.935545"><ele>-3</ele><time>2023-12-06T12:57:26Z</time><name>PT7540</name></trkpt>
<trkpt lat="51.808772" lon="03.935542"><ele>-3.1</ele><time>2023-12-06T12:57:26Z</time><name>PT7541</name></trkpt>
<trkpt lat="51.808776" lon="03.935540"><ele>-2.9</ele><time>2023-12-06T12:57:28Z</time><name>PT7542</name></trkpt>
<trkpt lat="51.808776" lon="03.935542"><ele>-2.9</ele><time>2023-12-06T12:57:29Z</time><name>PT7543</name></trkpt>
<trkpt lat="51.808777" lon="03.935543"><ele>-2.7</ele><time>2023-12-06T12:57:29Z</time><name>PT7544</name></trkpt>
<trkpt lat="51.808782" lon="03.935539"><ele>-2.7</ele><time>2023-12-06T12:57:32Z</time><name>PT7545</name></trkpt>
<trkpt lat="51.808791" lon="03.935534"><ele>-2.7</ele><time>2023-12-06T12:57:32Z</time><name>PT7546</name></trkpt>
<trkpt lat="51.808796" lon="03.935524"><ele>-2.8</ele><time>2023-12-06T12:57:34Z</time><name>PT7547</name></trkpt>
<trkpt lat="51.808801" lon="03.935516"><ele>-2.8</ele><time>2023-12-06T12:57:35Z</time><name>PT7548</name></trkpt>
<trkpt lat="51.808803" lon="03.935514"><ele>-2.7</ele><time>2023-12-06T12:57:35Z</time><name>PT7549</name></trkpt>
<trkpt lat="51.808812" lon="03.935512"><ele>-2.8</ele><time>2023-12-06T12:57:37Z</time><name>PT7550</name></trkpt>
<trkpt lat="51.808821" lon="03.935496"><ele>-2.8</ele><time>2023-12-06T12:57:38Z</time><name>PT7551</name></trkpt>
<trkpt lat="51.808829" lon="03.935493"><ele>-2.8</ele><time>2023-12-06T12:57:38Z</time><name>PT7552</name></trkpt>
<trkpt lat="51.808840" lon="03.935491"><ele>-2.6</ele><time>2023-12-06T12:57:40Z</time><name>PT7553</name></trkpt>
<trkpt lat="51.808848" lon="03.935489"><ele>-2.7</ele><time>2023-12-06T12:57:41Z</time><name>PT7554</name></trkpt>
<trkpt lat="51.808855" lon="03.935487"><ele>-2.5</ele><time>2023-12-06T12:57:41Z</time><name>PT7555</name></trkpt>
<trkpt lat="51.808863" lon="03.935484"><ele>-2.4</ele><time>2023-12-06T12:57:44Z</time><name>PT7556</name></trkpt>
<trkpt lat="51.808871" lon="03.935466"><ele>-2.4</ele><time>2023-12-06T12:57:44Z</time><name>PT7557</name></trkpt>
<trkpt lat="51.808876" lon="03.935455"><ele>-2.4</ele><time>2023-12-06T12:57:46Z</time><name>PT7558</name></trkpt>
<trkpt lat="51.808881" lon="03.935441"><ele>-2.3</ele><time>2023-12-06T12:57:47Z</time><name>PT7559</name></trkpt>
<trkpt lat="51.808885" lon="03.935424"><ele>-2.2</ele><time>2023-12-06T12:57:47Z</time><name>PT7560</name></trkpt>
<trkpt lat="51.808885" lon="03.935407"><ele>-2</ele><time>2023-12-06T12:57:49Z</time><name>PT7561</name></trkpt>
<trkpt lat="51.808888" lon="03.935390"><ele>-2.2</ele><time>2023-12-06T12:57:50Z</time><name>PT7562</name></trkpt>
<trkpt lat="51.808893" lon="03.935374"><ele>-2.1</ele><time>2023-12-06T12:57:50Z</time><name>PT7563</name></trkpt>
<trkpt lat="51.808896" lon="03.935361"><ele>-2.3</ele><time>2023-12-06T12:57:52Z</time><name>PT7564</name></trkpt>
<trkpt lat="51.808896" lon="03.935348"><ele>-2.4</ele><time>2023-12-06T12:57:53Z</time><name>PT7565</name></trkpt>
<trkpt lat="51.808898" lon="03.935332"><ele>-2.5</ele><time>2023-12-06T12:57:53Z</time><name>PT7566</name></trkpt>
<trkpt lat="51.808902" lon="03.935320"><ele>-2.5</ele><time>2023-12-06T12:57:55Z</time><name>PT7567</name></trkpt>
<trkpt lat="51.808909" lon="03.935309"><ele>-2.5</ele><time>2023-12-06T12:57:56Z</time><name>PT7568</name></trkpt>
<trkpt lat="51.808918" lon="03.935301"><ele>-2.4</ele><time>2023-12-06T12:57:56Z</time><name>PT7569</name></trkpt>
<trkpt lat="51.808929" lon="03.935295"><ele>-2.5</ele><time>2023-12-06T12:57:58Z</time><name>PT7570</name></trkpt>
<trkpt lat="51.808937" lon="03.935288"><ele>-2.6</ele><time>2023-12-06T12:57:59Z</time><name>PT7571</name></trkpt>
<trkpt lat="51.808948" lon="03.935283"><ele>-2.7</ele><time>2023-12-06T12:57:59Z</time><name>PT7572</name></trkpt>
<trkpt lat="51.808959" lon="03.935278"><ele>-2.5</ele><time>2023-12-06T12:58:01Z</time><name>PT7573</name></trkpt>
<trkpt lat="51.808970" lon="03.935269"><ele>-2.4</ele><time>2023-12-06T12:58:02Z</time><name>PT7574</name></trkpt>
<trkpt lat="51.808980" lon="03.935259"><ele>-2.4</ele><time>2023-12-06T12:58:02Z</time><name>PT7575</name></trkpt>
<trkpt lat="51.808992" lon="03.935250"><ele>-2.4</ele><time>2023-12-06T12:58:04Z</time><name>PT7576</name></trkpt>
<trkpt lat="51.809000" lon="03.935243"><ele>-2.3</ele><time>2023-12-06T12:58:05Z</time><name>PT7577</name></trkpt>
<trkpt lat="51.809008" lon="03.935238"><ele>-2.2</ele><time>2023-12-06T12:58:05Z</time><name>PT7578</name></trkpt>
<trkpt lat="51.809019" lon="03.935232"><ele>-2.4</ele><time>2023-12-06T12:58:07Z</time><name>PT7579</name></trkpt>
<trkpt lat="51.809029" lon="03.935225"><ele>-2.4</ele><time>2023-12-06T12:58:08Z</time><name>PT7580</name></trkpt>
<trkpt lat="51.809042" lon="03.935221"><ele>-2.4</ele><time>2023-12-06T12:58:08Z</time><name>PT7581</name></trkpt>
<trkpt lat="51.809050" lon="03.935215"><ele>-2.6</ele><time>2023-12-06T12:58:10Z</time><name>PT7582</name></trkpt>
<trkpt lat="51.809058" lon="03.935210"><ele>-2.6</ele><time>2023-12-06T12:58:11Z</time><name>PT7583</name></trkpt>
<trkpt lat="51.809064" lon="03.935204"><ele>-2.5</ele><time>2023-12-06T12:58:11Z</time><name>PT7584</name></trkpt>
<trkpt lat="51.809073" lon="03.935200"><ele>-2.4</ele><time>2023-12-06T12:58:13Z</time><name>PT7585</name></trkpt>
<trkpt lat="51.809082" lon="03.935194"><ele>-2.4</ele><time>2023-12-06T12:58:14Z</time><name>PT7586</name></trkpt>
<trkpt lat="51.809091" lon="03.935190"><ele>-2.5</ele><time>2023-12-06T12:58:14Z</time><name>PT7587</name></trkpt>
<trkpt lat="51.809097" lon="03.935184"><ele>-2.5</ele><time>2023-12-06T12:58:16Z</time><name>PT7588</name></trkpt>
<trkpt lat="51.809104" lon="03.935176"><ele>-2.6</ele><time>2023-12-06T12:58:17Z</time><name>PT7589</name></trkpt>
<trkpt lat="51.809112" lon="03.935171"><ele>-2.4</ele><time>2023-12-06T12:58:17Z</time><name>PT7590</name></trkpt>
<trkpt lat="51.809123" lon="03.935165"><ele>-2.5</ele><time>2023-12-06T12:58:19Z</time><name>PT7591</name></trkpt>
<trkpt lat="51.809131" lon="03.935160"><ele>-2.5</ele><time>2023-12-06T12:58:20Z</time><name>PT7592</name></trkpt>
<trkpt lat="51.809142" lon="03.935154"><ele>-2.4</ele><time>2023-12-06T12:58:20Z</time><name>PT7593</name></trkpt>
<trkpt lat="51.809151" lon="03.935150"><ele>-2.4</ele><time>2023-12-06T12:58:22Z</time><name>PT7594</name></trkpt>
<trkpt lat="51.809158" lon="03.935147"><ele>-2.3</ele><time>2023-12-06T12:58:23Z</time><name>PT7595</name></trkpt>
<trkpt lat="51.809164" lon="03.935145"><ele>-2.2</ele><time>2023-12-06T12:58:23Z</time><name>PT7596</name></trkpt>
<trkpt lat="51.809171" lon="03.935141"><ele>-2.3</ele><time>2023-12-06T12:58:25Z</time><name>PT7597</name></trkpt>
<trkpt lat="51.809178" lon="03.935138"><ele>-2.3</ele><time>2023-12-06T12:58:26Z</time><name>PT7598</name></trkpt>
<trkpt lat="51.809184" lon="03.935136"><ele>-2.1</ele><time>2023-12-06T12:58:26Z</time><name>PT7599</name></trkpt>
<trkpt lat="51.809189" lon="03.935135"><ele>-2</ele><time>2023-12-06T12:58:28Z</time><name>PT7600</name></trkpt></trkseg>
<trkseg>
<trkpt lat="51.809231" lon="03.935102"><ele>1.7</ele><time>2023-12-06T13:42:35Z</time><name>PT7601</name></trkpt>
<trkpt lat="51.809234" lon="03.935101"><ele>1.7</ele><time>2023-12-06T13:42:35Z</time><name>PT7602</name></trkpt>
<trkpt lat="51.809239" lon="03.935099"><ele>1.8</ele><time>2023-12-06T13:43:08Z</time><name>PT7603</name></trkpt>
<trkpt lat="51.809247" lon="03.935099"><ele>1.7</ele><time>2023-12-06T13:43:09Z</time><name>PT7604</name></trkpt>
<trkpt lat="51.809256" lon="03.935097"><ele>1.7</ele><time>2023-12-06T13:43:11Z</time><name>PT7605</name></trkpt>
<trkpt lat="51.809266" lon="03.935099"><ele>1.7</ele><time>2023-12-06T13:43:11Z</time><name>PT7606</name></trkpt>
<trkpt lat="51.809271" lon="03.935097"><ele>1.7</ele><time>2023-12-06T13:43:12Z</time><name>PT7607</name></trkpt>
<trkpt lat="51.809280" lon="03.935097"><ele>1.9</ele><time>2023-12-06T13:43:14Z</time><name>PT7608</name></trkpt>
<trkpt lat="51.809286" lon="03.935095"><ele>2.1</ele><time>2023-12-06T13:43:14Z</time><name>PT7609</name></trkpt>
<trkpt lat="51.809294" lon="03.935092"><ele>2.1</ele><time>2023-12-06T13:43:15Z</time><name>PT7610</name></trkpt>
<trkpt lat="51.809302" lon="03.935085"><ele>2</ele><time>2023-12-06T13:43:17Z</time><name>PT7611</name></trkpt>
<trkpt lat="51.809308" lon="03.935075"><ele>1.9</ele><time>2023-12-06T13:43:17Z</time><name>PT7612</name></trkpt>
<trkpt lat="51.809312" lon="03.935065"><ele>1.7</ele><time>2023-12-06T13:43:18Z</time><name>PT7613</name></trkpt>
<trkpt lat="51.809320" lon="03.935062"><ele>1.5</ele><time>2023-12-06T13:43:20Z</time><name>PT7614</name></trkpt>
<trkpt lat="51.809330" lon="03.935061"><ele>1.6</ele><time>2023-12-06T13:43:20Z</time><name>PT7615</name></trkpt>
<trkpt lat="51.809341" lon="03.935055"><ele>1.4</ele><time>2023-12-06T13:43:21Z</time><name>PT7616</name></trkpt>
<trkpt lat="51.809349" lon="03.935048"><ele>1.6</ele><time>2023-12-06T13:43:23Z</time><name>PT7617</name></trkpt>
<trkpt lat="51.809356" lon="03.935043"><ele>1.7</ele><time>2023-12-06T13:43:23Z</time><name>PT7618</name></trkpt>
<trkpt lat="51.809363" lon="03.935039"><ele>1.7</ele><time>2023-12-06T13:43:24Z</time><name>PT7619</name></trkpt>
<trkpt lat="51.809369" lon="03.935033"><ele>1.7</ele><time>2023-12-06T13:43:26Z</time><name>PT7620</name></trkpt>
<trkpt lat="51.809378" lon="03.935029"><ele>1.7</ele><time>2023-12-06T13:43:26Z</time><name>PT7621</name></trkpt>
<trkpt lat="51.809389" lon="03.935024"><ele>1.7</ele><time>2023-12-06T13:43:27Z</time><name>PT7622</name></trkpt>
<trkpt lat="51.809397" lon="03.935019"><ele>1.6</ele><time>2023-12-06T13:43:29Z</time><name>PT7623</name></trkpt>
<trkpt lat="51.809408" lon="03.935017"><ele>1.6</ele><time>2023-12-06T13:43:29Z</time><name>PT7624</name></trkpt>
<trkpt lat="51.809414" lon="03.935017"><ele>1.6</ele><time>2023-12-06T13:43:30Z</time><name>PT7625</name></trkpt>
<trkpt lat="51.809420" lon="03.935015"><ele>1.5</ele><time>2023-12-06T13:43:32Z</time><name>PT7626</name></trkpt>
<trkpt lat="51.809424" lon="03.935011"><ele>1.5</ele><time>2023-12-06T13:43:32Z</time><name>PT7627</name></trkpt>
<trkpt lat="51.809426" lon="03.935005"><ele>1.4</ele><time>2023-12-06T13:43:33Z</time><name>PT7628</name></trkpt>
<trkpt lat="51.809431" lon="03.935002"><ele>1.4</ele><time>2023-12-06T13:43:35Z</time><name>PT7629</name></trkpt>
<trkpt lat="51.809436" lon="03.935004"><ele>1.4</ele><time>2023-12-06T13:43:35Z</time><name>PT7630</name></trkpt>
<trkpt lat="51.809436" lon="03.935002"><ele>1.5</ele><time>2023-12-06T13:43:36Z</time><name>PT7631</name></trkpt>
<trkpt lat="51.809436" lon="03.935001"><ele>1.6</ele><time>2023-12-06T13:43:38Z</time><name>PT7632</name></trkpt>
<trkpt lat="51.809439" lon="03.935000"><ele>1.5</ele><time>2023-12-06T13:43:39Z</time><name>PT7633</name></trkpt>
<trkpt lat="51.809446" lon="03.934996"><ele>1.4</ele><time>2023-12-06T13:43:41Z</time><name>PT7634</name></trkpt>
<trkpt lat="51.809451" lon="03.934996"><ele>1.4</ele><time>2023-12-06T13:43:41Z</time><name>PT7635</name></trkpt>
<trkpt lat="51.809456" lon="03.934994"><ele>1.5</ele><time>2023-12-06T13:43:42Z</time><name>PT7636</name></trkpt>
<trkpt lat="51.809463" lon="03.934989"><ele>1.7</ele><time>2023-12-06T13:43:47Z</time><name>PT7637</name></trkpt>
<trkpt lat="51.809475" lon="03.934976"><ele>1.7</ele><time>2023-12-06T13:43:47Z</time><name>PT7638</name></trkpt>
<trkpt lat="51.809486" lon="03.934960"><ele>1.5</ele><time>2023-12-06T13:43:48Z</time><name>PT7639</name></trkpt>
<trkpt lat="51.809494" lon="03.934955"><ele>1.4</ele><time>2023-12-06T13:43:50Z</time><name>PT7640</name></trkpt>
<trkpt lat="51.809504" lon="03.934949"><ele>1.4</ele><time>2023-12-06T13:43:50Z</time><name>PT7641</name></trkpt>
<trkpt lat="51.809511" lon="03.934944"><ele>1.3</ele><time>2023-12-06T13:43:51Z</time><name>PT7642</name></trkpt>
<trkpt lat="51.809518" lon="03.934936"><ele>1.3</ele><time>2023-12-06T13:43:53Z</time><name>PT7643</name></trkpt>
<trkpt lat="51.809523" lon="03.934921"><ele>1.3</ele><time>2023-12-06T13:43:53Z</time><name>PT7644</name></trkpt>
<trkpt lat="51.809526" lon="03.934909"><ele>1.4</ele><time>2023-12-06T13:43:54Z</time><name>PT7645</name></trkpt>
<trkpt lat="51.809531" lon="03.934902"><ele>1.2</ele><time>2023-12-06T13:43:56Z</time><name>PT7646</name></trkpt>
<trkpt lat="51.809534" lon="03.934893"><ele>1.1</ele><time>2023-12-06T13:43:56Z</time><name>PT7647</name></trkpt>
<trkpt lat="51.809540" lon="03.934882"><ele>1.2</ele><time>2023-12-06T13:43:58Z</time><name>PT7648</name></trkpt>
<trkpt lat="51.809544" lon="03.934866"><ele>1</ele><time>2023-12-06T13:43:59Z</time><name>PT7649</name></trkpt>
<trkpt lat="51.809550" lon="03.934854"><ele>1</ele><time>2023-12-06T13:43:59Z</time><name>PT7650</name></trkpt>
<trkpt lat="51.809553" lon="03.934841"><ele>1.2</ele><time>2023-12-06T13:44:00Z</time><name>PT7651</name></trkpt>
<trkpt lat="51.809565" lon="03.934832"><ele>1.3</ele><time>2023-12-06T13:44:02Z</time><name>PT7652</name></trkpt>
<trkpt lat="51.809576" lon="03.934827"><ele>1.3</ele><time>2023-12-06T13:44:02Z</time><name>PT7653</name></trkpt>
<trkpt lat="51.809587" lon="03.934820"><ele>1.2</ele><time>2023-12-06T13:44:03Z</time><name>PT7654</name></trkpt>
<trkpt lat="51.809597" lon="03.934817"><ele>1.2</ele><time>2023-12-06T13:44:05Z</time><name>PT7655</name></trkpt>
<trkpt lat="51.809606" lon="03.934810"><ele>0.9</ele><time>2023-12-06T13:44:05Z</time><name>PT7656</name></trkpt>
<trkpt lat="51.809613" lon="03.934803"><ele>1.1</ele><time>2023-12-06T13:44:06Z</time><name>PT7657</name></trkpt>
<trkpt lat="51.809623" lon="03.934797"><ele>1.1</ele><time>2023-12-06T13:44:08Z</time><name>PT7658</name></trkpt>
<trkpt lat="51.809632" lon="03.934790"><ele>0.9</ele><time>2023-12-06T13:44:08Z</time><name>PT7659</name></trkpt>
<trkpt lat="51.809642" lon="03.934782"><ele>0.8</ele><time>2023-12-06T13:44:09Z</time><name>PT7660</name></trkpt>
<trkpt lat="51.809651" lon="03.934774"><ele>0.7</ele><time>2023-12-06T13:44:11Z</time><name>PT7661</name></trkpt>
<trkpt lat="51.809660" lon="03.934768"><ele>0.7</ele><time>2023-12-06T13:44:11Z</time><name>PT7662</name></trkpt>
<trkpt lat="51.809668" lon="03.934764"><ele>0.6</ele><time>2023-12-06T13:44:12Z</time><name>PT7663</name></trkpt>
<trkpt lat="51.809678" lon="03.934759"><ele>0.7</ele><time>2023-12-06T13:44:14Z</time><name>PT7664</name></trkpt>
<trkpt lat="51.809685" lon="03.934753"><ele>0.7</ele><time>2023-12-06T13:44:14Z</time><name>PT7665</name></trkpt>
<trkpt lat="51.809694" lon="03.934750"><ele>0.8</ele><time>2023-12-06T13:44:15Z</time><name>PT7666</name></trkpt>
<trkpt lat="51.809704" lon="03.934746"><ele>0.8</ele><time>2023-12-06T13:44:17Z</time><name>PT7667</name></trkpt>
<trkpt lat="51.809712" lon="03.934743"><ele>0.9</ele><time>2023-12-06T13:44:17Z</time><name>PT7668</name></trkpt>
<trkpt lat="51.809722" lon="03.934741"><ele>0.9</ele><time>2023-12-06T13:44:18Z</time><name>PT7669</name></trkpt>
<trkpt lat="51.809732" lon="03.934738"><ele>1</ele><time>2023-12-06T13:44:20Z</time><name>PT7670</name></trkpt>
<trkpt lat="51.809740" lon="03.934731"><ele>1</ele><time>2023-12-06T13:44:20Z</time><name>PT7671</name></trkpt>
<trkpt lat="51.809745" lon="03.934725"><ele>0.9</ele><time>2023-12-06T13:44:21Z</time><name>PT7672</name></trkpt>
<trkpt lat="51.809748" lon="03.934723"><ele>0.7</ele><time>2023-12-06T13:44:23Z</time><name>PT7673</name></trkpt>
<trkpt lat="51.809749" lon="03.934721"><ele>0.7</ele><time>2023-12-06T13:44:23Z</time><name>PT7674</name></trkpt>
<trkpt lat="51.809749" lon="03.934719"><ele>0.7</ele><time>2023-12-06T13:44:24Z</time><name>PT7675</name></trkpt>
<trkpt lat="51.809749" lon="03.934714"><ele>0.5</ele><time>2023-12-06T13:44:32Z</time><name>PT7676</name></trkpt>
<trkpt lat="51.809751" lon="03.934709"><ele>0.5</ele><time>2023-12-06T13:44:33Z</time><name>PT7677</name></trkpt>
<trkpt lat="51.809752" lon="03.934706"><ele>0.4</ele><time>2023-12-06T13:44:35Z</time><name>PT7678</name></trkpt>
<trkpt lat="51.809753" lon="03.934704"><ele>0.3</ele><time>2023-12-06T13:44:35Z</time><name>PT7679</name></trkpt>
<trkpt lat="51.809756" lon="03.934701"><ele>0.5</ele><time>2023-12-06T13:44:52Z</time><name>PT7680</name></trkpt>
<trkpt lat="51.809769" lon="03.934693"><ele>0.4</ele><time>2023-12-06T13:44:53Z</time><name>PT7681</name></trkpt>
<trkpt lat="51.809783" lon="03.934683"><ele>0.4</ele><time>2023-12-06T13:44:53Z</time><name>PT7682</name></trkpt>
<trkpt lat="51.809793" lon="03.934675"><ele>0.6</ele><time>2023-12-06T13:44:54Z</time><name>PT7683</name></trkpt>
<trkpt lat="51.809801" lon="03.934671"><ele>0.4</ele><time>2023-12-06T13:44:56Z</time><name>PT7684</name></trkpt>
<trkpt lat="51.809812" lon="03.934667"><ele>0.3</ele><time>2023-12-06T13:44:56Z</time><name>PT7685</name></trkpt>
<trkpt lat="51.809825" lon="03.934669"><ele>0.2</ele><time>2023-12-06T13:44:57Z</time><name>PT7686</name></trkpt>
<trkpt lat="51.809837" lon="03.934668"><ele>0.2</ele><time>2023-12-06T13:44:59Z</time><name>PT7687</name></trkpt>
<trkpt lat="51.809849" lon="03.934668"><ele>0.3</ele><time>2023-12-06T13:44:59Z</time><name>PT7688</name></trkpt>
<trkpt lat="51.809861" lon="03.934669"><ele>0.2</ele><time>2023-12-06T13:45:00Z</time><name>PT7689</name></trkpt>
<trkpt lat="51.809871" lon="03.934666"><ele>0.2</ele><time>2023-12-06T13:45:02Z</time><name>PT7690</name></trkpt>
<trkpt lat="51.809884" lon="03.934668"><ele>0.2</ele><time>2023-12-06T13:45:02Z</time><name>PT7691</name></trkpt>
<trkpt lat="51.809896" lon="03.934667"><ele>0</ele><time>2023-12-06T13:45:03Z</time><name>PT7692</name></trkpt>
<trkpt lat="51.809906" lon="03.934665"><ele>0.1</ele><time>2023-12-06T13:45:05Z</time><name>PT7693</name></trkpt>
<trkpt lat="51.809913" lon="03.934665"><ele>0.1</ele><time>2023-12-06T13:45:05Z</time><name>PT7694</name></trkpt>
<trkpt lat="51.809921" lon="03.934666"><ele>0.1</ele><time>2023-12-06T13:45:06Z</time><name>PT7695</name></trkpt>
<trkpt lat="51.809928" lon="03.934663"><ele>0.1</ele><time>2023-12-06T13:45:08Z</time><name>PT7696</name></trkpt>
<trkpt lat="51.809938" lon="03.934661"><ele>0</ele><time>2023-12-06T13:45:08Z</time><name>PT7697</name></trkpt>
<trkpt lat="51.809948" lon="03.934661"><ele>0</ele><time>2023-12-06T13:45:09Z</time><name>PT7698</name></trkpt>
<trkpt lat="51.809958" lon="03.934665"><ele>0.1</ele><time>2023-12-06T13:45:11Z</time><name>PT7699</name></trkpt>
<trkpt lat="51.809969" lon="03.934667"><ele>0.2</ele><time>2023-12-06T13:45:11Z</time><name>PT7700</name></trkpt>
<trkpt lat="51.809976" lon="03.934666"><ele>0.3</ele><time>2023-12-06T13:45:12Z</time><name>PT7701</name></trkpt>
<trkpt lat="51.809984" lon="03.934666"><ele>0.3</ele><time>2023-12-06T13:45:14Z</time><name>PT7702</name></trkpt>
<trkpt lat="51.809993" lon="03.934661"><ele>0.4</ele><time>2023-12-06T13:45:14Z</time><name>PT7703</name></trkpt>
<trkpt lat="51.810005" lon="03.934659"><ele>0.2</ele><time>2023-12-06T13:45:15Z</time><name>PT7704</name></trkpt>
<trkpt lat="51.810017" lon="03.934656"><ele>0.3</ele><time>2023-12-06T13:45:17Z</time><name>PT7705</name></trkpt>
<trkpt lat="51.810028" lon="03.934654"><ele>0.3</ele><time>2023-12-06T13:45:17Z</time><name>PT7706</name></trkpt>
<trkpt lat="51.810040" lon="03.934652"><ele>0.2</ele><time>2023-12-06T13:45:18Z</time><name>PT7707</name></trkpt>
<trkpt lat="51.810050" lon="03.934649"><ele>0.2</ele><time>2023-12-06T13:45:20Z</time><name>PT7708</name></trkpt>
<trkpt lat="51.810059" lon="03.934648"><ele>0.2</ele><time>2023-12-06T13:45:20Z</time><name>PT7709</name></trkpt>
<trkpt lat="51.810065" lon="03.934644"><ele>0.1</ele><time>2023-12-06T13:45:21Z</time><name>PT7710</name></trkpt>
<trkpt lat="51.810072" lon="03.934636"><ele>0</ele><time>2023-12-06T13:45:23Z</time><name>PT7711</name></trkpt>
<trkpt lat="51.810080" lon="03.934630"><ele>0</ele><time>2023-12-06T13:45:23Z</time><name>PT7712</name></trkpt>
<trkpt lat="51.810086" lon="03.934631"><ele>0</ele><time>2023-12-06T13:45:24Z</time><name>PT7713</name></trkpt>
<trkpt lat="51.810091" lon="03.934635"><ele>0</ele><time>2023-12-06T13:45:26Z</time><name>PT7714</name></trkpt>
<trkpt lat="51.810095" lon="03.934639"><ele>0.1</ele><time>2023-12-06T13:45:26Z</time><name>PT7715</name></trkpt>
<trkpt lat="51.810102" lon="03.934643"><ele>0.1</ele><time>2023-12-06T13:45:27Z</time><name>PT7716</name></trkpt>
<trkpt lat="51.810111" lon="03.934642"><ele>0</ele><time>2023-12-06T13:45:29Z</time><name>PT7717</name></trkpt>
<trkpt lat="51.810121" lon="03.934640"><ele>0</ele><time>2023-12-06T13:45:29Z</time><name>PT7718</name></trkpt>
<trkpt lat="51.810130" lon="03.934637"><ele>0</ele><time>2023-12-06T13:45:30Z</time><name>PT7719</name></trkpt>
<trkpt lat="51.810139" lon="03.934631"><ele>0</ele><time>2023-12-06T13:45:32Z</time><name>PT7720</name></trkpt>
<trkpt lat="51.810148" lon="03.934623"><ele>0.2</ele><time>2023-12-06T13:45:32Z</time><name>PT7721</name></trkpt>
<trkpt lat="51.810158" lon="03.934616"><ele>0</ele><time>2023-12-06T13:45:33Z</time><name>PT7722</name></trkpt>
<trkpt lat="51.810167" lon="03.934609"><ele>0.1</ele><time>2023-12-06T13:45:35Z</time><name>PT7723</name></trkpt>
<trkpt lat="51.810177" lon="03.934602"><ele>0</ele><time>2023-12-06T13:45:35Z</time><name>PT7724</name></trkpt>
<trkpt lat="51.810189" lon="03.934595"><ele>0.2</ele><time>2023-12-06T13:45:36Z</time><name>PT7725</name></trkpt>
<trkpt lat="51.810198" lon="03.934588"><ele>0.2</ele><time>2023-12-06T13:45:38Z</time><name>PT7726</name></trkpt>
<trkpt lat="51.810208" lon="03.934580"><ele>0.3</ele><time>2023-12-06T13:45:38Z</time><name>PT7727</name></trkpt>
<trkpt lat="51.810221" lon="03.934570"><ele>0.2</ele><time>2023-12-06T13:45:39Z</time><name>PT7728</name></trkpt>
<trkpt lat="51.810232" lon="03.934560"><ele>0.2</ele><time>2023-12-06T13:45:41Z</time><name>PT7729</name></trkpt>
<trkpt lat="51.810244" lon="03.934554"><ele>0.1</ele><time>2023-12-06T13:45:41Z</time><name>PT7730</name></trkpt>
<trkpt lat="51.810252" lon="03.934549"><ele>0</ele><time>2023-12-06T13:45:42Z</time><name>PT7731</name></trkpt>
<trkpt lat="51.810256" lon="03.934547"><ele>0</ele><time>2023-12-06T13:45:44Z</time><name>PT7732</name></trkpt>
<trkpt lat="51.810258" lon="03.934546"><ele>0</ele><time>2023-12-06T13:45:44Z</time><name>PT7733</name></trkpt>
<trkpt lat="51.810261" lon="03.934540"><ele>0</ele><time>2023-12-06T13:45:45Z</time><name>PT7734</name></trkpt>
<trkpt lat="51.810266" lon="03.934529"><ele>0.1</ele><time>2023-12-06T13:45:47Z</time><name>PT7735</name></trkpt>
<trkpt lat="51.810272" lon="03.934519"><ele>0</ele><time>2023-12-06T13:45:47Z</time><name>PT7736</name></trkpt>
<trkpt lat="51.810278" lon="03.934511"><ele>0</ele><time>2023-12-06T13:45:48Z</time><name>PT7737</name></trkpt>
<trkpt lat="51.810283" lon="03.934503"><ele>0</ele><time>2023-12-06T13:45:50Z</time><name>PT7738</name></trkpt>
<trkpt lat="51.810291" lon="03.934497"><ele>0.1</ele><time>2023-12-06T13:45:50Z</time><name>PT7739</name></trkpt>
<trkpt lat="51.810301" lon="03.934490"><ele>0.2</ele><time>2023-12-06T13:45:51Z</time><name>PT7740</name></trkpt>
<trkpt lat="51.810311" lon="03.934485"><ele>0.2</ele><time>2023-12-06T13:45:53Z</time><name>PT7741</name></trkpt>
<trkpt lat="51.810322" lon="03.934483"><ele>0.2</ele><time>2023-12-06T13:45:53Z</time><name>PT7742</name></trkpt>
<trkpt lat="51.810332" lon="03.934480"><ele>0.3</ele><time>2023-12-06T13:45:54Z</time><name>PT7743</name></trkpt>
<trkpt lat="51.810342" lon="03.934478"><ele>0.2</ele><time>2023-12-06T13:45:56Z</time><name>PT7744</name></trkpt>
<trkpt lat="51.810353" lon="03.934473"><ele>0.3</ele><time>2023-12-06T13:45:56Z</time><name>PT7745</name></trkpt>
<trkpt lat="51.810363" lon="03.934469"><ele>0.3</ele><time>2023-12-06T13:45:57Z</time><name>PT7746</name></trkpt>
<trkpt lat="51.810372" lon="03.934464"><ele>0.1</ele><time>2023-12-06T13:45:59Z</time><name>PT7747</name></trkpt>
<trkpt lat="51.810380" lon="03.934460"><ele>0</ele><time>2023-12-06T13:45:59Z</time><name>PT7748</name></trkpt>
<trkpt lat="51.810390" lon="03.934456"><ele>0</ele><time>2023-12-06T13:46:01Z</time><name>PT7749</name></trkpt>
<trkpt lat="51.810401" lon="03.934453"><ele>0</ele><time>2023-12-06T13:46:02Z</time><name>PT7750</name></trkpt>
<trkpt lat="51.810412" lon="03.934449"><ele>0</ele><time>2023-12-06T13:46:02Z</time><name>PT7751</name></trkpt>
<trkpt lat="51.810424" lon="03.934445"><ele>0.1</ele><time>2023-12-06T13:46:03Z</time><name>PT7752</name></trkpt>
<trkpt lat="51.810434" lon="03.934439"><ele>0.2</ele><time>2023-12-06T13:46:05Z</time><name>PT7753</name></trkpt>
<trkpt lat="51.810444" lon="03.934432"><ele>0.3</ele><time>2023-12-06T13:46:05Z</time><name>PT7754</name></trkpt>
<trkpt lat="51.810453" lon="03.934424"><ele>0.2</ele><time>2023-12-06T13:46:06Z</time><name>PT7755</name></trkpt>
<trkpt lat="51.810463" lon="03.934419"><ele>0.2</ele><time>2023-12-06T13:46:08Z</time><name>PT7756</name></trkpt>
<trkpt lat="51.810472" lon="03.934415"><ele>0.2</ele><time>2023-12-06T13:46:08Z</time><name>PT7757</name></trkpt>
<trkpt lat="51.810482" lon="03.934411"><ele>0.2</ele><time>2023-12-06T13:46:09Z</time><name>PT7758</name></trkpt>
<trkpt lat="51.810492" lon="03.934407"><ele>0.1</ele><time>2023-12-06T13:46:11Z</time><name>PT7759</name></trkpt>
<trkpt lat="51.810503" lon="03.934402"><ele>0.2</ele><time>2023-12-06T13:46:11Z</time><name>PT7760</name></trkpt>
<trkpt lat="51.810515" lon="03.934397"><ele>0.3</ele><time>2023-12-06T13:46:12Z</time><name>PT7761</name></trkpt>
<trkpt lat="51.810526" lon="03.934390"><ele>0.2</ele><time>2023-12-06T13:46:14Z</time><name>PT7762</name></trkpt>
<trkpt lat="51.810538" lon="03.934384"><ele>0.3</ele><time>2023-12-06T13:46:14Z</time><name>PT7763</name></trkpt>
<trkpt lat="51.810549" lon="03.934376"><ele>0.2</ele><time>2023-12-06T13:46:15Z</time><name>PT7764</name></trkpt>
<trkpt lat="51.810557" lon="03.934369"><ele>0.2</ele><time>2023-12-06T13:46:17Z</time><name>PT7765</name></trkpt>
<trkpt lat="51.810566" lon="03.934362"><ele>0.2</ele><time>2023-12-06T13:46:17Z</time><name>PT7766</name></trkpt>
<trkpt lat="51.810577" lon="03.934355"><ele>0.3</ele><time>2023-12-06T13:46:18Z</time><name>PT7767</name></trkpt>
<trkpt lat="51.810587" lon="03.934348"><ele>0.3</ele><time>2023-12-06T13:46:20Z</time><name>PT7768</name></trkpt>
<trkpt lat="51.810597" lon="03.934342"><ele>0.2</ele><time>2023-12-06T13:46:20Z</time><name>PT7769</name></trkpt>
<trkpt lat="51.810607" lon="03.934336"><ele>0.2</ele><time>2023-12-06T13:46:21Z</time><name>PT7770</name></trkpt>
<trkpt lat="51.810617" lon="03.934330"><ele>0.2</ele><time>2023-12-06T13:46:23Z</time><name>PT7771</name></trkpt>
<trkpt lat="51.810628" lon="03.934325"><ele>0.2</ele><time>2023-12-06T13:46:23Z</time><name>PT7772</name></trkpt>
<trkpt lat="51.810638" lon="03.934317"><ele>0.2</ele><time>2023-12-06T13:46:24Z</time><name>PT7773</name></trkpt>
<trkpt lat="51.810648" lon="03.934310"><ele>0.2</ele><time>2023-12-06T13:46:26Z</time><name>PT7774</name></trkpt>
<trkpt lat="51.810659" lon="03.934302"><ele>0.2</ele><time>2023-12-06T13:46:26Z</time><name>PT7775</name></trkpt>
<trkpt lat="51.810667" lon="03.934296"><ele>0.2</ele><time>2023-12-06T13:46:27Z</time><name>PT7776</name></trkpt>
<trkpt lat="51.810676" lon="03.934289"><ele>0.2</ele><time>2023-12-06T13:46:29Z</time><name>PT7777</name></trkpt>
<trkpt lat="51.810684" lon="03.934282"><ele>0.2</ele><time>2023-12-06T13:46:29Z</time><name>PT7778</name></trkpt>
<trkpt lat="51.810694" lon="03.934277"><ele>0.1</ele><time>2023-12-06T13:46:30Z</time><name>PT7779</name></trkpt>
<trkpt lat="51.810705" lon="03.934271"><ele>0.1</ele><time>2023-12-06T13:46:32Z</time><name>PT7780</name></trkpt>
<trkpt lat="51.810716" lon="03.934265"><ele>0.1</ele><time>2023-12-06T13:46:32Z</time><name>PT7781</name></trkpt>
<trkpt lat="51.810726" lon="03.934257"><ele>0.2</ele><time>2023-12-06T13:46:33Z</time><name>PT7782</name></trkpt>
<trkpt lat="51.810734" lon="03.934248"><ele>0.4</ele><time>2023-12-06T13:46:35Z</time><name>PT7783</name></trkpt>
<trkpt lat="51.810743" lon="03.934241"><ele>0.5</ele><time>2023-12-06T13:46:35Z</time><name>PT7784</name></trkpt>
<trkpt lat="51.810753" lon="03.934233"><ele>0.6</ele><time>2023-12-06T13:46:36Z</time><name>PT7785</name></trkpt>
<trkpt lat="51.810763" lon="03.934227"><ele>0.4</ele><time>2023-12-06T13:46:38Z</time><name>PT7786</name></trkpt>
<trkpt lat="51.810773" lon="03.934221"><ele>0.5</ele><time>2023-12-06T13:46:38Z</time><name>PT7787</name></trkpt>
<trkpt lat="51.810783" lon="03.934218"><ele>0.5</ele><time>2023-12-06T13:46:40Z</time><name>PT7788</name></trkpt>
<trkpt lat="51.810794" lon="03.934215"><ele>0.6</ele><time>2023-12-06T13:46:41Z</time><name>PT7789</name></trkpt>
<trkpt lat="51.810804" lon="03.934209"><ele>0.5</ele><time>2023-12-06T13:46:41Z</time><name>PT7790</name></trkpt>
<trkpt lat="51.810815" lon="03.934204"><ele>0.5</ele><time>2023-12-06T13:46:42Z</time><name>PT7791</name></trkpt>
<trkpt lat="51.810825" lon="03.934199"><ele>0.5</ele><time>2023-12-06T13:46:44Z</time><name>PT7792</name></trkpt>
<trkpt lat="51.810835" lon="03.934191"><ele>0.4</ele><time>2023-12-06T13:46:44Z</time><name>PT7793</name></trkpt>
<trkpt lat="51.810845" lon="03.934184"><ele>0.3</ele><time>2023-12-06T13:46:46Z</time><name>PT7794</name></trkpt>
<trkpt lat="51.810855" lon="03.934174"><ele>0.5</ele><time>2023-12-06T13:46:47Z</time><name>PT7795</name></trkpt>
<trkpt lat="51.810864" lon="03.934166"><ele>0.6</ele><time>2023-12-06T13:46:47Z</time><name>PT7796</name></trkpt>
<trkpt lat="51.810872" lon="03.934157"><ele>0.7</ele><time>2023-12-06T13:46:48Z</time><name>PT7797</name></trkpt>
<trkpt lat="51.810881" lon="03.934148"><ele>0.7</ele><time>2023-12-06T13:46:50Z</time><name>PT7798</name></trkpt>
<trkpt lat="51.810890" lon="03.934141"><ele>0.6</ele><time>2023-12-06T13:46:50Z</time><name>PT7799</name></trkpt>
<trkpt lat="51.810899" lon="03.934134"><ele>0.6</ele><time>2023-12-06T13:46:51Z</time><name>PT7800</name></trkpt>
<trkpt lat="51.810906" lon="03.934123"><ele>0.3</ele><time>2023-12-06T13:46:53Z</time><name>PT7801</name></trkpt>
<trkpt lat="51.810915" lon="03.934110"><ele>0.2</ele><time>2023-12-06T13:46:53Z</time><name>PT7802</name></trkpt>
<trkpt lat="51.810922" lon="03.934097"><ele>0.2</ele><time>2023-12-06T13:46:54Z</time><name>PT7803</name></trkpt>
<trkpt lat="51.810929" lon="03.934083"><ele>0.2</ele><time>2023-12-06T13:46:56Z</time><name>PT7804</name></trkpt>
<trkpt lat="51.810937" lon="03.934070"><ele>0.1</ele><time>2023-12-06T13:46:56Z</time><name>PT7805</name></trkpt>
<trkpt lat="51.810944" lon="03.934058"><ele>0.1</ele><time>2023-12-06T13:46:57Z</time><name>PT7806</name></trkpt>
<trkpt lat="51.810952" lon="03.934048"><ele>0.1</ele><time>2023-12-06T13:46:59Z</time><name>PT7807</name></trkpt>
<trkpt lat="51.810963" lon="03.934038"><ele>0.2</ele><time>2023-12-06T13:46:59Z</time><name>PT7808</name></trkpt>
<trkpt lat="51.810974" lon="03.934029"><ele>0.2</ele><time>2023-12-06T13:47:00Z</time><name>PT7809</name></trkpt>
<trkpt lat="51.810984" lon="03.934021"><ele>0.2</ele><time>2023-12-06T13:47:02Z</time><name>PT7810</name></trkpt>
<trkpt lat="51.810995" lon="03.934013"><ele>0.3</ele><time>2023-12-06T13:47:02Z</time><name>PT7811</name></trkpt>
<trkpt lat="51.811007" lon="03.934007"><ele>0.4</ele><time>2023-12-06T13:47:03Z</time><name>PT7812</name></trkpt>
<trkpt lat="51.811019" lon="03.934000"><ele>0.4</ele><time>2023-12-06T13:47:05Z</time><name>PT7813</name></trkpt>
<trkpt lat="51.811029" lon="03.933995"><ele>0.4</ele><time>2023-12-06T13:47:05Z</time><name>PT7814</name></trkpt>
<trkpt lat="51.811038" lon="03.933992"><ele>0.5</ele><time>2023-12-06T13:47:06Z</time><name>PT7815</name></trkpt>
<trkpt lat="51.811047" lon="03.933989"><ele>0.5</ele><time>2023-12-06T13:47:08Z</time><name>PT7816</name></trkpt>
<trkpt lat="51.811057" lon="03.933986"><ele>0.5</ele><time>2023-12-06T13:47:08Z</time><name>PT7817</name></trkpt>
<trkpt lat="51.811067" lon="03.933981"><ele>0.4</ele><time>2023-12-06T13:47:09Z</time><name>PT7818</name></trkpt>
<trkpt lat="51.811078" lon="03.933974"><ele>0.5</ele><time>2023-12-06T13:47:11Z</time><name>PT7819</name></trkpt>
<trkpt lat="51.811088" lon="03.933967"><ele>0.5</ele><time>2023-12-06T13:47:11Z</time><name>PT7820</name></trkpt>
<trkpt lat="51.811098" lon="03.933959"><ele>0.4</ele><time>2023-12-06T13:47:12Z</time><name>PT7821</name></trkpt>
<trkpt lat="51.811108" lon="03.933952"><ele>0.4</ele><time>2023-12-06T13:47:14Z</time><name>PT7822</name></trkpt>
<trkpt lat="51.811117" lon="03.933944"><ele>0.4</ele><time>2023-12-06T13:47:14Z</time><name>PT7823</name></trkpt>
<trkpt lat="51.811127" lon="03.933935"><ele>0.4</ele><time>2023-12-06T13:47:15Z</time><name>PT7824</name></trkpt>
<trkpt lat="51.811136" lon="03.933928"><ele>0.5</ele><time>2023-12-06T13:47:17Z</time><name>PT7825</name></trkpt>
<trkpt lat="51.811147" lon="03.933923"><ele>0.5</ele><time>2023-12-06T13:47:17Z</time><name>PT7826</name></trkpt>
<trkpt lat="51.811159" lon="03.933916"><ele>0.6</ele><time>2023-12-06T13:47:18Z</time><name>PT7827</name></trkpt>
<trkpt lat="51.811169" lon="03.933911"><ele>0.5</ele><time>2023-12-06T13:47:20Z</time><name>PT7828</name></trkpt>
<trkpt lat="51.811180" lon="03.933905"><ele>0.5</ele><time>2023-12-06T13:47:20Z</time><name>PT7829</name></trkpt>
<trkpt lat="51.811190" lon="03.933899"><ele>0.5</ele><time>2023-12-06T13:47:21Z</time><name>PT7830</name></trkpt>
<trkpt lat="51.811200" lon="03.933893"><ele>0.5</ele><time>2023-12-06T13:47:23Z</time><name>PT7831</name></trkpt>
<trkpt lat="51.811212" lon="03.933887"><ele>0.7</ele><time>2023-12-06T13:47:23Z</time><name>PT7832</name></trkpt>
<trkpt lat="51.811225" lon="03.933882"><ele>0.7</ele><time>2023-12-06T13:47:24Z</time><name>PT7833</name></trkpt>
<trkpt lat="51.811237" lon="03.933876"><ele>0.7</ele><time>2023-12-06T13:47:26Z</time><name>PT7834</name></trkpt>
<trkpt lat="51.811247" lon="03.933871"><ele>0.7</ele><time>2023-12-06T13:47:26Z</time><name>PT7835</name></trkpt>
<trkpt lat="51.811258" lon="03.933865"><ele>0.6</ele><time>2023-12-06T13:47:27Z</time><name>PT7836</name></trkpt>
<trkpt lat="51.811269" lon="03.933860"><ele>0.2</ele><time>2023-12-06T13:47:29Z</time><name>PT7837</name></trkpt>
<trkpt lat="51.811280" lon="03.933855"><ele>0.2</ele><time>2023-12-06T13:47:30Z</time><name>PT7838</name></trkpt>
<trkpt lat="51.811292" lon="03.933850"><ele>0.1</ele><time>2023-12-06T13:47:30Z</time><name>PT7839</name></trkpt>
<trkpt lat="51.811302" lon="03.933842"><ele>0</ele><time>2023-12-06T13:47:32Z</time><name>PT7840</name></trkpt>
<trkpt lat="51.811312" lon="03.933833"><ele>0.2</ele><time>2023-12-06T13:47:32Z</time><name>PT7841</name></trkpt>
<trkpt lat="51.811321" lon="03.933824"><ele>0.2</ele><time>2023-12-06T13:47:33Z</time><name>PT7842</name></trkpt>
<trkpt lat="51.811330" lon="03.933817"><ele>0.2</ele><time>2023-12-06T13:47:35Z</time><name>PT7843</name></trkpt>
<trkpt lat="51.811340" lon="03.933811"><ele>0.2</ele><time>2023-12-06T13:47:35Z</time><name>PT7844</name></trkpt>
<trkpt lat="51.811351" lon="03.933806"><ele>0.1</ele><time>2023-12-06T13:47:36Z</time><name>PT7845</name></trkpt>
<trkpt lat="51.811363" lon="03.933799"><ele>0.1</ele><time>2023-12-06T13:47:38Z</time><name>PT7846</name></trkpt>
<trkpt lat="51.811376" lon="03.933794"><ele>0.2</ele><time>2023-12-06T13:47:38Z</time><name>PT7847</name></trkpt>
<trkpt lat="51.811388" lon="03.933789"><ele>0.2</ele><time>2023-12-06T13:47:39Z</time><name>PT7848</name></trkpt>
<trkpt lat="51.811400" lon="03.933786"><ele>0.4</ele><time>2023-12-06T13:47:41Z</time><name>PT7849</name></trkpt>
<trkpt lat="51.811411" lon="03.933783"><ele>0.4</ele><time>2023-12-06T13:47:41Z</time><name>PT7850</name></trkpt>
<trkpt lat="51.811422" lon="03.933777"><ele>0.6</ele><time>2023-12-06T13:47:42Z</time><name>PT7851</name></trkpt>
<trkpt lat="51.811432" lon="03.933772"><ele>0.5</ele><time>2023-12-06T13:47:44Z</time><name>PT7852</name></trkpt>
<trkpt lat="51.811443" lon="03.933764"><ele>0.4</ele><time>2023-12-06T13:47:44Z</time><name>PT7853</name></trkpt>
<trkpt lat="51.811453" lon="03.933753"><ele>0.2</ele><time>2023-12-06T13:47:45Z</time><name>PT7854</name></trkpt>
<trkpt lat="51.811463" lon="03.933744"><ele>0.2</ele><time>2023-12-06T13:47:47Z</time><name>PT7855</name></trkpt>
<trkpt lat="51.811473" lon="03.933736"><ele>0.2</ele><time>2023-12-06T13:47:47Z</time><name>PT7856</name></trkpt>
<trkpt lat="51.811483" lon="03.933728"><ele>0.2</ele><time>2023-12-06T13:47:48Z</time><name>PT7857</name></trkpt>
<trkpt lat="51.811494" lon="03.933722"><ele>0.2</ele><time>2023-12-06T13:47:50Z</time><name>PT7858</name></trkpt>
<trkpt lat="51.811505" lon="03.933717"><ele>0.2</ele><time>2023-12-06T13:47:50Z</time><name>PT7859</name></trkpt>
<trkpt lat="51.811517" lon="03.933713"><ele>0.1</ele><time>2023-12-06T13:47:51Z</time><name>PT7860</name></trkpt>
<trkpt lat="51.811527" lon="03.933710"><ele>0.1</ele><time>2023-12-06T13:47:53Z</time><name>PT7861</name></trkpt>
<trkpt lat="51.811538" lon="03.933704"><ele>0.1</ele><time>2023-12-06T13:47:53Z</time><name>PT7862</name></trkpt>
<trkpt lat="51.811549" lon="03.933698"><ele>0.2</ele><time>2023-12-06T13:47:54Z</time><name>PT7863</name></trkpt>
<trkpt lat="51.811560" lon="03.933694"><ele>0.2</ele><time>2023-12-06T13:47:56Z</time><name>PT7864</name></trkpt>
<trkpt lat="51.811571" lon="03.933687"><ele>0.2</ele><time>2023-12-06T13:47:56Z</time><name>PT7865</name></trkpt>
<trkpt lat="51.811582" lon="03.933679"><ele>0.3</ele><time>2023-12-06T13:47:57Z</time><name>PT7866</name></trkpt>
<trkpt lat="51.811592" lon="03.933672"><ele>0.3</ele><time>2023-12-06T13:47:59Z</time><name>PT7867</name></trkpt>
<trkpt lat="51.811602" lon="03.933665"><ele>0.4</ele><time>2023-12-06T13:47:59Z</time><name>PT7868</name></trkpt>
<trkpt lat="51.811611" lon="03.933659"><ele>0.3</ele><time>2023-12-06T13:48:00Z</time><name>PT7869</name></trkpt>
<trkpt lat="51.811620" lon="03.933653"><ele>0.2</ele><time>2023-12-06T13:48:02Z</time><name>PT7870</name></trkpt>
<trkpt lat="51.811629" lon="03.933647"><ele>0.2</ele><time>2023-12-06T13:48:02Z</time><name>PT7871</name></trkpt>
<trkpt lat="51.811640" lon="03.933639"><ele>0</ele><time>2023-12-06T13:48:03Z</time><name>PT7872</name></trkpt>
<trkpt lat="51.811653" lon="03.933633"><ele>0</ele><time>2023-12-06T13:48:05Z</time><name>PT7873</name></trkpt>
<trkpt lat="51.811664" lon="03.933625"><ele>0</ele><time>2023-12-06T13:48:05Z</time><name>PT7874</name></trkpt>
<trkpt lat="51.811675" lon="03.933622"><ele>0</ele><time>2023-12-06T13:48:06Z</time><name>PT7875</name></trkpt>
<trkpt lat="51.811685" lon="03.933619"><ele>0.2</ele><time>2023-12-06T13:48:08Z</time><name>PT7876</name></trkpt>
<trkpt lat="51.811697" lon="03.933614"><ele>0.2</ele><time>2023-12-06T13:48:08Z</time><name>PT7877</name></trkpt>
<trkpt lat="51.811707" lon="03.933607"><ele>0.1</ele><time>2023-12-06T13:48:09Z</time><name>PT7878</name></trkpt>
<trkpt lat="51.811719" lon="03.933602"><ele>0.1</ele><time>2023-12-06T13:48:11Z</time><name>PT7879</name></trkpt>
<trkpt lat="51.811730" lon="03.933597"><ele>0.1</ele><time>2023-12-06T13:48:11Z</time><name>PT7880</name></trkpt>
<trkpt lat="51.811740" lon="03.933592"><ele>0.1</ele><time>2023-12-06T13:48:12Z</time><name>PT7881</name></trkpt>
<trkpt lat="51.811751" lon="03.933586"><ele>0.2</ele><time>2023-12-06T13:48:14Z</time><name>PT7882</name></trkpt>
<trkpt lat="51.811762" lon="03.933579"><ele>0.2</ele><time>2023-12-06T13:48:14Z</time><name>PT7883</name></trkpt>
<trkpt lat="51.811771" lon="03.933571"><ele>0.2</ele><time>2023-12-06T13:48:15Z</time><name>PT7884</name></trkpt>
<trkpt lat="51.811783" lon="03.933564"><ele>0.1</ele><time>2023-12-06T13:48:17Z</time><name>PT7885</name></trkpt>
<trkpt lat="51.811794" lon="03.933557"><ele>0</ele><time>2023-12-06T13:48:17Z</time><name>PT7886</name></trkpt>
<trkpt lat="51.811804" lon="03.933552"><ele>0</ele><time>2023-12-06T13:48:18Z</time><name>PT7887</name></trkpt>
<trkpt lat="51.811814" lon="03.933547"><ele>0</ele><time>2023-12-06T13:48:20Z</time><name>PT7888</name></trkpt>
<trkpt lat="51.811825" lon="03.933543"><ele>0</ele><time>2023-12-06T13:48:20Z</time><name>PT7889</name></trkpt>
<trkpt lat="51.811836" lon="03.933540"><ele>0.1</ele><time>2023-12-06T13:48:21Z</time><name>PT7890</name></trkpt>
<trkpt lat="51.811847" lon="03.933534"><ele>0</ele><time>2023-12-06T13:48:23Z</time><name>PT7891</name></trkpt>
<trkpt lat="51.811857" lon="03.933527"><ele>0.2</ele><time>2023-12-06T13:48:23Z</time><name>PT7892</name></trkpt>
<trkpt lat="51.811868" lon="03.933521"><ele>0.2</ele><time>2023-12-06T13:48:24Z</time><name>PT7893</name></trkpt>
<trkpt lat="51.811879" lon="03.933515"><ele>0.2</ele><time>2023-12-06T13:48:26Z</time><name>PT7894</name></trkpt>
<trkpt lat="51.811890" lon="03.933510"><ele>0.2</ele><time>2023-12-06T13:48:26Z</time><name>PT7895</name></trkpt>
<trkpt lat="51.811900" lon="03.933504"><ele>0.2</ele><time>2023-12-06T13:48:27Z</time><name>PT7896</name></trkpt>
<trkpt lat="51.811909" lon="03.933499"><ele>0.1</ele><time>2023-12-06T13:48:29Z</time><name>PT7897</name></trkpt>
<trkpt lat="51.811919" lon="03.933493"><ele>0.2</ele><time>2023-12-06T13:48:29Z</time><name>PT7898</name></trkpt>
<trkpt lat="51.811930" lon="03.933488"><ele>0.2</ele><time>2023-12-06T13:48:30Z</time><name>PT7899</name></trkpt>
<trkpt lat="51.811940" lon="03.933481"><ele>0.2</ele><time>2023-12-06T13:48:32Z</time><name>PT7900</name></trkpt>
<trkpt lat="51.811950" lon="03.933474"><ele>0.2</ele><time>2023-12-06T13:48:32Z</time><name>PT7901</name></trkpt>
<trkpt lat="51.811960" lon="03.933466"><ele>0.2</ele><time>2023-12-06T13:48:33Z</time><name>PT7902</name></trkpt>
<trkpt lat="51.811970" lon="03.933456"><ele>0</ele><time>2023-12-06T13:48:35Z</time><name>PT7903</name></trkpt>
<trkpt lat="51.811979" lon="03.933447"><ele>0</ele><time>2023-12-06T13:48:35Z</time><name>PT7904</name></trkpt>
<trkpt lat="51.811989" lon="03.933441"><ele>0</ele><time>2023-12-06T13:48:36Z</time><name>PT7905</name></trkpt>
<trkpt lat="51.812000" lon="03.933436"><ele>0</ele><time>2023-12-06T13:48:38Z</time><name>PT7906</name></trkpt>
<trkpt lat="51.812011" lon="03.933430"><ele>0</ele><time>2023-12-06T13:48:38Z</time><name>PT7907</name></trkpt>
<trkpt lat="51.812023" lon="03.933426"><ele>0.2</ele><time>2023-12-06T13:48:39Z</time><name>PT7908</name></trkpt>
<trkpt lat="51.812034" lon="03.933424"><ele>0.3</ele><time>2023-12-06T13:48:41Z</time><name>PT7909</name></trkpt>
<trkpt lat="51.812045" lon="03.933418"><ele>0.3</ele><time>2023-12-06T13:48:41Z</time><name>PT7910</name></trkpt>
<trkpt lat="51.812055" lon="03.933410"><ele>0.4</ele><time>2023-12-06T13:48:42Z</time><name>PT7911</name></trkpt>
<trkpt lat="51.812063" lon="03.933400"><ele>0.2</ele><time>2023-12-06T13:48:44Z</time><name>PT7912</name></trkpt>
<trkpt lat="51.812071" lon="03.933392"><ele>0.2</ele><time>2023-12-06T13:48:44Z</time><name>PT7913</name></trkpt>
<trkpt lat="51.812078" lon="03.933382"><ele>0.2</ele><time>2023-12-06T13:48:45Z</time><name>PT7914</name></trkpt>
<trkpt lat="51.812089" lon="03.933373"><ele>0</ele><time>2023-12-06T13:48:47Z</time><name>PT7915</name></trkpt>
<trkpt lat="51.812103" lon="03.933371"><ele>0</ele><time>2023-12-06T13:48:47Z</time><name>PT7916</name></trkpt>
<trkpt lat="51.812116" lon="03.933367"><ele>0.1</ele><time>2023-12-06T13:48:48Z</time><name>PT7917</name></trkpt>
<trkpt lat="51.812128" lon="03.933361"><ele>0</ele><time>2023-12-06T13:48:50Z</time><name>PT7918</name></trkpt>
<trkpt lat="51.812138" lon="03.933354"><ele>0.1</ele><time>2023-12-06T13:48:50Z</time><name>PT7919</name></trkpt>
<trkpt lat="51.812148" lon="03.933344"><ele>0</ele><time>2023-12-06T13:48:51Z</time><name>PT7920</name></trkpt>
<trkpt lat="51.812157" lon="03.933335"><ele>0</ele><time>2023-12-06T13:48:53Z</time><name>PT7921</name></trkpt>
<trkpt lat="51.812165" lon="03.933324"><ele>0</ele><time>2023-12-06T13:48:53Z</time><name>PT7922</name></trkpt>
<trkpt lat="51.812172" lon="03.933310"><ele>0</ele><time>2023-12-06T13:48:54Z</time><name>PT7923</name></trkpt>
<trkpt lat="51.812177" lon="03.933295"><ele>0.2</ele><time>2023-12-06T13:48:56Z</time><name>PT7924</name></trkpt>
<trkpt lat="51.812179" lon="03.933278"><ele>0.2</ele><time>2023-12-06T13:48:56Z</time><name>PT7925</name></trkpt>
<trkpt lat="51.812180" lon="03.933262"><ele>0.2</ele><time>2023-12-06T13:48:57Z</time><name>PT7926</name></trkpt>
<trkpt lat="51.812181" lon="03.933247"><ele>0.3</ele><time>2023-12-06T13:48:59Z</time><name>PT7927</name></trkpt>
<trkpt lat="51.812183" lon="03.933233"><ele>0.4</ele><time>2023-12-06T13:48:59Z</time><name>PT7928</name></trkpt>
<trkpt lat="51.812186" lon="03.933217"><ele>0.2</ele><time>2023-12-06T13:49:00Z</time><name>PT7929</name></trkpt>
<trkpt lat="51.812189" lon="03.933199"><ele>0.2</ele><time>2023-12-06T13:49:02Z</time><name>PT7930</name></trkpt>
<trkpt lat="51.812192" lon="03.933181"><ele>0.2</ele><time>2023-12-06T13:49:02Z</time><name>PT7931</name></trkpt>
<trkpt lat="51.812195" lon="03.933165"><ele>0.1</ele><time>2023-12-06T13:49:03Z</time><name>PT7932</name></trkpt>
<trkpt lat="51.812196" lon="03.933150"><ele>0</ele><time>2023-12-06T13:49:05Z</time><name>PT7933</name></trkpt>
<trkpt lat="51.812198" lon="03.933134"><ele>0.1</ele><time>2023-12-06T13:49:05Z</time><name>PT7934</name></trkpt>
<trkpt lat="51.812201" lon="03.933115"><ele>0.1</ele><time>2023-12-06T13:49:06Z</time><name>PT7935</name></trkpt>
<trkpt lat="51.812204" lon="03.933097"><ele>0.2</ele><time>2023-12-06T13:49:08Z</time><name>PT7936</name></trkpt>
<trkpt lat="51.812206" lon="03.933080"><ele>0.2</ele><time>2023-12-06T13:49:08Z</time><name>PT7937</name></trkpt>
<trkpt lat="51.812208" lon="03.933063"><ele>0.4</ele><time>2023-12-06T13:49:09Z</time><name>PT7938</name></trkpt>
<trkpt lat="51.812211" lon="03.933045"><ele>0.3</ele><time>2023-12-06T13:49:11Z</time><name>PT7939</name></trkpt>
<trkpt lat="51.812213" lon="03.933027"><ele>0.4</ele><time>2023-12-06T13:49:11Z</time><name>PT7940</name></trkpt>
<trkpt lat="51.812215" lon="03.933008"><ele>0.3</ele><time>2023-12-06T13:49:12Z</time><name>PT7941</name></trkpt>
<trkpt lat="51.812217" lon="03.932990"><ele>0.2</ele><time>2023-12-06T13:49:14Z</time><name>PT7942</name></trkpt>
<trkpt lat="51.812219" lon="03.932972"><ele>0.1</ele><time>2023-12-06T13:49:14Z</time><name>PT7943</name></trkpt>
<trkpt lat="51.812222" lon="03.932955"><ele>0</ele><time>2023-12-06T13:49:15Z</time><name>PT7944</name></trkpt>
<trkpt lat="51.812226" lon="03.932939"><ele>0</ele><time>2023-12-06T13:49:17Z</time><name>PT7945</name></trkpt>
<trkpt lat="51.812228" lon="03.932921"><ele>0.1</ele><time>2023-12-06T13:49:17Z</time><name>PT7946</name></trkpt>
<trkpt lat="51.812229" lon="03.932902"><ele>0.2</ele><time>2023-12-06T13:49:18Z</time><name>PT7947</name></trkpt>
<trkpt lat="51.812231" lon="03.932882"><ele>0.2</ele><time>2023-12-06T13:49:20Z</time><name>PT7948</name></trkpt>
<trkpt lat="51.812233" lon="03.932864"><ele>0.2</ele><time>2023-12-06T13:49:20Z</time><name>PT7949</name></trkpt>
<trkpt lat="51.812236" lon="03.932848"><ele>0.2</ele><time>2023-12-06T13:49:21Z</time><name>PT7950</name></trkpt>
<trkpt lat="51.812239" lon="03.932831"><ele>0.1</ele><time>2023-12-06T13:49:23Z</time><name>PT7951</name></trkpt>
<trkpt lat="51.812244" lon="03.932813"><ele>0</ele><time>2023-12-06T13:49:23Z</time><name>PT7952</name></trkpt>
<trkpt lat="51.812250" lon="03.932795"><ele>0.1</ele><time>2023-12-06T13:49:24Z</time><name>PT7953</name></trkpt>
<trkpt lat="51.812255" lon="03.932777"><ele>0.1</ele><time>2023-12-06T13:49:26Z</time><name>PT7954</name></trkpt>
<trkpt lat="51.812259" lon="03.932762"><ele>0</ele><time>2023-12-06T13:49:26Z</time><name>PT7955</name></trkpt>
<trkpt lat="51.812263" lon="03.932746"><ele>0</ele><time>2023-12-06T13:49:27Z</time><name>PT7956</name></trkpt>
<trkpt lat="51.812268" lon="03.932729"><ele>0.1</ele><time>2023-12-06T13:49:29Z</time><name>PT7957</name></trkpt>
<trkpt lat="51.812273" lon="03.932713"><ele>0.1</ele><time>2023-12-06T13:49:29Z</time><name>PT7958</name></trkpt>
<trkpt lat="51.812278" lon="03.932698"><ele>0.1</ele><time>2023-12-06T13:49:30Z</time><name>PT7959</name></trkpt>
<trkpt lat="51.812283" lon="03.932684"><ele>0.1</ele><time>2023-12-06T13:49:32Z</time><name>PT7960</name></trkpt>
<trkpt lat="51.812291" lon="03.932672"><ele>0.2</ele><time>2023-12-06T13:49:32Z</time><name>PT7961</name></trkpt>
<trkpt lat="51.812299" lon="03.932663"><ele>0.1</ele><time>2023-12-06T13:49:33Z</time><name>PT7962</name></trkpt>
<trkpt lat="51.812308" lon="03.932655"><ele>0.1</ele><time>2023-12-06T13:49:35Z</time><name>PT7963</name></trkpt>
<trkpt lat="51.812317" lon="03.932649"><ele>0.2</ele><time>2023-12-06T13:49:35Z</time><name>PT7964</name></trkpt>
<trkpt lat="51.812327" lon="03.932647"><ele>0.1</ele><time>2023-12-06T13:49:36Z</time><name>PT7965</name></trkpt>
<trkpt lat="51.812336" lon="03.932645"><ele>0</ele><time>2023-12-06T13:49:38Z</time><name>PT7966</name></trkpt>
<trkpt lat="51.812347" lon="03.932645"><ele>0</ele><time>2023-12-06T13:49:38Z</time><name>PT7967</name></trkpt>
<trkpt lat="51.812356" lon="03.932643"><ele>0.3</ele><time>2023-12-06T13:49:40Z</time><name>PT7968</name></trkpt>
<trkpt lat="51.812364" lon="03.932641"><ele>0.3</ele><time>2023-12-06T13:49:41Z</time><name>PT7969</name></trkpt>
<trkpt lat="51.812373" lon="03.932641"><ele>0.3</ele><time>2023-12-06T13:49:41Z</time><name>PT7970</name></trkpt>
<trkpt lat="51.812383" lon="03.932642"><ele>0.2</ele><time>2023-12-06T13:49:43Z</time><name>PT7971</name></trkpt>
<trkpt lat="51.812395" lon="03.932641"><ele>0.2</ele><time>2023-12-06T13:49:44Z</time><name>PT7972</name></trkpt>
<trkpt lat="51.812407" lon="03.932638"><ele>0.2</ele><time>2023-12-06T13:49:44Z</time><name>PT7973</name></trkpt>
<trkpt lat="51.812419" lon="03.932635"><ele>0.3</ele><time>2023-12-06T13:49:45Z</time><name>PT7974</name></trkpt>
<trkpt lat="51.812431" lon="03.932633"><ele>0.2</ele><time>2023-12-06T13:49:47Z</time><name>PT7975</name></trkpt>
<trkpt lat="51.812443" lon="03.932632"><ele>0.2</ele><time>2023-12-06T13:49:47Z</time><name>PT7976</name></trkpt>
<trkpt lat="51.812459" lon="03.932632"><ele>0.2</ele><time>2023-12-06T13:49:48Z</time><name>PT7977</name></trkpt>
<trkpt lat="51.812469" lon="03.932629"><ele>0.1</ele><time>2023-12-06T13:49:50Z</time><name>PT7978</name></trkpt>
<trkpt lat="51.812481" lon="03.932630"><ele>0.1</ele><time>2023-12-06T13:49:50Z</time><name>PT7979</name></trkpt>
<trkpt lat="51.812494" lon="03.932632"><ele>0.2</ele><time>2023-12-06T13:49:51Z</time><name>PT7980</name></trkpt>
<trkpt lat="51.812507" lon="03.932633"><ele>0.1</ele><time>2023-12-06T13:49:53Z</time><name>PT7981</name></trkpt>
<trkpt lat="51.812519" lon="03.932635"><ele>0.1</ele><time>2023-12-06T13:49:53Z</time><name>PT7982</name></trkpt>
<trkpt lat="51.812531" lon="03.932637"><ele>0.2</ele><time>2023-12-06T13:49:54Z</time><name>PT7983</name></trkpt>
<trkpt lat="51.812540" lon="03.932636"><ele>0.2</ele><time>2023-12-06T13:49:56Z</time><name>PT7984</name></trkpt>
<trkpt lat="51.812553" lon="03.932633"><ele>0.2</ele><time>2023-12-06T13:49:56Z</time><name>PT7985</name></trkpt>
<trkpt lat="51.812567" lon="03.932632"><ele>0.2</ele><time>2023-12-06T13:49:57Z</time><name>PT7986</name></trkpt>
<trkpt lat="51.812579" lon="03.932632"><ele>0.2</ele><time>2023-12-06T13:49:59Z</time><name>PT7987</name></trkpt>
<trkpt lat="51.812590" lon="03.932632"><ele>0.1</ele><time>2023-12-06T13:49:59Z</time><name>PT7988</name></trkpt>
<trkpt lat="51.812601" lon="03.932631"><ele>0.2</ele><time>2023-12-06T13:50:01Z</time><name>PT7989</name></trkpt>
<trkpt lat="51.812613" lon="03.932632"><ele>0</ele><time>2023-12-06T13:50:02Z</time><name>PT7990</name></trkpt>
<trkpt lat="51.812623" lon="03.932634"><ele>0</ele><time>2023-12-06T13:50:02Z</time><name>PT7991</name></trkpt>
<trkpt lat="51.812632" lon="03.932638"><ele>0</ele><time>2023-12-06T13:50:03Z</time><name>PT7992</name></trkpt>
<trkpt lat="51.812642" lon="03.932641"><ele>0.1</ele><time>2023-12-06T13:50:05Z</time><name>PT7993</name></trkpt>
<trkpt lat="51.812653" lon="03.932643"><ele>0.2</ele><time>2023-12-06T13:50:05Z</time><name>PT7994</name></trkpt>
<trkpt lat="51.812664" lon="03.932642"><ele>0</ele><time>2023-12-06T13:50:06Z</time><name>PT7995</name></trkpt>
<trkpt lat="51.812675" lon="03.932640"><ele>0</ele><time>2023-12-06T13:50:08Z</time><name>PT7996</name></trkpt>
<trkpt lat="51.812687" lon="03.932639"><ele>0</ele><time>2023-12-06T13:50:08Z</time><name>PT7997</name></trkpt>
<trkpt lat="51.812697" lon="03.932637"><ele>0.1</ele><time>2023-12-06T13:50:09Z</time><name>PT7998</name></trkpt>
<trkpt lat="51.812706" lon="03.932631"><ele>0</ele><time>2023-12-06T13:50:11Z</time><name>PT7999</name></trkpt>
<trkpt lat="51.812716" lon="03.932623"><ele>0</ele><time>2023-12-06T13:50:11Z</time><name>PT8000</name></trkpt>
<trkpt lat="51.812727" lon="03.932615"><ele>0</ele><time>2023-12-06T13:50:12Z</time><name>PT8001</name></trkpt>
<trkpt lat="51.812739" lon="03.932609"><ele>0.1</ele><time>2023-12-06T13:50:14Z</time><name>PT8002</name></trkpt>
<trkpt lat="51.812749" lon="03.932606"><ele>0</ele><time>2023-12-06T13:50:14Z</time><name>PT8003</name></trkpt>
<trkpt lat="51.812760" lon="03.932604"><ele>0.1</ele><time>2023-12-06T13:50:15Z</time><name>PT8004</name></trkpt>
<trkpt lat="51.812770" lon="03.932602"><ele>0</ele><time>2023-12-06T13:50:17Z</time><name>PT8005</name></trkpt>
<trkpt lat="51.812781" lon="03.932601"><ele>0</ele><time>2023-12-06T13:50:17Z</time><name>PT8006</name></trkpt>
<trkpt lat="51.812792" lon="03.932600"><ele>0</ele><time>2023-12-06T13:50:18Z</time><name>PT8007</name></trkpt>
<trkpt lat="51.812804" lon="03.932600"><ele>0</ele><time>2023-12-06T13:50:20Z</time><name>PT8008</name></trkpt>
<trkpt lat="51.812815" lon="03.932601"><ele>0</ele><time>2023-12-06T13:50:20Z</time><name>PT8009</name></trkpt>
<trkpt lat="51.812826" lon="03.932603"><ele>0</ele><time>2023-12-06T13:50:21Z</time><name>PT8010</name></trkpt>
<trkpt lat="51.812838" lon="03.932604"><ele>0</ele><time>2023-12-06T13:50:23Z</time><name>PT8011</name></trkpt>
<trkpt lat="51.812849" lon="03.932605"><ele>0.1</ele><time>2023-12-06T13:50:23Z</time><name>PT8012</name></trkpt>
<trkpt lat="51.812859" lon="03.932605"><ele>0.2</ele><time>2023-12-06T13:50:24Z</time><name>PT8013</name></trkpt>
<trkpt lat="51.812870" lon="03.932603"><ele>0.1</ele><time>2023-12-06T13:50:26Z</time><name>PT8014</name></trkpt>
<trkpt lat="51.812882" lon="03.932602"><ele>0.2</ele><time>2023-12-06T13:50:26Z</time><name>PT8015</name></trkpt>
<trkpt lat="51.812894" lon="03.932602"><ele>0.1</ele><time>2023-12-06T13:50:27Z</time><name>PT8016</name></trkpt>
<trkpt lat="51.812904" lon="03.932603"><ele>0</ele><time>2023-12-06T13:50:29Z</time><name>PT8017</name></trkpt>
<trkpt lat="51.812913" lon="03.932601"><ele>0.1</ele><time>2023-12-06T13:50:29Z</time><name>PT8018</name></trkpt>
<trkpt lat="51.812923" lon="03.932600"><ele>0</ele><time>2023-12-06T13:50:30Z</time><name>PT8019</name></trkpt>
<trkpt lat="51.812935" lon="03.932600"><ele>0.2</ele><time>2023-12-06T13:50:32Z</time><name>PT8020</name></trkpt>
<trkpt lat="51.812948" lon="03.932598"><ele>0.2</ele><time>2023-12-06T13:50:33Z</time><name>PT8021</name></trkpt>
<trkpt lat="51.812960" lon="03.932603"><ele>0.2</ele><time>2023-12-06T13:50:33Z</time><name>PT8022</name></trkpt>
<trkpt lat="51.812969" lon="03.932610"><ele>0.2</ele><time>2023-12-06T13:50:35Z</time><name>PT8023</name></trkpt>
<trkpt lat="51.812982" lon="03.932612"><ele>0.2</ele><time>2023-12-06T13:50:35Z</time><name>PT8024</name></trkpt>
<trkpt lat="51.812993" lon="03.932613"><ele>0.2</ele><time>2023-12-06T13:50:36Z</time><name>PT8025</name></trkpt>
<trkpt lat="51.813006" lon="03.932614"><ele>0</ele><time>2023-12-06T13:50:38Z</time><name>PT8026</name></trkpt>
<trkpt lat="51.813019" lon="03.932615"><ele>0.1</ele><time>2023-12-06T13:50:38Z</time><name>PT8027</name></trkpt>
<trkpt lat="51.813032" lon="03.932617"><ele>0.1</ele><time>2023-12-06T13:50:39Z</time><name>PT8028</name></trkpt>
<trkpt lat="51.813044" lon="03.932619"><ele>0</ele><time>2023-12-06T13:50:41Z</time><name>PT8029</name></trkpt>
<trkpt lat="51.813057" lon="03.932622"><ele>0.1</ele><time>2023-12-06T13:50:41Z</time><name>PT8030</name></trkpt>
<trkpt lat="51.813069" lon="03.932623"><ele>0</ele><time>2023-12-06T13:50:42Z</time><name>PT8031</name></trkpt>
<trkpt lat="51.813082" lon="03.932623"><ele>0</ele><time>2023-12-06T13:50:44Z</time><name>PT8032</name></trkpt>
<trkpt lat="51.813093" lon="03.932622"><ele>0</ele><time>2023-12-06T13:50:44Z</time><name>PT8033</name></trkpt>
<trkpt lat="51.813102" lon="03.932622"><ele>0.1</ele><time>2023-12-06T13:50:46Z</time><name>PT8034</name></trkpt>
<trkpt lat="51.813124" lon="03.932619"><ele>0.2</ele><time>2023-12-06T13:50:47Z</time><name>PT8035</name></trkpt>
<trkpt lat="51.813139" lon="03.932618"><ele>0.3</ele><time>2023-12-06T13:50:47Z</time><name>PT8036</name></trkpt>
<trkpt lat="51.813151" lon="03.932622"><ele>0.4</ele><time>2023-12-06T13:50:48Z</time><name>PT8037</name></trkpt>
<trkpt lat="51.813163" lon="03.932626"><ele>0.3</ele><time>2023-12-06T13:50:50Z</time><name>PT8038</name></trkpt>
<trkpt lat="51.813174" lon="03.932626"><ele>0.3</ele><time>2023-12-06T13:50:50Z</time><name>PT8039</name></trkpt>
<trkpt lat="51.813186" lon="03.932625"><ele>0.1</ele><time>2023-12-06T13:50:51Z</time><name>PT8040</name></trkpt>
<trkpt lat="51.813198" lon="03.932624"><ele>0</ele><time>2023-12-06T13:50:53Z</time><name>PT8041</name></trkpt>
<trkpt lat="51.813209" lon="03.932623"><ele>0.1</ele><time>2023-12-06T13:50:53Z</time><name>PT8042</name></trkpt>
<trkpt lat="51.813221" lon="03.932621"><ele>0</ele><time>2023-12-06T13:50:54Z</time><name>PT8043</name></trkpt>
<trkpt lat="51.813232" lon="03.932618"><ele>0</ele><time>2023-12-06T13:50:56Z</time><name>PT8044</name></trkpt>
<trkpt lat="51.813244" lon="03.932617"><ele>0.1</ele><time>2023-12-06T13:50:56Z</time><name>PT8045</name></trkpt>
<trkpt lat="51.813255" lon="03.932617"><ele>0.1</ele><time>2023-12-06T13:50:57Z</time><name>PT8046</name></trkpt>
<trkpt lat="51.813266" lon="03.932617"><ele>0.1</ele><time>2023-12-06T13:50:59Z</time><name>PT8047</name></trkpt>
<trkpt lat="51.813276" lon="03.932618"><ele>0</ele><time>2023-12-06T13:50:59Z</time><name>PT8048</name></trkpt>
<trkpt lat="51.813286" lon="03.932618"><ele>0.1</ele><time>2023-12-06T13:51:01Z</time><name>PT8049</name></trkpt>
<trkpt lat="51.813298" lon="03.932619"><ele>0</ele><time>2023-12-06T13:51:02Z</time><name>PT8050</name></trkpt>
<trkpt lat="51.813310" lon="03.932618"><ele>0.1</ele><time>2023-12-06T13:51:02Z</time><name>PT8051</name></trkpt>
<trkpt lat="51.813322" lon="03.932616"><ele>0.2</ele><time>2023-12-06T13:51:03Z</time><name>PT8052</name></trkpt>
<trkpt lat="51.813333" lon="03.932616"><ele>0.2</ele><time>2023-12-06T13:51:05Z</time><name>PT8053</name></trkpt>
<trkpt lat="51.813344" lon="03.932618"><ele>0.2</ele><time>2023-12-06T13:51:05Z</time><name>PT8054</name></trkpt>
<trkpt lat="51.813356" lon="03.932618"><ele>0.2</ele><time>2023-12-06T13:51:06Z</time><name>PT8055</name></trkpt>
<trkpt lat="51.813370" lon="03.932619"><ele>0.2</ele><time>2023-12-06T13:51:08Z</time><name>PT8056</name></trkpt>
<trkpt lat="51.813382" lon="03.932621"><ele>0.2</ele><time>2023-12-06T13:51:08Z</time><name>PT8057</name></trkpt>
<trkpt lat="51.813393" lon="03.932623"><ele>0.2</ele><time>2023-12-06T13:51:09Z</time><name>PT8058</name></trkpt>
<trkpt lat="51.813406" lon="03.932623"><ele>0.2</ele><time>2023-12-06T13:51:11Z</time><name>PT8059</name></trkpt>
<trkpt lat="51.813419" lon="03.932624"><ele>0.2</ele><time>2023-12-06T13:51:11Z</time><name>PT8060</name></trkpt>
<trkpt lat="51.813431" lon="03.932625"><ele>0.3</ele><time>2023-12-06T13:51:12Z</time><name>PT8061</name></trkpt>
<trkpt lat="51.813443" lon="03.932623"><ele>0.2</ele><time>2023-12-06T13:51:14Z</time><name>PT8062</name></trkpt>
<trkpt lat="51.813454" lon="03.932619"><ele>0.2</ele><time>2023-12-06T13:51:14Z</time><name>PT8063</name></trkpt>
<trkpt lat="51.813465" lon="03.932617"><ele>0.2</ele><time>2023-12-06T13:51:15Z</time><name>PT8064</name></trkpt>
<trkpt lat="51.813477" lon="03.932615"><ele>0.3</ele><time>2023-12-06T13:51:17Z</time><name>PT8065</name></trkpt>
<trkpt lat="51.813489" lon="03.932614"><ele>0.2</ele><time>2023-12-06T13:51:17Z</time><name>PT8066</name></trkpt>
<trkpt lat="51.813502" lon="03.932613"><ele>0.2</ele><time>2023-12-06T13:51:18Z</time><name>PT8067</name></trkpt>
<trkpt lat="51.813514" lon="03.932610"><ele>0.2</ele><time>2023-12-06T13:51:20Z</time><name>PT8068</name></trkpt>
<trkpt lat="51.813524" lon="03.932606"><ele>0.2</ele><time>2023-12-06T13:51:20Z</time><name>PT8069</name></trkpt>
<trkpt lat="51.813534" lon="03.932603"><ele>0</ele><time>2023-12-06T13:51:21Z</time><name>PT8070</name></trkpt>
<trkpt lat="51.813546" lon="03.932599"><ele>0.1</ele><time>2023-12-06T13:51:23Z</time><name>PT8071</name></trkpt>
<trkpt lat="51.813558" lon="03.932600"><ele>0.1</ele><time>2023-12-06T13:51:23Z</time><name>PT8072</name></trkpt>
<trkpt lat="51.813571" lon="03.932599"><ele>0.1</ele><time>2023-12-06T13:51:24Z</time><name>PT8073</name></trkpt>
<trkpt lat="51.813582" lon="03.932597"><ele>0.3</ele><time>2023-12-06T13:51:26Z</time><name>PT8074</name></trkpt>
<trkpt lat="51.813593" lon="03.932596"><ele>0.3</ele><time>2023-12-06T13:51:26Z</time><name>PT8075</name></trkpt>
<trkpt lat="51.813602" lon="03.932593"><ele>0.2</ele><time>2023-12-06T13:51:27Z</time><name>PT8076</name></trkpt>
<trkpt lat="51.813611" lon="03.932588"><ele>0.2</ele><time>2023-12-06T13:51:29Z</time><name>PT8077</name></trkpt>
<trkpt lat="51.813621" lon="03.932585"><ele>0.2</ele><time>2023-12-06T13:51:29Z</time><name>PT8078</name></trkpt>
<trkpt lat="51.813633" lon="03.932582"><ele>0.1</ele><time>2023-12-06T13:51:30Z</time><name>PT8079</name></trkpt>
<trkpt lat="51.813643" lon="03.932577"><ele>0.2</ele><time>2023-12-06T13:51:32Z</time><name>PT8080</name></trkpt>
<trkpt lat="51.813652" lon="03.932573"><ele>0.4</ele><time>2023-12-06T13:51:32Z</time><name>PT8081</name></trkpt>
<trkpt lat="51.813662" lon="03.932568"><ele>0.4</ele><time>2023-12-06T13:51:33Z</time><name>PT8082</name></trkpt>
<trkpt lat="51.813674" lon="03.932566"><ele>0.5</ele><time>2023-12-06T13:51:35Z</time><name>PT8083</name></trkpt>
<trkpt lat="51.813687" lon="03.932564"><ele>0.6</ele><time>2023-12-06T13:51:35Z</time><name>PT8084</name></trkpt>
<trkpt lat="51.813699" lon="03.932562"><ele>0.6</ele><time>2023-12-06T13:51:36Z</time><name>PT8085</name></trkpt>
<trkpt lat="51.813710" lon="03.932560"><ele>0.5</ele><time>2023-12-06T13:51:38Z</time><name>PT8086</name></trkpt>
<trkpt lat="51.813722" lon="03.932559"><ele>0.4</ele><time>2023-12-06T13:51:38Z</time><name>PT8087</name></trkpt>
<trkpt lat="51.813733" lon="03.932556"><ele>0.3</ele><time>2023-12-06T13:51:39Z</time><name>PT8088</name></trkpt>
<trkpt lat="51.813743" lon="03.932552"><ele>0.2</ele><time>2023-12-06T13:51:41Z</time><name>PT8089</name></trkpt>
<trkpt lat="51.813754" lon="03.932548"><ele>0.2</ele><time>2023-12-06T13:51:41Z</time><name>PT8090</name></trkpt>
<trkpt lat="51.813765" lon="03.932544"><ele>0.1</ele><time>2023-12-06T13:51:42Z</time><name>PT8091</name></trkpt>
<trkpt lat="51.813775" lon="03.932540"><ele>0.2</ele><time>2023-12-06T13:51:44Z</time><name>PT8092</name></trkpt>
<trkpt lat="51.813785" lon="03.932537"><ele>0.2</ele><time>2023-12-06T13:51:44Z</time><name>PT8093</name></trkpt>
<trkpt lat="51.813796" lon="03.932536"><ele>0.2</ele><time>2023-12-06T13:51:45Z</time><name>PT8094</name></trkpt>
<trkpt lat="51.813808" lon="03.932535"><ele>0.1</ele><time>2023-12-06T13:51:47Z</time><name>PT8095</name></trkpt>
<trkpt lat="51.813819" lon="03.932536"><ele>0.2</ele><time>2023-12-06T13:51:47Z</time><name>PT8096</name></trkpt>
<trkpt lat="51.813828" lon="03.932536"><ele>0.1</ele><time>2023-12-06T13:51:48Z</time><name>PT8097</name></trkpt>
<trkpt lat="51.813838" lon="03.932534"><ele>0.2</ele><time>2023-12-06T13:51:50Z</time><name>PT8098</name></trkpt>
<trkpt lat="51.813848" lon="03.932532"><ele>0.2</ele><time>2023-12-06T13:51:50Z</time><name>PT8099</name></trkpt>
<trkpt lat="51.813857" lon="03.932531"><ele>0.2</ele><time>2023-12-06T13:51:52Z</time><name>PT8100</name></trkpt>
<trkpt lat="51.813867" lon="03.932530"><ele>0.2</ele><time>2023-12-06T13:51:53Z</time><name>PT8101</name></trkpt>
<trkpt lat="51.813876" lon="03.932531"><ele>0.3</ele><time>2023-12-06T13:51:53Z</time><name>PT8102</name></trkpt>
<trkpt lat="51.813887" lon="03.932528"><ele>0.3</ele><time>2023-12-06T13:51:54Z</time><name>PT8103</name></trkpt>
<trkpt lat="51.813894" lon="03.932523"><ele>0.4</ele><time>2023-12-06T13:51:56Z</time><name>PT8104</name></trkpt>
<trkpt lat="51.813900" lon="03.932519"><ele>0.5</ele><time>2023-12-06T13:51:56Z</time><name>PT8105</name></trkpt>
<trkpt lat="51.813903" lon="03.932520"><ele>0.4</ele><time>2023-12-06T13:51:57Z</time><name>PT8106</name></trkpt>
<trkpt lat="51.813903" lon="03.932521"><ele>0.3</ele><time>2023-12-06T13:51:59Z</time><name>PT8107</name></trkpt>
<trkpt lat="51.813902" lon="03.932522"><ele>0.3</ele><time>2023-12-06T13:51:59Z</time><name>PT8108</name></trkpt>
<trkpt lat="51.813905" lon="03.932528"><ele>0.2</ele><time>2023-12-06T13:52:05Z</time><name>PT8109</name></trkpt>
<trkpt lat="51.813914" lon="03.932541"><ele>0.2</ele><time>2023-12-06T13:52:05Z</time><name>PT8110</name></trkpt>
<trkpt lat="51.813922" lon="03.932550"><ele>0.3</ele><time>2023-12-06T13:52:07Z</time><name>PT8111</name></trkpt>
<trkpt lat="51.813932" lon="03.932563"><ele>0.4</ele><time>2023-12-06T13:52:08Z</time><name>PT8112</name></trkpt>
<trkpt lat="51.813943" lon="03.932572"><ele>0.3</ele><time>2023-12-06T13:52:08Z</time><name>PT8113</name></trkpt>
<trkpt lat="51.813953" lon="03.932581"><ele>0.1</ele><time>2023-12-06T13:52:09Z</time><name>PT8114</name></trkpt>
<trkpt lat="51.813962" lon="03.932594"><ele>0.2</ele><time>2023-12-06T13:52:11Z</time><name>PT8115</name></trkpt>
<trkpt lat="51.813969" lon="03.932609"><ele>0.1</ele><time>2023-12-06T13:52:11Z</time><name>PT8116</name></trkpt>
<trkpt lat="51.813975" lon="03.932626"><ele>0</ele><time>2023-12-06T13:52:12Z</time><name>PT8117</name></trkpt>
<trkpt lat="51.813979" lon="03.932643"><ele>0.1</ele><time>2023-12-06T13:52:14Z</time><name>PT8118</name></trkpt>
<trkpt lat="51.813984" lon="03.932661"><ele>0</ele><time>2023-12-06T13:52:14Z</time><name>PT8119</name></trkpt>
<trkpt lat="51.813986" lon="03.932678"><ele>0</ele><time>2023-12-06T13:52:15Z</time><name>PT8120</name></trkpt>
<trkpt lat="51.813990" lon="03.932695"><ele>0</ele><time>2023-12-06T13:52:17Z</time><name>PT8121</name></trkpt>
<trkpt lat="51.813995" lon="03.932713"><ele>0</ele><time>2023-12-06T13:52:17Z</time><name>PT8122</name></trkpt>
<trkpt lat="51.813998" lon="03.932732"><ele>0.1</ele><time>2023-12-06T13:52:18Z</time><name>PT8123</name></trkpt>
<trkpt lat="51.814001" lon="03.932750"><ele>0</ele><time>2023-12-06T13:52:20Z</time><name>PT8124</name></trkpt>
<trkpt lat="51.814005" lon="03.932767"><ele>0.1</ele><time>2023-12-06T13:52:20Z</time><name>PT8125</name></trkpt>
<trkpt lat="51.814009" lon="03.932785"><ele>0.2</ele><time>2023-12-06T13:52:22Z</time><name>PT8126</name></trkpt>
<trkpt lat="51.814012" lon="03.932802"><ele>0.2</ele><time>2023-12-06T13:52:23Z</time><name>PT8127</name></trkpt>
<trkpt lat="51.814017" lon="03.932819"><ele>0.2</ele><time>2023-12-06T13:52:23Z</time><name>PT8128</name></trkpt>
<trkpt lat="51.814022" lon="03.932833"><ele>0.2</ele><time>2023-12-06T13:52:24Z</time><name>PT8129</name></trkpt>
<trkpt lat="51.814027" lon="03.932849"><ele>0.1</ele><time>2023-12-06T13:52:26Z</time><name>PT8130</name></trkpt>
<trkpt lat="51.814030" lon="03.932863"><ele>0</ele><time>2023-12-06T13:52:26Z</time><name>PT8131</name></trkpt>
<trkpt lat="51.814034" lon="03.932880"><ele>0.1</ele><time>2023-12-06T13:52:27Z</time><name>PT8132</name></trkpt>
<trkpt lat="51.814036" lon="03.932897"><ele>0</ele><time>2023-12-06T13:52:29Z</time><name>PT8133</name></trkpt>
<trkpt lat="51.814035" lon="03.932913"><ele>0.1</ele><time>2023-12-06T13:52:29Z</time><name>PT8134</name></trkpt>
<trkpt lat="51.814034" lon="03.932929"><ele>0.2</ele><time>2023-12-06T13:52:30Z</time><name>PT8135</name></trkpt>
<trkpt lat="51.814036" lon="03.932946"><ele>0.2</ele><time>2023-12-06T13:52:32Z</time><name>PT8136</name></trkpt>
<trkpt lat="51.814038" lon="03.932963"><ele>0.2</ele><time>2023-12-06T13:52:32Z</time><name>PT8137</name></trkpt>
<trkpt lat="51.814041" lon="03.932981"><ele>0.1</ele><time>2023-12-06T13:52:33Z</time><name>PT8138</name></trkpt>
<trkpt lat="51.814046" lon="03.932995"><ele>0</ele><time>2023-12-06T13:52:35Z</time><name>PT8139</name></trkpt>
<trkpt lat="51.814051" lon="03.933012"><ele>0</ele><time>2023-12-06T13:52:35Z</time><name>PT8140</name></trkpt>
<trkpt lat="51.814056" lon="03.933029"><ele>0</ele><time>2023-12-06T13:52:36Z</time><name>PT8141</name></trkpt>
<trkpt lat="51.814062" lon="03.933045"><ele>0</ele><time>2023-12-06T13:52:38Z</time><name>PT8142</name></trkpt>
<trkpt lat="51.814067" lon="03.933059"><ele>0</ele><time>2023-12-06T13:52:38Z</time><name>PT8143</name></trkpt>
<trkpt lat="51.814071" lon="03.933074"><ele>0</ele><time>2023-12-06T13:52:39Z</time><name>PT8144</name></trkpt>
<trkpt lat="51.814075" lon="03.933091"><ele>0</ele><time>2023-12-06T13:52:41Z</time><name>PT8145</name></trkpt>
<trkpt lat="51.814079" lon="03.933104"><ele>0</ele><time>2023-12-06T13:52:41Z</time><name>PT8146</name></trkpt>
<trkpt lat="51.814083" lon="03.933121"><ele>0</ele><time>2023-12-06T13:52:42Z</time><name>PT8147</name></trkpt>
<trkpt lat="51.814087" lon="03.933137"><ele>0.2</ele><time>2023-12-06T13:52:44Z</time><name>PT8148</name></trkpt>
<trkpt lat="51.814091" lon="03.933152"><ele>0.2</ele><time>2023-12-06T13:52:44Z</time><name>PT8149</name></trkpt>
<trkpt lat="51.814096" lon="03.933166"><ele>0.2</ele><time>2023-12-06T13:52:45Z</time><name>PT8150</name></trkpt>
<trkpt lat="51.814099" lon="03.933174"><ele>0.1</ele><time>2023-12-06T13:52:47Z</time><name>PT8151</name></trkpt>
<trkpt lat="51.814100" lon="03.933182"><ele>0</ele><time>2023-12-06T13:52:47Z</time><name>PT8152</name></trkpt>
<trkpt lat="51.814101" lon="03.933183"><ele>0</ele><time>2023-12-06T13:52:48Z</time><name>PT8153</name></trkpt>
<trkpt lat="51.814103" lon="03.933182"><ele>0</ele><time>2023-12-06T13:52:50Z</time><name>PT8154</name></trkpt>
<trkpt lat="51.814103" lon="03.933182"><ele>0</ele><time>2023-12-06T13:52:50Z</time><name>PT8155</name></trkpt>
<trkpt lat="51.814104" lon="03.933181"><ele>0.1</ele><time>2023-12-06T13:52:51Z</time><name>PT8156</name></trkpt>
<trkpt lat="51.814108" lon="03.933190"><ele>0.2</ele><time>2023-12-06T13:52:56Z</time><name>PT8157</name></trkpt>
<trkpt lat="51.814106" lon="03.933188"><ele>0.1</ele><time>2023-12-06T13:52:57Z</time><name>PT8158</name></trkpt>
<trkpt lat="51.814105" lon="03.933184"><ele>0.2</ele><time>2023-12-06T13:52:59Z</time><name>PT8159</name></trkpt>
<trkpt lat="51.814104" lon="03.933177"><ele>0.1</ele><time>2023-12-06T13:52:59Z</time><name>PT8160</name></trkpt>
<trkpt lat="51.814102" lon="03.933170"><ele>0</ele><time>2023-12-06T13:53:00Z</time><name>PT8161</name></trkpt>
<trkpt lat="51.814101" lon="03.933165"><ele>0.1</ele><time>2023-12-06T13:53:02Z</time><name>PT8162</name></trkpt>
<trkpt lat="51.814101" lon="03.933160"><ele>0.1</ele><time>2023-12-06T13:53:03Z</time><name>PT8163</name></trkpt>
<trkpt lat="51.814099" lon="03.933157"><ele>0.1</ele><time>2023-12-06T13:53:03Z</time><name>PT8164</name></trkpt>
<trkpt lat="51.814098" lon="03.933154"><ele>0</ele><time>2023-12-06T13:53:05Z</time><name>PT8165</name></trkpt>
<trkpt lat="51.814099" lon="03.933151"><ele>0.1</ele><time>2023-12-06T13:53:05Z</time><name>PT8166</name></trkpt>
<trkpt lat="51.814098" lon="03.933153"><ele>0.1</ele><time>2023-12-06T13:53:23Z</time><name>PT8167</name></trkpt>
<trkpt lat="51.814100" lon="03.933165"><ele>0.1</ele><time>2023-12-06T13:53:23Z</time><name>PT8168</name></trkpt>
<trkpt lat="51.814104" lon="03.933183"><ele>0.2</ele><time>2023-12-06T13:53:24Z</time><name>PT8169</name></trkpt>
<trkpt lat="51.814110" lon="03.933199"><ele>0.1</ele><time>2023-12-06T13:53:26Z</time><name>PT8170</name></trkpt>
<trkpt lat="51.814117" lon="03.933215"><ele>0.2</ele><time>2023-12-06T13:53:26Z</time><name>PT8171</name></trkpt>
<trkpt lat="51.814122" lon="03.933233"><ele>0.2</ele><time>2023-12-06T13:53:27Z</time><name>PT8172</name></trkpt>
<trkpt lat="51.814126" lon="03.933249"><ele>0.2</ele><time>2023-12-06T13:53:29Z</time><name>PT8173</name></trkpt>
<trkpt lat="51.814129" lon="03.933264"><ele>0.2</ele><time>2023-12-06T13:53:29Z</time><name>PT8174</name></trkpt>
<trkpt lat="51.814133" lon="03.933280"><ele>0.3</ele><time>2023-12-06T13:53:30Z</time><name>PT8175</name></trkpt>
<trkpt lat="51.814137" lon="03.933298"><ele>0.4</ele><time>2023-12-06T13:53:32Z</time><name>PT8176</name></trkpt>
<trkpt lat="51.814140" lon="03.933320"><ele>0.3</ele><time>2023-12-06T13:53:32Z</time><name>PT8177</name></trkpt>
<trkpt lat="51.814143" lon="03.933339"><ele>0.2</ele><time>2023-12-06T13:53:33Z</time><name>PT8178</name></trkpt>
<trkpt lat="51.814148" lon="03.933355"><ele>0</ele><time>2023-12-06T13:53:35Z</time><name>PT8179</name></trkpt>
<trkpt lat="51.814153" lon="03.933373"><ele>0.2</ele><time>2023-12-06T13:53:35Z</time><name>PT8180</name></trkpt>
<trkpt lat="51.814155" lon="03.933390"><ele>0.1</ele><time>2023-12-06T13:53:36Z</time><name>PT8181</name></trkpt>
<trkpt lat="51.814158" lon="03.933406"><ele>0</ele><time>2023-12-06T13:53:38Z</time><name>PT8182</name></trkpt>
<trkpt lat="51.814162" lon="03.933421"><ele>0.1</ele><time>2023-12-06T13:53:38Z</time><name>PT8183</name></trkpt>
<trkpt lat="51.814165" lon="03.933437"><ele>0</ele><time>2023-12-06T13:53:39Z</time><name>PT8184</name></trkpt>
<trkpt lat="51.814169" lon="03.933454"><ele>0</ele><time>2023-12-06T13:53:41Z</time><name>PT8185</name></trkpt>
<trkpt lat="51.814173" lon="03.933471"><ele>0</ele><time>2023-12-06T13:53:41Z</time><name>PT8186</name></trkpt>
<trkpt lat="51.814176" lon="03.933488"><ele>0.1</ele><time>2023-12-06T13:53:42Z</time><name>PT8187</name></trkpt>
<trkpt lat="51.814179" lon="03.933505"><ele>0.1</ele><time>2023-12-06T13:53:44Z</time><name>PT8188</name></trkpt>
<trkpt lat="51.814181" lon="03.933523"><ele>0.2</ele><time>2023-12-06T13:53:44Z</time><name>PT8189</name></trkpt>
<trkpt lat="51.814183" lon="03.933540"><ele>0.2</ele><time>2023-12-06T13:53:45Z</time><name>PT8190</name></trkpt>
<trkpt lat="51.814187" lon="03.933556"><ele>0.2</ele><time>2023-12-06T13:53:47Z</time><name>PT8191</name></trkpt>
<trkpt lat="51.814192" lon="03.933571"><ele>0.2</ele><time>2023-12-06T13:53:47Z</time><name>PT8192</name></trkpt>
<trkpt lat="51.814196" lon="03.933589"><ele>0.2</ele><time>2023-12-06T13:53:48Z</time><name>PT8193</name></trkpt>
<trkpt lat="51.814199" lon="03.933604"><ele>0.2</ele><time>2023-12-06T13:53:50Z</time><name>PT8194</name></trkpt>
<trkpt lat="51.814204" lon="03.933616"><ele>0.1</ele><time>2023-12-06T13:53:50Z</time><name>PT8195</name></trkpt>
<trkpt lat="51.814206" lon="03.933631"><ele>0</ele><time>2023-12-06T13:53:51Z</time><name>PT8196</name></trkpt>
<trkpt lat="51.814210" lon="03.933647"><ele>0</ele><time>2023-12-06T13:53:53Z</time><name>PT8197</name></trkpt>
<trkpt lat="51.814214" lon="03.933664"><ele>0</ele><time>2023-12-06T13:53:53Z</time><name>PT8198</name></trkpt>
<trkpt lat="51.814217" lon="03.933681"><ele>0</ele><time>2023-12-06T13:53:54Z</time><name>PT8199</name></trkpt>
<trkpt lat="51.814220" lon="03.933695"><ele>0.1</ele><time>2023-12-06T13:53:56Z</time><name>PT8200</name></trkpt>
<trkpt lat="51.814222" lon="03.933710"><ele>0</ele><time>2023-12-06T13:53:56Z</time><name>PT8201</name></trkpt>
<trkpt lat="51.814226" lon="03.933722"><ele>0.2</ele><time>2023-12-06T13:53:57Z</time><name>PT8202</name></trkpt>
<trkpt lat="51.814229" lon="03.933736"><ele>0</ele><time>2023-12-06T13:53:59Z</time><name>PT8203</name></trkpt>
<trkpt lat="51.814232" lon="03.933751"><ele>0</ele><time>2023-12-06T13:53:59Z</time><name>PT8204</name></trkpt>
<trkpt lat="51.814235" lon="03.933768"><ele>0.1</ele><time>2023-12-06T13:54:00Z</time><name>PT8205</name></trkpt>
<trkpt lat="51.814238" lon="03.933785"><ele>0.1</ele><time>2023-12-06T13:54:02Z</time><name>PT8206</name></trkpt>
<trkpt lat="51.814242" lon="03.933802"><ele>0</ele><time>2023-12-06T13:54:02Z</time><name>PT8207</name></trkpt>
<trkpt lat="51.814247" lon="03.933819"><ele>0</ele><time>2023-12-06T13:54:04Z</time><name>PT8208</name></trkpt>
<trkpt lat="51.814250" lon="03.933835"><ele>0.1</ele><time>2023-12-06T13:54:05Z</time><name>PT8209</name></trkpt>
<trkpt lat="51.814254" lon="03.933851"><ele>0.2</ele><time>2023-12-06T13:54:05Z</time><name>PT8210</name></trkpt>
<trkpt lat="51.814257" lon="03.933871"><ele>0.2</ele><time>2023-12-06T13:54:07Z</time><name>PT8211</name></trkpt>
<trkpt lat="51.814260" lon="03.933889"><ele>0.2</ele><time>2023-12-06T13:54:08Z</time><name>PT8212</name></trkpt>
<trkpt lat="51.814264" lon="03.933907"><ele>0.2</ele><time>2023-12-06T13:54:08Z</time><name>PT8213</name></trkpt>
<trkpt lat="51.814269" lon="03.933925"><ele>0.1</ele><time>2023-12-06T13:54:09Z</time><name>PT8214</name></trkpt>
<trkpt lat="51.814274" lon="03.933942"><ele>0.2</ele><time>2023-12-06T13:54:11Z</time><name>PT8215</name></trkpt>
<trkpt lat="51.814279" lon="03.933959"><ele>0.1</ele><time>2023-12-06T13:54:11Z</time><name>PT8216</name></trkpt>
<trkpt lat="51.814284" lon="03.933974"><ele>0.1</ele><time>2023-12-06T13:54:12Z</time><name>PT8217</name></trkpt>
<trkpt lat="51.814290" lon="03.933987"><ele>0.1</ele><time>2023-12-06T13:54:14Z</time><name>PT8218</name></trkpt>
<trkpt lat="51.814294" lon="03.934004"><ele>0.1</ele><time>2023-12-06T13:54:14Z</time><name>PT8219</name></trkpt>
<trkpt lat="51.814299" lon="03.934020"><ele>0.2</ele><time>2023-12-06T13:54:15Z</time><name>PT8220</name></trkpt>
<trkpt lat="51.814303" lon="03.934035"><ele>0.2</ele><time>2023-12-06T13:54:17Z</time><name>PT8221</name></trkpt>
<trkpt lat="51.814307" lon="03.934050"><ele>0.2</ele><time>2023-12-06T13:54:17Z</time><name>PT8222</name></trkpt>
<trkpt lat="51.814313" lon="03.934065"><ele>0</ele><time>2023-12-06T13:54:18Z</time><name>PT8223</name></trkpt>
<trkpt lat="51.814318" lon="03.934081"><ele>0</ele><time>2023-12-06T13:54:20Z</time><name>PT8224</name></trkpt>
<trkpt lat="51.814323" lon="03.934094"><ele>0</ele><time>2023-12-06T13:54:20Z</time><name>PT8225</name></trkpt>
<trkpt lat="51.814329" lon="03.934111"><ele>0</ele><time>2023-12-06T13:54:21Z</time><name>PT8226</name></trkpt>
<trkpt lat="51.814334" lon="03.934126"><ele>0</ele><time>2023-12-06T13:54:23Z</time><name>PT8227</name></trkpt>
<trkpt lat="51.814339" lon="03.934143"><ele>0</ele><time>2023-12-06T13:54:23Z</time><name>PT8228</name></trkpt>
<trkpt lat="51.814345" lon="03.934157"><ele>0.2</ele><time>2023-12-06T13:54:24Z</time><name>PT8229</name></trkpt>
<trkpt lat="51.814351" lon="03.934170"><ele>0.2</ele><time>2023-12-06T13:54:26Z</time><name>PT8230</name></trkpt>
<trkpt lat="51.814356" lon="03.934182"><ele>0.2</ele><time>2023-12-06T13:54:26Z</time><name>PT8231</name></trkpt>
<trkpt lat="51.814361" lon="03.934197"><ele>0.4</ele><time>2023-12-06T13:54:27Z</time><name>PT8232</name></trkpt>
<trkpt lat="51.814366" lon="03.934213"><ele>0.2</ele><time>2023-12-06T13:54:29Z</time><name>PT8233</name></trkpt>
<trkpt lat="51.814371" lon="03.934230"><ele>0.2</ele><time>2023-12-06T13:54:29Z</time><name>PT8234</name></trkpt>
<trkpt lat="51.814374" lon="03.934242"><ele>0.1</ele><time>2023-12-06T13:54:30Z</time><name>PT8235</name></trkpt>
<trkpt lat="51.814378" lon="03.934254"><ele>0</ele><time>2023-12-06T13:54:32Z</time><name>PT8236</name></trkpt>
<trkpt lat="51.814383" lon="03.934270"><ele>0</ele><time>2023-12-06T13:54:32Z</time><name>PT8237</name></trkpt>
<trkpt lat="51.814389" lon="03.934281"><ele>0.1</ele><time>2023-12-06T13:54:33Z</time><name>PT8238</name></trkpt>
<trkpt lat="51.814396" lon="03.934288"><ele>0</ele><time>2023-12-06T13:54:35Z</time><name>PT8239</name></trkpt>
<trkpt lat="51.814406" lon="03.934293"><ele>0</ele><time>2023-12-06T13:54:35Z</time><name>PT8240</name></trkpt>
<trkpt lat="51.814418" lon="03.934298"><ele>0</ele><time>2023-12-06T13:54:37Z</time><name>PT8241</name></trkpt>
<trkpt lat="51.814428" lon="03.934302"><ele>0.2</ele><time>2023-12-06T13:54:38Z</time><name>PT8242</name></trkpt>
<trkpt lat="51.814437" lon="03.934307"><ele>0.1</ele><time>2023-12-06T13:54:38Z</time><name>PT8243</name></trkpt>
<trkpt lat="51.814445" lon="03.934315"><ele>0</ele><time>2023-12-06T13:54:39Z</time><name>PT8244</name></trkpt>
<trkpt lat="51.814455" lon="03.934322"><ele>0</ele><time>2023-12-06T13:54:41Z</time><name>PT8245</name></trkpt>
<trkpt lat="51.814466" lon="03.934328"><ele>0.2</ele><time>2023-12-06T13:54:41Z</time><name>PT8246</name></trkpt>
<trkpt lat="51.814477" lon="03.934333"><ele>0.3</ele><time>2023-12-06T13:54:42Z</time><name>PT8247</name></trkpt>
<trkpt lat="51.814487" lon="03.934342"><ele>0.3</ele><time>2023-12-06T13:54:44Z</time><name>PT8248</name></trkpt>
<trkpt lat="51.814496" lon="03.934352"><ele>0.2</ele><time>2023-12-06T13:54:44Z</time><name>PT8249</name></trkpt>
<trkpt lat="51.814505" lon="03.934361"><ele>0.2</ele><time>2023-12-06T13:54:45Z</time><name>PT8250</name></trkpt>
<trkpt lat="51.814511" lon="03.934365"><ele>0.2</ele><time>2023-12-06T13:54:47Z</time><name>PT8251</name></trkpt>
<trkpt lat="51.814516" lon="03.934363"><ele>0.1</ele><time>2023-12-06T13:54:47Z</time><name>PT8252</name></trkpt>
<trkpt lat="51.814519" lon="03.934358"><ele>0.1</ele><time>2023-12-06T13:54:48Z</time><name>PT8253</name></trkpt>
<trkpt lat="51.814523" lon="03.934353"><ele>0.1</ele><time>2023-12-06T13:54:50Z</time><name>PT8254</name></trkpt>
<trkpt lat="51.814524" lon="03.934347"><ele>0.1</ele><time>2023-12-06T13:54:50Z</time><name>PT8255</name></trkpt>
<trkpt lat="51.814525" lon="03.934341"><ele>0.2</ele><time>2023-12-06T13:54:51Z</time><name>PT8256</name></trkpt>
<trkpt lat="51.814526" lon="03.934338"><ele>0.2</ele><time>2023-12-06T13:54:53Z</time><name>PT8257</name></trkpt>
<trkpt lat="51.814527" lon="03.934336"><ele>0.2</ele><time>2023-12-06T13:54:53Z</time><name>PT8258</name></trkpt>
<trkpt lat="51.814531" lon="03.934340"><ele>0.3</ele><time>2023-12-06T13:54:54Z</time><name>PT8259</name></trkpt>
<trkpt lat="51.814537" lon="03.934343"><ele>0.2</ele><time>2023-12-06T13:54:56Z</time><name>PT8260</name></trkpt>
<trkpt lat="51.814542" lon="03.934345"><ele>0.3</ele><time>2023-12-06T13:54:56Z</time><name>PT8261</name></trkpt>
<trkpt lat="51.814546" lon="03.934347"><ele>0.3</ele><time>2023-12-06T13:54:57Z</time><name>PT8262</name></trkpt>
<trkpt lat="51.814548" lon="03.934351"><ele>0.2</ele><time>2023-12-06T13:54:59Z</time><name>PT8263</name></trkpt>
<trkpt lat="51.814549" lon="03.934349"><ele>0.2</ele><time>2023-12-06T13:55:00Z</time><name>PT8264</name></trkpt>
<trkpt lat="51.814549" lon="03.934348"><ele>0.2</ele><time>2023-12-06T13:55:02Z</time><name>PT8265</name></trkpt>
<trkpt lat="51.814550" lon="03.934351"><ele>0.2</ele><time>2023-12-06T13:55:02Z</time><name>PT8266</name></trkpt>
<trkpt lat="51.814549" lon="03.934354"><ele>0.1</ele><time>2023-12-06T13:55:03Z</time><name>PT8267</name></trkpt>
<trkpt lat="51.814550" lon="03.934358"><ele>0.2</ele><time>2023-12-06T13:55:05Z</time><name>PT8268</name></trkpt>
<trkpt lat="51.814552" lon="03.934361"><ele>0.2</ele><time>2023-12-06T13:55:44Z</time><name>PT8269</name></trkpt>
<trkpt lat="51.814556" lon="03.934363"><ele>0.2</ele><time>2023-12-06T13:55:45Z</time><name>PT8270</name></trkpt>
<trkpt lat="51.814561" lon="03.934362"><ele>0.1</ele><time>2023-12-06T13:55:47Z</time><name>PT8271</name></trkpt>
<trkpt lat="51.814565" lon="03.934355"><ele>0.2</ele><time>2023-12-06T13:55:48Z</time><name>PT8272</name></trkpt>
<trkpt lat="51.814570" lon="03.934354"><ele>0.3</ele><time>2023-12-06T13:55:50Z</time><name>PT8273</name></trkpt>
<trkpt lat="51.814575" lon="03.934348"><ele>0.2</ele><time>2023-12-06T13:55:50Z</time><name>PT8274</name></trkpt>
<trkpt lat="51.814575" lon="03.934350"><ele>0.1</ele><time>2023-12-06T13:56:17Z</time><name>PT8275</name></trkpt>
<trkpt lat="51.814574" lon="03.934343"><ele>0.2</ele><time>2023-12-06T13:56:17Z</time><name>PT8276</name></trkpt>
<trkpt lat="51.814573" lon="03.934335"><ele>0.1</ele><time>2023-12-06T13:56:18Z</time><name>PT8277</name></trkpt>
<trkpt lat="51.814576" lon="03.934327"><ele>0.3</ele><time>2023-12-06T13:56:20Z</time><name>PT8278</name></trkpt>
<trkpt lat="51.814578" lon="03.934319"><ele>0.3</ele><time>2023-12-06T13:56:20Z</time><name>PT8279</name></trkpt>
<trkpt lat="51.814581" lon="03.934312"><ele>0.4</ele><time>2023-12-06T13:56:21Z</time><name>PT8280</name></trkpt>
<trkpt lat="51.814588" lon="03.934309"><ele>0.5</ele><time>2023-12-06T13:56:23Z</time><name>PT8281</name></trkpt>
<trkpt lat="51.814595" lon="03.934304"><ele>0.7</ele><time>2023-12-06T13:56:23Z</time><name>PT8282</name></trkpt>
<trkpt lat="51.814602" lon="03.934303"><ele>0.5</ele><time>2023-12-06T13:56:24Z</time><name>PT8283</name></trkpt>
<trkpt lat="51.814609" lon="03.934304"><ele>0.7</ele><time>2023-12-06T13:56:26Z</time><name>PT8284</name></trkpt>
<trkpt lat="51.814617" lon="03.934305"><ele>0.7</ele><time>2023-12-06T13:56:26Z</time><name>PT8285</name></trkpt>
<trkpt lat="51.814623" lon="03.934302"><ele>0.8</ele><time>2023-12-06T13:56:27Z</time><name>PT8286</name></trkpt>
<trkpt lat="51.814629" lon="03.934299"><ele>0.9</ele><time>2023-12-06T13:56:29Z</time><name>PT8287</name></trkpt>
<trkpt lat="51.814634" lon="03.934297"><ele>1.1</ele><time>2023-12-06T13:56:29Z</time><name>PT8288</name></trkpt>
<trkpt lat="51.814633" lon="03.934296"><ele>0.9</ele><time>2023-12-06T13:56:35Z</time><name>PT8289</name></trkpt>
<trkpt lat="51.814638" lon="03.934294"><ele>0.8</ele><time>2023-12-06T13:56:36Z</time><name>PT8290</name></trkpt>
<trkpt lat="51.814645" lon="03.934294"><ele>0.9</ele><time>2023-12-06T13:56:38Z</time><name>PT8291</name></trkpt>
<trkpt lat="51.814646" lon="03.934291"><ele>1</ele><time>2023-12-06T13:57:30Z</time><name>PT8292</name></trkpt>
<trkpt lat="51.814642" lon="03.934288"><ele>1.1</ele><time>2023-12-06T13:57:32Z</time><name>PT8293</name></trkpt>
<trkpt lat="51.814640" lon="03.934290"><ele>1.2</ele><time>2023-12-06T13:57:32Z</time><name>PT8294</name></trkpt>
<trkpt lat="51.814637" lon="03.934289"><ele>1.2</ele><time>2023-12-06T13:57:34Z</time><name>PT8295</name></trkpt>
<trkpt lat="51.814631" lon="03.934295"><ele>0.3</ele><time>2023-12-06T13:58:06Z</time><name>PT8296</name></trkpt>
<trkpt lat="51.814629" lon="03.934302"><ele>0.3</ele><time>2023-12-06T13:58:08Z</time><name>PT8297</name></trkpt>
<trkpt lat="51.814628" lon="03.934309"><ele>0.2</ele><time>2023-12-06T13:58:08Z</time><name>PT8298</name></trkpt>
<trkpt lat="51.814631" lon="03.934323"><ele>0.2</ele><time>2023-12-06T13:58:09Z</time><name>PT8299</name></trkpt>
<trkpt lat="51.814636" lon="03.934325"><ele>0</ele><time>2023-12-06T13:58:11Z</time><name>PT8300</name></trkpt>
<trkpt lat="51.814642" lon="03.934332"><ele>0</ele><time>2023-12-06T13:58:11Z</time><name>PT8301</name></trkpt>
<trkpt lat="51.814645" lon="03.934343"><ele>0.2</ele><time>2023-12-06T13:58:12Z</time><name>PT8302</name></trkpt>
<trkpt lat="51.814650" lon="03.934353"><ele>0.2</ele><time>2023-12-06T13:58:14Z</time><name>PT8303</name></trkpt>
<trkpt lat="51.814657" lon="03.934362"><ele>0.2</ele><time>2023-12-06T13:58:14Z</time><name>PT8304</name></trkpt>
<trkpt lat="51.814664" lon="03.934371"><ele>0.4</ele><time>2023-12-06T13:58:15Z</time><name>PT8305</name></trkpt>
<trkpt lat="51.814670" lon="03.934378"><ele>0.5</ele><time>2023-12-06T13:58:17Z</time><name>PT8306</name></trkpt>
<trkpt lat="51.814678" lon="03.934387"><ele>0.5</ele><time>2023-12-06T13:58:17Z</time><name>PT8307</name></trkpt>
<trkpt lat="51.814686" lon="03.934399"><ele>0.4</ele><time>2023-12-06T13:58:18Z</time><name>PT8308</name></trkpt>
<trkpt lat="51.814693" lon="03.934403"><ele>0.5</ele><time>2023-12-06T13:58:20Z</time><name>PT8309</name></trkpt>
<trkpt lat="51.814701" lon="03.934401"><ele>0.5</ele><time>2023-12-06T13:58:20Z</time><name>PT8310</name></trkpt>
<trkpt lat="51.814709" lon="03.934394"><ele>0.3</ele><time>2023-12-06T13:58:21Z</time><name>PT8311</name></trkpt>
<trkpt lat="51.814717" lon="03.934387"><ele>0.2</ele><time>2023-12-06T13:58:23Z</time><name>PT8312</name></trkpt>
<trkpt lat="51.814723" lon="03.934380"><ele>0.2</ele><time>2023-12-06T13:58:23Z</time><name>PT8313</name></trkpt>
<trkpt lat="51.814732" lon="03.934373"><ele>0.3</ele><time>2023-12-06T13:58:24Z</time><name>PT8314</name></trkpt>
<trkpt lat="51.814740" lon="03.934367"><ele>0.4</ele><time>2023-12-06T13:58:26Z</time><name>PT8315</name></trkpt>
<trkpt lat="51.814749" lon="03.934364"><ele>0.4</ele><time>2023-12-06T13:58:26Z</time><name>PT8316</name></trkpt>
<trkpt lat="51.814759" lon="03.934361"><ele>0.5</ele><time>2023-12-06T13:58:28Z</time><name>PT8317</name></trkpt>
<trkpt lat="51.814769" lon="03.934358"><ele>0.6</ele><time>2023-12-06T13:58:29Z</time><name>PT8318</name></trkpt>
<trkpt lat="51.814779" lon="03.934353"><ele>0.6</ele><time>2023-12-06T13:58:29Z</time><name>PT8319</name></trkpt>
<trkpt lat="51.814788" lon="03.934349"><ele>0.8</ele><time>2023-12-06T13:58:30Z</time><name>PT8320</name></trkpt>
<trkpt lat="51.814797" lon="03.934346"><ele>0.9</ele><time>2023-12-06T13:58:32Z</time><name>PT8321</name></trkpt>
<trkpt lat="51.814806" lon="03.934342"><ele>0.8</ele><time>2023-12-06T13:58:32Z</time><name>PT8322</name></trkpt>
<trkpt lat="51.814814" lon="03.934338"><ele>0.6</ele><time>2023-12-06T13:58:33Z</time><name>PT8323</name></trkpt>
<trkpt lat="51.814824" lon="03.934335"><ele>0.4</ele><time>2023-12-06T13:58:35Z</time><name>PT8324</name></trkpt>
<trkpt lat="51.814833" lon="03.934330"><ele>0.5</ele><time>2023-12-06T13:58:35Z</time><name>PT8325</name></trkpt>
<trkpt lat="51.814843" lon="03.934326"><ele>0.4</ele><time>2023-12-06T13:58:36Z</time><name>PT8326</name></trkpt>
<trkpt lat="51.814853" lon="03.934323"><ele>0.3</ele><time>2023-12-06T13:58:38Z</time><name>PT8327</name></trkpt>
<trkpt lat="51.814863" lon="03.934318"><ele>0.3</ele><time>2023-12-06T13:58:38Z</time><name>PT8328</name></trkpt>
<trkpt lat="51.814873" lon="03.934313"><ele>0.4</ele><time>2023-12-06T13:58:39Z</time><name>PT8329</name></trkpt>
<trkpt lat="51.814882" lon="03.934310"><ele>0.4</ele><time>2023-12-06T13:58:41Z</time><name>PT8330</name></trkpt>
<trkpt lat="51.814892" lon="03.934305"><ele>0.4</ele><time>2023-12-06T13:58:41Z</time><name>PT8331</name></trkpt>
<trkpt lat="51.814901" lon="03.934300"><ele>0.5</ele><time>2023-12-06T13:58:42Z</time><name>PT8332</name></trkpt>
<trkpt lat="51.814910" lon="03.934295"><ele>0.5</ele><time>2023-12-06T13:58:44Z</time><name>PT8333</name></trkpt>
<trkpt lat="51.814917" lon="03.934287"><ele>0.6</ele><time>2023-12-06T13:58:44Z</time><name>PT8334</name></trkpt>
<trkpt lat="51.814926" lon="03.934277"><ele>0.6</ele><time>2023-12-06T13:58:45Z</time><name>PT8335</name></trkpt>
<trkpt lat="51.814935" lon="03.934271"><ele>0.6</ele><time>2023-12-06T13:58:47Z</time><name>PT8336</name></trkpt>
<trkpt lat="51.814943" lon="03.934265"><ele>0.7</ele><time>2023-12-06T13:58:47Z</time><name>PT8337</name></trkpt>
<trkpt lat="51.814953" lon="03.934259"><ele>0.6</ele><time>2023-12-06T13:58:48Z</time><name>PT8338</name></trkpt>
<trkpt lat="51.814964" lon="03.934254"><ele>0.6</ele><time>2023-12-06T13:58:50Z</time><name>PT8339</name></trkpt>
<trkpt lat="51.814975" lon="03.934253"><ele>0.5</ele><time>2023-12-06T13:58:50Z</time><name>PT8340</name></trkpt>
<trkpt lat="51.814986" lon="03.934251"><ele>0.4</ele><time>2023-12-06T13:58:51Z</time><name>PT8341</name></trkpt>
<trkpt lat="51.814998" lon="03.934247"><ele>0.3</ele><time>2023-12-06T13:58:53Z</time><name>PT8342</name></trkpt>
<trkpt lat="51.815008" lon="03.934241"><ele>0.4</ele><time>2023-12-06T13:58:53Z</time><name>PT8343</name></trkpt>
<trkpt lat="51.815018" lon="03.934237"><ele>0.4</ele><time>2023-12-06T13:58:54Z</time><name>PT8344</name></trkpt>
<trkpt lat="51.815026" lon="03.934232"><ele>0.3</ele><time>2023-12-06T13:58:56Z</time><name>PT8345</name></trkpt>
<trkpt lat="51.815035" lon="03.934228"><ele>0.4</ele><time>2023-12-06T13:58:56Z</time><name>PT8346</name></trkpt>
<trkpt lat="51.815047" lon="03.934223"><ele>0.4</ele><time>2023-12-06T13:58:57Z</time><name>PT8347</name></trkpt>
<trkpt lat="51.815057" lon="03.934218"><ele>0.3</ele><time>2023-12-06T13:58:59Z</time><name>PT8348</name></trkpt>
<trkpt lat="51.815068" lon="03.934215"><ele>0.2</ele><time>2023-12-06T13:58:59Z</time><name>PT8349</name></trkpt>
<trkpt lat="51.815079" lon="03.934214"><ele>0.3</ele><time>2023-12-06T13:59:00Z</time><name>PT8350</name></trkpt>
<trkpt lat="51.815090" lon="03.934210"><ele>0.3</ele><time>2023-12-06T13:59:02Z</time><name>PT8351</name></trkpt>
<trkpt lat="51.815100" lon="03.934204"><ele>0.3</ele><time>2023-12-06T13:59:02Z</time><name>PT8352</name></trkpt>
<trkpt lat="51.815112" lon="03.934200"><ele>0.3</ele><time>2023-12-06T13:59:03Z</time><name>PT8353</name></trkpt>
<trkpt lat="51.815122" lon="03.934196"><ele>0.2</ele><time>2023-12-06T13:59:05Z</time><name>PT8354</name></trkpt>
<trkpt lat="51.815132" lon="03.934189"><ele>0.1</ele><time>2023-12-06T13:59:05Z</time><name>PT8355</name></trkpt>
<trkpt lat="51.815142" lon="03.934183"><ele>0.1</ele><time>2023-12-06T13:59:06Z</time><name>PT8356</name></trkpt>
<trkpt lat="51.815151" lon="03.934175"><ele>0.2</ele><time>2023-12-06T13:59:08Z</time><name>PT8357</name></trkpt>
<trkpt lat="51.815160" lon="03.934167"><ele>0.2</ele><time>2023-12-06T13:59:08Z</time><name>PT8358</name></trkpt>
<trkpt lat="51.815169" lon="03.934161"><ele>0.4</ele><time>2023-12-06T13:59:09Z</time><name>PT8359</name></trkpt>
<trkpt lat="51.815179" lon="03.934156"><ele>0.2</ele><time>2023-12-06T13:59:11Z</time><name>PT8360</name></trkpt>
<trkpt lat="51.815189" lon="03.934151"><ele>0.2</ele><time>2023-12-06T13:59:11Z</time><name>PT8361</name></trkpt>
<trkpt lat="51.815199" lon="03.934148"><ele>0.1</ele><time>2023-12-06T13:59:12Z</time><name>PT8362</name></trkpt>
<trkpt lat="51.815210" lon="03.934144"><ele>0.2</ele><time>2023-12-06T13:59:14Z</time><name>PT8363</name></trkpt>
<trkpt lat="51.815221" lon="03.934140"><ele>0.2</ele><time>2023-12-06T13:59:14Z</time><name>PT8364</name></trkpt>
<trkpt lat="51.815229" lon="03.934132"><ele>0.4</ele><time>2023-12-06T13:59:15Z</time><name>PT8365</name></trkpt>
<trkpt lat="51.815235" lon="03.934120"><ele>0.6</ele><time>2023-12-06T13:59:17Z</time><name>PT8366</name></trkpt>
<trkpt lat="51.815242" lon="03.934111"><ele>0.8</ele><time>2023-12-06T13:59:17Z</time><name>PT8367</name></trkpt>
<trkpt lat="51.815251" lon="03.934104"><ele>0.8</ele><time>2023-12-06T13:59:18Z</time><name>PT8368</name></trkpt>
<trkpt lat="51.815261" lon="03.934099"><ele>0.6</ele><time>2023-12-06T13:59:20Z</time><name>PT8369</name></trkpt>
<trkpt lat="51.815272" lon="03.934094"><ele>0.6</ele><time>2023-12-06T13:59:20Z</time><name>PT8370</name></trkpt>
<trkpt lat="51.815283" lon="03.934088"><ele>0.6</ele><time>2023-12-06T13:59:21Z</time><name>PT8371</name></trkpt>
<trkpt lat="51.815293" lon="03.934082"><ele>0.5</ele><time>2023-12-06T13:59:23Z</time><name>PT8372</name></trkpt>
<trkpt lat="51.815303" lon="03.934075"><ele>0.3</ele><time>2023-12-06T13:59:23Z</time><name>PT8373</name></trkpt>
<trkpt lat="51.815312" lon="03.934068"><ele>0.4</ele><time>2023-12-06T13:59:24Z</time><name>PT8374</name></trkpt>
<trkpt lat="51.815323" lon="03.934060"><ele>0.3</ele><time>2023-12-06T13:59:26Z</time><name>PT8375</name></trkpt>
<trkpt lat="51.815334" lon="03.934054"><ele>0.2</ele><time>2023-12-06T13:59:26Z</time><name>PT8376</name></trkpt>
<trkpt lat="51.815344" lon="03.934047"><ele>0.3</ele><time>2023-12-06T13:59:27Z</time><name>PT8377</name></trkpt>
<trkpt lat="51.815355" lon="03.934042"><ele>0.5</ele><time>2023-12-06T13:59:29Z</time><name>PT8378</name></trkpt>
<trkpt lat="51.815366" lon="03.934038"><ele>0.4</ele><time>2023-12-06T13:59:29Z</time><name>PT8379</name></trkpt>
<trkpt lat="51.815378" lon="03.934035"><ele>0.5</ele><time>2023-12-06T13:59:30Z</time><name>PT8380</name></trkpt>
<trkpt lat="51.815387" lon="03.934031"><ele>0.8</ele><time>2023-12-06T13:59:32Z</time><name>PT8381</name></trkpt>
<trkpt lat="51.815397" lon="03.934029"><ele>0.9</ele><time>2023-12-06T13:59:32Z</time><name>PT8382</name></trkpt>
<trkpt lat="51.815406" lon="03.934027"><ele>0.8</ele><time>2023-12-06T13:59:33Z</time><name>PT8383</name></trkpt>
<trkpt lat="51.815415" lon="03.934021"><ele>0.8</ele><time>2023-12-06T13:59:35Z</time><name>PT8384</name></trkpt>
<trkpt lat="51.815426" lon="03.934014"><ele>0.7</ele><time>2023-12-06T13:59:35Z</time><name>PT8385</name></trkpt>
<trkpt lat="51.815435" lon="03.934006"><ele>0.5</ele><time>2023-12-06T13:59:36Z</time><name>PT8386</name></trkpt>
<trkpt lat="51.815445" lon="03.934001"><ele>0.2</ele><time>2023-12-06T13:59:38Z</time><name>PT8387</name></trkpt>
<trkpt lat="51.815455" lon="03.933997"><ele>0.3</ele><time>2023-12-06T13:59:38Z</time><name>PT8388</name></trkpt>
<trkpt lat="51.815466" lon="03.933992"><ele>0.2</ele><time>2023-12-06T13:59:39Z</time><name>PT8389</name></trkpt>
<trkpt lat="51.815478" lon="03.933987"><ele>0.2</ele><time>2023-12-06T13:59:41Z</time><name>PT8390</name></trkpt>
<trkpt lat="51.815489" lon="03.933983"><ele>0.2</ele><time>2023-12-06T13:59:41Z</time><name>PT8391</name></trkpt>
<trkpt lat="51.815501" lon="03.933980"><ele>0.4</ele><time>2023-12-06T13:59:42Z</time><name>PT8392</name></trkpt>
<trkpt lat="51.815511" lon="03.933976"><ele>0.5</ele><time>2023-12-06T13:59:44Z</time><name>PT8393</name></trkpt>
<trkpt lat="51.815522" lon="03.933972"><ele>0.4</ele><time>2023-12-06T13:59:44Z</time><name>PT8394</name></trkpt>
<trkpt lat="51.815532" lon="03.933968"><ele>0.5</ele><time>2023-12-06T13:59:45Z</time><name>PT8395</name></trkpt>
<trkpt lat="51.815543" lon="03.933962"><ele>0.2</ele><time>2023-12-06T13:59:47Z</time><name>PT8396</name></trkpt>
<trkpt lat="51.815555" lon="03.933956"><ele>0.1</ele><time>2023-12-06T13:59:47Z</time><name>PT8397</name></trkpt>
<trkpt lat="51.815565" lon="03.933950"><ele>0.1</ele><time>2023-12-06T13:59:48Z</time><name>PT8398</name></trkpt>
<trkpt lat="51.815576" lon="03.933943"><ele>0.2</ele><time>2023-12-06T13:59:50Z</time><name>PT8399</name></trkpt>
<trkpt lat="51.815587" lon="03.933941"><ele>0.2</ele><time>2023-12-06T13:59:50Z</time><name>PT8400</name></trkpt>
<trkpt lat="51.815597" lon="03.933943"><ele>0.2</ele><time>2023-12-06T13:59:51Z</time><name>PT8401</name></trkpt>
<trkpt lat="51.815605" lon="03.933945"><ele>0.2</ele><time>2023-12-06T13:59:53Z</time><name>PT8402</name></trkpt>
<trkpt lat="51.815612" lon="03.933948"><ele>0.1</ele><time>2023-12-06T13:59:53Z</time><name>PT8403</name></trkpt>
<trkpt lat="51.815616" lon="03.933945"><ele>0</ele><time>2023-12-06T13:59:54Z</time><name>PT8404</name></trkpt>
<trkpt lat="51.815621" lon="03.933941"><ele>0</ele><time>2023-12-06T13:59:56Z</time><name>PT8405</name></trkpt>
<trkpt lat="51.815627" lon="03.933939"><ele>0</ele><time>2023-12-06T13:59:56Z</time><name>PT8406</name></trkpt>
<trkpt lat="51.815633" lon="03.933936"><ele>0.1</ele><time>2023-12-06T13:59:57Z</time><name>PT8407</name></trkpt>
<trkpt lat="51.815642" lon="03.933932"><ele>0.2</ele><time>2023-12-06T13:59:59Z</time><name>PT8408</name></trkpt>
<trkpt lat="51.815653" lon="03.933927"><ele>0.3</ele><time>2023-12-06T13:59:59Z</time><name>PT8409</name></trkpt>
<trkpt lat="51.815665" lon="03.933920"><ele>0.2</ele><time>2023-12-06T14:00:00Z</time><name>PT8410</name></trkpt>
<trkpt lat="51.815676" lon="03.933913"><ele>0.3</ele><time>2023-12-06T14:00:02Z</time><name>PT8411</name></trkpt>
<trkpt lat="51.815685" lon="03.933906"><ele>0.2</ele><time>2023-12-06T14:00:02Z</time><name>PT8412</name></trkpt>
<trkpt lat="51.815694" lon="03.933899"><ele>0.2</ele><time>2023-12-06T14:00:04Z</time><name>PT8413</name></trkpt>
<trkpt lat="51.815703" lon="03.933892"><ele>0</ele><time>2023-12-06T14:00:05Z</time><name>PT8414</name></trkpt>
<trkpt lat="51.815709" lon="03.933884"><ele>0.1</ele><time>2023-12-06T14:00:05Z</time><name>PT8415</name></trkpt>
<trkpt lat="51.815712" lon="03.933875"><ele>0</ele><time>2023-12-06T14:00:06Z</time><name>PT8416</name></trkpt>
<trkpt lat="51.815718" lon="03.933867"><ele>0.1</ele><time>2023-12-06T14:00:08Z</time><name>PT8417</name></trkpt>
<trkpt lat="51.815725" lon="03.933858"><ele>0.2</ele><time>2023-12-06T14:00:08Z</time><name>PT8418</name></trkpt>
<trkpt lat="51.815735" lon="03.933849"><ele>0.2</ele><time>2023-12-06T14:00:09Z</time><name>PT8419</name></trkpt>
<trkpt lat="51.815746" lon="03.933843"><ele>0</ele><time>2023-12-06T14:00:11Z</time><name>PT8420</name></trkpt>
<trkpt lat="51.815755" lon="03.933836"><ele>0</ele><time>2023-12-06T14:00:11Z</time><name>PT8421</name></trkpt>
<trkpt lat="51.815766" lon="03.933829"><ele>0</ele><time>2023-12-06T14:00:12Z</time><name>PT8422</name></trkpt>
<trkpt lat="51.815775" lon="03.933823"><ele>0.1</ele><time>2023-12-06T14:00:14Z</time><name>PT8423</name></trkpt>
<trkpt lat="51.815783" lon="03.933815"><ele>0.1</ele><time>2023-12-06T14:00:14Z</time><name>PT8424</name></trkpt>
<trkpt lat="51.815790" lon="03.933806"><ele>0.1</ele><time>2023-12-06T14:00:15Z</time><name>PT8425</name></trkpt>
<trkpt lat="51.815797" lon="03.933797"><ele>0</ele><time>2023-12-06T14:00:17Z</time><name>PT8426</name></trkpt>
<trkpt lat="51.815808" lon="03.933788"><ele>0.1</ele><time>2023-12-06T14:00:17Z</time><name>PT8427</name></trkpt>
<trkpt lat="51.815818" lon="03.933781"><ele>0</ele><time>2023-12-06T14:00:18Z</time><name>PT8428</name></trkpt>
<trkpt lat="51.815829" lon="03.933775"><ele>0.1</ele><time>2023-12-06T14:00:20Z</time><name>PT8429</name></trkpt>
<trkpt lat="51.815839" lon="03.933768"><ele>0.2</ele><time>2023-12-06T14:00:20Z</time><name>PT8430</name></trkpt>
<trkpt lat="51.815851" lon="03.933760"><ele>0.1</ele><time>2023-12-06T14:00:21Z</time><name>PT8431</name></trkpt>
<trkpt lat="51.815862" lon="03.933754"><ele>0</ele><time>2023-12-06T14:00:23Z</time><name>PT8432</name></trkpt>
<trkpt lat="51.815875" lon="03.933746"><ele>0.1</ele><time>2023-12-06T14:00:23Z</time><name>PT8433</name></trkpt>
<trkpt lat="51.815887" lon="03.933739"><ele>0.2</ele><time>2023-12-06T14:00:24Z</time><name>PT8434</name></trkpt>
<trkpt lat="51.815897" lon="03.933731"><ele>0.2</ele><time>2023-12-06T14:00:26Z</time><name>PT8435</name></trkpt>
<trkpt lat="51.815907" lon="03.933721"><ele>0.2</ele><time>2023-12-06T14:00:26Z</time><name>PT8436</name></trkpt>
<trkpt lat="51.815917" lon="03.933711"><ele>0.2</ele><time>2023-12-06T14:00:27Z</time><name>PT8437</name></trkpt>
<trkpt lat="51.815927" lon="03.933702"><ele>0.2</ele><time>2023-12-06T14:00:29Z</time><name>PT8438</name></trkpt>
<trkpt lat="51.815937" lon="03.933694"><ele>0.2</ele><time>2023-12-06T14:00:29Z</time><name>PT8439</name></trkpt>
<trkpt lat="51.815947" lon="03.933686"><ele>0.3</ele><time>2023-12-06T14:00:30Z</time><name>PT8440</name></trkpt>
<trkpt lat="51.815958" lon="03.933677"><ele>0.4</ele><time>2023-12-06T14:00:32Z</time><name>PT8441</name></trkpt>
<trkpt lat="51.815970" lon="03.933670"><ele>0.3</ele><time>2023-12-06T14:00:32Z</time><name>PT8442</name></trkpt>
<trkpt lat="51.815981" lon="03.933663"><ele>0.3</ele><time>2023-12-06T14:00:34Z</time><name>PT8443</name></trkpt>
<trkpt lat="51.815990" lon="03.933655"><ele>0.3</ele><time>2023-12-06T14:00:35Z</time><name>PT8444</name></trkpt>
<trkpt lat="51.815999" lon="03.933646"><ele>0.3</ele><time>2023-12-06T14:00:35Z</time><name>PT8445</name></trkpt>
<trkpt lat="51.816007" lon="03.933635"><ele>0.4</ele><time>2023-12-06T14:00:36Z</time><name>PT8446</name></trkpt>
<trkpt lat="51.816017" lon="03.933624"><ele>0.4</ele><time>2023-12-06T14:00:38Z</time><name>PT8447</name></trkpt>
<trkpt lat="51.816025" lon="03.933615"><ele>0.2</ele><time>2023-12-06T14:00:38Z</time><name>PT8448</name></trkpt>
<trkpt lat="51.816034" lon="03.933605"><ele>0.2</ele><time>2023-12-06T14:00:39Z</time><name>PT8449</name></trkpt>
<trkpt lat="51.816043" lon="03.933595"><ele>0.1</ele><time>2023-12-06T14:00:41Z</time><name>PT8450</name></trkpt>
<trkpt lat="51.816053" lon="03.933585"><ele>0.1</ele><time>2023-12-06T14:00:41Z</time><name>PT8451</name></trkpt>
<trkpt lat="51.816061" lon="03.933575"><ele>0</ele><time>2023-12-06T14:00:42Z</time><name>PT8452</name></trkpt>
<trkpt lat="51.816069" lon="03.933564"><ele>0.1</ele><time>2023-12-06T14:00:44Z</time><name>PT8453</name></trkpt>
<trkpt lat="51.816080" lon="03.933553"><ele>0</ele><time>2023-12-06T14:00:44Z</time><name>PT8454</name></trkpt>
<trkpt lat="51.816089" lon="03.933543"><ele>0.1</ele><time>2023-12-06T14:00:45Z</time><name>PT8455</name></trkpt>
<trkpt lat="51.816099" lon="03.933533"><ele>0</ele><time>2023-12-06T14:00:47Z</time><name>PT8456</name></trkpt>
<trkpt lat="51.816109" lon="03.933522"><ele>0.1</ele><time>2023-12-06T14:00:47Z</time><name>PT8457</name></trkpt>
<trkpt lat="51.816119" lon="03.933510"><ele>0</ele><time>2023-12-06T14:00:48Z</time><name>PT8458</name></trkpt>
<trkpt lat="51.816128" lon="03.933499"><ele>0</ele><time>2023-12-06T14:00:50Z</time><name>PT8459</name></trkpt>
<trkpt lat="51.816139" lon="03.933491"><ele>0.1</ele><time>2023-12-06T14:00:50Z</time><name>PT8460</name></trkpt>
<trkpt lat="51.816150" lon="03.933484"><ele>0</ele><time>2023-12-06T14:00:51Z</time><name>PT8461</name></trkpt>
<trkpt lat="51.816160" lon="03.933477"><ele>0.2</ele><time>2023-12-06T14:00:53Z</time><name>PT8462</name></trkpt>
<trkpt lat="51.816172" lon="03.933468"><ele>0.3</ele><time>2023-12-06T14:00:53Z</time><name>PT8463</name></trkpt>
<trkpt lat="51.816184" lon="03.933460"><ele>0.3</ele><time>2023-12-06T14:00:54Z</time><name>PT8464</name></trkpt>
<trkpt lat="51.816195" lon="03.933452"><ele>0.4</ele><time>2023-12-06T14:00:56Z</time><name>PT8465</name></trkpt>
<trkpt lat="51.816204" lon="03.933444"><ele>0.2</ele><time>2023-12-06T14:00:56Z</time><name>PT8466</name></trkpt>
<trkpt lat="51.816213" lon="03.933435"><ele>0</ele><time>2023-12-06T14:00:57Z</time><name>PT8467</name></trkpt>
<trkpt lat="51.816222" lon="03.933423"><ele>0</ele><time>2023-12-06T14:00:59Z</time><name>PT8468</name></trkpt>
<trkpt lat="51.816231" lon="03.933411"><ele>0.1</ele><time>2023-12-06T14:00:59Z</time><name>PT8469</name></trkpt>
<trkpt lat="51.816240" lon="03.933400"><ele>0</ele><time>2023-12-06T14:01:00Z</time><name>PT8470</name></trkpt>
<trkpt lat="51.816249" lon="03.933391"><ele>0.1</ele><time>2023-12-06T14:01:02Z</time><name>PT8471</name></trkpt>
<trkpt lat="51.816259" lon="03.933383"><ele>0</ele><time>2023-12-06T14:01:02Z</time><name>PT8472</name></trkpt>
<trkpt lat="51.816268" lon="03.933377"><ele>0.1</ele><time>2023-12-06T14:01:03Z</time><name>PT8473</name></trkpt>
<trkpt lat="51.816278" lon="03.933370"><ele>0</ele><time>2023-12-06T14:01:05Z</time><name>PT8474</name></trkpt>
<trkpt lat="51.816288" lon="03.933364"><ele>0</ele><time>2023-12-06T14:01:05Z</time><name>PT8475</name></trkpt>
<trkpt lat="51.816297" lon="03.933354"><ele>0</ele><time>2023-12-06T14:01:07Z</time><name>PT8476</name></trkpt>
<trkpt lat="51.816306" lon="03.933347"><ele>0.1</ele><time>2023-12-06T14:01:08Z</time><name>PT8477</name></trkpt>
<trkpt lat="51.816314" lon="03.933345"><ele>0</ele><time>2023-12-06T14:01:08Z</time><name>PT8478</name></trkpt>
<trkpt lat="51.816322" lon="03.933343"><ele>0</ele><time>2023-12-06T14:01:09Z</time><name>PT8479</name></trkpt>
<trkpt lat="51.816331" lon="03.933341"><ele>0</ele><time>2023-12-06T14:01:11Z</time><name>PT8480</name></trkpt>
<trkpt lat="51.816342" lon="03.933337"><ele>0.2</ele><time>2023-12-06T14:01:11Z</time><name>PT8481</name></trkpt>
<trkpt lat="51.816354" lon="03.933336"><ele>0.2</ele><time>2023-12-06T14:01:13Z</time><name>PT8482</name></trkpt>
<trkpt lat="51.816364" lon="03.933337"><ele>0.2</ele><time>2023-12-06T14:01:14Z</time><name>PT8483</name></trkpt>
<trkpt lat="51.816374" lon="03.933343"><ele>0.2</ele><time>2023-12-06T14:01:14Z</time><name>PT8484</name></trkpt>
<trkpt lat="51.816383" lon="03.933354"><ele>0.2</ele><time>2023-12-06T14:01:15Z</time><name>PT8485</name></trkpt>
<trkpt lat="51.816390" lon="03.933368"><ele>0.2</ele><time>2023-12-06T14:01:17Z</time><name>PT8486</name></trkpt>
<trkpt lat="51.816397" lon="03.933384"><ele>0.1</ele><time>2023-12-06T14:01:17Z</time><name>PT8487</name></trkpt>
<trkpt lat="51.816404" lon="03.933398"><ele>0.2</ele><time>2023-12-06T14:01:18Z</time><name>PT8488</name></trkpt>
<trkpt lat="51.816408" lon="03.933411"><ele>0.2</ele><time>2023-12-06T14:01:20Z</time><name>PT8489</name></trkpt>
<trkpt lat="51.816414" lon="03.933423"><ele>0.2</ele><time>2023-12-06T14:01:20Z</time><name>PT8490</name></trkpt>
<trkpt lat="51.816420" lon="03.933437"><ele>0.2</ele><time>2023-12-06T14:01:21Z</time><name>PT8491</name></trkpt>
<trkpt lat="51.816426" lon="03.933450"><ele>0.2</ele><time>2023-12-06T14:01:23Z</time><name>PT8492</name></trkpt>
<trkpt lat="51.816432" lon="03.933464"><ele>0.2</ele><time>2023-12-06T14:01:23Z</time><name>PT8493</name></trkpt>
<trkpt lat="51.816435" lon="03.933478"><ele>0.1</ele><time>2023-12-06T14:01:24Z</time><name>PT8494</name></trkpt>
<trkpt lat="51.816436" lon="03.933493"><ele>0.1</ele><time>2023-12-06T14:01:26Z</time><name>PT8495</name></trkpt>
<trkpt lat="51.816441" lon="03.933507"><ele>0</ele><time>2023-12-06T14:01:26Z</time><name>PT8496</name></trkpt>
<trkpt lat="51.816446" lon="03.933520"><ele>0</ele><time>2023-12-06T14:01:27Z</time><name>PT8497</name></trkpt>
<trkpt lat="51.816451" lon="03.933534"><ele>0</ele><time>2023-12-06T14:01:29Z</time><name>PT8498</name></trkpt>
<trkpt lat="51.816457" lon="03.933549"><ele>0</ele><time>2023-12-06T14:01:29Z</time><name>PT8499</name></trkpt>
<trkpt lat="51.816464" lon="03.933565"><ele>0.1</ele><time>2023-12-06T14:01:30Z</time><name>PT8500</name></trkpt>
<trkpt lat="51.816472" lon="03.933578"><ele>0.2</ele><time>2023-12-06T14:01:32Z</time><name>PT8501</name></trkpt>
<trkpt lat="51.816479" lon="03.933591"><ele>0.2</ele><time>2023-12-06T14:01:32Z</time><name>PT8502</name></trkpt>
<trkpt lat="51.816485" lon="03.933605"><ele>0.2</ele><time>2023-12-06T14:01:33Z</time><name>PT8503</name></trkpt>
<trkpt lat="51.816492" lon="03.933619"><ele>0.2</ele><time>2023-12-06T14:01:35Z</time><name>PT8504</name></trkpt>
<trkpt lat="51.816498" lon="03.933634"><ele>0.2</ele><time>2023-12-06T14:01:35Z</time><name>PT8505</name></trkpt>
<trkpt lat="51.816504" lon="03.933651"><ele>0.2</ele><time>2023-12-06T14:01:36Z</time><name>PT8506</name></trkpt>
<trkpt lat="51.816508" lon="03.933667"><ele>0.2</ele><time>2023-12-06T14:01:38Z</time><name>PT8507</name></trkpt>
<trkpt lat="51.816513" lon="03.933685"><ele>0.2</ele><time>2023-12-06T14:01:38Z</time><name>PT8508</name></trkpt>
<trkpt lat="51.816517" lon="03.933702"><ele>0.2</ele><time>2023-12-06T14:01:39Z</time><name>PT8509</name></trkpt>
<trkpt lat="51.816522" lon="03.933719"><ele>0.2</ele><time>2023-12-06T14:01:41Z</time><name>PT8510</name></trkpt>
<trkpt lat="51.816527" lon="03.933735"><ele>0.2</ele><time>2023-12-06T14:01:41Z</time><name>PT8511</name></trkpt>
<trkpt lat="51.816534" lon="03.933751"><ele>0.2</ele><time>2023-12-06T14:01:42Z</time><name>PT8512</name></trkpt>
<trkpt lat="51.816540" lon="03.933766"><ele>0.2</ele><time>2023-12-06T14:01:44Z</time><name>PT8513</name></trkpt>
<trkpt lat="51.816545" lon="03.933782"><ele>0.2</ele><time>2023-12-06T14:01:44Z</time><name>PT8514</name></trkpt>
<trkpt lat="51.816550" lon="03.933797"><ele>0.2</ele><time>2023-12-06T14:01:45Z</time><name>PT8515</name></trkpt>
<trkpt lat="51.816556" lon="03.933813"><ele>0.1</ele><time>2023-12-06T14:01:47Z</time><name>PT8516</name></trkpt>
<trkpt lat="51.816563" lon="03.933829"><ele>0.1</ele><time>2023-12-06T14:01:47Z</time><name>PT8517</name></trkpt>
<trkpt lat="51.816570" lon="03.933843"><ele>0</ele><time>2023-12-06T14:01:48Z</time><name>PT8518</name></trkpt>
<trkpt lat="51.816576" lon="03.933857"><ele>0.2</ele><time>2023-12-06T14:01:50Z</time><name>PT8519</name></trkpt>
<trkpt lat="51.816582" lon="03.933871"><ele>0.2</ele><time>2023-12-06T14:01:50Z</time><name>PT8520</name></trkpt>
<trkpt lat="51.816588" lon="03.933888"><ele>0.2</ele><time>2023-12-06T14:01:51Z</time><name>PT8521</name></trkpt>
<trkpt lat="51.816596" lon="03.933906"><ele>0.1</ele><time>2023-12-06T14:01:53Z</time><name>PT8522</name></trkpt>
<trkpt lat="51.816602" lon="03.933923"><ele>0.2</ele><time>2023-12-06T14:01:53Z</time><name>PT8523</name></trkpt>
<trkpt lat="51.816607" lon="03.933940"><ele>0</ele><time>2023-12-06T14:01:54Z</time><name>PT8524</name></trkpt>
<trkpt lat="51.816611" lon="03.933956"><ele>0.2</ele><time>2023-12-06T14:01:56Z</time><name>PT8525</name></trkpt>
<trkpt lat="51.816617" lon="03.933972"><ele>0.2</ele><time>2023-12-06T14:01:56Z</time><name>PT8526</name></trkpt>
<trkpt lat="51.816622" lon="03.933989"><ele>0.2</ele><time>2023-12-06T14:01:57Z</time><name>PT8527</name></trkpt>
<trkpt lat="51.816628" lon="03.934005"><ele>0.2</ele><time>2023-12-06T14:01:59Z</time><name>PT8528</name></trkpt>
<trkpt lat="51.816635" lon="03.934017"><ele>0.1</ele><time>2023-12-06T14:01:59Z</time><name>PT8529</name></trkpt>
<trkpt lat="51.816644" lon="03.934029"><ele>0.1</ele><time>2023-12-06T14:02:00Z</time><name>PT8530</name></trkpt>
<trkpt lat="51.816652" lon="03.934041"><ele>0.2</ele><time>2023-12-06T14:02:02Z</time><name>PT8531</name></trkpt>
<trkpt lat="51.816659" lon="03.934054"><ele>0.2</ele><time>2023-12-06T14:02:02Z</time><name>PT8532</name></trkpt>
<trkpt lat="51.816667" lon="03.934066"><ele>0.3</ele><time>2023-12-06T14:02:03Z</time><name>PT8533</name></trkpt>
<trkpt lat="51.816675" lon="03.934080"><ele>0.3</ele><time>2023-12-06T14:02:05Z</time><name>PT8534</name></trkpt>
<trkpt lat="51.816683" lon="03.934093"><ele>0.4</ele><time>2023-12-06T14:02:05Z</time><name>PT8535</name></trkpt>
<trkpt lat="51.816691" lon="03.934108"><ele>0.3</ele><time>2023-12-06T14:02:06Z</time><name>PT8536</name></trkpt>
<trkpt lat="51.816698" lon="03.934122"><ele>0.2</ele><time>2023-12-06T14:02:08Z</time><name>PT8537</name></trkpt>
<trkpt lat="51.816703" lon="03.934137"><ele>0.3</ele><time>2023-12-06T14:02:08Z</time><name>PT8538</name></trkpt>
<trkpt lat="51.816709" lon="03.934151"><ele>0.3</ele><time>2023-12-06T14:02:09Z</time><name>PT8539</name></trkpt>
<trkpt lat="51.816715" lon="03.934165"><ele>0.3</ele><time>2023-12-06T14:02:11Z</time><name>PT8540</name></trkpt>
<trkpt lat="51.816720" lon="03.934179"><ele>0.4</ele><time>2023-12-06T14:02:11Z</time><name>PT8541</name></trkpt>
<trkpt lat="51.816724" lon="03.934193"><ele>0.2</ele><time>2023-12-06T14:02:12Z</time><name>PT8542</name></trkpt>
<trkpt lat="51.816730" lon="03.934205"><ele>0.3</ele><time>2023-12-06T14:02:14Z</time><name>PT8543</name></trkpt>
<trkpt lat="51.816737" lon="03.934219"><ele>0.3</ele><time>2023-12-06T14:02:14Z</time><name>PT8544</name></trkpt>
<trkpt lat="51.816743" lon="03.934233"><ele>0.4</ele><time>2023-12-06T14:02:15Z</time><name>PT8545</name></trkpt>
<trkpt lat="51.816747" lon="03.934246"><ele>0.5</ele><time>2023-12-06T14:02:17Z</time><name>PT8546</name></trkpt>
<trkpt lat="51.816752" lon="03.934263"><ele>0.7</ele><time>2023-12-06T14:02:17Z</time><name>PT8547</name></trkpt>
<trkpt lat="51.816755" lon="03.934280"><ele>0.5</ele><time>2023-12-06T14:02:18Z</time><name>PT8548</name></trkpt>
<trkpt lat="51.816758" lon="03.934298"><ele>0.3</ele><time>2023-12-06T14:02:20Z</time><name>PT8549</name></trkpt>
<trkpt lat="51.816761" lon="03.934315"><ele>0.2</ele><time>2023-12-06T14:02:20Z</time><name>PT8550</name></trkpt>
<trkpt lat="51.816766" lon="03.934332"><ele>0.2</ele><time>2023-12-06T14:02:21Z</time><name>PT8551</name></trkpt>
<trkpt lat="51.816771" lon="03.934351"><ele>0.2</ele><time>2023-12-06T14:02:23Z</time><name>PT8552</name></trkpt>
<trkpt lat="51.816774" lon="03.934366"><ele>0.2</ele><time>2023-12-06T14:02:23Z</time><name>PT8553</name></trkpt>
<trkpt lat="51.816778" lon="03.934380"><ele>0.3</ele><time>2023-12-06T14:02:24Z</time><name>PT8554</name></trkpt>
<trkpt lat="51.816781" lon="03.934396"><ele>0.2</ele><time>2023-12-06T14:02:26Z</time><name>PT8555</name></trkpt>
<trkpt lat="51.816785" lon="03.934414"><ele>0.2</ele><time>2023-12-06T14:02:26Z</time><name>PT8556</name></trkpt>
<trkpt lat="51.816788" lon="03.934431"><ele>0.4</ele><time>2023-12-06T14:02:27Z</time><name>PT8557</name></trkpt>
<trkpt lat="51.816791" lon="03.934447"><ele>0.4</ele><time>2023-12-06T14:02:29Z</time><name>PT8558</name></trkpt>
<trkpt lat="51.816795" lon="03.934464"><ele>0.5</ele><time>2023-12-06T14:02:29Z</time><name>PT8559</name></trkpt>
<trkpt lat="51.816800" lon="03.934482"><ele>0.6</ele><time>2023-12-06T14:02:30Z</time><name>PT8560</name></trkpt>
<trkpt lat="51.816805" lon="03.934498"><ele>0.5</ele><time>2023-12-06T14:02:32Z</time><name>PT8561</name></trkpt>
<trkpt lat="51.816810" lon="03.934513"><ele>0.5</ele><time>2023-12-06T14:02:32Z</time><name>PT8562</name></trkpt>
<trkpt lat="51.816814" lon="03.934528"><ele>0.6</ele><time>2023-12-06T14:02:33Z</time><name>PT8563</name></trkpt>
<trkpt lat="51.816817" lon="03.934545"><ele>0.5</ele><time>2023-12-06T14:02:35Z</time><name>PT8564</name></trkpt>
<trkpt lat="51.816821" lon="03.934561"><ele>0.5</ele><time>2023-12-06T14:02:35Z</time><name>PT8565</name></trkpt>
<trkpt lat="51.816824" lon="03.934580"><ele>0.3</ele><time>2023-12-06T14:02:36Z</time><name>PT8566</name></trkpt>
<trkpt lat="51.816827" lon="03.934597"><ele>0.3</ele><time>2023-12-06T14:02:38Z</time><name>PT8567</name></trkpt>
<trkpt lat="51.816830" lon="03.934613"><ele>0.2</ele><time>2023-12-06T14:02:38Z</time><name>PT8568</name></trkpt>
<trkpt lat="51.816835" lon="03.934629"><ele>0</ele><time>2023-12-06T14:02:39Z</time><name>PT8569</name></trkpt>
<trkpt lat="51.816839" lon="03.934645"><ele>0</ele><time>2023-12-06T14:02:41Z</time><name>PT8570</name></trkpt>
<trkpt lat="51.816844" lon="03.934659"><ele>0.1</ele><time>2023-12-06T14:02:41Z</time><name>PT8571</name></trkpt>
<trkpt lat="51.816847" lon="03.934676"><ele>0.1</ele><time>2023-12-06T14:02:42Z</time><name>PT8572</name></trkpt>
<trkpt lat="51.816851" lon="03.934695"><ele>0.3</ele><time>2023-12-06T14:02:44Z</time><name>PT8573</name></trkpt>
<trkpt lat="51.816855" lon="03.934713"><ele>0.5</ele><time>2023-12-06T14:02:44Z</time><name>PT8574</name></trkpt>
<trkpt lat="51.816858" lon="03.934732"><ele>0.5</ele><time>2023-12-06T14:02:45Z</time><name>PT8575</name></trkpt>
<trkpt lat="51.816859" lon="03.934749"><ele>0.5</ele><time>2023-12-06T14:02:47Z</time><name>PT8576</name></trkpt>
<trkpt lat="51.816863" lon="03.934764"><ele>0.4</ele><time>2023-12-06T14:02:47Z</time><name>PT8577</name></trkpt>
<trkpt lat="51.816868" lon="03.934780"><ele>0.3</ele><time>2023-12-06T14:02:48Z</time><name>PT8578</name></trkpt>
<trkpt lat="51.816873" lon="03.934793"><ele>0.2</ele><time>2023-12-06T14:02:49Z</time><name>PT8579</name></trkpt>
<trkpt lat="51.816878" lon="03.934806"><ele>0.2</ele><time>2023-12-06T14:02:50Z</time><name>PT8580</name></trkpt>
<trkpt lat="51.816883" lon="03.934824"><ele>0.2</ele><time>2023-12-06T14:02:52Z</time><name>PT8581</name></trkpt>
<trkpt lat="51.816887" lon="03.934842"><ele>0.4</ele><time>2023-12-06T14:02:52Z</time><name>PT8582</name></trkpt>
<trkpt lat="51.816891" lon="03.934859"><ele>0.6</ele><time>2023-12-06T14:02:53Z</time><name>PT8583</name></trkpt>
<trkpt lat="51.816893" lon="03.934872"><ele>0.5</ele><time>2023-12-06T14:02:55Z</time><name>PT8584</name></trkpt>
<trkpt lat="51.816896" lon="03.934884"><ele>0.5</ele><time>2023-12-06T14:02:55Z</time><name>PT8585</name></trkpt>
<trkpt lat="51.816901" lon="03.934901"><ele>0.4</ele><time>2023-12-06T14:02:56Z</time><name>PT8586</name></trkpt>
<trkpt lat="51.816904" lon="03.934917"><ele>0.3</ele><time>2023-12-06T14:02:58Z</time><name>PT8587</name></trkpt>
<trkpt lat="51.816909" lon="03.934936"><ele>0.3</ele><time>2023-12-06T14:02:58Z</time><name>PT8588</name></trkpt>
<trkpt lat="51.816912" lon="03.934955"><ele>0.5</ele><time>2023-12-06T14:02:59Z</time><name>PT8589</name></trkpt>
<trkpt lat="51.816916" lon="03.934971"><ele>0.4</ele><time>2023-12-06T14:03:01Z</time><name>PT8590</name></trkpt>
<trkpt lat="51.816918" lon="03.934985"><ele>0.4</ele><time>2023-12-06T14:03:01Z</time><name>PT8591</name></trkpt>
<trkpt lat="51.816922" lon="03.935001"><ele>0.2</ele><time>2023-12-06T14:03:03Z</time><name>PT8592</name></trkpt>
<trkpt lat="51.816927" lon="03.935018"><ele>0.2</ele><time>2023-12-06T14:03:03Z</time><name>PT8593</name></trkpt>
<trkpt lat="51.816932" lon="03.935034"><ele>0.2</ele><time>2023-12-06T14:03:04Z</time><name>PT8594</name></trkpt>
<trkpt lat="51.816936" lon="03.935052"><ele>0.4</ele><time>2023-12-06T14:03:06Z</time><name>PT8595</name></trkpt>
<trkpt lat="51.816939" lon="03.935071"><ele>0.4</ele><time>2023-12-06T14:03:06Z</time><name>PT8596</name></trkpt>
<trkpt lat="51.816943" lon="03.935091"><ele>0.3</ele><time>2023-12-06T14:03:07Z</time><name>PT8597</name></trkpt>
<trkpt lat="51.816946" lon="03.935109"><ele>0.2</ele><time>2023-12-06T14:03:09Z</time><name>PT8598</name></trkpt>
<trkpt lat="51.816948" lon="03.935126"><ele>0.2</ele><time>2023-12-06T14:03:09Z</time><name>PT8599</name></trkpt>
<trkpt lat="51.816953" lon="03.935141"><ele>0.3</ele><time>2023-12-06T14:03:10Z</time><name>PT8600</name></trkpt>
<trkpt lat="51.816957" lon="03.935153"><ele>0.3</ele><time>2023-12-06T14:03:12Z</time><name>PT8601</name></trkpt>
<trkpt lat="51.816958" lon="03.935162"><ele>0.4</ele><time>2023-12-06T14:03:12Z</time><name>PT8602</name></trkpt>
<trkpt lat="51.816959" lon="03.935168"><ele>0.7</ele><time>2023-12-06T14:03:13Z</time><name>PT8603</name></trkpt>
<trkpt lat="51.816960" lon="03.935172"><ele>0.7</ele><time>2023-12-06T14:03:15Z</time><name>PT8604</name></trkpt>
<trkpt lat="51.816960" lon="03.935174"><ele>0.7</ele><time>2023-12-06T14:03:15Z</time><name>PT8605</name></trkpt>
<trkpt lat="51.816964" lon="03.935157"><ele>1.1</ele><time>2023-12-06T14:03:27Z</time><name>PT8606</name></trkpt>
<trkpt lat="51.816963" lon="03.935157"><ele>1.1</ele><time>2023-12-06T14:03:27Z</time><name>PT8607</name></trkpt>
<trkpt lat="51.816963" lon="03.935159"><ele>1.2</ele><time>2023-12-06T14:03:28Z</time><name>PT8608</name></trkpt>
<trkpt lat="51.816963" lon="03.935165"><ele>0.9</ele><time>2023-12-06T14:03:30Z</time><name>PT8609</name></trkpt>
<trkpt lat="51.816966" lon="03.935173"><ele>0.8</ele><time>2023-12-06T14:03:30Z</time><name>PT8610</name></trkpt>
<trkpt lat="51.816968" lon="03.935179"><ele>0.8</ele><time>2023-12-06T14:03:31Z</time><name>PT8611</name></trkpt>
<trkpt lat="51.816970" lon="03.935186"><ele>0.7</ele><time>2023-12-06T14:03:33Z</time><name>PT8612</name></trkpt>
<trkpt lat="51.816970" lon="03.935188"><ele>0.7</ele><time>2023-12-06T14:03:33Z</time><name>PT8613</name></trkpt>
<trkpt lat="51.816971" lon="03.935189"><ele>0.8</ele><time>2023-12-06T14:03:34Z</time><name>PT8614</name></trkpt>
<trkpt lat="51.816972" lon="03.935189"><ele>0.7</ele><time>2023-12-06T14:03:36Z</time><name>PT8615</name></trkpt>
<trkpt lat="51.816978" lon="03.935194"><ele>1</ele><time>2023-12-06T14:03:45Z</time><name>PT8616</name></trkpt>
<trkpt lat="51.816988" lon="03.935203"><ele>0.8</ele><time>2023-12-06T14:03:46Z</time><name>PT8617</name></trkpt>
<trkpt lat="51.816994" lon="03.935208"><ele>0.7</ele><time>2023-12-06T14:03:48Z</time><name>PT8618</name></trkpt>
<trkpt lat="51.817000" lon="03.935213"><ele>0.7</ele><time>2023-12-06T14:03:48Z</time><name>PT8619</name></trkpt>
<trkpt lat="51.817007" lon="03.935219"><ele>0.7</ele><time>2023-12-06T14:03:49Z</time><name>PT8620</name></trkpt>
<trkpt lat="51.817014" lon="03.935224"><ele>0.6</ele><time>2023-12-06T14:03:51Z</time><name>PT8621</name></trkpt>
<trkpt lat="51.817023" lon="03.935227"><ele>0.7</ele><time>2023-12-06T14:03:51Z</time><name>PT8622</name></trkpt>
<trkpt lat="51.817033" lon="03.935229"><ele>0.6</ele><time>2023-12-06T14:03:52Z</time><name>PT8623</name></trkpt>
<trkpt lat="51.817046" lon="03.935228"><ele>0.6</ele><time>2023-12-06T14:03:54Z</time><name>PT8624</name></trkpt>
<trkpt lat="51.817056" lon="03.935228"><ele>0.6</ele><time>2023-12-06T14:03:54Z</time><name>PT8625</name></trkpt>
<trkpt lat="51.817065" lon="03.935228"><ele>0.7</ele><time>2023-12-06T14:03:55Z</time><name>PT8626</name></trkpt>
<trkpt lat="51.817078" lon="03.935232"><ele>0.7</ele><time>2023-12-06T14:03:57Z</time><name>PT8627</name></trkpt>
<trkpt lat="51.817085" lon="03.935235"><ele>0.7</ele><time>2023-12-06T14:03:57Z</time><name>PT8628</name></trkpt>
<trkpt lat="51.817094" lon="03.935236"><ele>1</ele><time>2023-12-06T14:03:58Z</time><name>PT8629</name></trkpt>
<trkpt lat="51.817104" lon="03.935239"><ele>0.9</ele><time>2023-12-06T14:04:00Z</time><name>PT8630</name></trkpt>
<trkpt lat="51.817116" lon="03.935242"><ele>1</ele><time>2023-12-06T14:04:00Z</time><name>PT8631</name></trkpt>
<trkpt lat="51.817126" lon="03.935243"><ele>1</ele><time>2023-12-06T14:04:01Z</time><name>PT8632</name></trkpt>
<trkpt lat="51.817136" lon="03.935245"><ele>1</ele><time>2023-12-06T14:04:03Z</time><name>PT8633</name></trkpt>
<trkpt lat="51.817145" lon="03.935246"><ele>0.9</ele><time>2023-12-06T14:04:03Z</time><name>PT8634</name></trkpt>
<trkpt lat="51.817154" lon="03.935249"><ele>0.8</ele><time>2023-12-06T14:04:04Z</time><name>PT8635</name></trkpt>
<trkpt lat="51.817163" lon="03.935255"><ele>0.9</ele><time>2023-12-06T14:04:06Z</time><name>PT8636</name></trkpt>
<trkpt lat="51.817172" lon="03.935259"><ele>0.8</ele><time>2023-12-06T14:04:06Z</time><name>PT8637</name></trkpt>
<trkpt lat="51.817184" lon="03.935262"><ele>0.8</ele><time>2023-12-06T14:04:08Z</time><name>PT8638</name></trkpt>
<trkpt lat="51.817195" lon="03.935266"><ele>0.9</ele><time>2023-12-06T14:04:09Z</time><name>PT8639</name></trkpt>
<trkpt lat="51.817206" lon="03.935271"><ele>1</ele><time>2023-12-06T14:04:09Z</time><name>PT8640</name></trkpt>
<trkpt lat="51.817218" lon="03.935276"><ele>0.9</ele><time>2023-12-06T14:04:10Z</time><name>PT8641</name></trkpt>
<trkpt lat="51.817229" lon="03.935282"><ele>0.9</ele><time>2023-12-06T14:04:12Z</time><name>PT8642</name></trkpt>
<trkpt lat="51.817241" lon="03.935286"><ele>0.7</ele><time>2023-12-06T14:04:12Z</time><name>PT8643</name></trkpt>
<trkpt lat="51.817251" lon="03.935291"><ele>0.7</ele><time>2023-12-06T14:04:14Z</time><name>PT8644</name></trkpt>
<trkpt lat="51.817263" lon="03.935298"><ele>0.7</ele><time>2023-12-06T14:04:15Z</time><name>PT8645</name></trkpt>
<trkpt lat="51.817275" lon="03.935307"><ele>0.7</ele><time>2023-12-06T14:04:15Z</time><name>PT8646</name></trkpt>
<trkpt lat="51.817287" lon="03.935315"><ele>0.7</ele><time>2023-12-06T14:04:16Z</time><name>PT8647</name></trkpt>
<trkpt lat="51.817297" lon="03.935323"><ele>0.8</ele><time>2023-12-06T14:04:18Z</time><name>PT8648</name></trkpt>
<trkpt lat="51.817305" lon="03.935329"><ele>0.7</ele><time>2023-12-06T14:04:18Z</time><name>PT8649</name></trkpt>
<trkpt lat="51.817315" lon="03.935331"><ele>0.6</ele><time>2023-12-06T14:04:19Z</time><name>PT8650</name></trkpt>
<trkpt lat="51.817323" lon="03.935340"><ele>0.7</ele><time>2023-12-06T14:04:21Z</time><name>PT8651</name></trkpt>
<trkpt lat="51.817333" lon="03.935349"><ele>0.6</ele><time>2023-12-06T14:04:21Z</time><name>PT8652</name></trkpt>
<trkpt lat="51.817344" lon="03.935357"><ele>0.6</ele><time>2023-12-06T14:04:22Z</time><name>PT8653</name></trkpt>
<trkpt lat="51.817356" lon="03.935363"><ele>0.6</ele><time>2023-12-06T14:04:24Z</time><name>PT8654</name></trkpt>
<trkpt lat="51.817368" lon="03.935367"><ele>0.5</ele><time>2023-12-06T14:04:24Z</time><name>PT8655</name></trkpt>
<trkpt lat="51.817379" lon="03.935374"><ele>0.4</ele><time>2023-12-06T14:04:25Z</time><name>PT8656</name></trkpt>
<trkpt lat="51.817391" lon="03.935383"><ele>0.5</ele><time>2023-12-06T14:04:27Z</time><name>PT8657</name></trkpt>
<trkpt lat="51.817400" lon="03.935392"><ele>0.5</ele><time>2023-12-06T14:04:27Z</time><name>PT8658</name></trkpt>
<trkpt lat="51.817409" lon="03.935400"><ele>0.5</ele><time>2023-12-06T14:04:28Z</time><name>PT8659</name></trkpt>
<trkpt lat="51.817418" lon="03.935408"><ele>0.8</ele><time>2023-12-06T14:04:30Z</time><name>PT8660</name></trkpt>
<trkpt lat="51.817428" lon="03.935416"><ele>0.8</ele><time>2023-12-06T14:04:30Z</time><name>PT8661</name></trkpt>
<trkpt lat="51.817438" lon="03.935424"><ele>0.8</ele><time>2023-12-06T14:04:31Z</time><name>PT8662</name></trkpt>
<trkpt lat="51.817448" lon="03.935434"><ele>0.9</ele><time>2023-12-06T14:04:33Z</time><name>PT8663</name></trkpt>
<trkpt lat="51.817459" lon="03.935439"><ele>0.9</ele><time>2023-12-06T14:04:33Z</time><name>PT8664</name></trkpt>
<trkpt lat="51.817471" lon="03.935444"><ele>0.8</ele><time>2023-12-06T14:04:34Z</time><name>PT8665</name></trkpt>
<trkpt lat="51.817481" lon="03.935450"><ele>0.9</ele><time>2023-12-06T14:04:36Z</time><name>PT8666</name></trkpt>
<trkpt lat="51.817489" lon="03.935455"><ele>0.8</ele><time>2023-12-06T14:04:36Z</time><name>PT8667</name></trkpt>
<trkpt lat="51.817505" lon="03.935461"><ele>0.8</ele><time>2023-12-06T14:04:37Z</time><name>PT8668</name></trkpt>
<trkpt lat="51.817522" lon="03.935463"><ele>0.7</ele><time>2023-12-06T14:04:39Z</time><name>PT8669</name></trkpt>
<trkpt lat="51.817541" lon="03.935468"><ele>0.7</ele><time>2023-12-06T14:04:39Z</time><name>PT8670</name></trkpt>
<trkpt lat="51.817560" lon="03.935476"><ele>0.6</ele><time>2023-12-06T14:04:40Z</time><name>PT8671</name></trkpt>
<trkpt lat="51.817578" lon="03.935484"><ele>0.7</ele><time>2023-12-06T14:04:42Z</time><name>PT8672</name></trkpt>
<trkpt lat="51.817594" lon="03.935494"><ele>0.6</ele><time>2023-12-06T14:04:42Z</time><name>PT8673</name></trkpt>
<trkpt lat="51.817608" lon="03.935500"><ele>0.8</ele><time>2023-12-06T14:04:43Z</time><name>PT8674</name></trkpt>
<trkpt lat="51.817622" lon="03.935504"><ele>0.9</ele><time>2023-12-06T14:04:45Z</time><name>PT8675</name></trkpt>
<trkpt lat="51.817632" lon="03.935506"><ele>0.9</ele><time>2023-12-06T14:04:45Z</time><name>PT8676</name></trkpt>
<trkpt lat="51.817637" lon="03.935506"><ele>0.7</ele><time>2023-12-06T14:04:46Z</time><name>PT8677</name></trkpt>
<trkpt lat="51.817641" lon="03.935505"><ele>0.7</ele><time>2023-12-06T14:04:48Z</time><name>PT8678</name></trkpt>
<trkpt lat="51.817645" lon="03.935504"><ele>0.7</ele><time>2023-12-06T14:04:48Z</time><name>PT8679</name></trkpt>
<trkpt lat="51.817648" lon="03.935506"><ele>0.7</ele><time>2023-12-06T14:04:49Z</time><name>PT8680</name></trkpt>
<trkpt lat="51.817651" lon="03.935505"><ele>0.9</ele><time>2023-12-06T14:04:51Z</time><name>PT8681</name></trkpt>
<trkpt lat="51.817655" lon="03.935504"><ele>1</ele><time>2023-12-06T14:04:51Z</time><name>PT8682</name></trkpt>
<trkpt lat="51.817662" lon="03.935506"><ele>1.1</ele><time>2023-12-06T14:04:52Z</time><name>PT8683</name></trkpt>
<trkpt lat="51.817670" lon="03.935513"><ele>0.9</ele><time>2023-12-06T14:04:54Z</time><name>PT8684</name></trkpt>
<trkpt lat="51.817681" lon="03.935515"><ele>0.9</ele><time>2023-12-06T14:04:54Z</time><name>PT8685</name></trkpt>
<trkpt lat="51.817696" lon="03.935516"><ele>0.7</ele><time>2023-12-06T14:04:55Z</time><name>PT8686</name></trkpt>
<trkpt lat="51.817713" lon="03.935517"><ele>0.6</ele><time>2023-12-06T14:04:57Z</time><name>PT8687</name></trkpt>
<trkpt lat="51.817727" lon="03.935520"><ele>0.7</ele><time>2023-12-06T14:04:57Z</time><name>PT8688</name></trkpt>
<trkpt lat="51.817737" lon="03.935523"><ele>0.7</ele><time>2023-12-06T14:04:58Z</time><name>PT8689</name></trkpt>
<trkpt lat="51.817749" lon="03.935529"><ele>0.7</ele><time>2023-12-06T14:05:00Z</time><name>PT8690</name></trkpt>
<trkpt lat="51.817763" lon="03.935535"><ele>0.7</ele><time>2023-12-06T14:05:00Z</time><name>PT8691</name></trkpt>
<trkpt lat="51.817773" lon="03.935538"><ele>0.7</ele><time>2023-12-06T14:05:01Z</time><name>PT8692</name></trkpt>
<trkpt lat="51.817780" lon="03.935542"><ele>0.6</ele><time>2023-12-06T14:05:03Z</time><name>PT8693</name></trkpt>
<trkpt lat="51.817787" lon="03.935544"><ele>0.6</ele><time>2023-12-06T14:05:03Z</time><name>PT8694</name></trkpt>
<trkpt lat="51.817792" lon="03.935546"><ele>0.6</ele><time>2023-12-06T14:05:04Z</time><name>PT8695</name></trkpt>
<trkpt lat="51.817796" lon="03.935545"><ele>0.7</ele><time>2023-12-06T14:05:06Z</time><name>PT8696</name></trkpt>
<trkpt lat="51.817802" lon="03.935535"><ele>0.7</ele><time>2023-12-06T14:05:06Z</time><name>PT8697</name></trkpt>
<trkpt lat="51.817809" lon="03.935531"><ele>0.6</ele><time>2023-12-06T14:05:07Z</time><name>PT8698</name></trkpt>
<trkpt lat="51.817821" lon="03.935533"><ele>0.7</ele><time>2023-12-06T14:05:09Z</time><name>PT8699</name></trkpt>
<trkpt lat="51.817831" lon="03.935536"><ele>0.7</ele><time>2023-12-06T14:05:09Z</time><name>PT8700</name></trkpt>
<trkpt lat="51.817844" lon="03.935542"><ele>0.7</ele><time>2023-12-06T14:05:10Z</time><name>PT8701</name></trkpt>
<trkpt lat="51.817859" lon="03.935546"><ele>0.7</ele><time>2023-12-06T14:05:12Z</time><name>PT8702</name></trkpt>
<trkpt lat="51.817874" lon="03.935556"><ele>0.8</ele><time>2023-12-06T14:05:12Z</time><name>PT8703</name></trkpt>
<trkpt lat="51.817891" lon="03.935564"><ele>0.8</ele><time>2023-12-06T14:05:13Z</time><name>PT8704</name></trkpt>
<trkpt lat="51.817909" lon="03.935573"><ele>0.7</ele><time>2023-12-06T14:05:15Z</time><name>PT8705</name></trkpt>
<trkpt lat="51.817927" lon="03.935580"><ele>0.7</ele><time>2023-12-06T14:05:15Z</time><name>PT8706</name></trkpt>
<trkpt lat="51.817944" lon="03.935589"><ele>0.7</ele><time>2023-12-06T14:05:16Z</time><name>PT8707</name></trkpt>
<trkpt lat="51.817957" lon="03.935594"><ele>0.7</ele><time>2023-12-06T14:05:18Z</time><name>PT8708</name></trkpt>
<trkpt lat="51.817967" lon="03.935597"><ele>0.6</ele><time>2023-12-06T14:05:18Z</time><name>PT8709</name></trkpt>
<trkpt lat="51.817975" lon="03.935598"><ele>0.6</ele><time>2023-12-06T14:05:19Z</time><name>PT8710</name></trkpt>
<trkpt lat="51.817980" lon="03.935597"><ele>0.5</ele><time>2023-12-06T14:05:21Z</time><name>PT8711</name></trkpt>
<trkpt lat="51.817988" lon="03.935599"><ele>0.6</ele><time>2023-12-06T14:05:21Z</time><name>PT8712</name></trkpt>
<trkpt lat="51.817996" lon="03.935600"><ele>0.7</ele><time>2023-12-06T14:05:22Z</time><name>PT8713</name></trkpt>
<trkpt lat="51.818009" lon="03.935600"><ele>0.7</ele><time>2023-12-06T14:05:24Z</time><name>PT8714</name></trkpt>
<trkpt lat="51.818022" lon="03.935601"><ele>0.7</ele><time>2023-12-06T14:05:24Z</time><name>PT8715</name></trkpt>
<trkpt lat="51.818037" lon="03.935599"><ele>0.8</ele><time>2023-12-06T14:05:25Z</time><name>PT8716</name></trkpt>
<trkpt lat="51.818056" lon="03.935599"><ele>0.6</ele><time>2023-12-06T14:05:27Z</time><name>PT8717</name></trkpt>
<trkpt lat="51.818073" lon="03.935602"><ele>0.5</ele><time>2023-12-06T14:05:27Z</time><name>PT8718</name></trkpt>
<trkpt lat="51.818085" lon="03.935599"><ele>0.5</ele><time>2023-12-06T14:05:28Z</time><name>PT8719</name></trkpt>
<trkpt lat="51.818094" lon="03.935599"><ele>0.5</ele><time>2023-12-06T14:05:30Z</time><name>PT8720</name></trkpt>
<trkpt lat="51.818100" lon="03.935597"><ele>0.4</ele><time>2023-12-06T14:05:30Z</time><name>PT8721</name></trkpt>
<trkpt lat="51.818104" lon="03.935596"><ele>0.6</ele><time>2023-12-06T14:05:31Z</time><name>PT8722</name></trkpt>
<trkpt lat="51.818116" lon="03.935593"><ele>0.7</ele><time>2023-12-06T14:05:33Z</time><name>PT8723</name></trkpt>
<trkpt lat="51.818128" lon="03.935589"><ele>0.8</ele><time>2023-12-06T14:05:33Z</time><name>PT8724</name></trkpt>
<trkpt lat="51.818141" lon="03.935585"><ele>0.7</ele><time>2023-12-06T14:05:34Z</time><name>PT8725</name></trkpt>
<trkpt lat="51.818154" lon="03.935584"><ele>0.7</ele><time>2023-12-06T14:05:36Z</time><name>PT8726</name></trkpt>
<trkpt lat="51.818168" lon="03.935586"><ele>0.6</ele><time>2023-12-06T14:05:36Z</time><name>PT8727</name></trkpt>
<trkpt lat="51.818179" lon="03.935586"><ele>0.5</ele><time>2023-12-06T14:05:37Z</time><name>PT8728</name></trkpt>
<trkpt lat="51.818188" lon="03.935589"><ele>0.6</ele><time>2023-12-06T14:05:39Z</time><name>PT8729</name></trkpt>
<trkpt lat="51.818194" lon="03.935590"><ele>0.5</ele><time>2023-12-06T14:05:40Z</time><name>PT8730</name></trkpt>
<trkpt lat="51.818202" lon="03.935591"><ele>0.5</ele><time>2023-12-06T14:05:40Z</time><name>PT8731</name></trkpt>
<trkpt lat="51.818211" lon="03.935591"><ele>0.6</ele><time>2023-12-06T14:05:42Z</time><name>PT8732</name></trkpt>
<trkpt lat="51.818222" lon="03.935593"><ele>0.5</ele><time>2023-12-06T14:05:42Z</time><name>PT8733</name></trkpt>
<trkpt lat="51.818236" lon="03.935595"><ele>0.2</ele><time>2023-12-06T14:05:43Z</time><name>PT8734</name></trkpt>
<trkpt lat="51.818255" lon="03.935601"><ele>0.2</ele><time>2023-12-06T14:05:45Z</time><name>PT8735</name></trkpt>
<trkpt lat="51.818273" lon="03.935605"><ele>0.4</ele><time>2023-12-06T14:05:45Z</time><name>PT8736</name></trkpt>
<trkpt lat="51.818291" lon="03.935607"><ele>0.3</ele><time>2023-12-06T14:05:46Z</time><name>PT8737</name></trkpt>
<trkpt lat="51.818308" lon="03.935613"><ele>0.4</ele><time>2023-12-06T14:05:48Z</time><name>PT8738</name></trkpt>
<trkpt lat="51.818324" lon="03.935620"><ele>0.6</ele><time>2023-12-06T14:05:48Z</time><name>PT8739</name></trkpt>
<trkpt lat="51.818334" lon="03.935626"><ele>0.4</ele><time>2023-12-06T14:05:49Z</time><name>PT8740</name></trkpt>
<trkpt lat="51.818340" lon="03.935624"><ele>0.6</ele><time>2023-12-06T14:05:51Z</time><name>PT8741</name></trkpt>
<trkpt lat="51.818343" lon="03.935622"><ele>0.6</ele><time>2023-12-06T14:05:51Z</time><name>PT8742</name></trkpt>
<trkpt lat="51.818348" lon="03.935624"><ele>0.5</ele><time>2023-12-06T14:05:52Z</time><name>PT8743</name></trkpt>
<trkpt lat="51.818362" lon="03.935626"><ele>0.6</ele><time>2023-12-06T14:05:54Z</time><name>PT8744</name></trkpt>
<trkpt lat="51.818371" lon="03.935626"><ele>0.6</ele><time>2023-12-06T14:05:54Z</time><name>PT8745</name></trkpt>
<trkpt lat="51.818380" lon="03.935626"><ele>0.7</ele><time>2023-12-06T14:05:55Z</time><name>PT8746</name></trkpt>
<trkpt lat="51.818389" lon="03.935623"><ele>0.7</ele><time>2023-12-06T14:05:57Z</time><name>PT8747</name></trkpt>
<trkpt lat="51.818398" lon="03.935623"><ele>0.7</ele><time>2023-12-06T14:05:57Z</time><name>PT8748</name></trkpt>
<trkpt lat="51.818411" lon="03.935622"><ele>0.6</ele><time>2023-12-06T14:05:59Z</time><name>PT8749</name></trkpt>
<trkpt lat="51.818425" lon="03.935622"><ele>0.5</ele><time>2023-12-06T14:06:00Z</time><name>PT8750</name></trkpt>
<trkpt lat="51.818436" lon="03.935623"><ele>0.4</ele><time>2023-12-06T14:06:00Z</time><name>PT8751</name></trkpt>
<trkpt lat="51.818447" lon="03.935624"><ele>0.3</ele><time>2023-12-06T14:06:01Z</time><name>PT8752</name></trkpt>
<trkpt lat="51.818454" lon="03.935625"><ele>0.3</ele><time>2023-12-06T14:06:03Z</time><name>PT8753</name></trkpt>
<trkpt lat="51.818462" lon="03.935628"><ele>0.3</ele><time>2023-12-06T14:06:03Z</time><name>PT8754</name></trkpt>
<trkpt lat="51.818470" lon="03.935633"><ele>0.6</ele><time>2023-12-06T14:06:04Z</time><name>PT8755</name></trkpt>
<trkpt lat="51.818482" lon="03.935637"><ele>0.6</ele><time>2023-12-06T14:06:06Z</time><name>PT8756</name></trkpt>
<trkpt lat="51.818493" lon="03.935638"><ele>0.5</ele><time>2023-12-06T14:06:06Z</time><name>PT8757</name></trkpt>
<trkpt lat="51.818503" lon="03.935637"><ele>0.6</ele><time>2023-12-06T14:06:07Z</time><name>PT8758</name></trkpt>
<trkpt lat="51.818514" lon="03.935637"><ele>0.5</ele><time>2023-12-06T14:06:09Z</time><name>PT8759</name></trkpt>
<trkpt lat="51.818523" lon="03.935633"><ele>0.3</ele><time>2023-12-06T14:06:09Z</time><name>PT8760</name></trkpt>
<trkpt lat="51.818529" lon="03.935634"><ele>0.4</ele><time>2023-12-06T14:06:10Z</time><name>PT8761</name></trkpt>
<trkpt lat="51.818538" lon="03.935633"><ele>0.3</ele><time>2023-12-06T14:06:12Z</time><name>PT8762</name></trkpt>
<trkpt lat="51.818549" lon="03.935637"><ele>0.2</ele><time>2023-12-06T14:06:12Z</time><name>PT8763</name></trkpt>
<trkpt lat="51.818562" lon="03.935641"><ele>0.2</ele><time>2023-12-06T14:06:13Z</time><name>PT8764</name></trkpt>
<trkpt lat="51.818575" lon="03.935643"><ele>0.3</ele><time>2023-12-06T14:06:15Z</time><name>PT8765</name></trkpt>
<trkpt lat="51.818586" lon="03.935649"><ele>0.5</ele><time>2023-12-06T14:06:15Z</time><name>PT8766</name></trkpt>
<trkpt lat="51.818595" lon="03.935648"><ele>0.7</ele><time>2023-12-06T14:06:16Z</time><name>PT8767</name></trkpt>
<trkpt lat="51.818601" lon="03.935648"><ele>0.8</ele><time>2023-12-06T14:06:18Z</time><name>PT8768</name></trkpt>
<trkpt lat="51.818606" lon="03.935648"><ele>0.7</ele><time>2023-12-06T14:06:18Z</time><name>PT8769</name></trkpt>
<trkpt lat="51.818611" lon="03.935653"><ele>0.6</ele><time>2023-12-06T14:06:20Z</time><name>PT8770</name></trkpt>
<trkpt lat="51.818621" lon="03.935650"><ele>0.3</ele><time>2023-12-06T14:06:21Z</time><name>PT8771</name></trkpt>
<trkpt lat="51.818641" lon="03.935651"><ele>0.5</ele><time>2023-12-06T14:06:21Z</time><name>PT8772</name></trkpt>
<trkpt lat="51.818660" lon="03.935660"><ele>0.7</ele><time>2023-12-06T14:06:22Z</time><name>PT8773</name></trkpt>
<trkpt lat="51.818675" lon="03.935670"><ele>0.8</ele><time>2023-12-06T14:06:24Z</time><name>PT8774</name></trkpt>
<trkpt lat="51.818685" lon="03.935668"><ele>0.7</ele><time>2023-12-06T14:06:24Z</time><name>PT8775</name></trkpt>
<trkpt lat="51.818695" lon="03.935669"><ele>0.7</ele><time>2023-12-06T14:06:25Z</time><name>PT8776</name></trkpt>
<trkpt lat="51.818709" lon="03.935671"><ele>0.8</ele><time>2023-12-06T14:06:27Z</time><name>PT8777</name></trkpt>
<trkpt lat="51.818721" lon="03.935677"><ele>0.8</ele><time>2023-12-06T14:06:27Z</time><name>PT8778</name></trkpt>
<trkpt lat="51.818734" lon="03.935676"><ele>0.7</ele><time>2023-12-06T14:06:28Z</time><name>PT8779</name></trkpt>
<trkpt lat="51.818744" lon="03.935677"><ele>0.7</ele><time>2023-12-06T14:06:30Z</time><name>PT8780</name></trkpt>
<trkpt lat="51.818755" lon="03.935678"><ele>0.8</ele><time>2023-12-06T14:06:30Z</time><name>PT8781</name></trkpt>
<trkpt lat="51.818767" lon="03.935677"><ele>0.6</ele><time>2023-12-06T14:06:31Z</time><name>PT8782</name></trkpt>
<trkpt lat="51.818777" lon="03.935680"><ele>0.5</ele><time>2023-12-06T14:06:33Z</time><name>PT8783</name></trkpt>
<trkpt lat="51.818788" lon="03.935682"><ele>0.4</ele><time>2023-12-06T14:06:33Z</time><name>PT8784</name></trkpt>
<trkpt lat="51.818801" lon="03.935683"><ele>0.6</ele><time>2023-12-06T14:06:34Z</time><name>PT8785</name></trkpt>
<trkpt lat="51.818814" lon="03.935684"><ele>0.5</ele><time>2023-12-06T14:06:36Z</time><name>PT8786</name></trkpt>
<trkpt lat="51.818825" lon="03.935685"><ele>0.5</ele><time>2023-12-06T14:06:36Z</time><name>PT8787</name></trkpt>
<trkpt lat="51.818834" lon="03.935689"><ele>0.6</ele><time>2023-12-06T14:06:37Z</time><name>PT8788</name></trkpt>
<trkpt lat="51.818846" lon="03.935688"><ele>0.6</ele><time>2023-12-06T14:06:39Z</time><name>PT8789</name></trkpt>
<trkpt lat="51.818857" lon="03.935686"><ele>0.7</ele><time>2023-12-06T14:06:39Z</time><name>PT8790</name></trkpt>
<trkpt lat="51.818868" lon="03.935681"><ele>0.7</ele><time>2023-12-06T14:06:40Z</time><name>PT8791</name></trkpt>
<trkpt lat="51.818879" lon="03.935676"><ele>0.7</ele><time>2023-12-06T14:06:42Z</time><name>PT8792</name></trkpt>
<trkpt lat="51.818890" lon="03.935675"><ele>0.7</ele><time>2023-12-06T14:06:42Z</time><name>PT8793</name></trkpt>
<trkpt lat="51.818902" lon="03.935675"><ele>0.8</ele><time>2023-12-06T14:06:43Z</time><name>PT8794</name></trkpt>
<trkpt lat="51.818914" lon="03.935675"><ele>0.8</ele><time>2023-12-06T14:06:45Z</time><name>PT8795</name></trkpt>
<trkpt lat="51.818925" lon="03.935676"><ele>0.9</ele><time>2023-12-06T14:06:45Z</time><name>PT8796</name></trkpt>
<trkpt lat="51.818937" lon="03.935678"><ele>1.2</ele><time>2023-12-06T14:06:46Z</time><name>PT8797</name></trkpt>
<trkpt lat="51.818947" lon="03.935676"><ele>1</ele><time>2023-12-06T14:06:48Z</time><name>PT8798</name></trkpt>
<trkpt lat="51.818958" lon="03.935674"><ele>1.2</ele><time>2023-12-06T14:06:48Z</time><name>PT8799</name></trkpt>
<trkpt lat="51.818968" lon="03.935669"><ele>0.9</ele><time>2023-12-06T14:06:49Z</time><name>PT8800</name></trkpt>
<trkpt lat="51.818978" lon="03.935670"><ele>0.6</ele><time>2023-12-06T14:06:51Z</time><name>PT8801</name></trkpt>
<trkpt lat="51.818993" lon="03.935663"><ele>0.3</ele><time>2023-12-06T14:06:51Z</time><name>PT8802</name></trkpt>
<trkpt lat="51.819009" lon="03.935650"><ele>0.2</ele><time>2023-12-06T14:06:52Z</time><name>PT8803</name></trkpt>
<trkpt lat="51.819023" lon="03.935640"><ele>0.2</ele><time>2023-12-06T14:06:54Z</time><name>PT8804</name></trkpt>
<trkpt lat="51.819035" lon="03.935633"><ele>0.2</ele><time>2023-12-06T14:06:54Z</time><name>PT8805</name></trkpt>
<trkpt lat="51.819046" lon="03.935629"><ele>0.3</ele><time>2023-12-06T14:06:55Z</time><name>PT8806</name></trkpt>
<trkpt lat="51.819055" lon="03.935627"><ele>0.3</ele><time>2023-12-06T14:06:57Z</time><name>PT8807</name></trkpt>
<trkpt lat="51.819062" lon="03.935624"><ele>0.4</ele><time>2023-12-06T14:06:57Z</time><name>PT8808</name></trkpt>
<trkpt lat="51.819066" lon="03.935623"><ele>0.3</ele><time>2023-12-06T14:06:58Z</time><name>PT8809</name></trkpt>
<trkpt lat="51.819074" lon="03.935620"><ele>0.3</ele><time>2023-12-06T14:07:00Z</time><name>PT8810</name></trkpt>
<trkpt lat="51.819083" lon="03.935619"><ele>0.3</ele><time>2023-12-06T14:07:00Z</time><name>PT8811</name></trkpt>
<trkpt lat="51.819093" lon="03.935620"><ele>0.6</ele><time>2023-12-06T14:07:01Z</time><name>PT8812</name></trkpt>
<trkpt lat="51.819098" lon="03.935623"><ele>0.6</ele><time>2023-12-06T14:07:03Z</time><name>PT8813</name></trkpt>
<trkpt lat="51.819099" lon="03.935626"><ele>0.6</ele><time>2023-12-06T14:07:03Z</time><name>PT8814</name></trkpt>
<trkpt lat="51.819107" lon="03.935624"><ele>0.6</ele><time>2023-12-06T14:07:04Z</time><name>PT8815</name></trkpt>
<trkpt lat="51.819116" lon="03.935623"><ele>0.7</ele><time>2023-12-06T14:07:06Z</time><name>PT8816</name></trkpt>
<trkpt lat="51.819119" lon="03.935622"><ele>0.5</ele><time>2023-12-06T14:07:06Z</time><name>PT8817</name></trkpt>
<trkpt lat="51.819122" lon="03.935624"><ele>0.6</ele><time>2023-12-06T14:07:07Z</time><name>PT8818</name></trkpt>
<trkpt lat="51.819120" lon="03.935623"><ele>0.7</ele><time>2023-12-06T14:07:09Z</time><name>PT8819</name></trkpt>
<trkpt lat="51.819122" lon="03.935629"><ele>0.7</ele><time>2023-12-06T14:07:09Z</time><name>PT8820</name></trkpt>
<trkpt lat="51.819120" lon="03.935633"><ele>0.6</ele><time>2023-12-06T14:07:11Z</time><name>PT8821</name></trkpt>
<trkpt lat="51.819122" lon="03.935635"><ele>0.5</ele><time>2023-12-06T14:07:12Z</time><name>PT8822</name></trkpt>
<trkpt lat="51.819122" lon="03.935638"><ele>0.4</ele><time>2023-12-06T14:07:12Z</time><name>PT8823</name></trkpt>
<trkpt lat="51.819123" lon="03.935643"><ele>0.2</ele><time>2023-12-06T14:07:13Z</time><name>PT8824</name></trkpt>
<trkpt lat="51.819124" lon="03.935655"><ele>0</ele><time>2023-12-06T14:07:15Z</time><name>PT8825</name></trkpt>
<trkpt lat="51.819125" lon="03.935676"><ele>0.1</ele><time>2023-12-06T14:07:15Z</time><name>PT8826</name></trkpt>
<trkpt lat="51.819128" lon="03.935701"><ele>0.2</ele><time>2023-12-06T14:07:16Z</time><name>PT8827</name></trkpt>
<trkpt lat="51.819134" lon="03.935725"><ele>0.2</ele><time>2023-12-06T14:07:18Z</time><name>PT8828</name></trkpt>
<trkpt lat="51.819137" lon="03.935754"><ele>0.3</ele><time>2023-12-06T14:07:18Z</time><name>PT8829</name></trkpt>
<trkpt lat="51.819142" lon="03.935780"><ele>0.5</ele><time>2023-12-06T14:07:19Z</time><name>PT8830</name></trkpt>
<trkpt lat="51.819146" lon="03.935793"><ele>0.5</ele><time>2023-12-06T14:07:21Z</time><name>PT8831</name></trkpt>
<trkpt lat="51.819148" lon="03.935807"><ele>0.6</ele><time>2023-12-06T14:07:21Z</time><name>PT8832</name></trkpt>
<trkpt lat="51.819147" lon="03.935821"><ele>0.5</ele><time>2023-12-06T14:07:22Z</time><name>PT8833</name></trkpt>
<trkpt lat="51.819147" lon="03.935833"><ele>0.5</ele><time>2023-12-06T14:07:24Z</time><name>PT8834</name></trkpt>
<trkpt lat="51.819147" lon="03.935842"><ele>0.6</ele><time>2023-12-06T14:07:24Z</time><name>PT8835</name></trkpt>
<trkpt lat="51.819152" lon="03.935846"><ele>0.7</ele><time>2023-12-06T14:07:25Z</time><name>PT8836</name></trkpt>
<trkpt lat="51.819158" lon="03.935846"><ele>0.6</ele><time>2023-12-06T14:07:27Z</time><name>PT8837</name></trkpt>
<trkpt lat="51.819166" lon="03.935845"><ele>0.7</ele><time>2023-12-06T14:07:27Z</time><name>PT8838</name></trkpt>
<trkpt lat="51.819173" lon="03.935844"><ele>0.7</ele><time>2023-12-06T14:07:28Z</time><name>PT8839</name></trkpt>
<trkpt lat="51.819184" lon="03.935843"><ele>0.6</ele><time>2023-12-06T14:07:30Z</time><name>PT8840</name></trkpt>
<trkpt lat="51.819196" lon="03.935843"><ele>0.6</ele><time>2023-12-06T14:07:30Z</time><name>PT8841</name></trkpt>
<trkpt lat="51.819208" lon="03.935843"><ele>0.7</ele><time>2023-12-06T14:07:31Z</time><name>PT8842</name></trkpt>
<trkpt lat="51.819217" lon="03.935843"><ele>0.7</ele><time>2023-12-06T14:07:33Z</time><name>PT8843</name></trkpt>
<trkpt lat="51.819226" lon="03.935843"><ele>0.6</ele><time>2023-12-06T14:07:33Z</time><name>PT8844</name></trkpt>
<trkpt lat="51.819235" lon="03.935840"><ele>0.5</ele><time>2023-12-06T14:07:34Z</time><name>PT8845</name></trkpt>
<trkpt lat="51.819244" lon="03.935838"><ele>0.5</ele><time>2023-12-06T14:07:36Z</time><name>PT8846</name></trkpt>
<trkpt lat="51.819254" lon="03.935837"><ele>0.4</ele><time>2023-12-06T14:07:36Z</time><name>PT8847</name></trkpt>
<trkpt lat="51.819265" lon="03.935836"><ele>0.4</ele><time>2023-12-06T14:07:38Z</time><name>PT8848</name></trkpt>
<trkpt lat="51.819276" lon="03.935835"><ele>0.4</ele><time>2023-12-06T14:07:39Z</time><name>PT8849</name></trkpt>
<trkpt lat="51.819285" lon="03.935834"><ele>0.6</ele><time>2023-12-06T14:07:39Z</time><name>PT8850</name></trkpt>
<trkpt lat="51.819294" lon="03.935832"><ele>0.6</ele><time>2023-12-06T14:07:40Z</time><name>PT8851</name></trkpt>
<trkpt lat="51.819305" lon="03.935828"><ele>0.5</ele><time>2023-12-06T14:07:42Z</time><name>PT8852</name></trkpt>
<trkpt lat="51.819315" lon="03.935823"><ele>0.5</ele><time>2023-12-06T14:07:42Z</time><name>PT8853</name></trkpt>
<trkpt lat="51.819324" lon="03.935818"><ele>0.6</ele><time>2023-12-06T14:07:43Z</time><name>PT8854</name></trkpt>
<trkpt lat="51.819335" lon="03.935812"><ele>0.5</ele><time>2023-12-06T14:07:45Z</time><name>PT8855</name></trkpt>
<trkpt lat="51.819348" lon="03.935811"><ele>0.6</ele><time>2023-12-06T14:07:45Z</time><name>PT8856</name></trkpt>
<trkpt lat="51.819358" lon="03.935807"><ele>0.6</ele><time>2023-12-06T14:07:47Z</time><name>PT8857</name></trkpt>
<trkpt lat="51.819369" lon="03.935803"><ele>0.7</ele><time>2023-12-06T14:07:48Z</time><name>PT8858</name></trkpt>
<trkpt lat="51.819379" lon="03.935803"><ele>0.7</ele><time>2023-12-06T14:07:48Z</time><name>PT8859</name></trkpt>
<trkpt lat="51.819388" lon="03.935801"><ele>0.8</ele><time>2023-12-06T14:07:49Z</time><name>PT8860</name></trkpt>
<trkpt lat="51.819394" lon="03.935800"><ele>0.8</ele><time>2023-12-06T14:07:51Z</time><name>PT8861</name></trkpt>
<trkpt lat="51.819402" lon="03.935797"><ele>0.7</ele><time>2023-12-06T14:07:51Z</time><name>PT8862</name></trkpt>
<trkpt lat="51.819413" lon="03.935794"><ele>0.7</ele><time>2023-12-06T14:07:52Z</time><name>PT8863</name></trkpt>
<trkpt lat="51.819422" lon="03.935789"><ele>0.5</ele><time>2023-12-06T14:07:54Z</time><name>PT8864</name></trkpt>
<trkpt lat="51.819432" lon="03.935785"><ele>0.4</ele><time>2023-12-06T14:07:54Z</time><name>PT8865</name></trkpt>
<trkpt lat="51.819442" lon="03.935780"><ele>0.5</ele><time>2023-12-06T14:07:55Z</time><name>PT8866</name></trkpt>
<trkpt lat="51.819452" lon="03.935780"><ele>0.5</ele><time>2023-12-06T14:07:57Z</time><name>PT8867</name></trkpt>
<trkpt lat="51.819462" lon="03.935781"><ele>0.5</ele><time>2023-12-06T14:07:57Z</time><name>PT8868</name></trkpt>
<trkpt lat="51.819472" lon="03.935778"><ele>0.3</ele><time>2023-12-06T14:07:58Z</time><name>PT8869</name></trkpt>
<trkpt lat="51.819483" lon="03.935772"><ele>0.4</ele><time>2023-12-06T14:08:00Z</time><name>PT8870</name></trkpt>
<trkpt lat="51.819494" lon="03.935767"><ele>0.4</ele><time>2023-12-06T14:08:00Z</time><name>PT8871</name></trkpt>
<trkpt lat="51.819504" lon="03.935761"><ele>0.4</ele><time>2023-12-06T14:08:01Z</time><name>PT8872</name></trkpt>
<trkpt lat="51.819513" lon="03.935757"><ele>0.3</ele><time>2023-12-06T14:08:03Z</time><name>PT8873</name></trkpt>
<trkpt lat="51.819524" lon="03.935755"><ele>0.3</ele><time>2023-12-06T14:08:03Z</time><name>PT8874</name></trkpt>
<trkpt lat="51.819535" lon="03.935751"><ele>0.4</ele><time>2023-12-06T14:08:04Z</time><name>PT8875</name></trkpt>
<trkpt lat="51.819545" lon="03.935748"><ele>0.5</ele><time>2023-12-06T14:08:06Z</time><name>PT8876</name></trkpt>
<trkpt lat="51.819555" lon="03.935746"><ele>0.4</ele><time>2023-12-06T14:08:06Z</time><name>PT8877</name></trkpt>
<trkpt lat="51.819566" lon="03.935744"><ele>0.4</ele><time>2023-12-06T14:08:07Z</time><name>PT8878</name></trkpt>
<trkpt lat="51.819575" lon="03.935740"><ele>0.3</ele><time>2023-12-06T14:08:09Z</time><name>PT8879</name></trkpt>
<trkpt lat="51.819586" lon="03.935738"><ele>0.2</ele><time>2023-12-06T14:08:10Z</time><name>PT8880</name></trkpt>
<trkpt lat="51.819595" lon="03.935737"><ele>0.2</ele><time>2023-12-06T14:08:10Z</time><name>PT8881</name></trkpt>
<trkpt lat="51.819605" lon="03.935736"><ele>0.3</ele><time>2023-12-06T14:08:12Z</time><name>PT8882</name></trkpt>
<trkpt lat="51.819613" lon="03.935736"><ele>0.4</ele><time>2023-12-06T14:08:12Z</time><name>PT8883</name></trkpt>
<trkpt lat="51.819619" lon="03.935737"><ele>0.7</ele><time>2023-12-06T14:08:13Z</time><name>PT8884</name></trkpt>
<trkpt lat="51.819624" lon="03.935742"><ele>0.8</ele><time>2023-12-06T14:08:15Z</time><name>PT8885</name></trkpt>
<trkpt lat="51.819628" lon="03.935744"><ele>0.7</ele><time>2023-12-06T14:08:15Z</time><name>PT8886</name></trkpt>
<trkpt lat="51.819635" lon="03.935746"><ele>0.6</ele><time>2023-12-06T14:08:16Z</time><name>PT8887</name></trkpt>
<trkpt lat="51.819644" lon="03.935742"><ele>0.6</ele><time>2023-12-06T14:08:18Z</time><name>PT8888</name></trkpt>
<trkpt lat="51.819654" lon="03.935736"><ele>0.6</ele><time>2023-12-06T14:08:18Z</time><name>PT8889</name></trkpt>
<trkpt lat="51.819664" lon="03.935732"><ele>0.5</ele><time>2023-12-06T14:08:19Z</time><name>PT8890</name></trkpt>
<trkpt lat="51.819675" lon="03.935726"><ele>0.6</ele><time>2023-12-06T14:08:21Z</time><name>PT8891</name></trkpt>
<trkpt lat="51.819685" lon="03.935723"><ele>0.7</ele><time>2023-12-06T14:08:21Z</time><name>PT8892</name></trkpt>
<trkpt lat="51.819697" lon="03.935720"><ele>0.6</ele><time>2023-12-06T14:08:22Z</time><name>PT8893</name></trkpt>
<trkpt lat="51.819708" lon="03.935716"><ele>0.6</ele><time>2023-12-06T14:08:24Z</time><name>PT8894</name></trkpt>
<trkpt lat="51.819717" lon="03.935712"><ele>0.4</ele><time>2023-12-06T14:08:24Z</time><name>PT8895</name></trkpt>
<trkpt lat="51.819727" lon="03.935710"><ele>0.6</ele><time>2023-12-06T14:08:25Z</time><name>PT8896</name></trkpt>
<trkpt lat="51.819737" lon="03.935705"><ele>0.6</ele><time>2023-12-06T14:08:27Z</time><name>PT8897</name></trkpt>
<trkpt lat="51.819746" lon="03.935701"><ele>0.6</ele><time>2023-12-06T14:08:27Z</time><name>PT8898</name></trkpt>
<trkpt lat="51.819752" lon="03.935698"><ele>0.5</ele><time>2023-12-06T14:08:28Z</time><name>PT8899</name></trkpt>
<trkpt lat="51.819762" lon="03.935695"><ele>0.4</ele><time>2023-12-06T14:08:30Z</time><name>PT8900</name></trkpt>
<trkpt lat="51.819770" lon="03.935692"><ele>0.2</ele><time>2023-12-06T14:08:30Z</time><name>PT8901</name></trkpt>
<trkpt lat="51.819779" lon="03.935690"><ele>0.2</ele><time>2023-12-06T14:08:32Z</time><name>PT8902</name></trkpt>
<trkpt lat="51.819788" lon="03.935686"><ele>0.2</ele><time>2023-12-06T14:08:33Z</time><name>PT8903</name></trkpt>
<trkpt lat="51.819799" lon="03.935682"><ele>0.3</ele><time>2023-12-06T14:08:34Z</time><name>PT8904</name></trkpt>
<trkpt lat="51.819809" lon="03.935679"><ele>0.3</ele><time>2023-12-06T14:08:35Z</time><name>PT8905</name></trkpt>
<trkpt lat="51.819820" lon="03.935672"><ele>0.4</ele><time>2023-12-06T14:08:36Z</time><name>PT8906</name></trkpt>
<trkpt lat="51.819830" lon="03.935668"><ele>0.4</ele><time>2023-12-06T14:08:36Z</time><name>PT8907</name></trkpt>
<trkpt lat="51.819840" lon="03.935663"><ele>0.2</ele><time>2023-12-06T14:08:37Z</time><name>PT8908</name></trkpt>
<trkpt lat="51.819850" lon="03.935659"><ele>0.1</ele><time>2023-12-06T14:08:39Z</time><name>PT8909</name></trkpt>
<trkpt lat="51.819859" lon="03.935651"><ele>0.1</ele><time>2023-12-06T14:08:39Z</time><name>PT8910</name></trkpt>
<trkpt lat="51.819867" lon="03.935649"><ele>0</ele><time>2023-12-06T14:08:40Z</time><name>PT8911</name></trkpt>
<trkpt lat="51.819875" lon="03.935646"><ele>0</ele><time>2023-12-06T14:08:42Z</time><name>PT8912</name></trkpt>
<trkpt lat="51.819884" lon="03.935644"><ele>0</ele><time>2023-12-06T14:08:42Z</time><name>PT8913</name></trkpt>
<trkpt lat="51.819894" lon="03.935640"><ele>0</ele><time>2023-12-06T14:08:43Z</time><name>PT8914</name></trkpt>
<trkpt lat="51.819903" lon="03.935635"><ele>0.1</ele><time>2023-12-06T14:08:45Z</time><name>PT8915</name></trkpt>
<trkpt lat="51.819912" lon="03.935632"><ele>0.2</ele><time>2023-12-06T14:08:45Z</time><name>PT8916</name></trkpt>
<trkpt lat="51.819922" lon="03.935630"><ele>0.3</ele><time>2023-12-06T14:08:46Z</time><name>PT8917</name></trkpt>
<trkpt lat="51.819934" lon="03.935632"><ele>0.4</ele><time>2023-12-06T14:08:48Z</time><name>PT8918</name></trkpt>
<trkpt lat="51.819944" lon="03.935638"><ele>0.5</ele><time>2023-12-06T14:08:48Z</time><name>PT8919</name></trkpt>
<trkpt lat="51.819953" lon="03.935653"><ele>0.4</ele><time>2023-12-06T14:08:49Z</time><name>PT8920</name></trkpt>
<trkpt lat="51.819957" lon="03.935665"><ele>0.2</ele><time>2023-12-06T14:08:51Z</time><name>PT8921</name></trkpt>
<trkpt lat="51.819959" lon="03.935677"><ele>0.2</ele><time>2023-12-06T14:08:51Z</time><name>PT8922</name></trkpt>
<trkpt lat="51.819962" lon="03.935693"><ele>0.1</ele><time>2023-12-06T14:08:52Z</time><name>PT8923</name></trkpt>
<trkpt lat="51.819963" lon="03.935711"><ele>0.1</ele><time>2023-12-06T14:08:54Z</time><name>PT8924</name></trkpt>
<trkpt lat="51.819967" lon="03.935727"><ele>0.2</ele><time>2023-12-06T14:08:54Z</time><name>PT8925</name></trkpt>
<trkpt lat="51.819974" lon="03.935746"><ele>0.2</ele><time>2023-12-06T14:08:55Z</time><name>PT8926</name></trkpt>
<trkpt lat="51.819980" lon="03.935771"><ele>0.1</ele><time>2023-12-06T14:08:57Z</time><name>PT8927</name></trkpt>
<trkpt lat="51.819984" lon="03.935793"><ele>0.1</ele><time>2023-12-06T14:08:57Z</time><name>PT8928</name></trkpt>
<trkpt lat="51.819987" lon="03.935817"><ele>0.1</ele><time>2023-12-06T14:08:58Z</time><name>PT8929</name></trkpt>
<trkpt lat="51.819988" lon="03.935838"><ele>0</ele><time>2023-12-06T14:09:00Z</time><name>PT8930</name></trkpt>
<trkpt lat="51.819990" lon="03.935859"><ele>0.1</ele><time>2023-12-06T14:09:00Z</time><name>PT8931</name></trkpt>
<trkpt lat="51.819993" lon="03.935876"><ele>0.1</ele><time>2023-12-06T14:09:01Z</time><name>PT8932</name></trkpt>
<trkpt lat="51.819994" lon="03.935889"><ele>0.2</ele><time>2023-12-06T14:09:03Z</time><name>PT8933</name></trkpt>
<trkpt lat="51.820001" lon="03.935898"><ele>0.2</ele><time>2023-12-06T14:09:03Z</time><name>PT8934</name></trkpt>
<trkpt lat="51.820004" lon="03.935906"><ele>0</ele><time>2023-12-06T14:09:04Z</time><name>PT8935</name></trkpt>
<trkpt lat="51.820008" lon="03.935916"><ele>0</ele><time>2023-12-06T14:09:06Z</time><name>PT8936</name></trkpt>
<trkpt lat="51.820009" lon="03.935931"><ele>0</ele><time>2023-12-06T14:09:06Z</time><name>PT8937</name></trkpt>
<trkpt lat="51.820012" lon="03.935948"><ele>0</ele><time>2023-12-06T14:09:07Z</time><name>PT8938</name></trkpt>
<trkpt lat="51.820015" lon="03.935972"><ele>0.1</ele><time>2023-12-06T14:09:09Z</time><name>PT8939</name></trkpt>
<trkpt lat="51.820018" lon="03.935997"><ele>0.1</ele><time>2023-12-06T14:09:09Z</time><name>PT8940</name></trkpt>
<trkpt lat="51.820023" lon="03.936016"><ele>0</ele><time>2023-12-06T14:09:10Z</time><name>PT8941</name></trkpt>
<trkpt lat="51.820026" lon="03.936034"><ele>0.1</ele><time>2023-12-06T14:09:12Z</time><name>PT8942</name></trkpt>
<trkpt lat="51.820028" lon="03.936046"><ele>0.1</ele><time>2023-12-06T14:09:12Z</time><name>PT8943</name></trkpt>
<trkpt lat="51.820030" lon="03.936056"><ele>0.2</ele><time>2023-12-06T14:09:13Z</time><name>PT8944</name></trkpt>
<trkpt lat="51.820035" lon="03.936066"><ele>0.1</ele><time>2023-12-06T14:09:15Z</time><name>PT8945</name></trkpt>
<trkpt lat="51.820039" lon="03.936080"><ele>0.1</ele><time>2023-12-06T14:09:15Z</time><name>PT8946</name></trkpt>
<trkpt lat="51.820044" lon="03.936095"><ele>0.1</ele><time>2023-12-06T14:09:16Z</time><name>PT8947</name></trkpt>
<trkpt lat="51.820050" lon="03.936116"><ele>0.2</ele><time>2023-12-06T14:09:18Z</time><name>PT8948</name></trkpt>
<trkpt lat="51.820054" lon="03.936141"><ele>0.2</ele><time>2023-12-06T14:09:18Z</time><name>PT8949</name></trkpt>
<trkpt lat="51.820060" lon="03.936166"><ele>0.3</ele><time>2023-12-06T14:09:19Z</time><name>PT8950</name></trkpt>
<trkpt lat="51.820067" lon="03.936185"><ele>0.3</ele><time>2023-12-06T14:09:21Z</time><name>PT8951</name></trkpt>
<trkpt lat="51.820073" lon="03.936199"><ele>0.4</ele><time>2023-12-06T14:09:21Z</time><name>PT8952</name></trkpt>
<trkpt lat="51.820077" lon="03.936209"><ele>0.4</ele><time>2023-12-06T14:09:22Z</time><name>PT8953</name></trkpt>
<trkpt lat="51.820081" lon="03.936219"><ele>0.3</ele><time>2023-12-06T14:09:24Z</time><name>PT8954</name></trkpt>
<trkpt lat="51.820088" lon="03.936230"><ele>0.3</ele><time>2023-12-06T14:09:24Z</time><name>PT8955</name></trkpt>
<trkpt lat="51.820095" lon="03.936249"><ele>0.2</ele><time>2023-12-06T14:09:25Z</time><name>PT8956</name></trkpt>
<trkpt lat="51.820102" lon="03.936271"><ele>0.1</ele><time>2023-12-06T14:09:27Z</time><name>PT8957</name></trkpt>
<trkpt lat="51.820112" lon="03.936291"><ele>0.1</ele><time>2023-12-06T14:09:27Z</time><name>PT8958</name></trkpt>
<trkpt lat="51.820120" lon="03.936315"><ele>0.1</ele><time>2023-12-06T14:09:28Z</time><name>PT8959</name></trkpt>
<trkpt lat="51.820129" lon="03.936339"><ele>0.2</ele><time>2023-12-06T14:09:30Z</time><name>PT8960</name></trkpt>
<trkpt lat="51.820135" lon="03.936360"><ele>0.2</ele><time>2023-12-06T14:09:30Z</time><name>PT8961</name></trkpt>
<trkpt lat="51.820143" lon="03.936377"><ele>0.2</ele><time>2023-12-06T14:09:31Z</time><name>PT8962</name></trkpt>
<trkpt lat="51.820151" lon="03.936389"><ele>0.2</ele><time>2023-12-06T14:09:33Z</time><name>PT8963</name></trkpt>
<trkpt lat="51.820156" lon="03.936399"><ele>0.3</ele><time>2023-12-06T14:09:33Z</time><name>PT8964</name></trkpt>
<trkpt lat="51.820162" lon="03.936406"><ele>0.3</ele><time>2023-12-06T14:09:35Z</time><name>PT8965</name></trkpt>
<trkpt lat="51.820169" lon="03.936414"><ele>0.3</ele><time>2023-12-06T14:09:36Z</time><name>PT8966</name></trkpt>
<trkpt lat="51.820174" lon="03.936417"><ele>0.5</ele><time>2023-12-06T14:09:36Z</time><name>PT8967</name></trkpt>
<trkpt lat="51.820178" lon="03.936421"><ele>0.5</ele><time>2023-12-06T14:09:37Z</time><name>PT8968</name></trkpt>
<trkpt lat="51.820183" lon="03.936432"><ele>0.4</ele><time>2023-12-06T14:09:39Z</time><name>PT8969</name></trkpt>
<trkpt lat="51.820189" lon="03.936443"><ele>0.4</ele><time>2023-12-06T14:09:39Z</time><name>PT8970</name></trkpt>
<trkpt lat="51.820195" lon="03.936454"><ele>0.4</ele><time>2023-12-06T14:09:41Z</time><name>PT8971</name></trkpt>
<trkpt lat="51.820202" lon="03.936471"><ele>0.3</ele><time>2023-12-06T14:09:42Z</time><name>PT8972</name></trkpt>
<trkpt lat="51.820211" lon="03.936493"><ele>0.2</ele><time>2023-12-06T14:09:42Z</time><name>PT8973</name></trkpt>
<trkpt lat="51.820219" lon="03.936517"><ele>0.3</ele><time>2023-12-06T14:09:43Z</time><name>PT8974</name></trkpt>
<trkpt lat="51.820226" lon="03.936545"><ele>0.3</ele><time>2023-12-06T14:09:45Z</time><name>PT8975</name></trkpt>
<trkpt lat="51.820232" lon="03.936569"><ele>0.2</ele><time>2023-12-06T14:09:45Z</time><name>PT8976</name></trkpt>
<trkpt lat="51.820239" lon="03.936587"><ele>0.5</ele><time>2023-12-06T14:09:46Z</time><name>PT8977</name></trkpt>
<trkpt lat="51.820246" lon="03.936601"><ele>0.3</ele><time>2023-12-06T14:09:48Z</time><name>PT8978</name></trkpt>
<trkpt lat="51.820254" lon="03.936615"><ele>0.2</ele><time>2023-12-06T14:09:48Z</time><name>PT8979</name></trkpt>
<trkpt lat="51.820257" lon="03.936629"><ele>0.2</ele><time>2023-12-06T14:09:50Z</time><name>PT8980</name></trkpt>
<trkpt lat="51.820259" lon="03.936637"><ele>0.2</ele><time>2023-12-06T14:09:51Z</time><name>PT8981</name></trkpt>
<trkpt lat="51.820260" lon="03.936645"><ele>0.1</ele><time>2023-12-06T14:09:51Z</time><name>PT8982</name></trkpt>
<trkpt lat="51.820265" lon="03.936654"><ele>0.3</ele><time>2023-12-06T14:09:52Z</time><name>PT8983</name></trkpt>
<trkpt lat="51.820272" lon="03.936672"><ele>0.4</ele><time>2023-12-06T14:09:54Z</time><name>PT8984</name></trkpt>
<trkpt lat="51.820280" lon="03.936689"><ele>0.4</ele><time>2023-12-06T14:09:54Z</time><name>PT8985</name></trkpt>
<trkpt lat="51.820289" lon="03.936709"><ele>0.6</ele><time>2023-12-06T14:09:55Z</time><name>PT8986</name></trkpt>
<trkpt lat="51.820299" lon="03.936734"><ele>0.6</ele><time>2023-12-06T14:09:57Z</time><name>PT8987</name></trkpt>
<trkpt lat="51.820311" lon="03.936756"><ele>0.6</ele><time>2023-12-06T14:09:57Z</time><name>PT8988</name></trkpt>
<trkpt lat="51.820320" lon="03.936779"><ele>0.6</ele><time>2023-12-06T14:09:58Z</time><name>PT8989</name></trkpt>
<trkpt lat="51.820325" lon="03.936804"><ele>0.5</ele><time>2023-12-06T14:10:00Z</time><name>PT8990</name></trkpt>
<trkpt lat="51.820331" lon="03.936826"><ele>0.3</ele><time>2023-12-06T14:10:00Z</time><name>PT8991</name></trkpt>
<trkpt lat="51.820338" lon="03.936841"><ele>0.2</ele><time>2023-12-06T14:10:01Z</time><name>PT8992</name></trkpt>
<trkpt lat="51.820343" lon="03.936852"><ele>0.2</ele><time>2023-12-06T14:10:03Z</time><name>PT8993</name></trkpt>
<trkpt lat="51.820352" lon="03.936854"><ele>0.1</ele><time>2023-12-06T14:10:03Z</time><name>PT8994</name></trkpt>
<trkpt lat="51.820354" lon="03.936852"><ele>0</ele><time>2023-12-06T14:10:04Z</time><name>PT8995</name></trkpt>
<trkpt lat="51.820357" lon="03.936854"><ele>0</ele><time>2023-12-06T14:10:06Z</time><name>PT8996</name></trkpt>
<trkpt lat="51.820361" lon="03.936860"><ele>0</ele><time>2023-12-06T14:10:06Z</time><name>PT8997</name></trkpt>
<trkpt lat="51.820366" lon="03.936871"><ele>0.1</ele><time>2023-12-06T14:10:07Z</time><name>PT8998</name></trkpt>
<trkpt lat="51.820371" lon="03.936886"><ele>0.2</ele><time>2023-12-06T14:10:09Z</time><name>PT8999</name></trkpt>
<trkpt lat="51.820378" lon="03.936906"><ele>0.2</ele><time>2023-12-06T14:10:09Z</time><name>PT9000</name></trkpt>
<trkpt lat="51.820386" lon="03.936929"><ele>0.2</ele><time>2023-12-06T14:10:10Z</time><name>PT9001</name></trkpt>
<trkpt lat="51.820392" lon="03.936952"><ele>0.2</ele><time>2023-12-06T14:10:12Z</time><name>PT9002</name></trkpt>
<trkpt lat="51.820398" lon="03.936972"><ele>0.1</ele><time>2023-12-06T14:10:12Z</time><name>PT9003</name></trkpt>
<trkpt lat="51.820404" lon="03.936988"><ele>0</ele><time>2023-12-06T14:10:13Z</time><name>PT9004</name></trkpt>
<trkpt lat="51.820410" lon="03.936997"><ele>0</ele><time>2023-12-06T14:10:15Z</time><name>PT9005</name></trkpt>
<trkpt lat="51.820416" lon="03.937004"><ele>0.2</ele><time>2023-12-06T14:10:15Z</time><name>PT9006</name></trkpt>
<trkpt lat="51.820423" lon="03.937014"><ele>0.2</ele><time>2023-12-06T14:10:16Z</time><name>PT9007</name></trkpt>
<trkpt lat="51.820429" lon="03.937021"><ele>0.2</ele><time>2023-12-06T14:10:18Z</time><name>PT9008</name></trkpt>
<trkpt lat="51.820438" lon="03.937025"><ele>0.2</ele><time>2023-12-06T14:10:18Z</time><name>PT9009</name></trkpt>
<trkpt lat="51.820447" lon="03.937035"><ele>0</ele><time>2023-12-06T14:10:19Z</time><name>PT9010</name></trkpt>
<trkpt lat="51.820460" lon="03.937048"><ele>0</ele><time>2023-12-06T14:10:21Z</time><name>PT9011</name></trkpt>
<trkpt lat="51.820471" lon="03.937063"><ele>0</ele><time>2023-12-06T14:10:21Z</time><name>PT9012</name></trkpt>
<trkpt lat="51.820481" lon="03.937077"><ele>0</ele><time>2023-12-06T14:10:22Z</time><name>PT9013</name></trkpt>
<trkpt lat="51.820491" lon="03.937088"><ele>0</ele><time>2023-12-06T14:10:24Z</time><name>PT9014</name></trkpt>
<trkpt lat="51.820500" lon="03.937092"><ele>0.2</ele><time>2023-12-06T14:10:24Z</time><name>PT9015</name></trkpt>
<trkpt lat="51.820510" lon="03.937093"><ele>0</ele><time>2023-12-06T14:10:25Z</time><name>PT9016</name></trkpt>
<trkpt lat="51.820518" lon="03.937091"><ele>0.1</ele><time>2023-12-06T14:10:27Z</time><name>PT9017</name></trkpt>
<trkpt lat="51.820526" lon="03.937091"><ele>0</ele><time>2023-12-06T14:10:27Z</time><name>PT9018</name></trkpt>
<trkpt lat="51.820539" lon="03.937092"><ele>0.1</ele><time>2023-12-06T14:10:28Z</time><name>PT9019</name></trkpt>
<trkpt lat="51.820557" lon="03.937093"><ele>0.1</ele><time>2023-12-06T14:10:30Z</time><name>PT9020</name></trkpt>
<trkpt lat="51.820570" lon="03.937095"><ele>0.1</ele><time>2023-12-06T14:10:30Z</time><name>PT9021</name></trkpt>
<trkpt lat="51.820580" lon="03.937095"><ele>0.4</ele><time>2023-12-06T14:10:31Z</time><name>PT9022</name></trkpt>
<trkpt lat="51.820590" lon="03.937095"><ele>0.5</ele><time>2023-12-06T14:10:33Z</time><name>PT9023</name></trkpt>
<trkpt lat="51.820600" lon="03.937094"><ele>0.6</ele><time>2023-12-06T14:10:33Z</time><name>PT9024</name></trkpt>
<trkpt lat="51.820610" lon="03.937090"><ele>0.7</ele><time>2023-12-06T14:10:34Z</time><name>PT9025</name></trkpt>
<trkpt lat="51.820620" lon="03.937087"><ele>0.8</ele><time>2023-12-06T14:10:36Z</time><name>PT9026</name></trkpt>
<trkpt lat="51.820626" lon="03.937087"><ele>0.8</ele><time>2023-12-06T14:10:36Z</time><name>PT9027</name></trkpt>
<trkpt lat="51.820634" lon="03.937086"><ele>0.7</ele><time>2023-12-06T14:10:37Z</time><name>PT9028</name></trkpt>
<trkpt lat="51.820645" lon="03.937087"><ele>0.7</ele><time>2023-12-06T14:10:39Z</time><name>PT9029</name></trkpt>
<trkpt lat="51.820657" lon="03.937091"><ele>0.5</ele><time>2023-12-06T14:10:39Z</time><name>PT9030</name></trkpt>
<trkpt lat="51.820668" lon="03.937094"><ele>0.3</ele><time>2023-12-06T14:10:40Z</time><name>PT9031</name></trkpt>
<trkpt lat="51.820677" lon="03.937098"><ele>0</ele><time>2023-12-06T14:10:42Z</time><name>PT9032</name></trkpt>
<trkpt lat="51.820686" lon="03.937097"><ele>0</ele><time>2023-12-06T14:10:42Z</time><name>PT9033</name></trkpt>
<trkpt lat="51.820695" lon="03.937096"><ele>0.2</ele><time>2023-12-06T14:10:43Z</time><name>PT9034</name></trkpt>
<trkpt lat="51.820704" lon="03.937099"><ele>0.2</ele><time>2023-12-06T14:10:45Z</time><name>PT9035</name></trkpt>
<trkpt lat="51.820711" lon="03.937096"><ele>0.3</ele><time>2023-12-06T14:10:45Z</time><name>PT9036</name></trkpt>
<trkpt lat="51.820718" lon="03.937094"><ele>0.3</ele><time>2023-12-06T14:10:46Z</time><name>PT9037</name></trkpt>
<trkpt lat="51.820727" lon="03.937098"><ele>0.4</ele><time>2023-12-06T14:10:48Z</time><name>PT9038</name></trkpt>
<trkpt lat="51.820737" lon="03.937105"><ele>0.4</ele><time>2023-12-06T14:10:48Z</time><name>PT9039</name></trkpt>
<trkpt lat="51.820746" lon="03.937108"><ele>0.4</ele><time>2023-12-06T14:10:49Z</time><name>PT9040</name></trkpt>
<trkpt lat="51.820752" lon="03.937116"><ele>0.5</ele><time>2023-12-06T14:10:51Z</time><name>PT9041</name></trkpt>
<trkpt lat="51.820758" lon="03.937120"><ele>0.5</ele><time>2023-12-06T14:10:51Z</time><name>PT9042</name></trkpt>
<trkpt lat="51.820765" lon="03.937128"><ele>0.4</ele><time>2023-12-06T14:10:52Z</time><name>PT9043</name></trkpt>
<trkpt lat="51.820769" lon="03.937143"><ele>0.5</ele><time>2023-12-06T14:10:54Z</time><name>PT9044</name></trkpt>
<trkpt lat="51.820776" lon="03.937163"><ele>0.5</ele><time>2023-12-06T14:10:54Z</time><name>PT9045</name></trkpt>
<trkpt lat="51.820780" lon="03.937185"><ele>0.2</ele><time>2023-12-06T14:10:55Z</time><name>PT9046</name></trkpt>
<trkpt lat="51.820787" lon="03.937203"><ele>0.2</ele><time>2023-12-06T14:10:57Z</time><name>PT9047</name></trkpt>
<trkpt lat="51.820791" lon="03.937216"><ele>0.2</ele><time>2023-12-06T14:10:57Z</time><name>PT9048</name></trkpt>
<trkpt lat="51.820793" lon="03.937225"><ele>0.2</ele><time>2023-12-06T14:10:58Z</time><name>PT9049</name></trkpt>
<trkpt lat="51.820800" lon="03.937253"><ele>0.2</ele><time>2023-12-06T14:11:00Z</time><name>PT9050</name></trkpt>
<trkpt lat="51.820804" lon="03.937268"><ele>0.3</ele><time>2023-12-06T14:11:01Z</time><name>PT9051</name></trkpt>
<trkpt lat="51.820807" lon="03.937280"><ele>0.2</ele><time>2023-12-06T14:11:03Z</time><name>PT9052</name></trkpt>
<trkpt lat="51.820807" lon="03.937295"><ele>0.2</ele><time>2023-12-06T14:11:03Z</time><name>PT9053</name></trkpt>
<trkpt lat="51.820807" lon="03.937312"><ele>0.2</ele><time>2023-12-06T14:11:04Z</time><name>PT9054</name></trkpt>
<trkpt lat="51.820807" lon="03.937327"><ele>0.2</ele><time>2023-12-06T14:11:06Z</time><name>PT9055</name></trkpt>
<trkpt lat="51.820809" lon="03.937342"><ele>0.2</ele><time>2023-12-06T14:11:07Z</time><name>PT9056</name></trkpt>
<trkpt lat="51.820810" lon="03.937353"><ele>0.2</ele><time>2023-12-06T14:11:08Z</time><name>PT9057</name></trkpt>
<trkpt lat="51.820812" lon="03.937366"><ele>0.2</ele><time>2023-12-06T14:11:09Z</time><name>PT9058</name></trkpt>
<trkpt lat="51.820815" lon="03.937382"><ele>0.2</ele><time>2023-12-06T14:11:09Z</time><name>PT9059</name></trkpt>
<trkpt lat="51.820818" lon="03.937417"><ele>0.2</ele><time>2023-12-06T14:11:12Z</time><name>PT9060</name></trkpt>
<trkpt lat="51.820821" lon="03.937437"><ele>0.4</ele><time>2023-12-06T14:11:12Z</time><name>PT9061</name></trkpt>
<trkpt lat="51.820824" lon="03.937458"><ele>0.5</ele><time>2023-12-06T14:11:13Z</time><name>PT9062</name></trkpt>
<trkpt lat="51.820828" lon="03.937471"><ele>0.5</ele><time>2023-12-06T14:11:15Z</time><name>PT9063</name></trkpt>
<trkpt lat="51.820831" lon="03.937480"><ele>0.5</ele><time>2023-12-06T14:11:15Z</time><name>PT9064</name></trkpt>
<trkpt lat="51.820835" lon="03.937490"><ele>0.6</ele><time>2023-12-06T14:11:16Z</time><name>PT9065</name></trkpt>
<trkpt lat="51.820836" lon="03.937504"><ele>0.5</ele><time>2023-12-06T14:11:18Z</time><name>PT9066</name></trkpt>
<trkpt lat="51.820836" lon="03.937522"><ele>0.3</ele><time>2023-12-06T14:11:18Z</time><name>PT9067</name></trkpt>
<trkpt lat="51.820838" lon="03.937547"><ele>0.2</ele><time>2023-12-06T14:11:19Z</time><name>PT9068</name></trkpt>
<trkpt lat="51.820841" lon="03.937572"><ele>0</ele><time>2023-12-06T14:11:21Z</time><name>PT9069</name></trkpt>
<trkpt lat="51.820844" lon="03.937598"><ele>0</ele><time>2023-12-06T14:11:21Z</time><name>PT9070</name></trkpt>
<trkpt lat="51.820845" lon="03.937621"><ele>0</ele><time>2023-12-06T14:11:22Z</time><name>PT9071</name></trkpt>
<trkpt lat="51.820844" lon="03.937640"><ele>0</ele><time>2023-12-06T14:11:24Z</time><name>PT9072</name></trkpt>
<trkpt lat="51.820846" lon="03.937655"><ele>0</ele><time>2023-12-06T14:11:24Z</time><name>PT9073</name></trkpt>
<trkpt lat="51.820847" lon="03.937667"><ele>0</ele><time>2023-12-06T14:11:25Z</time><name>PT9074</name></trkpt>
<trkpt lat="51.820845" lon="03.937675"><ele>0.2</ele><time>2023-12-06T14:11:27Z</time><name>PT9075</name></trkpt>
<trkpt lat="51.820847" lon="03.937687"><ele>0.2</ele><time>2023-12-06T14:11:27Z</time><name>PT9076</name></trkpt>
<trkpt lat="51.820850" lon="03.937703"><ele>0.2</ele><time>2023-12-06T14:11:28Z</time><name>PT9077</name></trkpt>
<trkpt lat="51.820851" lon="03.937722"><ele>0.2</ele><time>2023-12-06T14:11:30Z</time><name>PT9078</name></trkpt>
<trkpt lat="51.820851" lon="03.937746"><ele>0.2</ele><time>2023-12-06T14:11:30Z</time><name>PT9079</name></trkpt>
<trkpt lat="51.820851" lon="03.937769"><ele>0.2</ele><time>2023-12-06T14:11:31Z</time><name>PT9080</name></trkpt>
<trkpt lat="51.820852" lon="03.937789"><ele>0.2</ele><time>2023-12-06T14:11:33Z</time><name>PT9081</name></trkpt>
<trkpt lat="51.820853" lon="03.937807"><ele>0.2</ele><time>2023-12-06T14:11:33Z</time><name>PT9082</name></trkpt>
<trkpt lat="51.820853" lon="03.937824"><ele>0.2</ele><time>2023-12-06T14:11:34Z</time><name>PT9083</name></trkpt>
<trkpt lat="51.820857" lon="03.937839"><ele>0.2</ele><time>2023-12-06T14:11:36Z</time><name>PT9084</name></trkpt>
<trkpt lat="51.820855" lon="03.937852"><ele>0.3</ele><time>2023-12-06T14:11:37Z</time><name>PT9085</name></trkpt>
<trkpt lat="51.820857" lon="03.937864"><ele>0.4</ele><time>2023-12-06T14:11:37Z</time><name>PT9086</name></trkpt>
<trkpt lat="51.820858" lon="03.937882"><ele>0.3</ele><time>2023-12-06T14:11:39Z</time><name>PT9087</name></trkpt>
<trkpt lat="51.820861" lon="03.937896"><ele>0.3</ele><time>2023-12-06T14:11:39Z</time><name>PT9088</name></trkpt>
<trkpt lat="51.820865" lon="03.937918"><ele>0.2</ele><time>2023-12-06T14:11:40Z</time><name>PT9089</name></trkpt>
<trkpt lat="51.820867" lon="03.937939"><ele>0.2</ele><time>2023-12-06T14:11:42Z</time><name>PT9090</name></trkpt>
<trkpt lat="51.820868" lon="03.937965"><ele>0.2</ele><time>2023-12-06T14:11:42Z</time><name>PT9091</name></trkpt>
<trkpt lat="51.820866" lon="03.937990"><ele>0.3</ele><time>2023-12-06T14:11:43Z</time><name>PT9092</name></trkpt>
<trkpt lat="51.820865" lon="03.938015"><ele>0.3</ele><time>2023-12-06T14:11:45Z</time><name>PT9093</name></trkpt>
<trkpt lat="51.820866" lon="03.938037"><ele>0.4</ele><time>2023-12-06T14:11:45Z</time><name>PT9094</name></trkpt>
<trkpt lat="51.820867" lon="03.938053"><ele>0.4</ele><time>2023-12-06T14:11:47Z</time><name>PT9095</name></trkpt>
<trkpt lat="51.820867" lon="03.938070"><ele>0.2</ele><time>2023-12-06T14:11:48Z</time><name>PT9096</name></trkpt>
<trkpt lat="51.820870" lon="03.938087"><ele>0.1</ele><time>2023-12-06T14:11:48Z</time><name>PT9097</name></trkpt>
<trkpt lat="51.820872" lon="03.938101"><ele>0</ele><time>2023-12-06T14:11:49Z</time><name>PT9098</name></trkpt>
<trkpt lat="51.820872" lon="03.938130"><ele>0.2</ele><time>2023-12-06T14:11:51Z</time><name>PT9099</name></trkpt>
<trkpt lat="51.820874" lon="03.938146"><ele>0.2</ele><time>2023-12-06T14:11:52Z</time><name>PT9100</name></trkpt>
<trkpt lat="51.820880" lon="03.938160"><ele>0</ele><time>2023-12-06T14:11:54Z</time><name>PT9101</name></trkpt>
<trkpt lat="51.820885" lon="03.938179"><ele>0.1</ele><time>2023-12-06T14:11:54Z</time><name>PT9102</name></trkpt>
<trkpt lat="51.820886" lon="03.938205"><ele>0.2</ele><time>2023-12-06T14:11:55Z</time><name>PT9103</name></trkpt>
<trkpt lat="51.820886" lon="03.938228"><ele>0.2</ele><time>2023-12-06T14:11:57Z</time><name>PT9104</name></trkpt>
<trkpt lat="51.820886" lon="03.938245"><ele>0.2</ele><time>2023-12-06T14:11:58Z</time><name>PT9105</name></trkpt>
<trkpt lat="51.820887" lon="03.938258"><ele>0</ele><time>2023-12-06T14:11:58Z</time><name>PT9106</name></trkpt>
<trkpt lat="51.820888" lon="03.938273"><ele>0</ele><time>2023-12-06T14:12:00Z</time><name>PT9107</name></trkpt>
<trkpt lat="51.820890" lon="03.938287"><ele>0.1</ele><time>2023-12-06T14:12:01Z</time><name>PT9108</name></trkpt>
<trkpt lat="51.820892" lon="03.938300"><ele>0.3</ele><time>2023-12-06T14:12:02Z</time><name>PT9109</name></trkpt>
<trkpt lat="51.820894" lon="03.938314"><ele>0.2</ele><time>2023-12-06T14:12:03Z</time><name>PT9110</name></trkpt>
<trkpt lat="51.820895" lon="03.938333"><ele>0</ele><time>2023-12-06T14:12:03Z</time><name>PT9111</name></trkpt>
<trkpt lat="51.820901" lon="03.938357"><ele>0.2</ele><time>2023-12-06T14:12:05Z</time><name>PT9112</name></trkpt>
<trkpt lat="51.820904" lon="03.938382"><ele>0.2</ele><time>2023-12-06T14:12:06Z</time><name>PT9113</name></trkpt>
<trkpt lat="51.820909" lon="03.938409"><ele>0.1</ele><time>2023-12-06T14:12:06Z</time><name>PT9114</name></trkpt>
<trkpt lat="51.820910" lon="03.938434"><ele>0.2</ele><time>2023-12-06T14:12:07Z</time><name>PT9115</name></trkpt>
<trkpt lat="51.820908" lon="03.938460"><ele>0.4</ele><time>2023-12-06T14:12:09Z</time><name>PT9116</name></trkpt>
<trkpt lat="51.820910" lon="03.938478"><ele>0.2</ele><time>2023-12-06T14:12:09Z</time><name>PT9117</name></trkpt>
<trkpt lat="51.820911" lon="03.938493"><ele>0.2</ele><time>2023-12-06T14:12:10Z</time><name>PT9118</name></trkpt>
<trkpt lat="51.820911" lon="03.938508"><ele>0.2</ele><time>2023-12-06T14:12:12Z</time><name>PT9119</name></trkpt>
<trkpt lat="51.820915" lon="03.938533"><ele>0.3</ele><time>2023-12-06T14:12:12Z</time><name>PT9120</name></trkpt>
<trkpt lat="51.820917" lon="03.938556"><ele>0.2</ele><time>2023-12-06T14:12:13Z</time><name>PT9121</name></trkpt>
<trkpt lat="51.820918" lon="03.938577"><ele>0.2</ele><time>2023-12-06T14:12:15Z</time><name>PT9122</name></trkpt>
<trkpt lat="51.820918" lon="03.938596"><ele>0.1</ele><time>2023-12-06T14:12:15Z</time><name>PT9123</name></trkpt>
<trkpt lat="51.820919" lon="03.938614"><ele>0</ele><time>2023-12-06T14:12:16Z</time><name>PT9124</name></trkpt>
<trkpt lat="51.820920" lon="03.938630"><ele>0</ele><time>2023-12-06T14:12:18Z</time><name>PT9125</name></trkpt>
<trkpt lat="51.820919" lon="03.938651"><ele>0</ele><time>2023-12-06T14:12:18Z</time><name>PT9126</name></trkpt>
<trkpt lat="51.820920" lon="03.938668"><ele>0.1</ele><time>2023-12-06T14:12:19Z</time><name>PT9127</name></trkpt>
<trkpt lat="51.820921" lon="03.938680"><ele>0.2</ele><time>2023-12-06T14:12:21Z</time><name>PT9128</name></trkpt>
<trkpt lat="51.820921" lon="03.938695"><ele>0.3</ele><time>2023-12-06T14:12:21Z</time><name>PT9129</name></trkpt>
<trkpt lat="51.820922" lon="03.938710"><ele>0.5</ele><time>2023-12-06T14:12:22Z</time><name>PT9130</name></trkpt>
<trkpt lat="51.820924" lon="03.938728"><ele>0.6</ele><time>2023-12-06T14:12:24Z</time><name>PT9131</name></trkpt>
<trkpt lat="51.820930" lon="03.938747"><ele>0.6</ele><time>2023-12-06T14:12:24Z</time><name>PT9132</name></trkpt>
<trkpt lat="51.820930" lon="03.938774"><ele>0.7</ele><time>2023-12-06T14:12:25Z</time><name>PT9133</name></trkpt>
<trkpt lat="51.820929" lon="03.938801"><ele>0.8</ele><time>2023-12-06T14:12:27Z</time><name>PT9134</name></trkpt>
<trkpt lat="51.820926" lon="03.938827"><ele>0.7</ele><time>2023-12-06T14:12:27Z</time><name>PT9135</name></trkpt>
<trkpt lat="51.820924" lon="03.938849"><ele>0.8</ele><time>2023-12-06T14:12:28Z</time><name>PT9136</name></trkpt>
<trkpt lat="51.820922" lon="03.938869"><ele>0.8</ele><time>2023-12-06T14:12:30Z</time><name>PT9137</name></trkpt>
<trkpt lat="51.820922" lon="03.938882"><ele>0.8</ele><time>2023-12-06T14:12:30Z</time><name>PT9138</name></trkpt>
<trkpt lat="51.820923" lon="03.938891"><ele>0.7</ele><time>2023-12-06T14:12:31Z</time><name>PT9139</name></trkpt>
<trkpt lat="51.820924" lon="03.938902"><ele>0.6</ele><time>2023-12-06T14:12:33Z</time><name>PT9140</name></trkpt>
<trkpt lat="51.820922" lon="03.938917"><ele>0.4</ele><time>2023-12-06T14:12:33Z</time><name>PT9141</name></trkpt>
<trkpt lat="51.820920" lon="03.938929"><ele>0.5</ele><time>2023-12-06T14:12:34Z</time><name>PT9142</name></trkpt>
<trkpt lat="51.820917" lon="03.938951"><ele>0.4</ele><time>2023-12-06T14:12:36Z</time><name>PT9143</name></trkpt>
<trkpt lat="51.820910" lon="03.938976"><ele>0.4</ele><time>2023-12-06T14:12:36Z</time><name>PT9144</name></trkpt>
<trkpt lat="51.820905" lon="03.938996"><ele>0.6</ele><time>2023-12-06T14:12:37Z</time><name>PT9145</name></trkpt>
<trkpt lat="51.820902" lon="03.939017"><ele>0.6</ele><time>2023-12-06T14:12:39Z</time><name>PT9146</name></trkpt>
<trkpt lat="51.820899" lon="03.939032"><ele>0.5</ele><time>2023-12-06T14:12:39Z</time><name>PT9147</name></trkpt>
<trkpt lat="51.820897" lon="03.939047"><ele>0.5</ele><time>2023-12-06T14:12:41Z</time><name>PT9148</name></trkpt>
<trkpt lat="51.820896" lon="03.939062"><ele>0.6</ele><time>2023-12-06T14:12:42Z</time><name>PT9149</name></trkpt>
<trkpt lat="51.820896" lon="03.939073"><ele>0.6</ele><time>2023-12-06T14:12:42Z</time><name>PT9150</name></trkpt>
<trkpt lat="51.820895" lon="03.939086"><ele>0.7</ele><time>2023-12-06T14:12:43Z</time><name>PT9151</name></trkpt>
<trkpt lat="51.820895" lon="03.939103"><ele>0.8</ele><time>2023-12-06T14:12:45Z</time><name>PT9152</name></trkpt>
<trkpt lat="51.820894" lon="03.939125"><ele>0.8</ele><time>2023-12-06T14:12:45Z</time><name>PT9153</name></trkpt>
<trkpt lat="51.820892" lon="03.939151"><ele>0.9</ele><time>2023-12-06T14:12:46Z</time><name>PT9154</name></trkpt>
<trkpt lat="51.820890" lon="03.939175"><ele>0.8</ele><time>2023-12-06T14:12:48Z</time><name>PT9155</name></trkpt>
<trkpt lat="51.820887" lon="03.939197"><ele>0.9</ele><time>2023-12-06T14:12:48Z</time><name>PT9156</name></trkpt>
<trkpt lat="51.820897" lon="03.939213"><ele>0.6</ele><time>2023-12-06T14:12:49Z</time><name>PT9157</name></trkpt>
<trkpt lat="51.820903" lon="03.939231"><ele>0.6</ele><time>2023-12-06T14:12:51Z</time><name>PT9158</name></trkpt>
<trkpt lat="51.820903" lon="03.939246"><ele>0.6</ele><time>2023-12-06T14:12:51Z</time><name>PT9159</name></trkpt>
<trkpt lat="51.820902" lon="03.939259"><ele>0.6</ele><time>2023-12-06T14:12:52Z</time><name>PT9160</name></trkpt>
<trkpt lat="51.820900" lon="03.939272"><ele>0.6</ele><time>2023-12-06T14:12:54Z</time><name>PT9161</name></trkpt>
<trkpt lat="51.820897" lon="03.939288"><ele>0.7</ele><time>2023-12-06T14:12:54Z</time><name>PT9162</name></trkpt>
<trkpt lat="51.820896" lon="03.939305"><ele>0.9</ele><time>2023-12-06T14:12:55Z</time><name>PT9163</name></trkpt>
<trkpt lat="51.820892" lon="03.939325"><ele>-1</ele><time>2023-12-06T14:12:57Z</time><name>PT9164</name></trkpt>
<trkpt lat="51.820891" lon="03.939349"><ele>-1</ele><time>2023-12-06T14:12:57Z</time><name>PT9165</name></trkpt>
<trkpt lat="51.820889" lon="03.939376"><ele>0.9</ele><time>2023-12-06T14:12:58Z</time><name>PT9166</name></trkpt>
<trkpt lat="51.820887" lon="03.939397"><ele>0.7</ele><time>2023-12-06T14:13:00Z</time><name>PT9167</name></trkpt>
<trkpt lat="51.820886" lon="03.939414"><ele>0.7</ele><time>2023-12-06T14:13:00Z</time><name>PT9168</name></trkpt>
<trkpt lat="51.820884" lon="03.939428"><ele>0.7</ele><time>2023-12-06T14:13:01Z</time><name>PT9169</name></trkpt>
<trkpt lat="51.820883" lon="03.939438"><ele>0.8</ele><time>2023-12-06T14:13:03Z</time><name>PT9170</name></trkpt>
<trkpt lat="51.820885" lon="03.939449"><ele>0.8</ele><time>2023-12-06T14:13:03Z</time><name>PT9171</name></trkpt>
<trkpt lat="51.820885" lon="03.939457"><ele>0.8</ele><time>2023-12-06T14:13:04Z</time><name>PT9172</name></trkpt>
<trkpt lat="51.820884" lon="03.939480"><ele>0.6</ele><time>2023-12-06T14:13:06Z</time><name>PT9173</name></trkpt>
<trkpt lat="51.820878" lon="03.939507"><ele>0.6</ele><time>2023-12-06T14:13:06Z</time><name>PT9174</name></trkpt>
<trkpt lat="51.820876" lon="03.939532"><ele>0.6</ele><time>2023-12-06T14:13:07Z</time><name>PT9175</name></trkpt>
<trkpt lat="51.820873" lon="03.939553"><ele>0.6</ele><time>2023-12-06T14:13:09Z</time><name>PT9176</name></trkpt>
<trkpt lat="51.820869" lon="03.939578"><ele>0.6</ele><time>2023-12-06T14:13:09Z</time><name>PT9177</name></trkpt>
<trkpt lat="51.820865" lon="03.939595"><ele>0.6</ele><time>2023-12-06T14:13:10Z</time><name>PT9178</name></trkpt>
<trkpt lat="51.820863" lon="03.939610"><ele>0.6</ele><time>2023-12-06T14:13:12Z</time><name>PT9179</name></trkpt>
<trkpt lat="51.820860" lon="03.939623"><ele>0.8</ele><time>2023-12-06T14:13:12Z</time><name>PT9180</name></trkpt>
<trkpt lat="51.820858" lon="03.939637"><ele>0.7</ele><time>2023-12-06T14:13:13Z</time><name>PT9181</name></trkpt>
<trkpt lat="51.820858" lon="03.939661"><ele>0.6</ele><time>2023-12-06T14:13:15Z</time><name>PT9182</name></trkpt>
<trkpt lat="51.820862" lon="03.939682"><ele>0.6</ele><time>2023-12-06T14:13:15Z</time><name>PT9183</name></trkpt>
<trkpt lat="51.820866" lon="03.939704"><ele>0.6</ele><time>2023-12-06T14:13:16Z</time><name>PT9184</name></trkpt>
<trkpt lat="51.820869" lon="03.939727"><ele>0.6</ele><time>2023-12-06T14:13:18Z</time><name>PT9185</name></trkpt>
<trkpt lat="51.820867" lon="03.939747"><ele>0.8</ele><time>2023-12-06T14:13:18Z</time><name>PT9186</name></trkpt>
<trkpt lat="51.820867" lon="03.939766"><ele>-1</ele><time>2023-12-06T14:13:19Z</time><name>PT9187</name></trkpt>
<trkpt lat="51.820865" lon="03.939781"><ele>0.9</ele><time>2023-12-06T14:13:21Z</time><name>PT9188</name></trkpt>
<trkpt lat="51.820863" lon="03.939797"><ele>-1</ele><time>2023-12-06T14:13:21Z</time><name>PT9189</name></trkpt>
<trkpt lat="51.820864" lon="03.939817"><ele>0.8</ele><time>2023-12-06T14:13:22Z</time><name>PT9190</name></trkpt>
<trkpt lat="51.820866" lon="03.939836"><ele>0.8</ele><time>2023-12-06T14:13:24Z</time><name>PT9191</name></trkpt>
<trkpt lat="51.820869" lon="03.939859"><ele>0.7</ele><time>2023-12-06T14:13:24Z</time><name>PT9192</name></trkpt>
<trkpt lat="51.820877" lon="03.939878"><ele>0.7</ele><time>2023-12-06T14:13:25Z</time><name>PT9193</name></trkpt>
<trkpt lat="51.820878" lon="03.939897"><ele>0.6</ele><time>2023-12-06T14:13:27Z</time><name>PT9194</name></trkpt>
<trkpt lat="51.820876" lon="03.939913"><ele>0.7</ele><time>2023-12-06T14:13:27Z</time><name>PT9195</name></trkpt>
<trkpt lat="51.820877" lon="03.939924"><ele>0.6</ele><time>2023-12-06T14:13:28Z</time><name>PT9196</name></trkpt>
<trkpt lat="51.820877" lon="03.939932"><ele>0.6</ele><time>2023-12-06T14:13:30Z</time><name>PT9197</name></trkpt>
<trkpt lat="51.820872" lon="03.939953"><ele>0.5</ele><time>2023-12-06T14:13:30Z</time><name>PT9198</name></trkpt>
<trkpt lat="51.820868" lon="03.939969"><ele>0.6</ele><time>2023-12-06T14:13:31Z</time><name>PT9199</name></trkpt>
<trkpt lat="51.820866" lon="03.939989"><ele>0.6</ele><time>2023-12-06T14:13:33Z</time><name>PT9200</name></trkpt>
<trkpt lat="51.820865" lon="03.940002"><ele>0.7</ele><time>2023-12-06T14:13:33Z</time><name>PT9201</name></trkpt>
<trkpt lat="51.820863" lon="03.940017"><ele>0.6</ele><time>2023-12-06T14:13:34Z</time><name>PT9202</name></trkpt>
<trkpt lat="51.820861" lon="03.940040"><ele>0.5</ele><time>2023-12-06T14:13:36Z</time><name>PT9203</name></trkpt>
<trkpt lat="51.820857" lon="03.940069"><ele>0.5</ele><time>2023-12-06T14:13:36Z</time><name>PT9204</name></trkpt>
<trkpt lat="51.820854" lon="03.940100"><ele>0.5</ele><time>2023-12-06T14:13:37Z</time><name>PT9205</name></trkpt>
<trkpt lat="51.820852" lon="03.940124"><ele>0.5</ele><time>2023-12-06T14:13:39Z</time><name>PT9206</name></trkpt>
<trkpt lat="51.820850" lon="03.940144"><ele>0.7</ele><time>2023-12-06T14:13:39Z</time><name>PT9207</name></trkpt>
<trkpt lat="51.820847" lon="03.940162"><ele>0.9</ele><time>2023-12-06T14:13:40Z</time><name>PT9208</name></trkpt>
<trkpt lat="51.820843" lon="03.940173"><ele>0.8</ele><time>2023-12-06T14:13:42Z</time><name>PT9209</name></trkpt>
<trkpt lat="51.820843" lon="03.940179"><ele>0.9</ele><time>2023-12-06T14:13:42Z</time><name>PT9210</name></trkpt>
<trkpt lat="51.820842" lon="03.940187"><ele>0.9</ele><time>2023-12-06T14:13:43Z</time><name>PT9211</name></trkpt>
<trkpt lat="51.820838" lon="03.940199"><ele>0.7</ele><time>2023-12-06T14:13:45Z</time><name>PT9212</name></trkpt>
<trkpt lat="51.820833" lon="03.940222"><ele>0.8</ele><time>2023-12-06T14:13:45Z</time><name>PT9213</name></trkpt>
<trkpt lat="51.820830" lon="03.940249"><ele>0.7</ele><time>2023-12-06T14:13:46Z</time><name>PT9214</name></trkpt>
<trkpt lat="51.820828" lon="03.940273"><ele>0.7</ele><time>2023-12-06T14:13:48Z</time><name>PT9215</name></trkpt>
<trkpt lat="51.820826" lon="03.940298"><ele>0.9</ele><time>2023-12-06T14:13:48Z</time><name>PT9216</name></trkpt>
<trkpt lat="51.820827" lon="03.940309"><ele>0.9</ele><time>2023-12-06T14:13:49Z</time><name>PT9217</name></trkpt>
<trkpt lat="51.820826" lon="03.940313"><ele>0.8</ele><time>2023-12-06T14:13:51Z</time><name>PT9218</name></trkpt>
<trkpt lat="51.820824" lon="03.940318"><ele>0.8</ele><time>2023-12-06T14:13:51Z</time><name>PT9219</name></trkpt>
<trkpt lat="51.820822" lon="03.940326"><ele>0.8</ele><time>2023-12-06T14:13:52Z</time><name>PT9220</name></trkpt>
<trkpt lat="51.820820" lon="03.940343"><ele>0.7</ele><time>2023-12-06T14:13:54Z</time><name>PT9221</name></trkpt>
<trkpt lat="51.820816" lon="03.940364"><ele>0.6</ele><time>2023-12-06T14:13:54Z</time><name>PT9222</name></trkpt>
<trkpt lat="51.820808" lon="03.940394"><ele>0.8</ele><time>2023-12-06T14:13:55Z</time><name>PT9223</name></trkpt>
<trkpt lat="51.820799" lon="03.940424"><ele>0.6</ele><time>2023-12-06T14:13:57Z</time><name>PT9224</name></trkpt>
<trkpt lat="51.820795" lon="03.940448"><ele>0.6</ele><time>2023-12-06T14:13:57Z</time><name>PT9225</name></trkpt>
<trkpt lat="51.820792" lon="03.940470"><ele>0.8</ele><time>2023-12-06T14:13:58Z</time><name>PT9226</name></trkpt>
<trkpt lat="51.820786" lon="03.940484"><ele>0.7</ele><time>2023-12-06T14:14:00Z</time><name>PT9227</name></trkpt>
<trkpt lat="51.820783" lon="03.940490"><ele>0.6</ele><time>2023-12-06T14:14:00Z</time><name>PT9228</name></trkpt>
<trkpt lat="51.820780" lon="03.940497"><ele>0.6</ele><time>2023-12-06T14:14:01Z</time><name>PT9229</name></trkpt>
<trkpt lat="51.820778" lon="03.940514"><ele>0.6</ele><time>2023-12-06T14:14:03Z</time><name>PT9230</name></trkpt>
<trkpt lat="51.820774" lon="03.940530"><ele>0.6</ele><time>2023-12-06T14:14:03Z</time><name>PT9231</name></trkpt>
<trkpt lat="51.820762" lon="03.940544"><ele>0.6</ele><time>2023-12-06T14:14:04Z</time><name>PT9232</name></trkpt>
<trkpt lat="51.820751" lon="03.940561"><ele>0.8</ele><time>2023-12-06T14:14:06Z</time><name>PT9233</name></trkpt>
<trkpt lat="51.820744" lon="03.940579"><ele>0.9</ele><time>2023-12-06T14:14:06Z</time><name>PT9234</name></trkpt>
<trkpt lat="51.820739" lon="03.940593"><ele>0.9</ele><time>2023-12-06T14:14:07Z</time><name>PT9235</name></trkpt>
<trkpt lat="51.820737" lon="03.940603"><ele>-1</ele><time>2023-12-06T14:14:09Z</time><name>PT9236</name></trkpt>
<trkpt lat="51.820734" lon="03.940614"><ele>-1.1</ele><time>2023-12-06T14:14:09Z</time><name>PT9237</name></trkpt>
<trkpt lat="51.820735" lon="03.940626"><ele>-1.3</ele><time>2023-12-06T14:14:10Z</time><name>PT9238</name></trkpt>
<trkpt lat="51.820733" lon="03.940640"><ele>-1.2</ele><time>2023-12-06T14:14:12Z</time><name>PT9239</name></trkpt>
<trkpt lat="51.820727" lon="03.940660"><ele>-1.2</ele><time>2023-12-06T14:14:12Z</time><name>PT9240</name></trkpt>
<trkpt lat="51.820723" lon="03.940678"><ele>-1.1</ele><time>2023-12-06T14:14:13Z</time><name>PT9241</name></trkpt>
<trkpt lat="51.820719" lon="03.940700"><ele>-1</ele><time>2023-12-06T14:14:15Z</time><name>PT9242</name></trkpt>
<trkpt lat="51.820713" lon="03.940716"><ele>0.9</ele><time>2023-12-06T14:14:15Z</time><name>PT9243</name></trkpt>
<trkpt lat="51.820705" lon="03.940733"><ele>0.9</ele><time>2023-12-06T14:14:16Z</time><name>PT9244</name></trkpt>
<trkpt lat="51.820701" lon="03.940745"><ele>0.8</ele><time>2023-12-06T14:14:18Z</time><name>PT9245</name></trkpt>
<trkpt lat="51.820698" lon="03.940755"><ele>0.8</ele><time>2023-12-06T14:14:18Z</time><name>PT9246</name></trkpt>
<trkpt lat="51.820694" lon="03.940770"><ele>0.9</ele><time>2023-12-06T14:14:19Z</time><name>PT9247</name></trkpt>
<trkpt lat="51.820689" lon="03.940788"><ele>0.8</ele><time>2023-12-06T14:14:21Z</time><name>PT9248</name></trkpt>
<trkpt lat="51.820689" lon="03.940809"><ele>0.8</ele><time>2023-12-06T14:14:21Z</time><name>PT9249</name></trkpt>
<trkpt lat="51.820687" lon="03.940824"><ele>0.9</ele><time>2023-12-06T14:14:22Z</time><name>PT9250</name></trkpt>
<trkpt lat="51.820685" lon="03.940842"><ele>0.9</ele><time>2023-12-06T14:14:24Z</time><name>PT9251</name></trkpt>
<trkpt lat="51.820678" lon="03.940861"><ele>0.9</ele><time>2023-12-06T14:14:24Z</time><name>PT9252</name></trkpt>
<trkpt lat="51.820672" lon="03.940881"><ele>0.6</ele><time>2023-12-06T14:14:25Z</time><name>PT9253</name></trkpt>
<trkpt lat="51.820668" lon="03.940895"><ele>0.8</ele><time>2023-12-06T14:14:27Z</time><name>PT9254</name></trkpt>
<trkpt lat="51.820664" lon="03.940906"><ele>0.8</ele><time>2023-12-06T14:14:27Z</time><name>PT9255</name></trkpt>
<trkpt lat="51.820665" lon="03.940915"><ele>0.8</ele><time>2023-12-06T14:14:28Z</time><name>PT9256</name></trkpt>
<trkpt lat="51.820663" lon="03.940931"><ele>0.8</ele><time>2023-12-06T14:14:30Z</time><name>PT9257</name></trkpt>
<trkpt lat="51.820657" lon="03.940946"><ele>-1</ele><time>2023-12-06T14:14:30Z</time><name>PT9258</name></trkpt>
<trkpt lat="51.820658" lon="03.940962"><ele>0.8</ele><time>2023-12-06T14:14:31Z</time><name>PT9259</name></trkpt>
<trkpt lat="51.820655" lon="03.940986"><ele>-1</ele><time>2023-12-06T14:14:33Z</time><name>PT9260</name></trkpt>
<trkpt lat="51.820651" lon="03.941008"><ele>0.9</ele><time>2023-12-06T14:14:33Z</time><name>PT9261</name></trkpt>
<trkpt lat="51.820650" lon="03.941032"><ele>-1</ele><time>2023-12-06T14:14:34Z</time><name>PT9262</name></trkpt>
<trkpt lat="51.820647" lon="03.941053"><ele>0.7</ele><time>2023-12-06T14:14:36Z</time><name>PT9263</name></trkpt>
<trkpt lat="51.820644" lon="03.941069"><ele>0.7</ele><time>2023-12-06T14:14:36Z</time><name>PT9264</name></trkpt>
<trkpt lat="51.820643" lon="03.941081"><ele>0.6</ele><time>2023-12-06T14:14:37Z</time><name>PT9265</name></trkpt>
<trkpt lat="51.820640" lon="03.941092"><ele>0.6</ele><time>2023-12-06T14:14:39Z</time><name>PT9266</name></trkpt>
<trkpt lat="51.820639" lon="03.941103"><ele>0.6</ele><time>2023-12-06T14:14:39Z</time><name>PT9267</name></trkpt>
<trkpt lat="51.820636" lon="03.941115"><ele>0.7</ele><time>2023-12-06T14:14:41Z</time><name>PT9268</name></trkpt>
<trkpt lat="51.820634" lon="03.941133"><ele>0.9</ele><time>2023-12-06T14:14:42Z</time><name>PT9269</name></trkpt>
<trkpt lat="51.820625" lon="03.941159"><ele>0.9</ele><time>2023-12-06T14:14:42Z</time><name>PT9270</name></trkpt>
<trkpt lat="51.820617" lon="03.941189"><ele>-1</ele><time>2023-12-06T14:14:43Z</time><name>PT9271</name></trkpt>
<trkpt lat="51.820614" lon="03.941213"><ele>0.9</ele><time>2023-12-06T14:14:45Z</time><name>PT9272</name></trkpt>
<trkpt lat="51.820616" lon="03.941232"><ele>0.8</ele><time>2023-12-06T14:14:45Z</time><name>PT9273</name></trkpt>
<trkpt lat="51.820618" lon="03.941250"><ele>0.6</ele><time>2023-12-06T14:14:46Z</time><name>PT9274</name></trkpt>
<trkpt lat="51.820614" lon="03.941267"><ele>0.8</ele><time>2023-12-06T14:14:48Z</time><name>PT9275</name></trkpt>
<trkpt lat="51.820613" lon="03.941279"><ele>0.7</ele><time>2023-12-06T14:14:48Z</time><name>PT9276</name></trkpt>
<trkpt lat="51.820615" lon="03.941290"><ele>0.7</ele><time>2023-12-06T14:14:49Z</time><name>PT9277</name></trkpt>
<trkpt lat="51.820613" lon="03.941302"><ele>0.9</ele><time>2023-12-06T14:14:51Z</time><name>PT9278</name></trkpt>
<trkpt lat="51.820611" lon="03.941319"><ele>0.9</ele><time>2023-12-06T14:14:51Z</time><name>PT9279</name></trkpt>
<trkpt lat="51.820607" lon="03.941334"><ele>0.9</ele><time>2023-12-06T14:14:52Z</time><name>PT9280</name></trkpt>
<trkpt lat="51.820602" lon="03.941353"><ele>0.7</ele><time>2023-12-06T14:14:54Z</time><name>PT9281</name></trkpt>
<trkpt lat="51.820596" lon="03.941370"><ele>0.6</ele><time>2023-12-06T14:14:54Z</time><name>PT9282</name></trkpt>
<trkpt lat="51.820588" lon="03.941395"><ele>0.6</ele><time>2023-12-06T14:14:55Z</time><name>PT9283</name></trkpt>
<trkpt lat="51.820579" lon="03.941420"><ele>0.6</ele><time>2023-12-06T14:14:57Z</time><name>PT9284</name></trkpt>
<trkpt lat="51.820574" lon="03.941435"><ele>0.6</ele><time>2023-12-06T14:14:57Z</time><name>PT9285</name></trkpt>
<trkpt lat="51.820575" lon="03.941452"><ele>-1</ele><time>2023-12-06T14:14:58Z</time><name>PT9286</name></trkpt>
<trkpt lat="51.820577" lon="03.941464"><ele>-1.1</ele><time>2023-12-06T14:15:00Z</time><name>PT9287</name></trkpt>
<trkpt lat="51.820580" lon="03.941474"><ele>-1.1</ele><time>2023-12-06T14:15:00Z</time><name>PT9288</name></trkpt>
<trkpt lat="51.820584" lon="03.941489"><ele>0.9</ele><time>2023-12-06T14:15:01Z</time><name>PT9289</name></trkpt>
<trkpt lat="51.820584" lon="03.941506"><ele>0.8</ele><time>2023-12-06T14:15:03Z</time><name>PT9290</name></trkpt>
<trkpt lat="51.820583" lon="03.941530"><ele>0.6</ele><time>2023-12-06T14:15:03Z</time><name>PT9291</name></trkpt>
<trkpt lat="51.820581" lon="03.941556"><ele>0.5</ele><time>2023-12-06T14:15:04Z</time><name>PT9292</name></trkpt>
<trkpt lat="51.820578" lon="03.941567"><ele>0.5</ele><time>2023-12-06T14:15:06Z</time><name>PT9293</name></trkpt>
<trkpt lat="51.820575" lon="03.941579"><ele>0.6</ele><time>2023-12-06T14:15:06Z</time><name>PT9294</name></trkpt>
<trkpt lat="51.820576" lon="03.941593"><ele>0.6</ele><time>2023-12-06T14:15:07Z</time><name>PT9295</name></trkpt>
<trkpt lat="51.820576" lon="03.941605"><ele>0.6</ele><time>2023-12-06T14:15:09Z</time><name>PT9296</name></trkpt>
<trkpt lat="51.820578" lon="03.941613"><ele>0.6</ele><time>2023-12-06T14:15:09Z</time><name>PT9297</name></trkpt>
<trkpt lat="51.820577" lon="03.941630"><ele>0.6</ele><time>2023-12-06T14:15:10Z</time><name>PT9298</name></trkpt>
<trkpt lat="51.820574" lon="03.941654"><ele>0.5</ele><time>2023-12-06T14:15:12Z</time><name>PT9299</name></trkpt>
<trkpt lat="51.820571" lon="03.941680"><ele>0.6</ele><time>2023-12-06T14:15:12Z</time><name>PT9300</name></trkpt>
<trkpt lat="51.820565" lon="03.941694"><ele>0.5</ele><time>2023-12-06T14:15:13Z</time><name>PT9301</name></trkpt>
<trkpt lat="51.820561" lon="03.941712"><ele>0.5</ele><time>2023-12-06T14:15:15Z</time><name>PT9302</name></trkpt>
<trkpt lat="51.820558" lon="03.941732"><ele>0.5</ele><time>2023-12-06T14:15:15Z</time><name>PT9303</name></trkpt>
<trkpt lat="51.820559" lon="03.941750"><ele>0.5</ele><time>2023-12-06T14:15:16Z</time><name>PT9304</name></trkpt>
<trkpt lat="51.820559" lon="03.941764"><ele>0.6</ele><time>2023-12-06T14:15:18Z</time><name>PT9305</name></trkpt>
<trkpt lat="51.820558" lon="03.941779"><ele>0.6</ele><time>2023-12-06T14:15:18Z</time><name>PT9306</name></trkpt>
<trkpt lat="51.820561" lon="03.941796"><ele>0.6</ele><time>2023-12-06T14:15:19Z</time><name>PT9307</name></trkpt>
<trkpt lat="51.820567" lon="03.941825"><ele>0.6</ele><time>2023-12-06T14:15:21Z</time><name>PT9308</name></trkpt>
<trkpt lat="51.820563" lon="03.941855"><ele>0.6</ele><time>2023-12-06T14:15:21Z</time><name>PT9309</name></trkpt>
<trkpt lat="51.820554" lon="03.941880"><ele>0.6</ele><time>2023-12-06T14:15:23Z</time><name>PT9310</name></trkpt>
<trkpt lat="51.820553" lon="03.941908"><ele>0.4</ele><time>2023-12-06T14:15:24Z</time><name>PT9311</name></trkpt>
<trkpt lat="51.820551" lon="03.941932"><ele>0.5</ele><time>2023-12-06T14:15:24Z</time><name>PT9312</name></trkpt>
<trkpt lat="51.820550" lon="03.941945"><ele>0.5</ele><time>2023-12-06T14:15:25Z</time><name>PT9313</name></trkpt>
<trkpt lat="51.820548" lon="03.941954"><ele>0.4</ele><time>2023-12-06T14:15:27Z</time><name>PT9314</name></trkpt>
<trkpt lat="51.820549" lon="03.941964"><ele>0.4</ele><time>2023-12-06T14:15:27Z</time><name>PT9315</name></trkpt>
<trkpt lat="51.820548" lon="03.941974"><ele>0.3</ele><time>2023-12-06T14:15:28Z</time><name>PT9316</name></trkpt>
<trkpt lat="51.820551" lon="03.941996"><ele>0.4</ele><time>2023-12-06T14:15:30Z</time><name>PT9317</name></trkpt>
<trkpt lat="51.820553" lon="03.942023"><ele>0.4</ele><time>2023-12-06T14:15:30Z</time><name>PT9318</name></trkpt>
<trkpt lat="51.820550" lon="03.942052"><ele>0.4</ele><time>2023-12-06T14:15:31Z</time><name>PT9319</name></trkpt>
<trkpt lat="51.820545" lon="03.942084"><ele>0.5</ele><time>2023-12-06T14:15:33Z</time><name>PT9320</name></trkpt>
<trkpt lat="51.820540" lon="03.942112"><ele>0.5</ele><time>2023-12-06T14:15:33Z</time><name>PT9321</name></trkpt>
<trkpt lat="51.820533" lon="03.942130"><ele>0.5</ele><time>2023-12-06T14:15:34Z</time><name>PT9322</name></trkpt>
<trkpt lat="51.820531" lon="03.942142"><ele>0.6</ele><time>2023-12-06T14:15:36Z</time><name>PT9323</name></trkpt>
<trkpt lat="51.820531" lon="03.942152"><ele>0.6</ele><time>2023-12-06T14:15:36Z</time><name>PT9324</name></trkpt>
<trkpt lat="51.820530" lon="03.942165"><ele>0.6</ele><time>2023-12-06T14:15:38Z</time><name>PT9325</name></trkpt>
<trkpt lat="51.820527" lon="03.942184"><ele>0.6</ele><time>2023-12-06T14:15:39Z</time><name>PT9326</name></trkpt>
<trkpt lat="51.820525" lon="03.942209"><ele>0.5</ele><time>2023-12-06T14:15:39Z</time><name>PT9327</name></trkpt>
<trkpt lat="51.820523" lon="03.942232"><ele>0.5</ele><time>2023-12-06T14:15:40Z</time><name>PT9328</name></trkpt>
<trkpt lat="51.820524" lon="03.942258"><ele>0.5</ele><time>2023-12-06T14:15:42Z</time><name>PT9329</name></trkpt>
<trkpt lat="51.820522" lon="03.942278"><ele>0.5</ele><time>2023-12-06T14:15:42Z</time><name>PT9330</name></trkpt>
<trkpt lat="51.820517" lon="03.942294"><ele>0.6</ele><time>2023-12-06T14:15:43Z</time><name>PT9331</name></trkpt>
<trkpt lat="51.820515" lon="03.942310"><ele>0.7</ele><time>2023-12-06T14:15:45Z</time><name>PT9332</name></trkpt>
<trkpt lat="51.820511" lon="03.942323"><ele>0.8</ele><time>2023-12-06T14:15:45Z</time><name>PT9333</name></trkpt>
<trkpt lat="51.820509" lon="03.942335"><ele>0.8</ele><time>2023-12-06T14:15:46Z</time><name>PT9334</name></trkpt>
<trkpt lat="51.820508" lon="03.942352"><ele>0.7</ele><time>2023-12-06T14:15:48Z</time><name>PT9335</name></trkpt>
<trkpt lat="51.820511" lon="03.942372"><ele>0.7</ele><time>2023-12-06T14:15:48Z</time><name>PT9336</name></trkpt>
<trkpt lat="51.820509" lon="03.942396"><ele>0.6</ele><time>2023-12-06T14:15:49Z</time><name>PT9337</name></trkpt>
<trkpt lat="51.820506" lon="03.942424"><ele>0.7</ele><time>2023-12-06T14:15:51Z</time><name>PT9338</name></trkpt>
<trkpt lat="51.820502" lon="03.942446"><ele>0.6</ele><time>2023-12-06T14:15:51Z</time><name>PT9339</name></trkpt>
<trkpt lat="51.820500" lon="03.942464"><ele>0.6</ele><time>2023-12-06T14:15:52Z</time><name>PT9340</name></trkpt>
<trkpt lat="51.820499" lon="03.942479"><ele>0.5</ele><time>2023-12-06T14:15:54Z</time><name>PT9341</name></trkpt>
<trkpt lat="51.820499" lon="03.942490"><ele>0.4</ele><time>2023-12-06T14:15:54Z</time><name>PT9342</name></trkpt>
<trkpt lat="51.820497" lon="03.942499"><ele>0.5</ele><time>2023-12-06T14:15:55Z</time><name>PT9343</name></trkpt>
<trkpt lat="51.820496" lon="03.942513"><ele>0.6</ele><time>2023-12-06T14:15:57Z</time><name>PT9344</name></trkpt>
<trkpt lat="51.820493" lon="03.942533"><ele>0.7</ele><time>2023-12-06T14:15:57Z</time><name>PT9345</name></trkpt>
<trkpt lat="51.820488" lon="03.942557"><ele>0.9</ele><time>2023-12-06T14:15:58Z</time><name>PT9346</name></trkpt>
<trkpt lat="51.820484" lon="03.942584"><ele>0.8</ele><time>2023-12-06T14:16:00Z</time><name>PT9347</name></trkpt>
<trkpt lat="51.820477" lon="03.942601"><ele>0.8</ele><time>2023-12-06T14:16:00Z</time><name>PT9348</name></trkpt>
<trkpt lat="51.820472" lon="03.942613"><ele>0.7</ele><time>2023-12-06T14:16:01Z</time><name>PT9349</name></trkpt>
<trkpt lat="51.820468" lon="03.942621"><ele>0.6</ele><time>2023-12-06T14:16:03Z</time><name>PT9350</name></trkpt>
<trkpt lat="51.820463" lon="03.942630"><ele>0.6</ele><time>2023-12-06T14:16:03Z</time><name>PT9351</name></trkpt>
<trkpt lat="51.820456" lon="03.942642"><ele>0.6</ele><time>2023-12-06T14:16:04Z</time><name>PT9352</name></trkpt>
<trkpt lat="51.820448" lon="03.942657"><ele>0.6</ele><time>2023-12-06T14:16:06Z</time><name>PT9353</name></trkpt>
<trkpt lat="51.820427" lon="03.942671"><ele>0.7</ele><time>2023-12-06T14:16:06Z</time><name>PT9354</name></trkpt>
<trkpt lat="51.820410" lon="03.942686"><ele>0.7</ele><time>2023-12-06T14:16:07Z</time><name>PT9355</name></trkpt>
<trkpt lat="51.820399" lon="03.942695"><ele>0.8</ele><time>2023-12-06T14:16:09Z</time><name>PT9356</name></trkpt>
<trkpt lat="51.820393" lon="03.942703"><ele>0.9</ele><time>2023-12-06T14:16:09Z</time><name>PT9357</name></trkpt>
<trkpt lat="51.820390" lon="03.942710"><ele>0.8</ele><time>2023-12-06T14:16:10Z</time><name>PT9358</name></trkpt>
<trkpt lat="51.820386" lon="03.942715"><ele>0.8</ele><time>2023-12-06T14:16:12Z</time><name>PT9359</name></trkpt>
<trkpt lat="51.820377" lon="03.942722"><ele>0.8</ele><time>2023-12-06T14:16:12Z</time><name>PT9360</name></trkpt>
<trkpt lat="51.820363" lon="03.942726"><ele>0.7</ele><time>2023-12-06T14:16:13Z</time><name>PT9361</name></trkpt>
<trkpt lat="51.820346" lon="03.942732"><ele>0.7</ele><time>2023-12-06T14:16:15Z</time><name>PT9362</name></trkpt>
<trkpt lat="51.820326" lon="03.942737"><ele>0.6</ele><time>2023-12-06T14:16:15Z</time><name>PT9363</name></trkpt>
<trkpt lat="51.820311" lon="03.942740"><ele>0.5</ele><time>2023-12-06T14:16:16Z</time><name>PT9364</name></trkpt>
<trkpt lat="51.820301" lon="03.942745"><ele>0.4</ele><time>2023-12-06T14:16:18Z</time><name>PT9365</name></trkpt>
<trkpt lat="51.820295" lon="03.942752"><ele>0.5</ele><time>2023-12-06T14:16:18Z</time><name>PT9366</name></trkpt>
<trkpt lat="51.820289" lon="03.942760"><ele>0.4</ele><time>2023-12-06T14:16:19Z</time><name>PT9367</name></trkpt>
<trkpt lat="51.820279" lon="03.942768"><ele>0.6</ele><time>2023-12-06T14:16:21Z</time><name>PT9368</name></trkpt>
<trkpt lat="51.820269" lon="03.942777"><ele>0.6</ele><time>2023-12-06T14:16:21Z</time><name>PT9369</name></trkpt>
<trkpt lat="51.820258" lon="03.942793"><ele>0.6</ele><time>2023-12-06T14:16:22Z</time><name>PT9370</name></trkpt>
<trkpt lat="51.820242" lon="03.942804"><ele>0.8</ele><time>2023-12-06T14:16:24Z</time><name>PT9371</name></trkpt>
<trkpt lat="51.820230" lon="03.942815"><ele>0.8</ele><time>2023-12-06T14:16:24Z</time><name>PT9372</name></trkpt>
<trkpt lat="51.820221" lon="03.942822"><ele>0.7</ele><time>2023-12-06T14:16:25Z</time><name>PT9373</name></trkpt>
<trkpt lat="51.820213" lon="03.942826"><ele>0.6</ele><time>2023-12-06T14:16:27Z</time><name>PT9374</name></trkpt>
<trkpt lat="51.820207" lon="03.942827"><ele>0.6</ele><time>2023-12-06T14:16:27Z</time><name>PT9375</name></trkpt>
<trkpt lat="51.820204" lon="03.942830"><ele>0.6</ele><time>2023-12-06T14:16:28Z</time><name>PT9376</name></trkpt>
<trkpt lat="51.820196" lon="03.942835"><ele>0.6</ele><time>2023-12-06T14:16:30Z</time><name>PT9377</name></trkpt>
<trkpt lat="51.820187" lon="03.942842"><ele>0.6</ele><time>2023-12-06T14:16:30Z</time><name>PT9378</name></trkpt>
<trkpt lat="51.820176" lon="03.942847"><ele>0.6</ele><time>2023-12-06T14:16:31Z</time><name>PT9379</name></trkpt>
<trkpt lat="51.820161" lon="03.942857"><ele>0.7</ele><time>2023-12-06T14:16:33Z</time><name>PT9380</name></trkpt>
<trkpt lat="51.820146" lon="03.942863"><ele>0.7</ele><time>2023-12-06T14:16:33Z</time><name>PT9381</name></trkpt>
<trkpt lat="51.820134" lon="03.942867"><ele>0.8</ele><time>2023-12-06T14:16:34Z</time><name>PT9382</name></trkpt>
<trkpt lat="51.820123" lon="03.942871"><ele>-1</ele><time>2023-12-06T14:16:36Z</time><name>PT9383</name></trkpt>
<trkpt lat="51.820116" lon="03.942875"><ele>-1</ele><time>2023-12-06T14:16:36Z</time><name>PT9384</name></trkpt>
<trkpt lat="51.820108" lon="03.942883"><ele>-1.1</ele><time>2023-12-06T14:16:37Z</time><name>PT9385</name></trkpt>
<trkpt lat="51.820099" lon="03.942886"><ele>0.9</ele><time>2023-12-06T14:16:39Z</time><name>PT9386</name></trkpt>
<trkpt lat="51.820095" lon="03.942886"><ele>0.8</ele><time>2023-12-06T14:16:39Z</time><name>PT9387</name></trkpt>
<trkpt lat="51.820090" lon="03.942891"><ele>0.6</ele><time>2023-12-06T14:16:40Z</time><name>PT9388</name></trkpt>
<trkpt lat="51.820080" lon="03.942903"><ele>0.5</ele><time>2023-12-06T14:16:42Z</time><name>PT9389</name></trkpt>
<trkpt lat="51.820066" lon="03.942913"><ele>0.6</ele><time>2023-12-06T14:16:42Z</time><name>PT9390</name></trkpt>
<trkpt lat="51.820049" lon="03.942925"><ele>0.6</ele><time>2023-12-06T14:16:43Z</time><name>PT9391</name></trkpt>
<trkpt lat="51.820032" lon="03.942938"><ele>0.6</ele><time>2023-12-06T14:16:45Z</time><name>PT9392</name></trkpt>
<trkpt lat="51.820020" lon="03.942949"><ele>0.6</ele><time>2023-12-06T14:16:45Z</time><name>PT9393</name></trkpt>
<trkpt lat="51.820014" lon="03.942954"><ele>0.5</ele><time>2023-12-06T14:16:46Z</time><name>PT9394</name></trkpt>
<trkpt lat="51.820009" lon="03.942962"><ele>0.5</ele><time>2023-12-06T14:16:48Z</time><name>PT9395</name></trkpt>
<trkpt lat="51.820004" lon="03.942969"><ele>0.4</ele><time>2023-12-06T14:16:48Z</time><name>PT9396</name></trkpt>
<trkpt lat="51.819997" lon="03.942975"><ele>0.4</ele><time>2023-12-06T14:16:49Z</time><name>PT9397</name></trkpt>
<trkpt lat="51.819989" lon="03.942987"><ele>0.5</ele><time>2023-12-06T14:16:51Z</time><name>PT9398</name></trkpt>
<trkpt lat="51.819977" lon="03.943003"><ele>0.5</ele><time>2023-12-06T14:16:51Z</time><name>PT9399</name></trkpt>
<trkpt lat="51.819964" lon="03.943022"><ele>0.5</ele><time>2023-12-06T14:16:52Z</time><name>PT9400</name></trkpt>
<trkpt lat="51.819952" lon="03.943045"><ele>0.6</ele><time>2023-12-06T14:16:54Z</time><name>PT9401</name></trkpt>
<trkpt lat="51.819944" lon="03.943065"><ele>0.6</ele><time>2023-12-06T14:16:54Z</time><name>PT9402</name></trkpt>
<trkpt lat="51.819940" lon="03.943079"><ele>0.4</ele><time>2023-12-06T14:16:55Z</time><name>PT9403</name></trkpt>
<trkpt lat="51.819940" lon="03.943095"><ele>0.4</ele><time>2023-12-06T14:16:57Z</time><name>PT9404</name></trkpt>
<trkpt lat="51.819942" lon="03.943112"><ele>0.4</ele><time>2023-12-06T14:16:57Z</time><name>PT9405</name></trkpt>
<trkpt lat="51.819946" lon="03.943122"><ele>0.4</ele><time>2023-12-06T14:16:58Z</time><name>PT9406</name></trkpt>
<trkpt lat="51.819949" lon="03.943130"><ele>0.5</ele><time>2023-12-06T14:17:00Z</time><name>PT9407</name></trkpt>
<trkpt lat="51.819953" lon="03.943140"><ele>0.6</ele><time>2023-12-06T14:17:00Z</time><name>PT9408</name></trkpt>
<trkpt lat="51.819957" lon="03.943142"><ele>0.7</ele><time>2023-12-06T14:17:01Z</time><name>PT9409</name></trkpt>
<trkpt lat="51.819957" lon="03.943142"><ele>0.7</ele><time>2023-12-06T14:17:03Z</time><name>PT9410</name></trkpt>
<trkpt lat="51.819957" lon="03.943144"><ele>0.7</ele><time>2023-12-06T14:17:03Z</time><name>PT9411</name></trkpt>
<trkpt lat="51.819956" lon="03.943145"><ele>0.6</ele><time>2023-12-06T14:17:04Z</time><name>PT9412</name></trkpt>
<trkpt lat="51.819958" lon="03.943144"><ele>0.6</ele><time>2023-12-06T14:17:06Z</time><name>PT9413</name></trkpt>
<trkpt lat="51.819960" lon="03.943144"><ele>0.6</ele><time>2023-12-06T14:17:06Z</time><name>PT9414</name></trkpt>
<trkpt lat="51.819958" lon="03.943144"><ele>0.5</ele><time>2023-12-06T14:17:07Z</time><name>PT9415</name></trkpt>
<trkpt lat="51.819958" lon="03.943144"><ele>0.6</ele><time>2023-12-06T14:17:09Z</time><name>PT9416</name></trkpt>
<trkpt lat="51.819958" lon="03.943144"><ele>0.7</ele><time>2023-12-06T14:17:09Z</time><name>PT9417</name></trkpt>
<trkpt lat="51.819962" lon="03.943138"><ele>0.9</ele><time>2023-12-06T14:17:12Z</time><name>PT9418</name></trkpt>
<trkpt lat="51.819964" lon="03.943132"><ele>0.9</ele><time>2023-12-06T14:17:12Z</time><name>PT9419</name></trkpt>
<trkpt lat="51.819966" lon="03.943131"><ele>0.8</ele><time>2023-12-06T14:17:14Z</time><name>PT9420</name></trkpt>
<trkpt lat="51.819965" lon="03.943128"><ele>0.7</ele><time>2023-12-06T14:17:15Z</time><name>PT9421</name></trkpt>
<trkpt lat="51.819964" lon="03.943126"><ele>0.7</ele><time>2023-12-06T14:17:15Z</time><name>PT9422</name></trkpt>
<trkpt lat="51.819966" lon="03.943124"><ele>0.7</ele><time>2023-12-06T14:17:16Z</time><name>PT9423</name></trkpt>
<trkpt lat="51.819964" lon="03.943129"><ele>0.5</ele><time>2023-12-06T14:17:28Z</time><name>PT9424</name></trkpt>
<trkpt lat="51.819964" lon="03.943127"><ele>0.2</ele><time>2023-12-06T14:17:30Z</time><name>PT9425</name></trkpt>
<trkpt lat="51.819966" lon="03.943125"><ele>0.2</ele><time>2023-12-06T14:17:30Z</time><name>PT9426</name></trkpt>
<trkpt lat="51.819965" lon="03.943125"><ele>0.1</ele><time>2023-12-06T14:17:31Z</time><name>PT9427</name></trkpt>
<trkpt lat="51.819969" lon="03.943118"><ele>0.6</ele><time>2023-12-06T14:17:39Z</time><name>PT9428</name></trkpt>
<trkpt lat="51.819970" lon="03.943118"><ele>0.6</ele><time>2023-12-06T14:17:40Z</time><name>PT9429</name></trkpt>
<trkpt lat="51.819971" lon="03.943119"><ele>0.6</ele><time>2023-12-06T14:17:42Z</time><name>PT9430</name></trkpt>
<trkpt lat="51.819968" lon="03.943110"><ele>0.2</ele><time>2023-12-06T14:17:57Z</time><name>PT9431</name></trkpt>
<trkpt lat="51.819971" lon="03.943092"><ele>0.4</ele><time>2023-12-06T14:17:58Z</time><name>PT9432</name></trkpt>
<trkpt lat="51.819972" lon="03.943078"><ele>0.3</ele><time>2023-12-06T14:18:00Z</time><name>PT9433</name></trkpt>
<trkpt lat="51.819976" lon="03.943068"><ele>0.4</ele><time>2023-12-06T14:18:00Z</time><name>PT9434</name></trkpt>
<trkpt lat="51.819978" lon="03.943061"><ele>0.3</ele><time>2023-12-06T14:18:01Z</time><name>PT9435</name></trkpt>
<trkpt lat="51.819979" lon="03.943058"><ele>0.3</ele><time>2023-12-06T14:18:03Z</time><name>PT9436</name></trkpt>
<trkpt lat="51.819979" lon="03.943055"><ele>0.3</ele><time>2023-12-06T14:18:03Z</time><name>PT9437</name></trkpt>
<trkpt lat="51.819980" lon="03.943054"><ele>0.5</ele><time>2023-12-06T14:18:04Z</time><name>PT9438</name></trkpt>
<trkpt lat="51.819982" lon="03.943050"><ele>0</ele><time>2023-12-06T14:18:09Z</time><name>PT9439</name></trkpt>
<trkpt lat="51.819986" lon="03.943048"><ele>0.1</ele><time>2023-12-06T14:18:09Z</time><name>PT9440</name></trkpt>
<trkpt lat="51.819988" lon="03.943047"><ele>0.2</ele><time>2023-12-06T14:18:10Z</time><name>PT9441</name></trkpt>
<trkpt lat="51.819988" lon="03.943045"><ele>0.2</ele><time>2023-12-06T14:18:12Z</time><name>PT9442</name></trkpt>
<trkpt lat="51.819989" lon="03.943047"><ele>0.2</ele><time>2023-12-06T14:18:12Z</time><name>PT9443</name></trkpt>
<trkpt lat="51.819989" lon="03.943047"><ele>0.3</ele><time>2023-12-06T14:18:13Z</time><name>PT9444</name></trkpt>
<trkpt lat="51.819988" lon="03.943050"><ele>0.3</ele><time>2023-12-06T14:18:15Z</time><name>PT9445</name></trkpt>
<trkpt lat="51.819989" lon="03.943044"><ele>0.3</ele><time>2023-12-06T14:18:16Z</time><name>PT9446</name></trkpt>
<trkpt lat="51.819990" lon="03.943041"><ele>0.2</ele><time>2023-12-06T14:18:18Z</time><name>PT9447</name></trkpt>
<trkpt lat="51.819991" lon="03.943039"><ele>0.2</ele><time>2023-12-06T14:18:18Z</time><name>PT9448</name></trkpt>
<trkpt lat="51.819993" lon="03.943038"><ele>0.1</ele><time>2023-12-06T14:18:19Z</time><name>PT9449</name></trkpt>
<trkpt lat="51.819992" lon="03.943037"><ele>0.2</ele><time>2023-12-06T14:19:12Z</time><name>PT9450</name></trkpt>
<trkpt lat="51.819985" lon="03.943036"><ele>0.2</ele><time>2023-12-06T14:19:12Z</time><name>PT9451</name></trkpt>
<trkpt lat="51.819978" lon="03.943039"><ele>0.5</ele><time>2023-12-06T14:19:13Z</time><name>PT9452</name></trkpt>
<trkpt lat="51.819973" lon="03.943048"><ele>0.6</ele><time>2023-12-06T14:19:15Z</time><name>PT9453</name></trkpt>
<trkpt lat="51.819969" lon="03.943059"><ele>0.5</ele><time>2023-12-06T14:19:15Z</time><name>PT9454</name></trkpt>
<trkpt lat="51.819968" lon="03.943071"><ele>0.5</ele><time>2023-12-06T14:19:16Z</time><name>PT9455</name></trkpt>
<trkpt lat="51.819968" lon="03.943085"><ele>0.5</ele><time>2023-12-06T14:19:18Z</time><name>PT9456</name></trkpt>
<trkpt lat="51.819970" lon="03.943098"><ele>0.4</ele><time>2023-12-06T14:19:18Z</time><name>PT9457</name></trkpt>
<trkpt lat="51.819971" lon="03.943110"><ele>0.4</ele><time>2023-12-06T14:19:19Z</time><name>PT9458</name></trkpt>
<trkpt lat="51.819972" lon="03.943122"><ele>0.4</ele><time>2023-12-06T14:19:21Z</time><name>PT9459</name></trkpt>
<trkpt lat="51.819976" lon="03.943135"><ele>0.4</ele><time>2023-12-06T14:19:21Z</time><name>PT9460</name></trkpt>
<trkpt lat="51.819982" lon="03.943148"><ele>0.4</ele><time>2023-12-06T14:19:22Z</time><name>PT9461</name></trkpt>
<trkpt lat="51.819987" lon="03.943160"><ele>0.4</ele><time>2023-12-06T14:19:24Z</time><name>PT9462</name></trkpt>
<trkpt lat="51.819992" lon="03.943173"><ele>0.2</ele><time>2023-12-06T14:19:24Z</time><name>PT9463</name></trkpt>
<trkpt lat="51.819996" lon="03.943189"><ele>0.3</ele><time>2023-12-06T14:19:25Z</time><name>PT9464</name></trkpt>
<trkpt lat="51.820000" lon="03.943204"><ele>0.4</ele><time>2023-12-06T14:19:27Z</time><name>PT9465</name></trkpt>
<trkpt lat="51.820005" lon="03.943220"><ele>0.6</ele><time>2023-12-06T14:19:27Z</time><name>PT9466</name></trkpt>
<trkpt lat="51.820009" lon="03.943235"><ele>0.6</ele><time>2023-12-06T14:19:28Z</time><name>PT9467</name></trkpt>
<trkpt lat="51.820013" lon="03.943253"><ele>0.6</ele><time>2023-12-06T14:19:30Z</time><name>PT9468</name></trkpt>
<trkpt lat="51.820017" lon="03.943268"><ele>0.6</ele><time>2023-12-06T14:19:30Z</time><name>PT9469</name></trkpt>
<trkpt lat="51.820023" lon="03.943283"><ele>0.6</ele><time>2023-12-06T14:19:31Z</time><name>PT9470</name></trkpt>
<trkpt lat="51.820029" lon="03.943299"><ele>0.5</ele><time>2023-12-06T14:19:33Z</time><name>PT9471</name></trkpt>
<trkpt lat="51.820035" lon="03.943316"><ele>0.5</ele><time>2023-12-06T14:19:33Z</time><name>PT9472</name></trkpt>
<trkpt lat="51.820040" lon="03.943332"><ele>0.6</ele><time>2023-12-06T14:19:34Z</time><name>PT9473</name></trkpt>
<trkpt lat="51.820047" lon="03.943347"><ele>0.6</ele><time>2023-12-06T14:19:36Z</time><name>PT9474</name></trkpt>
<trkpt lat="51.820052" lon="03.943360"><ele>0.6</ele><time>2023-12-06T14:19:36Z</time><name>PT9475</name></trkpt>
<trkpt lat="51.820056" lon="03.943373"><ele>0.6</ele><time>2023-12-06T14:19:37Z</time><name>PT9476</name></trkpt>
<trkpt lat="51.820059" lon="03.943389"><ele>0.3</ele><time>2023-12-06T14:19:39Z</time><name>PT9477</name></trkpt>
<trkpt lat="51.820064" lon="03.943403"><ele>0.3</ele><time>2023-12-06T14:19:39Z</time><name>PT9478</name></trkpt>
<trkpt lat="51.820069" lon="03.943414"><ele>0.2</ele><time>2023-12-06T14:19:40Z</time><name>PT9479</name></trkpt>
<trkpt lat="51.820075" lon="03.943427"><ele>0.3</ele><time>2023-12-06T14:19:42Z</time><name>PT9480</name></trkpt>
<trkpt lat="51.820080" lon="03.943440"><ele>0.3</ele><time>2023-12-06T14:19:42Z</time><name>PT9481</name></trkpt>
<trkpt lat="51.820087" lon="03.943452"><ele>0.3</ele><time>2023-12-06T14:19:43Z</time><name>PT9482</name></trkpt>
<trkpt lat="51.820093" lon="03.943465"><ele>0.4</ele><time>2023-12-06T14:19:45Z</time><name>PT9483</name></trkpt>
<trkpt lat="51.820097" lon="03.943476"><ele>0.4</ele><time>2023-12-06T14:19:45Z</time><name>PT9484</name></trkpt>
<trkpt lat="51.820102" lon="03.943488"><ele>0.5</ele><time>2023-12-06T14:19:46Z</time><name>PT9485</name></trkpt>
<trkpt lat="51.820108" lon="03.943503"><ele>0.6</ele><time>2023-12-06T14:19:48Z</time><name>PT9486</name></trkpt>
<trkpt lat="51.820114" lon="03.943521"><ele>0.6</ele><time>2023-12-06T14:19:48Z</time><name>PT9487</name></trkpt>
<trkpt lat="51.820119" lon="03.943536"><ele>0.8</ele><time>2023-12-06T14:19:49Z</time><name>PT9488</name></trkpt>
<trkpt lat="51.820124" lon="03.943553"><ele>0.6</ele><time>2023-12-06T14:19:51Z</time><name>PT9489</name></trkpt>
<trkpt lat="51.820130" lon="03.943567"><ele>0.6</ele><time>2023-12-06T14:19:51Z</time><name>PT9490</name></trkpt>
<trkpt lat="51.820138" lon="03.943575"><ele>0.3</ele><time>2023-12-06T14:19:52Z</time><name>PT9491</name></trkpt>
<trkpt lat="51.820145" lon="03.943585"><ele>0.3</ele><time>2023-12-06T14:19:54Z</time><name>PT9492</name></trkpt>
<trkpt lat="51.820152" lon="03.943597"><ele>0.3</ele><time>2023-12-06T14:19:54Z</time><name>PT9493</name></trkpt>
<trkpt lat="51.820159" lon="03.943618"><ele>0.2</ele><time>2023-12-06T14:19:55Z</time><name>PT9494</name></trkpt>
<trkpt lat="51.820167" lon="03.943634"><ele>0.2</ele><time>2023-12-06T14:19:57Z</time><name>PT9495</name></trkpt>
<trkpt lat="51.820175" lon="03.943647"><ele>0.2</ele><time>2023-12-06T14:19:57Z</time><name>PT9496</name></trkpt>
<trkpt lat="51.820181" lon="03.943658"><ele>0.2</ele><time>2023-12-06T14:19:58Z</time><name>PT9497</name></trkpt>
<trkpt lat="51.820188" lon="03.943672"><ele>0.3</ele><time>2023-12-06T14:20:00Z</time><name>PT9498</name></trkpt>
<trkpt lat="51.820196" lon="03.943685"><ele>0.3</ele><time>2023-12-06T14:20:00Z</time><name>PT9499</name></trkpt>
<trkpt lat="51.820204" lon="03.943697"><ele>0.5</ele><time>2023-12-06T14:20:01Z</time><name>PT9500</name></trkpt>
<trkpt lat="51.820211" lon="03.943712"><ele>0.4</ele><time>2023-12-06T14:20:03Z</time><name>PT9501</name></trkpt>
<trkpt lat="51.820219" lon="03.943729"><ele>0.3</ele><time>2023-12-06T14:20:03Z</time><name>PT9502</name></trkpt>
<trkpt lat="51.820226" lon="03.943744"><ele>0.3</ele><time>2023-12-06T14:20:04Z</time><name>PT9503</name></trkpt>
<trkpt lat="51.820232" lon="03.943760"><ele>0.5</ele><time>2023-12-06T14:20:06Z</time><name>PT9504</name></trkpt>
<trkpt lat="51.820238" lon="03.943776"><ele>0.6</ele><time>2023-12-06T14:20:06Z</time><name>PT9505</name></trkpt>
<trkpt lat="51.820245" lon="03.943790"><ele>0.6</ele><time>2023-12-06T14:20:07Z</time><name>PT9506</name></trkpt>
<trkpt lat="51.820251" lon="03.943803"><ele>0.8</ele><time>2023-12-06T14:20:09Z</time><name>PT9507</name></trkpt>
<trkpt lat="51.820258" lon="03.943817"><ele>0.8</ele><time>2023-12-06T14:20:09Z</time><name>PT9508</name></trkpt>
<trkpt lat="51.820265" lon="03.943831"><ele>0.6</ele><time>2023-12-06T14:20:10Z</time><name>PT9509</name></trkpt>
<trkpt lat="51.820273" lon="03.943843"><ele>0.7</ele><time>2023-12-06T14:20:12Z</time><name>PT9510</name></trkpt>
<trkpt lat="51.820279" lon="03.943856"><ele>0.7</ele><time>2023-12-06T14:20:12Z</time><name>PT9511</name></trkpt>
<trkpt lat="51.820286" lon="03.943870"><ele>0.6</ele><time>2023-12-06T14:20:13Z</time><name>PT9512</name></trkpt>
<trkpt lat="51.820292" lon="03.943887"><ele>0.6</ele><time>2023-12-06T14:20:15Z</time><name>PT9513</name></trkpt>
<trkpt lat="51.820298" lon="03.943903"><ele>0.6</ele><time>2023-12-06T14:20:15Z</time><name>PT9514</name></trkpt>
<trkpt lat="51.820304" lon="03.943917"><ele>0.6</ele><time>2023-12-06T14:20:16Z</time><name>PT9515</name></trkpt>
<trkpt lat="51.820311" lon="03.943930"><ele>0.5</ele><time>2023-12-06T14:20:18Z</time><name>PT9516</name></trkpt>
<trkpt lat="51.820318" lon="03.943940"><ele>0.6</ele><time>2023-12-06T14:20:18Z</time><name>PT9517</name></trkpt>
<trkpt lat="51.820323" lon="03.943952"><ele>0.7</ele><time>2023-12-06T14:20:19Z</time><name>PT9518</name></trkpt>
<trkpt lat="51.820329" lon="03.943966"><ele>0.6</ele><time>2023-12-06T14:20:21Z</time><name>PT9519</name></trkpt>
<trkpt lat="51.820335" lon="03.943978"><ele>0.6</ele><time>2023-12-06T14:20:21Z</time><name>PT9520</name></trkpt>
<trkpt lat="51.820341" lon="03.943991"><ele>-1</ele><time>2023-12-06T14:20:22Z</time><name>PT9521</name></trkpt>
<trkpt lat="51.820347" lon="03.944006"><ele>0.9</ele><time>2023-12-06T14:20:24Z</time><name>PT9522</name></trkpt>
<trkpt lat="51.820353" lon="03.944021"><ele>0.8</ele><time>2023-12-06T14:20:24Z</time><name>PT9523</name></trkpt>
<trkpt lat="51.820359" lon="03.944036"><ele>0.9</ele><time>2023-12-06T14:20:25Z</time><name>PT9524</name></trkpt>
<trkpt lat="51.820364" lon="03.944051"><ele>0.8</ele><time>2023-12-06T14:20:27Z</time><name>PT9525</name></trkpt>
<trkpt lat="51.820370" lon="03.944067"><ele>0.8</ele><time>2023-12-06T14:20:27Z</time><name>PT9526</name></trkpt>
<trkpt lat="51.820377" lon="03.944082"><ele>0.9</ele><time>2023-12-06T14:20:28Z</time><name>PT9527</name></trkpt>
<trkpt lat="51.820383" lon="03.944094"><ele>-1.1</ele><time>2023-12-06T14:20:30Z</time><name>PT9528</name></trkpt>
<trkpt lat="51.820389" lon="03.944106"><ele>-1</ele><time>2023-12-06T14:20:30Z</time><name>PT9529</name></trkpt>
<trkpt lat="51.820396" lon="03.944119"><ele>-1.1</ele><time>2023-12-06T14:20:31Z</time><name>PT9530</name></trkpt>
<trkpt lat="51.820403" lon="03.944132"><ele>-1</ele><time>2023-12-06T14:20:33Z</time><name>PT9531</name></trkpt>
<trkpt lat="51.820410" lon="03.944146"><ele>-1</ele><time>2023-12-06T14:20:33Z</time><name>PT9532</name></trkpt>
<trkpt lat="51.820417" lon="03.944161"><ele>0.7</ele><time>2023-12-06T14:20:34Z</time><name>PT9533</name></trkpt>
<trkpt lat="51.820423" lon="03.944175"><ele>0.6</ele><time>2023-12-06T14:20:36Z</time><name>PT9534</name></trkpt>
<trkpt lat="51.820429" lon="03.944191"><ele>0.7</ele><time>2023-12-06T14:20:36Z</time><name>PT9535</name></trkpt>
<trkpt lat="51.820435" lon="03.944207"><ele>0.8</ele><time>2023-12-06T14:20:37Z</time><name>PT9536</name></trkpt>
<trkpt lat="51.820441" lon="03.944221"><ele>0.9</ele><time>2023-12-06T14:20:39Z</time><name>PT9537</name></trkpt>
<trkpt lat="51.820446" lon="03.944235"><ele>-1</ele><time>2023-12-06T14:20:39Z</time><name>PT9538</name></trkpt>
<trkpt lat="51.820452" lon="03.944250"><ele>-1.1</ele><time>2023-12-06T14:20:40Z</time><name>PT9539</name></trkpt>
<trkpt lat="51.820460" lon="03.944264"><ele>0.9</ele><time>2023-12-06T14:20:42Z</time><name>PT9540</name></trkpt>
<trkpt lat="51.820468" lon="03.944277"><ele>0.8</ele><time>2023-12-06T14:20:42Z</time><name>PT9541</name></trkpt>
<trkpt lat="51.820475" lon="03.944288"><ele>0.8</ele><time>2023-12-06T14:20:44Z</time><name>PT9542</name></trkpt>
<trkpt lat="51.820482" lon="03.944300"><ele>0.7</ele><time>2023-12-06T14:20:45Z</time><name>PT9543</name></trkpt>
<trkpt lat="51.820486" lon="03.944318"><ele>0.8</ele><time>2023-12-06T14:20:45Z</time><name>PT9544</name></trkpt>
<trkpt lat="51.820491" lon="03.944333"><ele>0.7</ele><time>2023-12-06T14:20:46Z</time><name>PT9545</name></trkpt>
<trkpt lat="51.820497" lon="03.944350"><ele>0.7</ele><time>2023-12-06T14:20:48Z</time><name>PT9546</name></trkpt>
<trkpt lat="51.820503" lon="03.944366"><ele>0.7</ele><time>2023-12-06T14:20:48Z</time><name>PT9547</name></trkpt>
<trkpt lat="51.820510" lon="03.944380"><ele>0.5</ele><time>2023-12-06T14:20:49Z</time><name>PT9548</name></trkpt>
<trkpt lat="51.820516" lon="03.944395"><ele>0.5</ele><time>2023-12-06T14:20:51Z</time><name>PT9549</name></trkpt>
<trkpt lat="51.820523" lon="03.944409"><ele>0.6</ele><time>2023-12-06T14:20:51Z</time><name>PT9550</name></trkpt>
<trkpt lat="51.820530" lon="03.944423"><ele>0.6</ele><time>2023-12-06T14:20:52Z</time><name>PT9551</name></trkpt>
<trkpt lat="51.820541" lon="03.944440"><ele>0.9</ele><time>2023-12-06T14:20:54Z</time><name>PT9552</name></trkpt>
<trkpt lat="51.820550" lon="03.944454"><ele>-1</ele><time>2023-12-06T14:20:54Z</time><name>PT9553</name></trkpt>
<trkpt lat="51.820556" lon="03.944468"><ele>0.9</ele><time>2023-12-06T14:20:55Z</time><name>PT9554</name></trkpt>
<trkpt lat="51.820560" lon="03.944482"><ele>-1</ele><time>2023-12-06T14:20:57Z</time><name>PT9555</name></trkpt>
<trkpt lat="51.820567" lon="03.944498"><ele>-1</ele><time>2023-12-06T14:20:57Z</time><name>PT9556</name></trkpt>
<trkpt lat="51.820573" lon="03.944515"><ele>-1</ele><time>2023-12-06T14:20:58Z</time><name>PT9557</name></trkpt>
<trkpt lat="51.820579" lon="03.944529"><ele>-1.1</ele><time>2023-12-06T14:21:00Z</time><name>PT9558</name></trkpt>
<trkpt lat="51.820584" lon="03.944543"><ele>-1.1</ele><time>2023-12-06T14:21:00Z</time><name>PT9559</name></trkpt>
<trkpt lat="51.820591" lon="03.944557"><ele>0.9</ele><time>2023-12-06T14:21:01Z</time><name>PT9560</name></trkpt>
<trkpt lat="51.820599" lon="03.944568"><ele>0.7</ele><time>2023-12-06T14:21:03Z</time><name>PT9561</name></trkpt>
<trkpt lat="51.820606" lon="03.944581"><ele>0.6</ele><time>2023-12-06T14:21:03Z</time><name>PT9562</name></trkpt>
<trkpt lat="51.820614" lon="03.944595"><ele>0.6</ele><time>2023-12-06T14:21:04Z</time><name>PT9563</name></trkpt>
<trkpt lat="51.820620" lon="03.944610"><ele>0.4</ele><time>2023-12-06T14:21:06Z</time><name>PT9564</name></trkpt>
<trkpt lat="51.820627" lon="03.944625"><ele>0.5</ele><time>2023-12-06T14:21:06Z</time><name>PT9565</name></trkpt>
<trkpt lat="51.820635" lon="03.944640"><ele>0.5</ele><time>2023-12-06T14:21:07Z</time><name>PT9566</name></trkpt>
<trkpt lat="51.820642" lon="03.944657"><ele>0.7</ele><time>2023-12-06T14:21:09Z</time><name>PT9567</name></trkpt>
<trkpt lat="51.820648" lon="03.944677"><ele>0.6</ele><time>2023-12-06T14:21:09Z</time><name>PT9568</name></trkpt>
<trkpt lat="51.820654" lon="03.944694"><ele>0.6</ele><time>2023-12-06T14:21:10Z</time><name>PT9569</name></trkpt>
<trkpt lat="51.820661" lon="03.944709"><ele>0.6</ele><time>2023-12-06T14:21:12Z</time><name>PT9570</name></trkpt>
<trkpt lat="51.820668" lon="03.944724"><ele>0.7</ele><time>2023-12-06T14:21:12Z</time><name>PT9571</name></trkpt>
<trkpt lat="51.820675" lon="03.944738"><ele>0.5</ele><time>2023-12-06T14:21:13Z</time><name>PT9572</name></trkpt>
<trkpt lat="51.820682" lon="03.944754"><ele>0.4</ele><time>2023-12-06T14:21:15Z</time><name>PT9573</name></trkpt>
<trkpt lat="51.820688" lon="03.944769"><ele>0.5</ele><time>2023-12-06T14:21:15Z</time><name>PT9574</name></trkpt>
<trkpt lat="51.820695" lon="03.944784"><ele>0.5</ele><time>2023-12-06T14:21:16Z</time><name>PT9575</name></trkpt>
<trkpt lat="51.820701" lon="03.944799"><ele>0.6</ele><time>2023-12-06T14:21:18Z</time><name>PT9576</name></trkpt>
<trkpt lat="51.820708" lon="03.944813"><ele>0.6</ele><time>2023-12-06T14:21:18Z</time><name>PT9577</name></trkpt>
<trkpt lat="51.820715" lon="03.944828"><ele>0.6</ele><time>2023-12-06T14:21:19Z</time><name>PT9578</name></trkpt>
<trkpt lat="51.820722" lon="03.944844"><ele>0.5</ele><time>2023-12-06T14:21:21Z</time><name>PT9579</name></trkpt>
<trkpt lat="51.820728" lon="03.944860"><ele>0.5</ele><time>2023-12-06T14:21:21Z</time><name>PT9580</name></trkpt>
<trkpt lat="51.820735" lon="03.944875"><ele>0.3</ele><time>2023-12-06T14:21:22Z</time><name>PT9581</name></trkpt>
<trkpt lat="51.820742" lon="03.944889"><ele>0.3</ele><time>2023-12-06T14:21:24Z</time><name>PT9582</name></trkpt>
<trkpt lat="51.820748" lon="03.944903"><ele>0.3</ele><time>2023-12-06T14:21:24Z</time><name>PT9583</name></trkpt>
<trkpt lat="51.820756" lon="03.944916"><ele>0.3</ele><time>2023-12-06T14:21:25Z</time><name>PT9584</name></trkpt>
<trkpt lat="51.820763" lon="03.944931"><ele>0.4</ele><time>2023-12-06T14:21:27Z</time><name>PT9585</name></trkpt>
<trkpt lat="51.820770" lon="03.944946"><ele>0.5</ele><time>2023-12-06T14:21:27Z</time><name>PT9586</name></trkpt>
<trkpt lat="51.820777" lon="03.944962"><ele>0.6</ele><time>2023-12-06T14:21:28Z</time><name>PT9587</name></trkpt>
<trkpt lat="51.820785" lon="03.944979"><ele>0.6</ele><time>2023-12-06T14:21:30Z</time><name>PT9588</name></trkpt>
<trkpt lat="51.820791" lon="03.944995"><ele>0.6</ele><time>2023-12-06T14:21:30Z</time><name>PT9589</name></trkpt>
<trkpt lat="51.820797" lon="03.945008"><ele>0.5</ele><time>2023-12-06T14:21:31Z</time><name>PT9590</name></trkpt>
<trkpt lat="51.820798" lon="03.945018"><ele>0.5</ele><time>2023-12-06T14:21:33Z</time><name>PT9591</name></trkpt>
<trkpt lat="51.820803" lon="03.945030"><ele>0.4</ele><time>2023-12-06T14:21:33Z</time><name>PT9592</name></trkpt>
<trkpt lat="51.820809" lon="03.945044"><ele>0.4</ele><time>2023-12-06T14:21:34Z</time><name>PT9593</name></trkpt>
<trkpt lat="51.820816" lon="03.945058"><ele>0.5</ele><time>2023-12-06T14:21:36Z</time><name>PT9594</name></trkpt>
<trkpt lat="51.820823" lon="03.945073"><ele>0.6</ele><time>2023-12-06T14:21:36Z</time><name>PT9595</name></trkpt>
<trkpt lat="51.820830" lon="03.945089"><ele>0.6</ele><time>2023-12-06T14:21:37Z</time><name>PT9596</name></trkpt>
<trkpt lat="51.820836" lon="03.945105"><ele>0.6</ele><time>2023-12-06T14:21:39Z</time><name>PT9597</name></trkpt>
<trkpt lat="51.820842" lon="03.945119"><ele>0.6</ele><time>2023-12-06T14:21:39Z</time><name>PT9598</name></trkpt>
<trkpt lat="51.820848" lon="03.945132"><ele>0.6</ele><time>2023-12-06T14:21:40Z</time><name>PT9599</name></trkpt>
<trkpt lat="51.820855" lon="03.945144"><ele>0.4</ele><time>2023-12-06T14:21:42Z</time><name>PT9600</name></trkpt>
<trkpt lat="51.820863" lon="03.945156"><ele>0.4</ele><time>2023-12-06T14:21:42Z</time><name>PT9601</name></trkpt>
<trkpt lat="51.820870" lon="03.945169"><ele>0.4</ele><time>2023-12-06T14:21:44Z</time><name>PT9602</name></trkpt>
<trkpt lat="51.820877" lon="03.945183"><ele>0.4</ele><time>2023-12-06T14:21:45Z</time><name>PT9603</name></trkpt>
<trkpt lat="51.820883" lon="03.945197"><ele>0.4</ele><time>2023-12-06T14:21:45Z</time><name>PT9604</name></trkpt>
<trkpt lat="51.820890" lon="03.945213"><ele>0.5</ele><time>2023-12-06T14:21:46Z</time><name>PT9605</name></trkpt>
<trkpt lat="51.820897" lon="03.945229"><ele>0.4</ele><time>2023-12-06T14:21:48Z</time><name>PT9606</name></trkpt>
<trkpt lat="51.820903" lon="03.945246"><ele>0.5</ele><time>2023-12-06T14:21:48Z</time><name>PT9607</name></trkpt>
<trkpt lat="51.820908" lon="03.945262"><ele>0.3</ele><time>2023-12-06T14:21:49Z</time><name>PT9608</name></trkpt>
<trkpt lat="51.820915" lon="03.945277"><ele>0.2</ele><time>2023-12-06T14:21:51Z</time><name>PT9609</name></trkpt>
<trkpt lat="51.820923" lon="03.945290"><ele>0.3</ele><time>2023-12-06T14:21:51Z</time><name>PT9610</name></trkpt>
<trkpt lat="51.820930" lon="03.945302"><ele>0.3</ele><time>2023-12-06T14:21:52Z</time><name>PT9611</name></trkpt>
<trkpt lat="51.820936" lon="03.945316"><ele>0.6</ele><time>2023-12-06T14:21:54Z</time><name>PT9612</name></trkpt>
<trkpt lat="51.820942" lon="03.945329"><ele>0.6</ele><time>2023-12-06T14:21:54Z</time><name>PT9613</name></trkpt>
<trkpt lat="51.820944" lon="03.945344"><ele>0.6</ele><time>2023-12-06T14:21:55Z</time><name>PT9614</name></trkpt>
<trkpt lat="51.820946" lon="03.945361"><ele>0.4</ele><time>2023-12-06T14:21:57Z</time><name>PT9615</name></trkpt>
<trkpt lat="51.820950" lon="03.945376"><ele>0.4</ele><time>2023-12-06T14:21:57Z</time><name>PT9616</name></trkpt>
<trkpt lat="51.820955" lon="03.945392"><ele>0.2</ele><time>2023-12-06T14:21:58Z</time><name>PT9617</name></trkpt>
<trkpt lat="51.820961" lon="03.945407"><ele>0.4</ele><time>2023-12-06T14:22:00Z</time><name>PT9618</name></trkpt>
<trkpt lat="51.820966" lon="03.945422"><ele>0.4</ele><time>2023-12-06T14:22:00Z</time><name>PT9619</name></trkpt>
<trkpt lat="51.820972" lon="03.945437"><ele>0.3</ele><time>2023-12-06T14:22:01Z</time><name>PT9620</name></trkpt>
<trkpt lat="51.820975" lon="03.945451"><ele>0.2</ele><time>2023-12-06T14:22:03Z</time><name>PT9621</name></trkpt>
<trkpt lat="51.820979" lon="03.945467"><ele>0.2</ele><time>2023-12-06T14:22:03Z</time><name>PT9622</name></trkpt>
<trkpt lat="51.820982" lon="03.945486"><ele>0.2</ele><time>2023-12-06T14:22:04Z</time><name>PT9623</name></trkpt>
<trkpt lat="51.820985" lon="03.945505"><ele>0.2</ele><time>2023-12-06T14:22:06Z</time><name>PT9624</name></trkpt>
<trkpt lat="51.820988" lon="03.945524"><ele>0.2</ele><time>2023-12-06T14:22:06Z</time><name>PT9625</name></trkpt>
<trkpt lat="51.820989" lon="03.945544"><ele>0.4</ele><time>2023-12-06T14:22:07Z</time><name>PT9626</name></trkpt>
<trkpt lat="51.820990" lon="03.945562"><ele>0.3</ele><time>2023-12-06T14:22:09Z</time><name>PT9627</name></trkpt>
<trkpt lat="51.820993" lon="03.945579"><ele>0.3</ele><time>2023-12-06T14:22:09Z</time><name>PT9628</name></trkpt>
<trkpt lat="51.820995" lon="03.945598"><ele>0.2</ele><time>2023-12-06T14:22:10Z</time><name>PT9629</name></trkpt>
<trkpt lat="51.820998" lon="03.945617"><ele>0.1</ele><time>2023-12-06T14:22:12Z</time><name>PT9630</name></trkpt>
<trkpt lat="51.821001" lon="03.945636"><ele>0</ele><time>2023-12-06T14:22:12Z</time><name>PT9631</name></trkpt>
<trkpt lat="51.821003" lon="03.945656"><ele>0.1</ele><time>2023-12-06T14:22:13Z</time><name>PT9632</name></trkpt>
<trkpt lat="51.821004" lon="03.945676"><ele>0.2</ele><time>2023-12-06T14:22:15Z</time><name>PT9633</name></trkpt>
<trkpt lat="51.821005" lon="03.945694"><ele>0.3</ele><time>2023-12-06T14:22:15Z</time><name>PT9634</name></trkpt>
<trkpt lat="51.821006" lon="03.945714"><ele>0.4</ele><time>2023-12-06T14:22:16Z</time><name>PT9635</name></trkpt>
<trkpt lat="51.821009" lon="03.945732"><ele>0.3</ele><time>2023-12-06T14:22:18Z</time><name>PT9636</name></trkpt>
<trkpt lat="51.821009" lon="03.945748"><ele>0.4</ele><time>2023-12-06T14:22:18Z</time><name>PT9637</name></trkpt>
<trkpt lat="51.821010" lon="03.945766"><ele>0.4</ele><time>2023-12-06T14:22:19Z</time><name>PT9638</name></trkpt>
<trkpt lat="51.821008" lon="03.945784"><ele>0.4</ele><time>2023-12-06T14:22:21Z</time><name>PT9639</name></trkpt>
<trkpt lat="51.821006" lon="03.945802"><ele>0.3</ele><time>2023-12-06T14:22:21Z</time><name>PT9640</name></trkpt>
<trkpt lat="51.821003" lon="03.945819"><ele>0.3</ele><time>2023-12-06T14:22:22Z</time><name>PT9641</name></trkpt>
<trkpt lat="51.821001" lon="03.945834"><ele>0.1</ele><time>2023-12-06T14:22:24Z</time><name>PT9642</name></trkpt>
<trkpt lat="51.820998" lon="03.945852"><ele>0</ele><time>2023-12-06T14:22:24Z</time><name>PT9643</name></trkpt>
<trkpt lat="51.820995" lon="03.945870"><ele>0.3</ele><time>2023-12-06T14:22:25Z</time><name>PT9644</name></trkpt>
<trkpt lat="51.820993" lon="03.945888"><ele>0.3</ele><time>2023-12-06T14:22:27Z</time><name>PT9645</name></trkpt>
<trkpt lat="51.820990" lon="03.945907"><ele>0.2</ele><time>2023-12-06T14:22:27Z</time><name>PT9646</name></trkpt>
<trkpt lat="51.820989" lon="03.945927"><ele>0.3</ele><time>2023-12-06T14:22:28Z</time><name>PT9647</name></trkpt>
<trkpt lat="51.820987" lon="03.945947"><ele>0.2</ele><time>2023-12-06T14:22:30Z</time><name>PT9648</name></trkpt>
<trkpt lat="51.820987" lon="03.945965"><ele>0.2</ele><time>2023-12-06T14:22:30Z</time><name>PT9649</name></trkpt>
<trkpt lat="51.820985" lon="03.945982"><ele>0.2</ele><time>2023-12-06T14:22:31Z</time><name>PT9650</name></trkpt>
<trkpt lat="51.820982" lon="03.945999"><ele>0.2</ele><time>2023-12-06T14:22:33Z</time><name>PT9651</name></trkpt>
<trkpt lat="51.820980" lon="03.946017"><ele>0.2</ele><time>2023-12-06T14:22:33Z</time><name>PT9652</name></trkpt>
<trkpt lat="51.820978" lon="03.946033"><ele>0.2</ele><time>2023-12-06T14:22:34Z</time><name>PT9653</name></trkpt>
<trkpt lat="51.820977" lon="03.946049"><ele>0.2</ele><time>2023-12-06T14:22:36Z</time><name>PT9654</name></trkpt>
<trkpt lat="51.820974" lon="03.946064"><ele>0.2</ele><time>2023-12-06T14:22:36Z</time><name>PT9655</name></trkpt>
<trkpt lat="51.820972" lon="03.946080"><ele>0.2</ele><time>2023-12-06T14:22:37Z</time><name>PT9656</name></trkpt>
<trkpt lat="51.820971" lon="03.946095"><ele>0.3</ele><time>2023-12-06T14:22:39Z</time><name>PT9657</name></trkpt>
<trkpt lat="51.820969" lon="03.946110"><ele>0.3</ele><time>2023-12-06T14:22:39Z</time><name>PT9658</name></trkpt>
<trkpt lat="51.820967" lon="03.946127"><ele>0.2</ele><time>2023-12-06T14:22:40Z</time><name>PT9659</name></trkpt>
<trkpt lat="51.820967" lon="03.946145"><ele>0.2</ele><time>2023-12-06T14:22:42Z</time><name>PT9660</name></trkpt>
<trkpt lat="51.820967" lon="03.946160"><ele>0.2</ele><time>2023-12-06T14:22:42Z</time><name>PT9661</name></trkpt>
<trkpt lat="51.820967" lon="03.946175"><ele>0.1</ele><time>2023-12-06T14:22:43Z</time><name>PT9662</name></trkpt>
<trkpt lat="51.820968" lon="03.946190"><ele>0</ele><time>2023-12-06T14:22:45Z</time><name>PT9663</name></trkpt>
<trkpt lat="51.820970" lon="03.946207"><ele>0</ele><time>2023-12-06T14:22:45Z</time><name>PT9664</name></trkpt>
<trkpt lat="51.820972" lon="03.946223"><ele>0.2</ele><time>2023-12-06T14:22:46Z</time><name>PT9665</name></trkpt>
<trkpt lat="51.820974" lon="03.946239"><ele>0.1</ele><time>2023-12-06T14:22:48Z</time><name>PT9666</name></trkpt>
<trkpt lat="51.820974" lon="03.946252"><ele>0.2</ele><time>2023-12-06T14:22:48Z</time><name>PT9667</name></trkpt>
<trkpt lat="51.820973" lon="03.946260"><ele>0.3</ele><time>2023-12-06T14:22:49Z</time><name>PT9668</name></trkpt>
<trkpt lat="51.820972" lon="03.946265"><ele>0.3</ele><time>2023-12-06T14:22:51Z</time><name>PT9669</name></trkpt>
<trkpt lat="51.820973" lon="03.946272"><ele>0.2</ele><time>2023-12-06T14:22:51Z</time><name>PT9670</name></trkpt>
<trkpt lat="51.820974" lon="03.946282"><ele>0.1</ele><time>2023-12-06T14:22:52Z</time><name>PT9671</name></trkpt>
<trkpt lat="51.820978" lon="03.946291"><ele>0</ele><time>2023-12-06T14:22:54Z</time><name>PT9672</name></trkpt>
<trkpt lat="51.820984" lon="03.946305"><ele>0.1</ele><time>2023-12-06T14:22:54Z</time><name>PT9673</name></trkpt>
<trkpt lat="51.820991" lon="03.946319"><ele>0</ele><time>2023-12-06T14:22:55Z</time><name>PT9674</name></trkpt>
<trkpt lat="51.820997" lon="03.946332"><ele>0</ele><time>2023-12-06T14:22:57Z</time><name>PT9675</name></trkpt>
<trkpt lat="51.821001" lon="03.946343"><ele>0.1</ele><time>2023-12-06T14:22:57Z</time><name>PT9676</name></trkpt>
<trkpt lat="51.821002" lon="03.946348"><ele>0.1</ele><time>2023-12-06T14:22:58Z</time><name>PT9677</name></trkpt>
<trkpt lat="51.821002" lon="03.946349"><ele>0</ele><time>2023-12-06T14:23:00Z</time><name>PT9678</name></trkpt>
<trkpt lat="51.821002" lon="03.946350"><ele>0</ele><time>2023-12-06T14:23:00Z</time><name>PT9679</name></trkpt>
<trkpt lat="51.821005" lon="03.946367"><ele>0</ele><time>2023-12-06T14:23:15Z</time><name>PT9680</name></trkpt>
<trkpt lat="51.821013" lon="03.946387"><ele>0.2</ele><time>2023-12-06T14:23:15Z</time><name>PT9681</name></trkpt>
<trkpt lat="51.821017" lon="03.946403"><ele>0.2</ele><time>2023-12-06T14:23:16Z</time><name>PT9682</name></trkpt>
<trkpt lat="51.821020" lon="03.946412"><ele>0.1</ele><time>2023-12-06T14:23:18Z</time><name>PT9683</name></trkpt>
<trkpt lat="51.821022" lon="03.946419"><ele>0.2</ele><time>2023-12-06T14:23:18Z</time><name>PT9684</name></trkpt>
<trkpt lat="51.821022" lon="03.946424"><ele>0.2</ele><time>2023-12-06T14:23:19Z</time><name>PT9685</name></trkpt>
<trkpt lat="51.821025" lon="03.946444"><ele>0.1</ele><time>2023-12-06T14:24:00Z</time><name>PT9686</name></trkpt>
<trkpt lat="51.821034" lon="03.946458"><ele>0</ele><time>2023-12-06T14:24:01Z</time><name>PT9687</name></trkpt>
<trkpt lat="51.821039" lon="03.946469"><ele>0</ele><time>2023-12-06T14:24:03Z</time><name>PT9688</name></trkpt>
<trkpt lat="51.821042" lon="03.946484"><ele>0</ele><time>2023-12-06T14:24:03Z</time><name>PT9689</name></trkpt>
<trkpt lat="51.821045" lon="03.946497"><ele>0</ele><time>2023-12-06T14:24:04Z</time><name>PT9690</name></trkpt>
<trkpt lat="51.821047" lon="03.946505"><ele>0.2</ele><time>2023-12-06T14:24:06Z</time><name>PT9691</name></trkpt>
<trkpt lat="51.821047" lon="03.946510"><ele>0.3</ele><time>2023-12-06T14:24:06Z</time><name>PT9692</name></trkpt>
<trkpt lat="51.821048" lon="03.946512"><ele>0.4</ele><time>2023-12-06T14:24:07Z</time><name>PT9693</name></trkpt>
<trkpt lat="51.821048" lon="03.946513"><ele>0.3</ele><time>2023-12-06T14:24:09Z</time><name>PT9694</name></trkpt>
<trkpt lat="51.821052" lon="03.946529"><ele>0.2</ele><time>2023-12-06T14:24:21Z</time><name>PT9695</name></trkpt>
<trkpt lat="51.821061" lon="03.946553"><ele>0.2</ele><time>2023-12-06T14:24:21Z</time><name>PT9696</name></trkpt>
<trkpt lat="51.821070" lon="03.946572"><ele>0.2</ele><time>2023-12-06T14:24:22Z</time><name>PT9697</name></trkpt>
<trkpt lat="51.821078" lon="03.946584"><ele>0.2</ele><time>2023-12-06T14:24:24Z</time><name>PT9698</name></trkpt>
<trkpt lat="51.821084" lon="03.946598"><ele>0.2</ele><time>2023-12-06T14:24:24Z</time><name>PT9699</name></trkpt>
<trkpt lat="51.821091" lon="03.946617"><ele>0.2</ele><time>2023-12-06T14:24:25Z</time><name>PT9700</name></trkpt>
<trkpt lat="51.821096" lon="03.946634"><ele>0.2</ele><time>2023-12-06T14:24:27Z</time><name>PT9701</name></trkpt>
<trkpt lat="51.821105" lon="03.946647"><ele>0.2</ele><time>2023-12-06T14:24:27Z</time><name>PT9702</name></trkpt>
<trkpt lat="51.821112" lon="03.946659"><ele>0.2</ele><time>2023-12-06T14:24:28Z</time><name>PT9703</name></trkpt>
<trkpt lat="51.821118" lon="03.946671"><ele>0.1</ele><time>2023-12-06T14:24:30Z</time><name>PT9704</name></trkpt>
<trkpt lat="51.821124" lon="03.946685"><ele>0.1</ele><time>2023-12-06T14:24:30Z</time><name>PT9705</name></trkpt>
<trkpt lat="51.821128" lon="03.946700"><ele>0.1</ele><time>2023-12-06T14:24:31Z</time><name>PT9706</name></trkpt>
<trkpt lat="51.821133" lon="03.946714"><ele>0</ele><time>2023-12-06T14:24:33Z</time><name>PT9707</name></trkpt>
<trkpt lat="51.821138" lon="03.946727"><ele>0.1</ele><time>2023-12-06T14:24:33Z</time><name>PT9708</name></trkpt>
<trkpt lat="51.821145" lon="03.946740"><ele>0.2</ele><time>2023-12-06T14:24:34Z</time><name>PT9709</name></trkpt>
<trkpt lat="51.821151" lon="03.946752"><ele>0.2</ele><time>2023-12-06T14:24:36Z</time><name>PT9710</name></trkpt>
<trkpt lat="51.821159" lon="03.946764"><ele>0.3</ele><time>2023-12-06T14:24:36Z</time><name>PT9711</name></trkpt>
<trkpt lat="51.821167" lon="03.946776"><ele>0.4</ele><time>2023-12-06T14:24:37Z</time><name>PT9712</name></trkpt>
<trkpt lat="51.821174" lon="03.946793"><ele>0.4</ele><time>2023-12-06T14:24:39Z</time><name>PT9713</name></trkpt>
<trkpt lat="51.821177" lon="03.946807"><ele>0.2</ele><time>2023-12-06T14:24:39Z</time><name>PT9714</name></trkpt>
<trkpt lat="51.821181" lon="03.946820"><ele>0.4</ele><time>2023-12-06T14:24:40Z</time><name>PT9715</name></trkpt>
<trkpt lat="51.821184" lon="03.946835"><ele>0.2</ele><time>2023-12-06T14:24:42Z</time><name>PT9716</name></trkpt>
<trkpt lat="51.821189" lon="03.946850"><ele>0.3</ele><time>2023-12-06T14:24:42Z</time><name>PT9717</name></trkpt>
<trkpt lat="51.821194" lon="03.946859"><ele>0.3</ele><time>2023-12-06T14:24:43Z</time><name>PT9718</name></trkpt>
<trkpt lat="51.821195" lon="03.946862"><ele>0.2</ele><time>2023-12-06T14:24:45Z</time><name>PT9719</name></trkpt>
<trkpt lat="51.821196" lon="03.946863"><ele>0.2</ele><time>2023-12-06T14:24:45Z</time><name>PT9720</name></trkpt>
<trkpt lat="51.821196" lon="03.946862"><ele>0.2</ele><time>2023-12-06T14:24:46Z</time><name>PT9721</name></trkpt>
<trkpt lat="51.821197" lon="03.946869"><ele>0.3</ele><time>2023-12-06T14:24:52Z</time><name>PT9722</name></trkpt>
<trkpt lat="51.821204" lon="03.946887"><ele>0.3</ele><time>2023-12-06T14:24:54Z</time><name>PT9723</name></trkpt>
<trkpt lat="51.821210" lon="03.946901"><ele>0.4</ele><time>2023-12-06T14:24:54Z</time><name>PT9724</name></trkpt>
<trkpt lat="51.821213" lon="03.946920"><ele>0.5</ele><time>2023-12-06T14:24:55Z</time><name>PT9725</name></trkpt>
<trkpt lat="51.821218" lon="03.946938"><ele>0.4</ele><time>2023-12-06T14:24:57Z</time><name>PT9726</name></trkpt>
<trkpt lat="51.821224" lon="03.946956"><ele>0.5</ele><time>2023-12-06T14:24:57Z</time><name>PT9727</name></trkpt>
<trkpt lat="51.821231" lon="03.946972"><ele>0.4</ele><time>2023-12-06T14:24:58Z</time><name>PT9728</name></trkpt>
<trkpt lat="51.821238" lon="03.946984"><ele>0.3</ele><time>2023-12-06T14:25:00Z</time><name>PT9729</name></trkpt>
<trkpt lat="51.821245" lon="03.946997"><ele>0.3</ele><time>2023-12-06T14:25:00Z</time><name>PT9730</name></trkpt>
<trkpt lat="51.821252" lon="03.947011"><ele>0.4</ele><time>2023-12-06T14:25:01Z</time><name>PT9731</name></trkpt>
<trkpt lat="51.821256" lon="03.947026"><ele>0.3</ele><time>2023-12-06T14:25:03Z</time><name>PT9732</name></trkpt>
<trkpt lat="51.821262" lon="03.947040"><ele>0.3</ele><time>2023-12-06T14:25:03Z</time><name>PT9733</name></trkpt>
<trkpt lat="51.821268" lon="03.947054"><ele>0.4</ele><time>2023-12-06T14:25:04Z</time><name>PT9734</name></trkpt>
<trkpt lat="51.821275" lon="03.947066"><ele>0.2</ele><time>2023-12-06T14:25:06Z</time><name>PT9735</name></trkpt>
<trkpt lat="51.821281" lon="03.947077"><ele>0.2</ele><time>2023-12-06T14:25:06Z</time><name>PT9736</name></trkpt>
<trkpt lat="51.821285" lon="03.947085"><ele>0.1</ele><time>2023-12-06T14:25:07Z</time><name>PT9737</name></trkpt>
<trkpt lat="51.821288" lon="03.947093"><ele>0.2</ele><time>2023-12-06T14:25:09Z</time><name>PT9738</name></trkpt>
<trkpt lat="51.821293" lon="03.947103"><ele>0.2</ele><time>2023-12-06T14:25:09Z</time><name>PT9739</name></trkpt>
<trkpt lat="51.821298" lon="03.947112"><ele>0.3</ele><time>2023-12-06T14:25:10Z</time><name>PT9740</name></trkpt>
<trkpt lat="51.821299" lon="03.947118"><ele>0.3</ele><time>2023-12-06T14:25:12Z</time><name>PT9741</name></trkpt>
<trkpt lat="51.821300" lon="03.947120"><ele>0.3</ele><time>2023-12-06T14:25:12Z</time><name>PT9742</name></trkpt>
<trkpt lat="51.821301" lon="03.947121"><ele>0.4</ele><time>2023-12-06T14:25:13Z</time><name>PT9743</name></trkpt>
<trkpt lat="51.821302" lon="03.947122"><ele>0.3</ele><time>2023-12-06T14:25:15Z</time><name>PT9744</name></trkpt>
<trkpt lat="51.821302" lon="03.947124"><ele>0.3</ele><time>2023-12-06T14:25:15Z</time><name>PT9745</name></trkpt>
<trkpt lat="51.821302" lon="03.947124"><ele>0.2</ele><time>2023-12-06T14:25:16Z</time><name>PT9746</name></trkpt>
<trkpt lat="51.821304" lon="03.947126"><ele>0.5</ele><time>2023-12-06T14:25:54Z</time><name>PT9747</name></trkpt>
<trkpt lat="51.821308" lon="03.947136"><ele>0.6</ele><time>2023-12-06T14:25:55Z</time><name>PT9748</name></trkpt>
<trkpt lat="51.821313" lon="03.947147"><ele>0.5</ele><time>2023-12-06T14:25:57Z</time><name>PT9749</name></trkpt>
<trkpt lat="51.821318" lon="03.947163"><ele>0.6</ele><time>2023-12-06T14:25:57Z</time><name>PT9750</name></trkpt>
<trkpt lat="51.821324" lon="03.947179"><ele>0.7</ele><time>2023-12-06T14:25:58Z</time><name>PT9751</name></trkpt>
<trkpt lat="51.821329" lon="03.947196"><ele>0.6</ele><time>2023-12-06T14:26:00Z</time><name>PT9752</name></trkpt>
<trkpt lat="51.821334" lon="03.947212"><ele>0.6</ele><time>2023-12-06T14:26:00Z</time><name>PT9753</name></trkpt>
<trkpt lat="51.821340" lon="03.947228"><ele>0.6</ele><time>2023-12-06T14:26:01Z</time><name>PT9754</name></trkpt>
<trkpt lat="51.821346" lon="03.947244"><ele>0.5</ele><time>2023-12-06T14:26:03Z</time><name>PT9755</name></trkpt>
<trkpt lat="51.821354" lon="03.947259"><ele>0.5</ele><time>2023-12-06T14:26:03Z</time><name>PT9756</name></trkpt>
<trkpt lat="51.821363" lon="03.947273"><ele>0.4</ele><time>2023-12-06T14:26:04Z</time><name>PT9757</name></trkpt>
<trkpt lat="51.821369" lon="03.947287"><ele>0.5</ele><time>2023-12-06T14:26:06Z</time><name>PT9758</name></trkpt>
<trkpt lat="51.821375" lon="03.947301"><ele>0.4</ele><time>2023-12-06T14:26:06Z</time><name>PT9759</name></trkpt>
<trkpt lat="51.821381" lon="03.947313"><ele>0.6</ele><time>2023-12-06T14:26:07Z</time><name>PT9760</name></trkpt>
<trkpt lat="51.821387" lon="03.947327"><ele>0.7</ele><time>2023-12-06T14:26:09Z</time><name>PT9761</name></trkpt>
<trkpt lat="51.821392" lon="03.947341"><ele>0.7</ele><time>2023-12-06T14:26:09Z</time><name>PT9762</name></trkpt>
<trkpt lat="51.821397" lon="03.947354"><ele>0.9</ele><time>2023-12-06T14:26:10Z</time><name>PT9763</name></trkpt>
<trkpt lat="51.821402" lon="03.947368"><ele>1.1</ele><time>2023-12-06T14:26:12Z</time><name>PT9764</name></trkpt>
<trkpt lat="51.821406" lon="03.947380"><ele>1</ele><time>2023-12-06T14:26:12Z</time><name>PT9765</name></trkpt>
<trkpt lat="51.821410" lon="03.947390"><ele>1</ele><time>2023-12-06T14:26:13Z</time><name>PT9766</name></trkpt>
<trkpt lat="51.821414" lon="03.947401"><ele>0.9</ele><time>2023-12-06T14:26:15Z</time><name>PT9767</name></trkpt>
<trkpt lat="51.821419" lon="03.947414"><ele>0.8</ele><time>2023-12-06T14:26:15Z</time><name>PT9768</name></trkpt>
<trkpt lat="51.821423" lon="03.947428"><ele>0.7</ele><time>2023-12-06T14:26:16Z</time><name>PT9769</name></trkpt>
<trkpt lat="51.821427" lon="03.947443"><ele>0.6</ele><time>2023-12-06T14:26:18Z</time><name>PT9770</name></trkpt>
<trkpt lat="51.821433" lon="03.947459"><ele>0.5</ele><time>2023-12-06T14:26:18Z</time><name>PT9771</name></trkpt>
<trkpt lat="51.821440" lon="03.947476"><ele>0.6</ele><time>2023-12-06T14:26:19Z</time><name>PT9772</name></trkpt>
<trkpt lat="51.821447" lon="03.947494"><ele>0.7</ele><time>2023-12-06T14:26:21Z</time><name>PT9773</name></trkpt>
<trkpt lat="51.821454" lon="03.947510"><ele>0.7</ele><time>2023-12-06T14:26:21Z</time><name>PT9774</name></trkpt>
<trkpt lat="51.821461" lon="03.947525"><ele>0.7</ele><time>2023-12-06T14:26:23Z</time><name>PT9775</name></trkpt>
<trkpt lat="51.821465" lon="03.947532"><ele>0.7</ele><time>2023-12-06T14:26:24Z</time><name>PT9776</name></trkpt>
<trkpt lat="51.821468" lon="03.947542"><ele>0.7</ele><time>2023-12-06T14:26:24Z</time><name>PT9777</name></trkpt>
<trkpt lat="51.821471" lon="03.947552"><ele>0.5</ele><time>2023-12-06T14:26:25Z</time><name>PT9778</name></trkpt>
<trkpt lat="51.821472" lon="03.947563"><ele>0.5</ele><time>2023-12-06T14:26:27Z</time><name>PT9779</name></trkpt>
<trkpt lat="51.821475" lon="03.947578"><ele>0.6</ele><time>2023-12-06T14:26:27Z</time><name>PT9780</name></trkpt>
<trkpt lat="51.821478" lon="03.947593"><ele>0.6</ele><time>2023-12-06T14:26:28Z</time><name>PT9781</name></trkpt>
<trkpt lat="51.821483" lon="03.947612"><ele>0.6</ele><time>2023-12-06T14:26:30Z</time><name>PT9782</name></trkpt>
<trkpt lat="51.821485" lon="03.947631"><ele>0.6</ele><time>2023-12-06T14:26:30Z</time><name>PT9783</name></trkpt>
<trkpt lat="51.821490" lon="03.947650"><ele>0.5</ele><time>2023-12-06T14:26:31Z</time><name>PT9784</name></trkpt>
<trkpt lat="51.821498" lon="03.947669"><ele>0.2</ele><time>2023-12-06T14:26:33Z</time><name>PT9785</name></trkpt>
<trkpt lat="51.821506" lon="03.947686"><ele>0.3</ele><time>2023-12-06T14:26:33Z</time><name>PT9786</name></trkpt>
<trkpt lat="51.821517" lon="03.947705"><ele>0.4</ele><time>2023-12-06T14:26:35Z</time><name>PT9787</name></trkpt>
<trkpt lat="51.821531" lon="03.947726"><ele>0.2</ele><time>2023-12-06T14:26:36Z</time><name>PT9788</name></trkpt>
<trkpt lat="51.821541" lon="03.947740"><ele>0.3</ele><time>2023-12-06T14:26:36Z</time><name>PT9789</name></trkpt>
<trkpt lat="51.821548" lon="03.947752"><ele>0.4</ele><time>2023-12-06T14:26:37Z</time><name>PT9790</name></trkpt>
<trkpt lat="51.821554" lon="03.947763"><ele>0.4</ele><time>2023-12-06T14:26:39Z</time><name>PT9791</name></trkpt>
<trkpt lat="51.821560" lon="03.947775"><ele>0.3</ele><time>2023-12-06T14:26:39Z</time><name>PT9792</name></trkpt>
<trkpt lat="51.821563" lon="03.947787"><ele>0.4</ele><time>2023-12-06T14:26:40Z</time><name>PT9793</name></trkpt>
<trkpt lat="51.821569" lon="03.947802"><ele>0.2</ele><time>2023-12-06T14:26:42Z</time><name>PT9794</name></trkpt>
<trkpt lat="51.821577" lon="03.947818"><ele>0.2</ele><time>2023-12-06T14:26:42Z</time><name>PT9795</name></trkpt>
<trkpt lat="51.821584" lon="03.947837"><ele>0.2</ele><time>2023-12-06T14:26:43Z</time><name>PT9796</name></trkpt>
<trkpt lat="51.821590" lon="03.947855"><ele>0.2</ele><time>2023-12-06T14:26:45Z</time><name>PT9797</name></trkpt>
<trkpt lat="51.821596" lon="03.947873"><ele>0.1</ele><time>2023-12-06T14:26:45Z</time><name>PT9798</name></trkpt>
<trkpt lat="51.821601" lon="03.947886"><ele>0.2</ele><time>2023-12-06T14:26:46Z</time><name>PT9799</name></trkpt>
<trkpt lat="51.821608" lon="03.947899"><ele>0.2</ele><time>2023-12-06T14:26:48Z</time><name>PT9800</name></trkpt>
<trkpt lat="51.821616" lon="03.947913"><ele>0.2</ele><time>2023-12-06T14:26:48Z</time><name>PT9801</name></trkpt>
<trkpt lat="51.821620" lon="03.947931"><ele>0.3</ele><time>2023-12-06T14:26:49Z</time><name>PT9802</name></trkpt>
<trkpt lat="51.821624" lon="03.947948"><ele>0.4</ele><time>2023-12-06T14:26:51Z</time><name>PT9803</name></trkpt>
<trkpt lat="51.821629" lon="03.947970"><ele>0.4</ele><time>2023-12-06T14:26:51Z</time><name>PT9804</name></trkpt>
<trkpt lat="51.821636" lon="03.947990"><ele>0.5</ele><time>2023-12-06T14:26:52Z</time><name>PT9805</name></trkpt>
<trkpt lat="51.821643" lon="03.948007"><ele>0.7</ele><time>2023-12-06T14:26:54Z</time><name>PT9806</name></trkpt>
<trkpt lat="51.821650" lon="03.948023"><ele>0.6</ele><time>2023-12-06T14:26:54Z</time><name>PT9807</name></trkpt>
<trkpt lat="51.821657" lon="03.948038"><ele>0.5</ele><time>2023-12-06T14:26:55Z</time><name>PT9808</name></trkpt>
<trkpt lat="51.821662" lon="03.948052"><ele>0.6</ele><time>2023-12-06T14:26:57Z</time><name>PT9809</name></trkpt>
<trkpt lat="51.821666" lon="03.948065"><ele>0.6</ele><time>2023-12-06T14:26:57Z</time><name>PT9810</name></trkpt>
<trkpt lat="51.821676" lon="03.948080"><ele>0.4</ele><time>2023-12-06T14:26:58Z</time><name>PT9811</name></trkpt>
<trkpt lat="51.821685" lon="03.948093"><ele>0.4</ele><time>2023-12-06T14:27:00Z</time><name>PT9812</name></trkpt>
<trkpt lat="51.821693" lon="03.948109"><ele>0.5</ele><time>2023-12-06T14:27:00Z</time><name>PT9813</name></trkpt>
<trkpt lat="51.821700" lon="03.948127"><ele>0.7</ele><time>2023-12-06T14:27:01Z</time><name>PT9814</name></trkpt>
<trkpt lat="51.821707" lon="03.948145"><ele>1</ele><time>2023-12-06T14:27:03Z</time><name>PT9815</name></trkpt>
<trkpt lat="51.821716" lon="03.948162"><ele>1</ele><time>2023-12-06T14:27:03Z</time><name>PT9816</name></trkpt>
<trkpt lat="51.821722" lon="03.948180"><ele>1.1</ele><time>2023-12-06T14:27:04Z</time><name>PT9817</name></trkpt>
<trkpt lat="51.821728" lon="03.948199"><ele>1.1</ele><time>2023-12-06T14:27:06Z</time><name>PT9818</name></trkpt>
<trkpt lat="51.821736" lon="03.948219"><ele>1.1</ele><time>2023-12-06T14:27:06Z</time><name>PT9819</name></trkpt>
<trkpt lat="51.821745" lon="03.948235"><ele>0.8</ele><time>2023-12-06T14:27:07Z</time><name>PT9820</name></trkpt>
<trkpt lat="51.821750" lon="03.948250"><ele>0.8</ele><time>2023-12-06T14:27:09Z</time><name>PT9821</name></trkpt>
<trkpt lat="51.821756" lon="03.948263"><ele>0.7</ele><time>2023-12-06T14:27:09Z</time><name>PT9822</name></trkpt>
<trkpt lat="51.821761" lon="03.948274"><ele>0.7</ele><time>2023-12-06T14:27:10Z</time><name>PT9823</name></trkpt>
<trkpt lat="51.821763" lon="03.948283"><ele>0.4</ele><time>2023-12-06T14:27:12Z</time><name>PT9824</name></trkpt>
<trkpt lat="51.821765" lon="03.948297"><ele>0.4</ele><time>2023-12-06T14:27:12Z</time><name>PT9825</name></trkpt>
<trkpt lat="51.821771" lon="03.948313"><ele>0.5</ele><time>2023-12-06T14:27:13Z</time><name>PT9826</name></trkpt>
<trkpt lat="51.821780" lon="03.948331"><ele>0.5</ele><time>2023-12-06T14:27:15Z</time><name>PT9827</name></trkpt>
<trkpt lat="51.821787" lon="03.948350"><ele>0.6</ele><time>2023-12-06T14:27:15Z</time><name>PT9828</name></trkpt>
<trkpt lat="51.821795" lon="03.948369"><ele>0.6</ele><time>2023-12-06T14:27:16Z</time><name>PT9829</name></trkpt>
<trkpt lat="51.821798" lon="03.948381"><ele>0.7</ele><time>2023-12-06T14:27:18Z</time><name>PT9830</name></trkpt>
<trkpt lat="51.821801" lon="03.948389"><ele>0.8</ele><time>2023-12-06T14:27:18Z</time><name>PT9831</name></trkpt>
<trkpt lat="51.821803" lon="03.948399"><ele>0.9</ele><time>2023-12-06T14:27:19Z</time><name>PT9832</name></trkpt>
<trkpt lat="51.821808" lon="03.948413"><ele>1</ele><time>2023-12-06T14:27:21Z</time><name>PT9833</name></trkpt>
<trkpt lat="51.821813" lon="03.948428"><ele>0.9</ele><time>2023-12-06T14:27:21Z</time><name>PT9834</name></trkpt>
<trkpt lat="51.821818" lon="03.948445"><ele>0.8</ele><time>2023-12-06T14:27:22Z</time><name>PT9835</name></trkpt>
<trkpt lat="51.821826" lon="03.948464"><ele>0.7</ele><time>2023-12-06T14:27:24Z</time><name>PT9836</name></trkpt>
<trkpt lat="51.821833" lon="03.948475"><ele>0.7</ele><time>2023-12-06T14:27:24Z</time><name>PT9837</name></trkpt>
<trkpt lat="51.821839" lon="03.948482"><ele>0.7</ele><time>2023-12-06T14:27:25Z</time><name>PT9838</name></trkpt>
<trkpt lat="51.821841" lon="03.948496"><ele>0.7</ele><time>2023-12-06T14:27:27Z</time><name>PT9839</name></trkpt>
<trkpt lat="51.821846" lon="03.948510"><ele>0.6</ele><time>2023-12-06T14:27:27Z</time><name>PT9840</name></trkpt>
<trkpt lat="51.821851" lon="03.948527"><ele>0.7</ele><time>2023-12-06T14:27:28Z</time><name>PT9841</name></trkpt>
<trkpt lat="51.821852" lon="03.948545"><ele>0.7</ele><time>2023-12-06T14:27:30Z</time><name>PT9842</name></trkpt>
<trkpt lat="51.821857" lon="03.948566"><ele>0.6</ele><time>2023-12-06T14:27:30Z</time><name>PT9843</name></trkpt>
<trkpt lat="51.821864" lon="03.948589"><ele>0.6</ele><time>2023-12-06T14:27:31Z</time><name>PT9844</name></trkpt>
<trkpt lat="51.821871" lon="03.948607"><ele>0.6</ele><time>2023-12-06T14:27:33Z</time><name>PT9845</name></trkpt>
<trkpt lat="51.821875" lon="03.948620"><ele>0.7</ele><time>2023-12-06T14:27:33Z</time><name>PT9846</name></trkpt>
<trkpt lat="51.821881" lon="03.948630"><ele>0.7</ele><time>2023-12-06T14:27:34Z</time><name>PT9847</name></trkpt>
<trkpt lat="51.821887" lon="03.948641"><ele>0.7</ele><time>2023-12-06T14:27:36Z</time><name>PT9848</name></trkpt>
<trkpt lat="51.821892" lon="03.948655"><ele>0.8</ele><time>2023-12-06T14:27:36Z</time><name>PT9849</name></trkpt>
<trkpt lat="51.821895" lon="03.948668"><ele>0.9</ele><time>2023-12-06T14:27:37Z</time><name>PT9850</name></trkpt>
<trkpt lat="51.821903" lon="03.948687"><ele>1</ele><time>2023-12-06T14:27:39Z</time><name>PT9851</name></trkpt>
<trkpt lat="51.821914" lon="03.948704"><ele>0.9</ele><time>2023-12-06T14:27:39Z</time><name>PT9852</name></trkpt>
<trkpt lat="51.821923" lon="03.948720"><ele>1</ele><time>2023-12-06T14:27:40Z</time><name>PT9853</name></trkpt>
<trkpt lat="51.821930" lon="03.948733"><ele>0.8</ele><time>2023-12-06T14:27:42Z</time><name>PT9854</name></trkpt>
<trkpt lat="51.821937" lon="03.948746"><ele>0.7</ele><time>2023-12-06T14:27:42Z</time><name>PT9855</name></trkpt>
<trkpt lat="51.821940" lon="03.948755"><ele>0.6</ele><time>2023-12-06T14:27:43Z</time><name>PT9856</name></trkpt>
<trkpt lat="51.821946" lon="03.948769"><ele>0.5</ele><time>2023-12-06T14:27:45Z</time><name>PT9857</name></trkpt>
<trkpt lat="51.821951" lon="03.948783"><ele>0.5</ele><time>2023-12-06T14:27:45Z</time><name>PT9858</name></trkpt>
<trkpt lat="51.821958" lon="03.948799"><ele>0.4</ele><time>2023-12-06T14:27:46Z</time><name>PT9859</name></trkpt>
<trkpt lat="51.821967" lon="03.948822"><ele>0.4</ele><time>2023-12-06T14:27:48Z</time><name>PT9860</name></trkpt>
<trkpt lat="51.821976" lon="03.948844"><ele>0.4</ele><time>2023-12-06T14:27:48Z</time><name>PT9861</name></trkpt>
<trkpt lat="51.821984" lon="03.948864"><ele>0.4</ele><time>2023-12-06T14:27:49Z</time><name>PT9862</name></trkpt>
<trkpt lat="51.821992" lon="03.948884"><ele>0.3</ele><time>2023-12-06T14:27:51Z</time><name>PT9863</name></trkpt>
<trkpt lat="51.821997" lon="03.948896"><ele>0.5</ele><time>2023-12-06T14:27:51Z</time><name>PT9864</name></trkpt>
<trkpt lat="51.822001" lon="03.948907"><ele>0.6</ele><time>2023-12-06T14:27:52Z</time><name>PT9865</name></trkpt>
<trkpt lat="51.822006" lon="03.948919"><ele>0.7</ele><time>2023-12-06T14:27:54Z</time><name>PT9866</name></trkpt>
<trkpt lat="51.822010" lon="03.948933"><ele>0.7</ele><time>2023-12-06T14:27:54Z</time><name>PT9867</name></trkpt>
<trkpt lat="51.822016" lon="03.948947"><ele>0.7</ele><time>2023-12-06T14:27:55Z</time><name>PT9868</name></trkpt>
<trkpt lat="51.822024" lon="03.948965"><ele>0.7</ele><time>2023-12-06T14:27:57Z</time><name>PT9869</name></trkpt>
<trkpt lat="51.822033" lon="03.948988"><ele>0.7</ele><time>2023-12-06T14:27:57Z</time><name>PT9870</name></trkpt>
<trkpt lat="51.822042" lon="03.949005"><ele>0.6</ele><time>2023-12-06T14:27:58Z</time><name>PT9871</name></trkpt>
<trkpt lat="51.822048" lon="03.949018"><ele>0.6</ele><time>2023-12-06T14:28:00Z</time><name>PT9872</name></trkpt>
<trkpt lat="51.822052" lon="03.949028"><ele>0.6</ele><time>2023-12-06T14:28:00Z</time><name>PT9873</name></trkpt>
<trkpt lat="51.822055" lon="03.949037"><ele>0.6</ele><time>2023-12-06T14:28:01Z</time><name>PT9874</name></trkpt>
<trkpt lat="51.822058" lon="03.949047"><ele>0.7</ele><time>2023-12-06T14:28:03Z</time><name>PT9875</name></trkpt>
<trkpt lat="51.822065" lon="03.949061"><ele>0.8</ele><time>2023-12-06T14:28:03Z</time><name>PT9876</name></trkpt>
<trkpt lat="51.822070" lon="03.949077"><ele>0.7</ele><time>2023-12-06T14:28:04Z</time><name>PT9877</name></trkpt>
<trkpt lat="51.822077" lon="03.949096"><ele>0.7</ele><time>2023-12-06T14:28:06Z</time><name>PT9878</name></trkpt>
<trkpt lat="51.822086" lon="03.949116"><ele>0.7</ele><time>2023-12-06T14:28:06Z</time><name>PT9879</name></trkpt>
<trkpt lat="51.822093" lon="03.949133"><ele>0.6</ele><time>2023-12-06T14:28:07Z</time><name>PT9880</name></trkpt>
<trkpt lat="51.822098" lon="03.949144"><ele>0.5</ele><time>2023-12-06T14:28:09Z</time><name>PT9881</name></trkpt>
<trkpt lat="51.822101" lon="03.949154"><ele>0.6</ele><time>2023-12-06T14:28:09Z</time><name>PT9882</name></trkpt>
<trkpt lat="51.822100" lon="03.949154"><ele>0.6</ele><time>2023-12-06T14:28:10Z</time><name>PT9883</name></trkpt>
<trkpt lat="51.822100" lon="03.949152"><ele>0.5</ele><time>2023-12-06T14:28:12Z</time><name>PT9884</name></trkpt>
<trkpt lat="51.822100" lon="03.949151"><ele>0.5</ele><time>2023-12-06T14:28:12Z</time><name>PT9885</name></trkpt>
<trkpt lat="51.822101" lon="03.949151"><ele>0.5</ele><time>2023-12-06T14:28:13Z</time><name>PT9886</name></trkpt>
<trkpt lat="51.822102" lon="03.949152"><ele>0.6</ele><time>2023-12-06T14:28:15Z</time><name>PT9887</name></trkpt>
<trkpt lat="51.822105" lon="03.949163"><ele>0.5</ele><time>2023-12-06T14:28:21Z</time><name>PT9888</name></trkpt>
<trkpt lat="51.822108" lon="03.949180"><ele>0.4</ele><time>2023-12-06T14:28:21Z</time><name>PT9889</name></trkpt>
<trkpt lat="51.822115" lon="03.949199"><ele>0.4</ele><time>2023-12-06T14:28:22Z</time><name>PT9890</name></trkpt>
<trkpt lat="51.822124" lon="03.949215"><ele>0.7</ele><time>2023-12-06T14:28:24Z</time><name>PT9891</name></trkpt>
<trkpt lat="51.822130" lon="03.949230"><ele>0.7</ele><time>2023-12-06T14:28:24Z</time><name>PT9892</name></trkpt>
<trkpt lat="51.822133" lon="03.949241"><ele>0.7</ele><time>2023-12-06T14:28:25Z</time><name>PT9893</name></trkpt>
<trkpt lat="51.822137" lon="03.949251"><ele>0.7</ele><time>2023-12-06T14:28:27Z</time><name>PT9894</name></trkpt>
<trkpt lat="51.822140" lon="03.949264"><ele>0.7</ele><time>2023-12-06T14:28:27Z</time><name>PT9895</name></trkpt>
<trkpt lat="51.822145" lon="03.949281"><ele>0.7</ele><time>2023-12-06T14:28:28Z</time><name>PT9896</name></trkpt>
<trkpt lat="51.822152" lon="03.949293"><ele>0.7</ele><time>2023-12-06T14:28:30Z</time><name>PT9897</name></trkpt>
<trkpt lat="51.822158" lon="03.949301"><ele>0.7</ele><time>2023-12-06T14:28:30Z</time><name>PT9898</name></trkpt>
<trkpt lat="51.822159" lon="03.949304"><ele>0.9</ele><time>2023-12-06T14:28:31Z</time><name>PT9899</name></trkpt>
<trkpt lat="51.822160" lon="03.949304"><ele>0.8</ele><time>2023-12-06T14:28:33Z</time><name>PT9900</name></trkpt>
<trkpt lat="51.822163" lon="03.949302"><ele>0.8</ele><time>2023-12-06T14:28:33Z</time><name>PT9901</name></trkpt>
<trkpt lat="51.822166" lon="03.949301"><ele>0.9</ele><time>2023-12-06T14:28:34Z</time><name>PT9902</name></trkpt>
<trkpt lat="51.822167" lon="03.949303"><ele>0.6</ele><time>2023-12-06T14:28:45Z</time><name>PT9903</name></trkpt>
<trkpt lat="51.822174" lon="03.949316"><ele>0.6</ele><time>2023-12-06T14:28:45Z</time><name>PT9904</name></trkpt>
<trkpt lat="51.822179" lon="03.949329"><ele>0.5</ele><time>2023-12-06T14:28:46Z</time><name>PT9905</name></trkpt>
<trkpt lat="51.822184" lon="03.949339"><ele>0.6</ele><time>2023-12-06T14:28:48Z</time><name>PT9906</name></trkpt>
<trkpt lat="51.822187" lon="03.949348"><ele>0.6</ele><time>2023-12-06T14:28:48Z</time><name>PT9907</name></trkpt>
<trkpt lat="51.822191" lon="03.949356"><ele>0.4</ele><time>2023-12-06T14:28:49Z</time><name>PT9908</name></trkpt>
<trkpt lat="51.822197" lon="03.949366"><ele>0.4</ele><time>2023-12-06T14:28:51Z</time><name>PT9909</name></trkpt>
<trkpt lat="51.822203" lon="03.949377"><ele>0.5</ele><time>2023-12-06T14:28:51Z</time><name>PT9910</name></trkpt>
<trkpt lat="51.822206" lon="03.949389"><ele>0.6</ele><time>2023-12-06T14:28:52Z</time><name>PT9911</name></trkpt>
<trkpt lat="51.822209" lon="03.949400"><ele>0.7</ele><time>2023-12-06T14:28:54Z</time><name>PT9912</name></trkpt>
<trkpt lat="51.822216" lon="03.949413"><ele>0.7</ele><time>2023-12-06T14:28:54Z</time><name>PT9913</name></trkpt>
<trkpt lat="51.822219" lon="03.949423"><ele>0.7</ele><time>2023-12-06T14:28:55Z</time><name>PT9914</name></trkpt>
<trkpt lat="51.822221" lon="03.949426"><ele>0.5</ele><time>2023-12-06T14:28:57Z</time><name>PT9915</name></trkpt>
<trkpt lat="51.822226" lon="03.949433"><ele>0.3</ele><time>2023-12-06T14:28:57Z</time><name>PT9916</name></trkpt>
<trkpt lat="51.822232" lon="03.949440"><ele>0.2</ele><time>2023-12-06T14:28:58Z</time><name>PT9917</name></trkpt>
<trkpt lat="51.822234" lon="03.949449"><ele>0.5</ele><time>2023-12-06T14:29:00Z</time><name>PT9918</name></trkpt>
<trkpt lat="51.822238" lon="03.949460"><ele>0.5</ele><time>2023-12-06T14:29:00Z</time><name>PT9919</name></trkpt>
<trkpt lat="51.822242" lon="03.949468"><ele>0.4</ele><time>2023-12-06T14:29:01Z</time><name>PT9920</name></trkpt>
<trkpt lat="51.822245" lon="03.949476"><ele>0.6</ele><time>2023-12-06T14:29:03Z</time><name>PT9921</name></trkpt>
<trkpt lat="51.822249" lon="03.949486"><ele>0.7</ele><time>2023-12-06T14:29:03Z</time><name>PT9922</name></trkpt>
<trkpt lat="51.822253" lon="03.949491"><ele>0.6</ele><time>2023-12-06T14:29:04Z</time><name>PT9923</name></trkpt>
<trkpt lat="51.822254" lon="03.949492"><ele>0.4</ele><time>2023-12-06T14:29:06Z</time><name>PT9924</name></trkpt>
<trkpt lat="51.822254" lon="03.949492"><ele>0.5</ele><time>2023-12-06T14:29:06Z</time><name>PT9925</name></trkpt>
<trkpt lat="51.822255" lon="03.949492"><ele>0.4</ele><time>2023-12-06T14:29:07Z</time><name>PT9926</name></trkpt>
<trkpt lat="51.822258" lon="03.949499"><ele>0.7</ele><time>2023-12-06T14:29:16Z</time><name>PT9927</name></trkpt>
<trkpt lat="51.822265" lon="03.949516"><ele>0.7</ele><time>2023-12-06T14:29:18Z</time><name>PT9928</name></trkpt>
<trkpt lat="51.822271" lon="03.949528"><ele>0.7</ele><time>2023-12-06T14:29:18Z</time><name>PT9929</name></trkpt>
<trkpt lat="51.822275" lon="03.949534"><ele>0.7</ele><time>2023-12-06T14:29:19Z</time><name>PT9930</name></trkpt>
<trkpt lat="51.822278" lon="03.949544"><ele>0.6</ele><time>2023-12-06T14:29:21Z</time><name>PT9931</name></trkpt>
<trkpt lat="51.822282" lon="03.949557"><ele>0.7</ele><time>2023-12-06T14:29:21Z</time><name>PT9932</name></trkpt>
<trkpt lat="51.822287" lon="03.949573"><ele>0.6</ele><time>2023-12-06T14:29:22Z</time><name>PT9933</name></trkpt>
<trkpt lat="51.822294" lon="03.949589"><ele>0.6</ele><time>2023-12-06T14:29:24Z</time><name>PT9934</name></trkpt>
<trkpt lat="51.822302" lon="03.949607"><ele>0.5</ele><time>2023-12-06T14:29:24Z</time><name>PT9935</name></trkpt>
<trkpt lat="51.822310" lon="03.949626"><ele>0.6</ele><time>2023-12-06T14:29:25Z</time><name>PT9936</name></trkpt>
<trkpt lat="51.822316" lon="03.949640"><ele>0.5</ele><time>2023-12-06T14:29:27Z</time><name>PT9937</name></trkpt>
<trkpt lat="51.822321" lon="03.949651"><ele>0.6</ele><time>2023-12-06T14:29:27Z</time><name>PT9938</name></trkpt>
<trkpt lat="51.822325" lon="03.949661"><ele>0.6</ele><time>2023-12-06T14:29:28Z</time><name>PT9939</name></trkpt>
<trkpt lat="51.822332" lon="03.949672"><ele>0.7</ele><time>2023-12-06T14:29:30Z</time><name>PT9940</name></trkpt>
<trkpt lat="51.822338" lon="03.949681"><ele>0.7</ele><time>2023-12-06T14:29:30Z</time><name>PT9941</name></trkpt>
<trkpt lat="51.822343" lon="03.949692"><ele>0.8</ele><time>2023-12-06T14:29:31Z</time><name>PT9942</name></trkpt>
<trkpt lat="51.822349" lon="03.949706"><ele>0.7</ele><time>2023-12-06T14:29:33Z</time><name>PT9943</name></trkpt>
<trkpt lat="51.822360" lon="03.949734"><ele>0.8</ele><time>2023-12-06T14:29:33Z</time><name>PT9944</name></trkpt>
<trkpt lat="51.822369" lon="03.949748"><ele>0.8</ele><time>2023-12-06T14:29:34Z</time><name>PT9945</name></trkpt>
<trkpt lat="51.822376" lon="03.949760"><ele>1</ele><time>2023-12-06T14:29:36Z</time><name>PT9946</name></trkpt>
<trkpt lat="51.822382" lon="03.949768"><ele>0.8</ele><time>2023-12-06T14:29:36Z</time><name>PT9947</name></trkpt>
<trkpt lat="51.822387" lon="03.949775"><ele>0.8</ele><time>2023-12-06T14:29:37Z</time><name>PT9948</name></trkpt>
<trkpt lat="51.822393" lon="03.949783"><ele>0.7</ele><time>2023-12-06T14:29:39Z</time><name>PT9949</name></trkpt>
<trkpt lat="51.822397" lon="03.949795"><ele>0.7</ele><time>2023-12-06T14:29:39Z</time><name>PT9950</name></trkpt>
<trkpt lat="51.822402" lon="03.949806"><ele>0.5</ele><time>2023-12-06T14:29:40Z</time><name>PT9951</name></trkpt>
<trkpt lat="51.822411" lon="03.949824"><ele>0.6</ele><time>2023-12-06T14:29:42Z</time><name>PT9952</name></trkpt>
<trkpt lat="51.822420" lon="03.949844"><ele>0.5</ele><time>2023-12-06T14:29:42Z</time><name>PT9953</name></trkpt>
<trkpt lat="51.822430" lon="03.949863"><ele>0.5</ele><time>2023-12-06T14:29:43Z</time><name>PT9954</name></trkpt>
<trkpt lat="51.822441" lon="03.949878"><ele>0.6</ele><time>2023-12-06T14:29:45Z</time><name>PT9955</name></trkpt>
<trkpt lat="51.822449" lon="03.949891"><ele>0.6</ele><time>2023-12-06T14:29:45Z</time><name>PT9956</name></trkpt>
<trkpt lat="51.822455" lon="03.949901"><ele>0.5</ele><time>2023-12-06T14:29:46Z</time><name>PT9957</name></trkpt>
<trkpt lat="51.822461" lon="03.949913"><ele>0.5</ele><time>2023-12-06T14:29:48Z</time><name>PT9958</name></trkpt>
<trkpt lat="51.822466" lon="03.949927"><ele>0.5</ele><time>2023-12-06T14:29:48Z</time><name>PT9959</name></trkpt>
<trkpt lat="51.822466" lon="03.949940"><ele>0.7</ele><time>2023-12-06T14:29:49Z</time><name>PT9960</name></trkpt>
<trkpt lat="51.822470" lon="03.949955"><ele>0.7</ele><time>2023-12-06T14:29:51Z</time><name>PT9961</name></trkpt>
<trkpt lat="51.822479" lon="03.949976"><ele>0.7</ele><time>2023-12-06T14:29:51Z</time><name>PT9962</name></trkpt>
<trkpt lat="51.822491" lon="03.949996"><ele>0.8</ele><time>2023-12-06T14:29:52Z</time><name>PT9963</name></trkpt>
<trkpt lat="51.822499" lon="03.950015"><ele>0.7</ele><time>2023-12-06T14:29:54Z</time><name>PT9964</name></trkpt>
<trkpt lat="51.822507" lon="03.950028"><ele>0.7</ele><time>2023-12-06T14:29:54Z</time><name>PT9965</name></trkpt>
<trkpt lat="51.822514" lon="03.950039"><ele>0.6</ele><time>2023-12-06T14:29:55Z</time><name>PT9966</name></trkpt>
<trkpt lat="51.822520" lon="03.950051"><ele>0.4</ele><time>2023-12-06T14:29:57Z</time><name>PT9967</name></trkpt>
<trkpt lat="51.822526" lon="03.950065"><ele>0.3</ele><time>2023-12-06T14:29:57Z</time><name>PT9968</name></trkpt>
<trkpt lat="51.822531" lon="03.950078"><ele>0.4</ele><time>2023-12-06T14:29:58Z</time><name>PT9969</name></trkpt>
<trkpt lat="51.822538" lon="03.950094"><ele>0.5</ele><time>2023-12-06T14:30:00Z</time><name>PT9970</name></trkpt>
<trkpt lat="51.822546" lon="03.950119"><ele>0.7</ele><time>2023-12-06T14:30:00Z</time><name>PT9971</name></trkpt>
<trkpt lat="51.822554" lon="03.950138"><ele>0.7</ele><time>2023-12-06T14:30:01Z</time><name>PT9972</name></trkpt>
<trkpt lat="51.822561" lon="03.950147"><ele>0.7</ele><time>2023-12-06T14:30:03Z</time><name>PT9973</name></trkpt>
<trkpt lat="51.822567" lon="03.950151"><ele>0.7</ele><time>2023-12-06T14:30:03Z</time><name>PT9974</name></trkpt>
<trkpt lat="51.822574" lon="03.950157"><ele>0.7</ele><time>2023-12-06T14:30:04Z</time><name>PT9975</name></trkpt>
<trkpt lat="51.822579" lon="03.950170"><ele>0.5</ele><time>2023-12-06T14:30:06Z</time><name>PT9976</name></trkpt>
<trkpt lat="51.822586" lon="03.950184"><ele>0.4</ele><time>2023-12-06T14:30:06Z</time><name>PT9977</name></trkpt>
<trkpt lat="51.822593" lon="03.950202"><ele>0.6</ele><time>2023-12-06T14:30:07Z</time><name>PT9978</name></trkpt>
<trkpt lat="51.822601" lon="03.950223"><ele>0.6</ele><time>2023-12-06T14:30:09Z</time><name>PT9979</name></trkpt>
<trkpt lat="51.822607" lon="03.950236"><ele>0.5</ele><time>2023-12-06T14:30:09Z</time><name>PT9980</name></trkpt>
<trkpt lat="51.822613" lon="03.950244"><ele>0.6</ele><time>2023-12-06T14:30:10Z</time><name>PT9981</name></trkpt>
<trkpt lat="51.822617" lon="03.950252"><ele>0.7</ele><time>2023-12-06T14:30:12Z</time><name>PT9982</name></trkpt>
<trkpt lat="51.822623" lon="03.950263"><ele>0.7</ele><time>2023-12-06T14:30:12Z</time><name>PT9983</name></trkpt>
<trkpt lat="51.822628" lon="03.950276"><ele>0.7</ele><time>2023-12-06T14:30:13Z</time><name>PT9984</name></trkpt>
<trkpt lat="51.822635" lon="03.950292"><ele>0.7</ele><time>2023-12-06T14:30:15Z</time><name>PT9985</name></trkpt>
<trkpt lat="51.822646" lon="03.950308"><ele>0.7</ele><time>2023-12-06T14:30:15Z</time><name>PT9986</name></trkpt>
<trkpt lat="51.822656" lon="03.950322"><ele>0.7</ele><time>2023-12-06T14:30:17Z</time><name>PT9987</name></trkpt>
<trkpt lat="51.822662" lon="03.950332"><ele>0.7</ele><time>2023-12-06T14:30:18Z</time><name>PT9988</name></trkpt>
<trkpt lat="51.822668" lon="03.950341"><ele>0.7</ele><time>2023-12-06T14:30:18Z</time><name>PT9989</name></trkpt>
<trkpt lat="51.822675" lon="03.950351"><ele>0.7</ele><time>2023-12-06T14:30:19Z</time><name>PT9990</name></trkpt>
<trkpt lat="51.822682" lon="03.950365"><ele>0.5</ele><time>2023-12-06T14:30:21Z</time><name>PT9991</name></trkpt>
<trkpt lat="51.822689" lon="03.950379"><ele>0.5</ele><time>2023-12-06T14:30:21Z</time><name>PT9992</name></trkpt>
<trkpt lat="51.822694" lon="03.950396"><ele>0.6</ele><time>2023-12-06T14:30:22Z</time><name>PT9993</name></trkpt>
<trkpt lat="51.822701" lon="03.950414"><ele>0.6</ele><time>2023-12-06T14:30:24Z</time><name>PT9994</name></trkpt>
<trkpt lat="51.822708" lon="03.950433"><ele>0.7</ele><time>2023-12-06T14:30:24Z</time><name>PT9995</name></trkpt>
<trkpt lat="51.822715" lon="03.950445"><ele>0.7</ele><time>2023-12-06T14:30:25Z</time><name>PT9996</name></trkpt>
<trkpt lat="51.822723" lon="03.950456"><ele>0.6</ele><time>2023-12-06T14:30:27Z</time><name>PT9997</name></trkpt>
<trkpt lat="51.822732" lon="03.950465"><ele>0.6</ele><time>2023-12-06T14:30:27Z</time><name>PT9998</name></trkpt>
<trkpt lat="51.822738" lon="03.950479"><ele>0.7</ele><time>2023-12-06T14:30:28Z</time><name>PT9999</name></trkpt>
<trkpt lat="51.822743" lon="03.950493"><ele>0.6</ele><time>2023-12-06T14:30:30Z</time><name>PT10000</name></trkpt>
<trkpt lat="51.822748" lon="03.950505"><ele>0.7</ele><time>2023-12-06T14:30:30Z</time><name>PT10001</name></trkpt>
<trkpt lat="51.822756" lon="03.950521"><ele>0.8</ele><time>2023-12-06T14:30:31Z</time><name>PT10002</name></trkpt>
<trkpt lat="51.822763" lon="03.950538"><ele>0.6</ele><time>2023-12-06T14:30:33Z</time><name>PT10003</name></trkpt>
<trkpt lat="51.822770" lon="03.950551"><ele>0.7</ele><time>2023-12-06T14:30:33Z</time><name>PT10004</name></trkpt>
<trkpt lat="51.822776" lon="03.950565"><ele>0.6</ele><time>2023-12-06T14:30:34Z</time><name>PT10005</name></trkpt>
<trkpt lat="51.822781" lon="03.950578"><ele>0.5</ele><time>2023-12-06T14:30:36Z</time><name>PT10006</name></trkpt>
<trkpt lat="51.822783" lon="03.950589"><ele>0.4</ele><time>2023-12-06T14:30:36Z</time><name>PT10007</name></trkpt>
<trkpt lat="51.822786" lon="03.950600"><ele>0.4</ele><time>2023-12-06T14:30:37Z</time><name>PT10008</name></trkpt>
<trkpt lat="51.822790" lon="03.950614"><ele>0.4</ele><time>2023-12-06T14:30:39Z</time><name>PT10009</name></trkpt>
<trkpt lat="51.822796" lon="03.950633"><ele>0.5</ele><time>2023-12-06T14:30:39Z</time><name>PT10010</name></trkpt>
<trkpt lat="51.822803" lon="03.950653"><ele>0.6</ele><time>2023-12-06T14:30:40Z</time><name>PT10011</name></trkpt>
<trkpt lat="51.822811" lon="03.950671"><ele>0.7</ele><time>2023-12-06T14:30:42Z</time><name>PT10012</name></trkpt>
<trkpt lat="51.822818" lon="03.950682"><ele>0.8</ele><time>2023-12-06T14:30:42Z</time><name>PT10013</name></trkpt>
<trkpt lat="51.822824" lon="03.950691"><ele>1</ele><time>2023-12-06T14:30:43Z</time><name>PT10014</name></trkpt>
<trkpt lat="51.822830" lon="03.950704"><ele>0.8</ele><time>2023-12-06T14:30:45Z</time><name>PT10015</name></trkpt>
<trkpt lat="51.822836" lon="03.950718"><ele>0.8</ele><time>2023-12-06T14:30:45Z</time><name>PT10016</name></trkpt>
<trkpt lat="51.822842" lon="03.950734"><ele>0.7</ele><time>2023-12-06T14:30:46Z</time><name>PT10017</name></trkpt>
<trkpt lat="51.822849" lon="03.950749"><ele>0.4</ele><time>2023-12-06T14:30:48Z</time><name>PT10018</name></trkpt>
<trkpt lat="51.822857" lon="03.950763"><ele>0.4</ele><time>2023-12-06T14:30:48Z</time><name>PT10019</name></trkpt>
<trkpt lat="51.822864" lon="03.950779"><ele>0.3</ele><time>2023-12-06T14:30:49Z</time><name>PT10020</name></trkpt>
<trkpt lat="51.822875" lon="03.950793"><ele>0.2</ele><time>2023-12-06T14:30:51Z</time><name>PT10021</name></trkpt>
<trkpt lat="51.822883" lon="03.950809"><ele>0.3</ele><time>2023-12-06T14:30:51Z</time><name>PT10022</name></trkpt>
<trkpt lat="51.822890" lon="03.950822"><ele>0.5</ele><time>2023-12-06T14:30:52Z</time><name>PT10023</name></trkpt>
<trkpt lat="51.822896" lon="03.950834"><ele>0.6</ele><time>2023-12-06T14:30:54Z</time><name>PT10024</name></trkpt>
<trkpt lat="51.822903" lon="03.950847"><ele>0.7</ele><time>2023-12-06T14:30:54Z</time><name>PT10025</name></trkpt>
<trkpt lat="51.822909" lon="03.950860"><ele>0.7</ele><time>2023-12-06T14:30:55Z</time><name>PT10026</name></trkpt>
<trkpt lat="51.822915" lon="03.950873"><ele>0.6</ele><time>2023-12-06T14:30:57Z</time><name>PT10027</name></trkpt>
<trkpt lat="51.822924" lon="03.950894"><ele>0.5</ele><time>2023-12-06T14:30:57Z</time><name>PT10028</name></trkpt>
<trkpt lat="51.822931" lon="03.950915"><ele>0.6</ele><time>2023-12-06T14:30:58Z</time><name>PT10029</name></trkpt>
<trkpt lat="51.822935" lon="03.950927"><ele>0.5</ele><time>2023-12-06T14:31:00Z</time><name>PT10030</name></trkpt>
<trkpt lat="51.822941" lon="03.950940"><ele>0.6</ele><time>2023-12-06T14:31:00Z</time><name>PT10031</name></trkpt>
<trkpt lat="51.822947" lon="03.950954"><ele>0.5</ele><time>2023-12-06T14:31:01Z</time><name>PT10032</name></trkpt>
<trkpt lat="51.822952" lon="03.950964"><ele>0.5</ele><time>2023-12-06T14:31:03Z</time><name>PT10033</name></trkpt>
<trkpt lat="51.822957" lon="03.950976"><ele>0.6</ele><time>2023-12-06T14:31:03Z</time><name>PT10034</name></trkpt>
<trkpt lat="51.822961" lon="03.950989"><ele>0.6</ele><time>2023-12-06T14:31:04Z</time><name>PT10035</name></trkpt>
<trkpt lat="51.822965" lon="03.950998"><ele>0.6</ele><time>2023-12-06T14:31:06Z</time><name>PT10036</name></trkpt>
<trkpt lat="51.822967" lon="03.951012"><ele>0.7</ele><time>2023-12-06T14:31:06Z</time><name>PT10037</name></trkpt>
<trkpt lat="51.822972" lon="03.951024"><ele>0.7</ele><time>2023-12-06T14:31:07Z</time><name>PT10038</name></trkpt>
<trkpt lat="51.822977" lon="03.951037"><ele>0.6</ele><time>2023-12-06T14:31:09Z</time><name>PT10039</name></trkpt>
<trkpt lat="51.822984" lon="03.951057"><ele>0.5</ele><time>2023-12-06T14:31:09Z</time><name>PT10040</name></trkpt>
<trkpt lat="51.822993" lon="03.951073"><ele>0.5</ele><time>2023-12-06T14:31:10Z</time><name>PT10041</name></trkpt>
<trkpt lat="51.822999" lon="03.951087"><ele>0.4</ele><time>2023-12-06T14:31:12Z</time><name>PT10042</name></trkpt>
<trkpt lat="51.823006" lon="03.951099"><ele>0.2</ele><time>2023-12-06T14:31:12Z</time><name>PT10043</name></trkpt>
<trkpt lat="51.823012" lon="03.951109"><ele>0.3</ele><time>2023-12-06T14:31:14Z</time><name>PT10044</name></trkpt>
<trkpt lat="51.823018" lon="03.951118"><ele>0.3</ele><time>2023-12-06T14:31:15Z</time><name>PT10045</name></trkpt>
<trkpt lat="51.823022" lon="03.951129"><ele>0.2</ele><time>2023-12-06T14:31:15Z</time><name>PT10046</name></trkpt>
<trkpt lat="51.823028" lon="03.951145"><ele>0.5</ele><time>2023-12-06T14:31:16Z</time><name>PT10047</name></trkpt>
<trkpt lat="51.823036" lon="03.951163"><ele>0.4</ele><time>2023-12-06T14:31:18Z</time><name>PT10048</name></trkpt>
<trkpt lat="51.823046" lon="03.951183"><ele>0.4</ele><time>2023-12-06T14:31:18Z</time><name>PT10049</name></trkpt>
<trkpt lat="51.823051" lon="03.951205"><ele>0.4</ele><time>2023-12-06T14:31:19Z</time><name>PT10050</name></trkpt>
<trkpt lat="51.823059" lon="03.951223"><ele>0.5</ele><time>2023-12-06T14:31:21Z</time><name>PT10051</name></trkpt>
<trkpt lat="51.823069" lon="03.951236"><ele>0.3</ele><time>2023-12-06T14:31:21Z</time><name>PT10052</name></trkpt>
<trkpt lat="51.823077" lon="03.951249"><ele>0.5</ele><time>2023-12-06T14:31:22Z</time><name>PT10053</name></trkpt>
<trkpt lat="51.823081" lon="03.951264"><ele>0.5</ele><time>2023-12-06T14:31:24Z</time><name>PT10054</name></trkpt>
<trkpt lat="51.823086" lon="03.951277"><ele>0.4</ele><time>2023-12-06T14:31:24Z</time><name>PT10055</name></trkpt>
<trkpt lat="51.823092" lon="03.951286"><ele>0.4</ele><time>2023-12-06T14:31:26Z</time><name>PT10056</name></trkpt>
<trkpt lat="51.823098" lon="03.951297"><ele>0.4</ele><time>2023-12-06T14:31:27Z</time><name>PT10057</name></trkpt>
<trkpt lat="51.823105" lon="03.951311"><ele>0.3</ele><time>2023-12-06T14:31:27Z</time><name>PT10058</name></trkpt>
<trkpt lat="51.823115" lon="03.951331"><ele>0.2</ele><time>2023-12-06T14:31:28Z</time><name>PT10059</name></trkpt>
<trkpt lat="51.823126" lon="03.951354"><ele>0.5</ele><time>2023-12-06T14:31:30Z</time><name>PT10060</name></trkpt>
<trkpt lat="51.823133" lon="03.951374"><ele>0.4</ele><time>2023-12-06T14:31:30Z</time><name>PT10061</name></trkpt>
<trkpt lat="51.823139" lon="03.951387"><ele>0.6</ele><time>2023-12-06T14:31:31Z</time><name>PT10062</name></trkpt>
<trkpt lat="51.823145" lon="03.951395"><ele>0.6</ele><time>2023-12-06T14:31:33Z</time><name>PT10063</name></trkpt>
<trkpt lat="51.823150" lon="03.951407"><ele>0.7</ele><time>2023-12-06T14:31:33Z</time><name>PT10064</name></trkpt>
<trkpt lat="51.823154" lon="03.951419"><ele>0.6</ele><time>2023-12-06T14:31:34Z</time><name>PT10065</name></trkpt>
<trkpt lat="51.823159" lon="03.951436"><ele>0.4</ele><time>2023-12-06T14:31:36Z</time><name>PT10066</name></trkpt>
<trkpt lat="51.823164" lon="03.951454"><ele>0.5</ele><time>2023-12-06T14:31:36Z</time><name>PT10067</name></trkpt>
<trkpt lat="51.823170" lon="03.951474"><ele>0.5</ele><time>2023-12-06T14:31:37Z</time><name>PT10068</name></trkpt>
<trkpt lat="51.823177" lon="03.951496"><ele>0.3</ele><time>2023-12-06T14:31:39Z</time><name>PT10069</name></trkpt>
<trkpt lat="51.823187" lon="03.951518"><ele>0.4</ele><time>2023-12-06T14:31:39Z</time><name>PT10070</name></trkpt>
<trkpt lat="51.823195" lon="03.951537"><ele>0.5</ele><time>2023-12-06T14:31:40Z</time><name>PT10071</name></trkpt>
<trkpt lat="51.823202" lon="03.951551"><ele>0.6</ele><time>2023-12-06T14:31:42Z</time><name>PT10072</name></trkpt>
<trkpt lat="51.823206" lon="03.951561"><ele>0.5</ele><time>2023-12-06T14:31:42Z</time><name>PT10073</name></trkpt>
<trkpt lat="51.823211" lon="03.951570"><ele>0.7</ele><time>2023-12-06T14:31:43Z</time><name>PT10074</name></trkpt>
<trkpt lat="51.823219" lon="03.951576"><ele>0.8</ele><time>2023-12-06T14:31:45Z</time><name>PT10075</name></trkpt>
<trkpt lat="51.823226" lon="03.951589"><ele>0.8</ele><time>2023-12-06T14:31:45Z</time><name>PT10076</name></trkpt>
<trkpt lat="51.823233" lon="03.951600"><ele>0.7</ele><time>2023-12-06T14:31:46Z</time><name>PT10077</name></trkpt>
<trkpt lat="51.823242" lon="03.951616"><ele>0.8</ele><time>2023-12-06T14:31:48Z</time><name>PT10078</name></trkpt>
<trkpt lat="51.823252" lon="03.951634"><ele>0.7</ele><time>2023-12-06T14:31:48Z</time><name>PT10079</name></trkpt>
<trkpt lat="51.823254" lon="03.951653"><ele>0.6</ele><time>2023-12-06T14:31:49Z</time><name>PT10080</name></trkpt>
<trkpt lat="51.823261" lon="03.951671"><ele>0.7</ele><time>2023-12-06T14:31:51Z</time><name>PT10081</name></trkpt>
<trkpt lat="51.823269" lon="03.951686"><ele>0.7</ele><time>2023-12-06T14:31:51Z</time><name>PT10082</name></trkpt>
<trkpt lat="51.823280" lon="03.951698"><ele>0.7</ele><time>2023-12-06T14:31:52Z</time><name>PT10083</name></trkpt>
<trkpt lat="51.823288" lon="03.951707"><ele>0.9</ele><time>2023-12-06T14:31:54Z</time><name>PT10084</name></trkpt>
<trkpt lat="51.823295" lon="03.951721"><ele>1</ele><time>2023-12-06T14:31:54Z</time><name>PT10085</name></trkpt>
<trkpt lat="51.823302" lon="03.951730"><ele>0.9</ele><time>2023-12-06T14:31:55Z</time><name>PT10086</name></trkpt>
<trkpt lat="51.823310" lon="03.951740"><ele>0.8</ele><time>2023-12-06T14:31:57Z</time><name>PT10087</name></trkpt>
<trkpt lat="51.823319" lon="03.951750"><ele>0.9</ele><time>2023-12-06T14:31:57Z</time><name>PT10088</name></trkpt>
<trkpt lat="51.823326" lon="03.951761"><ele>1</ele><time>2023-12-06T14:31:58Z</time><name>PT10089</name></trkpt>
<trkpt lat="51.823334" lon="03.951774"><ele>0.7</ele><time>2023-12-06T14:32:00Z</time><name>PT10090</name></trkpt>
<trkpt lat="51.823344" lon="03.951788"><ele>0.8</ele><time>2023-12-06T14:32:00Z</time><name>PT10091</name></trkpt>
<trkpt lat="51.823353" lon="03.951802"><ele>0.9</ele><time>2023-12-06T14:32:01Z</time><name>PT10092</name></trkpt>
<trkpt lat="51.823362" lon="03.951814"><ele>0.9</ele><time>2023-12-06T14:32:03Z</time><name>PT10093</name></trkpt>
<trkpt lat="51.823371" lon="03.951824"><ele>0.9</ele><time>2023-12-06T14:32:03Z</time><name>PT10094</name></trkpt>
<trkpt lat="51.823375" lon="03.951823"><ele>0.8</ele><time>2023-12-06T14:32:04Z</time><name>PT10095</name></trkpt>
<trkpt lat="51.823381" lon="03.951825"><ele>0.7</ele><time>2023-12-06T14:32:06Z</time><name>PT10096</name></trkpt>
<trkpt lat="51.823386" lon="03.951833"><ele>0.7</ele><time>2023-12-06T14:32:06Z</time><name>PT10097</name></trkpt>
<trkpt lat="51.823393" lon="03.951849"><ele>0.6</ele><time>2023-12-06T14:32:07Z</time><name>PT10098</name></trkpt>
<trkpt lat="51.823406" lon="03.951862"><ele>0.5</ele><time>2023-12-06T14:32:09Z</time><name>PT10099</name></trkpt>
<trkpt lat="51.823416" lon="03.951873"><ele>0.4</ele><time>2023-12-06T14:32:09Z</time><name>PT10100</name></trkpt>
<trkpt lat="51.823425" lon="03.951888"><ele>0.6</ele><time>2023-12-06T14:32:10Z</time><name>PT10101</name></trkpt>
<trkpt lat="51.823432" lon="03.951902"><ele>0.6</ele><time>2023-12-06T14:32:12Z</time><name>PT10102</name></trkpt>
<trkpt lat="51.823439" lon="03.951916"><ele>0.6</ele><time>2023-12-06T14:32:12Z</time><name>PT10103</name></trkpt>
<trkpt lat="51.823450" lon="03.951932"><ele>0.7</ele><time>2023-12-06T14:32:13Z</time><name>PT10104</name></trkpt>
<trkpt lat="51.823460" lon="03.951946"><ele>1.1</ele><time>2023-12-06T14:32:15Z</time><name>PT10105</name></trkpt>
<trkpt lat="51.823468" lon="03.951958"><ele>1</ele><time>2023-12-06T14:32:15Z</time><name>PT10106</name></trkpt>
<trkpt lat="51.823475" lon="03.951970"><ele>1</ele><time>2023-12-06T14:32:16Z</time><name>PT10107</name></trkpt>
<trkpt lat="51.823480" lon="03.951983"><ele>1.2</ele><time>2023-12-06T14:32:18Z</time><name>PT10108</name></trkpt>
<trkpt lat="51.823489" lon="03.951998"><ele>1.1</ele><time>2023-12-06T14:32:18Z</time><name>PT10109</name></trkpt>
<trkpt lat="51.823497" lon="03.952015"><ele>1</ele><time>2023-12-06T14:32:19Z</time><name>PT10110</name></trkpt>
<trkpt lat="51.823508" lon="03.952032"><ele>0.9</ele><time>2023-12-06T14:32:21Z</time><name>PT10111</name></trkpt>
<trkpt lat="51.823518" lon="03.952051"><ele>1</ele><time>2023-12-06T14:32:21Z</time><name>PT10112</name></trkpt>
<trkpt lat="51.823529" lon="03.952063"><ele>0.8</ele><time>2023-12-06T14:32:22Z</time><name>PT10113</name></trkpt>
<trkpt lat="51.823538" lon="03.952075"><ele>0.9</ele><time>2023-12-06T14:32:24Z</time><name>PT10114</name></trkpt>
<trkpt lat="51.823546" lon="03.952085"><ele>0.7</ele><time>2023-12-06T14:32:24Z</time><name>PT10115</name></trkpt>
<trkpt lat="51.823551" lon="03.952100"><ele>0.8</ele><time>2023-12-06T14:32:25Z</time><name>PT10116</name></trkpt>
<trkpt lat="51.823557" lon="03.952111"><ele>0.9</ele><time>2023-12-06T14:32:27Z</time><name>PT10117</name></trkpt>
<trkpt lat="51.823564" lon="03.952124"><ele>0.8</ele><time>2023-12-06T14:32:27Z</time><name>PT10118</name></trkpt>
<trkpt lat="51.823570" lon="03.952141"><ele>0.7</ele><time>2023-12-06T14:32:28Z</time><name>PT10119</name></trkpt>
<trkpt lat="51.823576" lon="03.952154"><ele>0.7</ele><time>2023-12-06T14:32:30Z</time><name>PT10120</name></trkpt>
<trkpt lat="51.823576" lon="03.952167"><ele>0.6</ele><time>2023-12-06T14:32:30Z</time><name>PT10121</name></trkpt>
<trkpt lat="51.823583" lon="03.952180"><ele>0.6</ele><time>2023-12-06T14:32:31Z</time><name>PT10122</name></trkpt>
<trkpt lat="51.823590" lon="03.952195"><ele>0.7</ele><time>2023-12-06T14:32:33Z</time><name>PT10123</name></trkpt>
<trkpt lat="51.823597" lon="03.952208"><ele>0.7</ele><time>2023-12-06T14:32:33Z</time><name>PT10124</name></trkpt>
<trkpt lat="51.823606" lon="03.952219"><ele>0.7</ele><time>2023-12-06T14:32:34Z</time><name>PT10125</name></trkpt>
<trkpt lat="51.823614" lon="03.952231"><ele>0.7</ele><time>2023-12-06T14:32:36Z</time><name>PT10126</name></trkpt>
<trkpt lat="51.823621" lon="03.952239"><ele>0.7</ele><time>2023-12-06T14:32:36Z</time><name>PT10127</name></trkpt>
<trkpt lat="51.823626" lon="03.952250"><ele>0.7</ele><time>2023-12-06T14:32:37Z</time><name>PT10128</name></trkpt>
<trkpt lat="51.823632" lon="03.952260"><ele>0.6</ele><time>2023-12-06T14:32:39Z</time><name>PT10129</name></trkpt>
<trkpt lat="51.823635" lon="03.952273"><ele>0.7</ele><time>2023-12-06T14:32:39Z</time><name>PT10130</name></trkpt>
<trkpt lat="51.823642" lon="03.952287"><ele>0.7</ele><time>2023-12-06T14:32:40Z</time><name>PT10131</name></trkpt>
<trkpt lat="51.823645" lon="03.952309"><ele>0.8</ele><time>2023-12-06T14:32:42Z</time><name>PT10132</name></trkpt>
<trkpt lat="51.823650" lon="03.952325"><ele>0.8</ele><time>2023-12-06T14:32:42Z</time><name>PT10133</name></trkpt>
<trkpt lat="51.823656" lon="03.952337"><ele>0.9</ele><time>2023-12-06T14:32:43Z</time><name>PT10134</name></trkpt>
<trkpt lat="51.823662" lon="03.952353"><ele>0.7</ele><time>2023-12-06T14:32:45Z</time><name>PT10135</name></trkpt>
<trkpt lat="51.823670" lon="03.952369"><ele>0.7</ele><time>2023-12-06T14:32:45Z</time><name>PT10136</name></trkpt>
<trkpt lat="51.823676" lon="03.952384"><ele>0.7</ele><time>2023-12-06T14:32:46Z</time><name>PT10137</name></trkpt>
<trkpt lat="51.823684" lon="03.952397"><ele>0.7</ele><time>2023-12-06T14:32:48Z</time><name>PT10138</name></trkpt>
<trkpt lat="51.823689" lon="03.952409"><ele>0.7</ele><time>2023-12-06T14:32:48Z</time><name>PT10139</name></trkpt>
<trkpt lat="51.823693" lon="03.952424"><ele>0.7</ele><time>2023-12-06T14:32:49Z</time><name>PT10140</name></trkpt>
<trkpt lat="51.823697" lon="03.952439"><ele>0.6</ele><time>2023-12-06T14:32:51Z</time><name>PT10141</name></trkpt>
<trkpt lat="51.823700" lon="03.952453"><ele>0.6</ele><time>2023-12-06T14:32:51Z</time><name>PT10142</name></trkpt>
<trkpt lat="51.823707" lon="03.952467"><ele>0.6</ele><time>2023-12-06T14:32:52Z</time><name>PT10143</name></trkpt>
<trkpt lat="51.823715" lon="03.952480"><ele>0.6</ele><time>2023-12-06T14:32:54Z</time><name>PT10144</name></trkpt>
<trkpt lat="51.823725" lon="03.952489"><ele>0.6</ele><time>2023-12-06T14:32:54Z</time><name>PT10145</name></trkpt>
<trkpt lat="51.823729" lon="03.952496"><ele>0.6</ele><time>2023-12-06T14:32:55Z</time><name>PT10146</name></trkpt>
<trkpt lat="51.823735" lon="03.952511"><ele>0.7</ele><time>2023-12-06T14:32:57Z</time><name>PT10147</name></trkpt>
<trkpt lat="51.823744" lon="03.952529"><ele>0.6</ele><time>2023-12-06T14:32:57Z</time><name>PT10148</name></trkpt>
<trkpt lat="51.823753" lon="03.952544"><ele>0.5</ele><time>2023-12-06T14:32:58Z</time><name>PT10149</name></trkpt>
<trkpt lat="51.823763" lon="03.952558"><ele>0.7</ele><time>2023-12-06T14:33:00Z</time><name>PT10150</name></trkpt>
<trkpt lat="51.823775" lon="03.952570"><ele>0.9</ele><time>2023-12-06T14:33:00Z</time><name>PT10151</name></trkpt>
<trkpt lat="51.823786" lon="03.952579"><ele>0.7</ele><time>2023-12-06T14:33:01Z</time><name>PT10152</name></trkpt>
<trkpt lat="51.823793" lon="03.952584"><ele>0.7</ele><time>2023-12-06T14:33:03Z</time><name>PT10153</name></trkpt>
<trkpt lat="51.823800" lon="03.952597"><ele>0.8</ele><time>2023-12-06T14:33:03Z</time><name>PT10154</name></trkpt>
<trkpt lat="51.823810" lon="03.952615"><ele>0.6</ele><time>2023-12-06T14:33:04Z</time><name>PT10155</name></trkpt>
<trkpt lat="51.823816" lon="03.952626"><ele>0.5</ele><time>2023-12-06T14:33:06Z</time><name>PT10156</name></trkpt>
<trkpt lat="51.823821" lon="03.952643"><ele>0.4</ele><time>2023-12-06T14:33:06Z</time><name>PT10157</name></trkpt>
<trkpt lat="51.823829" lon="03.952664"><ele>0.2</ele><time>2023-12-06T14:33:07Z</time><name>PT10158</name></trkpt>
<trkpt lat="51.823836" lon="03.952679"><ele>0.2</ele><time>2023-12-06T14:33:09Z</time><name>PT10159</name></trkpt>
<trkpt lat="51.823842" lon="03.952691"><ele>0.2</ele><time>2023-12-06T14:33:09Z</time><name>PT10160</name></trkpt>
<trkpt lat="51.823850" lon="03.952704"><ele>0.3</ele><time>2023-12-06T14:33:10Z</time><name>PT10161</name></trkpt>
<trkpt lat="51.823858" lon="03.952717"><ele>0.6</ele><time>2023-12-06T14:33:12Z</time><name>PT10162</name></trkpt>
<trkpt lat="51.823863" lon="03.952737"><ele>0.7</ele><time>2023-12-06T14:33:12Z</time><name>PT10163</name></trkpt>
<trkpt lat="51.823867" lon="03.952754"><ele>0.9</ele><time>2023-12-06T14:33:13Z</time><name>PT10164</name></trkpt>
<trkpt lat="51.823876" lon="03.952769"><ele>0.8</ele><time>2023-12-06T14:33:15Z</time><name>PT10165</name></trkpt>
<trkpt lat="51.823888" lon="03.952784"><ele>0.9</ele><time>2023-12-06T14:33:15Z</time><name>PT10166</name></trkpt>
<trkpt lat="51.823895" lon="03.952796"><ele>0.9</ele><time>2023-12-06T14:33:16Z</time><name>PT10167</name></trkpt>
<trkpt lat="51.823900" lon="03.952805"><ele>0.8</ele><time>2023-12-06T14:33:18Z</time><name>PT10168</name></trkpt>
<trkpt lat="51.823907" lon="03.952814"><ele>0.7</ele><time>2023-12-06T14:33:18Z</time><name>PT10169</name></trkpt>
<trkpt lat="51.823913" lon="03.952827"><ele>0.7</ele><time>2023-12-06T14:33:19Z</time><name>PT10170</name></trkpt>
<trkpt lat="51.823919" lon="03.952843"><ele>0.6</ele><time>2023-12-06T14:33:21Z</time><name>PT10171</name></trkpt>
<trkpt lat="51.823928" lon="03.952860"><ele>0.6</ele><time>2023-12-06T14:33:21Z</time><name>PT10172</name></trkpt>
<trkpt lat="51.823939" lon="03.952878"><ele>0.7</ele><time>2023-12-06T14:33:22Z</time><name>PT10173</name></trkpt>
<trkpt lat="51.823950" lon="03.952889"><ele>0.7</ele><time>2023-12-06T14:33:24Z</time><name>PT10174</name></trkpt>
<trkpt lat="51.823953" lon="03.952905"><ele>0.7</ele><time>2023-12-06T14:33:24Z</time><name>PT10175</name></trkpt>
<trkpt lat="51.823957" lon="03.952919"><ele>0.8</ele><time>2023-12-06T14:33:25Z</time><name>PT10176</name></trkpt>
<trkpt lat="51.823966" lon="03.952935"><ele>0.7</ele><time>2023-12-06T14:33:27Z</time><name>PT10177</name></trkpt>
<trkpt lat="51.823974" lon="03.952953"><ele>0.7</ele><time>2023-12-06T14:33:27Z</time><name>PT10178</name></trkpt>
<trkpt lat="51.823977" lon="03.952969"><ele>0.7</ele><time>2023-12-06T14:33:28Z</time><name>PT10179</name></trkpt>
<trkpt lat="51.823983" lon="03.952988"><ele>0.7</ele><time>2023-12-06T14:33:30Z</time><name>PT10180</name></trkpt>
<trkpt lat="51.823993" lon="03.953010"><ele>0.7</ele><time>2023-12-06T14:33:30Z</time><name>PT10181</name></trkpt>
<trkpt lat="51.823999" lon="03.953028"><ele>0.8</ele><time>2023-12-06T14:33:31Z</time><name>PT10182</name></trkpt>
<trkpt lat="51.824004" lon="03.953041"><ele>1</ele><time>2023-12-06T14:33:33Z</time><name>PT10183</name></trkpt>
<trkpt lat="51.824010" lon="03.953051"><ele>1</ele><time>2023-12-06T14:33:33Z</time><name>PT10184</name></trkpt>
<trkpt lat="51.824017" lon="03.953057"><ele>1.1</ele><time>2023-12-06T14:33:34Z</time><name>PT10185</name></trkpt>
<trkpt lat="51.824023" lon="03.953068"><ele>1</ele><time>2023-12-06T14:33:36Z</time><name>PT10186</name></trkpt>
<trkpt lat="51.824026" lon="03.953085"><ele>0.7</ele><time>2023-12-06T14:33:36Z</time><name>PT10187</name></trkpt>
<trkpt lat="51.824033" lon="03.953103"><ele>0.7</ele><time>2023-12-06T14:33:37Z</time><name>PT10188</name></trkpt>
<trkpt lat="51.824043" lon="03.953122"><ele>0.9</ele><time>2023-12-06T14:33:39Z</time><name>PT10189</name></trkpt>
<trkpt lat="51.824055" lon="03.953140"><ele>0.7</ele><time>2023-12-06T14:33:39Z</time><name>PT10190</name></trkpt>
<trkpt lat="51.824066" lon="03.953156"><ele>0.7</ele><time>2023-12-06T14:33:40Z</time><name>PT10191</name></trkpt>
<trkpt lat="51.824076" lon="03.953167"><ele>0.9</ele><time>2023-12-06T14:33:42Z</time><name>PT10192</name></trkpt>
<trkpt lat="51.824081" lon="03.953177"><ele>0.9</ele><time>2023-12-06T14:33:42Z</time><name>PT10193</name></trkpt>
<trkpt lat="51.824088" lon="03.953187"><ele>0.9</ele><time>2023-12-06T14:33:43Z</time><name>PT10194</name></trkpt>
<trkpt lat="51.824094" lon="03.953201"><ele>0.9</ele><time>2023-12-06T14:33:45Z</time><name>PT10195</name></trkpt>
<trkpt lat="51.824099" lon="03.953220"><ele>1</ele><time>2023-12-06T14:33:45Z</time><name>PT10196</name></trkpt>
<trkpt lat="51.824109" lon="03.953239"><ele>0.9</ele><time>2023-12-06T14:33:47Z</time><name>PT10197</name></trkpt>
<trkpt lat="51.824118" lon="03.953256"><ele>1</ele><time>2023-12-06T14:33:48Z</time><name>PT10198</name></trkpt>
<trkpt lat="51.824127" lon="03.953269"><ele>1</ele><time>2023-12-06T14:33:48Z</time><name>PT10199</name></trkpt>
<trkpt lat="51.824134" lon="03.953281"><ele>1</ele><time>2023-12-06T14:33:49Z</time><name>PT10200</name></trkpt>
<trkpt lat="51.824138" lon="03.953291"><ele>1</ele><time>2023-12-06T14:33:51Z</time><name>PT10201</name></trkpt>
<trkpt lat="51.824144" lon="03.953302"><ele>1</ele><time>2023-12-06T14:33:51Z</time><name>PT10202</name></trkpt>
<trkpt lat="51.824148" lon="03.953312"><ele>0.9</ele><time>2023-12-06T14:33:52Z</time><name>PT10203</name></trkpt>
<trkpt lat="51.824148" lon="03.953332"><ele>1</ele><time>2023-12-06T14:33:54Z</time><name>PT10204</name></trkpt>
<trkpt lat="51.824157" lon="03.953348"><ele>1</ele><time>2023-12-06T14:33:54Z</time><name>PT10205</name></trkpt>
<trkpt lat="51.824165" lon="03.953371"><ele>1</ele><time>2023-12-06T14:33:55Z</time><name>PT10206</name></trkpt>
<trkpt lat="51.824170" lon="03.953387"><ele>1.1</ele><time>2023-12-06T14:33:57Z</time><name>PT10207</name></trkpt>
<trkpt lat="51.824178" lon="03.953396"><ele>0.9</ele><time>2023-12-06T14:33:57Z</time><name>PT10208</name></trkpt>
<trkpt lat="51.824185" lon="03.953408"><ele>0.8</ele><time>2023-12-06T14:33:58Z</time><name>PT10209</name></trkpt>
<trkpt lat="51.824193" lon="03.953416"><ele>0.9</ele><time>2023-12-06T14:34:00Z</time><name>PT10210</name></trkpt>
<trkpt lat="51.824203" lon="03.953432"><ele>1</ele><time>2023-12-06T14:34:00Z</time><name>PT10211</name></trkpt>
<trkpt lat="51.824215" lon="03.953445"><ele>1.1</ele><time>2023-12-06T14:34:01Z</time><name>PT10212</name></trkpt>
<trkpt lat="51.824225" lon="03.953465"><ele>1</ele><time>2023-12-06T14:34:03Z</time><name>PT10213</name></trkpt>
<trkpt lat="51.824235" lon="03.953481"><ele>1</ele><time>2023-12-06T14:34:03Z</time><name>PT10214</name></trkpt>
<trkpt lat="51.824242" lon="03.953494"><ele>1</ele><time>2023-12-06T14:34:04Z</time><name>PT10215</name></trkpt>
<trkpt lat="51.824245" lon="03.953507"><ele>0.8</ele><time>2023-12-06T14:34:06Z</time><name>PT10216</name></trkpt>
<trkpt lat="51.824251" lon="03.953520"><ele>0.9</ele><time>2023-12-06T14:34:06Z</time><name>PT10217</name></trkpt>
<trkpt lat="51.824255" lon="03.953535"><ele>0.7</ele><time>2023-12-06T14:34:07Z</time><name>PT10218</name></trkpt>
<trkpt lat="51.824260" lon="03.953553"><ele>0.7</ele><time>2023-12-06T14:34:09Z</time><name>PT10219</name></trkpt>
<trkpt lat="51.824266" lon="03.953572"><ele>0.6</ele><time>2023-12-06T14:34:09Z</time><name>PT10220</name></trkpt>
<trkpt lat="51.824277" lon="03.953589"><ele>0.7</ele><time>2023-12-06T14:34:10Z</time><name>PT10221</name></trkpt>
<trkpt lat="51.824284" lon="03.953602"><ele>0.7</ele><time>2023-12-06T14:34:12Z</time><name>PT10222</name></trkpt>
<trkpt lat="51.824287" lon="03.953613"><ele>0.7</ele><time>2023-12-06T14:34:12Z</time><name>PT10223</name></trkpt>
<trkpt lat="51.824291" lon="03.953626"><ele>0.8</ele><time>2023-12-06T14:34:13Z</time><name>PT10224</name></trkpt>
<trkpt lat="51.824296" lon="03.953642"><ele>0.7</ele><time>2023-12-06T14:34:15Z</time><name>PT10225</name></trkpt>
<trkpt lat="51.824302" lon="03.953661"><ele>0.7</ele><time>2023-12-06T14:34:15Z</time><name>PT10226</name></trkpt>
<trkpt lat="51.824307" lon="03.953683"><ele>0.7</ele><time>2023-12-06T14:34:16Z</time><name>PT10227</name></trkpt>
<trkpt lat="51.824315" lon="03.953701"><ele>0.7</ele><time>2023-12-06T14:34:18Z</time><name>PT10228</name></trkpt>
<trkpt lat="51.824322" lon="03.953715"><ele>0.8</ele><time>2023-12-06T14:34:18Z</time><name>PT10229</name></trkpt>
<trkpt lat="51.824326" lon="03.953727"><ele>0.9</ele><time>2023-12-06T14:34:19Z</time><name>PT10230</name></trkpt>
<trkpt lat="51.824332" lon="03.953738"><ele>0.8</ele><time>2023-12-06T14:34:21Z</time><name>PT10231</name></trkpt>
<trkpt lat="51.824337" lon="03.953752"><ele>0.6</ele><time>2023-12-06T14:34:21Z</time><name>PT10232</name></trkpt>
<trkpt lat="51.824342" lon="03.953771"><ele>0.7</ele><time>2023-12-06T14:34:22Z</time><name>PT10233</name></trkpt>
<trkpt lat="51.824349" lon="03.953788"><ele>0.6</ele><time>2023-12-06T14:34:24Z</time><name>PT10234</name></trkpt>
<trkpt lat="51.824356" lon="03.953807"><ele>0.6</ele><time>2023-12-06T14:34:24Z</time><name>PT10235</name></trkpt>
<trkpt lat="51.824365" lon="03.953826"><ele>0.7</ele><time>2023-12-06T14:34:25Z</time><name>PT10236</name></trkpt>
<trkpt lat="51.824372" lon="03.953843"><ele>0.7</ele><time>2023-12-06T14:34:27Z</time><name>PT10237</name></trkpt>
<trkpt lat="51.824377" lon="03.953857"><ele>0.8</ele><time>2023-12-06T14:34:27Z</time><name>PT10238</name></trkpt>
<trkpt lat="51.824383" lon="03.953871"><ele>0.8</ele><time>2023-12-06T14:34:28Z</time><name>PT10239</name></trkpt>
<trkpt lat="51.824391" lon="03.953885"><ele>0.8</ele><time>2023-12-06T14:34:30Z</time><name>PT10240</name></trkpt>
<trkpt lat="51.824398" lon="03.953904"><ele>0.8</ele><time>2023-12-06T14:34:30Z</time><name>PT10241</name></trkpt>
<trkpt lat="51.824408" lon="03.953925"><ele>0.9</ele><time>2023-12-06T14:34:31Z</time><name>PT10242</name></trkpt>
<trkpt lat="51.824416" lon="03.953937"><ele>1</ele><time>2023-12-06T14:34:33Z</time><name>PT10243</name></trkpt>
<trkpt lat="51.824424" lon="03.953949"><ele>1</ele><time>2023-12-06T14:34:33Z</time><name>PT10244</name></trkpt>
<trkpt lat="51.824432" lon="03.953968"><ele>1</ele><time>2023-12-06T14:34:34Z</time><name>PT10245</name></trkpt>
<trkpt lat="51.824439" lon="03.953985"><ele>1.1</ele><time>2023-12-06T14:34:36Z</time><name>PT10246</name></trkpt>
<trkpt lat="51.824443" lon="03.953996"><ele>1.1</ele><time>2023-12-06T14:34:36Z</time><name>PT10247</name></trkpt>
<trkpt lat="51.824448" lon="03.954009"><ele>1.2</ele><time>2023-12-06T14:34:37Z</time><name>PT10248</name></trkpt>
<trkpt lat="51.824452" lon="03.954026"><ele>1.1</ele><time>2023-12-06T14:34:39Z</time><name>PT10249</name></trkpt>
<trkpt lat="51.824454" lon="03.954041"><ele>1</ele><time>2023-12-06T14:34:39Z</time><name>PT10250</name></trkpt>
<trkpt lat="51.824456" lon="03.954059"><ele>0.8</ele><time>2023-12-06T14:34:40Z</time><name>PT10251</name></trkpt>
<trkpt lat="51.824460" lon="03.954077"><ele>0.8</ele><time>2023-12-06T14:34:42Z</time><name>PT10252</name></trkpt>
<trkpt lat="51.824468" lon="03.954096"><ele>0.7</ele><time>2023-12-06T14:34:42Z</time><name>PT10253</name></trkpt>
<trkpt lat="51.824476" lon="03.954118"><ele>0.7</ele><time>2023-12-06T14:34:43Z</time><name>PT10254</name></trkpt>
<trkpt lat="51.824483" lon="03.954137"><ele>0.7</ele><time>2023-12-06T14:34:45Z</time><name>PT10255</name></trkpt>
<trkpt lat="51.824490" lon="03.954152"><ele>0.7</ele><time>2023-12-06T14:34:45Z</time><name>PT10256</name></trkpt>
<trkpt lat="51.824495" lon="03.954167"><ele>0.7</ele><time>2023-12-06T14:34:46Z</time><name>PT10257</name></trkpt>
<trkpt lat="51.824500" lon="03.954184"><ele>0.7</ele><time>2023-12-06T14:34:48Z</time><name>PT10258</name></trkpt>
<trkpt lat="51.824504" lon="03.954200"><ele>0.7</ele><time>2023-12-06T14:34:48Z</time><name>PT10259</name></trkpt>
<trkpt lat="51.824509" lon="03.954216"><ele>0.7</ele><time>2023-12-06T14:34:49Z</time><name>PT10260</name></trkpt>
<trkpt lat="51.824515" lon="03.954235"><ele>0.7</ele><time>2023-12-06T14:34:51Z</time><name>PT10261</name></trkpt>
<trkpt lat="51.824524" lon="03.954253"><ele>0.7</ele><time>2023-12-06T14:34:51Z</time><name>PT10262</name></trkpt>
<trkpt lat="51.824530" lon="03.954267"><ele>0.8</ele><time>2023-12-06T14:34:52Z</time><name>PT10263</name></trkpt>
<trkpt lat="51.824534" lon="03.954279"><ele>0.8</ele><time>2023-12-06T14:34:54Z</time><name>PT10264</name></trkpt>
<trkpt lat="51.824537" lon="03.954290"><ele>0.7</ele><time>2023-12-06T14:34:54Z</time><name>PT10265</name></trkpt>
<trkpt lat="51.824540" lon="03.954303"><ele>0.7</ele><time>2023-12-06T14:34:55Z</time><name>PT10266</name></trkpt>
<trkpt lat="51.824543" lon="03.954318"><ele>0.7</ele><time>2023-12-06T14:34:57Z</time><name>PT10267</name></trkpt>
<trkpt lat="51.824548" lon="03.954332"><ele>0.7</ele><time>2023-12-06T14:34:57Z</time><name>PT10268</name></trkpt>
<trkpt lat="51.824553" lon="03.954351"><ele>0.7</ele><time>2023-12-06T14:34:58Z</time><name>PT10269</name></trkpt>
<trkpt lat="51.824561" lon="03.954370"><ele>0.7</ele><time>2023-12-06T14:35:00Z</time><name>PT10270</name></trkpt>
<trkpt lat="51.824568" lon="03.954386"><ele>0.9</ele><time>2023-12-06T14:35:00Z</time><name>PT10271</name></trkpt>
<trkpt lat="51.824571" lon="03.954401"><ele>0.8</ele><time>2023-12-06T14:35:01Z</time><name>PT10272</name></trkpt>
<trkpt lat="51.824573" lon="03.954416"><ele>1</ele><time>2023-12-06T14:35:03Z</time><name>PT10273</name></trkpt>
<trkpt lat="51.824571" lon="03.954426"><ele>1</ele><time>2023-12-06T14:35:03Z</time><name>PT10274</name></trkpt>
<trkpt lat="51.824574" lon="03.954436"><ele>0.8</ele><time>2023-12-06T14:35:04Z</time><name>PT10275</name></trkpt>
<trkpt lat="51.824581" lon="03.954450"><ele>0.7</ele><time>2023-12-06T14:35:06Z</time><name>PT10276</name></trkpt>
<trkpt lat="51.824587" lon="03.954463"><ele>0.7</ele><time>2023-12-06T14:35:06Z</time><name>PT10277</name></trkpt>
<trkpt lat="51.824589" lon="03.954475"><ele>0.6</ele><time>2023-12-06T14:35:07Z</time><name>PT10278</name></trkpt>
<trkpt lat="51.824589" lon="03.954490"><ele>0.5</ele><time>2023-12-06T14:35:09Z</time><name>PT10279</name></trkpt>
<trkpt lat="51.824595" lon="03.954509"><ele>0.5</ele><time>2023-12-06T14:35:09Z</time><name>PT10280</name></trkpt>
<trkpt lat="51.824602" lon="03.954523"><ele>0.6</ele><time>2023-12-06T14:35:10Z</time><name>PT10281</name></trkpt>
<trkpt lat="51.824608" lon="03.954536"><ele>0.4</ele><time>2023-12-06T14:35:12Z</time><name>PT10282</name></trkpt>
<trkpt lat="51.824614" lon="03.954550"><ele>0.4</ele><time>2023-12-06T14:35:12Z</time><name>PT10283</name></trkpt>
<trkpt lat="51.824618" lon="03.954565"><ele>0.3</ele><time>2023-12-06T14:35:13Z</time><name>PT10284</name></trkpt>
<trkpt lat="51.824621" lon="03.954578"><ele>0.2</ele><time>2023-12-06T14:35:15Z</time><name>PT10285</name></trkpt>
<trkpt lat="51.824624" lon="03.954592"><ele>0.3</ele><time>2023-12-06T14:35:15Z</time><name>PT10286</name></trkpt>
<trkpt lat="51.824627" lon="03.954605"><ele>0.4</ele><time>2023-12-06T14:35:16Z</time><name>PT10287</name></trkpt>
<trkpt lat="51.824633" lon="03.954619"><ele>0.4</ele><time>2023-12-06T14:35:18Z</time><name>PT10288</name></trkpt>
<trkpt lat="51.824638" lon="03.954629"><ele>0.5</ele><time>2023-12-06T14:35:18Z</time><name>PT10289</name></trkpt>
<trkpt lat="51.824644" lon="03.954643"><ele>0.5</ele><time>2023-12-06T14:35:19Z</time><name>PT10290</name></trkpt>
<trkpt lat="51.824652" lon="03.954667"><ele>0.4</ele><time>2023-12-06T14:35:21Z</time><name>PT10291</name></trkpt>
<trkpt lat="51.824656" lon="03.954685"><ele>0.5</ele><time>2023-12-06T14:35:21Z</time><name>PT10292</name></trkpt>
<trkpt lat="51.824660" lon="03.954700"><ele>0.4</ele><time>2023-12-06T14:35:22Z</time><name>PT10293</name></trkpt>
<trkpt lat="51.824663" lon="03.954709"><ele>0.5</ele><time>2023-12-06T14:35:24Z</time><name>PT10294</name></trkpt>
<trkpt lat="51.824666" lon="03.954719"><ele>0.4</ele><time>2023-12-06T14:35:24Z</time><name>PT10295</name></trkpt>
<trkpt lat="51.824668" lon="03.954731"><ele>0.5</ele><time>2023-12-06T14:35:25Z</time><name>PT10296</name></trkpt>
<trkpt lat="51.824675" lon="03.954754"><ele>0.3</ele><time>2023-12-06T14:35:27Z</time><name>PT10297</name></trkpt>
<trkpt lat="51.824683" lon="03.954783"><ele>0.3</ele><time>2023-12-06T14:35:27Z</time><name>PT10298</name></trkpt>
<trkpt lat="51.824691" lon="03.954808"><ele>0.2</ele><time>2023-12-06T14:35:28Z</time><name>PT10299</name></trkpt>
<trkpt lat="51.824699" lon="03.954832"><ele>0.2</ele><time>2023-12-06T14:35:30Z</time><name>PT10300</name></trkpt>
<trkpt lat="51.824707" lon="03.954852"><ele>0.3</ele><time>2023-12-06T14:35:30Z</time><name>PT10301</name></trkpt>
<trkpt lat="51.824715" lon="03.954871"><ele>0.2</ele><time>2023-12-06T14:35:31Z</time><name>PT10302</name></trkpt>
<trkpt lat="51.824721" lon="03.954887"><ele>0.2</ele><time>2023-12-06T14:35:33Z</time><name>PT10303</name></trkpt>
<trkpt lat="51.824728" lon="03.954907"><ele>0.2</ele><time>2023-12-06T14:35:33Z</time><name>PT10304</name></trkpt>
<trkpt lat="51.824735" lon="03.954927"><ele>0.1</ele><time>2023-12-06T14:35:35Z</time><name>PT10305</name></trkpt>
<trkpt lat="51.824742" lon="03.954945"><ele>0</ele><time>2023-12-06T14:35:36Z</time><name>PT10306</name></trkpt>
<trkpt lat="51.824747" lon="03.954960"><ele>0.2</ele><time>2023-12-06T14:35:36Z</time><name>PT10307</name></trkpt>
<trkpt lat="51.824753" lon="03.954966"><ele>0.2</ele><time>2023-12-06T14:35:37Z</time><name>PT10308</name></trkpt>
<trkpt lat="51.824758" lon="03.954973"><ele>0.2</ele><time>2023-12-06T14:35:39Z</time><name>PT10309</name></trkpt>
<trkpt lat="51.824763" lon="03.954982"><ele>0.2</ele><time>2023-12-06T14:35:39Z</time><name>PT10310</name></trkpt>
<trkpt lat="51.824767" lon="03.954989"><ele>0.3</ele><time>2023-12-06T14:35:40Z</time><name>PT10311</name></trkpt>
<trkpt lat="51.824770" lon="03.954997"><ele>0.2</ele><time>2023-12-06T14:35:42Z</time><name>PT10312</name></trkpt>
<trkpt lat="51.824774" lon="03.955003"><ele>0.3</ele><time>2023-12-06T14:35:42Z</time><name>PT10313</name></trkpt>
<trkpt lat="51.824776" lon="03.955010"><ele>0.3</ele><time>2023-12-06T14:35:43Z</time><name>PT10314</name></trkpt>
<trkpt lat="51.824776" lon="03.955023"><ele>0.4</ele><time>2023-12-06T14:35:45Z</time><name>PT10315</name></trkpt>
<trkpt lat="51.824781" lon="03.955034"><ele>0.2</ele><time>2023-12-06T14:35:45Z</time><name>PT10316</name></trkpt>
<trkpt lat="51.824786" lon="03.955047"><ele>0.2</ele><time>2023-12-06T14:35:46Z</time><name>PT10317</name></trkpt>
<trkpt lat="51.824795" lon="03.955067"><ele>0.2</ele><time>2023-12-06T14:35:48Z</time><name>PT10318</name></trkpt>
<trkpt lat="51.824806" lon="03.955087"><ele>0.2</ele><time>2023-12-06T14:35:48Z</time><name>PT10319</name></trkpt>
<trkpt lat="51.824814" lon="03.955103"><ele>0.1</ele><time>2023-12-06T14:35:50Z</time><name>PT10320</name></trkpt>
<trkpt lat="51.824822" lon="03.955119"><ele>0.1</ele><time>2023-12-06T14:35:51Z</time><name>PT10321</name></trkpt>
<trkpt lat="51.824830" lon="03.955144"><ele>0.1</ele><time>2023-12-06T14:35:51Z</time><name>PT10322</name></trkpt>
<trkpt lat="51.824840" lon="03.955169"><ele>0.1</ele><time>2023-12-06T14:35:52Z</time><name>PT10323</name></trkpt>
<trkpt lat="51.824847" lon="03.955190"><ele>0</ele><time>2023-12-06T14:35:54Z</time><name>PT10324</name></trkpt>
<trkpt lat="51.824856" lon="03.955207"><ele>0</ele><time>2023-12-06T14:35:54Z</time><name>PT10325</name></trkpt>
<trkpt lat="51.824862" lon="03.955225"><ele>0</ele><time>2023-12-06T14:35:55Z</time><name>PT10326</name></trkpt>
<trkpt lat="51.824868" lon="03.955237"><ele>0.2</ele><time>2023-12-06T14:35:57Z</time><name>PT10327</name></trkpt>
<trkpt lat="51.824877" lon="03.955250"><ele>0.1</ele><time>2023-12-06T14:35:57Z</time><name>PT10328</name></trkpt>
<trkpt lat="51.824883" lon="03.955266"><ele>0.3</ele><time>2023-12-06T14:35:58Z</time><name>PT10329</name></trkpt>
<trkpt lat="51.824889" lon="03.955279"><ele>0.4</ele><time>2023-12-06T14:36:00Z</time><name>PT10330</name></trkpt>
<trkpt lat="51.824898" lon="03.955290"><ele>0.4</ele><time>2023-12-06T14:36:00Z</time><name>PT10331</name></trkpt>
<trkpt lat="51.824903" lon="03.955298"><ele>0.3</ele><time>2023-12-06T14:36:01Z</time><name>PT10332</name></trkpt>
<trkpt lat="51.824906" lon="03.955309"><ele>0.4</ele><time>2023-12-06T14:36:03Z</time><name>PT10333</name></trkpt>
<trkpt lat="51.824912" lon="03.955321"><ele>0.3</ele><time>2023-12-06T14:36:03Z</time><name>PT10334</name></trkpt>
<trkpt lat="51.824918" lon="03.955328"><ele>0.3</ele><time>2023-12-06T14:36:04Z</time><name>PT10335</name></trkpt>
<trkpt lat="51.824925" lon="03.955341"><ele>0.3</ele><time>2023-12-06T14:36:06Z</time><name>PT10336</name></trkpt>
<trkpt lat="51.824928" lon="03.955368"><ele>0.3</ele><time>2023-12-06T14:36:06Z</time><name>PT10337</name></trkpt>
<trkpt lat="51.824937" lon="03.955392"><ele>0.2</ele><time>2023-12-06T14:36:07Z</time><name>PT10338</name></trkpt>
<trkpt lat="51.824948" lon="03.955415"><ele>0.3</ele><time>2023-12-06T14:36:09Z</time><name>PT10339</name></trkpt>
<trkpt lat="51.824958" lon="03.955436"><ele>0.2</ele><time>2023-12-06T14:36:09Z</time><name>PT10340</name></trkpt>
<trkpt lat="51.824968" lon="03.955449"><ele>0.1</ele><time>2023-12-06T14:36:10Z</time><name>PT10341</name></trkpt>
<trkpt lat="51.824977" lon="03.955461"><ele>0.2</ele><time>2023-12-06T14:36:12Z</time><name>PT10342</name></trkpt>
<trkpt lat="51.824982" lon="03.955474"><ele>0.1</ele><time>2023-12-06T14:36:12Z</time><name>PT10343</name></trkpt>
<trkpt lat="51.824984" lon="03.955486"><ele>0.3</ele><time>2023-12-06T14:36:13Z</time><name>PT10344</name></trkpt>
<trkpt lat="51.824989" lon="03.955500"><ele>0.3</ele><time>2023-12-06T14:36:15Z</time><name>PT10345</name></trkpt>
<trkpt lat="51.824996" lon="03.955516"><ele>0.2</ele><time>2023-12-06T14:36:15Z</time><name>PT10346</name></trkpt>
<trkpt lat="51.825002" lon="03.955534"><ele>0.2</ele><time>2023-12-06T14:36:16Z</time><name>PT10347</name></trkpt>
<trkpt lat="51.825009" lon="03.955555"><ele>0.1</ele><time>2023-12-06T14:36:18Z</time><name>PT10348</name></trkpt>
<trkpt lat="51.825014" lon="03.955578"><ele>0.1</ele><time>2023-12-06T14:36:18Z</time><name>PT10349</name></trkpt>
<trkpt lat="51.825019" lon="03.955598"><ele>0.1</ele><time>2023-12-06T14:36:19Z</time><name>PT10350</name></trkpt>
<trkpt lat="51.825025" lon="03.955616"><ele>0.2</ele><time>2023-12-06T14:36:21Z</time><name>PT10351</name></trkpt>
<trkpt lat="51.825031" lon="03.955628"><ele>0</ele><time>2023-12-06T14:36:21Z</time><name>PT10352</name></trkpt>
<trkpt lat="51.825035" lon="03.955636"><ele>0.1</ele><time>2023-12-06T14:36:22Z</time><name>PT10353</name></trkpt>
<trkpt lat="51.825038" lon="03.955640"><ele>0.1</ele><time>2023-12-06T14:36:24Z</time><name>PT10354</name></trkpt>
<trkpt lat="51.825045" lon="03.955648"><ele>0.1</ele><time>2023-12-06T14:36:24Z</time><name>PT10355</name></trkpt>
<trkpt lat="51.825049" lon="03.955657"><ele>0.2</ele><time>2023-12-06T14:36:25Z</time><name>PT10356</name></trkpt>
<trkpt lat="51.825053" lon="03.955667"><ele>0.1</ele><time>2023-12-06T14:36:27Z</time><name>PT10357</name></trkpt>
<trkpt lat="51.825058" lon="03.955684"><ele>0</ele><time>2023-12-06T14:36:27Z</time><name>PT10358</name></trkpt>
<trkpt lat="51.825070" lon="03.955698"><ele>0</ele><time>2023-12-06T14:36:28Z</time><name>PT10359</name></trkpt>
<trkpt lat="51.825082" lon="03.955716"><ele>0.1</ele><time>2023-12-06T14:36:30Z</time><name>PT10360</name></trkpt>
<trkpt lat="51.825088" lon="03.955729"><ele>0.3</ele><time>2023-12-06T14:36:30Z</time><name>PT10361</name></trkpt>
<trkpt lat="51.825097" lon="03.955740"><ele>0.4</ele><time>2023-12-06T14:36:31Z</time><name>PT10362</name></trkpt>
<trkpt lat="51.825103" lon="03.955753"><ele>0.4</ele><time>2023-12-06T14:36:33Z</time><name>PT10363</name></trkpt>
<trkpt lat="51.825107" lon="03.955763"><ele>0.2</ele><time>2023-12-06T14:36:33Z</time><name>PT10364</name></trkpt>
<trkpt lat="51.825113" lon="03.955776"><ele>0.1</ele><time>2023-12-06T14:36:34Z</time><name>PT10365</name></trkpt>
<trkpt lat="51.825121" lon="03.955788"><ele>0</ele><time>2023-12-06T14:36:36Z</time><name>PT10366</name></trkpt>
<trkpt lat="51.825129" lon="03.955802"><ele>0.1</ele><time>2023-12-06T14:36:36Z</time><name>PT10367</name></trkpt>
<trkpt lat="51.825135" lon="03.955826"><ele>0</ele><time>2023-12-06T14:36:37Z</time><name>PT10368</name></trkpt>
<trkpt lat="51.825140" lon="03.955848"><ele>0.2</ele><time>2023-12-06T14:36:39Z</time><name>PT10369</name></trkpt>
<trkpt lat="51.825150" lon="03.955869"><ele>0.4</ele><time>2023-12-06T14:36:39Z</time><name>PT10370</name></trkpt>
<trkpt lat="51.825159" lon="03.955883"><ele>0.4</ele><time>2023-12-06T14:36:40Z</time><name>PT10371</name></trkpt>
<trkpt lat="51.825168" lon="03.955891"><ele>0.3</ele><time>2023-12-06T14:36:42Z</time><name>PT10372</name></trkpt>
<trkpt lat="51.825175" lon="03.955897"><ele>0.3</ele><time>2023-12-06T14:36:42Z</time><name>PT10373</name></trkpt>
<trkpt lat="51.825180" lon="03.955907"><ele>0.3</ele><time>2023-12-06T14:36:43Z</time><name>PT10374</name></trkpt>
<trkpt lat="51.825182" lon="03.955918"><ele>0.2</ele><time>2023-12-06T14:36:45Z</time><name>PT10375</name></trkpt>
<trkpt lat="51.825188" lon="03.955936"><ele>0.3</ele><time>2023-12-06T14:36:45Z</time><name>PT10376</name></trkpt>
<trkpt lat="51.825194" lon="03.955956"><ele>0.2</ele><time>2023-12-06T14:36:46Z</time><name>PT10377</name></trkpt>
<trkpt lat="51.825202" lon="03.955974"><ele>0.1</ele><time>2023-12-06T14:36:48Z</time><name>PT10378</name></trkpt>
<trkpt lat="51.825208" lon="03.955995"><ele>0</ele><time>2023-12-06T14:36:48Z</time><name>PT10379</name></trkpt>
<trkpt lat="51.825215" lon="03.956012"><ele>0</ele><time>2023-12-06T14:36:49Z</time><name>PT10380</name></trkpt>
<trkpt lat="51.825222" lon="03.956022"><ele>0.2</ele><time>2023-12-06T14:36:51Z</time><name>PT10381</name></trkpt>
<trkpt lat="51.825227" lon="03.956035"><ele>0.2</ele><time>2023-12-06T14:36:51Z</time><name>PT10382</name></trkpt>
<trkpt lat="51.825231" lon="03.956049"><ele>0.4</ele><time>2023-12-06T14:36:52Z</time><name>PT10383</name></trkpt>
<trkpt lat="51.825236" lon="03.956058"><ele>0.6</ele><time>2023-12-06T14:36:54Z</time><name>PT10384</name></trkpt>
<trkpt lat="51.825244" lon="03.956069"><ele>0.7</ele><time>2023-12-06T14:36:54Z</time><name>PT10385</name></trkpt>
<trkpt lat="51.825253" lon="03.956081"><ele>0.4</ele><time>2023-12-06T14:36:55Z</time><name>PT10386</name></trkpt>
<trkpt lat="51.825263" lon="03.956096"><ele>0.4</ele><time>2023-12-06T14:36:57Z</time><name>PT10387</name></trkpt>
<trkpt lat="51.825271" lon="03.956112"><ele>0.4</ele><time>2023-12-06T14:36:57Z</time><name>PT10388</name></trkpt>
<trkpt lat="51.825275" lon="03.956126"><ele>0.3</ele><time>2023-12-06T14:36:58Z</time><name>PT10389</name></trkpt>
<trkpt lat="51.825278" lon="03.956139"><ele>0.4</ele><time>2023-12-06T14:37:00Z</time><name>PT10390</name></trkpt>
<trkpt lat="51.825282" lon="03.956152"><ele>0.6</ele><time>2023-12-06T14:37:00Z</time><name>PT10391</name></trkpt>
<trkpt lat="51.825288" lon="03.956170"><ele>0.6</ele><time>2023-12-06T14:37:01Z</time><name>PT10392</name></trkpt>
<trkpt lat="51.825295" lon="03.956188"><ele>0.6</ele><time>2023-12-06T14:37:03Z</time><name>PT10393</name></trkpt>
<trkpt lat="51.825303" lon="03.956211"><ele>0.6</ele><time>2023-12-06T14:37:03Z</time><name>PT10394</name></trkpt>
<trkpt lat="51.825312" lon="03.956228"><ele>0.4</ele><time>2023-12-06T14:37:04Z</time><name>PT10395</name></trkpt>
<trkpt lat="51.825320" lon="03.956245"><ele>0.5</ele><time>2023-12-06T14:37:06Z</time><name>PT10396</name></trkpt>
<trkpt lat="51.825328" lon="03.956260"><ele>0.4</ele><time>2023-12-06T14:37:06Z</time><name>PT10397</name></trkpt>
<trkpt lat="51.825333" lon="03.956274"><ele>0.3</ele><time>2023-12-06T14:37:07Z</time><name>PT10398</name></trkpt>
<trkpt lat="51.825339" lon="03.956279"><ele>0.5</ele><time>2023-12-06T14:37:09Z</time><name>PT10399</name></trkpt>
<trkpt lat="51.825346" lon="03.956291"><ele>0.5</ele><time>2023-12-06T14:37:09Z</time><name>PT10400</name></trkpt>
<trkpt lat="51.825359" lon="03.956314"><ele>0.6</ele><time>2023-12-06T14:37:10Z</time><name>PT10401</name></trkpt>
<trkpt lat="51.825369" lon="03.956344"><ele>0.7</ele><time>2023-12-06T14:37:12Z</time><name>PT10402</name></trkpt>
<trkpt lat="51.825376" lon="03.956367"><ele>0.7</ele><time>2023-12-06T14:37:12Z</time><name>PT10403</name></trkpt>
<trkpt lat="51.825381" lon="03.956384"><ele>0.7</ele><time>2023-12-06T14:37:13Z</time><name>PT10404</name></trkpt>
<trkpt lat="51.825386" lon="03.956402"><ele>0.7</ele><time>2023-12-06T14:37:15Z</time><name>PT10405</name></trkpt>
<trkpt lat="51.825389" lon="03.956418"><ele>0.7</ele><time>2023-12-06T14:37:15Z</time><name>PT10406</name></trkpt>
<trkpt lat="51.825392" lon="03.956434"><ele>0.7</ele><time>2023-12-06T14:37:16Z</time><name>PT10407</name></trkpt>
<trkpt lat="51.825395" lon="03.956451"><ele>0.6</ele><time>2023-12-06T14:37:18Z</time><name>PT10408</name></trkpt>
<trkpt lat="51.825400" lon="03.956465"><ele>0.6</ele><time>2023-12-06T14:37:18Z</time><name>PT10409</name></trkpt>
<trkpt lat="51.825405" lon="03.956481"><ele>0.6</ele><time>2023-12-06T14:37:19Z</time><name>PT10410</name></trkpt>
<trkpt lat="51.825412" lon="03.956497"><ele>0.6</ele><time>2023-12-06T14:37:21Z</time><name>PT10411</name></trkpt>
<trkpt lat="51.825419" lon="03.956513"><ele>0.6</ele><time>2023-12-06T14:37:21Z</time><name>PT10412</name></trkpt>
<trkpt lat="51.825426" lon="03.956525"><ele>0.6</ele><time>2023-12-06T14:37:22Z</time><name>PT10413</name></trkpt>
<trkpt lat="51.825432" lon="03.956539"><ele>0.7</ele><time>2023-12-06T14:37:24Z</time><name>PT10414</name></trkpt>
<trkpt lat="51.825438" lon="03.956552"><ele>0.7</ele><time>2023-12-06T14:37:24Z</time><name>PT10415</name></trkpt>
<trkpt lat="51.825443" lon="03.956565"><ele>0.7</ele><time>2023-12-06T14:37:25Z</time><name>PT10416</name></trkpt>
<trkpt lat="51.825446" lon="03.956576"><ele>0.7</ele><time>2023-12-06T14:37:27Z</time><name>PT10417</name></trkpt>
<trkpt lat="51.825452" lon="03.956587"><ele>0.8</ele><time>2023-12-06T14:37:27Z</time><name>PT10418</name></trkpt>
<trkpt lat="51.825457" lon="03.956598"><ele>0.7</ele><time>2023-12-06T14:37:28Z</time><name>PT10419</name></trkpt>
<trkpt lat="51.825463" lon="03.956610"><ele>0.7</ele><time>2023-12-06T14:37:30Z</time><name>PT10420</name></trkpt>
<trkpt lat="51.825470" lon="03.956623"><ele>0.7</ele><time>2023-12-06T14:37:30Z</time><name>PT10421</name></trkpt>
<trkpt lat="51.825478" lon="03.956639"><ele>0.7</ele><time>2023-12-06T14:37:31Z</time><name>PT10422</name></trkpt>
<trkpt lat="51.825481" lon="03.956654"><ele>0.6</ele><time>2023-12-06T14:37:33Z</time><name>PT10423</name></trkpt>
<trkpt lat="51.825482" lon="03.956673"><ele>0.7</ele><time>2023-12-06T14:37:33Z</time><name>PT10424</name></trkpt>
<trkpt lat="51.825486" lon="03.956691"><ele>0.6</ele><time>2023-12-06T14:37:34Z</time><name>PT10425</name></trkpt>
<trkpt lat="51.825486" lon="03.956703"><ele>0.4</ele><time>2023-12-06T14:37:36Z</time><name>PT10426</name></trkpt>
<trkpt lat="51.825490" lon="03.956710"><ele>0.3</ele><time>2023-12-06T14:37:36Z</time><name>PT10427</name></trkpt>
<trkpt lat="51.825496" lon="03.956713"><ele>0.3</ele><time>2023-12-06T14:37:37Z</time><name>PT10428</name></trkpt>
<trkpt lat="51.825500" lon="03.956720"><ele>0.3</ele><time>2023-12-06T14:37:39Z</time><name>PT10429</name></trkpt>
<trkpt lat="51.825505" lon="03.956730"><ele>0.2</ele><time>2023-12-06T14:37:39Z</time><name>PT10430</name></trkpt>
<trkpt lat="51.825510" lon="03.956747"><ele>0.2</ele><time>2023-12-06T14:37:40Z</time><name>PT10431</name></trkpt>
<trkpt lat="51.825514" lon="03.956771"><ele>0.1</ele><time>2023-12-06T14:37:42Z</time><name>PT10432</name></trkpt>
<trkpt lat="51.825518" lon="03.956791"><ele>0.2</ele><time>2023-12-06T14:37:42Z</time><name>PT10433</name></trkpt>
<trkpt lat="51.825523" lon="03.956808"><ele>0.2</ele><time>2023-12-06T14:37:43Z</time><name>PT10434</name></trkpt>
<trkpt lat="51.825526" lon="03.956822"><ele>0.3</ele><time>2023-12-06T14:37:45Z</time><name>PT10435</name></trkpt>
<trkpt lat="51.825530" lon="03.956831"><ele>0.4</ele><time>2023-12-06T14:37:45Z</time><name>PT10436</name></trkpt>
<trkpt lat="51.825534" lon="03.956847"><ele>0.3</ele><time>2023-12-06T14:37:46Z</time><name>PT10437</name></trkpt>
<trkpt lat="51.825537" lon="03.956863"><ele>0.3</ele><time>2023-12-06T14:37:48Z</time><name>PT10438</name></trkpt>
<trkpt lat="51.825542" lon="03.956874"><ele>0.2</ele><time>2023-12-06T14:37:48Z</time><name>PT10439</name></trkpt>
<trkpt lat="51.825550" lon="03.956886"><ele>0.3</ele><time>2023-12-06T14:37:49Z</time><name>PT10440</name></trkpt>
<trkpt lat="51.825559" lon="03.956903"><ele>0.2</ele><time>2023-12-06T14:37:51Z</time><name>PT10441</name></trkpt>
<trkpt lat="51.825565" lon="03.956920"><ele>0.2</ele><time>2023-12-06T14:37:51Z</time><name>PT10442</name></trkpt>
<trkpt lat="51.825571" lon="03.956937"><ele>0.2</ele><time>2023-12-06T14:37:52Z</time><name>PT10443</name></trkpt>
<trkpt lat="51.825575" lon="03.956959"><ele>0.2</ele><time>2023-12-06T14:37:54Z</time><name>PT10444</name></trkpt>
<trkpt lat="51.825576" lon="03.956974"><ele>0.3</ele><time>2023-12-06T14:37:54Z</time><name>PT10445</name></trkpt>
<trkpt lat="51.825579" lon="03.956992"><ele>0.4</ele><time>2023-12-06T14:37:55Z</time><name>PT10446</name></trkpt>
<trkpt lat="51.825583" lon="03.957006"><ele>0.4</ele><time>2023-12-06T14:37:57Z</time><name>PT10447</name></trkpt>
<trkpt lat="51.825589" lon="03.957020"><ele>0.2</ele><time>2023-12-06T14:37:57Z</time><name>PT10448</name></trkpt>
<trkpt lat="51.825596" lon="03.957034"><ele>0.2</ele><time>2023-12-06T14:37:58Z</time><name>PT10449</name></trkpt>
<trkpt lat="51.825603" lon="03.957049"><ele>0.2</ele><time>2023-12-06T14:38:00Z</time><name>PT10450</name></trkpt>
<trkpt lat="51.825610" lon="03.957071"><ele>0.4</ele><time>2023-12-06T14:38:00Z</time><name>PT10451</name></trkpt>
<trkpt lat="51.825616" lon="03.957099"><ele>0.4</ele><time>2023-12-06T14:38:01Z</time><name>PT10452</name></trkpt>
<trkpt lat="51.825621" lon="03.957124"><ele>0.3</ele><time>2023-12-06T14:38:03Z</time><name>PT10453</name></trkpt>
<trkpt lat="51.825625" lon="03.957146"><ele>0.3</ele><time>2023-12-06T14:38:03Z</time><name>PT10454</name></trkpt>
<trkpt lat="51.825632" lon="03.957166"><ele>0.2</ele><time>2023-12-06T14:38:04Z</time><name>PT10455</name></trkpt>
<trkpt lat="51.825637" lon="03.957183"><ele>0.2</ele><time>2023-12-06T14:38:06Z</time><name>PT10456</name></trkpt>
<trkpt lat="51.825641" lon="03.957195"><ele>0.2</ele><time>2023-12-06T14:38:06Z</time><name>PT10457</name></trkpt>
<trkpt lat="51.825645" lon="03.957208"><ele>0.2</ele><time>2023-12-06T14:38:07Z</time><name>PT10458</name></trkpt>
<trkpt lat="51.825647" lon="03.957229"><ele>0.2</ele><time>2023-12-06T14:38:09Z</time><name>PT10459</name></trkpt>
<trkpt lat="51.825650" lon="03.957244"><ele>0.3</ele><time>2023-12-06T14:38:09Z</time><name>PT10460</name></trkpt>
<trkpt lat="51.825654" lon="03.957258"><ele>0.3</ele><time>2023-12-06T14:38:10Z</time><name>PT10461</name></trkpt>
<trkpt lat="51.825660" lon="03.957277"><ele>0.2</ele><time>2023-12-06T14:38:12Z</time><name>PT10462</name></trkpt>
<trkpt lat="51.825664" lon="03.957295"><ele>0.4</ele><time>2023-12-06T14:38:12Z</time><name>PT10463</name></trkpt>
<trkpt lat="51.825669" lon="03.957320"><ele>0.4</ele><time>2023-12-06T14:38:13Z</time><name>PT10464</name></trkpt>
<trkpt lat="51.825677" lon="03.957340"><ele>0.4</ele><time>2023-12-06T14:38:15Z</time><name>PT10465</name></trkpt>
<trkpt lat="51.825683" lon="03.957358"><ele>0.5</ele><time>2023-12-06T14:38:15Z</time><name>PT10466</name></trkpt>
<trkpt lat="51.825689" lon="03.957378"><ele>0.4</ele><time>2023-12-06T14:38:16Z</time><name>PT10467</name></trkpt>
<trkpt lat="51.825693" lon="03.957391"><ele>0.4</ele><time>2023-12-06T14:38:18Z</time><name>PT10468</name></trkpt>
<trkpt lat="51.825697" lon="03.957403"><ele>0.3</ele><time>2023-12-06T14:38:18Z</time><name>PT10469</name></trkpt>
<trkpt lat="51.825700" lon="03.957415"><ele>0.2</ele><time>2023-12-06T14:38:19Z</time><name>PT10470</name></trkpt>
<trkpt lat="51.825704" lon="03.957425"><ele>0.2</ele><time>2023-12-06T14:38:21Z</time><name>PT10471</name></trkpt>
<trkpt lat="51.825708" lon="03.957439"><ele>0.2</ele><time>2023-12-06T14:38:21Z</time><name>PT10472</name></trkpt>
<trkpt lat="51.825713" lon="03.957466"><ele>0.5</ele><time>2023-12-06T14:38:22Z</time><name>PT10473</name></trkpt>
<trkpt lat="51.825720" lon="03.957495"><ele>0.7</ele><time>2023-12-06T14:38:24Z</time><name>PT10474</name></trkpt>
<trkpt lat="51.825723" lon="03.957527"><ele>0.7</ele><time>2023-12-06T14:38:24Z</time><name>PT10475</name></trkpt>
<trkpt lat="51.825726" lon="03.957551"><ele>0.8</ele><time>2023-12-06T14:38:25Z</time><name>PT10476</name></trkpt>
<trkpt lat="51.825730" lon="03.957568"><ele>0.7</ele><time>2023-12-06T14:38:27Z</time><name>PT10477</name></trkpt>
<trkpt lat="51.825734" lon="03.957581"><ele>0.6</ele><time>2023-12-06T14:38:27Z</time><name>PT10478</name></trkpt>
<trkpt lat="51.825735" lon="03.957587"><ele>0.5</ele><time>2023-12-06T14:38:28Z</time><name>PT10479</name></trkpt>
<trkpt lat="51.825742" lon="03.957602"><ele>0.4</ele><time>2023-12-06T14:38:30Z</time><name>PT10480</name></trkpt>
<trkpt lat="51.825747" lon="03.957614"><ele>0.3</ele><time>2023-12-06T14:38:30Z</time><name>PT10481</name></trkpt>
<trkpt lat="51.825748" lon="03.957629"><ele>0.4</ele><time>2023-12-06T14:38:31Z</time><name>PT10482</name></trkpt>
<trkpt lat="51.825752" lon="03.957646"><ele>0.3</ele><time>2023-12-06T14:38:33Z</time><name>PT10483</name></trkpt>
<trkpt lat="51.825760" lon="03.957663"><ele>0.2</ele><time>2023-12-06T14:38:33Z</time><name>PT10484</name></trkpt>
<trkpt lat="51.825766" lon="03.957675"><ele>0.2</ele><time>2023-12-06T14:38:34Z</time><name>PT10485</name></trkpt>
<trkpt lat="51.825766" lon="03.957685"><ele>0.2</ele><time>2023-12-06T14:38:36Z</time><name>PT10486</name></trkpt>
<trkpt lat="51.825770" lon="03.957694"><ele>0.2</ele><time>2023-12-06T14:38:36Z</time><name>PT10487</name></trkpt>
<trkpt lat="51.825773" lon="03.957701"><ele>0.2</ele><time>2023-12-06T14:38:37Z</time><name>PT10488</name></trkpt>
<trkpt lat="51.825776" lon="03.957702"><ele>0.3</ele><time>2023-12-06T14:38:39Z</time><name>PT10489</name></trkpt>
<trkpt lat="51.825778" lon="03.957702"><ele>0.2</ele><time>2023-12-06T14:38:39Z</time><name>PT10490</name></trkpt>
<trkpt lat="51.825779" lon="03.957702"><ele>0.2</ele><time>2023-12-06T14:38:40Z</time><name>PT10491</name></trkpt>
<trkpt lat="51.825787" lon="03.957707"><ele>0.3</ele><time>2023-12-06T14:38:42Z</time><name>PT10492</name></trkpt>
<trkpt lat="51.825795" lon="03.957725"><ele>0.3</ele><time>2023-12-06T14:38:43Z</time><name>PT10493</name></trkpt>
<trkpt lat="51.825802" lon="03.957743"><ele>0.2</ele><time>2023-12-06T14:38:45Z</time><name>PT10494</name></trkpt>
<trkpt lat="51.825806" lon="03.957755"><ele>0.3</ele><time>2023-12-06T14:38:45Z</time><name>PT10495</name></trkpt>
<trkpt lat="51.825811" lon="03.957764"><ele>0.4</ele><time>2023-12-06T14:38:46Z</time><name>PT10496</name></trkpt>
<trkpt lat="51.825817" lon="03.957776"><ele>0.3</ele><time>2023-12-06T14:38:48Z</time><name>PT10497</name></trkpt>
<trkpt lat="51.825821" lon="03.957789"><ele>0.3</ele><time>2023-12-06T14:38:48Z</time><name>PT10498</name></trkpt>
<trkpt lat="51.825823" lon="03.957798"><ele>0.2</ele><time>2023-12-06T14:38:49Z</time><name>PT10499</name></trkpt>
<trkpt lat="51.825829" lon="03.957805"><ele>0.1</ele><time>2023-12-06T14:38:51Z</time><name>PT10500</name></trkpt>
<trkpt lat="51.825836" lon="03.957821"><ele>0.1</ele><time>2023-12-06T14:38:51Z</time><name>PT10501</name></trkpt>
<trkpt lat="51.825845" lon="03.957841"><ele>0.2</ele><time>2023-12-06T14:38:52Z</time><name>PT10502</name></trkpt>
<trkpt lat="51.825851" lon="03.957856"><ele>0.2</ele><time>2023-12-06T14:38:54Z</time><name>PT10503</name></trkpt>
<trkpt lat="51.825856" lon="03.957870"><ele>0.2</ele><time>2023-12-06T14:38:54Z</time><name>PT10504</name></trkpt>
<trkpt lat="51.825860" lon="03.957881"><ele>0.5</ele><time>2023-12-06T14:38:55Z</time><name>PT10505</name></trkpt>
<trkpt lat="51.825864" lon="03.957892"><ele>0.7</ele><time>2023-12-06T14:38:57Z</time><name>PT10506</name></trkpt>
<trkpt lat="51.825867" lon="03.957905"><ele>0.6</ele><time>2023-12-06T14:38:57Z</time><name>PT10507</name></trkpt>
<trkpt lat="51.825871" lon="03.957921"><ele>0.4</ele><time>2023-12-06T14:38:58Z</time><name>PT10508</name></trkpt>
<trkpt lat="51.825877" lon="03.957940"><ele>0.2</ele><time>2023-12-06T14:39:00Z</time><name>PT10509</name></trkpt>
<trkpt lat="51.825882" lon="03.957956"><ele>0.2</ele><time>2023-12-06T14:39:00Z</time><name>PT10510</name></trkpt>
<trkpt lat="51.825886" lon="03.957973"><ele>0</ele><time>2023-12-06T14:39:01Z</time><name>PT10511</name></trkpt>
<trkpt lat="51.825891" lon="03.957986"><ele>0</ele><time>2023-12-06T14:39:03Z</time><name>PT10512</name></trkpt>
<trkpt lat="51.825897" lon="03.957994"><ele>0</ele><time>2023-12-06T14:39:03Z</time><name>PT10513</name></trkpt>
<trkpt lat="51.825903" lon="03.958004"><ele>0</ele><time>2023-12-06T14:39:04Z</time><name>PT10514</name></trkpt>
<trkpt lat="51.825907" lon="03.958021"><ele>0.2</ele><time>2023-12-06T14:39:06Z</time><name>PT10515</name></trkpt>
<trkpt lat="51.825913" lon="03.958038"><ele>0.1</ele><time>2023-12-06T14:39:06Z</time><name>PT10516</name></trkpt>
<trkpt lat="51.825919" lon="03.958054"><ele>0.2</ele><time>2023-12-06T14:39:07Z</time><name>PT10517</name></trkpt>
<trkpt lat="51.825925" lon="03.958067"><ele>0.1</ele><time>2023-12-06T14:39:09Z</time><name>PT10518</name></trkpt>
<trkpt lat="51.825931" lon="03.958077"><ele>0.2</ele><time>2023-12-06T14:39:09Z</time><name>PT10519</name></trkpt>
<trkpt lat="51.825936" lon="03.958087"><ele>0</ele><time>2023-12-06T14:39:10Z</time><name>PT10520</name></trkpt>
<trkpt lat="51.825942" lon="03.958099"><ele>0</ele><time>2023-12-06T14:39:12Z</time><name>PT10521</name></trkpt>
<trkpt lat="51.825947" lon="03.958117"><ele>0</ele><time>2023-12-06T14:39:12Z</time><name>PT10522</name></trkpt>
<trkpt lat="51.825953" lon="03.958138"><ele>0</ele><time>2023-12-06T14:39:13Z</time><name>PT10523</name></trkpt>
<trkpt lat="51.825957" lon="03.958155"><ele>0.2</ele><time>2023-12-06T14:39:15Z</time><name>PT10524</name></trkpt>
<trkpt lat="51.825963" lon="03.958165"><ele>0</ele><time>2023-12-06T14:39:15Z</time><name>PT10525</name></trkpt>
<trkpt lat="51.825969" lon="03.958178"><ele>0.2</ele><time>2023-12-06T14:39:16Z</time><name>PT10526</name></trkpt>
<trkpt lat="51.825972" lon="03.958191"><ele>0.2</ele><time>2023-12-06T14:39:18Z</time><name>PT10527</name></trkpt>
<trkpt lat="51.825976" lon="03.958205"><ele>0.4</ele><time>2023-12-06T14:39:18Z</time><name>PT10528</name></trkpt>
<trkpt lat="51.825980" lon="03.958219"><ele>0.4</ele><time>2023-12-06T14:39:19Z</time><name>PT10529</name></trkpt>
<trkpt lat="51.825985" lon="03.958236"><ele>0.4</ele><time>2023-12-06T14:39:21Z</time><name>PT10530</name></trkpt>
<trkpt lat="51.825993" lon="03.958255"><ele>0.3</ele><time>2023-12-06T14:39:21Z</time><name>PT10531</name></trkpt>
<trkpt lat="51.825998" lon="03.958278"><ele>0.3</ele><time>2023-12-06T14:39:22Z</time><name>PT10532</name></trkpt>
<trkpt lat="51.826001" lon="03.958294"><ele>0.2</ele><time>2023-12-06T14:39:24Z</time><name>PT10533</name></trkpt>
<trkpt lat="51.826005" lon="03.958312"><ele>0.2</ele><time>2023-12-06T14:39:24Z</time><name>PT10534</name></trkpt>
<trkpt lat="51.826009" lon="03.958327"><ele>0</ele><time>2023-12-06T14:39:25Z</time><name>PT10535</name></trkpt>
<trkpt lat="51.826015" lon="03.958337"><ele>0</ele><time>2023-12-06T14:39:27Z</time><name>PT10536</name></trkpt>
<trkpt lat="51.826019" lon="03.958349"><ele>0</ele><time>2023-12-06T14:39:27Z</time><name>PT10537</name></trkpt>
<trkpt lat="51.826026" lon="03.958361"><ele>0</ele><time>2023-12-06T14:39:28Z</time><name>PT10538</name></trkpt>
<trkpt lat="51.826034" lon="03.958379"><ele>0</ele><time>2023-12-06T14:39:30Z</time><name>PT10539</name></trkpt>
<trkpt lat="51.826040" lon="03.958398"><ele>0</ele><time>2023-12-06T14:39:30Z</time><name>PT10540</name></trkpt>
<trkpt lat="51.826045" lon="03.958417"><ele>0.1</ele><time>2023-12-06T14:39:31Z</time><name>PT10541</name></trkpt>
<trkpt lat="51.826048" lon="03.958436"><ele>0.1</ele><time>2023-12-06T14:39:33Z</time><name>PT10542</name></trkpt>
<trkpt lat="51.826050" lon="03.958454"><ele>0.2</ele><time>2023-12-06T14:39:33Z</time><name>PT10543</name></trkpt>
<trkpt lat="51.826053" lon="03.958466"><ele>0.3</ele><time>2023-12-06T14:39:34Z</time><name>PT10544</name></trkpt>
<trkpt lat="51.826057" lon="03.958476"><ele>0.2</ele><time>2023-12-06T14:39:36Z</time><name>PT10545</name></trkpt>
<trkpt lat="51.826061" lon="03.958490"><ele>0.2</ele><time>2023-12-06T14:39:36Z</time><name>PT10546</name></trkpt>
<trkpt lat="51.826067" lon="03.958502"><ele>0.1</ele><time>2023-12-06T14:39:37Z</time><name>PT10547</name></trkpt>
<trkpt lat="51.826073" lon="03.958518"><ele>0.2</ele><time>2023-12-06T14:39:39Z</time><name>PT10548</name></trkpt>
<trkpt lat="51.826078" lon="03.958537"><ele>0.2</ele><time>2023-12-06T14:39:39Z</time><name>PT10549</name></trkpt>
<trkpt lat="51.826084" lon="03.958548"><ele>0.1</ele><time>2023-12-06T14:39:40Z</time><name>PT10550</name></trkpt>
<trkpt lat="51.826089" lon="03.958557"><ele>0.2</ele><time>2023-12-06T14:39:42Z</time><name>PT10551</name></trkpt>
<trkpt lat="51.826094" lon="03.958565"><ele>0.2</ele><time>2023-12-06T14:39:42Z</time><name>PT10552</name></trkpt>
<trkpt lat="51.826099" lon="03.958576"><ele>0.2</ele><time>2023-12-06T14:39:43Z</time><name>PT10553</name></trkpt>
<trkpt lat="51.826099" lon="03.958587"><ele>0.2</ele><time>2023-12-06T14:39:45Z</time><name>PT10554</name></trkpt>
<trkpt lat="51.826101" lon="03.958594"><ele>0.2</ele><time>2023-12-06T14:39:45Z</time><name>PT10555</name></trkpt>
<trkpt lat="51.826103" lon="03.958602"><ele>0</ele><time>2023-12-06T14:39:46Z</time><name>PT10556</name></trkpt>
<trkpt lat="51.826107" lon="03.958614"><ele>0.1</ele><time>2023-12-06T14:39:48Z</time><name>PT10557</name></trkpt>
<trkpt lat="51.826109" lon="03.958626"><ele>0.2</ele><time>2023-12-06T14:39:48Z</time><name>PT10558</name></trkpt>
<trkpt lat="51.826112" lon="03.958639"><ele>0.2</ele><time>2023-12-06T14:39:49Z</time><name>PT10559</name></trkpt>
<trkpt lat="51.826114" lon="03.958651"><ele>0.3</ele><time>2023-12-06T14:39:51Z</time><name>PT10560</name></trkpt>
<trkpt lat="51.826116" lon="03.958660"><ele>0.4</ele><time>2023-12-06T14:39:51Z</time><name>PT10561</name></trkpt>
<trkpt lat="51.826115" lon="03.958667"><ele>0.2</ele><time>2023-12-06T14:39:52Z</time><name>PT10562</name></trkpt>
<trkpt lat="51.826114" lon="03.958674"><ele>0.2</ele><time>2023-12-06T14:39:54Z</time><name>PT10563</name></trkpt>
<trkpt lat="51.826116" lon="03.958683"><ele>0.2</ele><time>2023-12-06T14:39:54Z</time><name>PT10564</name></trkpt>
<trkpt lat="51.826117" lon="03.958691"><ele>0.2</ele><time>2023-12-06T14:39:55Z</time><name>PT10565</name></trkpt>
<trkpt lat="51.826118" lon="03.958694"><ele>0</ele><time>2023-12-06T14:39:57Z</time><name>PT10566</name></trkpt>
<trkpt lat="51.826116" lon="03.958702"><ele>0.1</ele><time>2023-12-06T14:39:57Z</time><name>PT10567</name></trkpt>
<trkpt lat="51.826116" lon="03.958710"><ele>0.1</ele><time>2023-12-06T14:39:58Z</time><name>PT10568</name></trkpt>
<trkpt lat="51.826117" lon="03.958717"><ele>0</ele><time>2023-12-06T14:40:00Z</time><name>PT10569</name></trkpt>
<trkpt lat="51.826117" lon="03.958728"><ele>0.2</ele><time>2023-12-06T14:40:00Z</time><name>PT10570</name></trkpt>
<trkpt lat="51.826118" lon="03.958738"><ele>0.2</ele><time>2023-12-06T14:40:01Z</time><name>PT10571</name></trkpt>
<trkpt lat="51.826120" lon="03.958741"><ele>0.1</ele><time>2023-12-06T14:40:03Z</time><name>PT10572</name></trkpt>
<trkpt lat="51.826120" lon="03.958742"><ele>0.1</ele><time>2023-12-06T14:40:03Z</time><name>PT10573</name></trkpt>
<trkpt lat="51.826119" lon="03.958742"><ele>0.1</ele><time>2023-12-06T14:40:04Z</time><name>PT10574</name></trkpt>
<trkpt lat="51.826115" lon="03.958746"><ele>0.2</ele><time>2023-12-06T14:40:06Z</time><name>PT10575</name></trkpt>
<trkpt lat="51.826111" lon="03.958756"><ele>0.1</ele><time>2023-12-06T14:40:06Z</time><name>PT10576</name></trkpt>
<trkpt lat="51.826103" lon="03.958771"><ele>0.2</ele><time>2023-12-06T14:40:08Z</time><name>PT10577</name></trkpt>
<trkpt lat="51.826093" lon="03.958783"><ele>0.2</ele><time>2023-12-06T14:40:09Z</time><name>PT10578</name></trkpt>
<trkpt lat="51.826086" lon="03.958793"><ele>0.2</ele><time>2023-12-06T14:40:09Z</time><name>PT10579</name></trkpt>
<trkpt lat="51.826080" lon="03.958799"><ele>0.2</ele><time>2023-12-06T14:40:10Z</time><name>PT10580</name></trkpt>
<trkpt lat="51.826073" lon="03.958806"><ele>0.2</ele><time>2023-12-06T14:40:12Z</time><name>PT10581</name></trkpt>
<trkpt lat="51.826063" lon="03.958820"><ele>0.3</ele><time>2023-12-06T14:40:12Z</time><name>PT10582</name></trkpt>
<trkpt lat="51.826052" lon="03.958835"><ele>0.2</ele><time>2023-12-06T14:40:13Z</time><name>PT10583</name></trkpt>
<trkpt lat="51.826044" lon="03.958846"><ele>0.2</ele><time>2023-12-06T14:40:15Z</time><name>PT10584</name></trkpt>
<trkpt lat="51.826038" lon="03.958848"><ele>0.2</ele><time>2023-12-06T14:40:15Z</time><name>PT10585</name></trkpt>
<trkpt lat="51.826033" lon="03.958853"><ele>0.1</ele><time>2023-12-06T14:40:16Z</time><name>PT10586</name></trkpt>
<trkpt lat="51.826025" lon="03.958865"><ele>0</ele><time>2023-12-06T14:40:18Z</time><name>PT10587</name></trkpt>
<trkpt lat="51.826016" lon="03.958876"><ele>0</ele><time>2023-12-06T14:40:18Z</time><name>PT10588</name></trkpt>
<trkpt lat="51.826009" lon="03.958885"><ele>0</ele><time>2023-12-06T14:40:19Z</time><name>PT10589</name></trkpt>
<trkpt lat="51.826004" lon="03.958894"><ele>0.2</ele><time>2023-12-06T14:40:21Z</time><name>PT10590</name></trkpt>
<trkpt lat="51.826000" lon="03.958905"><ele>0.2</ele><time>2023-12-06T14:40:21Z</time><name>PT10591</name></trkpt>
<trkpt lat="51.825992" lon="03.958913"><ele>0.2</ele><time>2023-12-06T14:40:22Z</time><name>PT10592</name></trkpt>
<trkpt lat="51.825984" lon="03.958923"><ele>0.1</ele><time>2023-12-06T14:40:24Z</time><name>PT10593</name></trkpt>
<trkpt lat="51.825978" lon="03.958933"><ele>0.2</ele><time>2023-12-06T14:40:24Z</time><name>PT10594</name></trkpt>
<trkpt lat="51.825973" lon="03.958942"><ele>0.2</ele><time>2023-12-06T14:40:25Z</time><name>PT10595</name></trkpt>
<trkpt lat="51.825967" lon="03.958952"><ele>0.2</ele><time>2023-12-06T14:40:27Z</time><name>PT10596</name></trkpt>
<trkpt lat="51.825958" lon="03.958970"><ele>0.2</ele><time>2023-12-06T14:40:27Z</time><name>PT10597</name></trkpt>
<trkpt lat="51.825949" lon="03.958985"><ele>0.2</ele><time>2023-12-06T14:40:28Z</time><name>PT10598</name></trkpt>
<trkpt lat="51.825944" lon="03.958996"><ele>0</ele><time>2023-12-06T14:40:30Z</time><name>PT10599</name></trkpt>
<trkpt lat="51.825939" lon="03.959002"><ele>0</ele><time>2023-12-06T14:40:30Z</time><name>PT10600</name></trkpt>
<trkpt lat="51.825933" lon="03.959011"><ele>0</ele><time>2023-12-06T14:40:31Z</time><name>PT10601</name></trkpt>
<trkpt lat="51.825925" lon="03.959023"><ele>0</ele><time>2023-12-06T14:40:33Z</time><name>PT10602</name></trkpt>
<trkpt lat="51.825917" lon="03.959035"><ele>0</ele><time>2023-12-06T14:40:33Z</time><name>PT10603</name></trkpt>
<trkpt lat="51.825910" lon="03.959045"><ele>0</ele><time>2023-12-06T14:40:34Z</time><name>PT10604</name></trkpt>
<trkpt lat="51.825906" lon="03.959053"><ele>0</ele><time>2023-12-06T14:40:36Z</time><name>PT10605</name></trkpt>
<trkpt lat="51.825902" lon="03.959064"><ele>0</ele><time>2023-12-06T14:40:36Z</time><name>PT10606</name></trkpt>
<trkpt lat="51.825894" lon="03.959076"><ele>0</ele><time>2023-12-06T14:40:37Z</time><name>PT10607</name></trkpt>
<trkpt lat="51.825886" lon="03.959090"><ele>0</ele><time>2023-12-06T14:40:39Z</time><name>PT10608</name></trkpt>
<trkpt lat="51.825877" lon="03.959101"><ele>0.2</ele><time>2023-12-06T14:40:39Z</time><name>PT10609</name></trkpt>
<trkpt lat="51.825870" lon="03.959111"><ele>0.2</ele><time>2023-12-06T14:40:40Z</time><name>PT10610</name></trkpt>
<trkpt lat="51.825864" lon="03.959122"><ele>0.1</ele><time>2023-12-06T14:40:42Z</time><name>PT10611</name></trkpt>
<trkpt lat="51.825859" lon="03.959133"><ele>0.1</ele><time>2023-12-06T14:40:42Z</time><name>PT10612</name></trkpt>
<trkpt lat="51.825850" lon="03.959146"><ele>0.1</ele><time>2023-12-06T14:40:43Z</time><name>PT10613</name></trkpt>
<trkpt lat="51.825844" lon="03.959153"><ele>0</ele><time>2023-12-06T14:40:45Z</time><name>PT10614</name></trkpt>
<trkpt lat="51.825838" lon="03.959159"><ele>0.1</ele><time>2023-12-06T14:40:45Z</time><name>PT10615</name></trkpt>
<trkpt lat="51.825834" lon="03.959167"><ele>0.1</ele><time>2023-12-06T14:40:46Z</time><name>PT10616</name></trkpt>
<trkpt lat="51.825830" lon="03.959180"><ele>0</ele><time>2023-12-06T14:40:48Z</time><name>PT10617</name></trkpt>
<trkpt lat="51.825822" lon="03.959196"><ele>0.1</ele><time>2023-12-06T14:40:48Z</time><name>PT10618</name></trkpt>
<trkpt lat="51.825813" lon="03.959209"><ele>0.2</ele><time>2023-12-06T14:40:49Z</time><name>PT10619</name></trkpt>
<trkpt lat="51.825808" lon="03.959221"><ele>0.2</ele><time>2023-12-06T14:40:51Z</time><name>PT10620</name></trkpt>
<trkpt lat="51.825804" lon="03.959231"><ele>0.2</ele><time>2023-12-06T14:40:51Z</time><name>PT10621</name></trkpt>
<trkpt lat="51.825800" lon="03.959239"><ele>0.2</ele><time>2023-12-06T14:40:52Z</time><name>PT10622</name></trkpt>
<trkpt lat="51.825795" lon="03.959256"><ele>0.2</ele><time>2023-12-06T14:40:54Z</time><name>PT10623</name></trkpt>
<trkpt lat="51.825785" lon="03.959273"><ele>0.2</ele><time>2023-12-06T14:40:54Z</time><name>PT10624</name></trkpt>
<trkpt lat="51.825776" lon="03.959285"><ele>0.2</ele><time>2023-12-06T14:40:55Z</time><name>PT10625</name></trkpt>
<trkpt lat="51.825770" lon="03.959295"><ele>0</ele><time>2023-12-06T14:40:57Z</time><name>PT10626</name></trkpt>
<trkpt lat="51.825765" lon="03.959305"><ele>0</ele><time>2023-12-06T14:40:57Z</time><name>PT10627</name></trkpt>
<trkpt lat="51.825759" lon="03.959315"><ele>0.2</ele><time>2023-12-06T14:40:58Z</time><name>PT10628</name></trkpt>
<trkpt lat="51.825752" lon="03.959328"><ele>0.2</ele><time>2023-12-06T14:41:00Z</time><name>PT10629</name></trkpt>
<trkpt lat="51.825742" lon="03.959341"><ele>0.2</ele><time>2023-12-06T14:41:00Z</time><name>PT10630</name></trkpt>
<trkpt lat="51.825735" lon="03.959352"><ele>0.4</ele><time>2023-12-06T14:41:01Z</time><name>PT10631</name></trkpt>
<trkpt lat="51.825730" lon="03.959359"><ele>0.2</ele><time>2023-12-06T14:41:03Z</time><name>PT10632</name></trkpt>
<trkpt lat="51.825725" lon="03.959369"><ele>0.2</ele><time>2023-12-06T14:41:03Z</time><name>PT10633</name></trkpt>
<trkpt lat="51.825718" lon="03.959380"><ele>0.3</ele><time>2023-12-06T14:41:04Z</time><name>PT10634</name></trkpt>
<trkpt lat="51.825711" lon="03.959395"><ele>0.2</ele><time>2023-12-06T14:41:06Z</time><name>PT10635</name></trkpt>
<trkpt lat="51.825703" lon="03.959408"><ele>0.2</ele><time>2023-12-06T14:41:06Z</time><name>PT10636</name></trkpt>
<trkpt lat="51.825696" lon="03.959416"><ele>0.4</ele><time>2023-12-06T14:41:07Z</time><name>PT10637</name></trkpt>
<trkpt lat="51.825692" lon="03.959425"><ele>0.2</ele><time>2023-12-06T14:41:09Z</time><name>PT10638</name></trkpt>
<trkpt lat="51.825687" lon="03.959434"><ele>0.3</ele><time>2023-12-06T14:41:09Z</time><name>PT10639</name></trkpt>
<trkpt lat="51.825678" lon="03.959449"><ele>0.5</ele><time>2023-12-06T14:41:10Z</time><name>PT10640</name></trkpt>
<trkpt lat="51.825669" lon="03.959463"><ele>0.5</ele><time>2023-12-06T14:41:12Z</time><name>PT10641</name></trkpt>
<trkpt lat="51.825660" lon="03.959475"><ele>0.3</ele><time>2023-12-06T14:41:12Z</time><name>PT10642</name></trkpt>
<trkpt lat="51.825651" lon="03.959485"><ele>0.4</ele><time>2023-12-06T14:41:13Z</time><name>PT10643</name></trkpt>
<trkpt lat="51.825646" lon="03.959497"><ele>0.2</ele><time>2023-12-06T14:41:15Z</time><name>PT10644</name></trkpt>
<trkpt lat="51.825641" lon="03.959506"><ele>0.3</ele><time>2023-12-06T14:41:15Z</time><name>PT10645</name></trkpt>
<trkpt lat="51.825635" lon="03.959518"><ele>0.5</ele><time>2023-12-06T14:41:16Z</time><name>PT10646</name></trkpt>
<trkpt lat="51.825625" lon="03.959530"><ele>0.6</ele><time>2023-12-06T14:41:18Z</time><name>PT10647</name></trkpt>
<trkpt lat="51.825615" lon="03.959544"><ele>0.5</ele><time>2023-12-06T14:41:18Z</time><name>PT10648</name></trkpt>
<trkpt lat="51.825604" lon="03.959559"><ele>0.4</ele><time>2023-12-06T14:41:19Z</time><name>PT10649</name></trkpt>
<trkpt lat="51.825595" lon="03.959571"><ele>0.4</ele><time>2023-12-06T14:41:21Z</time><name>PT10650</name></trkpt>
<trkpt lat="51.825589" lon="03.959581"><ele>0.4</ele><time>2023-12-06T14:41:21Z</time><name>PT10651</name></trkpt>
<trkpt lat="51.825585" lon="03.959589"><ele>0.3</ele><time>2023-12-06T14:41:22Z</time><name>PT10652</name></trkpt>
<trkpt lat="51.825579" lon="03.959598"><ele>0.2</ele><time>2023-12-06T14:41:24Z</time><name>PT10653</name></trkpt>
<trkpt lat="51.825573" lon="03.959609"><ele>0.2</ele><time>2023-12-06T14:41:24Z</time><name>PT10654</name></trkpt>
<trkpt lat="51.825563" lon="03.959623"><ele>0.3</ele><time>2023-12-06T14:41:25Z</time><name>PT10655</name></trkpt>
<trkpt lat="51.825554" lon="03.959640"><ele>0.2</ele><time>2023-12-06T14:41:27Z</time><name>PT10656</name></trkpt>
<trkpt lat="51.825544" lon="03.959652"><ele>0.2</ele><time>2023-12-06T14:41:27Z</time><name>PT10657</name></trkpt>
<trkpt lat="51.825535" lon="03.959664"><ele>0.3</ele><time>2023-12-06T14:41:28Z</time><name>PT10658</name></trkpt>
<trkpt lat="51.825530" lon="03.959675"><ele>0.5</ele><time>2023-12-06T14:41:30Z</time><name>PT10659</name></trkpt>
<trkpt lat="51.825523" lon="03.959688"><ele>0.3</ele><time>2023-12-06T14:41:30Z</time><name>PT10660</name></trkpt>
<trkpt lat="51.825518" lon="03.959697"><ele>0.6</ele><time>2023-12-06T14:41:31Z</time><name>PT10661</name></trkpt>
<trkpt lat="51.825510" lon="03.959696"><ele>0.6</ele><time>2023-12-06T14:41:33Z</time><name>PT10662</name></trkpt>
<trkpt lat="51.825495" lon="03.959702"><ele>0.6</ele><time>2023-12-06T14:41:33Z</time><name>PT10663</name></trkpt>
<trkpt lat="51.825482" lon="03.959711"><ele>0.6</ele><time>2023-12-06T14:41:34Z</time><name>PT10664</name></trkpt>
<trkpt lat="51.825471" lon="03.959723"><ele>0.6</ele><time>2023-12-06T14:41:36Z</time><name>PT10665</name></trkpt>
<trkpt lat="51.825461" lon="03.959735"><ele>0.3</ele><time>2023-12-06T14:41:36Z</time><name>PT10666</name></trkpt>
<trkpt lat="51.825458" lon="03.959737"><ele>0.2</ele><time>2023-12-06T14:41:37Z</time><name>PT10667</name></trkpt>
<trkpt lat="51.825453" lon="03.959740"><ele>0.2</ele><time>2023-12-06T14:41:39Z</time><name>PT10668</name></trkpt>
<trkpt lat="51.825451" lon="03.959745"><ele>0.3</ele><time>2023-12-06T14:41:39Z</time><name>PT10669</name></trkpt>
<trkpt lat="51.825443" lon="03.959755"><ele>0.3</ele><time>2023-12-06T14:41:40Z</time><name>PT10670</name></trkpt>
<trkpt lat="51.825431" lon="03.959768"><ele>0.6</ele><time>2023-12-06T14:41:42Z</time><name>PT10671</name></trkpt>
<trkpt lat="51.825421" lon="03.959783"><ele>0.6</ele><time>2023-12-06T14:41:42Z</time><name>PT10672</name></trkpt>
<trkpt lat="51.825410" lon="03.959798"><ele>0.6</ele><time>2023-12-06T14:41:43Z</time><name>PT10673</name></trkpt>
<trkpt lat="51.825398" lon="03.959807"><ele>0.5</ele><time>2023-12-06T14:41:45Z</time><name>PT10674</name></trkpt>
<trkpt lat="51.825390" lon="03.959815"><ele>0.6</ele><time>2023-12-06T14:41:45Z</time><name>PT10675</name></trkpt>
<trkpt lat="51.825384" lon="03.959817"><ele>0.6</ele><time>2023-12-06T14:41:46Z</time><name>PT10676</name></trkpt>
<trkpt lat="51.825378" lon="03.959825"><ele>0.5</ele><time>2023-12-06T14:41:48Z</time><name>PT10677</name></trkpt>
<trkpt lat="51.825372" lon="03.959833"><ele>0.5</ele><time>2023-12-06T14:41:48Z</time><name>PT10678</name></trkpt>
<trkpt lat="51.825359" lon="03.959844"><ele>0.5</ele><time>2023-12-06T14:41:49Z</time><name>PT10679</name></trkpt>
<trkpt lat="51.825344" lon="03.959857"><ele>0.5</ele><time>2023-12-06T14:41:51Z</time><name>PT10680</name></trkpt>
<trkpt lat="51.825331" lon="03.959873"><ele>0.3</ele><time>2023-12-06T14:41:52Z</time><name>PT10681</name></trkpt>
<trkpt lat="51.825320" lon="03.959883"><ele>0.4</ele><time>2023-12-06T14:41:52Z</time><name>PT10682</name></trkpt>
<trkpt lat="51.825311" lon="03.959891"><ele>0.5</ele><time>2023-12-06T14:41:54Z</time><name>PT10683</name></trkpt>
<trkpt lat="51.825306" lon="03.959900"><ele>0.5</ele><time>2023-12-06T14:41:54Z</time><name>PT10684</name></trkpt>
<trkpt lat="51.825301" lon="03.959909"><ele>0.6</ele><time>2023-12-06T14:41:55Z</time><name>PT10685</name></trkpt>
<trkpt lat="51.825293" lon="03.959918"><ele>0.6</ele><time>2023-12-06T14:41:57Z</time><name>PT10686</name></trkpt>
<trkpt lat="51.825284" lon="03.959931"><ele>0.6</ele><time>2023-12-06T14:41:57Z</time><name>PT10687</name></trkpt>
<trkpt lat="51.825277" lon="03.959942"><ele>0.6</ele><time>2023-12-06T14:41:58Z</time><name>PT10688</name></trkpt>
<trkpt lat="51.825272" lon="03.959953"><ele>0.5</ele><time>2023-12-06T14:42:00Z</time><name>PT10689</name></trkpt>
<trkpt lat="51.825268" lon="03.959962"><ele>0.6</ele><time>2023-12-06T14:42:00Z</time><name>PT10690</name></trkpt>
<trkpt lat="51.825261" lon="03.959967"><ele>0.6</ele><time>2023-12-06T14:42:01Z</time><name>PT10691</name></trkpt>
<trkpt lat="51.825252" lon="03.959977"><ele>0.6</ele><time>2023-12-06T14:42:03Z</time><name>PT10692</name></trkpt>
<trkpt lat="51.825243" lon="03.959987"><ele>0.6</ele><time>2023-12-06T14:42:03Z</time><name>PT10693</name></trkpt>
<trkpt lat="51.825236" lon="03.959990"><ele>0.6</ele><time>2023-12-06T14:42:04Z</time><name>PT10694</name></trkpt>
<trkpt lat="51.825230" lon="03.959995"><ele>0.3</ele><time>2023-12-06T14:42:06Z</time><name>PT10695</name></trkpt>
<trkpt lat="51.825223" lon="03.960006"><ele>0.2</ele><time>2023-12-06T14:42:06Z</time><name>PT10696</name></trkpt>
<trkpt lat="51.825218" lon="03.960008"><ele>0.3</ele><time>2023-12-06T14:42:07Z</time><name>PT10697</name></trkpt>
<trkpt lat="51.825209" lon="03.960018"><ele>0.5</ele><time>2023-12-06T14:42:09Z</time><name>PT10698</name></trkpt>
<trkpt lat="51.825198" lon="03.960033"><ele>0.6</ele><time>2023-12-06T14:42:09Z</time><name>PT10699</name></trkpt>
<trkpt lat="51.825185" lon="03.960047"><ele>0.9</ele><time>2023-12-06T14:42:10Z</time><name>PT10700</name></trkpt>
<trkpt lat="51.825173" lon="03.960058"><ele>-1.1</ele><time>2023-12-06T14:42:12Z</time><name>PT10701</name></trkpt>
<trkpt lat="51.825165" lon="03.960071"><ele>-1.1</ele><time>2023-12-06T14:42:12Z</time><name>PT10702</name></trkpt>
<trkpt lat="51.825157" lon="03.960082"><ele>-1.1</ele><time>2023-12-06T14:42:13Z</time><name>PT10703</name></trkpt>
<trkpt lat="51.825150" lon="03.960090"><ele>-1</ele><time>2023-12-06T14:42:15Z</time><name>PT10704</name></trkpt>
<trkpt lat="51.825146" lon="03.960110"><ele>0.9</ele><time>2023-12-06T14:42:15Z</time><name>PT10705</name></trkpt>
<trkpt lat="51.825139" lon="03.960119"><ele>0.9</ele><time>2023-12-06T14:42:16Z</time><name>PT10706</name></trkpt>
<trkpt lat="51.825130" lon="03.960127"><ele>-1.1</ele><time>2023-12-06T14:42:18Z</time><name>PT10707</name></trkpt>
<trkpt lat="51.825120" lon="03.960139"><ele>-1.1</ele><time>2023-12-06T14:42:18Z</time><name>PT10708</name></trkpt>
<trkpt lat="51.825108" lon="03.960154"><ele>-1</ele><time>2023-12-06T14:42:19Z</time><name>PT10709</name></trkpt>
<trkpt lat="51.825096" lon="03.960166"><ele>-1.1</ele><time>2023-12-06T14:42:21Z</time><name>PT10710</name></trkpt>
<trkpt lat="51.825085" lon="03.960177"><ele>-1.1</ele><time>2023-12-06T14:42:21Z</time><name>PT10711</name></trkpt>
<trkpt lat="51.825074" lon="03.960192"><ele>-1.1</ele><time>2023-12-06T14:42:22Z</time><name>PT10712</name></trkpt>
<trkpt lat="51.825064" lon="03.960205"><ele>-1.1</ele><time>2023-12-06T14:42:24Z</time><name>PT10713</name></trkpt>
<trkpt lat="51.825057" lon="03.960213"><ele>-1.1</ele><time>2023-12-06T14:42:24Z</time><name>PT10714</name></trkpt>
<trkpt lat="51.825049" lon="03.960225"><ele>-1.2</ele><time>2023-12-06T14:42:25Z</time><name>PT10715</name></trkpt>
<trkpt lat="51.825042" lon="03.960234"><ele>-1.2</ele><time>2023-12-06T14:42:27Z</time><name>PT10716</name></trkpt>
<trkpt lat="51.825033" lon="03.960243"><ele>-1.2</ele><time>2023-12-06T14:42:27Z</time><name>PT10717</name></trkpt>
<trkpt lat="51.825019" lon="03.960251"><ele>-1.4</ele><time>2023-12-06T14:42:28Z</time><name>PT10718</name></trkpt>
<trkpt lat="51.825005" lon="03.960260"><ele>-1.5</ele><time>2023-12-06T14:42:30Z</time><name>PT10719</name></trkpt>
<trkpt lat="51.824997" lon="03.960273"><ele>-1.5</ele><time>2023-12-06T14:42:30Z</time><name>PT10720</name></trkpt>
<trkpt lat="51.824988" lon="03.960285"><ele>-1.6</ele><time>2023-12-06T14:42:31Z</time><name>PT10721</name></trkpt>
<trkpt lat="51.824981" lon="03.960294"><ele>-1.6</ele><time>2023-12-06T14:42:33Z</time><name>PT10722</name></trkpt>
<trkpt lat="51.824975" lon="03.960303"><ele>-1.6</ele><time>2023-12-06T14:42:33Z</time><name>PT10723</name></trkpt>
<trkpt lat="51.824970" lon="03.960315"><ele>-1.6</ele><time>2023-12-06T14:42:34Z</time><name>PT10724</name></trkpt>
<trkpt lat="51.824962" lon="03.960328"><ele>-1.6</ele><time>2023-12-06T14:42:36Z</time><name>PT10725</name></trkpt>
<trkpt lat="51.824950" lon="03.960341"><ele>-1.5</ele><time>2023-12-06T14:42:36Z</time><name>PT10726</name></trkpt>
<trkpt lat="51.824940" lon="03.960354"><ele>-1.4</ele><time>2023-12-06T14:42:37Z</time><name>PT10727</name></trkpt>
<trkpt lat="51.824931" lon="03.960365"><ele>-1.4</ele><time>2023-12-06T14:42:39Z</time><name>PT10728</name></trkpt>
<trkpt lat="51.824924" lon="03.960375"><ele>-1.4</ele><time>2023-12-06T14:42:39Z</time><name>PT10729</name></trkpt>
<trkpt lat="51.824919" lon="03.960383"><ele>-1.5</ele><time>2023-12-06T14:42:40Z</time><name>PT10730</name></trkpt>
<trkpt lat="51.824912" lon="03.960393"><ele>-1.5</ele><time>2023-12-06T14:42:42Z</time><name>PT10731</name></trkpt>
<trkpt lat="51.824904" lon="03.960403"><ele>-1.6</ele><time>2023-12-06T14:42:42Z</time><name>PT10732</name></trkpt>
<trkpt lat="51.824894" lon="03.960410"><ele>-1.6</ele><time>2023-12-06T14:42:43Z</time><name>PT10733</name></trkpt>
<trkpt lat="51.824886" lon="03.960417"><ele>-1.6</ele><time>2023-12-06T14:42:45Z</time><name>PT10734</name></trkpt>
<trkpt lat="51.824877" lon="03.960421"><ele>-1.6</ele><time>2023-12-06T14:42:45Z</time><name>PT10735</name></trkpt>
<trkpt lat="51.824873" lon="03.960429"><ele>-1.4</ele><time>2023-12-06T14:42:46Z</time><name>PT10736</name></trkpt>
<trkpt lat="51.824869" lon="03.960430"><ele>-1.3</ele><time>2023-12-06T14:42:48Z</time><name>PT10737</name></trkpt>
<trkpt lat="51.824860" lon="03.960439"><ele>-1.4</ele><time>2023-12-06T14:42:48Z</time><name>PT10738</name></trkpt>
<trkpt lat="51.824850" lon="03.960448"><ele>-1.4</ele><time>2023-12-06T14:42:49Z</time><name>PT10739</name></trkpt>
<trkpt lat="51.824842" lon="03.960462"><ele>-1.6</ele><time>2023-12-06T14:42:51Z</time><name>PT10740</name></trkpt>
<trkpt lat="51.824835" lon="03.960473"><ele>-1.6</ele><time>2023-12-06T14:42:51Z</time><name>PT10741</name></trkpt>
<trkpt lat="51.824829" lon="03.960482"><ele>-1.6</ele><time>2023-12-06T14:42:52Z</time><name>PT10742</name></trkpt>
<trkpt lat="51.824822" lon="03.960493"><ele>-1.6</ele><time>2023-12-06T14:42:54Z</time><name>PT10743</name></trkpt>
<trkpt lat="51.824817" lon="03.960505"><ele>-1.6</ele><time>2023-12-06T14:42:54Z</time><name>PT10744</name></trkpt>
<trkpt lat="51.824803" lon="03.960518"><ele>-1.4</ele><time>2023-12-06T14:42:55Z</time><name>PT10745</name></trkpt>
<trkpt lat="51.824790" lon="03.960533"><ele>-1.5</ele><time>2023-12-06T14:42:57Z</time><name>PT10746</name></trkpt>
<trkpt lat="51.824777" lon="03.960545"><ele>-1.6</ele><time>2023-12-06T14:42:57Z</time><name>PT10747</name></trkpt>
<trkpt lat="51.824769" lon="03.960558"><ele>-1.6</ele><time>2023-12-06T14:42:58Z</time><name>PT10748</name></trkpt>
<trkpt lat="51.824759" lon="03.960569"><ele>-1.6</ele><time>2023-12-06T14:43:00Z</time><name>PT10749</name></trkpt>
<trkpt lat="51.824753" lon="03.960576"><ele>-1.6</ele><time>2023-12-06T14:43:00Z</time><name>PT10750</name></trkpt>
<trkpt lat="51.824747" lon="03.960584"><ele>-1.6</ele><time>2023-12-06T14:43:01Z</time><name>PT10751</name></trkpt>
<trkpt lat="51.824740" lon="03.960593"><ele>-1.6</ele><time>2023-12-06T14:43:03Z</time><name>PT10752</name></trkpt>
<trkpt lat="51.824733" lon="03.960608"><ele>-1.6</ele><time>2023-12-06T14:43:03Z</time><name>PT10753</name></trkpt>
<trkpt lat="51.824724" lon="03.960620"><ele>-1.7</ele><time>2023-12-06T14:43:04Z</time><name>PT10754</name></trkpt>
<trkpt lat="51.824712" lon="03.960627"><ele>-1.6</ele><time>2023-12-06T14:43:06Z</time><name>PT10755</name></trkpt>
<trkpt lat="51.824701" lon="03.960636"><ele>-1.8</ele><time>2023-12-06T14:43:06Z</time><name>PT10756</name></trkpt>
<trkpt lat="51.824692" lon="03.960646"><ele>-1.7</ele><time>2023-12-06T14:43:07Z</time><name>PT10757</name></trkpt>
<trkpt lat="51.824687" lon="03.960655"><ele>-1.8</ele><time>2023-12-06T14:43:09Z</time><name>PT10758</name></trkpt>
<trkpt lat="51.824680" lon="03.960660"><ele>-1.7</ele><time>2023-12-06T14:43:09Z</time><name>PT10759</name></trkpt>
<trkpt lat="51.824676" lon="03.960666"><ele>-1.9</ele><time>2023-12-06T14:43:10Z</time><name>PT10760</name></trkpt>
<trkpt lat="51.824671" lon="03.960678"><ele>-1.9</ele><time>2023-12-06T14:43:12Z</time><name>PT10761</name></trkpt>
<trkpt lat="51.824662" lon="03.960688"><ele>-2</ele><time>2023-12-06T14:43:12Z</time><name>PT10762</name></trkpt>
<trkpt lat="51.824651" lon="03.960694"><ele>-1.9</ele><time>2023-12-06T14:43:13Z</time><name>PT10763</name></trkpt>
<trkpt lat="51.824640" lon="03.960705"><ele>-2.1</ele><time>2023-12-06T14:43:15Z</time><name>PT10764</name></trkpt>
<trkpt lat="51.824629" lon="03.960714"><ele>-2</ele><time>2023-12-06T14:43:15Z</time><name>PT10765</name></trkpt>
<trkpt lat="51.824620" lon="03.960721"><ele>-1.9</ele><time>2023-12-06T14:43:16Z</time><name>PT10766</name></trkpt>
<trkpt lat="51.824613" lon="03.960730"><ele>-1.7</ele><time>2023-12-06T14:43:18Z</time><name>PT10767</name></trkpt>
<trkpt lat="51.824609" lon="03.960737"><ele>-1.6</ele><time>2023-12-06T14:43:18Z</time><name>PT10768</name></trkpt>
<trkpt lat="51.824603" lon="03.960742"><ele>-1.6</ele><time>2023-12-06T14:43:19Z</time><name>PT10769</name></trkpt>
<trkpt lat="51.824596" lon="03.960752"><ele>-1.8</ele><time>2023-12-06T14:43:21Z</time><name>PT10770</name></trkpt>
<trkpt lat="51.824585" lon="03.960756"><ele>-1.9</ele><time>2023-12-06T14:43:21Z</time><name>PT10771</name></trkpt>
<trkpt lat="51.824572" lon="03.960763"><ele>-2.1</ele><time>2023-12-06T14:43:22Z</time><name>PT10772</name></trkpt>
<trkpt lat="51.824563" lon="03.960775"><ele>-2.1</ele><time>2023-12-06T14:43:24Z</time><name>PT10773</name></trkpt>
<trkpt lat="51.824551" lon="03.960783"><ele>-2</ele><time>2023-12-06T14:43:24Z</time><name>PT10774</name></trkpt>
<trkpt lat="51.824541" lon="03.960791"><ele>-2</ele><time>2023-12-06T14:43:25Z</time><name>PT10775</name></trkpt>
<trkpt lat="51.824534" lon="03.960801"><ele>-2.1</ele><time>2023-12-06T14:43:27Z</time><name>PT10776</name></trkpt>
<trkpt lat="51.824529" lon="03.960822"><ele>-1.8</ele><time>2023-12-06T14:43:27Z</time><name>PT10777</name></trkpt>
<trkpt lat="51.824524" lon="03.960838"><ele>-1.7</ele><time>2023-12-06T14:43:28Z</time><name>PT10778</name></trkpt>
<trkpt lat="51.824519" lon="03.960856"><ele>-1.6</ele><time>2023-12-06T14:43:30Z</time><name>PT10779</name></trkpt>
<trkpt lat="51.824513" lon="03.960870"><ele>-1.5</ele><time>2023-12-06T14:43:30Z</time><name>PT10780</name></trkpt>
<trkpt lat="51.824507" lon="03.960881"><ele>-1.4</ele><time>2023-12-06T14:43:31Z</time><name>PT10781</name></trkpt>
<trkpt lat="51.824499" lon="03.960893"><ele>-1.6</ele><time>2023-12-06T14:43:33Z</time><name>PT10782</name></trkpt>
<trkpt lat="51.824492" lon="03.960908"><ele>-1.6</ele><time>2023-12-06T14:43:33Z</time><name>PT10783</name></trkpt>
<trkpt lat="51.824485" lon="03.960918"><ele>-1.8</ele><time>2023-12-06T14:43:34Z</time><name>PT10784</name></trkpt>
<trkpt lat="51.824479" lon="03.960929"><ele>-1.9</ele><time>2023-12-06T14:43:36Z</time><name>PT10785</name></trkpt>
<trkpt lat="51.824473" lon="03.960936"><ele>-1.8</ele><time>2023-12-06T14:43:36Z</time><name>PT10786</name></trkpt>
<trkpt lat="51.824464" lon="03.960951"><ele>-1.7</ele><time>2023-12-06T14:43:37Z</time><name>PT10787</name></trkpt>
<trkpt lat="51.824456" lon="03.960961"><ele>-1.6</ele><time>2023-12-06T14:43:39Z</time><name>PT10788</name></trkpt>
<trkpt lat="51.824447" lon="03.960969"><ele>-1.6</ele><time>2023-12-06T14:43:39Z</time><name>PT10789</name></trkpt>
<trkpt lat="51.824438" lon="03.960980"><ele>-1.6</ele><time>2023-12-06T14:43:40Z</time><name>PT10790</name></trkpt>
<trkpt lat="51.824428" lon="03.960991"><ele>-1.6</ele><time>2023-12-06T14:43:42Z</time><name>PT10791</name></trkpt>
<trkpt lat="51.824420" lon="03.961001"><ele>-1.8</ele><time>2023-12-06T14:43:42Z</time><name>PT10792</name></trkpt>
<trkpt lat="51.824412" lon="03.961011"><ele>-1.9</ele><time>2023-12-06T14:43:43Z</time><name>PT10793</name></trkpt>
<trkpt lat="51.824403" lon="03.961022"><ele>-1.9</ele><time>2023-12-06T14:43:45Z</time><name>PT10794</name></trkpt>
<trkpt lat="51.824395" lon="03.961032"><ele>-1.8</ele><time>2023-12-06T14:43:45Z</time><name>PT10795</name></trkpt>
<trkpt lat="51.824388" lon="03.961036"><ele>-1.6</ele><time>2023-12-06T14:43:46Z</time><name>PT10796</name></trkpt>
<trkpt lat="51.824378" lon="03.961038"><ele>-1.6</ele><time>2023-12-06T14:43:48Z</time><name>PT10797</name></trkpt>
<trkpt lat="51.824368" lon="03.961039"><ele>-1.6</ele><time>2023-12-06T14:43:48Z</time><name>PT10798</name></trkpt>
<trkpt lat="51.824361" lon="03.961038"><ele>-1.6</ele><time>2023-12-06T14:43:49Z</time><name>PT10799</name></trkpt>
<trkpt lat="51.824353" lon="03.961037"><ele>-1.6</ele><time>2023-12-06T14:43:51Z</time><name>PT10800</name></trkpt>
<trkpt lat="51.824345" lon="03.961037"><ele>-1.6</ele><time>2023-12-06T14:43:51Z</time><name>PT10801</name></trkpt>
<trkpt lat="51.824336" lon="03.961038"><ele>-1.5</ele><time>2023-12-06T14:43:52Z</time><name>PT10802</name></trkpt>
<trkpt lat="51.824330" lon="03.961044"><ele>-1.6</ele><time>2023-12-06T14:43:54Z</time><name>PT10803</name></trkpt>
<trkpt lat="51.824327" lon="03.961046"><ele>-1.6</ele><time>2023-12-06T14:43:54Z</time><name>PT10804</name></trkpt>
<trkpt lat="51.824325" lon="03.961046"><ele>-1.7</ele><time>2023-12-06T14:43:55Z</time><name>PT10805</name></trkpt>
<trkpt lat="51.824324" lon="03.961045"><ele>-1.7</ele><time>2023-12-06T14:43:57Z</time><name>PT10806</name></trkpt>
<trkpt lat="51.824324" lon="03.961045"><ele>-1.7</ele><time>2023-12-06T14:43:57Z</time><name>PT10807</name></trkpt>
<trkpt lat="51.824325" lon="03.961045"><ele>-1.8</ele><time>2023-12-06T14:43:58Z</time><name>PT10808</name></trkpt>
<trkpt lat="51.824323" lon="03.961046"><ele>-1.9</ele><time>2023-12-06T14:44:02Z</time><name>PT10809</name></trkpt>
<trkpt lat="51.824312" lon="03.961050"><ele>-2.1</ele><time>2023-12-06T14:44:03Z</time><name>PT10810</name></trkpt>
<trkpt lat="51.824301" lon="03.961054"><ele>-2</ele><time>2023-12-06T14:44:03Z</time><name>PT10811</name></trkpt>
<trkpt lat="51.824290" lon="03.961057"><ele>-1.9</ele><time>2023-12-06T14:44:04Z</time><name>PT10812</name></trkpt>
<trkpt lat="51.824282" lon="03.961058"><ele>-1.8</ele><time>2023-12-06T14:44:06Z</time><name>PT10813</name></trkpt>
<trkpt lat="51.824273" lon="03.961061"><ele>-1.6</ele><time>2023-12-06T14:44:06Z</time><name>PT10814</name></trkpt>
<trkpt lat="51.824264" lon="03.961062"><ele>-1.6</ele><time>2023-12-06T14:44:07Z</time><name>PT10815</name></trkpt>
<trkpt lat="51.824254" lon="03.961059"><ele>-1.5</ele><time>2023-12-06T14:44:09Z</time><name>PT10816</name></trkpt>
<trkpt lat="51.824246" lon="03.961053"><ele>-1.5</ele><time>2023-12-06T14:44:09Z</time><name>PT10817</name></trkpt>
<trkpt lat="51.824238" lon="03.961047"><ele>-1.6</ele><time>2023-12-06T14:44:10Z</time><name>PT10818</name></trkpt>
<trkpt lat="51.824229" lon="03.961040"><ele>-1.6</ele><time>2023-12-06T14:44:12Z</time><name>PT10819</name></trkpt>
<trkpt lat="51.824220" lon="03.961035"><ele>-1.6</ele><time>2023-12-06T14:44:12Z</time><name>PT10820</name></trkpt>
<trkpt lat="51.824211" lon="03.961030"><ele>-1.9</ele><time>2023-12-06T14:44:13Z</time><name>PT10821</name></trkpt>
<trkpt lat="51.824203" lon="03.961022"><ele>-1.9</ele><time>2023-12-06T14:44:15Z</time><name>PT10822</name></trkpt>
<trkpt lat="51.824197" lon="03.961012"><ele>-2</ele><time>2023-12-06T14:44:15Z</time><name>PT10823</name></trkpt>
<trkpt lat="51.824190" lon="03.961002"><ele>-2</ele><time>2023-12-06T14:44:16Z</time><name>PT10824</name></trkpt>
<trkpt lat="51.824181" lon="03.960992"><ele>-2</ele><time>2023-12-06T14:44:18Z</time><name>PT10825</name></trkpt>
<trkpt lat="51.824172" lon="03.960984"><ele>-1.9</ele><time>2023-12-06T14:44:18Z</time><name>PT10826</name></trkpt>
<trkpt lat="51.824163" lon="03.960976"><ele>-1.8</ele><time>2023-12-06T14:44:19Z</time><name>PT10827</name></trkpt>
<trkpt lat="51.824154" lon="03.960968"><ele>-1.7</ele><time>2023-12-06T14:44:21Z</time><name>PT10828</name></trkpt>
<trkpt lat="51.824146" lon="03.960959"><ele>-1.8</ele><time>2023-12-06T14:44:21Z</time><name>PT10829</name></trkpt>
<trkpt lat="51.824139" lon="03.960949"><ele>-1.8</ele><time>2023-12-06T14:44:22Z</time><name>PT10830</name></trkpt>
<trkpt lat="51.824132" lon="03.960939"><ele>-1.9</ele><time>2023-12-06T14:44:24Z</time><name>PT10831</name></trkpt>
<trkpt lat="51.824124" lon="03.960928"><ele>-1.8</ele><time>2023-12-06T14:44:24Z</time><name>PT10832</name></trkpt>
<trkpt lat="51.824116" lon="03.960918"><ele>-1.9</ele><time>2023-12-06T14:44:25Z</time><name>PT10833</name></trkpt>
<trkpt lat="51.824107" lon="03.960910"><ele>-1.9</ele><time>2023-12-06T14:44:27Z</time><name>PT10834</name></trkpt>
<trkpt lat="51.824098" lon="03.960903"><ele>-2</ele><time>2023-12-06T14:44:27Z</time><name>PT10835</name></trkpt>
<trkpt lat="51.824089" lon="03.960893"><ele>-1.9</ele><time>2023-12-06T14:44:29Z</time><name>PT10836</name></trkpt>
<trkpt lat="51.824080" lon="03.960884"><ele>-1.9</ele><time>2023-12-06T14:44:30Z</time><name>PT10837</name></trkpt>
<trkpt lat="51.824071" lon="03.960872"><ele>-1.9</ele><time>2023-12-06T14:44:30Z</time><name>PT10838</name></trkpt>
<trkpt lat="51.824062" lon="03.960857"><ele>-1.7</ele><time>2023-12-06T14:44:31Z</time><name>PT10839</name></trkpt>
<trkpt lat="51.824054" lon="03.960843"><ele>-1.8</ele><time>2023-12-06T14:44:33Z</time><name>PT10840</name></trkpt>
<trkpt lat="51.824045" lon="03.960829"><ele>-2</ele><time>2023-12-06T14:44:33Z</time><name>PT10841</name></trkpt>
<trkpt lat="51.824037" lon="03.960816"><ele>-2.1</ele><time>2023-12-06T14:44:34Z</time><name>PT10842</name></trkpt>
<trkpt lat="51.824030" lon="03.960805"><ele>-2.3</ele><time>2023-12-06T14:44:36Z</time><name>PT10843</name></trkpt>
<trkpt lat="51.824023" lon="03.960795"><ele>-2.2</ele><time>2023-12-06T14:44:36Z</time><name>PT10844</name></trkpt>
<trkpt lat="51.824014" lon="03.960784"><ele>-2.1</ele><time>2023-12-06T14:44:37Z</time><name>PT10845</name></trkpt>
<trkpt lat="51.824005" lon="03.960773"><ele>-2</ele><time>2023-12-06T14:44:39Z</time><name>PT10846</name></trkpt>
<trkpt lat="51.823995" lon="03.960763"><ele>-1.9</ele><time>2023-12-06T14:44:39Z</time><name>PT10847</name></trkpt>
<trkpt lat="51.823985" lon="03.960753"><ele>-1.7</ele><time>2023-12-06T14:44:40Z</time><name>PT10848</name></trkpt>
<trkpt lat="51.823976" lon="03.960741"><ele>-2.1</ele><time>2023-12-06T14:44:42Z</time><name>PT10849</name></trkpt>
<trkpt lat="51.823966" lon="03.960726"><ele>-2.2</ele><time>2023-12-06T14:44:42Z</time><name>PT10850</name></trkpt>
<trkpt lat="51.823956" lon="03.960710"><ele>-2.3</ele><time>2023-12-06T14:44:43Z</time><name>PT10851</name></trkpt>
<trkpt lat="51.823948" lon="03.960696"><ele>-2.4</ele><time>2023-12-06T14:44:45Z</time><name>PT10852</name></trkpt>
<trkpt lat="51.823941" lon="03.960684"><ele>-2.4</ele><time>2023-12-06T14:44:45Z</time><name>PT10853</name></trkpt>
<trkpt lat="51.823934" lon="03.960674"><ele>-2.1</ele><time>2023-12-06T14:44:46Z</time><name>PT10854</name></trkpt>
<trkpt lat="51.823926" lon="03.960665"><ele>-2</ele><time>2023-12-06T14:44:48Z</time><name>PT10855</name></trkpt>
<trkpt lat="51.823915" lon="03.960656"><ele>-2</ele><time>2023-12-06T14:44:48Z</time><name>PT10856</name></trkpt>
<trkpt lat="51.823906" lon="03.960646"><ele>-1.9</ele><time>2023-12-06T14:44:49Z</time><name>PT10857</name></trkpt>
<trkpt lat="51.823899" lon="03.960634"><ele>-2</ele><time>2023-12-06T14:44:51Z</time><name>PT10858</name></trkpt>
<trkpt lat="51.823891" lon="03.960621"><ele>-2</ele><time>2023-12-06T14:44:51Z</time><name>PT10859</name></trkpt>
<trkpt lat="51.823884" lon="03.960608"><ele>-2.1</ele><time>2023-12-06T14:44:52Z</time><name>PT10860</name></trkpt>
<trkpt lat="51.823874" lon="03.960594"><ele>-2.1</ele><time>2023-12-06T14:44:54Z</time><name>PT10861</name></trkpt>
<trkpt lat="51.823865" lon="03.960581"><ele>-2.1</ele><time>2023-12-06T14:44:54Z</time><name>PT10862</name></trkpt>
<trkpt lat="51.823857" lon="03.960572"><ele>-2.1</ele><time>2023-12-06T14:44:55Z</time><name>PT10863</name></trkpt>
<trkpt lat="51.823851" lon="03.960566"><ele>-2.2</ele><time>2023-12-06T14:44:57Z</time><name>PT10864</name></trkpt>
<trkpt lat="51.823845" lon="03.960562"><ele>-2.3</ele><time>2023-12-06T14:44:57Z</time><name>PT10865</name></trkpt>
<trkpt lat="51.823838" lon="03.960554"><ele>-2.5</ele><time>2023-12-06T14:44:58Z</time><name>PT10866</name></trkpt>
<trkpt lat="51.823830" lon="03.960544"><ele>-2.5</ele><time>2023-12-06T14:45:00Z</time><name>PT10867</name></trkpt>
<trkpt lat="51.823820" lon="03.960532"><ele>-2.5</ele><time>2023-12-06T14:45:00Z</time><name>PT10868</name></trkpt>
<trkpt lat="51.823809" lon="03.960518"><ele>-2.7</ele><time>2023-12-06T14:45:01Z</time><name>PT10869</name></trkpt>
<trkpt lat="51.823799" lon="03.960501"><ele>-2.7</ele><time>2023-12-06T14:45:03Z</time><name>PT10870</name></trkpt>
<trkpt lat="51.823790" lon="03.960485"><ele>-2.6</ele><time>2023-12-06T14:45:03Z</time><name>PT10871</name></trkpt>
<trkpt lat="51.823782" lon="03.960470"><ele>-2.8</ele><time>2023-12-06T14:45:04Z</time><name>PT10872</name></trkpt>
<trkpt lat="51.823774" lon="03.960459"><ele>-2.7</ele><time>2023-12-06T14:45:06Z</time><name>PT10873</name></trkpt>
<trkpt lat="51.823767" lon="03.960449"><ele>-2.6</ele><time>2023-12-06T14:45:06Z</time><name>PT10874</name></trkpt>
<trkpt lat="51.823758" lon="03.960439"><ele>-2.7</ele><time>2023-12-06T14:45:07Z</time><name>PT10875</name></trkpt>
<trkpt lat="51.823747" lon="03.960426"><ele>-2.7</ele><time>2023-12-06T14:45:09Z</time><name>PT10876</name></trkpt>
<trkpt lat="51.823733" lon="03.960406"><ele>-2.6</ele><time>2023-12-06T14:45:09Z</time><name>PT10877</name></trkpt>
<trkpt lat="51.823723" lon="03.960392"><ele>-2.6</ele><time>2023-12-06T14:45:10Z</time><name>PT10878</name></trkpt>
<trkpt lat="51.823715" lon="03.960383"><ele>-2.5</ele><time>2023-12-06T14:45:12Z</time><name>PT10879</name></trkpt>
<trkpt lat="51.823708" lon="03.960372"><ele>-2.5</ele><time>2023-12-06T14:45:12Z</time><name>PT10880</name></trkpt>
<trkpt lat="51.823702" lon="03.960363"><ele>-2.3</ele><time>2023-12-06T14:45:13Z</time><name>PT10881</name></trkpt>
<trkpt lat="51.823695" lon="03.960354"><ele>-2.2</ele><time>2023-12-06T14:45:15Z</time><name>PT10882</name></trkpt>
<trkpt lat="51.823688" lon="03.960347"><ele>-2.1</ele><time>2023-12-06T14:45:15Z</time><name>PT10883</name></trkpt>
<trkpt lat="51.823678" lon="03.960341"><ele>-2.1</ele><time>2023-12-06T14:45:16Z</time><name>PT10884</name></trkpt>
<trkpt lat="51.823669" lon="03.960331"><ele>-2.1</ele><time>2023-12-06T14:45:18Z</time><name>PT10885</name></trkpt>
<trkpt lat="51.823661" lon="03.960318"><ele>-2.1</ele><time>2023-12-06T14:45:18Z</time><name>PT10886</name></trkpt>
<trkpt lat="51.823653" lon="03.960304"><ele>-2.2</ele><time>2023-12-06T14:45:19Z</time><name>PT10887</name></trkpt>
<trkpt lat="51.823646" lon="03.960290"><ele>-2.3</ele><time>2023-12-06T14:45:21Z</time><name>PT10888</name></trkpt>
<trkpt lat="51.823639" lon="03.960275"><ele>-2.3</ele><time>2023-12-06T14:45:21Z</time><name>PT10889</name></trkpt>
<trkpt lat="51.823631" lon="03.960264"><ele>-2.4</ele><time>2023-12-06T14:45:22Z</time><name>PT10890</name></trkpt>
<trkpt lat="51.823624" lon="03.960252"><ele>-2.3</ele><time>2023-12-06T14:45:24Z</time><name>PT10891</name></trkpt>
<trkpt lat="51.823615" lon="03.960241"><ele>-2.3</ele><time>2023-12-06T14:45:24Z</time><name>PT10892</name></trkpt>
<trkpt lat="51.823607" lon="03.960227"><ele>-2.2</ele><time>2023-12-06T14:45:25Z</time><name>PT10893</name></trkpt>
<trkpt lat="51.823601" lon="03.960217"><ele>-2.3</ele><time>2023-12-06T14:45:27Z</time><name>PT10894</name></trkpt>
<trkpt lat="51.823597" lon="03.960213"><ele>-2.2</ele><time>2023-12-06T14:45:27Z</time><name>PT10895</name></trkpt>
<trkpt lat="51.823591" lon="03.960204"><ele>-2.3</ele><time>2023-12-06T14:45:28Z</time><name>PT10896</name></trkpt>
<trkpt lat="51.823583" lon="03.960191"><ele>-2.5</ele><time>2023-12-06T14:45:30Z</time><name>PT10897</name></trkpt>
<trkpt lat="51.823576" lon="03.960179"><ele>-2.5</ele><time>2023-12-06T14:45:30Z</time><name>PT10898</name></trkpt>
<trkpt lat="51.823569" lon="03.960167"><ele>-2.3</ele><time>2023-12-06T14:45:31Z</time><name>PT10899</name></trkpt>
<trkpt lat="51.823561" lon="03.960148"><ele>-2.4</ele><time>2023-12-06T14:45:33Z</time><name>PT10900</name></trkpt>
<trkpt lat="51.823554" lon="03.960139"><ele>-2.3</ele><time>2023-12-06T14:45:33Z</time><name>PT10901</name></trkpt>
<trkpt lat="51.823550" lon="03.960130"><ele>-2.3</ele><time>2023-12-06T14:45:34Z</time><name>PT10902</name></trkpt>
<trkpt lat="51.823545" lon="03.960118"><ele>-2.5</ele><time>2023-12-06T14:45:36Z</time><name>PT10903</name></trkpt>
<trkpt lat="51.823541" lon="03.960107"><ele>-2.5</ele><time>2023-12-06T14:45:36Z</time><name>PT10904</name></trkpt>
<trkpt lat="51.823537" lon="03.960096"><ele>-2.3</ele><time>2023-12-06T14:45:37Z</time><name>PT10905</name></trkpt>
<trkpt lat="51.823530" lon="03.960090"><ele>-2.4</ele><time>2023-12-06T14:45:39Z</time><name>PT10906</name></trkpt>
<trkpt lat="51.823523" lon="03.960081"><ele>-2.4</ele><time>2023-12-06T14:45:39Z</time><name>PT10907</name></trkpt>
<trkpt lat="51.823516" lon="03.960069"><ele>-2.3</ele><time>2023-12-06T14:45:40Z</time><name>PT10908</name></trkpt>
<trkpt lat="51.823508" lon="03.960059"><ele>-2.3</ele><time>2023-12-06T14:45:42Z</time><name>PT10909</name></trkpt>
<trkpt lat="51.823502" lon="03.960049"><ele>-2.5</ele><time>2023-12-06T14:45:42Z</time><name>PT10910</name></trkpt>
<trkpt lat="51.823497" lon="03.960040"><ele>-2.5</ele><time>2023-12-06T14:45:43Z</time><name>PT10911</name></trkpt>
<trkpt lat="51.823490" lon="03.960028"><ele>-2.5</ele><time>2023-12-06T14:45:45Z</time><name>PT10912</name></trkpt>
<trkpt lat="51.823482" lon="03.960017"><ele>-2.5</ele><time>2023-12-06T14:45:45Z</time><name>PT10913</name></trkpt>
<trkpt lat="51.823475" lon="03.960010"><ele>-2.5</ele><time>2023-12-06T14:45:46Z</time><name>PT10914</name></trkpt>
<trkpt lat="51.823467" lon="03.959998"><ele>-2.5</ele><time>2023-12-06T14:45:48Z</time><name>PT10915</name></trkpt>
<trkpt lat="51.823458" lon="03.959988"><ele>-2.5</ele><time>2023-12-06T14:45:48Z</time><name>PT10916</name></trkpt>
<trkpt lat="51.823451" lon="03.959976"><ele>-2.4</ele><time>2023-12-06T14:45:49Z</time><name>PT10917</name></trkpt>
<trkpt lat="51.823443" lon="03.959967"><ele>-2.5</ele><time>2023-12-06T14:45:51Z</time><name>PT10918</name></trkpt>
<trkpt lat="51.823436" lon="03.959953"><ele>-2.6</ele><time>2023-12-06T14:45:51Z</time><name>PT10919</name></trkpt>
<trkpt lat="51.823429" lon="03.959939"><ele>-2.7</ele><time>2023-12-06T14:45:52Z</time><name>PT10920</name></trkpt>
<trkpt lat="51.823424" lon="03.959922"><ele>-2.8</ele><time>2023-12-06T14:45:54Z</time><name>PT10921</name></trkpt>
<trkpt lat="51.823418" lon="03.959908"><ele>-2.8</ele><time>2023-12-06T14:45:54Z</time><name>PT10922</name></trkpt>
<trkpt lat="51.823414" lon="03.959894"><ele>-2.6</ele><time>2023-12-06T14:45:55Z</time><name>PT10923</name></trkpt>
<trkpt lat="51.823409" lon="03.959884"><ele>-2.5</ele><time>2023-12-06T14:45:57Z</time><name>PT10924</name></trkpt>
<trkpt lat="51.823403" lon="03.959875"><ele>-2.5</ele><time>2023-12-06T14:45:57Z</time><name>PT10925</name></trkpt>
<trkpt lat="51.823398" lon="03.959868"><ele>-2.5</ele><time>2023-12-06T14:45:58Z</time><name>PT10926</name></trkpt>
<trkpt lat="51.823394" lon="03.959859"><ele>-2.5</ele><time>2023-12-06T14:46:00Z</time><name>PT10927</name></trkpt>
<trkpt lat="51.823389" lon="03.959845"><ele>-2.6</ele><time>2023-12-06T14:46:00Z</time><name>PT10928</name></trkpt>
<trkpt lat="51.823384" lon="03.959832"><ele>-2.8</ele><time>2023-12-06T14:46:01Z</time><name>PT10929</name></trkpt>
<trkpt lat="51.823379" lon="03.959825"><ele>-2.9</ele><time>2023-12-06T14:46:03Z</time><name>PT10930</name></trkpt>
<trkpt lat="51.823375" lon="03.959821"><ele>-2.9</ele><time>2023-12-06T14:46:03Z</time><name>PT10931</name></trkpt>
<trkpt lat="51.823370" lon="03.959816"><ele>-3</ele><time>2023-12-06T14:46:04Z</time><name>PT10932</name></trkpt>
<trkpt lat="51.823366" lon="03.959809"><ele>-2.6</ele><time>2023-12-06T14:46:06Z</time><name>PT10933</name></trkpt>
<trkpt lat="51.823361" lon="03.959798"><ele>-2.6</ele><time>2023-12-06T14:46:06Z</time><name>PT10934</name></trkpt>
<trkpt lat="51.823355" lon="03.959786"><ele>-2.7</ele><time>2023-12-06T14:46:07Z</time><name>PT10935</name></trkpt>
<trkpt lat="51.823348" lon="03.959772"><ele>-2.6</ele><time>2023-12-06T14:46:09Z</time><name>PT10936</name></trkpt>
<trkpt lat="51.823343" lon="03.959760"><ele>-2.5</ele><time>2023-12-06T14:46:09Z</time><name>PT10937</name></trkpt>
<trkpt lat="51.823339" lon="03.959751"><ele>-2.7</ele><time>2023-12-06T14:46:10Z</time><name>PT10938</name></trkpt>
<trkpt lat="51.823332" lon="03.959736"><ele>-2.6</ele><time>2023-12-06T14:46:12Z</time><name>PT10939</name></trkpt>
<trkpt lat="51.823325" lon="03.959725"><ele>-2.5</ele><time>2023-12-06T14:46:12Z</time><name>PT10940</name></trkpt>
<trkpt lat="51.823316" lon="03.959716"><ele>-2.6</ele><time>2023-12-06T14:46:13Z</time><name>PT10941</name></trkpt>
<trkpt lat="51.823308" lon="03.959700"><ele>-2.4</ele><time>2023-12-06T14:46:15Z</time><name>PT10942</name></trkpt>
<trkpt lat="51.823303" lon="03.959687"><ele>-2.4</ele><time>2023-12-06T14:46:15Z</time><name>PT10943</name></trkpt>
<trkpt lat="51.823298" lon="03.959678"><ele>-2.1</ele><time>2023-12-06T14:46:16Z</time><name>PT10944</name></trkpt>
<trkpt lat="51.823290" lon="03.959667"><ele>-2.3</ele><time>2023-12-06T14:46:18Z</time><name>PT10945</name></trkpt>
<trkpt lat="51.823283" lon="03.959656"><ele>-2.4</ele><time>2023-12-06T14:46:18Z</time><name>PT10946</name></trkpt>
<trkpt lat="51.823274" lon="03.959644"><ele>-2.6</ele><time>2023-12-06T14:46:19Z</time><name>PT10947</name></trkpt>
<trkpt lat="51.823268" lon="03.959636"><ele>-2.5</ele><time>2023-12-06T14:46:21Z</time><name>PT10948</name></trkpt>
<trkpt lat="51.823262" lon="03.959629"><ele>-2.5</ele><time>2023-12-06T14:46:21Z</time><name>PT10949</name></trkpt>
<trkpt lat="51.823252" lon="03.959610"><ele>-2.5</ele><time>2023-12-06T14:46:22Z</time><name>PT10950</name></trkpt>
<trkpt lat="51.823244" lon="03.959596"><ele>-2.1</ele><time>2023-12-06T14:46:24Z</time><name>PT10951</name></trkpt>
<trkpt lat="51.823237" lon="03.959585"><ele>-2.1</ele><time>2023-12-06T14:46:24Z</time><name>PT10952</name></trkpt>
<trkpt lat="51.823230" lon="03.959573"><ele>-2.1</ele><time>2023-12-06T14:46:25Z</time><name>PT10953</name></trkpt>
<trkpt lat="51.823222" lon="03.959564"><ele>-2.2</ele><time>2023-12-06T14:46:27Z</time><name>PT10954</name></trkpt>
<trkpt lat="51.823214" lon="03.959555"><ele>-2.1</ele><time>2023-12-06T14:46:27Z</time><name>PT10955</name></trkpt>
<trkpt lat="51.823208" lon="03.959546"><ele>-2.3</ele><time>2023-12-06T14:46:28Z</time><name>PT10956</name></trkpt>
<trkpt lat="51.823202" lon="03.959530"><ele>-2.2</ele><time>2023-12-06T14:46:30Z</time><name>PT10957</name></trkpt>
<trkpt lat="51.823195" lon="03.959511"><ele>-2.1</ele><time>2023-12-06T14:46:30Z</time><name>PT10958</name></trkpt>
<trkpt lat="51.823188" lon="03.959496"><ele>-2.1</ele><time>2023-12-06T14:46:31Z</time><name>PT10959</name></trkpt>
<trkpt lat="51.823180" lon="03.959484"><ele>-2.1</ele><time>2023-12-06T14:46:33Z</time><name>PT10960</name></trkpt>
<trkpt lat="51.823171" lon="03.959468"><ele>-2.1</ele><time>2023-12-06T14:46:33Z</time><name>PT10961</name></trkpt>
<trkpt lat="51.823162" lon="03.959450"><ele>-2.1</ele><time>2023-12-06T14:46:34Z</time><name>PT10962</name></trkpt>
<trkpt lat="51.823152" lon="03.959423"><ele>-2.1</ele><time>2023-12-06T14:46:36Z</time><name>PT10963</name></trkpt>
<trkpt lat="51.823145" lon="03.959408"><ele>-2.1</ele><time>2023-12-06T14:46:36Z</time><name>PT10964</name></trkpt>
<trkpt lat="51.823139" lon="03.959394"><ele>-2.1</ele><time>2023-12-06T14:46:37Z</time><name>PT10965</name></trkpt>
<trkpt lat="51.823132" lon="03.959379"><ele>-1.8</ele><time>2023-12-06T14:46:39Z</time><name>PT10966</name></trkpt>
<trkpt lat="51.823124" lon="03.959364"><ele>-1.6</ele><time>2023-12-06T14:46:39Z</time><name>PT10967</name></trkpt>
<trkpt lat="51.823117" lon="03.959352"><ele>-1.7</ele><time>2023-12-06T14:46:40Z</time><name>PT10968</name></trkpt>
<trkpt lat="51.823109" lon="03.959343"><ele>-1.9</ele><time>2023-12-06T14:46:42Z</time><name>PT10969</name></trkpt>
<trkpt lat="51.823103" lon="03.959334"><ele>-1.8</ele><time>2023-12-06T14:46:42Z</time><name>PT10970</name></trkpt>
<trkpt lat="51.823095" lon="03.959322"><ele>-2</ele><time>2023-12-06T14:46:43Z</time><name>PT10971</name></trkpt>
<trkpt lat="51.823089" lon="03.959307"><ele>-2.1</ele><time>2023-12-06T14:46:45Z</time><name>PT10972</name></trkpt>
<trkpt lat="51.823082" lon="03.959294"><ele>-2.1</ele><time>2023-12-06T14:46:45Z</time><name>PT10973</name></trkpt>
<trkpt lat="51.823074" lon="03.959278"><ele>-1.9</ele><time>2023-12-06T14:46:46Z</time><name>PT10974</name></trkpt>
<trkpt lat="51.823066" lon="03.959266"><ele>-1.7</ele><time>2023-12-06T14:46:48Z</time><name>PT10975</name></trkpt>
<trkpt lat="51.823056" lon="03.959256"><ele>-1.6</ele><time>2023-12-06T14:46:48Z</time><name>PT10976</name></trkpt>
<trkpt lat="51.823045" lon="03.959243"><ele>-1.4</ele><time>2023-12-06T14:46:49Z</time><name>PT10977</name></trkpt>
<trkpt lat="51.823034" lon="03.959227"><ele>-1.5</ele><time>2023-12-06T14:46:51Z</time><name>PT10978</name></trkpt>
<trkpt lat="51.823022" lon="03.959216"><ele>-1.4</ele><time>2023-12-06T14:46:51Z</time><name>PT10979</name></trkpt>
<trkpt lat="51.823009" lon="03.959209"><ele>-1.6</ele><time>2023-12-06T14:46:52Z</time><name>PT10980</name></trkpt>
<trkpt lat="51.822998" lon="03.959202"><ele>-1.6</ele><time>2023-12-06T14:46:54Z</time><name>PT10981</name></trkpt>
<trkpt lat="51.822985" lon="03.959199"><ele>-1.6</ele><time>2023-12-06T14:46:54Z</time><name>PT10982</name></trkpt>
<trkpt lat="51.822971" lon="03.959195"><ele>-1.3</ele><time>2023-12-06T14:46:55Z</time><name>PT10983</name></trkpt>
<trkpt lat="51.822957" lon="03.959192"><ele>-1.4</ele><time>2023-12-06T14:46:57Z</time><name>PT10984</name></trkpt>
<trkpt lat="51.822946" lon="03.959190"><ele>-1.5</ele><time>2023-12-06T14:46:57Z</time><name>PT10985</name></trkpt>
<trkpt lat="51.822935" lon="03.959188"><ele>-1.4</ele><time>2023-12-06T14:46:58Z</time><name>PT10986</name></trkpt>
<trkpt lat="51.822927" lon="03.959189"><ele>-1.4</ele><time>2023-12-06T14:47:00Z</time><name>PT10987</name></trkpt>
<trkpt lat="51.822923" lon="03.959187"><ele>-1.7</ele><time>2023-12-06T14:47:00Z</time><name>PT10988</name></trkpt>
<trkpt lat="51.822922" lon="03.959185"><ele>-1.6</ele><time>2023-12-06T14:47:01Z</time><name>PT10989</name></trkpt>
<trkpt lat="51.822921" lon="03.959184"><ele>-1.4</ele><time>2023-12-06T14:47:03Z</time><name>PT10990</name></trkpt>
<trkpt lat="51.822921" lon="03.959184"><ele>-1.4</ele><time>2023-12-06T14:47:03Z</time><name>PT10991</name></trkpt>
<trkpt lat="51.822919" lon="03.959182"><ele>-1.4</ele><time>2023-12-06T14:47:04Z</time><name>PT10992</name></trkpt>
<trkpt lat="51.822916" lon="03.959182"><ele>-1.4</ele><time>2023-12-06T14:47:18Z</time><name>PT10993</name></trkpt>
<trkpt lat="51.822907" lon="03.959184"><ele>-1.5</ele><time>2023-12-06T14:47:18Z</time><name>PT10994</name></trkpt>
<trkpt lat="51.822901" lon="03.959188"><ele>-1.5</ele><time>2023-12-06T14:47:19Z</time><name>PT10995</name></trkpt>
<trkpt lat="51.822895" lon="03.959192"><ele>-1.6</ele><time>2023-12-06T14:47:21Z</time><name>PT10996</name></trkpt>
<trkpt lat="51.822888" lon="03.959195"><ele>-1.5</ele><time>2023-12-06T14:47:21Z</time><name>PT10997</name></trkpt>
<trkpt lat="51.822885" lon="03.959195"><ele>-1.6</ele><time>2023-12-06T14:47:22Z</time><name>PT10998</name></trkpt>
<trkpt lat="51.822882" lon="03.959192"><ele>-1.7</ele><time>2023-12-06T14:47:24Z</time><name>PT10999</name></trkpt>
<trkpt lat="51.822875" lon="03.959199"><ele>-1.6</ele><time>2023-12-06T14:47:24Z</time><name>PT11000</name></trkpt>
<trkpt lat="51.822870" lon="03.959207"><ele>-1.7</ele><time>2023-12-06T14:47:25Z</time><name>PT11001</name></trkpt>
<trkpt lat="51.822866" lon="03.959212"><ele>-1.7</ele><time>2023-12-06T14:47:27Z</time><name>PT11002</name></trkpt>
<trkpt lat="51.822862" lon="03.959214"><ele>-1.6</ele><time>2023-12-06T14:47:27Z</time><name>PT11003</name></trkpt>
<trkpt lat="51.822857" lon="03.959217"><ele>-1.2</ele><time>2023-12-06T14:47:28Z</time><name>PT11004</name></trkpt>
<trkpt lat="51.822852" lon="03.959221"><ele>-1.2</ele><time>2023-12-06T14:47:30Z</time><name>PT11005</name></trkpt>
<trkpt lat="51.822844" lon="03.959226"><ele>-1.1</ele><time>2023-12-06T14:47:30Z</time><name>PT11006</name></trkpt>
<trkpt lat="51.822840" lon="03.959232"><ele>-1.1</ele><time>2023-12-06T14:47:31Z</time><name>PT11007</name></trkpt>
<trkpt lat="51.822844" lon="03.959243"><ele>-1.5</ele><time>2023-12-06T14:47:33Z</time><name>PT11008</name></trkpt>
<trkpt lat="51.822840" lon="03.959246"><ele>-1.6</ele><time>2023-12-06T14:47:33Z</time><name>PT11009</name></trkpt>
<trkpt lat="51.822833" lon="03.959252"><ele>-1.6</ele><time>2023-12-06T14:47:34Z</time><name>PT11010</name></trkpt>
<trkpt lat="51.822830" lon="03.959258"><ele>-1.7</ele><time>2023-12-06T14:47:36Z</time><name>PT11011</name></trkpt>
<trkpt lat="51.822828" lon="03.959260"><ele>-1.7</ele><time>2023-12-06T14:47:36Z</time><name>PT11012</name></trkpt>
<trkpt lat="51.822827" lon="03.959261"><ele>-1.9</ele><time>2023-12-06T14:47:37Z</time><name>PT11013</name></trkpt>
<trkpt lat="51.822828" lon="03.959261"><ele>-2.1</ele><time>2023-12-06T14:47:45Z</time><name>PT11014</name></trkpt>
<trkpt lat="51.822820" lon="03.959269"><ele>-2.1</ele><time>2023-12-06T14:47:46Z</time><name>PT11015</name></trkpt>
<trkpt lat="51.822810" lon="03.959276"><ele>-2.1</ele><time>2023-12-06T14:47:48Z</time><name>PT11016</name></trkpt>
<trkpt lat="51.822800" lon="03.959277"><ele>-2.1</ele><time>2023-12-06T14:47:48Z</time><name>PT11017</name></trkpt>
<trkpt lat="51.822792" lon="03.959279"><ele>-2.2</ele><time>2023-12-06T14:47:49Z</time><name>PT11018</name></trkpt>
<trkpt lat="51.822785" lon="03.959282"><ele>-2.2</ele><time>2023-12-06T14:47:51Z</time><name>PT11019</name></trkpt>
<trkpt lat="51.822773" lon="03.959288"><ele>-2.2</ele><time>2023-12-06T14:47:51Z</time><name>PT11020</name></trkpt>
<trkpt lat="51.822758" lon="03.959296"><ele>-2.2</ele><time>2023-12-06T14:47:52Z</time><name>PT11021</name></trkpt>
<trkpt lat="51.822742" lon="03.959308"><ele>-2.2</ele><time>2023-12-06T14:47:54Z</time><name>PT11022</name></trkpt>
<trkpt lat="51.822726" lon="03.959320"><ele>-2.1</ele><time>2023-12-06T14:47:54Z</time><name>PT11023</name></trkpt>
<trkpt lat="51.822713" lon="03.959334"><ele>-2.3</ele><time>2023-12-06T14:47:55Z</time><name>PT11024</name></trkpt>
<trkpt lat="51.822703" lon="03.959347"><ele>-2.3</ele><time>2023-12-06T14:47:57Z</time><name>PT11025</name></trkpt>
<trkpt lat="51.822696" lon="03.959363"><ele>-2.4</ele><time>2023-12-06T14:47:57Z</time><name>PT11026</name></trkpt>
<trkpt lat="51.822689" lon="03.959370"><ele>-2.2</ele><time>2023-12-06T14:47:58Z</time><name>PT11027</name></trkpt>
<trkpt lat="51.822682" lon="03.959386"><ele>-2.2</ele><time>2023-12-06T14:48:00Z</time><name>PT11028</name></trkpt>
<trkpt lat="51.822675" lon="03.959394"><ele>-2.1</ele><time>2023-12-06T14:48:00Z</time><name>PT11029</name></trkpt>
<trkpt lat="51.822666" lon="03.959406"><ele>-2.2</ele><time>2023-12-06T14:48:01Z</time><name>PT11030</name></trkpt>
<trkpt lat="51.822655" lon="03.959416"><ele>-2.3</ele><time>2023-12-06T14:48:03Z</time><name>PT11031</name></trkpt>
<trkpt lat="51.822642" lon="03.959429"><ele>-2.2</ele><time>2023-12-06T14:48:03Z</time><name>PT11032</name></trkpt>
<trkpt lat="51.822629" lon="03.959442"><ele>-2.2</ele><time>2023-12-06T14:48:04Z</time><name>PT11033</name></trkpt>
<trkpt lat="51.822618" lon="03.959453"><ele>-2.2</ele><time>2023-12-06T14:48:06Z</time><name>PT11034</name></trkpt>
<trkpt lat="51.822608" lon="03.959460"><ele>-2.3</ele><time>2023-12-06T14:48:06Z</time><name>PT11035</name></trkpt>
<trkpt lat="51.822598" lon="03.959468"><ele>-2.3</ele><time>2023-12-06T14:48:07Z</time><name>PT11036</name></trkpt>
<trkpt lat="51.822591" lon="03.959479"><ele>-2.4</ele><time>2023-12-06T14:48:09Z</time><name>PT11037</name></trkpt>
<trkpt lat="51.822582" lon="03.959488"><ele>-2.3</ele><time>2023-12-06T14:48:09Z</time><name>PT11038</name></trkpt>
<trkpt lat="51.822574" lon="03.959498"><ele>-2.2</ele><time>2023-12-06T14:48:10Z</time><name>PT11039</name></trkpt>
<trkpt lat="51.822562" lon="03.959509"><ele>-2.3</ele><time>2023-12-06T14:48:12Z</time><name>PT11040</name></trkpt>
<trkpt lat="51.822552" lon="03.959528"><ele>-2.2</ele><time>2023-12-06T14:48:12Z</time><name>PT11041</name></trkpt>
<trkpt lat="51.822541" lon="03.959545"><ele>-2.3</ele><time>2023-12-06T14:48:13Z</time><name>PT11042</name></trkpt>
<trkpt lat="51.822529" lon="03.959559"><ele>-2.4</ele><time>2023-12-06T14:48:15Z</time><name>PT11043</name></trkpt>
<trkpt lat="51.822519" lon="03.959572"><ele>-2.5</ele><time>2023-12-06T14:48:15Z</time><name>PT11044</name></trkpt>
<trkpt lat="51.822511" lon="03.959581"><ele>-2.4</ele><time>2023-12-06T14:48:16Z</time><name>PT11045</name></trkpt>
<trkpt lat="51.822503" lon="03.959590"><ele>-2.5</ele><time>2023-12-06T14:48:18Z</time><name>PT11046</name></trkpt>
<trkpt lat="51.822495" lon="03.959598"><ele>-2.5</ele><time>2023-12-06T14:48:18Z</time><name>PT11047</name></trkpt>
<trkpt lat="51.822488" lon="03.959613"><ele>-2.5</ele><time>2023-12-06T14:48:19Z</time><name>PT11048</name></trkpt>
<trkpt lat="51.822482" lon="03.959621"><ele>-2.5</ele><time>2023-12-06T14:48:21Z</time><name>PT11049</name></trkpt>
<trkpt lat="51.822474" lon="03.959630"><ele>-2.6</ele><time>2023-12-06T14:48:21Z</time><name>PT11050</name></trkpt>
<trkpt lat="51.822460" lon="03.959644"><ele>-2.5</ele><time>2023-12-06T14:48:22Z</time><name>PT11051</name></trkpt>
<trkpt lat="51.822447" lon="03.959658"><ele>-2.4</ele><time>2023-12-06T14:48:24Z</time><name>PT11052</name></trkpt>
<trkpt lat="51.822438" lon="03.959671"><ele>-2.4</ele><time>2023-12-06T14:48:24Z</time><name>PT11053</name></trkpt>
<trkpt lat="51.822432" lon="03.959679"><ele>-2.1</ele><time>2023-12-06T14:48:25Z</time><name>PT11054</name></trkpt>
<trkpt lat="51.822425" lon="03.959685"><ele>-2.1</ele><time>2023-12-06T14:48:27Z</time><name>PT11055</name></trkpt>
<trkpt lat="51.822418" lon="03.959696"><ele>-2.1</ele><time>2023-12-06T14:48:27Z</time><name>PT11056</name></trkpt>
<trkpt lat="51.822411" lon="03.959705"><ele>-2.3</ele><time>2023-12-06T14:48:28Z</time><name>PT11057</name></trkpt>
<trkpt lat="51.822404" lon="03.959713"><ele>-2.1</ele><time>2023-12-06T14:48:30Z</time><name>PT11058</name></trkpt>
<trkpt lat="51.822397" lon="03.959723"><ele>-2.1</ele><time>2023-12-06T14:48:30Z</time><name>PT11059</name></trkpt>
<trkpt lat="51.822389" lon="03.959739"><ele>-2.2</ele><time>2023-12-06T14:48:31Z</time><name>PT11060</name></trkpt>
<trkpt lat="51.822378" lon="03.959752"><ele>-2.2</ele><time>2023-12-06T14:48:33Z</time><name>PT11061</name></trkpt>
<trkpt lat="51.822366" lon="03.959763"><ele>-2.2</ele><time>2023-12-06T14:48:33Z</time><name>PT11062</name></trkpt>
<trkpt lat="51.822356" lon="03.959773"><ele>-2.4</ele><time>2023-12-06T14:48:34Z</time><name>PT11063</name></trkpt>
<trkpt lat="51.822347" lon="03.959782"><ele>-2.3</ele><time>2023-12-06T14:48:36Z</time><name>PT11064</name></trkpt>
<trkpt lat="51.822336" lon="03.959793"><ele>-2.2</ele><time>2023-12-06T14:48:36Z</time><name>PT11065</name></trkpt>
<trkpt lat="51.822329" lon="03.959803"><ele>-2.2</ele><time>2023-12-06T14:48:38Z</time><name>PT11066</name></trkpt>
<trkpt lat="51.822324" lon="03.959810"><ele>-2.2</ele><time>2023-12-06T14:48:39Z</time><name>PT11067</name></trkpt>
<trkpt lat="51.822318" lon="03.959814"><ele>-2.4</ele><time>2023-12-06T14:48:39Z</time><name>PT11068</name></trkpt>
<trkpt lat="51.822312" lon="03.959818"><ele>-2.5</ele><time>2023-12-06T14:48:40Z</time><name>PT11069</name></trkpt>
<trkpt lat="51.822305" lon="03.959824"><ele>-2.3</ele><time>2023-12-06T14:48:42Z</time><name>PT11070</name></trkpt>
<trkpt lat="51.822299" lon="03.959835"><ele>-2.1</ele><time>2023-12-06T14:48:42Z</time><name>PT11071</name></trkpt>
<trkpt lat="51.822289" lon="03.959848"><ele>-2.1</ele><time>2023-12-06T14:48:43Z</time><name>PT11072</name></trkpt>
<trkpt lat="51.822277" lon="03.959862"><ele>-2.1</ele><time>2023-12-06T14:48:45Z</time><name>PT11073</name></trkpt>
<trkpt lat="51.822265" lon="03.959873"><ele>-2.1</ele><time>2023-12-06T14:48:45Z</time><name>PT11074</name></trkpt>
<trkpt lat="51.822255" lon="03.959881"><ele>-2.1</ele><time>2023-12-06T14:48:46Z</time><name>PT11075</name></trkpt>
<trkpt lat="51.822248" lon="03.959888"><ele>-2.4</ele><time>2023-12-06T14:48:48Z</time><name>PT11076</name></trkpt>
<trkpt lat="51.822242" lon="03.959898"><ele>-2.4</ele><time>2023-12-06T14:48:48Z</time><name>PT11077</name></trkpt>
<trkpt lat="51.822236" lon="03.959908"><ele>-2.4</ele><time>2023-12-06T14:48:49Z</time><name>PT11078</name></trkpt>
<trkpt lat="51.822228" lon="03.959923"><ele>-2.5</ele><time>2023-12-06T14:48:51Z</time><name>PT11079</name></trkpt>
<trkpt lat="51.822216" lon="03.959934"><ele>-2.4</ele><time>2023-12-06T14:48:51Z</time><name>PT11080</name></trkpt>
<trkpt lat="51.822204" lon="03.959947"><ele>-2.5</ele><time>2023-12-06T14:48:53Z</time><name>PT11081</name></trkpt>
<trkpt lat="51.822193" lon="03.959959"><ele>-2.5</ele><time>2023-12-06T14:48:54Z</time><name>PT11082</name></trkpt>
<trkpt lat="51.822185" lon="03.959966"><ele>-2.5</ele><time>2023-12-06T14:48:54Z</time><name>PT11083</name></trkpt>
<trkpt lat="51.822177" lon="03.959975"><ele>-2.5</ele><time>2023-12-06T14:48:55Z</time><name>PT11084</name></trkpt>
<trkpt lat="51.822170" lon="03.959983"><ele>-2.7</ele><time>2023-12-06T14:48:57Z</time><name>PT11085</name></trkpt>
<trkpt lat="51.822163" lon="03.959991"><ele>-2.6</ele><time>2023-12-06T14:48:57Z</time><name>PT11086</name></trkpt>
<trkpt lat="51.822154" lon="03.960003"><ele>-2.6</ele><time>2023-12-06T14:48:58Z</time><name>PT11087</name></trkpt>
<trkpt lat="51.822144" lon="03.960017"><ele>-2.5</ele><time>2023-12-06T14:49:00Z</time><name>PT11088</name></trkpt>
<trkpt lat="51.822132" lon="03.960027"><ele>-2.5</ele><time>2023-12-06T14:49:00Z</time><name>PT11089</name></trkpt>
<trkpt lat="51.822121" lon="03.960035"><ele>-2.4</ele><time>2023-12-06T14:49:01Z</time><name>PT11090</name></trkpt>
<trkpt lat="51.822112" lon="03.960043"><ele>-2.5</ele><time>2023-12-06T14:49:03Z</time><name>PT11091</name></trkpt>
<trkpt lat="51.822103" lon="03.960053"><ele>-2.4</ele><time>2023-12-06T14:49:03Z</time><name>PT11092</name></trkpt>
<trkpt lat="51.822095" lon="03.960063"><ele>-2.5</ele><time>2023-12-06T14:49:04Z</time><name>PT11093</name></trkpt>
<trkpt lat="51.822088" lon="03.960074"><ele>-2.5</ele><time>2023-12-06T14:49:06Z</time><name>PT11094</name></trkpt>
<trkpt lat="51.822082" lon="03.960085"><ele>-2.5</ele><time>2023-12-06T14:49:06Z</time><name>PT11095</name></trkpt>
<trkpt lat="51.822075" lon="03.960103"><ele>-2.4</ele><time>2023-12-06T14:49:07Z</time><name>PT11096</name></trkpt>
<trkpt lat="51.822062" lon="03.960118"><ele>-2.4</ele><time>2023-12-06T14:49:09Z</time><name>PT11097</name></trkpt>
<trkpt lat="51.822048" lon="03.960129"><ele>-2.5</ele><time>2023-12-06T14:49:09Z</time><name>PT11098</name></trkpt>
<trkpt lat="51.822037" lon="03.960139"><ele>-2.4</ele><time>2023-12-06T14:49:10Z</time><name>PT11099</name></trkpt>
<trkpt lat="51.822030" lon="03.960146"><ele>-2.4</ele><time>2023-12-06T14:49:12Z</time><name>PT11100</name></trkpt>
<trkpt lat="51.822023" lon="03.960155"><ele>-2.5</ele><time>2023-12-06T14:49:12Z</time><name>PT11101</name></trkpt>
<trkpt lat="51.822017" lon="03.960161"><ele>-2.6</ele><time>2023-12-06T14:49:13Z</time><name>PT11102</name></trkpt>
<trkpt lat="51.822010" lon="03.960171"><ele>-2.6</ele><time>2023-12-06T14:49:15Z</time><name>PT11103</name></trkpt>
<trkpt lat="51.822004" lon="03.960185"><ele>-2.6</ele><time>2023-12-06T14:49:15Z</time><name>PT11104</name></trkpt>
<trkpt lat="51.821991" lon="03.960198"><ele>-2.6</ele><time>2023-12-06T14:49:16Z</time><name>PT11105</name></trkpt>
<trkpt lat="51.821980" lon="03.960207"><ele>-2.7</ele><time>2023-12-06T14:49:18Z</time><name>PT11106</name></trkpt>
<trkpt lat="51.821970" lon="03.960217"><ele>-2.5</ele><time>2023-12-06T14:49:18Z</time><name>PT11107</name></trkpt>
<trkpt lat="51.821962" lon="03.960228"><ele>-2.5</ele><time>2023-12-06T14:49:19Z</time><name>PT11108</name></trkpt>
<trkpt lat="51.821957" lon="03.960241"><ele>-2.6</ele><time>2023-12-06T14:49:21Z</time><name>PT11109</name></trkpt>
<trkpt lat="51.821950" lon="03.960254"><ele>-2.5</ele><time>2023-12-06T14:49:21Z</time><name>PT11110</name></trkpt>
<trkpt lat="51.821945" lon="03.960271"><ele>-2.4</ele><time>2023-12-06T14:49:22Z</time><name>PT11111</name></trkpt>
<trkpt lat="51.821930" lon="03.960282"><ele>-2.5</ele><time>2023-12-06T14:49:24Z</time><name>PT11112</name></trkpt>
<trkpt lat="51.821917" lon="03.960292"><ele>-2.5</ele><time>2023-12-06T14:49:24Z</time><name>PT11113</name></trkpt>
<trkpt lat="51.821907" lon="03.960297"><ele>-2.5</ele><time>2023-12-06T14:49:25Z</time><name>PT11114</name></trkpt>
<trkpt lat="51.821896" lon="03.960302"><ele>-2.6</ele><time>2023-12-06T14:49:27Z</time><name>PT11115</name></trkpt>
<trkpt lat="51.821887" lon="03.960309"><ele>-2.6</ele><time>2023-12-06T14:49:27Z</time><name>PT11116</name></trkpt>
<trkpt lat="51.821880" lon="03.960315"><ele>-2.8</ele><time>2023-12-06T14:49:28Z</time><name>PT11117</name></trkpt>
<trkpt lat="51.821872" lon="03.960325"><ele>-2.9</ele><time>2023-12-06T14:49:30Z</time><name>PT11118</name></trkpt>
<trkpt lat="51.821862" lon="03.960337"><ele>-2.9</ele><time>2023-12-06T14:49:30Z</time><name>PT11119</name></trkpt>
<trkpt lat="51.821851" lon="03.960347"><ele>-2.9</ele><time>2023-12-06T14:49:31Z</time><name>PT11120</name></trkpt>
<trkpt lat="51.821838" lon="03.960359"><ele>-2.9</ele><time>2023-12-06T14:49:33Z</time><name>PT11121</name></trkpt>
<trkpt lat="51.821827" lon="03.960370"><ele>-2.8</ele><time>2023-12-06T14:49:33Z</time><name>PT11122</name></trkpt>
<trkpt lat="51.821817" lon="03.960376"><ele>-2.8</ele><time>2023-12-06T14:49:34Z</time><name>PT11123</name></trkpt>
<trkpt lat="51.821809" lon="03.960384"><ele>-2.9</ele><time>2023-12-06T14:49:36Z</time><name>PT11124</name></trkpt>
<trkpt lat="51.821803" lon="03.960389"><ele>-2.9</ele><time>2023-12-06T14:49:36Z</time><name>PT11125</name></trkpt>
<trkpt lat="51.821796" lon="03.960400"><ele>-2.9</ele><time>2023-12-06T14:49:37Z</time><name>PT11126</name></trkpt>
<trkpt lat="51.821787" lon="03.960418"><ele>-2.8</ele><time>2023-12-06T14:49:39Z</time><name>PT11127</name></trkpt>
<trkpt lat="51.821778" lon="03.960433"><ele>-2.8</ele><time>2023-12-06T14:49:39Z</time><name>PT11128</name></trkpt>
<trkpt lat="51.821761" lon="03.960450"><ele>-2.8</ele><time>2023-12-06T14:49:42Z</time><name>PT11129</name></trkpt>
<trkpt lat="51.821754" lon="03.960460"><ele>-2.7</ele><time>2023-12-06T14:49:42Z</time><name>PT11130</name></trkpt>
<trkpt lat="51.821746" lon="03.960466"><ele>-2.8</ele><time>2023-12-06T14:49:43Z</time><name>PT11131</name></trkpt>
<trkpt lat="51.821738" lon="03.960476"><ele>-2.6</ele><time>2023-12-06T14:49:45Z</time><name>PT11132</name></trkpt>
<trkpt lat="51.821726" lon="03.960486"><ele>-2.6</ele><time>2023-12-06T14:49:45Z</time><name>PT11133</name></trkpt>
<trkpt lat="51.821712" lon="03.960491"><ele>-2.6</ele><time>2023-12-06T14:49:46Z</time><name>PT11134</name></trkpt>
<trkpt lat="51.821702" lon="03.960497"><ele>-2.5</ele><time>2023-12-06T14:49:48Z</time><name>PT11135</name></trkpt>
<trkpt lat="51.821697" lon="03.960505"><ele>-2.5</ele><time>2023-12-06T14:49:48Z</time><name>PT11136</name></trkpt>
<trkpt lat="51.821690" lon="03.960507"><ele>-2.6</ele><time>2023-12-06T14:49:49Z</time><name>PT11137</name></trkpt>
<trkpt lat="51.821680" lon="03.960519"><ele>-2.8</ele><time>2023-12-06T14:49:51Z</time><name>PT11138</name></trkpt>
<trkpt lat="51.821666" lon="03.960530"><ele>-2.8</ele><time>2023-12-06T14:49:51Z</time><name>PT11139</name></trkpt>
<trkpt lat="51.821653" lon="03.960534"><ele>-2.8</ele><time>2023-12-06T14:49:52Z</time><name>PT11140</name></trkpt>
<trkpt lat="51.821642" lon="03.960536"><ele>-2.8</ele><time>2023-12-06T14:49:54Z</time><name>PT11141</name></trkpt>
<trkpt lat="51.821634" lon="03.960541"><ele>-2.7</ele><time>2023-12-06T14:49:54Z</time><name>PT11142</name></trkpt>
<trkpt lat="51.821627" lon="03.960547"><ele>-2.6</ele><time>2023-12-06T14:49:55Z</time><name>PT11143</name></trkpt>
<trkpt lat="51.821618" lon="03.960550"><ele>-2.6</ele><time>2023-12-06T14:49:57Z</time><name>PT11144</name></trkpt>
<trkpt lat="51.821606" lon="03.960556"><ele>-2.8</ele><time>2023-12-06T14:49:57Z</time><name>PT11145</name></trkpt>
<trkpt lat="51.821593" lon="03.960561"><ele>-2.7</ele><time>2023-12-06T14:49:58Z</time><name>PT11146</name></trkpt>
<trkpt lat="51.821581" lon="03.960566"><ele>-2.7</ele><time>2023-12-06T14:50:00Z</time><name>PT11147</name></trkpt>
<trkpt lat="51.821571" lon="03.960570"><ele>-2.8</ele><time>2023-12-06T14:50:00Z</time><name>PT11148</name></trkpt>
<trkpt lat="51.821563" lon="03.960573"><ele>-2.9</ele><time>2023-12-06T14:50:01Z</time><name>PT11149</name></trkpt>
<trkpt lat="51.821553" lon="03.960576"><ele>-2.7</ele><time>2023-12-06T14:50:03Z</time><name>PT11150</name></trkpt>
<trkpt lat="51.821539" lon="03.960579"><ele>-2.7</ele><time>2023-12-06T14:50:03Z</time><name>PT11151</name></trkpt>
<trkpt lat="51.821523" lon="03.960582"><ele>-2.9</ele><time>2023-12-06T14:50:04Z</time><name>PT11152</name></trkpt>
<trkpt lat="51.821510" lon="03.960580"><ele>-2.8</ele><time>2023-12-06T14:50:06Z</time><name>PT11153</name></trkpt>
<trkpt lat="51.821500" lon="03.960582"><ele>-2.8</ele><time>2023-12-06T14:50:06Z</time><name>PT11154</name></trkpt>
<trkpt lat="51.821492" lon="03.960585"><ele>-2.9</ele><time>2023-12-06T14:50:07Z</time><name>PT11155</name></trkpt>
<trkpt lat="51.821485" lon="03.960585"><ele>-2.7</ele><time>2023-12-06T14:50:09Z</time><name>PT11156</name></trkpt>
<trkpt lat="51.821478" lon="03.960585"><ele>-2.6</ele><time>2023-12-06T14:50:09Z</time><name>PT11157</name></trkpt>
<trkpt lat="51.821465" lon="03.960582"><ele>-2.6</ele><time>2023-12-06T14:50:10Z</time><name>PT11158</name></trkpt>
<trkpt lat="51.821450" lon="03.960580"><ele>-2.5</ele><time>2023-12-06T14:50:12Z</time><name>PT11159</name></trkpt>
<trkpt lat="51.821436" lon="03.960575"><ele>-2.5</ele><time>2023-12-06T14:50:12Z</time><name>PT11160</name></trkpt>
<trkpt lat="51.821426" lon="03.960573"><ele>-2.8</ele><time>2023-12-06T14:50:13Z</time><name>PT11161</name></trkpt>
<trkpt lat="51.821419" lon="03.960574"><ele>-3</ele><time>2023-12-06T14:50:15Z</time><name>PT11162</name></trkpt>
<trkpt lat="51.821414" lon="03.960573"><ele>-3</ele><time>2023-12-06T14:50:15Z</time><name>PT11163</name></trkpt>
<trkpt lat="51.821407" lon="03.960569"><ele>-3</ele><time>2023-12-06T14:50:16Z</time><name>PT11164</name></trkpt>
<trkpt lat="51.821396" lon="03.960565"><ele>-3.1</ele><time>2023-12-06T14:50:18Z</time><name>PT11165</name></trkpt>
<trkpt lat="51.821381" lon="03.960558"><ele>-3</ele><time>2023-12-06T14:50:18Z</time><name>PT11166</name></trkpt>
<trkpt lat="51.821369" lon="03.960549"><ele>-3</ele><time>2023-12-06T14:50:19Z</time><name>PT11167</name></trkpt>
<trkpt lat="51.821366" lon="03.960551"><ele>-2.9</ele><time>2023-12-06T14:50:21Z</time><name>PT11168</name></trkpt>
<trkpt lat="51.821362" lon="03.960546"><ele>-3</ele><time>2023-12-06T14:50:21Z</time><name>PT11169</name></trkpt>
<trkpt lat="51.821358" lon="03.960549"><ele>-2.9</ele><time>2023-12-06T14:50:22Z</time><name>PT11170</name></trkpt>
<trkpt lat="51.821350" lon="03.960548"><ele>-3</ele><time>2023-12-06T14:50:24Z</time><name>PT11171</name></trkpt>
<trkpt lat="51.821341" lon="03.960549"><ele>-3</ele><time>2023-12-06T14:50:24Z</time><name>PT11172</name></trkpt>
<trkpt lat="51.821328" lon="03.960543"><ele>-3</ele><time>2023-12-06T14:50:25Z</time><name>PT11173</name></trkpt>
<trkpt lat="51.821315" lon="03.960530"><ele>-3</ele><time>2023-12-06T14:50:27Z</time><name>PT11174</name></trkpt>
<trkpt lat="51.821305" lon="03.960519"><ele>-3</ele><time>2023-12-06T14:50:27Z</time><name>PT11175</name></trkpt>
<trkpt lat="51.821298" lon="03.960511"><ele>-3.1</ele><time>2023-12-06T14:50:28Z</time><name>PT11176</name></trkpt>
<trkpt lat="51.821291" lon="03.960509"><ele>-3.2</ele><time>2023-12-06T14:50:30Z</time><name>PT11177</name></trkpt>
<trkpt lat="51.821283" lon="03.960504"><ele>-3.3</ele><time>2023-12-06T14:50:30Z</time><name>PT11178</name></trkpt>
<trkpt lat="51.821273" lon="03.960493"><ele>-3.4</ele><time>2023-12-06T14:50:31Z</time><name>PT11179</name></trkpt>
<trkpt lat="51.821260" lon="03.960482"><ele>-3.2</ele><time>2023-12-06T14:50:33Z</time><name>PT11180</name></trkpt>
<trkpt lat="51.821250" lon="03.960473"><ele>-3.3</ele><time>2023-12-06T14:50:33Z</time><name>PT11181</name></trkpt>
<trkpt lat="51.821243" lon="03.960465"><ele>-3.3</ele><time>2023-12-06T14:50:34Z</time><name>PT11182</name></trkpt>
<trkpt lat="51.821234" lon="03.960458"><ele>-3.3</ele><time>2023-12-06T14:50:36Z</time><name>PT11183</name></trkpt>
<trkpt lat="51.821227" lon="03.960456"><ele>-3.5</ele><time>2023-12-06T14:50:36Z</time><name>PT11184</name></trkpt>
<trkpt lat="51.821217" lon="03.960458"><ele>-3.4</ele><time>2023-12-06T14:50:37Z</time><name>PT11185</name></trkpt>
<trkpt lat="51.821209" lon="03.960461"><ele>-3.1</ele><time>2023-12-06T14:50:39Z</time><name>PT11186</name></trkpt>
<trkpt lat="51.821197" lon="03.960457"><ele>-3.2</ele><time>2023-12-06T14:50:39Z</time><name>PT11187</name></trkpt>
<trkpt lat="51.821184" lon="03.960456"><ele>-3</ele><time>2023-12-06T14:50:40Z</time><name>PT11188</name></trkpt>
<trkpt lat="51.821174" lon="03.960454"><ele>-2.8</ele><time>2023-12-06T14:50:42Z</time><name>PT11189</name></trkpt>
<trkpt lat="51.821168" lon="03.960453"><ele>-2.9</ele><time>2023-12-06T14:50:42Z</time><name>PT11190</name></trkpt>
<trkpt lat="51.821161" lon="03.960449"><ele>-3</ele><time>2023-12-06T14:50:43Z</time><name>PT11191</name></trkpt>
<trkpt lat="51.821158" lon="03.960447"><ele>-2.6</ele><time>2023-12-06T14:50:45Z</time><name>PT11192</name></trkpt>
<trkpt lat="51.821153" lon="03.960449"><ele>-2.7</ele><time>2023-12-06T14:50:45Z</time><name>PT11193</name></trkpt>
<trkpt lat="51.821140" lon="03.960446"><ele>-2.9</ele><time>2023-12-06T14:50:46Z</time><name>PT11194</name></trkpt>
<trkpt lat="51.821127" lon="03.960443"><ele>-2.7</ele><time>2023-12-06T14:50:48Z</time><name>PT11195</name></trkpt>
<trkpt lat="51.821118" lon="03.960442"><ele>-2.8</ele><time>2023-12-06T14:50:48Z</time><name>PT11196</name></trkpt>
<trkpt lat="51.821111" lon="03.960430"><ele>-3</ele><time>2023-12-06T14:50:49Z</time><name>PT11197</name></trkpt>
<trkpt lat="51.821102" lon="03.960423"><ele>-2.9</ele><time>2023-12-06T14:50:51Z</time><name>PT11198</name></trkpt>
<trkpt lat="51.821094" lon="03.960417"><ele>-2.8</ele><time>2023-12-06T14:50:51Z</time><name>PT11199</name></trkpt>
<trkpt lat="51.821085" lon="03.960410"><ele>-2.9</ele><time>2023-12-06T14:50:52Z</time><name>PT11200</name></trkpt>
<trkpt lat="51.821075" lon="03.960408"><ele>-2.7</ele><time>2023-12-06T14:50:54Z</time><name>PT11201</name></trkpt>
<trkpt lat="51.821064" lon="03.960407"><ele>-2.7</ele><time>2023-12-06T14:50:54Z</time><name>PT11202</name></trkpt>
<trkpt lat="51.821054" lon="03.960404"><ele>-2.7</ele><time>2023-12-06T14:50:55Z</time><name>PT11203</name></trkpt>
<trkpt lat="51.821045" lon="03.960398"><ele>-2.9</ele><time>2023-12-06T14:50:57Z</time><name>PT11204</name></trkpt>
<trkpt lat="51.821038" lon="03.960395"><ele>-3</ele><time>2023-12-06T14:50:57Z</time><name>PT11205</name></trkpt>
<trkpt lat="51.821033" lon="03.960393"><ele>-3.1</ele><time>2023-12-06T14:50:58Z</time><name>PT11206</name></trkpt>
<trkpt lat="51.821025" lon="03.960390"><ele>-3.2</ele><time>2023-12-06T14:51:00Z</time><name>PT11207</name></trkpt>
<trkpt lat="51.821014" lon="03.960390"><ele>-3.2</ele><time>2023-12-06T14:51:00Z</time><name>PT11208</name></trkpt>
<trkpt lat="51.820998" lon="03.960388"><ele>-3.1</ele><time>2023-12-06T14:51:01Z</time><name>PT11209</name></trkpt>
<trkpt lat="51.820983" lon="03.960386"><ele>-3.1</ele><time>2023-12-06T14:51:03Z</time><name>PT11210</name></trkpt>
<trkpt lat="51.820971" lon="03.960387"><ele>-3.2</ele><time>2023-12-06T14:51:03Z</time><name>PT11211</name></trkpt>
<trkpt lat="51.820960" lon="03.960386"><ele>-3.3</ele><time>2023-12-06T14:51:04Z</time><name>PT11212</name></trkpt>
<trkpt lat="51.820951" lon="03.960386"><ele>-3.3</ele><time>2023-12-06T14:51:06Z</time><name>PT11213</name></trkpt>
<trkpt lat="51.820944" lon="03.960387"><ele>-3.2</ele><time>2023-12-06T14:51:06Z</time><name>PT11214</name></trkpt>
<trkpt lat="51.820938" lon="03.960388"><ele>-3.2</ele><time>2023-12-06T14:51:07Z</time><name>PT11215</name></trkpt>
<trkpt lat="51.820926" lon="03.960389"><ele>-3.3</ele><time>2023-12-06T14:51:09Z</time><name>PT11216</name></trkpt>
<trkpt lat="51.820911" lon="03.960391"><ele>-3.2</ele><time>2023-12-06T14:51:09Z</time><name>PT11217</name></trkpt>
<trkpt lat="51.820897" lon="03.960399"><ele>-3.1</ele><time>2023-12-06T14:51:10Z</time><name>PT11218</name></trkpt>
<trkpt lat="51.820884" lon="03.960405"><ele>-3.1</ele><time>2023-12-06T14:51:12Z</time><name>PT11219</name></trkpt>
<trkpt lat="51.820871" lon="03.960404"><ele>-3</ele><time>2023-12-06T14:51:12Z</time><name>PT11220</name></trkpt>
<trkpt lat="51.820858" lon="03.960405"><ele>-3</ele><time>2023-12-06T14:51:13Z</time><name>PT11221</name></trkpt>
<trkpt lat="51.820849" lon="03.960400"><ele>-2.7</ele><time>2023-12-06T14:51:15Z</time><name>PT11222</name></trkpt>
<trkpt lat="51.820839" lon="03.960402"><ele>-2.7</ele><time>2023-12-06T14:51:15Z</time><name>PT11223</name></trkpt>
<trkpt lat="51.820829" lon="03.960411"><ele>-2.6</ele><time>2023-12-06T14:51:16Z</time><name>PT11224</name></trkpt>
<trkpt lat="51.820820" lon="03.960417"><ele>-2.5</ele><time>2023-12-06T14:51:18Z</time><name>PT11225</name></trkpt>
<trkpt lat="51.820811" lon="03.960425"><ele>-2.6</ele><time>2023-12-06T14:51:18Z</time><name>PT11226</name></trkpt>
<trkpt lat="51.820801" lon="03.960426"><ele>-2.8</ele><time>2023-12-06T14:51:19Z</time><name>PT11227</name></trkpt>
<trkpt lat="51.820790" lon="03.960433"><ele>-2.8</ele><time>2023-12-06T14:51:21Z</time><name>PT11228</name></trkpt>
<trkpt lat="51.820780" lon="03.960435"><ele>-2.7</ele><time>2023-12-06T14:51:21Z</time><name>PT11229</name></trkpt>
<trkpt lat="51.820770" lon="03.960434"><ele>-2.7</ele><time>2023-12-06T14:51:22Z</time><name>PT11230</name></trkpt>
<trkpt lat="51.820760" lon="03.960434"><ele>-2.6</ele><time>2023-12-06T14:51:24Z</time><name>PT11231</name></trkpt>
<trkpt lat="51.820753" lon="03.960434"><ele>-2.6</ele><time>2023-12-06T14:51:24Z</time><name>PT11232</name></trkpt>
<trkpt lat="51.820744" lon="03.960437"><ele>-2.6</ele><time>2023-12-06T14:51:25Z</time><name>PT11233</name></trkpt>
<trkpt lat="51.820736" lon="03.960441"><ele>-2.5</ele><time>2023-12-06T14:51:27Z</time><name>PT11234</name></trkpt>
<trkpt lat="51.820727" lon="03.960448"><ele>-2.5</ele><time>2023-12-06T14:51:27Z</time><name>PT11235</name></trkpt>
<trkpt lat="51.820718" lon="03.960454"><ele>-2.5</ele><time>2023-12-06T14:51:28Z</time><name>PT11236</name></trkpt>
<trkpt lat="51.820708" lon="03.960458"><ele>-2.4</ele><time>2023-12-06T14:51:30Z</time><name>PT11237</name></trkpt>
<trkpt lat="51.820698" lon="03.960460"><ele>-2.5</ele><time>2023-12-06T14:51:30Z</time><name>PT11238</name></trkpt>
<trkpt lat="51.820689" lon="03.960464"><ele>-2.5</ele><time>2023-12-06T14:51:31Z</time><name>PT11239</name></trkpt>
<trkpt lat="51.820679" lon="03.960468"><ele>-2.5</ele><time>2023-12-06T14:51:33Z</time><name>PT11240</name></trkpt>
<trkpt lat="51.820669" lon="03.960473"><ele>-2.7</ele><time>2023-12-06T14:51:33Z</time><name>PT11241</name></trkpt>
<trkpt lat="51.820657" lon="03.960480"><ele>-2.7</ele><time>2023-12-06T14:51:34Z</time><name>PT11242</name></trkpt>
<trkpt lat="51.820647" lon="03.960486"><ele>-2.7</ele><time>2023-12-06T14:51:36Z</time><name>PT11243</name></trkpt>
<trkpt lat="51.820637" lon="03.960489"><ele>-2.6</ele><time>2023-12-06T14:51:36Z</time><name>PT11244</name></trkpt>
<trkpt lat="51.820626" lon="03.960494"><ele>-2.7</ele><time>2023-12-06T14:51:37Z</time><name>PT11245</name></trkpt>
<trkpt lat="51.820614" lon="03.960500"><ele>-2.7</ele><time>2023-12-06T14:51:39Z</time><name>PT11246</name></trkpt>
<trkpt lat="51.820603" lon="03.960505"><ele>-2.9</ele><time>2023-12-06T14:51:39Z</time><name>PT11247</name></trkpt>
<trkpt lat="51.820592" lon="03.960510"><ele>-3</ele><time>2023-12-06T14:51:40Z</time><name>PT11248</name></trkpt>
<trkpt lat="51.820581" lon="03.960514"><ele>-3</ele><time>2023-12-06T14:51:42Z</time><name>PT11249</name></trkpt>
<trkpt lat="51.820571" lon="03.960517"><ele>-3</ele><time>2023-12-06T14:51:42Z</time><name>PT11250</name></trkpt>
<trkpt lat="51.820560" lon="03.960525"><ele>-3</ele><time>2023-12-06T14:51:43Z</time><name>PT11251</name></trkpt>
<trkpt lat="51.820548" lon="03.960528"><ele>-3.1</ele><time>2023-12-06T14:51:45Z</time><name>PT11252</name></trkpt>
<trkpt lat="51.820536" lon="03.960529"><ele>-3.2</ele><time>2023-12-06T14:51:45Z</time><name>PT11253</name></trkpt>
<trkpt lat="51.820526" lon="03.960532"><ele>-3.4</ele><time>2023-12-06T14:51:46Z</time><name>PT11254</name></trkpt>
<trkpt lat="51.820517" lon="03.960537"><ele>-3.6</ele><time>2023-12-06T14:51:48Z</time><name>PT11255</name></trkpt>
<trkpt lat="51.820508" lon="03.960539"><ele>-3.5</ele><time>2023-12-06T14:51:48Z</time><name>PT11256</name></trkpt>
<trkpt lat="51.820498" lon="03.960544"><ele>-3.3</ele><time>2023-12-06T14:51:49Z</time><name>PT11257</name></trkpt>
<trkpt lat="51.820488" lon="03.960548"><ele>-3.2</ele><time>2023-12-06T14:51:51Z</time><name>PT11258</name></trkpt>
<trkpt lat="51.820476" lon="03.960553"><ele>-3.2</ele><time>2023-12-06T14:51:51Z</time><name>PT11259</name></trkpt>
<trkpt lat="51.820458" lon="03.960559"><ele>-3.2</ele><time>2023-12-06T14:51:52Z</time><name>PT11260</name></trkpt>
<trkpt lat="51.820440" lon="03.960565"><ele>-3.4</ele><time>2023-12-06T14:51:54Z</time><name>PT11261</name></trkpt>
<trkpt lat="51.820430" lon="03.960572"><ele>-3.5</ele><time>2023-12-06T14:51:54Z</time><name>PT11262</name></trkpt>
<trkpt lat="51.820423" lon="03.960579"><ele>-3.4</ele><time>2023-12-06T14:51:55Z</time><name>PT11263</name></trkpt>
<trkpt lat="51.820415" lon="03.960583"><ele>-3.5</ele><time>2023-12-06T14:51:57Z</time><name>PT11264</name></trkpt>
<trkpt lat="51.820406" lon="03.960589"><ele>-3.5</ele><time>2023-12-06T14:51:57Z</time><name>PT11265</name></trkpt>
<trkpt lat="51.820395" lon="03.960600"><ele>-3.4</ele><time>2023-12-06T14:51:58Z</time><name>PT11266</name></trkpt>
<trkpt lat="51.820384" lon="03.960607"><ele>-3.3</ele><time>2023-12-06T14:52:00Z</time><name>PT11267</name></trkpt>
<trkpt lat="51.820377" lon="03.960615"><ele>-3.3</ele><time>2023-12-06T14:52:00Z</time><name>PT11268</name></trkpt>
<trkpt lat="51.820369" lon="03.960623"><ele>-3.3</ele><time>2023-12-06T14:52:01Z</time><name>PT11269</name></trkpt>
<trkpt lat="51.820362" lon="03.960627"><ele>-3.3</ele><time>2023-12-06T14:52:03Z</time><name>PT11270</name></trkpt>
<trkpt lat="51.820353" lon="03.960629"><ele>-3.4</ele><time>2023-12-06T14:52:03Z</time><name>PT11271</name></trkpt>
<trkpt lat="51.820343" lon="03.960633"><ele>-3.5</ele><time>2023-12-06T14:52:04Z</time><name>PT11272</name></trkpt>
<trkpt lat="51.820330" lon="03.960638"><ele>-3.5</ele><time>2023-12-06T14:52:06Z</time><name>PT11273</name></trkpt>
<trkpt lat="51.820317" lon="03.960646"><ele>-3.4</ele><time>2023-12-06T14:52:06Z</time><name>PT11274</name></trkpt>
<trkpt lat="51.820310" lon="03.960652"><ele>-3.4</ele><time>2023-12-06T14:52:07Z</time><name>PT11275</name></trkpt>
<trkpt lat="51.820302" lon="03.960658"><ele>-3.2</ele><time>2023-12-06T14:52:09Z</time><name>PT11276</name></trkpt>
<trkpt lat="51.820294" lon="03.960664"><ele>-3.3</ele><time>2023-12-06T14:52:09Z</time><name>PT11277</name></trkpt>
<trkpt lat="51.820283" lon="03.960666"><ele>-3.3</ele><time>2023-12-06T14:52:10Z</time><name>PT11278</name></trkpt>
<trkpt lat="51.820273" lon="03.960668"><ele>-3.4</ele><time>2023-12-06T14:52:12Z</time><name>PT11279</name></trkpt>
<trkpt lat="51.820263" lon="03.960671"><ele>-3.5</ele><time>2023-12-06T14:52:12Z</time><name>PT11280</name></trkpt>
<trkpt lat="51.820252" lon="03.960676"><ele>-3.4</ele><time>2023-12-06T14:52:13Z</time><name>PT11281</name></trkpt>
<trkpt lat="51.820242" lon="03.960685"><ele>-3.4</ele><time>2023-12-06T14:52:15Z</time><name>PT11282</name></trkpt>
<trkpt lat="51.820235" lon="03.960690"><ele>-3.5</ele><time>2023-12-06T14:52:15Z</time><name>PT11283</name></trkpt>
<trkpt lat="51.820227" lon="03.960698"><ele>-3.5</ele><time>2023-12-06T14:52:16Z</time><name>PT11284</name></trkpt>
<trkpt lat="51.820217" lon="03.960705"><ele>-3.6</ele><time>2023-12-06T14:52:18Z</time><name>PT11285</name></trkpt>
<trkpt lat="51.820208" lon="03.960709"><ele>-3.3</ele><time>2023-12-06T14:52:18Z</time><name>PT11286</name></trkpt>
<trkpt lat="51.820198" lon="03.960708"><ele>-3.2</ele><time>2023-12-06T14:52:19Z</time><name>PT11287</name></trkpt>
<trkpt lat="51.820186" lon="03.960715"><ele>-3.2</ele><time>2023-12-06T14:52:21Z</time><name>PT11288</name></trkpt>
<trkpt lat="51.820176" lon="03.960721"><ele>-3.1</ele><time>2023-12-06T14:52:21Z</time><name>PT11289</name></trkpt>
<trkpt lat="51.820169" lon="03.960723"><ele>-3.4</ele><time>2023-12-06T14:52:22Z</time><name>PT11290</name></trkpt>
<trkpt lat="51.820162" lon="03.960725"><ele>-3.5</ele><time>2023-12-06T14:52:24Z</time><name>PT11291</name></trkpt>
<trkpt lat="51.820154" lon="03.960729"><ele>-3.5</ele><time>2023-12-06T14:52:24Z</time><name>PT11292</name></trkpt>
<trkpt lat="51.820146" lon="03.960736"><ele>-3.5</ele><time>2023-12-06T14:52:25Z</time><name>PT11293</name></trkpt>
<trkpt lat="51.820138" lon="03.960742"><ele>-3.3</ele><time>2023-12-06T14:52:27Z</time><name>PT11294</name></trkpt>
<trkpt lat="51.820130" lon="03.960747"><ele>-3.4</ele><time>2023-12-06T14:52:27Z</time><name>PT11295</name></trkpt>
<trkpt lat="51.820121" lon="03.960752"><ele>-3.2</ele><time>2023-12-06T14:52:28Z</time><name>PT11296</name></trkpt>
<trkpt lat="51.820112" lon="03.960753"><ele>-3</ele><time>2023-12-06T14:52:30Z</time><name>PT11297</name></trkpt>
<trkpt lat="51.820099" lon="03.960758"><ele>-3.2</ele><time>2023-12-06T14:52:30Z</time><name>PT11298</name></trkpt>
<trkpt lat="51.820086" lon="03.960764"><ele>-3.2</ele><time>2023-12-06T14:52:31Z</time><name>PT11299</name></trkpt>
<trkpt lat="51.820073" lon="03.960774"><ele>-3.3</ele><time>2023-12-06T14:52:33Z</time><name>PT11300</name></trkpt>
<trkpt lat="51.820063" lon="03.960779"><ele>-3.3</ele><time>2023-12-06T14:52:33Z</time><name>PT11301</name></trkpt>
<trkpt lat="51.820055" lon="03.960782"><ele>-3.3</ele><time>2023-12-06T14:52:34Z</time><name>PT11302</name></trkpt>
<trkpt lat="51.820047" lon="03.960786"><ele>-3.4</ele><time>2023-12-06T14:52:36Z</time><name>PT11303</name></trkpt>
<trkpt lat="51.820039" lon="03.960789"><ele>-3.5</ele><time>2023-12-06T14:52:36Z</time><name>PT11304</name></trkpt>
<trkpt lat="51.820026" lon="03.960792"><ele>-3.4</ele><time>2023-12-06T14:52:37Z</time><name>PT11305</name></trkpt>
<trkpt lat="51.820013" lon="03.960796"><ele>-3.5</ele><time>2023-12-06T14:52:39Z</time><name>PT11306</name></trkpt>
<trkpt lat="51.820002" lon="03.960801"><ele>-3.5</ele><time>2023-12-06T14:52:39Z</time><name>PT11307</name></trkpt>
<trkpt lat="51.819994" lon="03.960806"><ele>-3.4</ele><time>2023-12-06T14:52:40Z</time><name>PT11308</name></trkpt>
<trkpt lat="51.819987" lon="03.960808"><ele>-3.4</ele><time>2023-12-06T14:52:42Z</time><name>PT11309</name></trkpt>
<trkpt lat="51.819979" lon="03.960809"><ele>-3.4</ele><time>2023-12-06T14:52:42Z</time><name>PT11310</name></trkpt>
<trkpt lat="51.819969" lon="03.960811"><ele>-3.3</ele><time>2023-12-06T14:52:43Z</time><name>PT11311</name></trkpt>
<trkpt lat="51.819954" lon="03.960816"><ele>-3.3</ele><time>2023-12-06T14:52:45Z</time><name>PT11312</name></trkpt>
<trkpt lat="51.819943" lon="03.960827"><ele>-3.2</ele><time>2023-12-06T14:52:45Z</time><name>PT11313</name></trkpt>
<trkpt lat="51.819935" lon="03.960834"><ele>-3.2</ele><time>2023-12-06T14:52:46Z</time><name>PT11314</name></trkpt>
<trkpt lat="51.819928" lon="03.960838"><ele>-3.3</ele><time>2023-12-06T14:52:48Z</time><name>PT11315</name></trkpt>
<trkpt lat="51.819920" lon="03.960839"><ele>-3.5</ele><time>2023-12-06T14:52:48Z</time><name>PT11316</name></trkpt>
<trkpt lat="51.819911" lon="03.960842"><ele>-3.5</ele><time>2023-12-06T14:52:49Z</time><name>PT11317</name></trkpt>
<trkpt lat="51.819901" lon="03.960849"><ele>-3.5</ele><time>2023-12-06T14:52:51Z</time><name>PT11318</name></trkpt>
<trkpt lat="51.819889" lon="03.960861"><ele>-3.4</ele><time>2023-12-06T14:52:51Z</time><name>PT11319</name></trkpt>
<trkpt lat="51.819876" lon="03.960873"><ele>-3.5</ele><time>2023-12-06T14:52:52Z</time><name>PT11320</name></trkpt>
<trkpt lat="51.819863" lon="03.960881"><ele>-3.5</ele><time>2023-12-06T14:52:54Z</time><name>PT11321</name></trkpt>
<trkpt lat="51.819853" lon="03.960889"><ele>-3.6</ele><time>2023-12-06T14:52:54Z</time><name>PT11322</name></trkpt>
<trkpt lat="51.819843" lon="03.960890"><ele>-3.5</ele><time>2023-12-06T14:52:55Z</time><name>PT11323</name></trkpt>
<trkpt lat="51.819832" lon="03.960895"><ele>-3.5</ele><time>2023-12-06T14:52:57Z</time><name>PT11324</name></trkpt>
<trkpt lat="51.819822" lon="03.960901"><ele>-3.4</ele><time>2023-12-06T14:52:57Z</time><name>PT11325</name></trkpt>
<trkpt lat="51.819811" lon="03.960905"><ele>-3.2</ele><time>2023-12-06T14:52:58Z</time><name>PT11326</name></trkpt>
<trkpt lat="51.819801" lon="03.960915"><ele>-3.3</ele><time>2023-12-06T14:53:00Z</time><name>PT11327</name></trkpt>
<trkpt lat="51.819790" lon="03.960922"><ele>-3.4</ele><time>2023-12-06T14:53:00Z</time><name>PT11328</name></trkpt>
<trkpt lat="51.819779" lon="03.960927"><ele>-3.4</ele><time>2023-12-06T14:53:01Z</time><name>PT11329</name></trkpt>
<trkpt lat="51.819770" lon="03.960930"><ele>-3.5</ele><time>2023-12-06T14:53:03Z</time><name>PT11330</name></trkpt>
<trkpt lat="51.819762" lon="03.960932"><ele>-3.5</ele><time>2023-12-06T14:53:03Z</time><name>PT11331</name></trkpt>
<trkpt lat="51.819753" lon="03.960933"><ele>-3.4</ele><time>2023-12-06T14:53:04Z</time><name>PT11332</name></trkpt>
<trkpt lat="51.819743" lon="03.960934"><ele>-3.5</ele><time>2023-12-06T14:53:06Z</time><name>PT11333</name></trkpt>
<trkpt lat="51.819730" lon="03.960937"><ele>-3.4</ele><time>2023-12-06T14:53:06Z</time><name>PT11334</name></trkpt>
<trkpt lat="51.819718" lon="03.960942"><ele>-3.4</ele><time>2023-12-06T14:53:07Z</time><name>PT11335</name></trkpt>
<trkpt lat="51.819705" lon="03.960950"><ele>-3.5</ele><time>2023-12-06T14:53:09Z</time><name>PT11336</name></trkpt>
<trkpt lat="51.819694" lon="03.960954"><ele>-3.3</ele><time>2023-12-06T14:53:09Z</time><name>PT11337</name></trkpt>
<trkpt lat="51.819686" lon="03.960959"><ele>-3.3</ele><time>2023-12-06T14:53:10Z</time><name>PT11338</name></trkpt>
<trkpt lat="51.819677" lon="03.960962"><ele>-3.4</ele><time>2023-12-06T14:53:12Z</time><name>PT11339</name></trkpt>
<trkpt lat="51.819666" lon="03.960965"><ele>-3.4</ele><time>2023-12-06T14:53:12Z</time><name>PT11340</name></trkpt>
<trkpt lat="51.819655" lon="03.960968"><ele>-3.5</ele><time>2023-12-06T14:53:13Z</time><name>PT11341</name></trkpt>
<trkpt lat="51.819643" lon="03.960972"><ele>-3.6</ele><time>2023-12-06T14:53:15Z</time><name>PT11342</name></trkpt>
<trkpt lat="51.819628" lon="03.960977"><ele>-3.6</ele><time>2023-12-06T14:53:15Z</time><name>PT11343</name></trkpt>
<trkpt lat="51.819616" lon="03.960979"><ele>-3.5</ele><time>2023-12-06T14:53:16Z</time><name>PT11344</name></trkpt>
<trkpt lat="51.819607" lon="03.960985"><ele>-3.5</ele><time>2023-12-06T14:53:18Z</time><name>PT11345</name></trkpt>
<trkpt lat="51.819599" lon="03.960991"><ele>-3.5</ele><time>2023-12-06T14:53:18Z</time><name>PT11346</name></trkpt>
<trkpt lat="51.819591" lon="03.960996"><ele>-3.5</ele><time>2023-12-06T14:53:19Z</time><name>PT11347</name></trkpt>
<trkpt lat="51.819581" lon="03.961004"><ele>-3.4</ele><time>2023-12-06T14:53:21Z</time><name>PT11348</name></trkpt>
<trkpt lat="51.819572" lon="03.961010"><ele>-3.3</ele><time>2023-12-06T14:53:21Z</time><name>PT11349</name></trkpt>
<trkpt lat="51.819560" lon="03.961020"><ele>-3.4</ele><time>2023-12-06T14:53:22Z</time><name>PT11350</name></trkpt>
<trkpt lat="51.819545" lon="03.961032"><ele>-3.4</ele><time>2023-12-06T14:53:24Z</time><name>PT11351</name></trkpt>
<trkpt lat="51.819528" lon="03.961041"><ele>-3.4</ele><time>2023-12-06T14:53:24Z</time><name>PT11352</name></trkpt>
<trkpt lat="51.819517" lon="03.961050"><ele>-3.5</ele><time>2023-12-06T14:53:25Z</time><name>PT11353</name></trkpt>
<trkpt lat="51.819509" lon="03.961058"><ele>-3.5</ele><time>2023-12-06T14:53:27Z</time><name>PT11354</name></trkpt>
<trkpt lat="51.819501" lon="03.961061"><ele>-3.5</ele><time>2023-12-06T14:53:27Z</time><name>PT11355</name></trkpt>
<trkpt lat="51.819490" lon="03.961064"><ele>-3.7</ele><time>2023-12-06T14:53:28Z</time><name>PT11356</name></trkpt>
<trkpt lat="51.819479" lon="03.961065"><ele>-3.7</ele><time>2023-12-06T14:53:30Z</time><name>PT11357</name></trkpt>
<trkpt lat="51.819468" lon="03.961070"><ele>-3.7</ele><time>2023-12-06T14:53:30Z</time><name>PT11358</name></trkpt>
<trkpt lat="51.819456" lon="03.961077"><ele>-3.7</ele><time>2023-12-06T14:53:31Z</time><name>PT11359</name></trkpt>
<trkpt lat="51.819443" lon="03.961082"><ele>-3.6</ele><time>2023-12-06T14:53:33Z</time><name>PT11360</name></trkpt>
<trkpt lat="51.819429" lon="03.961091"><ele>-3.8</ele><time>2023-12-06T14:53:33Z</time><name>PT11361</name></trkpt>
<trkpt lat="51.819419" lon="03.961099"><ele>-3.8</ele><time>2023-12-06T14:53:34Z</time><name>PT11362</name></trkpt>
<trkpt lat="51.819410" lon="03.961104"><ele>-3.8</ele><time>2023-12-06T14:53:36Z</time><name>PT11363</name></trkpt>
<trkpt lat="51.819403" lon="03.961106"><ele>-3.6</ele><time>2023-12-06T14:53:36Z</time><name>PT11364</name></trkpt>
<trkpt lat="51.819395" lon="03.961108"><ele>-3.6</ele><time>2023-12-06T14:53:37Z</time><name>PT11365</name></trkpt>
<trkpt lat="51.819386" lon="03.961112"><ele>-3.5</ele><time>2023-12-06T14:53:39Z</time><name>PT11366</name></trkpt>
<trkpt lat="51.819375" lon="03.961116"><ele>-3.4</ele><time>2023-12-06T14:53:39Z</time><name>PT11367</name></trkpt>
<trkpt lat="51.819362" lon="03.961120"><ele>-3.3</ele><time>2023-12-06T14:53:40Z</time><name>PT11368</name></trkpt>
<trkpt lat="51.819350" lon="03.961124"><ele>-3.3</ele><time>2023-12-06T14:53:42Z</time><name>PT11369</name></trkpt>
<trkpt lat="51.819338" lon="03.961130"><ele>-3.4</ele><time>2023-12-06T14:53:42Z</time><name>PT11370</name></trkpt>
<trkpt lat="51.819326" lon="03.961137"><ele>-3.5</ele><time>2023-12-06T14:53:43Z</time><name>PT11371</name></trkpt>
<trkpt lat="51.819315" lon="03.961146"><ele>-3.7</ele><time>2023-12-06T14:53:45Z</time><name>PT11372</name></trkpt>
<trkpt lat="51.819305" lon="03.961155"><ele>-3.6</ele><time>2023-12-06T14:53:45Z</time><name>PT11373</name></trkpt>
<trkpt lat="51.819293" lon="03.961167"><ele>-3.5</ele><time>2023-12-06T14:53:46Z</time><name>PT11374</name></trkpt>
<trkpt lat="51.819283" lon="03.961176"><ele>-3.5</ele><time>2023-12-06T14:53:48Z</time><name>PT11375</name></trkpt>
<trkpt lat="51.819274" lon="03.961180"><ele>-3.4</ele><time>2023-12-06T14:53:48Z</time><name>PT11376</name></trkpt>
<trkpt lat="51.819265" lon="03.961181"><ele>-3.5</ele><time>2023-12-06T14:53:49Z</time><name>PT11377</name></trkpt>
<trkpt lat="51.819257" lon="03.961178"><ele>-3.7</ele><time>2023-12-06T14:53:51Z</time><name>PT11378</name></trkpt>
<trkpt lat="51.819250" lon="03.961176"><ele>-3.8</ele><time>2023-12-06T14:53:51Z</time><name>PT11379</name></trkpt>
<trkpt lat="51.819241" lon="03.961174"><ele>-3.7</ele><time>2023-12-06T14:53:52Z</time><name>PT11380</name></trkpt>
<trkpt lat="51.819229" lon="03.961175"><ele>-4</ele><time>2023-12-06T14:53:54Z</time><name>PT11381</name></trkpt>
<trkpt lat="51.819216" lon="03.961182"><ele>-4</ele><time>2023-12-06T14:53:54Z</time><name>PT11382</name></trkpt>
<trkpt lat="51.819202" lon="03.961190"><ele>-3.8</ele><time>2023-12-06T14:53:55Z</time><name>PT11383</name></trkpt>
<trkpt lat="51.819184" lon="03.961200"><ele>-3.8</ele><time>2023-12-06T14:53:57Z</time><name>PT11384</name></trkpt>
<trkpt lat="51.819172" lon="03.961207"><ele>-3.8</ele><time>2023-12-06T14:53:57Z</time><name>PT11385</name></trkpt>
<trkpt lat="51.819161" lon="03.961213"><ele>-3.5</ele><time>2023-12-06T14:53:58Z</time><name>PT11386</name></trkpt>
<trkpt lat="51.819150" lon="03.961216"><ele>-3.5</ele><time>2023-12-06T14:54:00Z</time><name>PT11387</name></trkpt>
<trkpt lat="51.819139" lon="03.961220"><ele>-3.2</ele><time>2023-12-06T14:54:00Z</time><name>PT11388</name></trkpt>
<trkpt lat="51.819130" lon="03.961221"><ele>-3.1</ele><time>2023-12-06T14:54:01Z</time><name>PT11389</name></trkpt>
<trkpt lat="51.819121" lon="03.961227"><ele>-3</ele><time>2023-12-06T14:54:03Z</time><name>PT11390</name></trkpt>
<trkpt lat="51.819110" lon="03.961233"><ele>-3</ele><time>2023-12-06T14:54:03Z</time><name>PT11391</name></trkpt>
<trkpt lat="51.819101" lon="03.961236"><ele>-3.3</ele><time>2023-12-06T14:54:04Z</time><name>PT11392</name></trkpt>
<trkpt lat="51.819091" lon="03.961240"><ele>-3.6</ele><time>2023-12-06T14:54:06Z</time><name>PT11393</name></trkpt>
<trkpt lat="51.819082" lon="03.961243"><ele>-3.8</ele><time>2023-12-06T14:54:06Z</time><name>PT11394</name></trkpt>
<trkpt lat="51.819072" lon="03.961245"><ele>-3.9</ele><time>2023-12-06T14:54:07Z</time><name>PT11395</name></trkpt>
<trkpt lat="51.819061" lon="03.961247"><ele>-3.9</ele><time>2023-12-06T14:54:09Z</time><name>PT11396</name></trkpt>
<trkpt lat="51.819050" lon="03.961248"><ele>-3.9</ele><time>2023-12-06T14:54:09Z</time><name>PT11397</name></trkpt>
<trkpt lat="51.819038" lon="03.961252"><ele>-3.7</ele><time>2023-12-06T14:54:10Z</time><name>PT11398</name></trkpt>
<trkpt lat="51.819025" lon="03.961258"><ele>-3.7</ele><time>2023-12-06T14:54:12Z</time><name>PT11399</name></trkpt>
<trkpt lat="51.819014" lon="03.961258"><ele>-3.7</ele><time>2023-12-06T14:54:12Z</time><name>PT11400</name></trkpt>
<trkpt lat="51.819002" lon="03.961261"><ele>-3.4</ele><time>2023-12-06T14:54:13Z</time><name>PT11401</name></trkpt>
<trkpt lat="51.818992" lon="03.961262"><ele>-3.4</ele><time>2023-12-06T14:54:15Z</time><name>PT11402</name></trkpt>
<trkpt lat="51.818973" lon="03.961270"><ele>-3.3</ele><time>2023-12-06T14:54:15Z</time><name>PT11403</name></trkpt>
<trkpt lat="51.818954" lon="03.961284"><ele>-3.4</ele><time>2023-12-06T14:54:16Z</time><name>PT11404</name></trkpt>
<trkpt lat="51.818942" lon="03.961297"><ele>-3.5</ele><time>2023-12-06T14:54:18Z</time><name>PT11405</name></trkpt>
<trkpt lat="51.818931" lon="03.961305"><ele>-3.7</ele><time>2023-12-06T14:54:18Z</time><name>PT11406</name></trkpt>
<trkpt lat="51.818923" lon="03.961314"><ele>-4</ele><time>2023-12-06T14:54:19Z</time><name>PT11407</name></trkpt>
<trkpt lat="51.818916" lon="03.961319"><ele>-4</ele><time>2023-12-06T14:54:21Z</time><name>PT11408</name></trkpt>
<trkpt lat="51.818907" lon="03.961320"><ele>-4.2</ele><time>2023-12-06T14:54:21Z</time><name>PT11409</name></trkpt>
<trkpt lat="51.818898" lon="03.961320"><ele>-4.2</ele><time>2023-12-06T14:54:22Z</time><name>PT11410</name></trkpt>
<trkpt lat="51.818886" lon="03.961323"><ele>-4</ele><time>2023-12-06T14:54:24Z</time><name>PT11411</name></trkpt>
<trkpt lat="51.818873" lon="03.961325"><ele>-4</ele><time>2023-12-06T14:54:24Z</time><name>PT11412</name></trkpt>
<trkpt lat="51.818860" lon="03.961324"><ele>-3.9</ele><time>2023-12-06T14:54:25Z</time><name>PT11413</name></trkpt>
<trkpt lat="51.818847" lon="03.961325"><ele>-3.7</ele><time>2023-12-06T14:54:27Z</time><name>PT11414</name></trkpt>
<trkpt lat="51.818832" lon="03.961334"><ele>-3.7</ele><time>2023-12-06T14:54:27Z</time><name>PT11415</name></trkpt>
<trkpt lat="51.818817" lon="03.961342"><ele>-4</ele><time>2023-12-06T14:54:28Z</time><name>PT11416</name></trkpt>
<trkpt lat="51.818805" lon="03.961350"><ele>-4.1</ele><time>2023-12-06T14:54:30Z</time><name>PT11417</name></trkpt>
<trkpt lat="51.818794" lon="03.961359"><ele>-4</ele><time>2023-12-06T14:54:30Z</time><name>PT11418</name></trkpt>
<trkpt lat="51.818785" lon="03.961369"><ele>-4</ele><time>2023-12-06T14:54:31Z</time><name>PT11419</name></trkpt>
<trkpt lat="51.818777" lon="03.961377"><ele>-3.8</ele><time>2023-12-06T14:54:33Z</time><name>PT11420</name></trkpt>
<trkpt lat="51.818769" lon="03.961381"><ele>-3.7</ele><time>2023-12-06T14:54:33Z</time><name>PT11421</name></trkpt>
<trkpt lat="51.818761" lon="03.961384"><ele>-3.7</ele><time>2023-12-06T14:54:34Z</time><name>PT11422</name></trkpt>
<trkpt lat="51.818752" lon="03.961391"><ele>-3.9</ele><time>2023-12-06T14:54:36Z</time><name>PT11423</name></trkpt>
<trkpt lat="51.818745" lon="03.961393"><ele>-3.9</ele><time>2023-12-06T14:54:36Z</time><name>PT11424</name></trkpt>
<trkpt lat="51.818736" lon="03.961395"><ele>-4</ele><time>2023-12-06T14:54:37Z</time><name>PT11425</name></trkpt>
<trkpt lat="51.818728" lon="03.961402"><ele>-4</ele><time>2023-12-06T14:54:39Z</time><name>PT11426</name></trkpt>
<trkpt lat="51.818717" lon="03.961409"><ele>-3.8</ele><time>2023-12-06T14:54:39Z</time><name>PT11427</name></trkpt>
<trkpt lat="51.818705" lon="03.961417"><ele>-3.8</ele><time>2023-12-06T14:54:40Z</time><name>PT11428</name></trkpt>
<trkpt lat="51.818693" lon="03.961422"><ele>-3.8</ele><time>2023-12-06T14:54:42Z</time><name>PT11429</name></trkpt>
<trkpt lat="51.818679" lon="03.961429"><ele>-3.7</ele><time>2023-12-06T14:54:42Z</time><name>PT11430</name></trkpt>
<trkpt lat="51.818663" lon="03.961433"><ele>-3.8</ele><time>2023-12-06T14:54:43Z</time><name>PT11431</name></trkpt>
<trkpt lat="51.818653" lon="03.961434"><ele>-3.8</ele><time>2023-12-06T14:54:45Z</time><name>PT11432</name></trkpt>
<trkpt lat="51.818646" lon="03.961434"><ele>-3.7</ele><time>2023-12-06T14:54:45Z</time><name>PT11433</name></trkpt>
<trkpt lat="51.818643" lon="03.961441"><ele>-3.6</ele><time>2023-12-06T14:54:46Z</time><name>PT11434</name></trkpt>
<trkpt lat="51.818637" lon="03.961447"><ele>-3.5</ele><time>2023-12-06T14:54:48Z</time><name>PT11435</name></trkpt>
<trkpt lat="51.818628" lon="03.961449"><ele>-3.5</ele><time>2023-12-06T14:54:48Z</time><name>PT11436</name></trkpt>
<trkpt lat="51.818617" lon="03.961453"><ele>-3.5</ele><time>2023-12-06T14:54:49Z</time><name>PT11437</name></trkpt>
<trkpt lat="51.818604" lon="03.961460"><ele>-3.9</ele><time>2023-12-06T14:54:51Z</time><name>PT11438</name></trkpt>
<trkpt lat="51.818591" lon="03.961466"><ele>-3.8</ele><time>2023-12-06T14:54:51Z</time><name>PT11439</name></trkpt>
<trkpt lat="51.818578" lon="03.961469"><ele>-3.9</ele><time>2023-12-06T14:54:52Z</time><name>PT11440</name></trkpt>
<trkpt lat="51.818565" lon="03.961474"><ele>-4</ele><time>2023-12-06T14:54:54Z</time><name>PT11441</name></trkpt>
<trkpt lat="51.818552" lon="03.961480"><ele>-4</ele><time>2023-12-06T14:54:54Z</time><name>PT11442</name></trkpt>
<trkpt lat="51.818540" lon="03.961488"><ele>-3.9</ele><time>2023-12-06T14:54:55Z</time><name>PT11443</name></trkpt>
<trkpt lat="51.818530" lon="03.961495"><ele>-3.9</ele><time>2023-12-06T14:54:57Z</time><name>PT11444</name></trkpt>
<trkpt lat="51.818523" lon="03.961502"><ele>-3.8</ele><time>2023-12-06T14:54:57Z</time><name>PT11445</name></trkpt>
<trkpt lat="51.818515" lon="03.961511"><ele>-3.8</ele><time>2023-12-06T14:54:58Z</time><name>PT11446</name></trkpt>
<trkpt lat="51.818505" lon="03.961515"><ele>-4</ele><time>2023-12-06T14:55:00Z</time><name>PT11447</name></trkpt>
<trkpt lat="51.818494" lon="03.961517"><ele>-4</ele><time>2023-12-06T14:55:00Z</time><name>PT11448</name></trkpt>
<trkpt lat="51.818482" lon="03.961519"><ele>-4.2</ele><time>2023-12-06T14:55:01Z</time><name>PT11449</name></trkpt>
<trkpt lat="51.818468" lon="03.961524"><ele>-4.4</ele><time>2023-12-06T14:55:03Z</time><name>PT11450</name></trkpt>
<trkpt lat="51.818453" lon="03.961529"><ele>-4.3</ele><time>2023-12-06T14:55:03Z</time><name>PT11451</name></trkpt>
<trkpt lat="51.818440" lon="03.961535"><ele>-4.3</ele><time>2023-12-06T14:55:04Z</time><name>PT11452</name></trkpt>
<trkpt lat="51.818429" lon="03.961541"><ele>-4.2</ele><time>2023-12-06T14:55:06Z</time><name>PT11453</name></trkpt>
<trkpt lat="51.818423" lon="03.961547"><ele>-4.2</ele><time>2023-12-06T14:55:06Z</time><name>PT11454</name></trkpt>
<trkpt lat="51.818418" lon="03.961551"><ele>-4.2</ele><time>2023-12-06T14:55:07Z</time><name>PT11455</name></trkpt>
<trkpt lat="51.818410" lon="03.961554"><ele>-4.2</ele><time>2023-12-06T14:55:09Z</time><name>PT11456</name></trkpt>
<trkpt lat="51.818399" lon="03.961564"><ele>-4</ele><time>2023-12-06T14:55:09Z</time><name>PT11457</name></trkpt>
<trkpt lat="51.818385" lon="03.961580"><ele>-4</ele><time>2023-12-06T14:55:10Z</time><name>PT11458</name></trkpt>
<trkpt lat="51.818372" lon="03.961590"><ele>-4.1</ele><time>2023-12-06T14:55:12Z</time><name>PT11459</name></trkpt>
<trkpt lat="51.818363" lon="03.961594"><ele>-4</ele><time>2023-12-06T14:55:12Z</time><name>PT11460</name></trkpt>
<trkpt lat="51.818355" lon="03.961595"><ele>-4.1</ele><time>2023-12-06T14:55:13Z</time><name>PT11461</name></trkpt>
<trkpt lat="51.818348" lon="03.961595"><ele>-4.1</ele><time>2023-12-06T14:55:15Z</time><name>PT11462</name></trkpt>
<trkpt lat="51.818339" lon="03.961594"><ele>-4.1</ele><time>2023-12-06T14:55:15Z</time><name>PT11463</name></trkpt>
<trkpt lat="51.818330" lon="03.961593"><ele>-4.1</ele><time>2023-12-06T14:55:16Z</time><name>PT11464</name></trkpt>
<trkpt lat="51.818319" lon="03.961595"><ele>-4</ele><time>2023-12-06T14:55:18Z</time><name>PT11465</name></trkpt>
<trkpt lat="51.818305" lon="03.961598"><ele>-4.1</ele><time>2023-12-06T14:55:18Z</time><name>PT11466</name></trkpt>
<trkpt lat="51.818290" lon="03.961603"><ele>-4.1</ele><time>2023-12-06T14:55:19Z</time><name>PT11467</name></trkpt>
<trkpt lat="51.818277" lon="03.961614"><ele>-4.1</ele><time>2023-12-06T14:55:21Z</time><name>PT11468</name></trkpt>
<trkpt lat="51.818268" lon="03.961623"><ele>-4</ele><time>2023-12-06T14:55:21Z</time><name>PT11469</name></trkpt>
<trkpt lat="51.818260" lon="03.961628"><ele>-4</ele><time>2023-12-06T14:55:22Z</time><name>PT11470</name></trkpt>
<trkpt lat="51.818252" lon="03.961634"><ele>-3.9</ele><time>2023-12-06T14:55:24Z</time><name>PT11471</name></trkpt>
<trkpt lat="51.818243" lon="03.961636"><ele>-3.8</ele><time>2023-12-06T14:55:24Z</time><name>PT11472</name></trkpt>
<trkpt lat="51.818234" lon="03.961638"><ele>-3.8</ele><time>2023-12-06T14:55:26Z</time><name>PT11473</name></trkpt>
<trkpt lat="51.818224" lon="03.961640"><ele>-3.9</ele><time>2023-12-06T14:55:27Z</time><name>PT11474</name></trkpt>
<trkpt lat="51.818211" lon="03.961640"><ele>-4.1</ele><time>2023-12-06T14:55:27Z</time><name>PT11475</name></trkpt>
<trkpt lat="51.818198" lon="03.961636"><ele>-4.1</ele><time>2023-12-06T14:55:28Z</time><name>PT11476</name></trkpt>
<trkpt lat="51.818185" lon="03.961639"><ele>-4.2</ele><time>2023-12-06T14:55:30Z</time><name>PT11477</name></trkpt>
<trkpt lat="51.818174" lon="03.961644"><ele>-4.4</ele><time>2023-12-06T14:55:30Z</time><name>PT11478</name></trkpt>
<trkpt lat="51.818164" lon="03.961650"><ele>-4.1</ele><time>2023-12-06T14:55:31Z</time><name>PT11479</name></trkpt>
<trkpt lat="51.818156" lon="03.961653"><ele>-3.9</ele><time>2023-12-06T14:55:33Z</time><name>PT11480</name></trkpt>
<trkpt lat="51.818148" lon="03.961656"><ele>-4</ele><time>2023-12-06T14:55:33Z</time><name>PT11481</name></trkpt>
<trkpt lat="51.818140" lon="03.961653"><ele>-3.9</ele><time>2023-12-06T14:55:34Z</time><name>PT11482</name></trkpt>
<trkpt lat="51.818130" lon="03.961654"><ele>-4</ele><time>2023-12-06T14:55:36Z</time><name>PT11483</name></trkpt>
<trkpt lat="51.818118" lon="03.961656"><ele>-4</ele><time>2023-12-06T14:55:36Z</time><name>PT11484</name></trkpt>
<trkpt lat="51.818105" lon="03.961664"><ele>-4.1</ele><time>2023-12-06T14:55:37Z</time><name>PT11485</name></trkpt>
<trkpt lat="51.818092" lon="03.961670"><ele>-4</ele><time>2023-12-06T14:55:39Z</time><name>PT11486</name></trkpt>
<trkpt lat="51.818082" lon="03.961676"><ele>-4</ele><time>2023-12-06T14:55:39Z</time><name>PT11487</name></trkpt>
<trkpt lat="51.818074" lon="03.961684"><ele>-4</ele><time>2023-12-06T14:55:40Z</time><name>PT11488</name></trkpt>
<trkpt lat="51.818066" lon="03.961688"><ele>-4</ele><time>2023-12-06T14:55:42Z</time><name>PT11489</name></trkpt>
<trkpt lat="51.818057" lon="03.961692"><ele>-4</ele><time>2023-12-06T14:55:42Z</time><name>PT11490</name></trkpt>
<trkpt lat="51.818045" lon="03.961696"><ele>-4.1</ele><time>2023-12-06T14:55:43Z</time><name>PT11491</name></trkpt>
<trkpt lat="51.818033" lon="03.961700"><ele>-4</ele><time>2023-12-06T14:55:45Z</time><name>PT11492</name></trkpt>
<trkpt lat="51.818021" lon="03.961707"><ele>-4</ele><time>2023-12-06T14:55:45Z</time><name>PT11493</name></trkpt>
<trkpt lat="51.818004" lon="03.961717"><ele>-3.9</ele><time>2023-12-06T14:55:46Z</time><name>PT11494</name></trkpt>
<trkpt lat="51.817990" lon="03.961729"><ele>-3.9</ele><time>2023-12-06T14:55:48Z</time><name>PT11495</name></trkpt>
<trkpt lat="51.817979" lon="03.961741"><ele>-3.9</ele><time>2023-12-06T14:55:48Z</time><name>PT11496</name></trkpt>
<trkpt lat="51.817971" lon="03.961751"><ele>-4</ele><time>2023-12-06T14:55:49Z</time><name>PT11497</name></trkpt>
<trkpt lat="51.817962" lon="03.961758"><ele>-3.8</ele><time>2023-12-06T14:55:51Z</time><name>PT11498</name></trkpt>
<trkpt lat="51.817951" lon="03.961760"><ele>-3.7</ele><time>2023-12-06T14:55:51Z</time><name>PT11499</name></trkpt>
<trkpt lat="51.817940" lon="03.961767"><ele>-3.5</ele><time>2023-12-06T14:55:52Z</time><name>PT11500</name></trkpt>
<trkpt lat="51.817927" lon="03.961778"><ele>-3.5</ele><time>2023-12-06T14:55:54Z</time><name>PT11501</name></trkpt>
<trkpt lat="51.817915" lon="03.961790"><ele>-3.4</ele><time>2023-12-06T14:55:54Z</time><name>PT11502</name></trkpt>
<trkpt lat="51.817903" lon="03.961802"><ele>-3.5</ele><time>2023-12-06T14:55:55Z</time><name>PT11503</name></trkpt>
<trkpt lat="51.817896" lon="03.961812"><ele>-3.5</ele><time>2023-12-06T14:55:57Z</time><name>PT11504</name></trkpt>
<trkpt lat="51.817890" lon="03.961820"><ele>-3.3</ele><time>2023-12-06T14:55:57Z</time><name>PT11505</name></trkpt>
<trkpt lat="51.817881" lon="03.961827"><ele>-3.3</ele><time>2023-12-06T14:55:58Z</time><name>PT11506</name></trkpt>
<trkpt lat="51.817871" lon="03.961837"><ele>-3.4</ele><time>2023-12-06T14:56:00Z</time><name>PT11507</name></trkpt>
<trkpt lat="51.817860" lon="03.961845"><ele>-3.4</ele><time>2023-12-06T14:56:00Z</time><name>PT11508</name></trkpt>
<trkpt lat="51.817849" lon="03.961858"><ele>-3.4</ele><time>2023-12-06T14:56:01Z</time><name>PT11509</name></trkpt>
<trkpt lat="51.817837" lon="03.961871"><ele>-3.5</ele><time>2023-12-06T14:56:03Z</time><name>PT11510</name></trkpt>
<trkpt lat="51.817828" lon="03.961886"><ele>-3.5</ele><time>2023-12-06T14:56:03Z</time><name>PT11511</name></trkpt>
<trkpt lat="51.817818" lon="03.961901"><ele>-3.5</ele><time>2023-12-06T14:56:04Z</time><name>PT11512</name></trkpt>
<trkpt lat="51.817812" lon="03.961916"><ele>-3.5</ele><time>2023-12-06T14:56:06Z</time><name>PT11513</name></trkpt>
<trkpt lat="51.817807" lon="03.961928"><ele>-3.5</ele><time>2023-12-06T14:56:06Z</time><name>PT11514</name></trkpt>
<trkpt lat="51.817800" lon="03.961942"><ele>-3.5</ele><time>2023-12-06T14:56:07Z</time><name>PT11515</name></trkpt>
<trkpt lat="51.817790" lon="03.961955"><ele>-3.6</ele><time>2023-12-06T14:56:09Z</time><name>PT11516</name></trkpt>
<trkpt lat="51.817781" lon="03.961968"><ele>-3.5</ele><time>2023-12-06T14:56:09Z</time><name>PT11517</name></trkpt>
<trkpt lat="51.817772" lon="03.961984"><ele>-3.4</ele><time>2023-12-06T14:56:10Z</time><name>PT11518</name></trkpt>
<trkpt lat="51.817762" lon="03.961999"><ele>-3.5</ele><time>2023-12-06T14:56:12Z</time><name>PT11519</name></trkpt>
<trkpt lat="51.817754" lon="03.962014"><ele>-3.5</ele><time>2023-12-06T14:56:12Z</time><name>PT11520</name></trkpt>
<trkpt lat="51.817746" lon="03.962029"><ele>-3.5</ele><time>2023-12-06T14:56:13Z</time><name>PT11521</name></trkpt>
<trkpt lat="51.817740" lon="03.962041"><ele>-3.7</ele><time>2023-12-06T14:56:15Z</time><name>PT11522</name></trkpt>
<trkpt lat="51.817734" lon="03.962052"><ele>-3.7</ele><time>2023-12-06T14:56:15Z</time><name>PT11523</name></trkpt>
<trkpt lat="51.817727" lon="03.962060"><ele>-3.7</ele><time>2023-12-06T14:56:16Z</time><name>PT11524</name></trkpt>
<trkpt lat="51.817718" lon="03.962068"><ele>-4</ele><time>2023-12-06T14:56:18Z</time><name>PT11525</name></trkpt>
<trkpt lat="51.817711" lon="03.962080"><ele>-4</ele><time>2023-12-06T14:56:18Z</time><name>PT11526</name></trkpt>
<trkpt lat="51.817702" lon="03.962095"><ele>-4</ele><time>2023-12-06T14:56:19Z</time><name>PT11527</name></trkpt>
<trkpt lat="51.817693" lon="03.962114"><ele>-4.1</ele><time>2023-12-06T14:56:21Z</time><name>PT11528</name></trkpt>
<trkpt lat="51.817683" lon="03.962131"><ele>-4</ele><time>2023-12-06T14:56:21Z</time><name>PT11529</name></trkpt>
<trkpt lat="51.817675" lon="03.962146"><ele>-4</ele><time>2023-12-06T14:56:22Z</time><name>PT11530</name></trkpt>
<trkpt lat="51.817668" lon="03.962150"><ele>-4</ele><time>2023-12-06T14:56:24Z</time><name>PT11531</name></trkpt>
<trkpt lat="51.817664" lon="03.962157"><ele>-4</ele><time>2023-12-06T14:56:24Z</time><name>PT11532</name></trkpt>
<trkpt lat="51.817658" lon="03.962166"><ele>-3.9</ele><time>2023-12-06T14:56:25Z</time><name>PT11533</name></trkpt>
<trkpt lat="51.817651" lon="03.962175"><ele>-4</ele><time>2023-12-06T14:56:27Z</time><name>PT11534</name></trkpt>
<trkpt lat="51.817642" lon="03.962188"><ele>-4</ele><time>2023-12-06T14:56:27Z</time><name>PT11535</name></trkpt>
<trkpt lat="51.817634" lon="03.962204"><ele>-4.1</ele><time>2023-12-06T14:56:28Z</time><name>PT11536</name></trkpt>
<trkpt lat="51.817625" lon="03.962221"><ele>-4.2</ele><time>2023-12-06T14:56:30Z</time><name>PT11537</name></trkpt>
<trkpt lat="51.817616" lon="03.962238"><ele>-4.2</ele><time>2023-12-06T14:56:30Z</time><name>PT11538</name></trkpt>
<trkpt lat="51.817607" lon="03.962256"><ele>-4.1</ele><time>2023-12-06T14:56:31Z</time><name>PT11539</name></trkpt>
<trkpt lat="51.817600" lon="03.962270"><ele>-4.1</ele><time>2023-12-06T14:56:33Z</time><name>PT11540</name></trkpt>
<trkpt lat="51.817594" lon="03.962283"><ele>-4</ele><time>2023-12-06T14:56:33Z</time><name>PT11541</name></trkpt>
<trkpt lat="51.817587" lon="03.962293"><ele>-4</ele><time>2023-12-06T14:56:34Z</time><name>PT11542</name></trkpt>
<trkpt lat="51.817579" lon="03.962304"><ele>-3.9</ele><time>2023-12-06T14:56:36Z</time><name>PT11543</name></trkpt>
<trkpt lat="51.817572" lon="03.962314"><ele>-3.8</ele><time>2023-12-06T14:56:36Z</time><name>PT11544</name></trkpt>
<trkpt lat="51.817562" lon="03.962325"><ele>-3.6</ele><time>2023-12-06T14:56:37Z</time><name>PT11545</name></trkpt>
<trkpt lat="51.817555" lon="03.962337"><ele>-3.7</ele><time>2023-12-06T14:56:39Z</time><name>PT11546</name></trkpt>
<trkpt lat="51.817545" lon="03.962351"><ele>-3.6</ele><time>2023-12-06T14:56:39Z</time><name>PT11547</name></trkpt>
<trkpt lat="51.817535" lon="03.962366"><ele>-3.5</ele><time>2023-12-06T14:56:40Z</time><name>PT11548</name></trkpt>
<trkpt lat="51.817526" lon="03.962382"><ele>-3.4</ele><time>2023-12-06T14:56:42Z</time><name>PT11549</name></trkpt>
<trkpt lat="51.817517" lon="03.962395"><ele>-3.5</ele><time>2023-12-06T14:56:42Z</time><name>PT11550</name></trkpt>
<trkpt lat="51.817510" lon="03.962403"><ele>-3.4</ele><time>2023-12-06T14:56:43Z</time><name>PT11551</name></trkpt>
<trkpt lat="51.817506" lon="03.962408"><ele>-3.4</ele><time>2023-12-06T14:56:45Z</time><name>PT11552</name></trkpt>
<trkpt lat="51.817500" lon="03.962418"><ele>-3.5</ele><time>2023-12-06T14:56:45Z</time><name>PT11553</name></trkpt>
<trkpt lat="51.817495" lon="03.962428"><ele>-3.4</ele><time>2023-12-06T14:56:46Z</time><name>PT11554</name></trkpt>
<trkpt lat="51.817491" lon="03.962438"><ele>-3.2</ele><time>2023-12-06T14:56:48Z</time><name>PT11555</name></trkpt>
<trkpt lat="51.817484" lon="03.962446"><ele>-3.3</ele><time>2023-12-06T14:56:48Z</time><name>PT11556</name></trkpt>
<trkpt lat="51.817476" lon="03.962455"><ele>-3.3</ele><time>2023-12-06T14:56:49Z</time><name>PT11557</name></trkpt>
<trkpt lat="51.817472" lon="03.962467"><ele>-3</ele><time>2023-12-06T14:56:51Z</time><name>PT11558</name></trkpt>
<trkpt lat="51.817469" lon="03.962476"><ele>-3.2</ele><time>2023-12-06T14:56:51Z</time><name>PT11559</name></trkpt>
<trkpt lat="51.817466" lon="03.962485"><ele>-3.1</ele><time>2023-12-06T14:56:52Z</time><name>PT11560</name></trkpt>
<trkpt lat="51.817459" lon="03.962494"><ele>-3</ele><time>2023-12-06T14:56:54Z</time><name>PT11561</name></trkpt>
<trkpt lat="51.817455" lon="03.962501"><ele>-2.8</ele><time>2023-12-06T14:56:54Z</time><name>PT11562</name></trkpt>
<trkpt lat="51.817451" lon="03.962507"><ele>-2.8</ele><time>2023-12-06T14:56:55Z</time><name>PT11563</name></trkpt>
<trkpt lat="51.817446" lon="03.962517"><ele>-2.6</ele><time>2023-12-06T14:56:57Z</time><name>PT11564</name></trkpt>
<trkpt lat="51.817442" lon="03.962526"><ele>-2.6</ele><time>2023-12-06T14:56:57Z</time><name>PT11565</name></trkpt>
<trkpt lat="51.817438" lon="03.962536"><ele>-2.6</ele><time>2023-12-06T14:56:59Z</time><name>PT11566</name></trkpt>
<trkpt lat="51.817437" lon="03.962544"><ele>-2.8</ele><time>2023-12-06T14:57:00Z</time><name>PT11567</name></trkpt>
<trkpt lat="51.817435" lon="03.962549"><ele>-2.7</ele><time>2023-12-06T14:57:00Z</time><name>PT11568</name></trkpt>
<trkpt lat="51.817438" lon="03.962554"><ele>-3.2</ele><time>2023-12-06T14:57:40Z</time><name>PT11569</name></trkpt>
<trkpt lat="51.817437" lon="03.962555"><ele>-3</ele><time>2023-12-06T14:57:42Z</time><name>PT11570</name></trkpt>
<trkpt lat="51.817436" lon="03.962557"><ele>-3</ele><time>2023-12-06T14:57:42Z</time><name>PT11571</name></trkpt>
<trkpt lat="51.817433" lon="03.962560"><ele>-3</ele><time>2023-12-06T14:57:43Z</time><name>PT11572</name></trkpt>
<trkpt lat="51.817433" lon="03.962562"><ele>-2.9</ele><time>2023-12-06T14:57:45Z</time><name>PT11573</name></trkpt>
<trkpt lat="51.817433" lon="03.962564"><ele>-2.9</ele><time>2023-12-06T14:57:45Z</time><name>PT11574</name></trkpt>
<trkpt lat="51.817431" lon="03.962566"><ele>-3.1</ele><time>2023-12-06T14:57:46Z</time><name>PT11575</name></trkpt>
<trkpt lat="51.817430" lon="03.962572"><ele>-2.7</ele><time>2023-12-06T14:58:03Z</time><name>PT11576</name></trkpt>
<trkpt lat="51.817428" lon="03.962575"><ele>-2.7</ele><time>2023-12-06T14:58:03Z</time><name>PT11577</name></trkpt>
<trkpt lat="51.817425" lon="03.962579"><ele>-2.9</ele><time>2023-12-06T14:58:06Z</time><name>PT11578</name></trkpt>
<trkpt lat="51.817420" lon="03.962591"><ele>-2.9</ele><time>2023-12-06T14:58:07Z</time><name>PT11579</name></trkpt>
<trkpt lat="51.817414" lon="03.962603"><ele>-2.8</ele><time>2023-12-06T14:58:09Z</time><name>PT11580</name></trkpt>
<trkpt lat="51.817408" lon="03.962614"><ele>-2.7</ele><time>2023-12-06T14:58:09Z</time><name>PT11581</name></trkpt>
<trkpt lat="51.817401" lon="03.962624"><ele>-2.5</ele><time>2023-12-06T14:58:10Z</time><name>PT11582</name></trkpt>
<trkpt lat="51.817394" lon="03.962636"><ele>-2.5</ele><time>2023-12-06T14:58:12Z</time><name>PT11583</name></trkpt>
<trkpt lat="51.817387" lon="03.962648"><ele>-2.5</ele><time>2023-12-06T14:58:12Z</time><name>PT11584</name></trkpt>
<trkpt lat="51.817379" lon="03.962657"><ele>-2.5</ele><time>2023-12-06T14:58:13Z</time><name>PT11585</name></trkpt>
<trkpt lat="51.817373" lon="03.962667"><ele>-2.5</ele><time>2023-12-06T14:58:15Z</time><name>PT11586</name></trkpt>
<trkpt lat="51.817367" lon="03.962681"><ele>-2.5</ele><time>2023-12-06T14:58:15Z</time><name>PT11587</name></trkpt>
<trkpt lat="51.817362" lon="03.962694"><ele>-2.4</ele><time>2023-12-06T14:58:16Z</time><name>PT11588</name></trkpt>
<trkpt lat="51.817357" lon="03.962704"><ele>-2.2</ele><time>2023-12-06T14:58:18Z</time><name>PT11589</name></trkpt>
<trkpt lat="51.817353" lon="03.962709"><ele>-2.3</ele><time>2023-12-06T14:58:18Z</time><name>PT11590</name></trkpt>
<trkpt lat="51.817352" lon="03.962712"><ele>-2.1</ele><time>2023-12-06T14:58:19Z</time><name>PT11591</name></trkpt>
<trkpt lat="51.817351" lon="03.962713"><ele>-2.1</ele><time>2023-12-06T14:58:21Z</time><name>PT11592</name></trkpt>
<trkpt lat="51.817350" lon="03.962719"><ele>-2.2</ele><time>2023-12-06T14:58:21Z</time><name>PT11593</name></trkpt>
<trkpt lat="51.817346" lon="03.962731"><ele>-2.2</ele><time>2023-12-06T14:58:22Z</time><name>PT11594</name></trkpt>
<trkpt lat="51.817341" lon="03.962743"><ele>-2.2</ele><time>2023-12-06T14:58:24Z</time><name>PT11595</name></trkpt>
<trkpt lat="51.817334" lon="03.962754"><ele>-2.4</ele><time>2023-12-06T14:58:24Z</time><name>PT11596</name></trkpt>
<trkpt lat="51.817326" lon="03.962765"><ele>-2.5</ele><time>2023-12-06T14:58:25Z</time><name>PT11597</name></trkpt>
<trkpt lat="51.817318" lon="03.962775"><ele>-2.5</ele><time>2023-12-06T14:58:27Z</time><name>PT11598</name></trkpt>
<trkpt lat="51.817311" lon="03.962785"><ele>-2.7</ele><time>2023-12-06T14:58:27Z</time><name>PT11599</name></trkpt>
<trkpt lat="51.817304" lon="03.962797"><ele>-2.9</ele><time>2023-12-06T14:58:28Z</time><name>PT11600</name></trkpt>
<trkpt lat="51.817297" lon="03.962808"><ele>-3</ele><time>2023-12-06T14:58:30Z</time><name>PT11601</name></trkpt>
<trkpt lat="51.817292" lon="03.962817"><ele>-3</ele><time>2023-12-06T14:58:30Z</time><name>PT11602</name></trkpt>
<trkpt lat="51.817287" lon="03.962826"><ele>-3</ele><time>2023-12-06T14:58:31Z</time><name>PT11603</name></trkpt>
<trkpt lat="51.817280" lon="03.962837"><ele>-3</ele><time>2023-12-06T14:58:33Z</time><name>PT11604</name></trkpt>
<trkpt lat="51.817274" lon="03.962850"><ele>-3</ele><time>2023-12-06T14:58:33Z</time><name>PT11605</name></trkpt>
<trkpt lat="51.817268" lon="03.962864"><ele>-3</ele><time>2023-12-06T14:58:34Z</time><name>PT11606</name></trkpt>
<trkpt lat="51.817263" lon="03.962878"><ele>-3</ele><time>2023-12-06T14:58:36Z</time><name>PT11607</name></trkpt>
<trkpt lat="51.817258" lon="03.962892"><ele>-2.9</ele><time>2023-12-06T14:58:36Z</time><name>PT11608</name></trkpt>
<trkpt lat="51.817252" lon="03.962905"><ele>-2.8</ele><time>2023-12-06T14:58:37Z</time><name>PT11609</name></trkpt>
<trkpt lat="51.817244" lon="03.962917"><ele>-2.8</ele><time>2023-12-06T14:58:39Z</time><name>PT11610</name></trkpt>
<trkpt lat="51.817235" lon="03.962930"><ele>-2.7</ele><time>2023-12-06T14:58:39Z</time><name>PT11611</name></trkpt>
<trkpt lat="51.817228" lon="03.962942"><ele>-2.8</ele><time>2023-12-06T14:58:40Z</time><name>PT11612</name></trkpt>
<trkpt lat="51.817220" lon="03.962952"><ele>-2.9</ele><time>2023-12-06T14:58:42Z</time><name>PT11613</name></trkpt>
<trkpt lat="51.817212" lon="03.962963"><ele>-3</ele><time>2023-12-06T14:58:42Z</time><name>PT11614</name></trkpt>
<trkpt lat="51.817203" lon="03.962977"><ele>-3</ele><time>2023-12-06T14:58:43Z</time><name>PT11615</name></trkpt>
<trkpt lat="51.817196" lon="03.962989"><ele>-3</ele><time>2023-12-06T14:58:45Z</time><name>PT11616</name></trkpt>
<trkpt lat="51.817188" lon="03.963002"><ele>-2.9</ele><time>2023-12-06T14:58:45Z</time><name>PT11617</name></trkpt>
<trkpt lat="51.817182" lon="03.963014"><ele>-2.8</ele><time>2023-12-06T14:58:46Z</time><name>PT11618</name></trkpt>
<trkpt lat="51.817175" lon="03.963026"><ele>-2.6</ele><time>2023-12-06T14:58:48Z</time><name>PT11619</name></trkpt>
<trkpt lat="51.817169" lon="03.963037"><ele>-2.6</ele><time>2023-12-06T14:58:48Z</time><name>PT11620</name></trkpt>
<trkpt lat="51.817165" lon="03.963051"><ele>-2.5</ele><time>2023-12-06T14:58:49Z</time><name>PT11621</name></trkpt>
<trkpt lat="51.817162" lon="03.963062"><ele>-2.5</ele><time>2023-12-06T14:58:51Z</time><name>PT11622</name></trkpt>
<trkpt lat="51.817159" lon="03.963074"><ele>-2.5</ele><time>2023-12-06T14:58:51Z</time><name>PT11623</name></trkpt>
<trkpt lat="51.817154" lon="03.963083"><ele>-2.6</ele><time>2023-12-06T14:58:52Z</time><name>PT11624</name></trkpt>
<trkpt lat="51.817149" lon="03.963092"><ele>-2.7</ele><time>2023-12-06T14:58:54Z</time><name>PT11625</name></trkpt>
<trkpt lat="51.817143" lon="03.963106"><ele>-2.8</ele><time>2023-12-06T14:58:54Z</time><name>PT11626</name></trkpt>
<trkpt lat="51.817135" lon="03.963120"><ele>-2.7</ele><time>2023-12-06T14:58:55Z</time><name>PT11627</name></trkpt>
<trkpt lat="51.817129" lon="03.963133"><ele>-2.6</ele><time>2023-12-06T14:58:57Z</time><name>PT11628</name></trkpt>
<trkpt lat="51.817122" lon="03.963146"><ele>-2.6</ele><time>2023-12-06T14:58:57Z</time><name>PT11629</name></trkpt>
<trkpt lat="51.817117" lon="03.963159"><ele>-2.6</ele><time>2023-12-06T14:58:58Z</time><name>PT11630</name></trkpt>
<trkpt lat="51.817109" lon="03.963167"><ele>-2.7</ele><time>2023-12-06T14:59:00Z</time><name>PT11631</name></trkpt>
<trkpt lat="51.817100" lon="03.963178"><ele>-2.7</ele><time>2023-12-06T14:59:00Z</time><name>PT11632</name></trkpt>
<trkpt lat="51.817093" lon="03.963190"><ele>-2.7</ele><time>2023-12-06T14:59:01Z</time><name>PT11633</name></trkpt>
<trkpt lat="51.817086" lon="03.963203"><ele>-2.8</ele><time>2023-12-06T14:59:03Z</time><name>PT11634</name></trkpt>
<trkpt lat="51.817079" lon="03.963215"><ele>-2.8</ele><time>2023-12-06T14:59:03Z</time><name>PT11635</name></trkpt>
<trkpt lat="51.817072" lon="03.963230"><ele>-2.7</ele><time>2023-12-06T14:59:04Z</time><name>PT11636</name></trkpt>
<trkpt lat="51.817065" lon="03.963244"><ele>-2.7</ele><time>2023-12-06T14:59:06Z</time><name>PT11637</name></trkpt>
<trkpt lat="51.817059" lon="03.963256"><ele>-2.5</ele><time>2023-12-06T14:59:06Z</time><name>PT11638</name></trkpt>
<trkpt lat="51.817052" lon="03.963267"><ele>-2.5</ele><time>2023-12-06T14:59:07Z</time><name>PT11639</name></trkpt>
<trkpt lat="51.817044" lon="03.963278"><ele>-2.6</ele><time>2023-12-06T14:59:09Z</time><name>PT11640</name></trkpt>
<trkpt lat="51.817035" lon="03.963292"><ele>-2.7</ele><time>2023-12-06T14:59:09Z</time><name>PT11641</name></trkpt>
<trkpt lat="51.817027" lon="03.963306"><ele>-2.6</ele><time>2023-12-06T14:59:10Z</time><name>PT11642</name></trkpt>
<trkpt lat="51.817020" lon="03.963318"><ele>-2.6</ele><time>2023-12-06T14:59:12Z</time><name>PT11643</name></trkpt>
<trkpt lat="51.817014" lon="03.963330"><ele>-2.6</ele><time>2023-12-06T14:59:12Z</time><name>PT11644</name></trkpt>
<trkpt lat="51.817008" lon="03.963343"><ele>-2.6</ele><time>2023-12-06T14:59:13Z</time><name>PT11645</name></trkpt>
<trkpt lat="51.817002" lon="03.963356"><ele>-2.7</ele><time>2023-12-06T14:59:15Z</time><name>PT11646</name></trkpt>
<trkpt lat="51.816995" lon="03.963368"><ele>-2.7</ele><time>2023-12-06T14:59:15Z</time><name>PT11647</name></trkpt>
<trkpt lat="51.816986" lon="03.963380"><ele>-2.7</ele><time>2023-12-06T14:59:16Z</time><name>PT11648</name></trkpt>
<trkpt lat="51.816977" lon="03.963393"><ele>-2.9</ele><time>2023-12-06T14:59:18Z</time><name>PT11649</name></trkpt>
<trkpt lat="51.816969" lon="03.963406"><ele>-2.8</ele><time>2023-12-06T14:59:18Z</time><name>PT11650</name></trkpt>
<trkpt lat="51.816960" lon="03.963420"><ele>-2.8</ele><time>2023-12-06T14:59:19Z</time><name>PT11651</name></trkpt>
<trkpt lat="51.816953" lon="03.963435"><ele>-2.9</ele><time>2023-12-06T14:59:21Z</time><name>PT11652</name></trkpt>
<trkpt lat="51.816946" lon="03.963448"><ele>-3</ele><time>2023-12-06T14:59:21Z</time><name>PT11653</name></trkpt>
<trkpt lat="51.816939" lon="03.963460"><ele>-2.8</ele><time>2023-12-06T14:59:22Z</time><name>PT11654</name></trkpt>
<trkpt lat="51.816932" lon="03.963473"><ele>-2.9</ele><time>2023-12-06T14:59:24Z</time><name>PT11655</name></trkpt>
<trkpt lat="51.816924" lon="03.963485"><ele>-2.8</ele><time>2023-12-06T14:59:24Z</time><name>PT11656</name></trkpt>
<trkpt lat="51.816918" lon="03.963498"><ele>-2.7</ele><time>2023-12-06T14:59:25Z</time><name>PT11657</name></trkpt>
<trkpt lat="51.816912" lon="03.963510"><ele>-2.7</ele><time>2023-12-06T14:59:27Z</time><name>PT11658</name></trkpt>
<trkpt lat="51.816905" lon="03.963521"><ele>-2.7</ele><time>2023-12-06T14:59:27Z</time><name>PT11659</name></trkpt>
<trkpt lat="51.816897" lon="03.963535"><ele>-2.6</ele><time>2023-12-06T14:59:28Z</time><name>PT11660</name></trkpt>
<trkpt lat="51.816889" lon="03.963549"><ele>-2.5</ele><time>2023-12-06T14:59:30Z</time><name>PT11661</name></trkpt>
<trkpt lat="51.816881" lon="03.963563"><ele>-2.5</ele><time>2023-12-06T14:59:30Z</time><name>PT11662</name></trkpt>
<trkpt lat="51.816873" lon="03.963575"><ele>-2.5</ele><time>2023-12-06T14:59:31Z</time><name>PT11663</name></trkpt>
<trkpt lat="51.816864" lon="03.963588"><ele>-2.5</ele><time>2023-12-06T14:59:33Z</time><name>PT11664</name></trkpt>
<trkpt lat="51.816857" lon="03.963600"><ele>-2.5</ele><time>2023-12-06T14:59:33Z</time><name>PT11665</name></trkpt>
<trkpt lat="51.816850" lon="03.963613"><ele>-2.7</ele><time>2023-12-06T14:59:34Z</time><name>PT11666</name></trkpt>
<trkpt lat="51.816843" lon="03.963628"><ele>-2.6</ele><time>2023-12-06T14:59:36Z</time><name>PT11667</name></trkpt>
<trkpt lat="51.816837" lon="03.963642"><ele>-2.7</ele><time>2023-12-06T14:59:36Z</time><name>PT11668</name></trkpt>
<trkpt lat="51.816830" lon="03.963657"><ele>-2.8</ele><time>2023-12-06T14:59:37Z</time><name>PT11669</name></trkpt>
<trkpt lat="51.816823" lon="03.963671"><ele>-2.8</ele><time>2023-12-06T14:59:39Z</time><name>PT11670</name></trkpt>
<trkpt lat="51.816814" lon="03.963685"><ele>-2.7</ele><time>2023-12-06T14:59:39Z</time><name>PT11671</name></trkpt>
<trkpt lat="51.816807" lon="03.963694"><ele>-2.9</ele><time>2023-12-06T14:59:40Z</time><name>PT11672</name></trkpt>
<trkpt lat="51.816802" lon="03.963703"><ele>-2.7</ele><time>2023-12-06T14:59:42Z</time><name>PT11673</name></trkpt>
<trkpt lat="51.816795" lon="03.963715"><ele>-2.7</ele><time>2023-12-06T14:59:42Z</time><name>PT11674</name></trkpt>
<trkpt lat="51.816790" lon="03.963729"><ele>-2.6</ele><time>2023-12-06T14:59:43Z</time><name>PT11675</name></trkpt>
<trkpt lat="51.816782" lon="03.963742"><ele>-2.5</ele><time>2023-12-06T14:59:45Z</time><name>PT11676</name></trkpt>
<trkpt lat="51.816774" lon="03.963757"><ele>-2.5</ele><time>2023-12-06T14:59:45Z</time><name>PT11677</name></trkpt>
<trkpt lat="51.816766" lon="03.963773"><ele>-2.5</ele><time>2023-12-06T14:59:46Z</time><name>PT11678</name></trkpt>
<trkpt lat="51.816757" lon="03.963789"><ele>-2.4</ele><time>2023-12-06T14:59:48Z</time><name>PT11679</name></trkpt>
<trkpt lat="51.816748" lon="03.963805"><ele>-2.4</ele><time>2023-12-06T14:59:48Z</time><name>PT11680</name></trkpt>
<trkpt lat="51.816737" lon="03.963819"><ele>-2.5</ele><time>2023-12-06T14:59:49Z</time><name>PT11681</name></trkpt>
<trkpt lat="51.816730" lon="03.963833"><ele>-2.5</ele><time>2023-12-06T14:59:51Z</time><name>PT11682</name></trkpt>
<trkpt lat="51.816722" lon="03.963848"><ele>-2.5</ele><time>2023-12-06T14:59:51Z</time><name>PT11683</name></trkpt>
<trkpt lat="51.816714" lon="03.963861"><ele>-2.7</ele><time>2023-12-06T14:59:52Z</time><name>PT11684</name></trkpt>
<trkpt lat="51.816706" lon="03.963874"><ele>-2.6</ele><time>2023-12-06T14:59:54Z</time><name>PT11685</name></trkpt>
<trkpt lat="51.816699" lon="03.963888"><ele>-2.5</ele><time>2023-12-06T14:59:54Z</time><name>PT11686</name></trkpt>
<trkpt lat="51.816693" lon="03.963902"><ele>-2.6</ele><time>2023-12-06T14:59:55Z</time><name>PT11687</name></trkpt>
<trkpt lat="51.816687" lon="03.963917"><ele>-2.6</ele><time>2023-12-06T14:59:57Z</time><name>PT11688</name></trkpt>
<trkpt lat="51.816681" lon="03.963931"><ele>-2.7</ele><time>2023-12-06T14:59:57Z</time><name>PT11689</name></trkpt>
<trkpt lat="51.816674" lon="03.963944"><ele>-2.8</ele><time>2023-12-06T14:59:58Z</time><name>PT11690</name></trkpt>
<trkpt lat="51.816667" lon="03.963959"><ele>-2.9</ele><time>2023-12-06T15:00:00Z</time><name>PT11691</name></trkpt>
<trkpt lat="51.816660" lon="03.963972"><ele>-2.7</ele><time>2023-12-06T15:00:00Z</time><name>PT11692</name></trkpt>
<trkpt lat="51.816653" lon="03.963986"><ele>-2.8</ele><time>2023-12-06T15:00:01Z</time><name>PT11693</name></trkpt>
<trkpt lat="51.816646" lon="03.963999"><ele>-2.7</ele><time>2023-12-06T15:00:03Z</time><name>PT11694</name></trkpt>
<trkpt lat="51.816640" lon="03.964010"><ele>-2.8</ele><time>2023-12-06T15:00:03Z</time><name>PT11695</name></trkpt>
<trkpt lat="51.816633" lon="03.964019"><ele>-3</ele><time>2023-12-06T15:00:04Z</time><name>PT11696</name></trkpt>
<trkpt lat="51.816625" lon="03.964031"><ele>-3</ele><time>2023-12-06T15:00:06Z</time><name>PT11697</name></trkpt>
<trkpt lat="51.816616" lon="03.964043"><ele>-3</ele><time>2023-12-06T15:00:06Z</time><name>PT11698</name></trkpt>
<trkpt lat="51.816609" lon="03.964057"><ele>-3.1</ele><time>2023-12-06T15:00:07Z</time><name>PT11699</name></trkpt>
<trkpt lat="51.816602" lon="03.964071"><ele>-3</ele><time>2023-12-06T15:00:09Z</time><name>PT11700</name></trkpt>
<trkpt lat="51.816595" lon="03.964085"><ele>-2.9</ele><time>2023-12-06T15:00:09Z</time><name>PT11701</name></trkpt>
<trkpt lat="51.816588" lon="03.964100"><ele>-3</ele><time>2023-12-06T15:00:10Z</time><name>PT11702</name></trkpt>
<trkpt lat="51.816581" lon="03.964112"><ele>-3</ele><time>2023-12-06T15:00:12Z</time><name>PT11703</name></trkpt>
<trkpt lat="51.816574" lon="03.964124"><ele>-3</ele><time>2023-12-06T15:00:12Z</time><name>PT11704</name></trkpt>
<trkpt lat="51.816567" lon="03.964137"><ele>-3</ele><time>2023-12-06T15:00:13Z</time><name>PT11705</name></trkpt>
<trkpt lat="51.816561" lon="03.964148"><ele>-2.6</ele><time>2023-12-06T15:00:15Z</time><name>PT11706</name></trkpt>
<trkpt lat="51.816556" lon="03.964160"><ele>-2.6</ele><time>2023-12-06T15:00:15Z</time><name>PT11707</name></trkpt>
<trkpt lat="51.816548" lon="03.964172"><ele>-2.5</ele><time>2023-12-06T15:00:16Z</time><name>PT11708</name></trkpt>
<trkpt lat="51.816540" lon="03.964185"><ele>-2.5</ele><time>2023-12-06T15:00:18Z</time><name>PT11709</name></trkpt>
<trkpt lat="51.816532" lon="03.964198"><ele>-2.5</ele><time>2023-12-06T15:00:18Z</time><name>PT11710</name></trkpt>
<trkpt lat="51.816528" lon="03.964212"><ele>-2.6</ele><time>2023-12-06T15:00:19Z</time><name>PT11711</name></trkpt>
<trkpt lat="51.816524" lon="03.964229"><ele>-2.6</ele><time>2023-12-06T15:00:21Z</time><name>PT11712</name></trkpt>
<trkpt lat="51.816516" lon="03.964243"><ele>-2.8</ele><time>2023-12-06T15:00:21Z</time><name>PT11713</name></trkpt>
<trkpt lat="51.816510" lon="03.964259"><ele>-2.7</ele><time>2023-12-06T15:00:22Z</time><name>PT11714</name></trkpt>
<trkpt lat="51.816504" lon="03.964274"><ele>-2.5</ele><time>2023-12-06T15:00:24Z</time><name>PT11715</name></trkpt>
<trkpt lat="51.816499" lon="03.964289"><ele>-2.5</ele><time>2023-12-06T15:00:24Z</time><name>PT11716</name></trkpt>
<trkpt lat="51.816490" lon="03.964305"><ele>-2.6</ele><time>2023-12-06T15:00:25Z</time><name>PT11717</name></trkpt>
<trkpt lat="51.816481" lon="03.964324"><ele>-2.7</ele><time>2023-12-06T15:00:27Z</time><name>PT11718</name></trkpt>
<trkpt lat="51.816472" lon="03.964340"><ele>-2.9</ele><time>2023-12-06T15:00:27Z</time><name>PT11719</name></trkpt>
<trkpt lat="51.816464" lon="03.964352"><ele>-3</ele><time>2023-12-06T15:00:28Z</time><name>PT11720</name></trkpt>
<trkpt lat="51.816456" lon="03.964365"><ele>-3.2</ele><time>2023-12-06T15:00:30Z</time><name>PT11721</name></trkpt>
<trkpt lat="51.816449" lon="03.964378"><ele>-3</ele><time>2023-12-06T15:00:30Z</time><name>PT11722</name></trkpt>
<trkpt lat="51.816442" lon="03.964391"><ele>-3</ele><time>2023-12-06T15:00:31Z</time><name>PT11723</name></trkpt>
<trkpt lat="51.816435" lon="03.964404"><ele>-2.8</ele><time>2023-12-06T15:00:33Z</time><name>PT11724</name></trkpt>
<trkpt lat="51.816427" lon="03.964417"><ele>-2.7</ele><time>2023-12-06T15:00:33Z</time><name>PT11725</name></trkpt>
<trkpt lat="51.816417" lon="03.964433"><ele>-2.5</ele><time>2023-12-06T15:00:34Z</time><name>PT11726</name></trkpt>
<trkpt lat="51.816407" lon="03.964449"><ele>-2.6</ele><time>2023-12-06T15:00:36Z</time><name>PT11727</name></trkpt>
<trkpt lat="51.816399" lon="03.964461"><ele>-2.5</ele><time>2023-12-06T15:00:36Z</time><name>PT11728</name></trkpt>
<trkpt lat="51.816391" lon="03.964474"><ele>-2.5</ele><time>2023-12-06T15:00:37Z</time><name>PT11729</name></trkpt>
<trkpt lat="51.816383" lon="03.964487"><ele>-2.5</ele><time>2023-12-06T15:00:39Z</time><name>PT11730</name></trkpt>
<trkpt lat="51.816376" lon="03.964500"><ele>-2.4</ele><time>2023-12-06T15:00:39Z</time><name>PT11731</name></trkpt>
<trkpt lat="51.816369" lon="03.964513"><ele>-2.3</ele><time>2023-12-06T15:00:40Z</time><name>PT11732</name></trkpt>
<trkpt lat="51.816361" lon="03.964527"><ele>-2.5</ele><time>2023-12-06T15:00:42Z</time><name>PT11733</name></trkpt>
<trkpt lat="51.816353" lon="03.964539"><ele>-2.5</ele><time>2023-12-06T15:00:42Z</time><name>PT11734</name></trkpt>
<trkpt lat="51.816344" lon="03.964551"><ele>-2.5</ele><time>2023-12-06T15:00:43Z</time><name>PT11735</name></trkpt>
<trkpt lat="51.816336" lon="03.964561"><ele>-2.6</ele><time>2023-12-06T15:00:45Z</time><name>PT11736</name></trkpt>
<trkpt lat="51.816327" lon="03.964571"><ele>-2.6</ele><time>2023-12-06T15:00:45Z</time><name>PT11737</name></trkpt>
<trkpt lat="51.816318" lon="03.964579"><ele>-2.6</ele><time>2023-12-06T15:00:46Z</time><name>PT11738</name></trkpt>
<trkpt lat="51.816309" lon="03.964585"><ele>-2.6</ele><time>2023-12-06T15:00:48Z</time><name>PT11739</name></trkpt>
<trkpt lat="51.816300" lon="03.964593"><ele>-2.7</ele><time>2023-12-06T15:00:48Z</time><name>PT11740</name></trkpt>
<trkpt lat="51.816291" lon="03.964603"><ele>-2.7</ele><time>2023-12-06T15:00:49Z</time><name>PT11741</name></trkpt>
<trkpt lat="51.816281" lon="03.964625"><ele>-2.9</ele><time>2023-12-06T15:00:51Z</time><name>PT11742</name></trkpt>
<trkpt lat="51.816271" lon="03.964637"><ele>-2.9</ele><time>2023-12-06T15:00:51Z</time><name>PT11743</name></trkpt>
<trkpt lat="51.816261" lon="03.964646"><ele>-3</ele><time>2023-12-06T15:00:52Z</time><name>PT11744</name></trkpt>
<trkpt lat="51.816252" lon="03.964656"><ele>-3</ele><time>2023-12-06T15:00:54Z</time><name>PT11745</name></trkpt>
<trkpt lat="51.816242" lon="03.964666"><ele>-3</ele><time>2023-12-06T15:00:54Z</time><name>PT11746</name></trkpt>
<trkpt lat="51.816233" lon="03.964671"><ele>-3</ele><time>2023-12-06T15:00:55Z</time><name>PT11747</name></trkpt>
<trkpt lat="51.816223" lon="03.964680"><ele>-2.9</ele><time>2023-12-06T15:00:57Z</time><name>PT11748</name></trkpt>
<trkpt lat="51.816214" lon="03.964688"><ele>-2.8</ele><time>2023-12-06T15:00:57Z</time><name>PT11749</name></trkpt>
<trkpt lat="51.816204" lon="03.964698"><ele>-2.8</ele><time>2023-12-06T15:00:58Z</time><name>PT11750</name></trkpt>
<trkpt lat="51.816194" lon="03.964706"><ele>-2.6</ele><time>2023-12-06T15:01:00Z</time><name>PT11751</name></trkpt>
<trkpt lat="51.816184" lon="03.964715"><ele>-2.6</ele><time>2023-12-06T15:01:00Z</time><name>PT11752</name></trkpt>
<trkpt lat="51.816173" lon="03.964722"><ele>-2.6</ele><time>2023-12-06T15:01:01Z</time><name>PT11753</name></trkpt>
<trkpt lat="51.816163" lon="03.964729"><ele>-2.8</ele><time>2023-12-06T15:01:03Z</time><name>PT11754</name></trkpt>
<trkpt lat="51.816154" lon="03.964737"><ele>-2.8</ele><time>2023-12-06T15:01:03Z</time><name>PT11755</name></trkpt>
<trkpt lat="51.816145" lon="03.964747"><ele>-3</ele><time>2023-12-06T15:01:04Z</time><name>PT11756</name></trkpt>
<trkpt lat="51.816136" lon="03.964755"><ele>-2.9</ele><time>2023-12-06T15:01:06Z</time><name>PT11757</name></trkpt>
<trkpt lat="51.816128" lon="03.964761"><ele>-3</ele><time>2023-12-06T15:01:06Z</time><name>PT11758</name></trkpt>
<trkpt lat="51.816119" lon="03.964770"><ele>-2.8</ele><time>2023-12-06T15:01:07Z</time><name>PT11759</name></trkpt>
<trkpt lat="51.816109" lon="03.964777"><ele>-2.8</ele><time>2023-12-06T15:01:09Z</time><name>PT11760</name></trkpt>
<trkpt lat="51.816098" lon="03.964782"><ele>-2.8</ele><time>2023-12-06T15:01:09Z</time><name>PT11761</name></trkpt>
<trkpt lat="51.816088" lon="03.964787"><ele>-2.8</ele><time>2023-12-06T15:01:10Z</time><name>PT11762</name></trkpt>
<trkpt lat="51.816077" lon="03.964793"><ele>-2.7</ele><time>2023-12-06T15:01:12Z</time><name>PT11763</name></trkpt>
<trkpt lat="51.816067" lon="03.964799"><ele>-2.8</ele><time>2023-12-06T15:01:12Z</time><name>PT11764</name></trkpt>
<trkpt lat="51.816056" lon="03.964805"><ele>-2.8</ele><time>2023-12-06T15:01:13Z</time><name>PT11765</name></trkpt>
<trkpt lat="51.816045" lon="03.964814"><ele>-2.6</ele><time>2023-12-06T15:01:15Z</time><name>PT11766</name></trkpt>
<trkpt lat="51.816034" lon="03.964821"><ele>-2.7</ele><time>2023-12-06T15:01:15Z</time><name>PT11767</name></trkpt>
<trkpt lat="51.816023" lon="03.964831"><ele>-2.7</ele><time>2023-12-06T15:01:16Z</time><name>PT11768</name></trkpt>
<trkpt lat="51.816012" lon="03.964841"><ele>-2.6</ele><time>2023-12-06T15:01:18Z</time><name>PT11769</name></trkpt>
<trkpt lat="51.816002" lon="03.964849"><ele>-2.6</ele><time>2023-12-06T15:01:18Z</time><name>PT11770</name></trkpt>
<trkpt lat="51.815992" lon="03.964856"><ele>-2.5</ele><time>2023-12-06T15:01:19Z</time><name>PT11771</name></trkpt>
<trkpt lat="51.815982" lon="03.964865"><ele>-2.7</ele><time>2023-12-06T15:01:21Z</time><name>PT11772</name></trkpt>
<trkpt lat="51.815973" lon="03.964874"><ele>-2.8</ele><time>2023-12-06T15:01:21Z</time><name>PT11773</name></trkpt>
<trkpt lat="51.815963" lon="03.964881"><ele>-3</ele><time>2023-12-06T15:01:22Z</time><name>PT11774</name></trkpt>
<trkpt lat="51.815953" lon="03.964887"><ele>-3.1</ele><time>2023-12-06T15:01:24Z</time><name>PT11775</name></trkpt>
<trkpt lat="51.815942" lon="03.964893"><ele>-3.2</ele><time>2023-12-06T15:01:24Z</time><name>PT11776</name></trkpt>
<trkpt lat="51.815931" lon="03.964901"><ele>-3.1</ele><time>2023-12-06T15:01:25Z</time><name>PT11777</name></trkpt>
<trkpt lat="51.815921" lon="03.964908"><ele>-3.2</ele><time>2023-12-06T15:01:27Z</time><name>PT11778</name></trkpt>
<trkpt lat="51.815911" lon="03.964915"><ele>-3.2</ele><time>2023-12-06T15:01:27Z</time><name>PT11779</name></trkpt>
<trkpt lat="51.815899" lon="03.964921"><ele>-3.2</ele><time>2023-12-06T15:01:28Z</time><name>PT11780</name></trkpt>
<trkpt lat="51.815889" lon="03.964927"><ele>-3.3</ele><time>2023-12-06T15:01:30Z</time><name>PT11781</name></trkpt>
<trkpt lat="51.815878" lon="03.964932"><ele>-3.1</ele><time>2023-12-06T15:01:30Z</time><name>PT11782</name></trkpt>
<trkpt lat="51.815868" lon="03.964938"><ele>-2.9</ele><time>2023-12-06T15:01:31Z</time><name>PT11783</name></trkpt>
<trkpt lat="51.815858" lon="03.964946"><ele>-2.9</ele><time>2023-12-06T15:01:33Z</time><name>PT11784</name></trkpt>
<trkpt lat="51.815847" lon="03.964956"><ele>-2.9</ele><time>2023-12-06T15:01:33Z</time><name>PT11785</name></trkpt>
<trkpt lat="51.815837" lon="03.964965"><ele>-2.8</ele><time>2023-12-06T15:01:34Z</time><name>PT11786</name></trkpt>
<trkpt lat="51.815827" lon="03.964976"><ele>-3</ele><time>2023-12-06T15:01:36Z</time><name>PT11787</name></trkpt>
<trkpt lat="51.815817" lon="03.964985"><ele>-3</ele><time>2023-12-06T15:01:36Z</time><name>PT11788</name></trkpt>
<trkpt lat="51.815807" lon="03.964993"><ele>-3.1</ele><time>2023-12-06T15:01:37Z</time><name>PT11789</name></trkpt>
<trkpt lat="51.815797" lon="03.965000"><ele>-3</ele><time>2023-12-06T15:01:39Z</time><name>PT11790</name></trkpt>
<trkpt lat="51.815787" lon="03.965008"><ele>-3.1</ele><time>2023-12-06T15:01:39Z</time><name>PT11791</name></trkpt>
<trkpt lat="51.815776" lon="03.965014"><ele>-3</ele><time>2023-12-06T15:01:40Z</time><name>PT11792</name></trkpt>
<trkpt lat="51.815765" lon="03.965020"><ele>-2.8</ele><time>2023-12-06T15:01:42Z</time><name>PT11793</name></trkpt>
<trkpt lat="51.815755" lon="03.965026"><ele>-2.7</ele><time>2023-12-06T15:01:42Z</time><name>PT11794</name></trkpt>
<trkpt lat="51.815744" lon="03.965033"><ele>-2.9</ele><time>2023-12-06T15:01:43Z</time><name>PT11795</name></trkpt>
<trkpt lat="51.815734" lon="03.965042"><ele>-2.9</ele><time>2023-12-06T15:01:45Z</time><name>PT11796</name></trkpt>
<trkpt lat="51.815724" lon="03.965051"><ele>-3</ele><time>2023-12-06T15:01:45Z</time><name>PT11797</name></trkpt>
<trkpt lat="51.815713" lon="03.965059"><ele>-3.2</ele><time>2023-12-06T15:01:46Z</time><name>PT11798</name></trkpt>
<trkpt lat="51.815703" lon="03.965067"><ele>-3.1</ele><time>2023-12-06T15:01:48Z</time><name>PT11799</name></trkpt>
<trkpt lat="51.815694" lon="03.965074"><ele>-3.1</ele><time>2023-12-06T15:01:48Z</time><name>PT11800</name></trkpt>
<trkpt lat="51.815684" lon="03.965080"><ele>-3</ele><time>2023-12-06T15:01:49Z</time><name>PT11801</name></trkpt>
<trkpt lat="51.815673" lon="03.965087"><ele>-3</ele><time>2023-12-06T15:01:51Z</time><name>PT11802</name></trkpt>
<trkpt lat="51.815661" lon="03.965092"><ele>-3</ele><time>2023-12-06T15:01:51Z</time><name>PT11803</name></trkpt>
<trkpt lat="51.815651" lon="03.965098"><ele>-3</ele><time>2023-12-06T15:01:52Z</time><name>PT11804</name></trkpt>
<trkpt lat="51.815641" lon="03.965105"><ele>-3.2</ele><time>2023-12-06T15:01:54Z</time><name>PT11805</name></trkpt>
<trkpt lat="51.815632" lon="03.965112"><ele>-3.2</ele><time>2023-12-06T15:01:54Z</time><name>PT11806</name></trkpt>
<trkpt lat="51.815623" lon="03.965121"><ele>-3.1</ele><time>2023-12-06T15:01:55Z</time><name>PT11807</name></trkpt>
<trkpt lat="51.815613" lon="03.965129"><ele>-3</ele><time>2023-12-06T15:01:57Z</time><name>PT11808</name></trkpt>
<trkpt lat="51.815603" lon="03.965137"><ele>-3.2</ele><time>2023-12-06T15:01:57Z</time><name>PT11809</name></trkpt>
<trkpt lat="51.815593" lon="03.965147"><ele>-3</ele><time>2023-12-06T15:01:58Z</time><name>PT11810</name></trkpt>
<trkpt lat="51.815584" lon="03.965153"><ele>-3.1</ele><time>2023-12-06T15:02:00Z</time><name>PT11811</name></trkpt>
<trkpt lat="51.815573" lon="03.965160"><ele>-3.2</ele><time>2023-12-06T15:02:00Z</time><name>PT11812</name></trkpt>
<trkpt lat="51.815563" lon="03.965167"><ele>-3.5</ele><time>2023-12-06T15:02:01Z</time><name>PT11813</name></trkpt>
<trkpt lat="51.815551" lon="03.965174"><ele>-3.4</ele><time>2023-12-06T15:02:03Z</time><name>PT11814</name></trkpt>
<trkpt lat="51.815539" lon="03.965179"><ele>-3.5</ele><time>2023-12-06T15:02:03Z</time><name>PT11815</name></trkpt>
<trkpt lat="51.815528" lon="03.965185"><ele>-3.5</ele><time>2023-12-06T15:02:04Z</time><name>PT11816</name></trkpt>
<trkpt lat="51.815517" lon="03.965191"><ele>-3.4</ele><time>2023-12-06T15:02:06Z</time><name>PT11817</name></trkpt>
<trkpt lat="51.815507" lon="03.965199"><ele>-3.1</ele><time>2023-12-06T15:02:06Z</time><name>PT11818</name></trkpt>
<trkpt lat="51.815497" lon="03.965208"><ele>-2.9</ele><time>2023-12-06T15:02:07Z</time><name>PT11819</name></trkpt>
<trkpt lat="51.815487" lon="03.965217"><ele>-3</ele><time>2023-12-06T15:02:09Z</time><name>PT11820</name></trkpt>
<trkpt lat="51.815477" lon="03.965226"><ele>-3</ele><time>2023-12-06T15:02:09Z</time><name>PT11821</name></trkpt>
<trkpt lat="51.815466" lon="03.965234"><ele>-2.9</ele><time>2023-12-06T15:02:10Z</time><name>PT11822</name></trkpt>
<trkpt lat="51.815455" lon="03.965243"><ele>-3</ele><time>2023-12-06T15:02:12Z</time><name>PT11823</name></trkpt>
<trkpt lat="51.815445" lon="03.965252"><ele>-3</ele><time>2023-12-06T15:02:12Z</time><name>PT11824</name></trkpt>
<trkpt lat="51.815436" lon="03.965260"><ele>-3.3</ele><time>2023-12-06T15:02:13Z</time><name>PT11825</name></trkpt>
<trkpt lat="51.815424" lon="03.965265"><ele>-3.4</ele><time>2023-12-06T15:02:15Z</time><name>PT11826</name></trkpt>
<trkpt lat="51.815412" lon="03.965272"><ele>-3.5</ele><time>2023-12-06T15:02:15Z</time><name>PT11827</name></trkpt>
<trkpt lat="51.815401" lon="03.965281"><ele>-3.5</ele><time>2023-12-06T15:02:16Z</time><name>PT11828</name></trkpt>
<trkpt lat="51.815390" lon="03.965290"><ele>-3.4</ele><time>2023-12-06T15:02:18Z</time><name>PT11829</name></trkpt>
<trkpt lat="51.815380" lon="03.965297"><ele>-3.4</ele><time>2023-12-06T15:02:18Z</time><name>PT11830</name></trkpt>
<trkpt lat="51.815369" lon="03.965303"><ele>-3.5</ele><time>2023-12-06T15:02:19Z</time><name>PT11831</name></trkpt>
<trkpt lat="51.815358" lon="03.965308"><ele>-3.4</ele><time>2023-12-06T15:02:21Z</time><name>PT11832</name></trkpt>
<trkpt lat="51.815347" lon="03.965313"><ele>-3.2</ele><time>2023-12-06T15:02:21Z</time><name>PT11833</name></trkpt>
<trkpt lat="51.815337" lon="03.965320"><ele>-3.3</ele><time>2023-12-06T15:02:22Z</time><name>PT11834</name></trkpt>
<trkpt lat="51.815328" lon="03.965329"><ele>-3.3</ele><time>2023-12-06T15:02:24Z</time><name>PT11835</name></trkpt>
<trkpt lat="51.815319" lon="03.965333"><ele>-3.3</ele><time>2023-12-06T15:02:24Z</time><name>PT11836</name></trkpt>
<trkpt lat="51.815310" lon="03.965338"><ele>-3.5</ele><time>2023-12-06T15:02:25Z</time><name>PT11837</name></trkpt>
<trkpt lat="51.815301" lon="03.965346"><ele>-3.5</ele><time>2023-12-06T15:02:27Z</time><name>PT11838</name></trkpt>
<trkpt lat="51.815291" lon="03.965356"><ele>-3.4</ele><time>2023-12-06T15:02:27Z</time><name>PT11839</name></trkpt>
<trkpt lat="51.815280" lon="03.965365"><ele>-3.4</ele><time>2023-12-06T15:02:28Z</time><name>PT11840</name></trkpt>
<trkpt lat="51.815270" lon="03.965374"><ele>-3.4</ele><time>2023-12-06T15:02:30Z</time><name>PT11841</name></trkpt>
<trkpt lat="51.815259" lon="03.965382"><ele>-3.2</ele><time>2023-12-06T15:02:30Z</time><name>PT11842</name></trkpt>
<trkpt lat="51.815248" lon="03.965388"><ele>-3.2</ele><time>2023-12-06T15:02:31Z</time><name>PT11843</name></trkpt>
<trkpt lat="51.815237" lon="03.965394"><ele>-3.3</ele><time>2023-12-06T15:02:33Z</time><name>PT11844</name></trkpt>
<trkpt lat="51.815226" lon="03.965400"><ele>-3.3</ele><time>2023-12-06T15:02:33Z</time><name>PT11845</name></trkpt>
<trkpt lat="51.815216" lon="03.965408"><ele>-3.2</ele><time>2023-12-06T15:02:34Z</time><name>PT11846</name></trkpt>
<trkpt lat="51.815206" lon="03.965417"><ele>-3.4</ele><time>2023-12-06T15:02:36Z</time><name>PT11847</name></trkpt>
<trkpt lat="51.815196" lon="03.965426"><ele>-3.2</ele><time>2023-12-06T15:02:36Z</time><name>PT11848</name></trkpt>
<trkpt lat="51.815187" lon="03.965434"><ele>-3</ele><time>2023-12-06T15:02:37Z</time><name>PT11849</name></trkpt>
<trkpt lat="51.815180" lon="03.965442"><ele>-3.1</ele><time>2023-12-06T15:02:39Z</time><name>PT11850</name></trkpt>
<trkpt lat="51.815171" lon="03.965449"><ele>-3.3</ele><time>2023-12-06T15:02:39Z</time><name>PT11851</name></trkpt>
<trkpt lat="51.815161" lon="03.965454"><ele>-3.4</ele><time>2023-12-06T15:02:40Z</time><name>PT11852</name></trkpt>
<trkpt lat="51.815151" lon="03.965461"><ele>-3.1</ele><time>2023-12-06T15:02:42Z</time><name>PT11853</name></trkpt>
<trkpt lat="51.815143" lon="03.965470"><ele>-3.2</ele><time>2023-12-06T15:02:42Z</time><name>PT11854</name></trkpt>
<trkpt lat="51.815135" lon="03.965478"><ele>-3.2</ele><time>2023-12-06T15:02:43Z</time><name>PT11855</name></trkpt>
<trkpt lat="51.815127" lon="03.965488"><ele>-3.2</ele><time>2023-12-06T15:02:45Z</time><name>PT11856</name></trkpt>
<trkpt lat="51.815118" lon="03.965495"><ele>-3.1</ele><time>2023-12-06T15:02:45Z</time><name>PT11857</name></trkpt>
<trkpt lat="51.815109" lon="03.965503"><ele>-3.2</ele><time>2023-12-06T15:02:46Z</time><name>PT11858</name></trkpt>
<trkpt lat="51.815100" lon="03.965513"><ele>-3.2</ele><time>2023-12-06T15:02:48Z</time><name>PT11859</name></trkpt>
<trkpt lat="51.815092" lon="03.965523"><ele>-3.2</ele><time>2023-12-06T15:02:48Z</time><name>PT11860</name></trkpt>
<trkpt lat="51.815084" lon="03.965532"><ele>-3.1</ele><time>2023-12-06T15:02:49Z</time><name>PT11861</name></trkpt>
<trkpt lat="51.815076" lon="03.965540"><ele>-3.2</ele><time>2023-12-06T15:02:51Z</time><name>PT11862</name></trkpt>
<trkpt lat="51.815067" lon="03.965549"><ele>-3.2</ele><time>2023-12-06T15:02:51Z</time><name>PT11863</name></trkpt>
<trkpt lat="51.815058" lon="03.965558"><ele>-3.3</ele><time>2023-12-06T15:02:52Z</time><name>PT11864</name></trkpt>
<trkpt lat="51.815049" lon="03.965567"><ele>-3.2</ele><time>2023-12-06T15:02:54Z</time><name>PT11865</name></trkpt>
<trkpt lat="51.815042" lon="03.965577"><ele>-3.2</ele><time>2023-12-06T15:02:54Z</time><name>PT11866</name></trkpt>
<trkpt lat="51.815036" lon="03.965589"><ele>-3</ele><time>2023-12-06T15:02:55Z</time><name>PT11867</name></trkpt>
<trkpt lat="51.815029" lon="03.965603"><ele>-3</ele><time>2023-12-06T15:02:57Z</time><name>PT11868</name></trkpt>
<trkpt lat="51.815023" lon="03.965617"><ele>-3.1</ele><time>2023-12-06T15:02:57Z</time><name>PT11869</name></trkpt>
<trkpt lat="51.815017" lon="03.965629"><ele>-2.9</ele><time>2023-12-06T15:02:58Z</time><name>PT11870</name></trkpt>
<trkpt lat="51.815011" lon="03.965643"><ele>-2.8</ele><time>2023-12-06T15:03:00Z</time><name>PT11871</name></trkpt>
<trkpt lat="51.815004" lon="03.965657"><ele>-2.8</ele><time>2023-12-06T15:03:00Z</time><name>PT11872</name></trkpt>
<trkpt lat="51.814999" lon="03.965669"><ele>-2.6</ele><time>2023-12-06T15:03:01Z</time><name>PT11873</name></trkpt>
<trkpt lat="51.814995" lon="03.965681"><ele>-2.5</ele><time>2023-12-06T15:03:03Z</time><name>PT11874</name></trkpt>
<trkpt lat="51.814992" lon="03.965697"><ele>-2.4</ele><time>2023-12-06T15:03:03Z</time><name>PT11875</name></trkpt>
<trkpt lat="51.814991" lon="03.965712"><ele>-2.2</ele><time>2023-12-06T15:03:04Z</time><name>PT11876</name></trkpt>
<trkpt lat="51.814991" lon="03.965728"><ele>-2.2</ele><time>2023-12-06T15:03:06Z</time><name>PT11877</name></trkpt>
<trkpt lat="51.814994" lon="03.965745"><ele>-2</ele><time>2023-12-06T15:03:06Z</time><name>PT11878</name></trkpt>
<trkpt lat="51.814998" lon="03.965760"><ele>-2.1</ele><time>2023-12-06T15:03:07Z</time><name>PT11879</name></trkpt>
<trkpt lat="51.815003" lon="03.965773"><ele>-2.1</ele><time>2023-12-06T15:03:09Z</time><name>PT11880</name></trkpt>
<trkpt lat="51.815007" lon="03.965787"><ele>-2.3</ele><time>2023-12-06T15:03:09Z</time><name>PT11881</name></trkpt>
<trkpt lat="51.815011" lon="03.965802"><ele>-2.3</ele><time>2023-12-06T15:03:10Z</time><name>PT11882</name></trkpt>
<trkpt lat="51.815013" lon="03.965817"><ele>-2.4</ele><time>2023-12-06T15:03:12Z</time><name>PT11883</name></trkpt>
<trkpt lat="51.815016" lon="03.965833"><ele>-2.5</ele><time>2023-12-06T15:03:12Z</time><name>PT11884</name></trkpt>
<trkpt lat="51.815019" lon="03.965849"><ele>-2.6</ele><time>2023-12-06T15:03:13Z</time><name>PT11885</name></trkpt>
<trkpt lat="51.815023" lon="03.965864"><ele>-2.7</ele><time>2023-12-06T15:03:15Z</time><name>PT11886</name></trkpt>
<trkpt lat="51.815028" lon="03.965879"><ele>-2.8</ele><time>2023-12-06T15:03:15Z</time><name>PT11887</name></trkpt>
<trkpt lat="51.815032" lon="03.965892"><ele>-2.7</ele><time>2023-12-06T15:03:16Z</time><name>PT11888</name></trkpt>
<trkpt lat="51.815034" lon="03.965906"><ele>-2.9</ele><time>2023-12-06T15:03:18Z</time><name>PT11889</name></trkpt>
<trkpt lat="51.815040" lon="03.965920"><ele>-3</ele><time>2023-12-06T15:03:18Z</time><name>PT11890</name></trkpt>
<trkpt lat="51.815045" lon="03.965934"><ele>-3</ele><time>2023-12-06T15:03:19Z</time><name>PT11891</name></trkpt>
<trkpt lat="51.815048" lon="03.965954"><ele>-3.1</ele><time>2023-12-06T15:03:21Z</time><name>PT11892</name></trkpt>
<trkpt lat="51.815053" lon="03.965970"><ele>-3.4</ele><time>2023-12-06T15:03:21Z</time><name>PT11893</name></trkpt>
<trkpt lat="51.815057" lon="03.965983"><ele>-3.5</ele><time>2023-12-06T15:03:22Z</time><name>PT11894</name></trkpt>
<trkpt lat="51.815060" lon="03.966000"><ele>-3.6</ele><time>2023-12-06T15:03:24Z</time><name>PT11895</name></trkpt>
<trkpt lat="51.815065" lon="03.966016"><ele>-3.8</ele><time>2023-12-06T15:03:24Z</time><name>PT11896</name></trkpt>
<trkpt lat="51.815070" lon="03.966029"><ele>-4</ele><time>2023-12-06T15:03:25Z</time><name>PT11897</name></trkpt>
<trkpt lat="51.815074" lon="03.966045"><ele>-3.8</ele><time>2023-12-06T15:03:27Z</time><name>PT11898</name></trkpt>
<trkpt lat="51.815078" lon="03.966061"><ele>-3.8</ele><time>2023-12-06T15:03:27Z</time><name>PT11899</name></trkpt>
<trkpt lat="51.815082" lon="03.966078"><ele>-3.9</ele><time>2023-12-06T15:03:28Z</time><name>PT11900</name></trkpt>
<trkpt lat="51.815087" lon="03.966094"><ele>-3.6</ele><time>2023-12-06T15:03:30Z</time><name>PT11901</name></trkpt>
<trkpt lat="51.815091" lon="03.966110"><ele>-3.7</ele><time>2023-12-06T15:03:30Z</time><name>PT11902</name></trkpt>
<trkpt lat="51.815097" lon="03.966123"><ele>-3.7</ele><time>2023-12-06T15:03:31Z</time><name>PT11903</name></trkpt>
<trkpt lat="51.815102" lon="03.966134"><ele>-3.8</ele><time>2023-12-06T15:03:33Z</time><name>PT11904</name></trkpt>
<trkpt lat="51.815107" lon="03.966146"><ele>-3.8</ele><time>2023-12-06T15:03:33Z</time><name>PT11905</name></trkpt>
<trkpt lat="51.815113" lon="03.966158"><ele>-3.9</ele><time>2023-12-06T15:03:34Z</time><name>PT11906</name></trkpt>
<trkpt lat="51.815117" lon="03.966174"><ele>-4</ele><time>2023-12-06T15:03:36Z</time><name>PT11907</name></trkpt>
<trkpt lat="51.815120" lon="03.966189"><ele>-4</ele><time>2023-12-06T15:03:36Z</time><name>PT11908</name></trkpt>
<trkpt lat="51.815124" lon="03.966206"><ele>-4.2</ele><time>2023-12-06T15:03:37Z</time><name>PT11909</name></trkpt>
<trkpt lat="51.815129" lon="03.966222"><ele>-4.2</ele><time>2023-12-06T15:03:39Z</time><name>PT11910</name></trkpt>
<trkpt lat="51.815133" lon="03.966241"><ele>-4.4</ele><time>2023-12-06T15:03:39Z</time><name>PT11911</name></trkpt>
<trkpt lat="51.815136" lon="03.966260"><ele>-4.5</ele><time>2023-12-06T15:03:40Z</time><name>PT11912</name></trkpt>
<trkpt lat="51.815140" lon="03.966277"><ele>-4.4</ele><time>2023-12-06T15:03:42Z</time><name>PT11913</name></trkpt>
<trkpt lat="51.815143" lon="03.966292"><ele>-4.4</ele><time>2023-12-06T15:03:42Z</time><name>PT11914</name></trkpt>
<trkpt lat="51.815146" lon="03.966308"><ele>-4.5</ele><time>2023-12-06T15:03:43Z</time><name>PT11915</name></trkpt>
<trkpt lat="51.815153" lon="03.966325"><ele>-4.5</ele><time>2023-12-06T15:03:45Z</time><name>PT11916</name></trkpt>
<trkpt lat="51.815158" lon="03.966343"><ele>-4.5</ele><time>2023-12-06T15:03:45Z</time><name>PT11917</name></trkpt>
<trkpt lat="51.815164" lon="03.966364"><ele>-4.3</ele><time>2023-12-06T15:03:46Z</time><name>PT11918</name></trkpt>
<trkpt lat="51.815169" lon="03.966379"><ele>-4.2</ele><time>2023-12-06T15:03:48Z</time><name>PT11919</name></trkpt>
<trkpt lat="51.815173" lon="03.966395"><ele>-4.2</ele><time>2023-12-06T15:03:48Z</time><name>PT11920</name></trkpt>
<trkpt lat="51.815180" lon="03.966412"><ele>-4.2</ele><time>2023-12-06T15:03:49Z</time><name>PT11921</name></trkpt>
<trkpt lat="51.815180" lon="03.966427"><ele>-4.2</ele><time>2023-12-06T15:03:51Z</time><name>PT11922</name></trkpt>
<trkpt lat="51.815182" lon="03.966445"><ele>-4.5</ele><time>2023-12-06T15:03:51Z</time><name>PT11923</name></trkpt>
<trkpt lat="51.815188" lon="03.966465"><ele>-4.7</ele><time>2023-12-06T15:03:52Z</time><name>PT11924</name></trkpt>
<trkpt lat="51.815193" lon="03.966487"><ele>-4.8</ele><time>2023-12-06T15:03:54Z</time><name>PT11925</name></trkpt>
<trkpt lat="51.815201" lon="03.966507"><ele>-4.7</ele><time>2023-12-06T15:03:54Z</time><name>PT11926</name></trkpt>
<trkpt lat="51.815206" lon="03.966521"><ele>-4.6</ele><time>2023-12-06T15:03:55Z</time><name>PT11927</name></trkpt>
<trkpt lat="51.815213" lon="03.966535"><ele>-4.5</ele><time>2023-12-06T15:03:57Z</time><name>PT11928</name></trkpt>
<trkpt lat="51.815219" lon="03.966550"><ele>-4.4</ele><time>2023-12-06T15:03:57Z</time><name>PT11929</name></trkpt>
<trkpt lat="51.815225" lon="03.966565"><ele>-4.1</ele><time>2023-12-06T15:03:58Z</time><name>PT11930</name></trkpt>
<trkpt lat="51.815231" lon="03.966580"><ele>-4.2</ele><time>2023-12-06T15:04:00Z</time><name>PT11931</name></trkpt>
<trkpt lat="51.815234" lon="03.966598"><ele>-4.2</ele><time>2023-12-06T15:04:00Z</time><name>PT11932</name></trkpt>
<trkpt lat="51.815239" lon="03.966615"><ele>-4.1</ele><time>2023-12-06T15:04:01Z</time><name>PT11933</name></trkpt>
<trkpt lat="51.815242" lon="03.966637"><ele>-4.4</ele><time>2023-12-06T15:04:03Z</time><name>PT11934</name></trkpt>
<trkpt lat="51.815243" lon="03.966658"><ele>-4.6</ele><time>2023-12-06T15:04:03Z</time><name>PT11935</name></trkpt>
<trkpt lat="51.815245" lon="03.966679"><ele>-4.9</ele><time>2023-12-06T15:04:04Z</time><name>PT11936</name></trkpt>
<trkpt lat="51.815249" lon="03.966696"><ele>-5.1</ele><time>2023-12-06T15:04:06Z</time><name>PT11937</name></trkpt>
<trkpt lat="51.815252" lon="03.966716"><ele>-5.1</ele><time>2023-12-06T15:04:06Z</time><name>PT11938</name></trkpt>
<trkpt lat="51.815256" lon="03.966731"><ele>-4.9</ele><time>2023-12-06T15:04:07Z</time><name>PT11939</name></trkpt>
<trkpt lat="51.815261" lon="03.966745"><ele>-4.8</ele><time>2023-12-06T15:04:09Z</time><name>PT11940</name></trkpt>
<trkpt lat="51.815264" lon="03.966760"><ele>-4.8</ele><time>2023-12-06T15:04:09Z</time><name>PT11941</name></trkpt>
<trkpt lat="51.815270" lon="03.966773"><ele>-4.8</ele><time>2023-12-06T15:04:10Z</time><name>PT11942</name></trkpt>
<trkpt lat="51.815274" lon="03.966791"><ele>-4.7</ele><time>2023-12-06T15:04:12Z</time><name>PT11943</name></trkpt>
<trkpt lat="51.815275" lon="03.966811"><ele>-4.5</ele><time>2023-12-06T15:04:12Z</time><name>PT11944</name></trkpt>
<trkpt lat="51.815279" lon="03.966828"><ele>-4.5</ele><time>2023-12-06T15:04:13Z</time><name>PT11945</name></trkpt>
<trkpt lat="51.815283" lon="03.966846"><ele>-4.5</ele><time>2023-12-06T15:04:15Z</time><name>PT11946</name></trkpt>
<trkpt lat="51.815285" lon="03.966864"><ele>-4.4</ele><time>2023-12-06T15:04:15Z</time><name>PT11947</name></trkpt>
<trkpt lat="51.815288" lon="03.966883"><ele>-4.5</ele><time>2023-12-06T15:04:16Z</time><name>PT11948</name></trkpt>
<trkpt lat="51.815291" lon="03.966902"><ele>-4.7</ele><time>2023-12-06T15:04:18Z</time><name>PT11949</name></trkpt>
<trkpt lat="51.815294" lon="03.966916"><ele>-4.7</ele><time>2023-12-06T15:04:18Z</time><name>PT11950</name></trkpt>
<trkpt lat="51.815296" lon="03.966929"><ele>-4.7</ele><time>2023-12-06T15:04:19Z</time><name>PT11951</name></trkpt>
<trkpt lat="51.815299" lon="03.966943"><ele>-4.5</ele><time>2023-12-06T15:04:21Z</time><name>PT11952</name></trkpt>
<trkpt lat="51.815304" lon="03.966956"><ele>-4.5</ele><time>2023-12-06T15:04:21Z</time><name>PT11953</name></trkpt>
<trkpt lat="51.815308" lon="03.966970"><ele>-4.7</ele><time>2023-12-06T15:04:22Z</time><name>PT11954</name></trkpt>
<trkpt lat="51.815312" lon="03.966985"><ele>-4.9</ele><time>2023-12-06T15:04:24Z</time><name>PT11955</name></trkpt>
<trkpt lat="51.815315" lon="03.966999"><ele>-4.9</ele><time>2023-12-06T15:04:24Z</time><name>PT11956</name></trkpt>
<trkpt lat="51.815318" lon="03.967013"><ele>-4.9</ele><time>2023-12-06T15:04:25Z</time><name>PT11957</name></trkpt>
<trkpt lat="51.815321" lon="03.967029"><ele>-4.7</ele><time>2023-12-06T15:04:27Z</time><name>PT11958</name></trkpt>
<trkpt lat="51.815326" lon="03.967043"><ele>-4.5</ele><time>2023-12-06T15:04:27Z</time><name>PT11959</name></trkpt>
<trkpt lat="51.815329" lon="03.967052"><ele>-4.5</ele><time>2023-12-06T15:04:28Z</time><name>PT11960</name></trkpt>
<trkpt lat="51.815330" lon="03.967069"><ele>-4.6</ele><time>2023-12-06T15:04:30Z</time><name>PT11961</name></trkpt>
<trkpt lat="51.815333" lon="03.967083"><ele>-4.7</ele><time>2023-12-06T15:04:30Z</time><name>PT11962</name></trkpt>
<trkpt lat="51.815335" lon="03.967101"><ele>-4.9</ele><time>2023-12-06T15:04:31Z</time><name>PT11963</name></trkpt>
<trkpt lat="51.815336" lon="03.967120"><ele>-5</ele><time>2023-12-06T15:04:33Z</time><name>PT11964</name></trkpt>
<trkpt lat="51.815339" lon="03.967141"><ele>-4.9</ele><time>2023-12-06T15:04:33Z</time><name>PT11965</name></trkpt>
<trkpt lat="51.815341" lon="03.967158"><ele>-4.8</ele><time>2023-12-06T15:04:34Z</time><name>PT11966</name></trkpt>
<trkpt lat="51.815344" lon="03.967175"><ele>-4.9</ele><time>2023-12-06T15:04:36Z</time><name>PT11967</name></trkpt>
<trkpt lat="51.815347" lon="03.967194"><ele>-4.9</ele><time>2023-12-06T15:04:36Z</time><name>PT11968</name></trkpt>
<trkpt lat="51.815342" lon="03.967209"><ele>-4.9</ele><time>2023-12-06T15:04:37Z</time><name>PT11969</name></trkpt>
<trkpt lat="51.815343" lon="03.967220"><ele>-4.9</ele><time>2023-12-06T15:04:39Z</time><name>PT11970</name></trkpt>
<trkpt lat="51.815341" lon="03.967231"><ele>-5.3</ele><time>2023-12-06T15:04:42Z</time><name>PT11971</name></trkpt>
<trkpt lat="51.815339" lon="03.967229"><ele>-5.4</ele><time>2023-12-06T15:04:42Z</time><name>PT11972</name></trkpt>
<trkpt lat="51.815338" lon="03.967232"><ele>-5.4</ele><time>2023-12-06T15:04:43Z</time><name>PT11973</name></trkpt>
<trkpt lat="51.815341" lon="03.967238"><ele>-5.3</ele><time>2023-12-06T15:04:48Z</time><name>PT11974</name></trkpt>
<trkpt lat="51.815336" lon="03.967244"><ele>-5.3</ele><time>2023-12-06T15:04:48Z</time><name>PT11975</name></trkpt>
<trkpt lat="51.815333" lon="03.967246"><ele>-5.1</ele><time>2023-12-06T15:04:49Z</time><name>PT11976</name></trkpt>
<trkpt lat="51.815331" lon="03.967246"><ele>-5.1</ele><time>2023-12-06T15:04:51Z</time><name>PT11977</name></trkpt>
<trkpt lat="51.815331" lon="03.967256"><ele>-5</ele><time>2023-12-06T15:04:51Z</time><name>PT11978</name></trkpt>
<trkpt lat="51.815329" lon="03.967267"><ele>-5.2</ele><time>2023-12-06T15:04:53Z</time><name>PT11979</name></trkpt>
<trkpt lat="51.815332" lon="03.967278"><ele>-5.3</ele><time>2023-12-06T15:04:54Z</time><name>PT11980</name></trkpt>
<trkpt lat="51.815337" lon="03.967292"><ele>-5.4</ele><time>2023-12-06T15:04:54Z</time><name>PT11981</name></trkpt>
<trkpt lat="51.815342" lon="03.967307"><ele>-5.3</ele><time>2023-12-06T15:04:55Z</time><name>PT11982</name></trkpt>
<trkpt lat="51.815344" lon="03.967322"><ele>-5.3</ele><time>2023-12-06T15:04:57Z</time><name>PT11983</name></trkpt>
<trkpt lat="51.815348" lon="03.967337"><ele>-5.3</ele><time>2023-12-06T15:04:57Z</time><name>PT11984</name></trkpt>
<trkpt lat="51.815353" lon="03.967349"><ele>-5.1</ele><time>2023-12-06T15:04:58Z</time><name>PT11985</name></trkpt>
<trkpt lat="51.815357" lon="03.967365"><ele>-4.9</ele><time>2023-12-06T15:05:00Z</time><name>PT11986</name></trkpt>
<trkpt lat="51.815363" lon="03.967376"><ele>-4.9</ele><time>2023-12-06T15:05:00Z</time><name>PT11987</name></trkpt>
<trkpt lat="51.815368" lon="03.967390"><ele>-4.9</ele><time>2023-12-06T15:05:01Z</time><name>PT11988</name></trkpt>
<trkpt lat="51.815373" lon="03.967402"><ele>-4.9</ele><time>2023-12-06T15:05:03Z</time><name>PT11989</name></trkpt>
<trkpt lat="51.815378" lon="03.967415"><ele>-4.9</ele><time>2023-12-06T15:05:03Z</time><name>PT11990</name></trkpt>
<trkpt lat="51.815382" lon="03.967430"><ele>-5.2</ele><time>2023-12-06T15:05:04Z</time><name>PT11991</name></trkpt>
<trkpt lat="51.815388" lon="03.967447"><ele>-5.2</ele><time>2023-12-06T15:05:06Z</time><name>PT11992</name></trkpt>
<trkpt lat="51.815391" lon="03.967460"><ele>-5.2</ele><time>2023-12-06T15:05:06Z</time><name>PT11993</name></trkpt>
<trkpt lat="51.815393" lon="03.967475"><ele>-5.4</ele><time>2023-12-06T15:05:07Z</time><name>PT11994</name></trkpt>
<trkpt lat="51.815398" lon="03.967495"><ele>-5.3</ele><time>2023-12-06T15:05:09Z</time><name>PT11995</name></trkpt>
<trkpt lat="51.815401" lon="03.967510"><ele>-5.2</ele><time>2023-12-06T15:05:09Z</time><name>PT11996</name></trkpt>
<trkpt lat="51.815406" lon="03.967529"><ele>-5.2</ele><time>2023-12-06T15:05:10Z</time><name>PT11997</name></trkpt>
<trkpt lat="51.815411" lon="03.967546"><ele>-5</ele><time>2023-12-06T15:05:12Z</time><name>PT11998</name></trkpt>
<trkpt lat="51.815414" lon="03.967565"><ele>-5</ele><time>2023-12-06T15:05:12Z</time><name>PT11999</name></trkpt>
<trkpt lat="51.815417" lon="03.967584"><ele>-5.2</ele><time>2023-12-06T15:05:13Z</time><name>PT12000</name></trkpt>
<trkpt lat="51.815421" lon="03.967604"><ele>-5.1</ele><time>2023-12-06T15:05:15Z</time><name>PT12001</name></trkpt>
<trkpt lat="51.815427" lon="03.967621"><ele>-5.2</ele><time>2023-12-06T15:05:15Z</time><name>PT12002</name></trkpt>
<trkpt lat="51.815431" lon="03.967640"><ele>-5</ele><time>2023-12-06T15:05:16Z</time><name>PT12003</name></trkpt>
<trkpt lat="51.815435" lon="03.967660"><ele>-4.9</ele><time>2023-12-06T15:05:18Z</time><name>PT12004</name></trkpt>
<trkpt lat="51.815439" lon="03.967678"><ele>-5</ele><time>2023-12-06T15:05:18Z</time><name>PT12005</name></trkpt>
<trkpt lat="51.815444" lon="03.967697"><ele>-4.9</ele><time>2023-12-06T15:05:19Z</time><name>PT12006</name></trkpt>
<trkpt lat="51.815449" lon="03.967714"><ele>-4.9</ele><time>2023-12-06T15:05:21Z</time><name>PT12007</name></trkpt>
<trkpt lat="51.815455" lon="03.967731"><ele>-5.2</ele><time>2023-12-06T15:05:21Z</time><name>PT12008</name></trkpt>
<trkpt lat="51.815457" lon="03.967750"><ele>-5.2</ele><time>2023-12-06T15:05:22Z</time><name>PT12009</name></trkpt>
<trkpt lat="51.815462" lon="03.967766"><ele>-5</ele><time>2023-12-06T15:05:24Z</time><name>PT12010</name></trkpt>
<trkpt lat="51.815464" lon="03.967785"><ele>-5</ele><time>2023-12-06T15:05:24Z</time><name>PT12011</name></trkpt>
<trkpt lat="51.815467" lon="03.967802"><ele>-5</ele><time>2023-12-06T15:05:25Z</time><name>PT12012</name></trkpt>
<trkpt lat="51.815469" lon="03.967821"><ele>-4.9</ele><time>2023-12-06T15:05:27Z</time><name>PT12013</name></trkpt>
<trkpt lat="51.815472" lon="03.967841"><ele>-5</ele><time>2023-12-06T15:05:27Z</time><name>PT12014</name></trkpt>
<trkpt lat="51.815474" lon="03.967861"><ele>-5</ele><time>2023-12-06T15:05:28Z</time><name>PT12015</name></trkpt>
<trkpt lat="51.815476" lon="03.967879"><ele>-5</ele><time>2023-12-06T15:05:30Z</time><name>PT12016</name></trkpt>
<trkpt lat="51.815480" lon="03.967896"><ele>-4.9</ele><time>2023-12-06T15:05:30Z</time><name>PT12017</name></trkpt>
<trkpt lat="51.815483" lon="03.967912"><ele>-4.9</ele><time>2023-12-06T15:05:31Z</time><name>PT12018</name></trkpt>
<trkpt lat="51.815486" lon="03.967929"><ele>-4.9</ele><time>2023-12-06T15:05:33Z</time><name>PT12019</name></trkpt>
<trkpt lat="51.815488" lon="03.967944"><ele>-4.9</ele><time>2023-12-06T15:05:33Z</time><name>PT12020</name></trkpt>
<trkpt lat="51.815492" lon="03.967957"><ele>-5</ele><time>2023-12-06T15:05:34Z</time><name>PT12021</name></trkpt>
<trkpt lat="51.815498" lon="03.967974"><ele>-5.1</ele><time>2023-12-06T15:05:36Z</time><name>PT12022</name></trkpt>
<trkpt lat="51.815502" lon="03.967991"><ele>-5.2</ele><time>2023-12-06T15:05:36Z</time><name>PT12023</name></trkpt>
<trkpt lat="51.815504" lon="03.968009"><ele>-5.2</ele><time>2023-12-06T15:05:37Z</time><name>PT12024</name></trkpt>
<trkpt lat="51.815506" lon="03.968028"><ele>-5.1</ele><time>2023-12-06T15:05:39Z</time><name>PT12025</name></trkpt>
<trkpt lat="51.815508" lon="03.968048"><ele>-5</ele><time>2023-12-06T15:05:39Z</time><name>PT12026</name></trkpt>
<trkpt lat="51.815511" lon="03.968066"><ele>-5.1</ele><time>2023-12-06T15:05:40Z</time><name>PT12027</name></trkpt>
<trkpt lat="51.815515" lon="03.968083"><ele>-5</ele><time>2023-12-06T15:05:42Z</time><name>PT12028</name></trkpt>
<trkpt lat="51.815518" lon="03.968099"><ele>-4.9</ele><time>2023-12-06T15:05:42Z</time><name>PT12029</name></trkpt>
<trkpt lat="51.815522" lon="03.968115"><ele>-5</ele><time>2023-12-06T15:05:43Z</time><name>PT12030</name></trkpt>
<trkpt lat="51.815525" lon="03.968131"><ele>-4.9</ele><time>2023-12-06T15:05:45Z</time><name>PT12031</name></trkpt>
<trkpt lat="51.815530" lon="03.968144"><ele>-5</ele><time>2023-12-06T15:05:45Z</time><name>PT12032</name></trkpt>
<trkpt lat="51.815533" lon="03.968159"><ele>-5</ele><time>2023-12-06T15:05:46Z</time><name>PT12033</name></trkpt>
<trkpt lat="51.815538" lon="03.968176"><ele>-5</ele><time>2023-12-06T15:05:48Z</time><name>PT12034</name></trkpt>
<trkpt lat="51.815541" lon="03.968195"><ele>-5.1</ele><time>2023-12-06T15:05:48Z</time><name>PT12035</name></trkpt>
<trkpt lat="51.815544" lon="03.968214"><ele>-5.1</ele><time>2023-12-06T15:05:49Z</time><name>PT12036</name></trkpt>
<trkpt lat="51.815549" lon="03.968229"><ele>-5.1</ele><time>2023-12-06T15:05:51Z</time><name>PT12037</name></trkpt>
<trkpt lat="51.815552" lon="03.968248"><ele>-5.2</ele><time>2023-12-06T15:05:51Z</time><name>PT12038</name></trkpt>
<trkpt lat="51.815556" lon="03.968267"><ele>-5.3</ele><time>2023-12-06T15:05:52Z</time><name>PT12039</name></trkpt>
<trkpt lat="51.815559" lon="03.968288"><ele>-5.3</ele><time>2023-12-06T15:05:54Z</time><name>PT12040</name></trkpt>
<trkpt lat="51.815562" lon="03.968308"><ele>-5.3</ele><time>2023-12-06T15:05:54Z</time><name>PT12041</name></trkpt>
<trkpt lat="51.815565" lon="03.968324"><ele>-5.4</ele><time>2023-12-06T15:05:55Z</time><name>PT12042</name></trkpt>
<trkpt lat="51.815569" lon="03.968339"><ele>-5.1</ele><time>2023-12-06T15:05:57Z</time><name>PT12043</name></trkpt>
<trkpt lat="51.815573" lon="03.968358"><ele>-5.2</ele><time>2023-12-06T15:05:57Z</time><name>PT12044</name></trkpt>
<trkpt lat="51.815575" lon="03.968377"><ele>-5.4</ele><time>2023-12-06T15:05:58Z</time><name>PT12045</name></trkpt>
<trkpt lat="51.815578" lon="03.968396"><ele>-5.4</ele><time>2023-12-06T15:06:00Z</time><name>PT12046</name></trkpt>
<trkpt lat="51.815582" lon="03.968415"><ele>-5.4</ele><time>2023-12-06T15:06:00Z</time><name>PT12047</name></trkpt>
<trkpt lat="51.815585" lon="03.968433"><ele>-5.4</ele><time>2023-12-06T15:06:01Z</time><name>PT12048</name></trkpt>
<trkpt lat="51.815589" lon="03.968450"><ele>-5.4</ele><time>2023-12-06T15:06:03Z</time><name>PT12049</name></trkpt>
<trkpt lat="51.815593" lon="03.968467"><ele>-5.3</ele><time>2023-12-06T15:06:03Z</time><name>PT12050</name></trkpt>
<trkpt lat="51.815596" lon="03.968484"><ele>-5.1</ele><time>2023-12-06T15:06:04Z</time><name>PT12051</name></trkpt>
<trkpt lat="51.815601" lon="03.968501"><ele>-5</ele><time>2023-12-06T15:06:06Z</time><name>PT12052</name></trkpt>
<trkpt lat="51.815605" lon="03.968519"><ele>-5.1</ele><time>2023-12-06T15:06:06Z</time><name>PT12053</name></trkpt>
<trkpt lat="51.815609" lon="03.968537"><ele>-4.9</ele><time>2023-12-06T15:06:07Z</time><name>PT12054</name></trkpt>
<trkpt lat="51.815613" lon="03.968554"><ele>-5</ele><time>2023-12-06T15:06:09Z</time><name>PT12055</name></trkpt>
<trkpt lat="51.815616" lon="03.968571"><ele>-5.1</ele><time>2023-12-06T15:06:09Z</time><name>PT12056</name></trkpt>
<trkpt lat="51.815620" lon="03.968589"><ele>-5.3</ele><time>2023-12-06T15:06:10Z</time><name>PT12057</name></trkpt>
<trkpt lat="51.815622" lon="03.968605"><ele>-5</ele><time>2023-12-06T15:06:12Z</time><name>PT12058</name></trkpt>
<trkpt lat="51.815624" lon="03.968622"><ele>-5.2</ele><time>2023-12-06T15:06:12Z</time><name>PT12059</name></trkpt>
<trkpt lat="51.815627" lon="03.968637"><ele>-5.2</ele><time>2023-12-06T15:06:13Z</time><name>PT12060</name></trkpt>
<trkpt lat="51.815631" lon="03.968654"><ele>-5.2</ele><time>2023-12-06T15:06:15Z</time><name>PT12061</name></trkpt>
<trkpt lat="51.815633" lon="03.968671"><ele>-5.2</ele><time>2023-12-06T15:06:15Z</time><name>PT12062</name></trkpt>
<trkpt lat="51.815636" lon="03.968687"><ele>-5.1</ele><time>2023-12-06T15:06:16Z</time><name>PT12063</name></trkpt>
<trkpt lat="51.815643" lon="03.968700"><ele>-4.9</ele><time>2023-12-06T15:06:18Z</time><name>PT12064</name></trkpt>
<trkpt lat="51.815647" lon="03.968715"><ele>-4.9</ele><time>2023-12-06T15:06:18Z</time><name>PT12065</name></trkpt>
<trkpt lat="51.815651" lon="03.968730"><ele>-5.1</ele><time>2023-12-06T15:06:19Z</time><name>PT12066</name></trkpt>
<trkpt lat="51.815655" lon="03.968745"><ele>-5</ele><time>2023-12-06T15:06:21Z</time><name>PT12067</name></trkpt>
<trkpt lat="51.815659" lon="03.968761"><ele>-5.2</ele><time>2023-12-06T15:06:21Z</time><name>PT12068</name></trkpt>
<trkpt lat="51.815662" lon="03.968779"><ele>-5.3</ele><time>2023-12-06T15:06:22Z</time><name>PT12069</name></trkpt>
<trkpt lat="51.815666" lon="03.968788"><ele>-5.3</ele><time>2023-12-06T15:06:24Z</time><name>PT12070</name></trkpt>
<trkpt lat="51.815672" lon="03.968799"><ele>-5.1</ele><time>2023-12-06T15:06:24Z</time><name>PT12071</name></trkpt>
<trkpt lat="51.815676" lon="03.968814"><ele>-5.3</ele><time>2023-12-06T15:06:25Z</time><name>PT12072</name></trkpt>
<trkpt lat="51.815681" lon="03.968827"><ele>-5.1</ele><time>2023-12-06T15:06:27Z</time><name>PT12073</name></trkpt>
<trkpt lat="51.815685" lon="03.968839"><ele>-5.2</ele><time>2023-12-06T15:06:27Z</time><name>PT12074</name></trkpt>
<trkpt lat="51.815688" lon="03.968855"><ele>-5.2</ele><time>2023-12-06T15:06:28Z</time><name>PT12075</name></trkpt>
<trkpt lat="51.815692" lon="03.968871"><ele>-5.4</ele><time>2023-12-06T15:06:30Z</time><name>PT12076</name></trkpt>
<trkpt lat="51.815698" lon="03.968884"><ele>-5.3</ele><time>2023-12-06T15:06:30Z</time><name>PT12077</name></trkpt>
<trkpt lat="51.815701" lon="03.968898"><ele>-5.3</ele><time>2023-12-06T15:06:31Z</time><name>PT12078</name></trkpt>
<trkpt lat="51.815704" lon="03.968915"><ele>-5.4</ele><time>2023-12-06T15:06:33Z</time><name>PT12079</name></trkpt>
<trkpt lat="51.815707" lon="03.968930"><ele>-5.4</ele><time>2023-12-06T15:06:33Z</time><name>PT12080</name></trkpt>
<trkpt lat="51.815712" lon="03.968944"><ele>-5.2</ele><time>2023-12-06T15:06:34Z</time><name>PT12081</name></trkpt>
<trkpt lat="51.815718" lon="03.968960"><ele>-5.3</ele><time>2023-12-06T15:06:36Z</time><name>PT12082</name></trkpt>
<trkpt lat="51.815722" lon="03.968977"><ele>-5.3</ele><time>2023-12-06T15:06:36Z</time><name>PT12083</name></trkpt>
<trkpt lat="51.815725" lon="03.968994"><ele>-5.3</ele><time>2023-12-06T15:06:37Z</time><name>PT12084</name></trkpt>
<trkpt lat="51.815728" lon="03.969009"><ele>-5.2</ele><time>2023-12-06T15:06:39Z</time><name>PT12085</name></trkpt>
<trkpt lat="51.815732" lon="03.969025"><ele>-5.4</ele><time>2023-12-06T15:06:39Z</time><name>PT12086</name></trkpt>
<trkpt lat="51.815735" lon="03.969043"><ele>-5.4</ele><time>2023-12-06T15:06:40Z</time><name>PT12087</name></trkpt>
<trkpt lat="51.815739" lon="03.969062"><ele>-5.4</ele><time>2023-12-06T15:06:42Z</time><name>PT12088</name></trkpt>
<trkpt lat="51.815741" lon="03.969079"><ele>-5.4</ele><time>2023-12-06T15:06:42Z</time><name>PT12089</name></trkpt>
<trkpt lat="51.815744" lon="03.969096"><ele>-5.4</ele><time>2023-12-06T15:06:43Z</time><name>PT12090</name></trkpt>
<trkpt lat="51.815747" lon="03.969113"><ele>-5.1</ele><time>2023-12-06T15:06:45Z</time><name>PT12091</name></trkpt>
<trkpt lat="51.815750" lon="03.969129"><ele>-5</ele><time>2023-12-06T15:06:45Z</time><name>PT12092</name></trkpt>
<trkpt lat="51.815753" lon="03.969148"><ele>-4.9</ele><time>2023-12-06T15:06:46Z</time><name>PT12093</name></trkpt>
<trkpt lat="51.815757" lon="03.969164"><ele>-5</ele><time>2023-12-06T15:06:48Z</time><name>PT12094</name></trkpt>
<trkpt lat="51.815761" lon="03.969176"><ele>-4.9</ele><time>2023-12-06T15:06:48Z</time><name>PT12095</name></trkpt>
<trkpt lat="51.815766" lon="03.969191"><ele>-5</ele><time>2023-12-06T15:06:49Z</time><name>PT12096</name></trkpt>
<trkpt lat="51.815768" lon="03.969209"><ele>-5.1</ele><time>2023-12-06T15:06:51Z</time><name>PT12097</name></trkpt>
<trkpt lat="51.815768" lon="03.969225"><ele>-5.1</ele><time>2023-12-06T15:06:51Z</time><name>PT12098</name></trkpt>
<trkpt lat="51.815772" lon="03.969242"><ele>-5.2</ele><time>2023-12-06T15:06:52Z</time><name>PT12099</name></trkpt>
<trkpt lat="51.815775" lon="03.969261"><ele>-5.3</ele><time>2023-12-06T15:06:54Z</time><name>PT12100</name></trkpt>
<trkpt lat="51.815779" lon="03.969278"><ele>-5.4</ele><time>2023-12-06T15:06:54Z</time><name>PT12101</name></trkpt>
<trkpt lat="51.815784" lon="03.969295"><ele>-5.4</ele><time>2023-12-06T15:06:55Z</time><name>PT12102</name></trkpt>
<trkpt lat="51.815787" lon="03.969316"><ele>-5.6</ele><time>2023-12-06T15:06:57Z</time><name>PT12103</name></trkpt>
<trkpt lat="51.815788" lon="03.969333"><ele>-5.7</ele><time>2023-12-06T15:06:57Z</time><name>PT12104</name></trkpt>
<trkpt lat="51.815792" lon="03.969350"><ele>-5.7</ele><time>2023-12-06T15:06:58Z</time><name>PT12105</name></trkpt>
<trkpt lat="51.815794" lon="03.969371"><ele>-5.6</ele><time>2023-12-06T15:07:00Z</time><name>PT12106</name></trkpt>
<trkpt lat="51.815797" lon="03.969388"><ele>-5.4</ele><time>2023-12-06T15:07:00Z</time><name>PT12107</name></trkpt>
<trkpt lat="51.815800" lon="03.969403"><ele>-5.3</ele><time>2023-12-06T15:07:01Z</time><name>PT12108</name></trkpt>
<trkpt lat="51.815804" lon="03.969419"><ele>-5.4</ele><time>2023-12-06T15:07:03Z</time><name>PT12109</name></trkpt>
<trkpt lat="51.815808" lon="03.969435"><ele>-5.4</ele><time>2023-12-06T15:07:03Z</time><name>PT12110</name></trkpt>
<trkpt lat="51.815812" lon="03.969451"><ele>-5.4</ele><time>2023-12-06T15:07:04Z</time><name>PT12111</name></trkpt>
<trkpt lat="51.815815" lon="03.969468"><ele>-5.4</ele><time>2023-12-06T15:07:06Z</time><name>PT12112</name></trkpt>
<trkpt lat="51.815818" lon="03.969487"><ele>-5.3</ele><time>2023-12-06T15:07:06Z</time><name>PT12113</name></trkpt>
<trkpt lat="51.815823" lon="03.969501"><ele>-5.1</ele><time>2023-12-06T15:07:07Z</time><name>PT12114</name></trkpt>
<trkpt lat="51.815827" lon="03.969515"><ele>-5</ele><time>2023-12-06T15:07:09Z</time><name>PT12115</name></trkpt>
<trkpt lat="51.815829" lon="03.969532"><ele>-5</ele><time>2023-12-06T15:07:09Z</time><name>PT12116</name></trkpt>
<trkpt lat="51.815833" lon="03.969549"><ele>-5.2</ele><time>2023-12-06T15:07:10Z</time><name>PT12117</name></trkpt>
<trkpt lat="51.815839" lon="03.969567"><ele>-5.4</ele><time>2023-12-06T15:07:12Z</time><name>PT12118</name></trkpt>
<trkpt lat="51.815843" lon="03.969583"><ele>-5.3</ele><time>2023-12-06T15:07:12Z</time><name>PT12119</name></trkpt>
<trkpt lat="51.815849" lon="03.969598"><ele>-5.4</ele><time>2023-12-06T15:07:13Z</time><name>PT12120</name></trkpt>
<trkpt lat="51.815854" lon="03.969610"><ele>-5.4</ele><time>2023-12-06T15:07:15Z</time><name>PT12121</name></trkpt>
<trkpt lat="51.815858" lon="03.969623"><ele>-5.2</ele><time>2023-12-06T15:07:15Z</time><name>PT12122</name></trkpt>
<trkpt lat="51.815865" lon="03.969641"><ele>-5.4</ele><time>2023-12-06T15:07:16Z</time><name>PT12123</name></trkpt>
<trkpt lat="51.815868" lon="03.969659"><ele>-5.4</ele><time>2023-12-06T15:07:18Z</time><name>PT12124</name></trkpt>
<trkpt lat="51.815872" lon="03.969675"><ele>-5.4</ele><time>2023-12-06T15:07:18Z</time><name>PT12125</name></trkpt>
<trkpt lat="51.815876" lon="03.969693"><ele>-5.4</ele><time>2023-12-06T15:07:19Z</time><name>PT12126</name></trkpt>
<trkpt lat="51.815879" lon="03.969711"><ele>-5.4</ele><time>2023-12-06T15:07:21Z</time><name>PT12127</name></trkpt>
<trkpt lat="51.815883" lon="03.969728"><ele>-5.3</ele><time>2023-12-06T15:07:21Z</time><name>PT12128</name></trkpt>
<trkpt lat="51.815887" lon="03.969746"><ele>-5.2</ele><time>2023-12-06T15:07:22Z</time><name>PT12129</name></trkpt>
<trkpt lat="51.815890" lon="03.969761"><ele>-5.4</ele><time>2023-12-06T15:07:24Z</time><name>PT12130</name></trkpt>
<trkpt lat="51.815894" lon="03.969783"><ele>-5.4</ele><time>2023-12-06T15:07:24Z</time><name>PT12131</name></trkpt>
<trkpt lat="51.815899" lon="03.969802"><ele>-5.7</ele><time>2023-12-06T15:07:25Z</time><name>PT12132</name></trkpt>
<trkpt lat="51.815903" lon="03.969820"><ele>-5.7</ele><time>2023-12-06T15:07:27Z</time><name>PT12133</name></trkpt>
<trkpt lat="51.815906" lon="03.969839"><ele>-5.8</ele><time>2023-12-06T15:07:27Z</time><name>PT12134</name></trkpt>
<trkpt lat="51.815909" lon="03.969857"><ele>-5.6</ele><time>2023-12-06T15:07:28Z</time><name>PT12135</name></trkpt>
<trkpt lat="51.815911" lon="03.969878"><ele>-5.6</ele><time>2023-12-06T15:07:30Z</time><name>PT12136</name></trkpt>
<trkpt lat="51.815915" lon="03.969896"><ele>-5.5</ele><time>2023-12-06T15:07:30Z</time><name>PT12137</name></trkpt>
<trkpt lat="51.815917" lon="03.969915"><ele>-5.4</ele><time>2023-12-06T15:07:31Z</time><name>PT12138</name></trkpt>
<trkpt lat="51.815920" lon="03.969931"><ele>-5.3</ele><time>2023-12-06T15:07:33Z</time><name>PT12139</name></trkpt>
<trkpt lat="51.815924" lon="03.969948"><ele>-5.4</ele><time>2023-12-06T15:07:33Z</time><name>PT12140</name></trkpt>
<trkpt lat="51.815928" lon="03.969966"><ele>-5.3</ele><time>2023-12-06T15:07:34Z</time><name>PT12141</name></trkpt>
<trkpt lat="51.815931" lon="03.969988"><ele>-5.3</ele><time>2023-12-06T15:07:36Z</time><name>PT12142</name></trkpt>
<trkpt lat="51.815933" lon="03.970006"><ele>-5.4</ele><time>2023-12-06T15:07:36Z</time><name>PT12143</name></trkpt>
<trkpt lat="51.815932" lon="03.970030"><ele>-5.4</ele><time>2023-12-06T15:07:37Z</time><name>PT12144</name></trkpt>
<trkpt lat="51.815937" lon="03.970043"><ele>-5.3</ele><time>2023-12-06T15:07:39Z</time><name>PT12145</name></trkpt>
<trkpt lat="51.815942" lon="03.970059"><ele>-5.3</ele><time>2023-12-06T15:07:39Z</time><name>PT12146</name></trkpt>
<trkpt lat="51.815947" lon="03.970075"><ele>-5.4</ele><time>2023-12-06T15:07:40Z</time><name>PT12147</name></trkpt>
<trkpt lat="51.815949" lon="03.970093"><ele>-5.4</ele><time>2023-12-06T15:07:42Z</time><name>PT12148</name></trkpt>
<trkpt lat="51.815953" lon="03.970111"><ele>-5.2</ele><time>2023-12-06T15:07:42Z</time><name>PT12149</name></trkpt>
<trkpt lat="51.815955" lon="03.970128"><ele>-5.1</ele><time>2023-12-06T15:07:43Z</time><name>PT12150</name></trkpt>
<trkpt lat="51.815958" lon="03.970145"><ele>-5.2</ele><time>2023-12-06T15:07:45Z</time><name>PT12151</name></trkpt>
<trkpt lat="51.815961" lon="03.970163"><ele>-5.1</ele><time>2023-12-06T15:07:45Z</time><name>PT12152</name></trkpt>
<trkpt lat="51.815963" lon="03.970174"><ele>-5.2</ele><time>2023-12-06T15:07:46Z</time><name>PT12153</name></trkpt>
<trkpt lat="51.815966" lon="03.970190"><ele>-5.4</ele><time>2023-12-06T15:07:48Z</time><name>PT12154</name></trkpt>
<trkpt lat="51.815969" lon="03.970204"><ele>-5.4</ele><time>2023-12-06T15:07:48Z</time><name>PT12155</name></trkpt>
<trkpt lat="51.815973" lon="03.970214"><ele>-5.4</ele><time>2023-12-06T15:07:49Z</time><name>PT12156</name></trkpt>
<trkpt lat="51.815977" lon="03.970227"><ele>-5.4</ele><time>2023-12-06T15:07:51Z</time><name>PT12157</name></trkpt>
<trkpt lat="51.815982" lon="03.970242"><ele>-5.5</ele><time>2023-12-06T15:07:51Z</time><name>PT12158</name></trkpt>
<trkpt lat="51.815985" lon="03.970255"><ele>-5.4</ele><time>2023-12-06T15:07:52Z</time><name>PT12159</name></trkpt>
<trkpt lat="51.815989" lon="03.970268"><ele>-5.3</ele><time>2023-12-06T15:07:54Z</time><name>PT12160</name></trkpt>
<trkpt lat="51.815996" lon="03.970294"><ele>-5.3</ele><time>2023-12-06T15:07:54Z</time><name>PT12161</name></trkpt>
<trkpt lat="51.815996" lon="03.970313"><ele>-5.1</ele><time>2023-12-06T15:07:55Z</time><name>PT12162</name></trkpt>
<trkpt lat="51.815998" lon="03.970326"><ele>-5</ele><time>2023-12-06T15:07:57Z</time><name>PT12163</name></trkpt>
<trkpt lat="51.815999" lon="03.970344"><ele>-5.1</ele><time>2023-12-06T15:07:57Z</time><name>PT12164</name></trkpt>
<trkpt lat="51.816002" lon="03.970363"><ele>-5.3</ele><time>2023-12-06T15:07:58Z</time><name>PT12165</name></trkpt>
<trkpt lat="51.816004" lon="03.970381"><ele>-5.4</ele><time>2023-12-06T15:08:00Z</time><name>PT12166</name></trkpt>
<trkpt lat="51.816003" lon="03.970409"><ele>-5.6</ele><time>2023-12-06T15:08:00Z</time><name>PT12167</name></trkpt>
<trkpt lat="51.816007" lon="03.970422"><ele>-5.6</ele><time>2023-12-06T15:08:01Z</time><name>PT12168</name></trkpt>
<trkpt lat="51.816011" lon="03.970437"><ele>-5.4</ele><time>2023-12-06T15:08:03Z</time><name>PT12169</name></trkpt>
<trkpt lat="51.816015" lon="03.970452"><ele>-5.4</ele><time>2023-12-06T15:08:03Z</time><name>PT12170</name></trkpt>
<trkpt lat="51.816019" lon="03.970470"><ele>-5.4</ele><time>2023-12-06T15:08:04Z</time><name>PT12171</name></trkpt>
<trkpt lat="51.816021" lon="03.970489"><ele>-5.3</ele><time>2023-12-06T15:08:06Z</time><name>PT12172</name></trkpt>
<trkpt lat="51.816022" lon="03.970509"><ele>-5.2</ele><time>2023-12-06T15:08:06Z</time><name>PT12173</name></trkpt>
<trkpt lat="51.816028" lon="03.970525"><ele>-5.1</ele><time>2023-12-06T15:08:07Z</time><name>PT12174</name></trkpt>
<trkpt lat="51.816031" lon="03.970543"><ele>-5.1</ele><time>2023-12-06T15:08:09Z</time><name>PT12175</name></trkpt>
<trkpt lat="51.816036" lon="03.970559"><ele>-5</ele><time>2023-12-06T15:08:09Z</time><name>PT12176</name></trkpt>
<trkpt lat="51.816038" lon="03.970580"><ele>-5</ele><time>2023-12-06T15:08:10Z</time><name>PT12177</name></trkpt>
<trkpt lat="51.816039" lon="03.970601"><ele>-5.4</ele><time>2023-12-06T15:08:12Z</time><name>PT12178</name></trkpt>
<trkpt lat="51.816043" lon="03.970619"><ele>-5.5</ele><time>2023-12-06T15:08:12Z</time><name>PT12179</name></trkpt>
<trkpt lat="51.816049" lon="03.970636"><ele>-5.7</ele><time>2023-12-06T15:08:13Z</time><name>PT12180</name></trkpt>
<trkpt lat="51.816057" lon="03.970650"><ele>-5.7</ele><time>2023-12-06T15:08:15Z</time><name>PT12181</name></trkpt>
<trkpt lat="51.816059" lon="03.970661"><ele>-5.7</ele><time>2023-12-06T15:08:15Z</time><name>PT12182</name></trkpt>
<trkpt lat="51.816062" lon="03.970671"><ele>-5.6</ele><time>2023-12-06T15:08:16Z</time><name>PT12183</name></trkpt>
<trkpt lat="51.816063" lon="03.970683"><ele>-5.6</ele><time>2023-12-06T15:08:18Z</time><name>PT12184</name></trkpt>
<trkpt lat="51.816063" lon="03.970697"><ele>-5.5</ele><time>2023-12-06T15:08:18Z</time><name>PT12185</name></trkpt>
<trkpt lat="51.816065" lon="03.970716"><ele>-5.4</ele><time>2023-12-06T15:08:19Z</time><name>PT12186</name></trkpt>
<trkpt lat="51.816073" lon="03.970736"><ele>-5.3</ele><time>2023-12-06T15:08:21Z</time><name>PT12187</name></trkpt>
<trkpt lat="51.816079" lon="03.970752"><ele>-5.2</ele><time>2023-12-06T15:08:21Z</time><name>PT12188</name></trkpt>
<trkpt lat="51.816081" lon="03.970765"><ele>-5.3</ele><time>2023-12-06T15:08:22Z</time><name>PT12189</name></trkpt>
<trkpt lat="51.816084" lon="03.970776"><ele>-5.3</ele><time>2023-12-06T15:08:24Z</time><name>PT12190</name></trkpt>
<trkpt lat="51.816085" lon="03.970788"><ele>-5.4</ele><time>2023-12-06T15:08:24Z</time><name>PT12191</name></trkpt>
<trkpt lat="51.816088" lon="03.970799"><ele>-5.3</ele><time>2023-12-06T15:08:25Z</time><name>PT12192</name></trkpt>
<trkpt lat="51.816093" lon="03.970810"><ele>-5.2</ele><time>2023-12-06T15:08:27Z</time><name>PT12193</name></trkpt>
<trkpt lat="51.816098" lon="03.970829"><ele>-5.4</ele><time>2023-12-06T15:08:27Z</time><name>PT12194</name></trkpt>
<trkpt lat="51.816102" lon="03.970855"><ele>-5.5</ele><time>2023-12-06T15:08:28Z</time><name>PT12195</name></trkpt>
<trkpt lat="51.816109" lon="03.970882"><ele>-5.5</ele><time>2023-12-06T15:08:30Z</time><name>PT12196</name></trkpt>
<trkpt lat="51.816112" lon="03.970902"><ele>-5.6</ele><time>2023-12-06T15:08:30Z</time><name>PT12197</name></trkpt>
<trkpt lat="51.816115" lon="03.970917"><ele>-5.8</ele><time>2023-12-06T15:08:31Z</time><name>PT12198</name></trkpt>
<trkpt lat="51.816117" lon="03.970926"><ele>-5.7</ele><time>2023-12-06T15:08:33Z</time><name>PT12199</name></trkpt>
<trkpt lat="51.816120" lon="03.970938"><ele>-5.8</ele><time>2023-12-06T15:08:33Z</time><name>PT12200</name></trkpt>
<trkpt lat="51.816124" lon="03.970953"><ele>-5.9</ele><time>2023-12-06T15:08:34Z</time><name>PT12201</name></trkpt>
<trkpt lat="51.816130" lon="03.970970"><ele>-5.9</ele><time>2023-12-06T15:08:36Z</time><name>PT12202</name></trkpt>
<trkpt lat="51.816137" lon="03.970993"><ele>-6</ele><time>2023-12-06T15:08:36Z</time><name>PT12203</name></trkpt>
<trkpt lat="51.816145" lon="03.971010"><ele>-5.9</ele><time>2023-12-06T15:08:37Z</time><name>PT12204</name></trkpt>
<trkpt lat="51.816148" lon="03.971022"><ele>-5.8</ele><time>2023-12-06T15:08:39Z</time><name>PT12205</name></trkpt>
<trkpt lat="51.816152" lon="03.971033"><ele>-5.7</ele><time>2023-12-06T15:08:39Z</time><name>PT12206</name></trkpt>
<trkpt lat="51.816156" lon="03.971043"><ele>-5.5</ele><time>2023-12-06T15:08:40Z</time><name>PT12207</name></trkpt>
<trkpt lat="51.816162" lon="03.971059"><ele>-5.4</ele><time>2023-12-06T15:08:42Z</time><name>PT12208</name></trkpt>
<trkpt lat="51.816170" lon="03.971078"><ele>-5.6</ele><time>2023-12-06T15:08:42Z</time><name>PT12209</name></trkpt>
<trkpt lat="51.816177" lon="03.971099"><ele>-5.8</ele><time>2023-12-06T15:08:43Z</time><name>PT12210</name></trkpt>
<trkpt lat="51.816183" lon="03.971118"><ele>-5.8</ele><time>2023-12-06T15:08:45Z</time><name>PT12211</name></trkpt>
<trkpt lat="51.816187" lon="03.971131"><ele>-5.7</ele><time>2023-12-06T15:08:45Z</time><name>PT12212</name></trkpt>
<trkpt lat="51.816189" lon="03.971139"><ele>-5.8</ele><time>2023-12-06T15:08:46Z</time><name>PT12213</name></trkpt>
<trkpt lat="51.816191" lon="03.971152"><ele>-5.6</ele><time>2023-12-06T15:08:48Z</time><name>PT12214</name></trkpt>
<trkpt lat="51.816197" lon="03.971168"><ele>-5.6</ele><time>2023-12-06T15:08:48Z</time><name>PT12215</name></trkpt>
<trkpt lat="51.816204" lon="03.971187"><ele>-5.8</ele><time>2023-12-06T15:08:49Z</time><name>PT12216</name></trkpt>
<trkpt lat="51.816211" lon="03.971209"><ele>-5.8</ele><time>2023-12-06T15:08:51Z</time><name>PT12217</name></trkpt>
<trkpt lat="51.816219" lon="03.971231"><ele>-5.7</ele><time>2023-12-06T15:08:51Z</time><name>PT12218</name></trkpt>
<trkpt lat="51.816226" lon="03.971251"><ele>-5.7</ele><time>2023-12-06T15:08:52Z</time><name>PT12219</name></trkpt>
<trkpt lat="51.816232" lon="03.971268"><ele>-5.6</ele><time>2023-12-06T15:08:54Z</time><name>PT12220</name></trkpt>
<trkpt lat="51.816237" lon="03.971281"><ele>-5.6</ele><time>2023-12-06T15:08:54Z</time><name>PT12221</name></trkpt>
<trkpt lat="51.816241" lon="03.971291"><ele>-5.6</ele><time>2023-12-06T15:08:55Z</time><name>PT12222</name></trkpt>
<trkpt lat="51.816244" lon="03.971302"><ele>-5.6</ele><time>2023-12-06T15:08:57Z</time><name>PT12223</name></trkpt>
<trkpt lat="51.816248" lon="03.971313"><ele>-5.4</ele><time>2023-12-06T15:08:57Z</time><name>PT12224</name></trkpt>
<trkpt lat="51.816250" lon="03.971335"><ele>-5.5</ele><time>2023-12-06T15:08:58Z</time><name>PT12225</name></trkpt>
<trkpt lat="51.816253" lon="03.971350"><ele>-5.4</ele><time>2023-12-06T15:09:00Z</time><name>PT12226</name></trkpt>
<trkpt lat="51.816263" lon="03.971373"><ele>-5.6</ele><time>2023-12-06T15:09:00Z</time><name>PT12227</name></trkpt>
<trkpt lat="51.816272" lon="03.971398"><ele>-5.8</ele><time>2023-12-06T15:09:01Z</time><name>PT12228</name></trkpt>
<trkpt lat="51.816278" lon="03.971423"><ele>-5.6</ele><time>2023-12-06T15:09:03Z</time><name>PT12229</name></trkpt>
<trkpt lat="51.816279" lon="03.971446"><ele>-5.5</ele><time>2023-12-06T15:09:03Z</time><name>PT12230</name></trkpt>
<trkpt lat="51.816285" lon="03.971461"><ele>-5.6</ele><time>2023-12-06T15:09:04Z</time><name>PT12231</name></trkpt>
<trkpt lat="51.816290" lon="03.971474"><ele>-5.5</ele><time>2023-12-06T15:09:06Z</time><name>PT12232</name></trkpt>
<trkpt lat="51.816296" lon="03.971491"><ele>-5.4</ele><time>2023-12-06T15:09:06Z</time><name>PT12233</name></trkpt>
<trkpt lat="51.816305" lon="03.971507"><ele>-5.7</ele><time>2023-12-06T15:09:07Z</time><name>PT12234</name></trkpt>
<trkpt lat="51.816308" lon="03.971522"><ele>-5.6</ele><time>2023-12-06T15:09:09Z</time><name>PT12235</name></trkpt>
<trkpt lat="51.816311" lon="03.971540"><ele>-5.5</ele><time>2023-12-06T15:09:09Z</time><name>PT12236</name></trkpt>
<trkpt lat="51.816314" lon="03.971557"><ele>-5.4</ele><time>2023-12-06T15:09:10Z</time><name>PT12237</name></trkpt>
<trkpt lat="51.816319" lon="03.971574"><ele>-5.4</ele><time>2023-12-06T15:09:12Z</time><name>PT12238</name></trkpt>
<trkpt lat="51.816322" lon="03.971590"><ele>-5.3</ele><time>2023-12-06T15:09:12Z</time><name>PT12239</name></trkpt>
<trkpt lat="51.816326" lon="03.971607"><ele>-5.4</ele><time>2023-12-06T15:09:13Z</time><name>PT12240</name></trkpt>
<trkpt lat="51.816331" lon="03.971622"><ele>-5.4</ele><time>2023-12-06T15:09:15Z</time><name>PT12241</name></trkpt>
<trkpt lat="51.816337" lon="03.971637"><ele>-5.4</ele><time>2023-12-06T15:09:15Z</time><name>PT12242</name></trkpt>
<trkpt lat="51.816343" lon="03.971652"><ele>-5.4</ele><time>2023-12-06T15:09:16Z</time><name>PT12243</name></trkpt>
<trkpt lat="51.816346" lon="03.971667"><ele>-5.4</ele><time>2023-12-06T15:09:18Z</time><name>PT12244</name></trkpt>
<trkpt lat="51.816351" lon="03.971680"><ele>-5.4</ele><time>2023-12-06T15:09:18Z</time><name>PT12245</name></trkpt>
<trkpt lat="51.816356" lon="03.971694"><ele>-5.4</ele><time>2023-12-06T15:09:19Z</time><name>PT12246</name></trkpt>
<trkpt lat="51.816360" lon="03.971708"><ele>-5.4</ele><time>2023-12-06T15:09:21Z</time><name>PT12247</name></trkpt>
<trkpt lat="51.816363" lon="03.971725"><ele>-5.4</ele><time>2023-12-06T15:09:21Z</time><name>PT12248</name></trkpt>
<trkpt lat="51.816367" lon="03.971742"><ele>-5.5</ele><time>2023-12-06T15:09:22Z</time><name>PT12249</name></trkpt>
<trkpt lat="51.816372" lon="03.971758"><ele>-5.2</ele><time>2023-12-06T15:09:24Z</time><name>PT12250</name></trkpt>
<trkpt lat="51.816377" lon="03.971770"><ele>-5.2</ele><time>2023-12-06T15:09:24Z</time><name>PT12251</name></trkpt>
<trkpt lat="51.816381" lon="03.971784"><ele>-5.4</ele><time>2023-12-06T15:09:25Z</time><name>PT12252</name></trkpt>
<trkpt lat="51.816386" lon="03.971799"><ele>-5.3</ele><time>2023-12-06T15:09:27Z</time><name>PT12253</name></trkpt>
<trkpt lat="51.816390" lon="03.971814"><ele>-5.2</ele><time>2023-12-06T15:09:27Z</time><name>PT12254</name></trkpt>
<trkpt lat="51.816395" lon="03.971829"><ele>-5.4</ele><time>2023-12-06T15:09:28Z</time><name>PT12255</name></trkpt>
<trkpt lat="51.816401" lon="03.971842"><ele>-5.4</ele><time>2023-12-06T15:09:30Z</time><name>PT12256</name></trkpt>
<trkpt lat="51.816406" lon="03.971856"><ele>-5.3</ele><time>2023-12-06T15:09:30Z</time><name>PT12257</name></trkpt>
<trkpt lat="51.816413" lon="03.971871"><ele>-5.3</ele><time>2023-12-06T15:09:31Z</time><name>PT12258</name></trkpt>
<trkpt lat="51.816418" lon="03.971885"><ele>-5.5</ele><time>2023-12-06T15:09:33Z</time><name>PT12259</name></trkpt>
<trkpt lat="51.816423" lon="03.971898"><ele>-5.6</ele><time>2023-12-06T15:09:33Z</time><name>PT12260</name></trkpt>
<trkpt lat="51.816428" lon="03.971913"><ele>-5.7</ele><time>2023-12-06T15:09:34Z</time><name>PT12261</name></trkpt>
<trkpt lat="51.816432" lon="03.971931"><ele>-5.7</ele><time>2023-12-06T15:09:36Z</time><name>PT12262</name></trkpt>
<trkpt lat="51.816435" lon="03.971949"><ele>-5.8</ele><time>2023-12-06T15:09:36Z</time><name>PT12263</name></trkpt>
<trkpt lat="51.816438" lon="03.971969"><ele>-5.6</ele><time>2023-12-06T15:09:37Z</time><name>PT12264</name></trkpt>
<trkpt lat="51.816443" lon="03.971986"><ele>-5.6</ele><time>2023-12-06T15:09:39Z</time><name>PT12265</name></trkpt>
<trkpt lat="51.816447" lon="03.972010"><ele>-5.6</ele><time>2023-12-06T15:09:39Z</time><name>PT12266</name></trkpt>
<trkpt lat="51.816452" lon="03.972028"><ele>-5.5</ele><time>2023-12-06T15:09:40Z</time><name>PT12267</name></trkpt>
<trkpt lat="51.816459" lon="03.972042"><ele>-5.5</ele><time>2023-12-06T15:09:42Z</time><name>PT12268</name></trkpt>
<trkpt lat="51.816465" lon="03.972056"><ele>-5.5</ele><time>2023-12-06T15:09:42Z</time><name>PT12269</name></trkpt>
<trkpt lat="51.816469" lon="03.972061"><ele>-5.6</ele><time>2023-12-06T15:09:43Z</time><name>PT12270</name></trkpt>
<trkpt lat="51.816471" lon="03.972067"><ele>-5.5</ele><time>2023-12-06T15:09:45Z</time><name>PT12271</name></trkpt>
<trkpt lat="51.816474" lon="03.972077"><ele>-5.7</ele><time>2023-12-06T15:09:45Z</time><name>PT12272</name></trkpt>
<trkpt lat="51.816476" lon="03.972087"><ele>-5.7</ele><time>2023-12-06T15:09:46Z</time><name>PT12273</name></trkpt>
<trkpt lat="51.816480" lon="03.972096"><ele>-5.7</ele><time>2023-12-06T15:09:48Z</time><name>PT12274</name></trkpt>
<trkpt lat="51.816488" lon="03.972113"><ele>-5.7</ele><time>2023-12-06T15:09:48Z</time><name>PT12275</name></trkpt>
<trkpt lat="51.816496" lon="03.972135"><ele>-5.6</ele><time>2023-12-06T15:09:49Z</time><name>PT12276</name></trkpt>
<trkpt lat="51.816505" lon="03.972164"><ele>-5.8</ele><time>2023-12-06T15:09:51Z</time><name>PT12277</name></trkpt>
<trkpt lat="51.816508" lon="03.972191"><ele>-5.9</ele><time>2023-12-06T15:09:51Z</time><name>PT12278</name></trkpt>
<trkpt lat="51.816512" lon="03.972214"><ele>-5.9</ele><time>2023-12-06T15:09:52Z</time><name>PT12279</name></trkpt>
<trkpt lat="51.816516" lon="03.972227"><ele>-5.8</ele><time>2023-12-06T15:09:54Z</time><name>PT12280</name></trkpt>
<trkpt lat="51.816520" lon="03.972239"><ele>-5.9</ele><time>2023-12-06T15:09:54Z</time><name>PT12281</name></trkpt>
<trkpt lat="51.816527" lon="03.972252"><ele>-5.7</ele><time>2023-12-06T15:09:55Z</time><name>PT12282</name></trkpt>
<trkpt lat="51.816529" lon="03.972264"><ele>-5.8</ele><time>2023-12-06T15:09:57Z</time><name>PT12283</name></trkpt>
<trkpt lat="51.816531" lon="03.972274"><ele>-6</ele><time>2023-12-06T15:09:57Z</time><name>PT12284</name></trkpt>
<trkpt lat="51.816533" lon="03.972286"><ele>-6</ele><time>2023-12-06T15:09:58Z</time><name>PT12285</name></trkpt>
<trkpt lat="51.816538" lon="03.972299"><ele>-5.9</ele><time>2023-12-06T15:10:00Z</time><name>PT12286</name></trkpt>
<trkpt lat="51.816543" lon="03.972316"><ele>-6</ele><time>2023-12-06T15:10:00Z</time><name>PT12287</name></trkpt>
<trkpt lat="51.816550" lon="03.972338"><ele>-5.9</ele><time>2023-12-06T15:10:02Z</time><name>PT12288</name></trkpt>
<trkpt lat="51.816558" lon="03.972358"><ele>-6.1</ele><time>2023-12-06T15:10:03Z</time><name>PT12289</name></trkpt>
<trkpt lat="51.816564" lon="03.972377"><ele>-6.1</ele><time>2023-12-06T15:10:03Z</time><name>PT12290</name></trkpt>
<trkpt lat="51.816568" lon="03.972389"><ele>-6.1</ele><time>2023-12-06T15:10:04Z</time><name>PT12291</name></trkpt>
<trkpt lat="51.816572" lon="03.972402"><ele>-6.1</ele><time>2023-12-06T15:10:06Z</time><name>PT12292</name></trkpt>
<trkpt lat="51.816573" lon="03.972416"><ele>-6.1</ele><time>2023-12-06T15:10:06Z</time><name>PT12293</name></trkpt>
<trkpt lat="51.816574" lon="03.972429"><ele>-5.9</ele><time>2023-12-06T15:10:07Z</time><name>PT12294</name></trkpt>
<trkpt lat="51.816574" lon="03.972444"><ele>-5.9</ele><time>2023-12-06T15:10:09Z</time><name>PT12295</name></trkpt>
<trkpt lat="51.816577" lon="03.972461"><ele>-5.9</ele><time>2023-12-06T15:10:09Z</time><name>PT12296</name></trkpt>
<trkpt lat="51.816580" lon="03.972478"><ele>-5.9</ele><time>2023-12-06T15:10:10Z</time><name>PT12297</name></trkpt>
<trkpt lat="51.816586" lon="03.972498"><ele>-5.9</ele><time>2023-12-06T15:10:12Z</time><name>PT12298</name></trkpt>
<trkpt lat="51.816592" lon="03.972518"><ele>-5.9</ele><time>2023-12-06T15:10:12Z</time><name>PT12299</name></trkpt>
<trkpt lat="51.816598" lon="03.972536"><ele>-6.1</ele><time>2023-12-06T15:10:13Z</time><name>PT12300</name></trkpt>
<trkpt lat="51.816603" lon="03.972551"><ele>-6.1</ele><time>2023-12-06T15:10:15Z</time><name>PT12301</name></trkpt>
<trkpt lat="51.816606" lon="03.972564"><ele>-6</ele><time>2023-12-06T15:10:15Z</time><name>PT12302</name></trkpt>
<trkpt lat="51.816606" lon="03.972577"><ele>-5.9</ele><time>2023-12-06T15:10:17Z</time><name>PT12303</name></trkpt>
<trkpt lat="51.816606" lon="03.972592"><ele>-5.9</ele><time>2023-12-06T15:10:18Z</time><name>PT12304</name></trkpt>
<trkpt lat="51.816609" lon="03.972608"><ele>-5.8</ele><time>2023-12-06T15:10:18Z</time><name>PT12305</name></trkpt>
<trkpt lat="51.816614" lon="03.972629"><ele>-5.5</ele><time>2023-12-06T15:10:19Z</time><name>PT12306</name></trkpt>
<trkpt lat="51.816622" lon="03.972654"><ele>-5.4</ele><time>2023-12-06T15:10:21Z</time><name>PT12307</name></trkpt>
<trkpt lat="51.816631" lon="03.972678"><ele>-5.6</ele><time>2023-12-06T15:10:21Z</time><name>PT12308</name></trkpt>
<trkpt lat="51.816638" lon="03.972698"><ele>-5.6</ele><time>2023-12-06T15:10:22Z</time><name>PT12309</name></trkpt>
<trkpt lat="51.816644" lon="03.972714"><ele>-5.7</ele><time>2023-12-06T15:10:24Z</time><name>PT12310</name></trkpt>
<trkpt lat="51.816650" lon="03.972728"><ele>-5.8</ele><time>2023-12-06T15:10:24Z</time><name>PT12311</name></trkpt>
<trkpt lat="51.816654" lon="03.972738"><ele>-5.8</ele><time>2023-12-06T15:10:25Z</time><name>PT12312</name></trkpt>
<trkpt lat="51.816656" lon="03.972744"><ele>-5.7</ele><time>2023-12-06T15:10:27Z</time><name>PT12313</name></trkpt>
<trkpt lat="51.816657" lon="03.972756"><ele>-5.7</ele><time>2023-12-06T15:10:27Z</time><name>PT12314</name></trkpt>
<trkpt lat="51.816660" lon="03.972774"><ele>-5.6</ele><time>2023-12-06T15:10:28Z</time><name>PT12315</name></trkpt>
<trkpt lat="51.816673" lon="03.972791"><ele>-5.5</ele><time>2023-12-06T15:10:30Z</time><name>PT12316</name></trkpt>
<trkpt lat="51.816683" lon="03.972803"><ele>-5.4</ele><time>2023-12-06T15:10:30Z</time><name>PT12317</name></trkpt>
<trkpt lat="51.816688" lon="03.972815"><ele>-5.3</ele><time>2023-12-06T15:10:31Z</time><name>PT12318</name></trkpt>
<trkpt lat="51.816694" lon="03.972828"><ele>-5.2</ele><time>2023-12-06T15:10:33Z</time><name>PT12319</name></trkpt>
<trkpt lat="51.816699" lon="03.972843"><ele>-5.1</ele><time>2023-12-06T15:10:33Z</time><name>PT12320</name></trkpt>
<trkpt lat="51.816705" lon="03.972858"><ele>-5.1</ele><time>2023-12-06T15:10:34Z</time><name>PT12321</name></trkpt>
<trkpt lat="51.816708" lon="03.972876"><ele>-5.4</ele><time>2023-12-06T15:10:36Z</time><name>PT12322</name></trkpt>
<trkpt lat="51.816712" lon="03.972891"><ele>-5.3</ele><time>2023-12-06T15:10:36Z</time><name>PT12323</name></trkpt>
<trkpt lat="51.816717" lon="03.972907"><ele>-5.4</ele><time>2023-12-06T15:10:37Z</time><name>PT12324</name></trkpt>
<trkpt lat="51.816721" lon="03.972922"><ele>-5.4</ele><time>2023-12-06T15:10:39Z</time><name>PT12325</name></trkpt>
<trkpt lat="51.816725" lon="03.972936"><ele>-5.3</ele><time>2023-12-06T15:10:39Z</time><name>PT12326</name></trkpt>
<trkpt lat="51.816730" lon="03.972950"><ele>-5.2</ele><time>2023-12-06T15:10:40Z</time><name>PT12327</name></trkpt>
<trkpt lat="51.816735" lon="03.972961"><ele>-5.2</ele><time>2023-12-06T15:10:42Z</time><name>PT12328</name></trkpt>
<trkpt lat="51.816742" lon="03.972972"><ele>-5.2</ele><time>2023-12-06T15:10:42Z</time><name>PT12329</name></trkpt>
<trkpt lat="51.816748" lon="03.972983"><ele>-5.1</ele><time>2023-12-06T15:10:43Z</time><name>PT12330</name></trkpt>
<trkpt lat="51.816754" lon="03.972998"><ele>-5.1</ele><time>2023-12-06T15:10:45Z</time><name>PT12331</name></trkpt>
<trkpt lat="51.816760" lon="03.973013"><ele>-5</ele><time>2023-12-06T15:10:45Z</time><name>PT12332</name></trkpt>
<trkpt lat="51.816764" lon="03.973029"><ele>-5.1</ele><time>2023-12-06T15:10:46Z</time><name>PT12333</name></trkpt>
<trkpt lat="51.816768" lon="03.973048"><ele>-5.1</ele><time>2023-12-06T15:10:48Z</time><name>PT12334</name></trkpt>
<trkpt lat="51.816773" lon="03.973064"><ele>-5.1</ele><time>2023-12-06T15:10:48Z</time><name>PT12335</name></trkpt>
<trkpt lat="51.816779" lon="03.973083"><ele>-5.3</ele><time>2023-12-06T15:10:49Z</time><name>PT12336</name></trkpt>
<trkpt lat="51.816784" lon="03.973098"><ele>-5.4</ele><time>2023-12-06T15:10:51Z</time><name>PT12337</name></trkpt>
<trkpt lat="51.816787" lon="03.973108"><ele>-5.4</ele><time>2023-12-06T15:10:51Z</time><name>PT12338</name></trkpt>
<trkpt lat="51.816789" lon="03.973120"><ele>-5.5</ele><time>2023-12-06T15:10:52Z</time><name>PT12339</name></trkpt>
<trkpt lat="51.816791" lon="03.973132"><ele>-5.3</ele><time>2023-12-06T15:10:54Z</time><name>PT12340</name></trkpt>
<trkpt lat="51.816793" lon="03.973145"><ele>-5.4</ele><time>2023-12-06T15:10:54Z</time><name>PT12341</name></trkpt>
<trkpt lat="51.816796" lon="03.973165"><ele>-5</ele><time>2023-12-06T15:10:55Z</time><name>PT12342</name></trkpt>
<trkpt lat="51.816803" lon="03.973189"><ele>-4.9</ele><time>2023-12-06T15:10:57Z</time><name>PT12343</name></trkpt>
<trkpt lat="51.816809" lon="03.973208"><ele>-4.9</ele><time>2023-12-06T15:10:57Z</time><name>PT12344</name></trkpt>
<trkpt lat="51.816814" lon="03.973220"><ele>-5.1</ele><time>2023-12-06T15:10:58Z</time><name>PT12345</name></trkpt>
<trkpt lat="51.816818" lon="03.973228"><ele>-5.2</ele><time>2023-12-06T15:11:00Z</time><name>PT12346</name></trkpt>
<trkpt lat="51.816821" lon="03.973237"><ele>-5.2</ele><time>2023-12-06T15:11:00Z</time><name>PT12347</name></trkpt>
<trkpt lat="51.816824" lon="03.973255"><ele>-5.3</ele><time>2023-12-06T15:11:01Z</time><name>PT12348</name></trkpt>
<trkpt lat="51.816825" lon="03.973270"><ele>-5.2</ele><time>2023-12-06T15:11:03Z</time><name>PT12349</name></trkpt>
<trkpt lat="51.816828" lon="03.973291"><ele>-5</ele><time>2023-12-06T15:11:03Z</time><name>PT12350</name></trkpt>
<trkpt lat="51.816836" lon="03.973315"><ele>-5.1</ele><time>2023-12-06T15:11:04Z</time><name>PT12351</name></trkpt>
<trkpt lat="51.816844" lon="03.973334"><ele>-5.3</ele><time>2023-12-06T15:11:06Z</time><name>PT12352</name></trkpt>
<trkpt lat="51.816848" lon="03.973349"><ele>-5.3</ele><time>2023-12-06T15:11:06Z</time><name>PT12353</name></trkpt>
<trkpt lat="51.816852" lon="03.973361"><ele>-5.4</ele><time>2023-12-06T15:11:07Z</time><name>PT12354</name></trkpt>
<trkpt lat="51.816854" lon="03.973374"><ele>-5.4</ele><time>2023-12-06T15:11:09Z</time><name>PT12355</name></trkpt>
<trkpt lat="51.816856" lon="03.973386"><ele>-5.3</ele><time>2023-12-06T15:11:09Z</time><name>PT12356</name></trkpt>
<trkpt lat="51.816858" lon="03.973400"><ele>-5.1</ele><time>2023-12-06T15:11:10Z</time><name>PT12357</name></trkpt>
<trkpt lat="51.816862" lon="03.973420"><ele>-5</ele><time>2023-12-06T15:11:12Z</time><name>PT12358</name></trkpt>
<trkpt lat="51.816868" lon="03.973442"><ele>-5</ele><time>2023-12-06T15:11:12Z</time><name>PT12359</name></trkpt>
<trkpt lat="51.816872" lon="03.973460"><ele>-5.2</ele><time>2023-12-06T15:11:13Z</time><name>PT12360</name></trkpt>
<trkpt lat="51.816875" lon="03.973472"><ele>-5.4</ele><time>2023-12-06T15:11:15Z</time><name>PT12361</name></trkpt>
<trkpt lat="51.816879" lon="03.973484"><ele>-5.4</ele><time>2023-12-06T15:11:15Z</time><name>PT12362</name></trkpt>
<trkpt lat="51.816884" lon="03.973499"><ele>-5.3</ele><time>2023-12-06T15:11:16Z</time><name>PT12363</name></trkpt>
<trkpt lat="51.816886" lon="03.973514"><ele>-5.2</ele><time>2023-12-06T15:11:18Z</time><name>PT12364</name></trkpt>
<trkpt lat="51.816890" lon="03.973528"><ele>-5.1</ele><time>2023-12-06T15:11:18Z</time><name>PT12365</name></trkpt>
<trkpt lat="51.816895" lon="03.973545"><ele>-5</ele><time>2023-12-06T15:11:19Z</time><name>PT12366</name></trkpt>
<trkpt lat="51.816901" lon="03.973563"><ele>-4.9</ele><time>2023-12-06T15:11:21Z</time><name>PT12367</name></trkpt>
<trkpt lat="51.816910" lon="03.973583"><ele>-4.9</ele><time>2023-12-06T15:11:21Z</time><name>PT12368</name></trkpt>
<trkpt lat="51.816917" lon="03.973612"><ele>-5.1</ele><time>2023-12-06T15:11:22Z</time><name>PT12369</name></trkpt>
<trkpt lat="51.816921" lon="03.973628"><ele>-5.1</ele><time>2023-12-06T15:11:24Z</time><name>PT12370</name></trkpt>
<trkpt lat="51.816923" lon="03.973639"><ele>-5.1</ele><time>2023-12-06T15:11:24Z</time><name>PT12371</name></trkpt>
<trkpt lat="51.816926" lon="03.973649"><ele>-5.2</ele><time>2023-12-06T15:11:25Z</time><name>PT12372</name></trkpt>
<trkpt lat="51.816930" lon="03.973659"><ele>-5.2</ele><time>2023-12-06T15:11:27Z</time><name>PT12373</name></trkpt>
<trkpt lat="51.816931" lon="03.973662"><ele>-5.1</ele><time>2023-12-06T15:11:27Z</time><name>PT12374</name></trkpt>
<trkpt lat="51.816934" lon="03.973663"><ele>-4.9</ele><time>2023-12-06T15:11:28Z</time><name>PT12375</name></trkpt>
<trkpt lat="51.816937" lon="03.973660"><ele>-4.8</ele><time>2023-12-06T15:11:30Z</time><name>PT12376</name></trkpt>
<trkpt lat="51.816941" lon="03.973668"><ele>-5.1</ele><time>2023-12-06T15:11:33Z</time><name>PT12377</name></trkpt>
<trkpt lat="51.816945" lon="03.973682"><ele>-5.3</ele><time>2023-12-06T15:11:34Z</time><name>PT12378</name></trkpt>
<trkpt lat="51.816950" lon="03.973693"><ele>-5.3</ele><time>2023-12-06T15:11:36Z</time><name>PT12379</name></trkpt>
<trkpt lat="51.816955" lon="03.973706"><ele>-5.2</ele><time>2023-12-06T15:11:36Z</time><name>PT12380</name></trkpt>
<trkpt lat="51.816959" lon="03.973721"><ele>-5.1</ele><time>2023-12-06T15:11:37Z</time><name>PT12381</name></trkpt>
<trkpt lat="51.816962" lon="03.973733"><ele>-5</ele><time>2023-12-06T15:11:39Z</time><name>PT12382</name></trkpt>
<trkpt lat="51.816965" lon="03.973746"><ele>-5</ele><time>2023-12-06T15:11:39Z</time><name>PT12383</name></trkpt>
<trkpt lat="51.816964" lon="03.973758"><ele>-5</ele><time>2023-12-06T15:11:40Z</time><name>PT12384</name></trkpt>
<trkpt lat="51.816965" lon="03.973772"><ele>-5</ele><time>2023-12-06T15:11:42Z</time><name>PT12385</name></trkpt>
<trkpt lat="51.816968" lon="03.973781"><ele>-5</ele><time>2023-12-06T15:11:42Z</time><name>PT12386</name></trkpt>
<trkpt lat="51.816968" lon="03.973783"><ele>-5</ele><time>2023-12-06T15:11:43Z</time><name>PT12387</name></trkpt>
<trkpt lat="51.816959" lon="03.973796"><ele>-4.9</ele><time>2023-12-06T15:11:45Z</time><name>PT12388</name></trkpt>
<trkpt lat="51.816954" lon="03.973794"><ele>-4.9</ele><time>2023-12-06T15:11:45Z</time><name>PT12389</name></trkpt>
<trkpt lat="51.816949" lon="03.973792"><ele>-4.9</ele><time>2023-12-06T15:11:46Z</time><name>PT12390</name></trkpt>
<trkpt lat="51.816950" lon="03.973796"><ele>-4.8</ele><time>2023-12-06T15:13:04Z</time><name>PT12391</name></trkpt>
<trkpt lat="51.816954" lon="03.973803"><ele>-4.7</ele><time>2023-12-06T15:13:06Z</time><name>PT12392</name></trkpt>
<trkpt lat="51.816957" lon="03.973816"><ele>-4.9</ele><time>2023-12-06T15:13:06Z</time><name>PT12393</name></trkpt>
<trkpt lat="51.816968" lon="03.973846"><ele>-4.9</ele><time>2023-12-06T15:13:07Z</time><name>PT12394</name></trkpt>
<trkpt lat="51.816985" lon="03.973868"><ele>-4.9</ele><time>2023-12-06T15:13:10Z</time><name>PT12395</name></trkpt>
<trkpt lat="51.816996" lon="03.973895"><ele>-4.8</ele><time>2023-12-06T15:13:12Z</time><name>PT12396</name></trkpt>
<trkpt lat="51.817009" lon="03.973919"><ele>-4.8</ele><time>2023-12-06T15:13:12Z</time><name>PT12397</name></trkpt>
<trkpt lat="51.817024" lon="03.973941"><ele>-4.9</ele><time>2023-12-06T15:13:13Z</time><name>PT12398</name></trkpt>
<trkpt lat="51.817033" lon="03.973960"><ele>-4.9</ele><time>2023-12-06T15:13:15Z</time><name>PT12399</name></trkpt>
<trkpt lat="51.817041" lon="03.973975"><ele>-4.9</ele><time>2023-12-06T15:13:15Z</time><name>PT12400</name></trkpt>
<trkpt lat="51.817049" lon="03.973993"><ele>-5</ele><time>2023-12-06T15:13:16Z</time><name>PT12401</name></trkpt>
<trkpt lat="51.817054" lon="03.974018"><ele>-5.1</ele><time>2023-12-06T15:13:18Z</time><name>PT12402</name></trkpt>
<trkpt lat="51.817058" lon="03.974035"><ele>-5</ele><time>2023-12-06T15:13:18Z</time><name>PT12403</name></trkpt>
<trkpt lat="51.817063" lon="03.974049"><ele>-5.1</ele><time>2023-12-06T15:13:19Z</time><name>PT12404</name></trkpt>
<trkpt lat="51.817067" lon="03.974062"><ele>-5</ele><time>2023-12-06T15:13:21Z</time><name>PT12405</name></trkpt>
<trkpt lat="51.817072" lon="03.974077"><ele>-4.9</ele><time>2023-12-06T15:13:21Z</time><name>PT12406</name></trkpt>
<trkpt lat="51.817076" lon="03.974091"><ele>-5.1</ele><time>2023-12-06T15:13:22Z</time><name>PT12407</name></trkpt>
<trkpt lat="51.817081" lon="03.974106"><ele>-5.1</ele><time>2023-12-06T15:13:24Z</time><name>PT12408</name></trkpt>
<trkpt lat="51.817084" lon="03.974121"><ele>-5.1</ele><time>2023-12-06T15:13:24Z</time><name>PT12409</name></trkpt>
<trkpt lat="51.817086" lon="03.974135"><ele>-5</ele><time>2023-12-06T15:13:25Z</time><name>PT12410</name></trkpt>
<trkpt lat="51.817089" lon="03.974149"><ele>-5.1</ele><time>2023-12-06T15:13:27Z</time><name>PT12411</name></trkpt>
<trkpt lat="51.817092" lon="03.974165"><ele>-5</ele><time>2023-12-06T15:13:27Z</time><name>PT12412</name></trkpt>
<trkpt lat="51.817097" lon="03.974182"><ele>-5.1</ele><time>2023-12-06T15:13:28Z</time><name>PT12413</name></trkpt>
<trkpt lat="51.817100" lon="03.974198"><ele>-5.1</ele><time>2023-12-06T15:13:30Z</time><name>PT12414</name></trkpt>
<trkpt lat="51.817103" lon="03.974213"><ele>-5</ele><time>2023-12-06T15:13:30Z</time><name>PT12415</name></trkpt>
<trkpt lat="51.817105" lon="03.974228"><ele>-5</ele><time>2023-12-06T15:13:31Z</time><name>PT12416</name></trkpt>
<trkpt lat="51.817107" lon="03.974242"><ele>-5</ele><time>2023-12-06T15:13:33Z</time><name>PT12417</name></trkpt>
<trkpt lat="51.817112" lon="03.974252"><ele>-4.9</ele><time>2023-12-06T15:13:33Z</time><name>PT12418</name></trkpt>
<trkpt lat="51.817118" lon="03.974263"><ele>-4.8</ele><time>2023-12-06T15:13:34Z</time><name>PT12419</name></trkpt>
<trkpt lat="51.817123" lon="03.974275"><ele>-4.8</ele><time>2023-12-06T15:13:36Z</time><name>PT12420</name></trkpt>
<trkpt lat="51.817130" lon="03.974289"><ele>-4.8</ele><time>2023-12-06T15:13:36Z</time><name>PT12421</name></trkpt>
<trkpt lat="51.817135" lon="03.974301"><ele>-4.7</ele><time>2023-12-06T15:13:37Z</time><name>PT12422</name></trkpt>
<trkpt lat="51.817139" lon="03.974316"><ele>-4.6</ele><time>2023-12-06T15:13:39Z</time><name>PT12423</name></trkpt>
<trkpt lat="51.817144" lon="03.974332"><ele>-4.8</ele><time>2023-12-06T15:13:39Z</time><name>PT12424</name></trkpt>
<trkpt lat="51.817149" lon="03.974346"><ele>-4.7</ele><time>2023-12-06T15:13:40Z</time><name>PT12425</name></trkpt>
<trkpt lat="51.817154" lon="03.974358"><ele>-4.5</ele><time>2023-12-06T15:13:42Z</time><name>PT12426</name></trkpt>
<trkpt lat="51.817160" lon="03.974371"><ele>-4.4</ele><time>2023-12-06T15:13:42Z</time><name>PT12427</name></trkpt>
<trkpt lat="51.817164" lon="03.974385"><ele>-4.5</ele><time>2023-12-06T15:13:43Z</time><name>PT12428</name></trkpt>
<trkpt lat="51.817169" lon="03.974400"><ele>-4.5</ele><time>2023-12-06T15:13:45Z</time><name>PT12429</name></trkpt>
<trkpt lat="51.817172" lon="03.974415"><ele>-4.5</ele><time>2023-12-06T15:13:45Z</time><name>PT12430</name></trkpt>
<trkpt lat="51.817175" lon="03.974430"><ele>-4.6</ele><time>2023-12-06T15:13:46Z</time><name>PT12431</name></trkpt>
<trkpt lat="51.817178" lon="03.974447"><ele>-4.6</ele><time>2023-12-06T15:13:48Z</time><name>PT12432</name></trkpt>
<trkpt lat="51.817183" lon="03.974462"><ele>-4.5</ele><time>2023-12-06T15:13:48Z</time><name>PT12433</name></trkpt>
<trkpt lat="51.817187" lon="03.974477"><ele>-4.4</ele><time>2023-12-06T15:13:49Z</time><name>PT12434</name></trkpt>
<trkpt lat="51.817192" lon="03.974487"><ele>-4.3</ele><time>2023-12-06T15:13:51Z</time><name>PT12435</name></trkpt>
<trkpt lat="51.817197" lon="03.974501"><ele>-4.5</ele><time>2023-12-06T15:13:51Z</time><name>PT12436</name></trkpt>
<trkpt lat="51.817200" lon="03.974514"><ele>-4.5</ele><time>2023-12-06T15:13:52Z</time><name>PT12437</name></trkpt>
<trkpt lat="51.817204" lon="03.974528"><ele>-4.5</ele><time>2023-12-06T15:13:54Z</time><name>PT12438</name></trkpt>
<trkpt lat="51.817208" lon="03.974543"><ele>-4.7</ele><time>2023-12-06T15:13:54Z</time><name>PT12439</name></trkpt>
<trkpt lat="51.817211" lon="03.974558"><ele>-4.7</ele><time>2023-12-06T15:13:55Z</time><name>PT12440</name></trkpt>
<trkpt lat="51.817214" lon="03.974572"><ele>-4.5</ele><time>2023-12-06T15:13:57Z</time><name>PT12441</name></trkpt>
<trkpt lat="51.817218" lon="03.974587"><ele>-4.5</ele><time>2023-12-06T15:13:57Z</time><name>PT12442</name></trkpt>
<trkpt lat="51.817222" lon="03.974600"><ele>-4.4</ele><time>2023-12-06T15:13:58Z</time><name>PT12443</name></trkpt>
<trkpt lat="51.817228" lon="03.974616"><ele>-4.3</ele><time>2023-12-06T15:14:00Z</time><name>PT12444</name></trkpt>
<trkpt lat="51.817233" lon="03.974629"><ele>-4.4</ele><time>2023-12-06T15:14:00Z</time><name>PT12445</name></trkpt>
<trkpt lat="51.817236" lon="03.974637"><ele>-4.5</ele><time>2023-12-06T15:14:01Z</time><name>PT12446</name></trkpt>
<trkpt lat="51.817235" lon="03.974640"><ele>-4.4</ele><time>2023-12-06T15:14:03Z</time><name>PT12447</name></trkpt>
<trkpt lat="51.817235" lon="03.974640"><ele>-4.4</ele><time>2023-12-06T15:14:03Z</time><name>PT12448</name></trkpt>
<trkpt lat="51.817236" lon="03.974641"><ele>-4.4</ele><time>2023-12-06T15:14:04Z</time><name>PT12449</name></trkpt>
<trkpt lat="51.817239" lon="03.974646"><ele>-4.2</ele><time>2023-12-06T15:14:13Z</time><name>PT12450</name></trkpt>
<trkpt lat="51.817243" lon="03.974658"><ele>-4.2</ele><time>2023-12-06T15:14:15Z</time><name>PT12451</name></trkpt>
<trkpt lat="51.817248" lon="03.974671"><ele>-4.3</ele><time>2023-12-06T15:14:15Z</time><name>PT12452</name></trkpt>
<trkpt lat="51.817251" lon="03.974691"><ele>-4.1</ele><time>2023-12-06T15:14:16Z</time><name>PT12453</name></trkpt>
<trkpt lat="51.817251" lon="03.974715"><ele>-4</ele><time>2023-12-06T15:14:18Z</time><name>PT12454</name></trkpt>
<trkpt lat="51.817252" lon="03.974733"><ele>-4</ele><time>2023-12-06T15:14:18Z</time><name>PT12455</name></trkpt>
<trkpt lat="51.817255" lon="03.974748"><ele>-3.7</ele><time>2023-12-06T15:14:19Z</time><name>PT12456</name></trkpt>
<trkpt lat="51.817259" lon="03.974764"><ele>-3.7</ele><time>2023-12-06T15:14:21Z</time><name>PT12457</name></trkpt>
<trkpt lat="51.817263" lon="03.974778"><ele>-3.7</ele><time>2023-12-06T15:14:21Z</time><name>PT12458</name></trkpt>
<trkpt lat="51.817268" lon="03.974789"><ele>-3.7</ele><time>2023-12-06T15:14:22Z</time><name>PT12459</name></trkpt>
<trkpt lat="51.817273" lon="03.974802"><ele>-3.7</ele><time>2023-12-06T15:14:24Z</time><name>PT12460</name></trkpt>
<trkpt lat="51.817277" lon="03.974815"><ele>-3.7</ele><time>2023-12-06T15:14:24Z</time><name>PT12461</name></trkpt>
<trkpt lat="51.817279" lon="03.974829"><ele>-3.6</ele><time>2023-12-06T15:14:25Z</time><name>PT12462</name></trkpt>
<trkpt lat="51.817282" lon="03.974846"><ele>-3.7</ele><time>2023-12-06T15:14:27Z</time><name>PT12463</name></trkpt>
<trkpt lat="51.817285" lon="03.974861"><ele>-3.7</ele><time>2023-12-06T15:14:27Z</time><name>PT12464</name></trkpt>
<trkpt lat="51.817288" lon="03.974874"><ele>-3.6</ele><time>2023-12-06T15:14:28Z</time><name>PT12465</name></trkpt>
<trkpt lat="51.817292" lon="03.974889"><ele>-3.7</ele><time>2023-12-06T15:14:30Z</time><name>PT12466</name></trkpt>
<trkpt lat="51.817296" lon="03.974903"><ele>-3.6</ele><time>2023-12-06T15:14:30Z</time><name>PT12467</name></trkpt>
<trkpt lat="51.817299" lon="03.974917"><ele>-3.6</ele><time>2023-12-06T15:14:31Z</time><name>PT12468</name></trkpt>
<trkpt lat="51.817301" lon="03.974931"><ele>-3.6</ele><time>2023-12-06T15:14:33Z</time><name>PT12469</name></trkpt>
<trkpt lat="51.817304" lon="03.974945"><ele>-3.5</ele><time>2023-12-06T15:14:33Z</time><name>PT12470</name></trkpt>
<trkpt lat="51.817306" lon="03.974961"><ele>-3.5</ele><time>2023-12-06T15:14:34Z</time><name>PT12471</name></trkpt>
<trkpt lat="51.817307" lon="03.974975"><ele>-3.4</ele><time>2023-12-06T15:14:36Z</time><name>PT12472</name></trkpt>
<trkpt lat="51.817309" lon="03.974987"><ele>-3.3</ele><time>2023-12-06T15:14:36Z</time><name>PT12473</name></trkpt>
<trkpt lat="51.817312" lon="03.975000"><ele>-3.4</ele><time>2023-12-06T15:14:37Z</time><name>PT12474</name></trkpt>
<trkpt lat="51.817315" lon="03.975014"><ele>-3.5</ele><time>2023-12-06T15:14:39Z</time><name>PT12475</name></trkpt>
<trkpt lat="51.817318" lon="03.975029"><ele>-3.5</ele><time>2023-12-06T15:14:39Z</time><name>PT12476</name></trkpt>
<trkpt lat="51.817321" lon="03.975042"><ele>-3.5</ele><time>2023-12-06T15:14:40Z</time><name>PT12477</name></trkpt>
<trkpt lat="51.817322" lon="03.975055"><ele>-3.5</ele><time>2023-12-06T15:14:42Z</time><name>PT12478</name></trkpt>
<trkpt lat="51.817322" lon="03.975070"><ele>-3.5</ele><time>2023-12-06T15:14:42Z</time><name>PT12479</name></trkpt>
<trkpt lat="51.817323" lon="03.975082"><ele>-3.5</ele><time>2023-12-06T15:14:43Z</time><name>PT12480</name></trkpt>
<trkpt lat="51.817324" lon="03.975099"><ele>-3.4</ele><time>2023-12-06T15:14:45Z</time><name>PT12481</name></trkpt>
<trkpt lat="51.817327" lon="03.975112"><ele>-3.5</ele><time>2023-12-06T15:14:45Z</time><name>PT12482</name></trkpt>
<trkpt lat="51.817331" lon="03.975127"><ele>-3.5</ele><time>2023-12-06T15:14:46Z</time><name>PT12483</name></trkpt>
<trkpt lat="51.817334" lon="03.975143"><ele>-3.6</ele><time>2023-12-06T15:14:48Z</time><name>PT12484</name></trkpt>
<trkpt lat="51.817337" lon="03.975162"><ele>-3.5</ele><time>2023-12-06T15:14:48Z</time><name>PT12485</name></trkpt>
<trkpt lat="51.817342" lon="03.975175"><ele>-3.5</ele><time>2023-12-06T15:14:49Z</time><name>PT12486</name></trkpt>
<trkpt lat="51.817347" lon="03.975188"><ele>-3.5</ele><time>2023-12-06T15:14:51Z</time><name>PT12487</name></trkpt>
<trkpt lat="51.817354" lon="03.975200"><ele>-3.6</ele><time>2023-12-06T15:14:51Z</time><name>PT12488</name></trkpt>
<trkpt lat="51.817361" lon="03.975209"><ele>-3.5</ele><time>2023-12-06T15:14:52Z</time><name>PT12489</name></trkpt>
<trkpt lat="51.817368" lon="03.975217"><ele>-3.5</ele><time>2023-12-06T15:14:54Z</time><name>PT12490</name></trkpt>
<trkpt lat="51.817375" lon="03.975226"><ele>-3.5</ele><time>2023-12-06T15:14:54Z</time><name>PT12491</name></trkpt>
<trkpt lat="51.817383" lon="03.975235"><ele>-3.5</ele><time>2023-12-06T15:14:55Z</time><name>PT12492</name></trkpt>
<trkpt lat="51.817387" lon="03.975241"><ele>-3.6</ele><time>2023-12-06T15:14:57Z</time><name>PT12493</name></trkpt>
<trkpt lat="51.817393" lon="03.975240"><ele>-3.6</ele><time>2023-12-06T15:14:57Z</time><name>PT12494</name></trkpt>
<trkpt lat="51.817401" lon="03.975237"><ele>-3.6</ele><time>2023-12-06T15:14:58Z</time><name>PT12495</name></trkpt>
<trkpt lat="51.817407" lon="03.975234"><ele>-3.7</ele><time>2023-12-06T15:15:00Z</time><name>PT12496</name></trkpt>
<trkpt lat="51.817411" lon="03.975236"><ele>-3.7</ele><time>2023-12-06T15:15:00Z</time><name>PT12497</name></trkpt>
<trkpt lat="51.817416" lon="03.975236"><ele>-3.9</ele><time>2023-12-06T15:15:01Z</time><name>PT12498</name></trkpt>
<trkpt lat="51.817422" lon="03.975235"><ele>-4</ele><time>2023-12-06T15:15:03Z</time><name>PT12499</name></trkpt>
<trkpt lat="51.817432" lon="03.975233"><ele>-4.1</ele><time>2023-12-06T15:15:03Z</time><name>PT12500</name></trkpt>
<trkpt lat="51.817441" lon="03.975230"><ele>-3.9</ele><time>2023-12-06T15:15:04Z</time><name>PT12501</name></trkpt>
<trkpt lat="51.817449" lon="03.975228"><ele>-3.9</ele><time>2023-12-06T15:15:06Z</time><name>PT12502</name></trkpt>
<trkpt lat="51.817457" lon="03.975225"><ele>-3.8</ele><time>2023-12-06T15:15:06Z</time><name>PT12503</name></trkpt>
<trkpt lat="51.817466" lon="03.975222"><ele>-3.8</ele><time>2023-12-06T15:15:07Z</time><name>PT12504</name></trkpt>
<trkpt lat="51.817477" lon="03.975223"><ele>-3.7</ele><time>2023-12-06T15:15:09Z</time><name>PT12505</name></trkpt>
<trkpt lat="51.817488" lon="03.975221"><ele>-3.8</ele><time>2023-12-06T15:15:09Z</time><name>PT12506</name></trkpt>
<trkpt lat="51.817495" lon="03.975215"><ele>-4</ele><time>2023-12-06T15:15:10Z</time><name>PT12507</name></trkpt>
<trkpt lat="51.817506" lon="03.975210"><ele>-3.9</ele><time>2023-12-06T15:15:12Z</time><name>PT12508</name></trkpt>
<trkpt lat="51.817516" lon="03.975205"><ele>-3.9</ele><time>2023-12-06T15:15:12Z</time><name>PT12509</name></trkpt>
<trkpt lat="51.817525" lon="03.975203"><ele>-4</ele><time>2023-12-06T15:15:13Z</time><name>PT12510</name></trkpt>
<trkpt lat="51.817535" lon="03.975195"><ele>-3.8</ele><time>2023-12-06T15:15:15Z</time><name>PT12511</name></trkpt>
<trkpt lat="51.817541" lon="03.975188"><ele>-3.8</ele><time>2023-12-06T15:15:15Z</time><name>PT12512</name></trkpt>
<trkpt lat="51.817546" lon="03.975184"><ele>-3.9</ele><time>2023-12-06T15:15:16Z</time><name>PT12513</name></trkpt>
<trkpt lat="51.817549" lon="03.975181"><ele>-4</ele><time>2023-12-06T15:15:18Z</time><name>PT12514</name></trkpt>
<trkpt lat="51.817556" lon="03.975178"><ele>-4</ele><time>2023-12-06T15:15:18Z</time><name>PT12515</name></trkpt>
<trkpt lat="51.817560" lon="03.975178"><ele>-4</ele><time>2023-12-06T15:15:19Z</time><name>PT12516</name></trkpt>
<trkpt lat="51.817563" lon="03.975178"><ele>-4</ele><time>2023-12-06T15:15:21Z</time><name>PT12517</name></trkpt>
<trkpt lat="51.817566" lon="03.975177"><ele>-4</ele><time>2023-12-06T15:15:21Z</time><name>PT12518</name></trkpt>
<trkpt lat="51.817567" lon="03.975177"><ele>-4</ele><time>2023-12-06T15:15:22Z</time><name>PT12519</name></trkpt>
<trkpt lat="51.817571" lon="03.975179"><ele>-4</ele><time>2023-12-06T15:15:24Z</time><name>PT12520</name></trkpt>
<trkpt lat="51.817574" lon="03.975179"><ele>-4</ele><time>2023-12-06T15:15:24Z</time><name>PT12521</name></trkpt>
<trkpt lat="51.817575" lon="03.975180"><ele>-3.9</ele><time>2023-12-06T15:15:25Z</time><name>PT12522</name></trkpt>
<trkpt lat="51.817576" lon="03.975179"><ele>-3.8</ele><time>2023-12-06T15:15:27Z</time><name>PT12523</name></trkpt>
<trkpt lat="51.817576" lon="03.975177"><ele>-3.9</ele><time>2023-12-06T15:15:27Z</time><name>PT12524</name></trkpt>
<trkpt lat="51.817572" lon="03.975181"><ele>-3.7</ele><time>2023-12-06T15:15:30Z</time><name>PT12525</name></trkpt>
<trkpt lat="51.817569" lon="03.975180"><ele>-3.7</ele><time>2023-12-06T15:15:30Z</time><name>PT12526</name></trkpt>
<trkpt lat="51.817580" lon="03.975162"><ele>-3.6</ele><time>2023-12-06T15:15:31Z</time><name>PT12527</name></trkpt>
<trkpt lat="51.817591" lon="03.975153"><ele>-3.7</ele><time>2023-12-06T15:15:33Z</time><name>PT12528</name></trkpt>
<trkpt lat="51.817595" lon="03.975167"><ele>-4</ele><time>2023-12-06T15:15:37Z</time><name>PT12529</name></trkpt>
<trkpt lat="51.817607" lon="03.975171"><ele>-3.9</ele><time>2023-12-06T15:15:39Z</time><name>PT12530</name></trkpt>
<trkpt lat="51.817609" lon="03.975168"><ele>-3.8</ele><time>2023-12-06T15:15:42Z</time><name>PT12531</name></trkpt>
<trkpt lat="51.817617" lon="03.975161"><ele>-3.8</ele><time>2023-12-06T15:15:43Z</time><name>PT12532</name></trkpt>
<trkpt lat="51.817626" lon="03.975153"><ele>-3.9</ele><time>2023-12-06T15:15:44Z</time><name>PT12533</name></trkpt>
<trkpt lat="51.817643" lon="03.975154"><ele>-4</ele><time>2023-12-06T15:15:45Z</time><name>PT12534</name></trkpt>
<trkpt lat="51.817656" lon="03.975146"><ele>-4</ele><time>2023-12-06T15:15:46Z</time><name>PT12535</name></trkpt>
<trkpt lat="51.817668" lon="03.975141"><ele>-4.2</ele><time>2023-12-06T15:15:48Z</time><name>PT12536</name></trkpt>
<trkpt lat="51.817679" lon="03.975133"><ele>-4.2</ele><time>2023-12-06T15:15:48Z</time><name>PT12537</name></trkpt>
<trkpt lat="51.817694" lon="03.975123"><ele>-4.3</ele><time>2023-12-06T15:15:49Z</time><name>PT12538</name></trkpt>
<trkpt lat="51.817705" lon="03.975120"><ele>-4.6</ele><time>2023-12-06T15:15:51Z</time><name>PT12539</name></trkpt>
<trkpt lat="51.817713" lon="03.975115"><ele>-4.8</ele><time>2023-12-06T15:15:51Z</time><name>PT12540</name></trkpt>
<trkpt lat="51.817718" lon="03.975110"><ele>-4.8</ele><time>2023-12-06T15:15:52Z</time><name>PT12541</name></trkpt>
<trkpt lat="51.817720" lon="03.975108"><ele>-4.9</ele><time>2023-12-06T15:15:54Z</time><name>PT12542</name></trkpt>
<trkpt lat="51.817722" lon="03.975106"><ele>-4.9</ele><time>2023-12-06T15:15:54Z</time><name>PT12543</name></trkpt>
<trkpt lat="51.817732" lon="03.975092"><ele>-4.8</ele><time>2023-12-06T15:15:55Z</time><name>PT12544</name></trkpt>
<trkpt lat="51.817747" lon="03.975082"><ele>-4.9</ele><time>2023-12-06T15:15:57Z</time><name>PT12545</name></trkpt>
<trkpt lat="51.817762" lon="03.975072"><ele>-4.9</ele><time>2023-12-06T15:15:57Z</time><name>PT12546</name></trkpt>
<trkpt lat="51.817774" lon="03.975066"><ele>-4.9</ele><time>2023-12-06T15:15:58Z</time><name>PT12547</name></trkpt>
<trkpt lat="51.817784" lon="03.975062"><ele>-5.2</ele><time>2023-12-06T15:16:00Z</time><name>PT12548</name></trkpt>
<trkpt lat="51.817793" lon="03.975059"><ele>-5</ele><time>2023-12-06T15:16:00Z</time><name>PT12549</name></trkpt>
<trkpt lat="51.817801" lon="03.975062"><ele>-5</ele><time>2023-12-06T15:16:01Z</time><name>PT12550</name></trkpt>
<trkpt lat="51.817810" lon="03.975062"><ele>-5</ele><time>2023-12-06T15:16:03Z</time><name>PT12551</name></trkpt>
<trkpt lat="51.817819" lon="03.975052"><ele>-4.9</ele><time>2023-12-06T15:16:03Z</time><name>PT12552</name></trkpt>
<trkpt lat="51.817830" lon="03.975044"><ele>-4.9</ele><time>2023-12-06T15:16:04Z</time><name>PT12553</name></trkpt>
<trkpt lat="51.817843" lon="03.975036"><ele>-5</ele><time>2023-12-06T15:16:06Z</time><name>PT12554</name></trkpt>
<trkpt lat="51.817862" lon="03.975030"><ele>-5</ele><time>2023-12-06T15:16:06Z</time><name>PT12555</name></trkpt>
<trkpt lat="51.817878" lon="03.975022"><ele>-5.1</ele><time>2023-12-06T15:16:07Z</time><name>PT12556</name></trkpt>
<trkpt lat="51.817890" lon="03.975013"><ele>-5.3</ele><time>2023-12-06T15:16:09Z</time><name>PT12557</name></trkpt>
<trkpt lat="51.817901" lon="03.975010"><ele>-5.3</ele><time>2023-12-06T15:16:09Z</time><name>PT12558</name></trkpt>
<trkpt lat="51.817908" lon="03.975012"><ele>-5.4</ele><time>2023-12-06T15:16:10Z</time><name>PT12559</name></trkpt>
<trkpt lat="51.817911" lon="03.975010"><ele>-5.3</ele><time>2023-12-06T15:16:12Z</time><name>PT12560</name></trkpt>
<trkpt lat="51.817915" lon="03.975008"><ele>-5.3</ele><time>2023-12-06T15:16:12Z</time><name>PT12561</name></trkpt>
<trkpt lat="51.817929" lon="03.975003"><ele>-5</ele><time>2023-12-06T15:16:13Z</time><name>PT12562</name></trkpt>
<trkpt lat="51.817945" lon="03.974997"><ele>-5.1</ele><time>2023-12-06T15:16:15Z</time><name>PT12563</name></trkpt>
<trkpt lat="51.817959" lon="03.974996"><ele>-5</ele><time>2023-12-06T15:16:15Z</time><name>PT12564</name></trkpt>
<trkpt lat="51.817973" lon="03.974999"><ele>-5.3</ele><time>2023-12-06T15:16:16Z</time><name>PT12565</name></trkpt>
<trkpt lat="51.817983" lon="03.975001"><ele>-5.4</ele><time>2023-12-06T15:16:18Z</time><name>PT12566</name></trkpt>
<trkpt lat="51.817992" lon="03.975002"><ele>-5.6</ele><time>2023-12-06T15:16:18Z</time><name>PT12567</name></trkpt>
<trkpt lat="51.817998" lon="03.975001"><ele>-5.4</ele><time>2023-12-06T15:16:19Z</time><name>PT12568</name></trkpt>
<trkpt lat="51.818008" lon="03.974992"><ele>-5.3</ele><time>2023-12-06T15:16:21Z</time><name>PT12569</name></trkpt>
<trkpt lat="51.818014" lon="03.974985"><ele>-5.1</ele><time>2023-12-06T15:16:21Z</time><name>PT12570</name></trkpt>
<trkpt lat="51.818023" lon="03.974983"><ele>-4.9</ele><time>2023-12-06T15:16:22Z</time><name>PT12571</name></trkpt>
<trkpt lat="51.818039" lon="03.974978"><ele>-4.9</ele><time>2023-12-06T15:16:24Z</time><name>PT12572</name></trkpt>
<trkpt lat="51.818054" lon="03.974972"><ele>-4.9</ele><time>2023-12-06T15:16:24Z</time><name>PT12573</name></trkpt>
<trkpt lat="51.818061" lon="03.974967"><ele>-5.1</ele><time>2023-12-06T15:16:25Z</time><name>PT12574</name></trkpt>
<trkpt lat="51.818072" lon="03.974964"><ele>-4.9</ele><time>2023-12-06T15:16:27Z</time><name>PT12575</name></trkpt>
<trkpt lat="51.818082" lon="03.974965"><ele>-4.9</ele><time>2023-12-06T15:16:27Z</time><name>PT12576</name></trkpt>
<trkpt lat="51.818091" lon="03.974962"><ele>-5</ele><time>2023-12-06T15:16:28Z</time><name>PT12577</name></trkpt>
<trkpt lat="51.818105" lon="03.974957"><ele>-4.9</ele><time>2023-12-06T15:16:30Z</time><name>PT12578</name></trkpt>
<trkpt lat="51.818113" lon="03.974955"><ele>-4.9</ele><time>2023-12-06T15:16:30Z</time><name>PT12579</name></trkpt>
<trkpt lat="51.818124" lon="03.974950"><ele>-5</ele><time>2023-12-06T15:16:31Z</time><name>PT12580</name></trkpt>
<trkpt lat="51.818133" lon="03.974946"><ele>-5</ele><time>2023-12-06T15:16:33Z</time><name>PT12581</name></trkpt>
<trkpt lat="51.818140" lon="03.974942"><ele>-5.3</ele><time>2023-12-06T15:16:33Z</time><name>PT12582</name></trkpt>
<trkpt lat="51.818146" lon="03.974939"><ele>-5.3</ele><time>2023-12-06T15:16:34Z</time><name>PT12583</name></trkpt>
<trkpt lat="51.818151" lon="03.974939"><ele>-5.2</ele><time>2023-12-06T15:16:36Z</time><name>PT12584</name></trkpt>
<trkpt lat="51.818160" lon="03.974943"><ele>-5.2</ele><time>2023-12-06T15:16:36Z</time><name>PT12585</name></trkpt>
<trkpt lat="51.818169" lon="03.974948"><ele>-5.1</ele><time>2023-12-06T15:16:37Z</time><name>PT12586</name></trkpt>
<trkpt lat="51.818178" lon="03.974955"><ele>-4.8</ele><time>2023-12-06T15:16:39Z</time><name>PT12587</name></trkpt>
<trkpt lat="51.818185" lon="03.974964"><ele>-4.9</ele><time>2023-12-06T15:16:39Z</time><name>PT12588</name></trkpt>
<trkpt lat="51.818190" lon="03.974971"><ele>-4.9</ele><time>2023-12-06T15:16:40Z</time><name>PT12589</name></trkpt>
<trkpt lat="51.818189" lon="03.974980"><ele>-5.1</ele><time>2023-12-06T15:16:42Z</time><name>PT12590</name></trkpt>
<trkpt lat="51.818193" lon="03.974991"><ele>-5</ele><time>2023-12-06T15:16:42Z</time><name>PT12591</name></trkpt>
<trkpt lat="51.818197" lon="03.975003"><ele>-5.1</ele><time>2023-12-06T15:16:43Z</time><name>PT12592</name></trkpt>
<trkpt lat="51.818207" lon="03.975017"><ele>-5.1</ele><time>2023-12-06T15:16:45Z</time><name>PT12593</name></trkpt>
<trkpt lat="51.818214" lon="03.975031"><ele>-5.1</ele><time>2023-12-06T15:16:45Z</time><name>PT12594</name></trkpt>
<trkpt lat="51.818219" lon="03.975041"><ele>-5.1</ele><time>2023-12-06T15:16:46Z</time><name>PT12595</name></trkpt>
<trkpt lat="51.818222" lon="03.975053"><ele>-5.2</ele><time>2023-12-06T15:16:47Z</time><name>PT12596</name></trkpt>
<trkpt lat="51.818225" lon="03.975064"><ele>-5</ele><time>2023-12-06T15:16:48Z</time><name>PT12597</name></trkpt>
<trkpt lat="51.818229" lon="03.975074"><ele>-4.9</ele><time>2023-12-06T15:16:49Z</time><name>PT12598</name></trkpt>
<trkpt lat="51.818233" lon="03.975088"><ele>-4.9</ele><time>2023-12-06T15:16:51Z</time><name>PT12599</name></trkpt>
<trkpt lat="51.818237" lon="03.975100"><ele>-4.7</ele><time>2023-12-06T15:16:51Z</time><name>PT12600</name></trkpt>
<trkpt lat="51.818244" lon="03.975114"><ele>-4.8</ele><time>2023-12-06T15:16:52Z</time><name>PT12601</name></trkpt>
<trkpt lat="51.818249" lon="03.975130"><ele>-5.1</ele><time>2023-12-06T15:16:54Z</time><name>PT12602</name></trkpt>
<trkpt lat="51.818252" lon="03.975150"><ele>-5.3</ele><time>2023-12-06T15:16:54Z</time><name>PT12603</name></trkpt>
<trkpt lat="51.818252" lon="03.975168"><ele>-5.3</ele><time>2023-12-06T15:16:55Z</time><name>PT12604</name></trkpt>
<trkpt lat="51.818254" lon="03.975175"><ele>-5.5</ele><time>2023-12-06T15:16:57Z</time><name>PT12605</name></trkpt>
<trkpt lat="51.818257" lon="03.975182"><ele>-5.6</ele><time>2023-12-06T15:16:57Z</time><name>PT12606</name></trkpt>
<trkpt lat="51.818261" lon="03.975189"><ele>-5.4</ele><time>2023-12-06T15:16:58Z</time><name>PT12607</name></trkpt>
<trkpt lat="51.818266" lon="03.975206"><ele>-5.4</ele><time>2023-12-06T15:17:00Z</time><name>PT12608</name></trkpt>
<trkpt lat="51.818269" lon="03.975226"><ele>-5.5</ele><time>2023-12-06T15:17:00Z</time><name>PT12609</name></trkpt>
<trkpt lat="51.818270" lon="03.975233"><ele>-5.4</ele><time>2023-12-06T15:17:01Z</time><name>PT12610</name></trkpt>
<trkpt lat="51.818273" lon="03.975242"><ele>-5.4</ele><time>2023-12-06T15:17:03Z</time><name>PT12611</name></trkpt>
<trkpt lat="51.818275" lon="03.975253"><ele>-5.4</ele><time>2023-12-06T15:17:03Z</time><name>PT12612</name></trkpt>
<trkpt lat="51.818281" lon="03.975268"><ele>-5.2</ele><time>2023-12-06T15:17:04Z</time><name>PT12613</name></trkpt>
<trkpt lat="51.818287" lon="03.975288"><ele>-5.2</ele><time>2023-12-06T15:17:06Z</time><name>PT12614</name></trkpt>
<trkpt lat="51.818290" lon="03.975299"><ele>-5.3</ele><time>2023-12-06T15:17:06Z</time><name>PT12615</name></trkpt>
<trkpt lat="51.818292" lon="03.975306"><ele>-5.2</ele><time>2023-12-06T15:17:07Z</time><name>PT12616</name></trkpt>
<trkpt lat="51.818298" lon="03.975317"><ele>-5.2</ele><time>2023-12-06T15:17:09Z</time><name>PT12617</name></trkpt>
<trkpt lat="51.818306" lon="03.975332"><ele>-5.2</ele><time>2023-12-06T15:17:09Z</time><name>PT12618</name></trkpt>
<trkpt lat="51.818315" lon="03.975343"><ele>-5.2</ele><time>2023-12-06T15:17:10Z</time><name>PT12619</name></trkpt>
<trkpt lat="51.818321" lon="03.975354"><ele>-5.1</ele><time>2023-12-06T15:17:12Z</time><name>PT12620</name></trkpt>
<trkpt lat="51.818326" lon="03.975361"><ele>-5.2</ele><time>2023-12-06T15:17:12Z</time><name>PT12621</name></trkpt>
<trkpt lat="51.818330" lon="03.975366"><ele>-4.9</ele><time>2023-12-06T15:17:13Z</time><name>PT12622</name></trkpt>
<trkpt lat="51.818333" lon="03.975379"><ele>-4.9</ele><time>2023-12-06T15:17:15Z</time><name>PT12623</name></trkpt>
<trkpt lat="51.818337" lon="03.975389"><ele>-5</ele><time>2023-12-06T15:17:15Z</time><name>PT12624</name></trkpt>
<trkpt lat="51.818343" lon="03.975399"><ele>-4.8</ele><time>2023-12-06T15:17:16Z</time><name>PT12625</name></trkpt>
<trkpt lat="51.818349" lon="03.975415"><ele>-4.9</ele><time>2023-12-06T15:17:18Z</time><name>PT12626</name></trkpt>
<trkpt lat="51.818350" lon="03.975434"><ele>-4.9</ele><time>2023-12-06T15:17:18Z</time><name>PT12627</name></trkpt>
<trkpt lat="51.818356" lon="03.975443"><ele>-4.9</ele><time>2023-12-06T15:17:19Z</time><name>PT12628</name></trkpt>
<trkpt lat="51.818358" lon="03.975449"><ele>-4.8</ele><time>2023-12-06T15:17:21Z</time><name>PT12629</name></trkpt>
<trkpt lat="51.818362" lon="03.975452"><ele>-4.9</ele><time>2023-12-06T15:17:21Z</time><name>PT12630</name></trkpt>
<trkpt lat="51.818362" lon="03.975461"><ele>-4.9</ele><time>2023-12-06T15:17:22Z</time><name>PT12631</name></trkpt>
<trkpt lat="51.818358" lon="03.975484"><ele>-4.9</ele><time>2023-12-06T15:17:24Z</time><name>PT12632</name></trkpt>
<trkpt lat="51.818362" lon="03.975492"><ele>-4.9</ele><time>2023-12-06T15:17:24Z</time><name>PT12633</name></trkpt>
<trkpt lat="51.818353" lon="03.975500"><ele>-4.8</ele><time>2023-12-06T15:17:25Z</time><name>PT12634</name></trkpt>
<trkpt lat="51.818358" lon="03.975491"><ele>-4.8</ele><time>2023-12-06T15:17:27Z</time><name>PT12635</name></trkpt>
<trkpt lat="51.818356" lon="03.975499"><ele>-4.6</ele><time>2023-12-06T15:17:27Z</time><name>PT12636</name></trkpt>
<trkpt lat="51.818355" lon="03.975502"><ele>-4.5</ele><time>2023-12-06T15:17:28Z</time><name>PT12637</name></trkpt>
<trkpt lat="51.818350" lon="03.975512"><ele>-4.7</ele><time>2023-12-06T15:17:30Z</time><name>PT12638</name></trkpt>
<trkpt lat="51.818343" lon="03.975522"><ele>-4.7</ele><time>2023-12-06T15:17:30Z</time><name>PT12639</name></trkpt>
<trkpt lat="51.818332" lon="03.975539"><ele>-4.6</ele><time>2023-12-06T15:17:31Z</time><name>PT12640</name></trkpt>
<trkpt lat="51.818328" lon="03.975548"><ele>-4.5</ele><time>2023-12-06T15:17:33Z</time><name>PT12641</name></trkpt>
<trkpt lat="51.818332" lon="03.975556"><ele>-4.5</ele><time>2023-12-06T15:17:33Z</time><name>PT12642</name></trkpt>
<trkpt lat="51.818325" lon="03.975561"><ele>-4.5</ele><time>2023-12-06T15:17:34Z</time><name>PT12643</name></trkpt>
<trkpt lat="51.818325" lon="03.975565"><ele>-4.7</ele><time>2023-12-06T15:17:36Z</time><name>PT12644</name></trkpt>
<trkpt lat="51.818329" lon="03.975568"><ele>-4.8</ele><time>2023-12-06T15:17:36Z</time><name>PT12645</name></trkpt>
<trkpt lat="51.818322" lon="03.975572"><ele>-4.7</ele><time>2023-12-06T15:17:39Z</time><name>PT12646</name></trkpt>
<trkpt lat="51.818316" lon="03.975574"><ele>-4.6</ele><time>2023-12-06T15:17:40Z</time><name>PT12647</name></trkpt>
<trkpt lat="51.818310" lon="03.975579"><ele>-4.5</ele><time>2023-12-06T15:17:42Z</time><name>PT12648</name></trkpt>
<trkpt lat="51.818304" lon="03.975586"><ele>-4.6</ele><time>2023-12-06T15:17:42Z</time><name>PT12649</name></trkpt>
<trkpt lat="51.818298" lon="03.975591"><ele>-4.8</ele><time>2023-12-06T15:17:43Z</time><name>PT12650</name></trkpt>
<trkpt lat="51.818293" lon="03.975599"><ele>-4.6</ele><time>2023-12-06T15:17:45Z</time><name>PT12651</name></trkpt>
<trkpt lat="51.818289" lon="03.975611"><ele>-4.5</ele><time>2023-12-06T15:17:45Z</time><name>PT12652</name></trkpt>
<trkpt lat="51.818282" lon="03.975619"><ele>-4.6</ele><time>2023-12-06T15:17:46Z</time><name>PT12653</name></trkpt>
<trkpt lat="51.818274" lon="03.975623"><ele>-4.5</ele><time>2023-12-06T15:17:48Z</time><name>PT12654</name></trkpt>
<trkpt lat="51.818264" lon="03.975631"><ele>-4.5</ele><time>2023-12-06T15:17:48Z</time><name>PT12655</name></trkpt>
<trkpt lat="51.818256" lon="03.975635"><ele>-4.6</ele><time>2023-12-06T15:17:49Z</time><name>PT12656</name></trkpt>
<trkpt lat="51.818248" lon="03.975640"><ele>-4.5</ele><time>2023-12-06T15:17:51Z</time><name>PT12657</name></trkpt>
<trkpt lat="51.818240" lon="03.975647"><ele>-4.6</ele><time>2023-12-06T15:17:51Z</time><name>PT12658</name></trkpt>
<trkpt lat="51.818232" lon="03.975652"><ele>-4.5</ele><time>2023-12-06T15:17:52Z</time><name>PT12659</name></trkpt>
<trkpt lat="51.818225" lon="03.975656"><ele>-4.5</ele><time>2023-12-06T15:17:53Z</time><name>PT12660</name></trkpt>
<trkpt lat="51.818218" lon="03.975662"><ele>-4.5</ele><time>2023-12-06T15:17:54Z</time><name>PT12661</name></trkpt>
<trkpt lat="51.818214" lon="03.975674"><ele>-4.6</ele><time>2023-12-06T15:17:55Z</time><name>PT12662</name></trkpt>
<trkpt lat="51.818214" lon="03.975687"><ele>-4.7</ele><time>2023-12-06T15:17:57Z</time><name>PT12663</name></trkpt>
<trkpt lat="51.818215" lon="03.975698"><ele>-4.7</ele><time>2023-12-06T15:17:57Z</time><name>PT12664</name></trkpt>
<trkpt lat="51.818216" lon="03.975706"><ele>-4.7</ele><time>2023-12-06T15:17:58Z</time><name>PT12665</name></trkpt>
<trkpt lat="51.818216" lon="03.975715"><ele>-4.5</ele><time>2023-12-06T15:18:00Z</time><name>PT12666</name></trkpt>
<trkpt lat="51.818217" lon="03.975724"><ele>-4.5</ele><time>2023-12-06T15:18:00Z</time><name>PT12667</name></trkpt>
<trkpt lat="51.818217" lon="03.975732"><ele>-4.5</ele><time>2023-12-06T15:18:01Z</time><name>PT12668</name></trkpt>
<trkpt lat="51.818219" lon="03.975741"><ele>-4.5</ele><time>2023-12-06T15:18:03Z</time><name>PT12669</name></trkpt>
<trkpt lat="51.818220" lon="03.975753"><ele>-4.5</ele><time>2023-12-06T15:18:03Z</time><name>PT12670</name></trkpt>
<trkpt lat="51.818222" lon="03.975765"><ele>-4.5</ele><time>2023-12-06T15:18:04Z</time><name>PT12671</name></trkpt>
<trkpt lat="51.818223" lon="03.975780"><ele>-4.5</ele><time>2023-12-06T15:18:06Z</time><name>PT12672</name></trkpt>
<trkpt lat="51.818223" lon="03.975796"><ele>-4.4</ele><time>2023-12-06T15:18:06Z</time><name>PT12673</name></trkpt>
<trkpt lat="51.818224" lon="03.975810"><ele>-4.5</ele><time>2023-12-06T15:18:07Z</time><name>PT12674</name></trkpt>
<trkpt lat="51.818223" lon="03.975826"><ele>-4.4</ele><time>2023-12-06T15:18:09Z</time><name>PT12675</name></trkpt>
<trkpt lat="51.818221" lon="03.975840"><ele>-4.2</ele><time>2023-12-06T15:18:09Z</time><name>PT12676</name></trkpt>
<trkpt lat="51.818219" lon="03.975857"><ele>-4.4</ele><time>2023-12-06T15:18:10Z</time><name>PT12677</name></trkpt>
<trkpt lat="51.818216" lon="03.975869"><ele>-4.4</ele><time>2023-12-06T15:18:12Z</time><name>PT12678</name></trkpt>
<trkpt lat="51.818214" lon="03.975880"><ele>-4.5</ele><time>2023-12-06T15:18:12Z</time><name>PT12679</name></trkpt>
<trkpt lat="51.818222" lon="03.975961"><ele>-4.1</ele><time>2023-12-06T15:21:22Z</time><name>PT12680</name></trkpt>
<trkpt lat="51.818221" lon="03.975963"><ele>-4.4</ele><time>2023-12-06T15:21:27Z</time><name>PT12681</name></trkpt>
<trkpt lat="51.818218" lon="03.975969"><ele>-4.3</ele><time>2023-12-06T15:21:28Z</time><name>PT12682</name></trkpt>
<trkpt lat="51.818214" lon="03.975975"><ele>-4.1</ele><time>2023-12-06T15:21:30Z</time><name>PT12683</name></trkpt>
<trkpt lat="51.818211" lon="03.975983"><ele>-4.1</ele><time>2023-12-06T15:21:30Z</time><name>PT12684</name></trkpt>
<trkpt lat="51.818208" lon="03.975992"><ele>-4</ele><time>2023-12-06T15:21:31Z</time><name>PT12685</name></trkpt>
<trkpt lat="51.818205" lon="03.976001"><ele>-4.3</ele><time>2023-12-06T15:21:33Z</time><name>PT12686</name></trkpt>
<trkpt lat="51.818205" lon="03.976007"><ele>-4.3</ele><time>2023-12-06T15:21:33Z</time><name>PT12687</name></trkpt>
<trkpt lat="51.818205" lon="03.976018"><ele>-4.3</ele><time>2023-12-06T15:21:35Z</time><name>PT12688</name></trkpt>
<trkpt lat="51.818202" lon="03.976026"><ele>-4.3</ele><time>2023-12-06T15:21:36Z</time><name>PT12689</name></trkpt>
<trkpt lat="51.818200" lon="03.976035"><ele>-4.4</ele><time>2023-12-06T15:21:36Z</time><name>PT12690</name></trkpt>
<trkpt lat="51.818202" lon="03.976045"><ele>-4.1</ele><time>2023-12-06T15:21:37Z</time><name>PT12691</name></trkpt>
<trkpt lat="51.818204" lon="03.976053"><ele>-4</ele><time>2023-12-06T15:21:39Z</time><name>PT12692</name></trkpt>
<trkpt lat="51.818206" lon="03.976060"><ele>-4</ele><time>2023-12-06T15:21:39Z</time><name>PT12693</name></trkpt>
<trkpt lat="51.818208" lon="03.976075"><ele>-3.9</ele><time>2023-12-06T15:21:54Z</time><name>PT12694</name></trkpt>
<trkpt lat="51.818213" lon="03.976088"><ele>-3.9</ele><time>2023-12-06T15:21:55Z</time><name>PT12695</name></trkpt>
<trkpt lat="51.818218" lon="03.976101"><ele>-4</ele><time>2023-12-06T15:21:57Z</time><name>PT12696</name></trkpt>
<trkpt lat="51.818223" lon="03.976116"><ele>-4</ele><time>2023-12-06T15:21:57Z</time><name>PT12697</name></trkpt>
<trkpt lat="51.818227" lon="03.976130"><ele>-3.9</ele><time>2023-12-06T15:21:58Z</time><name>PT12698</name></trkpt>
<trkpt lat="51.818228" lon="03.976140"><ele>-4</ele><time>2023-12-06T15:22:00Z</time><name>PT12699</name></trkpt>
<trkpt lat="51.818229" lon="03.976147"><ele>-3.9</ele><time>2023-12-06T15:22:00Z</time><name>PT12700</name></trkpt>
<trkpt lat="51.818231" lon="03.976158"><ele>-4</ele><time>2023-12-06T15:22:01Z</time><name>PT12701</name></trkpt>
<trkpt lat="51.818232" lon="03.976171"><ele>-4</ele><time>2023-12-06T15:22:03Z</time><name>PT12702</name></trkpt>
<trkpt lat="51.818234" lon="03.976189"><ele>-4</ele><time>2023-12-06T15:22:03Z</time><name>PT12703</name></trkpt>
<trkpt lat="51.818238" lon="03.976209"><ele>-4.1</ele><time>2023-12-06T15:22:04Z</time><name>PT12704</name></trkpt>
<trkpt lat="51.818237" lon="03.976229"><ele>-4.2</ele><time>2023-12-06T15:22:06Z</time><name>PT12705</name></trkpt>
<trkpt lat="51.818239" lon="03.976245"><ele>-4.1</ele><time>2023-12-06T15:22:06Z</time><name>PT12706</name></trkpt>
<trkpt lat="51.818235" lon="03.976255"><ele>-4.4</ele><time>2023-12-06T15:22:07Z</time><name>PT12707</name></trkpt>
<trkpt lat="51.818237" lon="03.976269"><ele>-4.3</ele><time>2023-12-06T15:22:09Z</time><name>PT12708</name></trkpt>
<trkpt lat="51.818237" lon="03.976284"><ele>-4.2</ele><time>2023-12-06T15:22:09Z</time><name>PT12709</name></trkpt>
<trkpt lat="51.818239" lon="03.976298"><ele>-4</ele><time>2023-12-06T15:22:10Z</time><name>PT12710</name></trkpt>
<trkpt lat="51.818240" lon="03.976310"><ele>-4</ele><time>2023-12-06T15:22:12Z</time><name>PT12711</name></trkpt>
<trkpt lat="51.818242" lon="03.976327"><ele>-4</ele><time>2023-12-06T15:22:12Z</time><name>PT12712</name></trkpt>
<trkpt lat="51.818248" lon="03.976351"><ele>-4</ele><time>2023-12-06T15:22:13Z</time><name>PT12713</name></trkpt>
<trkpt lat="51.818252" lon="03.976365"><ele>-4.3</ele><time>2023-12-06T15:22:15Z</time><name>PT12714</name></trkpt>
<trkpt lat="51.818253" lon="03.976374"><ele>-4.3</ele><time>2023-12-06T15:22:15Z</time><name>PT12715</name></trkpt>
<trkpt lat="51.818253" lon="03.976384"><ele>-4.3</ele><time>2023-12-06T15:22:16Z</time><name>PT12716</name></trkpt>
<trkpt lat="51.818255" lon="03.976401"><ele>-4.2</ele><time>2023-12-06T15:22:18Z</time><name>PT12717</name></trkpt>
<trkpt lat="51.818257" lon="03.976423"><ele>-4.2</ele><time>2023-12-06T15:22:18Z</time><name>PT12718</name></trkpt>
<trkpt lat="51.818266" lon="03.976449"><ele>-4</ele><time>2023-12-06T15:22:19Z</time><name>PT12719</name></trkpt>
<trkpt lat="51.818277" lon="03.976478"><ele>-4.2</ele><time>2023-12-06T15:22:21Z</time><name>PT12720</name></trkpt>
<trkpt lat="51.818284" lon="03.976503"><ele>-4.3</ele><time>2023-12-06T15:22:21Z</time><name>PT12721</name></trkpt>
<trkpt lat="51.818293" lon="03.976520"><ele>-4.1</ele><time>2023-12-06T15:22:22Z</time><name>PT12722</name></trkpt>
<trkpt lat="51.818297" lon="03.976534"><ele>-4</ele><time>2023-12-06T15:22:23Z</time><name>PT12723</name></trkpt>
<trkpt lat="51.818298" lon="03.976546"><ele>-4</ele><time>2023-12-06T15:22:24Z</time><name>PT12724</name></trkpt>
<trkpt lat="51.818300" lon="03.976559"><ele>-3.9</ele><time>2023-12-06T15:22:25Z</time><name>PT12725</name></trkpt>
<trkpt lat="51.818305" lon="03.976578"><ele>-3.7</ele><time>2023-12-06T15:22:27Z</time><name>PT12726</name></trkpt>
<trkpt lat="51.818314" lon="03.976597"><ele>-3.7</ele><time>2023-12-06T15:22:27Z</time><name>PT12727</name></trkpt>
<trkpt lat="51.818322" lon="03.976614"><ele>-3.8</ele><time>2023-12-06T15:22:28Z</time><name>PT12728</name></trkpt>
<trkpt lat="51.818325" lon="03.976622"><ele>-3.7</ele><time>2023-12-06T15:22:30Z</time><name>PT12729</name></trkpt>
<trkpt lat="51.818326" lon="03.976630"><ele>-3.7</ele><time>2023-12-06T15:22:30Z</time><name>PT12730</name></trkpt>
<trkpt lat="51.818326" lon="03.976646"><ele>-3.6</ele><time>2023-12-06T15:22:31Z</time><name>PT12731</name></trkpt>
<trkpt lat="51.818336" lon="03.976663"><ele>-3.6</ele><time>2023-12-06T15:22:32Z</time><name>PT12732</name></trkpt>
<trkpt lat="51.818342" lon="03.976679"><ele>-3.6</ele><time>2023-12-06T15:22:33Z</time><name>PT12733</name></trkpt>
<trkpt lat="51.818349" lon="03.976691"><ele>-3.6</ele><time>2023-12-06T15:22:34Z</time><name>PT12734</name></trkpt>
<trkpt lat="51.818356" lon="03.976704"><ele>-3.5</ele><time>2023-12-06T15:22:35Z</time><name>PT12735</name></trkpt>
<trkpt lat="51.818361" lon="03.976711"><ele>-3.5</ele><time>2023-12-06T15:22:36Z</time><name>PT12736</name></trkpt>
<trkpt lat="51.818365" lon="03.976727"><ele>-3.6</ele><time>2023-12-06T15:22:37Z</time><name>PT12737</name></trkpt>
<trkpt lat="51.818368" lon="03.976744"><ele>-3.5</ele><time>2023-12-06T15:22:39Z</time><name>PT12738</name></trkpt>
<trkpt lat="51.818375" lon="03.976756"><ele>-3.6</ele><time>2023-12-06T15:22:39Z</time><name>PT12739</name></trkpt>
<trkpt lat="51.818381" lon="03.976767"><ele>-3.5</ele><time>2023-12-06T15:22:40Z</time><name>PT12740</name></trkpt>
<trkpt lat="51.818389" lon="03.976779"><ele>-3.5</ele><time>2023-12-06T15:22:42Z</time><name>PT12741</name></trkpt>
<trkpt lat="51.818390" lon="03.976796"><ele>-3.4</ele><time>2023-12-06T15:22:42Z</time><name>PT12742</name></trkpt>
<trkpt lat="51.818391" lon="03.976812"><ele>-3.4</ele><time>2023-12-06T15:22:43Z</time><name>PT12743</name></trkpt>
<trkpt lat="51.818392" lon="03.976829"><ele>-3.3</ele><time>2023-12-06T15:22:45Z</time><name>PT12744</name></trkpt>
<trkpt lat="51.818395" lon="03.976842"><ele>-3.3</ele><time>2023-12-06T15:22:45Z</time><name>PT12745</name></trkpt>
<trkpt lat="51.818398" lon="03.976852"><ele>-3.2</ele><time>2023-12-06T15:22:46Z</time><name>PT12746</name></trkpt>
<trkpt lat="51.818401" lon="03.976861"><ele>-3.3</ele><time>2023-12-06T15:22:48Z</time><name>PT12747</name></trkpt>
<trkpt lat="51.818402" lon="03.976868"><ele>-3.1</ele><time>2023-12-06T15:22:48Z</time><name>PT12748</name></trkpt>
<trkpt lat="51.818402" lon="03.976874"><ele>-3.2</ele><time>2023-12-06T15:22:49Z</time><name>PT12749</name></trkpt>
<trkpt lat="51.818402" lon="03.976879"><ele>-3.1</ele><time>2023-12-06T15:22:51Z</time><name>PT12750</name></trkpt>
<trkpt lat="51.818403" lon="03.976884"><ele>-3.1</ele><time>2023-12-06T15:22:51Z</time><name>PT12751</name></trkpt>
<trkpt lat="51.818402" lon="03.976890"><ele>-3.4</ele><time>2023-12-06T15:22:53Z</time><name>PT12752</name></trkpt>
<trkpt lat="51.818406" lon="03.976904"><ele>-3.5</ele><time>2023-12-06T15:22:54Z</time><name>PT12753</name></trkpt>
<trkpt lat="51.818408" lon="03.976913"><ele>-3.8</ele><time>2023-12-06T15:22:55Z</time><name>PT12754</name></trkpt>
<trkpt lat="51.818410" lon="03.976928"><ele>-3.9</ele><time>2023-12-06T15:22:57Z</time><name>PT12755</name></trkpt>
<trkpt lat="51.818410" lon="03.976940"><ele>-3.9</ele><time>2023-12-06T15:22:57Z</time><name>PT12756</name></trkpt>
<trkpt lat="51.818413" lon="03.976953"><ele>-3.9</ele><time>2023-12-06T15:22:58Z</time><name>PT12757</name></trkpt>
<trkpt lat="51.818418" lon="03.976961"><ele>-3.7</ele><time>2023-12-06T15:23:00Z</time><name>PT12758</name></trkpt>
<trkpt lat="51.818424" lon="03.976962"><ele>-3.7</ele><time>2023-12-06T15:23:00Z</time><name>PT12759</name></trkpt>
<trkpt lat="51.818424" lon="03.976968"><ele>-3.7</ele><time>2023-12-06T15:23:01Z</time><name>PT12760</name></trkpt>
<trkpt lat="51.818424" lon="03.976978"><ele>-3.7</ele><time>2023-12-06T15:23:03Z</time><name>PT12761</name></trkpt>
<trkpt lat="51.818422" lon="03.976986"><ele>-3.8</ele><time>2023-12-06T15:23:03Z</time><name>PT12762</name></trkpt>
<trkpt lat="51.818421" lon="03.976993"><ele>-3.9</ele><time>2023-12-06T15:23:04Z</time><name>PT12763</name></trkpt>
<trkpt lat="51.818415" lon="03.977000"><ele>-4</ele><time>2023-12-06T15:23:06Z</time><name>PT12764</name></trkpt>
<trkpt lat="51.818396" lon="03.977014"><ele>-4</ele><time>2023-12-06T15:23:06Z</time><name>PT12765</name></trkpt>
<trkpt lat="51.818382" lon="03.977026"><ele>-3.8</ele><time>2023-12-06T15:23:07Z</time><name>PT12766</name></trkpt>
<trkpt lat="51.818374" lon="03.977036"><ele>-3.6</ele><time>2023-12-06T15:23:08Z</time><name>PT12767</name></trkpt>
<trkpt lat="51.818368" lon="03.977048"><ele>-3.5</ele><time>2023-12-06T15:23:09Z</time><name>PT12768</name></trkpt>
<trkpt lat="51.818361" lon="03.977059"><ele>-3.5</ele><time>2023-12-06T15:23:10Z</time><name>PT12769</name></trkpt>
<trkpt lat="51.818351" lon="03.977069"><ele>-3.3</ele><time>2023-12-06T15:23:11Z</time><name>PT12770</name></trkpt>
<trkpt lat="51.818344" lon="03.977074"><ele>-3.5</ele><time>2023-12-06T15:23:12Z</time><name>PT12771</name></trkpt>
<trkpt lat="51.818342" lon="03.977074"><ele>-3.4</ele><time>2023-12-06T15:23:13Z</time><name>PT12772</name></trkpt>
<trkpt lat="51.818331" lon="03.977079"><ele>-3.5</ele><time>2023-12-06T15:23:15Z</time><name>PT12773</name></trkpt>
<trkpt lat="51.818323" lon="03.977085"><ele>-3.5</ele><time>2023-12-06T15:23:15Z</time><name>PT12774</name></trkpt>
<trkpt lat="51.818314" lon="03.977093"><ele>-3.6</ele><time>2023-12-06T15:23:16Z</time><name>PT12775</name></trkpt>
<trkpt lat="51.818311" lon="03.977095"><ele>-3.5</ele><time>2023-12-06T15:23:18Z</time><name>PT12776</name></trkpt>
<trkpt lat="51.818307" lon="03.977100"><ele>-3.5</ele><time>2023-12-06T15:23:18Z</time><name>PT12777</name></trkpt>
<trkpt lat="51.818304" lon="03.977106"><ele>-3.5</ele><time>2023-12-06T15:23:19Z</time><name>PT12778</name></trkpt>
<trkpt lat="51.818305" lon="03.977110"><ele>-3.4</ele><time>2023-12-06T15:23:20Z</time><name>PT12779</name></trkpt>
<trkpt lat="51.818300" lon="03.977115"><ele>-3.4</ele><time>2023-12-06T15:23:21Z</time><name>PT12780</name></trkpt>
<trkpt lat="51.818294" lon="03.977120"><ele>-3.5</ele><time>2023-12-06T15:23:22Z</time><name>PT12781</name></trkpt>
<trkpt lat="51.818291" lon="03.977120"><ele>-3.5</ele><time>2023-12-06T15:23:24Z</time><name>PT12782</name></trkpt>
<trkpt lat="51.818284" lon="03.977122"><ele>-3.5</ele><time>2023-12-06T15:23:24Z</time><name>PT12783</name></trkpt>
<trkpt lat="51.818273" lon="03.977128"><ele>-3.5</ele><time>2023-12-06T15:23:25Z</time><name>PT12784</name></trkpt>
<trkpt lat="51.818264" lon="03.977137"><ele>-3.3</ele><time>2023-12-06T15:23:26Z</time><name>PT12785</name></trkpt>
<trkpt lat="51.818257" lon="03.977142"><ele>-3.3</ele><time>2023-12-06T15:23:27Z</time><name>PT12786</name></trkpt>
<trkpt lat="51.818250" lon="03.977149"><ele>-3.1</ele><time>2023-12-06T15:23:28Z</time><name>PT12787</name></trkpt>
<trkpt lat="51.818239" lon="03.977161"><ele>-3.1</ele><time>2023-12-06T15:23:30Z</time><name>PT12788</name></trkpt>
<trkpt lat="51.818230" lon="03.977171"><ele>-3.1</ele><time>2023-12-06T15:23:30Z</time><name>PT12789</name></trkpt>
<trkpt lat="51.818223" lon="03.977175"><ele>-3.2</ele><time>2023-12-06T15:23:31Z</time><name>PT12790</name></trkpt>
<trkpt lat="51.818219" lon="03.977178"><ele>-3.1</ele><time>2023-12-06T15:23:33Z</time><name>PT12791</name></trkpt>
<trkpt lat="51.818215" lon="03.977185"><ele>-3</ele><time>2023-12-06T15:23:33Z</time><name>PT12792</name></trkpt>
<trkpt lat="51.818212" lon="03.977190"><ele>-2.8</ele><time>2023-12-06T15:23:34Z</time><name>PT12793</name></trkpt>
<trkpt lat="51.818209" lon="03.977189"><ele>-2.6</ele><time>2023-12-06T15:23:35Z</time><name>PT12794</name></trkpt>
<trkpt lat="51.818209" lon="03.977186"><ele>-2.6</ele><time>2023-12-06T15:23:36Z</time><name>PT12795</name></trkpt>
<trkpt lat="51.818209" lon="03.977185"><ele>-2.5</ele><time>2023-12-06T15:23:37Z</time><name>PT12796</name></trkpt>
<trkpt lat="51.818209" lon="03.977186"><ele>-2.7</ele><time>2023-12-06T15:23:38Z</time><name>PT12797</name></trkpt>
<trkpt lat="51.818208" lon="03.977184"><ele>-2.5</ele><time>2023-12-06T15:23:42Z</time><name>PT12798</name></trkpt>
<trkpt lat="51.818207" lon="03.977188"><ele>-2.3</ele><time>2023-12-06T15:23:43Z</time><name>PT12799</name></trkpt>
<trkpt lat="51.818204" lon="03.977195"><ele>-2.1</ele><time>2023-12-06T15:23:44Z</time><name>PT12800</name></trkpt>
<trkpt lat="51.818199" lon="03.977200"><ele>-2</ele><time>2023-12-06T15:23:45Z</time><name>PT12801</name></trkpt>
<trkpt lat="51.818202" lon="03.977203"><ele>-2.1</ele><time>2023-12-06T15:23:46Z</time><name>PT12802</name></trkpt>
<trkpt lat="51.818204" lon="03.977204"><ele>-2.1</ele><time>2023-12-06T15:23:48Z</time><name>PT12803</name></trkpt>
<trkpt lat="51.818205" lon="03.977204"><ele>-2.1</ele><time>2023-12-06T15:23:48Z</time><name>PT12804</name></trkpt>
<trkpt lat="51.818208" lon="03.977208"><ele>-2.3</ele><time>2023-12-06T15:23:49Z</time><name>PT12805</name></trkpt>
<trkpt lat="51.818209" lon="03.977208"><ele>-2.4</ele><time>2023-12-06T15:23:51Z</time><name>PT12806</name></trkpt>
<trkpt lat="51.818210" lon="03.977213"><ele>-2.5</ele><time>2023-12-06T15:23:51Z</time><name>PT12807</name></trkpt>
<trkpt lat="51.818212" lon="03.977216"><ele>-2.5</ele><time>2023-12-06T15:23:52Z</time><name>PT12808</name></trkpt>
<trkpt lat="51.818214" lon="03.977218"><ele>-2.5</ele><time>2023-12-06T15:23:54Z</time><name>PT12809</name></trkpt>
<trkpt lat="51.818211" lon="03.977223"><ele>-2.4</ele><time>2023-12-06T15:24:04Z</time><name>PT12810</name></trkpt>
<trkpt lat="51.818211" lon="03.977224"><ele>-2.1</ele><time>2023-12-06T15:24:06Z</time><name>PT12811</name></trkpt>
<trkpt lat="51.818213" lon="03.977226"><ele>-2.2</ele><time>2023-12-06T15:24:06Z</time><name>PT12812</name></trkpt>
<trkpt lat="51.818213" lon="03.977225"><ele>-2.2</ele><time>2023-12-06T15:24:07Z</time><name>PT12813</name></trkpt>
<trkpt lat="51.818215" lon="03.977221"><ele>-2.1</ele><time>2023-12-06T15:24:09Z</time><name>PT12814</name></trkpt>
<trkpt lat="51.818216" lon="03.977217"><ele>-2.1</ele><time>2023-12-06T15:24:09Z</time><name>PT12815</name></trkpt>
<trkpt lat="51.818217" lon="03.977214"><ele>-2.2</ele><time>2023-12-06T15:24:10Z</time><name>PT12816</name></trkpt>
<trkpt lat="51.818217" lon="03.977218"><ele>-2.5</ele><time>2023-12-06T15:24:27Z</time><name>PT12817</name></trkpt>
<trkpt lat="51.818207" lon="03.977227"><ele>-2.5</ele><time>2023-12-06T15:24:28Z</time><name>PT12818</name></trkpt>
<trkpt lat="51.818204" lon="03.977241"><ele>-2.5</ele><time>2023-12-06T15:24:30Z</time><name>PT12819</name></trkpt>
<trkpt lat="51.818201" lon="03.977258"><ele>-2.5</ele><time>2023-12-06T15:24:30Z</time><name>PT12820</name></trkpt>
<trkpt lat="51.818199" lon="03.977275"><ele>-2.7</ele><time>2023-12-06T15:24:31Z</time><name>PT12821</name></trkpt>
<trkpt lat="51.818196" lon="03.977289"><ele>-2.7</ele><time>2023-12-06T15:24:33Z</time><name>PT12822</name></trkpt>
<trkpt lat="51.818195" lon="03.977303"><ele>-2.8</ele><time>2023-12-06T15:24:33Z</time><name>PT12823</name></trkpt>
<trkpt lat="51.818196" lon="03.977315"><ele>-2.7</ele><time>2023-12-06T15:24:34Z</time><name>PT12824</name></trkpt>
<trkpt lat="51.818197" lon="03.977329"><ele>-2.5</ele><time>2023-12-06T15:24:36Z</time><name>PT12825</name></trkpt>
<trkpt lat="51.818198" lon="03.977345"><ele>-2.4</ele><time>2023-12-06T15:24:36Z</time><name>PT12826</name></trkpt>
<trkpt lat="51.818200" lon="03.977360"><ele>-2.2</ele><time>2023-12-06T15:24:37Z</time><name>PT12827</name></trkpt>
<trkpt lat="51.818199" lon="03.977377"><ele>-2.1</ele><time>2023-12-06T15:24:39Z</time><name>PT12828</name></trkpt>
<trkpt lat="51.818197" lon="03.977396"><ele>-2.1</ele><time>2023-12-06T15:24:39Z</time><name>PT12829</name></trkpt>
<trkpt lat="51.818198" lon="03.977409"><ele>-2.1</ele><time>2023-12-06T15:24:40Z</time><name>PT12830</name></trkpt>
<trkpt lat="51.818195" lon="03.977420"><ele>-2.1</ele><time>2023-12-06T15:24:42Z</time><name>PT12831</name></trkpt>
<trkpt lat="51.818193" lon="03.977430"><ele>-2.1</ele><time>2023-12-06T15:24:42Z</time><name>PT12832</name></trkpt>
<trkpt lat="51.818192" lon="03.977438"><ele>-2.1</ele><time>2023-12-06T15:24:43Z</time><name>PT12833</name></trkpt>
<trkpt lat="51.818190" lon="03.977447"><ele>-2.1</ele><time>2023-12-06T15:24:45Z</time><name>PT12834</name></trkpt>
<trkpt lat="51.818188" lon="03.977456"><ele>-2.1</ele><time>2023-12-06T15:24:45Z</time><name>PT12835</name></trkpt>
<trkpt lat="51.818188" lon="03.977465"><ele>-2.1</ele><time>2023-12-06T15:24:46Z</time><name>PT12836</name></trkpt>
<trkpt lat="51.818184" lon="03.977473"><ele>-2.1</ele><time>2023-12-06T15:24:48Z</time><name>PT12837</name></trkpt>
<trkpt lat="51.818182" lon="03.977480"><ele>-2.1</ele><time>2023-12-06T15:24:48Z</time><name>PT12838</name></trkpt>
<trkpt lat="51.818180" lon="03.977486"><ele>-2.1</ele><time>2023-12-06T15:24:49Z</time><name>PT12839</name></trkpt>
<trkpt lat="51.818181" lon="03.977491"><ele>-2.2</ele><time>2023-12-06T15:24:50Z</time><name>PT12840</name></trkpt>
<trkpt lat="51.818184" lon="03.977495"><ele>-2.3</ele><time>2023-12-06T15:24:51Z</time><name>PT12841</name></trkpt>
<trkpt lat="51.818184" lon="03.977502"><ele>-2.2</ele><time>2023-12-06T15:24:52Z</time><name>PT12842</name></trkpt>
<trkpt lat="51.818184" lon="03.977504"><ele>-2.2</ele><time>2023-12-06T15:24:54Z</time><name>PT12843</name></trkpt>
<trkpt lat="51.818183" lon="03.977504"><ele>-2.3</ele><time>2023-12-06T15:24:54Z</time><name>PT12844</name></trkpt>
<trkpt lat="51.818182" lon="03.977506"><ele>-2.2</ele><time>2023-12-06T15:24:55Z</time><name>PT12845</name></trkpt>
<trkpt lat="51.818179" lon="03.977501"><ele>-2.5</ele><time>2023-12-06T15:25:07Z</time><name>PT12846</name></trkpt>
<trkpt lat="51.818171" lon="03.977501"><ele>-2.5</ele><time>2023-12-06T15:25:09Z</time><name>PT12847</name></trkpt>
<trkpt lat="51.818167" lon="03.977495"><ele>-2.5</ele><time>2023-12-06T15:25:09Z</time><name>PT12848</name></trkpt>
<trkpt lat="51.818164" lon="03.977500"><ele>-2.4</ele><time>2023-12-06T15:25:10Z</time><name>PT12849</name></trkpt>
<trkpt lat="51.818160" lon="03.977507"><ele>-2.4</ele><time>2023-12-06T15:25:12Z</time><name>PT12850</name></trkpt>
<trkpt lat="51.818155" lon="03.977511"><ele>-2.4</ele><time>2023-12-06T15:25:12Z</time><name>PT12851</name></trkpt>
<trkpt lat="51.818153" lon="03.977508"><ele>-2.2</ele><time>2023-12-06T15:25:13Z</time><name>PT12852</name></trkpt>
<trkpt lat="51.818152" lon="03.977511"><ele>-2.1</ele><time>2023-12-06T15:25:14Z</time><name>PT12853</name></trkpt>
<trkpt lat="51.818153" lon="03.977512"><ele>-2.1</ele><time>2023-12-06T15:25:15Z</time><name>PT12854</name></trkpt>
<trkpt lat="51.818152" lon="03.977511"><ele>-2.1</ele><time>2023-12-06T15:25:16Z</time><name>PT12855</name></trkpt>
<trkpt lat="51.818154" lon="03.977510"><ele>-2.2</ele><time>2023-12-06T15:25:18Z</time><name>PT12856</name></trkpt>
<trkpt lat="51.818153" lon="03.977509"><ele>-2.2</ele><time>2023-12-06T15:25:18Z</time><name>PT12857</name></trkpt>
<trkpt lat="51.818151" lon="03.977504"><ele>-2.2</ele><time>2023-12-06T15:25:40Z</time><name>PT12858</name></trkpt>
<trkpt lat="51.818150" lon="03.977510"><ele>-2.2</ele><time>2023-12-06T15:25:41Z</time><name>PT12859</name></trkpt>
<trkpt lat="51.818154" lon="03.977516"><ele>-2.1</ele><time>2023-12-06T15:25:48Z</time><name>PT12860</name></trkpt>
<trkpt lat="51.818151" lon="03.977530"><ele>-2.1</ele><time>2023-12-06T15:25:48Z</time><name>PT12861</name></trkpt>
<trkpt lat="51.818149" lon="03.977547"><ele>-2.1</ele><time>2023-12-06T15:25:49Z</time><name>PT12862</name></trkpt>
<trkpt lat="51.818146" lon="03.977565"><ele>-2.3</ele><time>2023-12-06T15:25:51Z</time><name>PT12863</name></trkpt>
<trkpt lat="51.818144" lon="03.977582"><ele>-2.4</ele><time>2023-12-06T15:25:51Z</time><name>PT12864</name></trkpt>
<trkpt lat="51.818140" lon="03.977602"><ele>-2.4</ele><time>2023-12-06T15:25:52Z</time><name>PT12865</name></trkpt>
<trkpt lat="51.818136" lon="03.977622"><ele>-2.5</ele><time>2023-12-06T15:25:54Z</time><name>PT12866</name></trkpt>
<trkpt lat="51.818136" lon="03.977637"><ele>-2.5</ele><time>2023-12-06T15:25:54Z</time><name>PT12867</name></trkpt>
<trkpt lat="51.818134" lon="03.977652"><ele>-2.4</ele><time>2023-12-06T15:25:55Z</time><name>PT12868</name></trkpt>
<trkpt lat="51.818132" lon="03.977666"><ele>-2.6</ele><time>2023-12-06T15:25:57Z</time><name>PT12869</name></trkpt>
<trkpt lat="51.818130" lon="03.977683"><ele>-2.5</ele><time>2023-12-06T15:25:57Z</time><name>PT12870</name></trkpt>
<trkpt lat="51.818126" lon="03.977701"><ele>-2.5</ele><time>2023-12-06T15:25:58Z</time><name>PT12871</name></trkpt>
<trkpt lat="51.818125" lon="03.977718"><ele>-2.5</ele><time>2023-12-06T15:26:00Z</time><name>PT12872</name></trkpt>
<trkpt lat="51.818125" lon="03.977733"><ele>-2.7</ele><time>2023-12-06T15:26:00Z</time><name>PT12873</name></trkpt>
<trkpt lat="51.818124" lon="03.977748"><ele>-2.6</ele><time>2023-12-06T15:26:01Z</time><name>PT12874</name></trkpt>
<trkpt lat="51.818124" lon="03.977762"><ele>-2.7</ele><time>2023-12-06T15:26:03Z</time><name>PT12875</name></trkpt>
<trkpt lat="51.818122" lon="03.977775"><ele>-2.7</ele><time>2023-12-06T15:26:03Z</time><name>PT12876</name></trkpt>
<trkpt lat="51.818121" lon="03.977785"><ele>-2.5</ele><time>2023-12-06T15:26:05Z</time><name>PT12877</name></trkpt>
<trkpt lat="51.818118" lon="03.977795"><ele>-2.6</ele><time>2023-12-06T15:26:06Z</time><name>PT12878</name></trkpt>
<trkpt lat="51.818114" lon="03.977803"><ele>-2.7</ele><time>2023-12-06T15:26:06Z</time><name>PT12879</name></trkpt>
<trkpt lat="51.818109" lon="03.977812"><ele>-2.8</ele><time>2023-12-06T15:26:07Z</time><name>PT12880</name></trkpt>
<trkpt lat="51.818105" lon="03.977821"><ele>-3</ele><time>2023-12-06T15:26:09Z</time><name>PT12881</name></trkpt>
<trkpt lat="51.818103" lon="03.977830"><ele>-3.1</ele><time>2023-12-06T15:26:09Z</time><name>PT12882</name></trkpt>
<trkpt lat="51.818101" lon="03.977840"><ele>-3</ele><time>2023-12-06T15:26:10Z</time><name>PT12883</name></trkpt>
<trkpt lat="51.818099" lon="03.977850"><ele>-2.9</ele><time>2023-12-06T15:26:12Z</time><name>PT12884</name></trkpt>
<trkpt lat="51.818099" lon="03.977863"><ele>-2.8</ele><time>2023-12-06T15:26:12Z</time><name>PT12885</name></trkpt>
<trkpt lat="51.818099" lon="03.977875"><ele>-2.9</ele><time>2023-12-06T15:26:13Z</time><name>PT12886</name></trkpt>
<trkpt lat="51.818098" lon="03.977886"><ele>-3</ele><time>2023-12-06T15:26:15Z</time><name>PT12887</name></trkpt>
<trkpt lat="51.818097" lon="03.977900"><ele>-3.1</ele><time>2023-12-06T15:26:15Z</time><name>PT12888</name></trkpt>
<trkpt lat="51.818094" lon="03.977916"><ele>-3.2</ele><time>2023-12-06T15:26:16Z</time><name>PT12889</name></trkpt>
<trkpt lat="51.818092" lon="03.977922"><ele>-3.5</ele><time>2023-12-06T15:26:18Z</time><name>PT12890</name></trkpt>
<trkpt lat="51.818089" lon="03.977932"><ele>-3.5</ele><time>2023-12-06T15:26:18Z</time><name>PT12891</name></trkpt>
<trkpt lat="51.818087" lon="03.977945"><ele>-3.5</ele><time>2023-12-06T15:26:19Z</time><name>PT12892</name></trkpt>
<trkpt lat="51.818083" lon="03.977960"><ele>-3.6</ele><time>2023-12-06T15:26:21Z</time><name>PT12893</name></trkpt>
<trkpt lat="51.818079" lon="03.977977"><ele>-3.5</ele><time>2023-12-06T15:26:21Z</time><name>PT12894</name></trkpt>
<trkpt lat="51.818076" lon="03.977991"><ele>-3.5</ele><time>2023-12-06T15:26:22Z</time><name>PT12895</name></trkpt>
<trkpt lat="51.818074" lon="03.978005"><ele>-3.4</ele><time>2023-12-06T15:26:24Z</time><name>PT12896</name></trkpt>
<trkpt lat="51.818074" lon="03.978019"><ele>-3.4</ele><time>2023-12-06T15:26:24Z</time><name>PT12897</name></trkpt>
<trkpt lat="51.818073" lon="03.978033"><ele>-3.4</ele><time>2023-12-06T15:26:25Z</time><name>PT12898</name></trkpt>
<trkpt lat="51.818073" lon="03.978049"><ele>-3.5</ele><time>2023-12-06T15:26:27Z</time><name>PT12899</name></trkpt>
<trkpt lat="51.818071" lon="03.978063"><ele>-3.5</ele><time>2023-12-06T15:26:27Z</time><name>PT12900</name></trkpt>
<trkpt lat="51.818070" lon="03.978076"><ele>-3.5</ele><time>2023-12-06T15:26:28Z</time><name>PT12901</name></trkpt>
<trkpt lat="51.818071" lon="03.978090"><ele>-3.5</ele><time>2023-12-06T15:26:29Z</time><name>PT12902</name></trkpt>
<trkpt lat="51.818070" lon="03.978105"><ele>-3.5</ele><time>2023-12-06T15:26:30Z</time><name>PT12903</name></trkpt>
<trkpt lat="51.818069" lon="03.978121"><ele>-3.5</ele><time>2023-12-06T15:26:31Z</time><name>PT12904</name></trkpt>
<trkpt lat="51.818068" lon="03.978137"><ele>-3.4</ele><time>2023-12-06T15:26:33Z</time><name>PT12905</name></trkpt>
<trkpt lat="51.818068" lon="03.978150"><ele>-3.4</ele><time>2023-12-06T15:26:33Z</time><name>PT12906</name></trkpt>
<trkpt lat="51.818068" lon="03.978164"><ele>-3.4</ele><time>2023-12-06T15:26:34Z</time><name>PT12907</name></trkpt>
<trkpt lat="51.818068" lon="03.978178"><ele>-3.4</ele><time>2023-12-06T15:26:36Z</time><name>PT12908</name></trkpt>
<trkpt lat="51.818068" lon="03.978190"><ele>-3.3</ele><time>2023-12-06T15:26:36Z</time><name>PT12909</name></trkpt>
<trkpt lat="51.818068" lon="03.978206"><ele>-3.4</ele><time>2023-12-06T15:26:37Z</time><name>PT12910</name></trkpt>
<trkpt lat="51.818068" lon="03.978220"><ele>-3.4</ele><time>2023-12-06T15:26:39Z</time><name>PT12911</name></trkpt>
<trkpt lat="51.818068" lon="03.978232"><ele>-3.5</ele><time>2023-12-06T15:26:39Z</time><name>PT12912</name></trkpt>
<trkpt lat="51.818069" lon="03.978245"><ele>-3.5</ele><time>2023-12-06T15:26:40Z</time><name>PT12913</name></trkpt>
<trkpt lat="51.818071" lon="03.978259"><ele>-3.7</ele><time>2023-12-06T15:26:42Z</time><name>PT12914</name></trkpt>
<trkpt lat="51.818071" lon="03.978274"><ele>-3.7</ele><time>2023-12-06T15:26:42Z</time><name>PT12915</name></trkpt>
<trkpt lat="51.818071" lon="03.978288"><ele>-3.6</ele><time>2023-12-06T15:26:43Z</time><name>PT12916</name></trkpt>
<trkpt lat="51.818070" lon="03.978298"><ele>-3.5</ele><time>2023-12-06T15:26:45Z</time><name>PT12917</name></trkpt>
<trkpt lat="51.818069" lon="03.978311"><ele>-3.4</ele><time>2023-12-06T15:26:45Z</time><name>PT12918</name></trkpt>
<trkpt lat="51.818069" lon="03.978327"><ele>-3.3</ele><time>2023-12-06T15:26:46Z</time><name>PT12919</name></trkpt>
<trkpt lat="51.818068" lon="03.978344"><ele>-3.5</ele><time>2023-12-06T15:26:48Z</time><name>PT12920</name></trkpt>
<trkpt lat="51.818068" lon="03.978358"><ele>-3.5</ele><time>2023-12-06T15:26:48Z</time><name>PT12921</name></trkpt>
<trkpt lat="51.818066" lon="03.978373"><ele>-3.5</ele><time>2023-12-06T15:26:49Z</time><name>PT12922</name></trkpt>
<trkpt lat="51.818062" lon="03.978388"><ele>-3.5</ele><time>2023-12-06T15:26:51Z</time><name>PT12923</name></trkpt>
<trkpt lat="51.818058" lon="03.978404"><ele>-3.5</ele><time>2023-12-06T15:26:51Z</time><name>PT12924</name></trkpt>
<trkpt lat="51.818056" lon="03.978420"><ele>-3.5</ele><time>2023-12-06T15:26:52Z</time><name>PT12925</name></trkpt>
<trkpt lat="51.818054" lon="03.978436"><ele>-3.6</ele><time>2023-12-06T15:26:53Z</time><name>PT12926</name></trkpt>
<trkpt lat="51.818053" lon="03.978453"><ele>-3.6</ele><time>2023-12-06T15:26:54Z</time><name>PT12927</name></trkpt>
<trkpt lat="51.818051" lon="03.978470"><ele>-3.8</ele><time>2023-12-06T15:26:55Z</time><name>PT12928</name></trkpt>
<trkpt lat="51.818050" lon="03.978483"><ele>-3.7</ele><time>2023-12-06T15:26:56Z</time><name>PT12929</name></trkpt>
<trkpt lat="51.818049" lon="03.978495"><ele>-3.6</ele><time>2023-12-06T15:26:57Z</time><name>PT12930</name></trkpt>
<trkpt lat="51.818047" lon="03.978504"><ele>-3.5</ele><time>2023-12-06T15:26:58Z</time><name>PT12931</name></trkpt>
<trkpt lat="51.818046" lon="03.978517"><ele>-3.4</ele><time>2023-12-06T15:27:00Z</time><name>PT12932</name></trkpt>
<trkpt lat="51.818045" lon="03.978527"><ele>-3.3</ele><time>2023-12-06T15:27:00Z</time><name>PT12933</name></trkpt>
<trkpt lat="51.818042" lon="03.978540"><ele>-3.1</ele><time>2023-12-06T15:27:01Z</time><name>PT12934</name></trkpt>
<trkpt lat="51.818041" lon="03.978551"><ele>-3</ele><time>2023-12-06T15:27:03Z</time><name>PT12935</name></trkpt>
<trkpt lat="51.818038" lon="03.978560"><ele>-3</ele><time>2023-12-06T15:27:03Z</time><name>PT12936</name></trkpt>
<trkpt lat="51.818037" lon="03.978567"><ele>-3</ele><time>2023-12-06T15:27:04Z</time><name>PT12937</name></trkpt>
<trkpt lat="51.818036" lon="03.978576"><ele>-3</ele><time>2023-12-06T15:27:10Z</time><name>PT12938</name></trkpt>
<trkpt lat="51.818035" lon="03.978591"><ele>-2.9</ele><time>2023-12-06T15:27:12Z</time><name>PT12939</name></trkpt>
<trkpt lat="51.818032" lon="03.978606"><ele>-2.8</ele><time>2023-12-06T15:27:12Z</time><name>PT12940</name></trkpt>
<trkpt lat="51.818029" lon="03.978623"><ele>-3</ele><time>2023-12-06T15:27:13Z</time><name>PT12941</name></trkpt>
<trkpt lat="51.818026" lon="03.978635"><ele>-2.9</ele><time>2023-12-06T15:27:15Z</time><name>PT12942</name></trkpt>
<trkpt lat="51.818020" lon="03.978646"><ele>-2.7</ele><time>2023-12-06T15:27:15Z</time><name>PT12943</name></trkpt>
<trkpt lat="51.818017" lon="03.978657"><ele>-2.9</ele><time>2023-12-06T15:27:16Z</time><name>PT12944</name></trkpt>
<trkpt lat="51.818014" lon="03.978668"><ele>-3</ele><time>2023-12-06T15:27:18Z</time><name>PT12945</name></trkpt>
<trkpt lat="51.818011" lon="03.978677"><ele>-3</ele><time>2023-12-06T15:27:18Z</time><name>PT12946</name></trkpt>
<trkpt lat="51.818007" lon="03.978685"><ele>-3.1</ele><time>2023-12-06T15:27:19Z</time><name>PT12947</name></trkpt>
<trkpt lat="51.818003" lon="03.978689"><ele>-3.1</ele><time>2023-12-06T15:27:20Z</time><name>PT12948</name></trkpt>
<trkpt lat="51.818000" lon="03.978696"><ele>-3.3</ele><time>2023-12-06T15:27:21Z</time><name>PT12949</name></trkpt>
<trkpt lat="51.817997" lon="03.978702"><ele>-3.2</ele><time>2023-12-06T15:27:22Z</time><name>PT12950</name></trkpt>
<trkpt lat="51.817993" lon="03.978715"><ele>-3.1</ele><time>2023-12-06T15:27:24Z</time><name>PT12951</name></trkpt>
<trkpt lat="51.817987" lon="03.978728"><ele>-3.2</ele><time>2023-12-06T15:27:24Z</time><name>PT12952</name></trkpt>
<trkpt lat="51.817981" lon="03.978739"><ele>-3.4</ele><time>2023-12-06T15:27:25Z</time><name>PT12953</name></trkpt>
<trkpt lat="51.817977" lon="03.978751"><ele>-3.4</ele><time>2023-12-06T15:27:27Z</time><name>PT12954</name></trkpt>
<trkpt lat="51.817971" lon="03.978769"><ele>-3.5</ele><time>2023-12-06T15:27:27Z</time><name>PT12955</name></trkpt>
<trkpt lat="51.817965" lon="03.978782"><ele>-3.6</ele><time>2023-12-06T15:27:28Z</time><name>PT12956</name></trkpt>
<trkpt lat="51.817961" lon="03.978797"><ele>-3.8</ele><time>2023-12-06T15:27:29Z</time><name>PT12957</name></trkpt>
<trkpt lat="51.817958" lon="03.978806"><ele>-3.7</ele><time>2023-12-06T15:27:30Z</time><name>PT12958</name></trkpt>
<trkpt lat="51.817952" lon="03.978824"><ele>-3.8</ele><time>2023-12-06T15:27:31Z</time><name>PT12959</name></trkpt>
<trkpt lat="51.817947" lon="03.978843"><ele>-3.7</ele><time>2023-12-06T15:27:32Z</time><name>PT12960</name></trkpt>
<trkpt lat="51.817941" lon="03.978856"><ele>-3.5</ele><time>2023-12-06T15:27:33Z</time><name>PT12961</name></trkpt>
<trkpt lat="51.817940" lon="03.978869"><ele>-3.4</ele><time>2023-12-06T15:27:34Z</time><name>PT12962</name></trkpt>
<trkpt lat="51.817939" lon="03.978881"><ele>-3.2</ele><time>2023-12-06T15:27:36Z</time><name>PT12963</name></trkpt>
<trkpt lat="51.817936" lon="03.978899"><ele>-3.2</ele><time>2023-12-06T15:27:36Z</time><name>PT12964</name></trkpt>
<trkpt lat="51.817932" lon="03.978917"><ele>-3.1</ele><time>2023-12-06T15:27:37Z</time><name>PT12965</name></trkpt>
<trkpt lat="51.817929" lon="03.978929"><ele>-3.3</ele><time>2023-12-06T15:27:38Z</time><name>PT12966</name></trkpt>
<trkpt lat="51.817927" lon="03.978939"><ele>-3.3</ele><time>2023-12-06T15:27:39Z</time><name>PT12967</name></trkpt>
<trkpt lat="51.817924" lon="03.978954"><ele>-3.4</ele><time>2023-12-06T15:27:40Z</time><name>PT12968</name></trkpt>
<trkpt lat="51.817919" lon="03.978971"><ele>-3.5</ele><time>2023-12-06T15:27:42Z</time><name>PT12969</name></trkpt>
<trkpt lat="51.817915" lon="03.978985"><ele>-3.5</ele><time>2023-12-06T15:27:42Z</time><name>PT12970</name></trkpt>
<trkpt lat="51.817912" lon="03.978999"><ele>-3.5</ele><time>2023-12-06T15:27:43Z</time><name>PT12971</name></trkpt>
<trkpt lat="51.817910" lon="03.979010"><ele>-3.8</ele><time>2023-12-06T15:27:45Z</time><name>PT12972</name></trkpt>
<trkpt lat="51.817906" lon="03.979030"><ele>-3.7</ele><time>2023-12-06T15:27:45Z</time><name>PT12973</name></trkpt>
<trkpt lat="51.817903" lon="03.979051"><ele>-3.7</ele><time>2023-12-06T15:27:46Z</time><name>PT12974</name></trkpt>
<trkpt lat="51.817900" lon="03.979067"><ele>-3.7</ele><time>2023-12-06T15:27:48Z</time><name>PT12975</name></trkpt>
<trkpt lat="51.817897" lon="03.979079"><ele>-3.6</ele><time>2023-12-06T15:27:48Z</time><name>PT12976</name></trkpt>
<trkpt lat="51.817895" lon="03.979091"><ele>-3.5</ele><time>2023-12-06T15:27:49Z</time><name>PT12977</name></trkpt>
<trkpt lat="51.817892" lon="03.979109"><ele>-3.4</ele><time>2023-12-06T15:27:51Z</time><name>PT12978</name></trkpt>
<trkpt lat="51.817889" lon="03.979126"><ele>-3.4</ele><time>2023-12-06T15:27:51Z</time><name>PT12979</name></trkpt>
<trkpt lat="51.817884" lon="03.979138"><ele>-3.3</ele><time>2023-12-06T15:27:52Z</time><name>PT12980</name></trkpt>
<trkpt lat="51.817882" lon="03.979150"><ele>-3.3</ele><time>2023-12-06T15:27:54Z</time><name>PT12981</name></trkpt>
<trkpt lat="51.817882" lon="03.979161"><ele>-3.3</ele><time>2023-12-06T15:27:54Z</time><name>PT12982</name></trkpt>
<trkpt lat="51.817880" lon="03.979178"><ele>-3.4</ele><time>2023-12-06T15:27:55Z</time><name>PT12983</name></trkpt>
<trkpt lat="51.817875" lon="03.979195"><ele>-3.4</ele><time>2023-12-06T15:27:57Z</time><name>PT12984</name></trkpt>
<trkpt lat="51.817867" lon="03.979209"><ele>-3.5</ele><time>2023-12-06T15:27:57Z</time><name>PT12985</name></trkpt>
<trkpt lat="51.817863" lon="03.979218"><ele>-3.5</ele><time>2023-12-06T15:27:58Z</time><name>PT12986</name></trkpt>
<trkpt lat="51.817860" lon="03.979229"><ele>-3.4</ele><time>2023-12-06T15:28:00Z</time><name>PT12987</name></trkpt>
<trkpt lat="51.817858" lon="03.979241"><ele>-3.5</ele><time>2023-12-06T15:28:00Z</time><name>PT12988</name></trkpt>
<trkpt lat="51.817853" lon="03.979261"><ele>-3.5</ele><time>2023-12-06T15:28:01Z</time><name>PT12989</name></trkpt>
<trkpt lat="51.817847" lon="03.979281"><ele>-3.3</ele><time>2023-12-06T15:28:03Z</time><name>PT12990</name></trkpt>
<trkpt lat="51.817843" lon="03.979293"><ele>-3.2</ele><time>2023-12-06T15:28:03Z</time><name>PT12991</name></trkpt>
<trkpt lat="51.817840" lon="03.979302"><ele>-3.3</ele><time>2023-12-06T15:28:04Z</time><name>PT12992</name></trkpt>
<trkpt lat="51.817837" lon="03.979312"><ele>-3.2</ele><time>2023-12-06T15:28:06Z</time><name>PT12993</name></trkpt>
<trkpt lat="51.817836" lon="03.979327"><ele>-3.2</ele><time>2023-12-06T15:28:06Z</time><name>PT12994</name></trkpt>
<trkpt lat="51.817827" lon="03.979340"><ele>-3.5</ele><time>2023-12-06T15:28:07Z</time><name>PT12995</name></trkpt>
<trkpt lat="51.817823" lon="03.979356"><ele>-3.5</ele><time>2023-12-06T15:28:09Z</time><name>PT12996</name></trkpt>
<trkpt lat="51.817819" lon="03.979371"><ele>-3.3</ele><time>2023-12-06T15:28:09Z</time><name>PT12997</name></trkpt>
<trkpt lat="51.817818" lon="03.979381"><ele>-3.2</ele><time>2023-12-06T15:28:10Z</time><name>PT12998</name></trkpt>
<trkpt lat="51.817817" lon="03.979396"><ele>-3.1</ele><time>2023-12-06T15:28:12Z</time><name>PT12999</name></trkpt>
<trkpt lat="51.817813" lon="03.979414"><ele>-3</ele><time>2023-12-06T15:28:12Z</time><name>PT13000</name></trkpt>
<trkpt lat="51.817808" lon="03.979433"><ele>-3.1</ele><time>2023-12-06T15:28:13Z</time><name>PT13001</name></trkpt>
<trkpt lat="51.817806" lon="03.979453"><ele>-3.1</ele><time>2023-12-06T15:28:15Z</time><name>PT13002</name></trkpt>
<trkpt lat="51.817799" lon="03.979468"><ele>-3.1</ele><time>2023-12-06T15:28:15Z</time><name>PT13003</name></trkpt>
<trkpt lat="51.817794" lon="03.979483"><ele>-3.3</ele><time>2023-12-06T15:28:16Z</time><name>PT13004</name></trkpt>
<trkpt lat="51.817792" lon="03.979498"><ele>-3.2</ele><time>2023-12-06T15:28:18Z</time><name>PT13005</name></trkpt>
<trkpt lat="51.817787" lon="03.979516"><ele>-3.2</ele><time>2023-12-06T15:28:18Z</time><name>PT13006</name></trkpt>
<trkpt lat="51.817784" lon="03.979534"><ele>-3.3</ele><time>2023-12-06T15:28:19Z</time><name>PT13007</name></trkpt>
<trkpt lat="51.817779" lon="03.979548"><ele>-3.2</ele><time>2023-12-06T15:28:21Z</time><name>PT13008</name></trkpt>
<trkpt lat="51.817779" lon="03.979560"><ele>-3.1</ele><time>2023-12-06T15:28:21Z</time><name>PT13009</name></trkpt>
<trkpt lat="51.817780" lon="03.979574"><ele>-3.1</ele><time>2023-12-06T15:28:22Z</time><name>PT13010</name></trkpt>
<trkpt lat="51.817779" lon="03.979595"><ele>-3.2</ele><time>2023-12-06T15:28:24Z</time><name>PT13011</name></trkpt>
<trkpt lat="51.817776" lon="03.979615"><ele>-3</ele><time>2023-12-06T15:28:24Z</time><name>PT13012</name></trkpt>
<trkpt lat="51.817773" lon="03.979629"><ele>-3</ele><time>2023-12-06T15:28:25Z</time><name>PT13013</name></trkpt>
<trkpt lat="51.817771" lon="03.979643"><ele>-3</ele><time>2023-12-06T15:28:27Z</time><name>PT13014</name></trkpt>
<trkpt lat="51.817767" lon="03.979654"><ele>-3.1</ele><time>2023-12-06T15:28:27Z</time><name>PT13015</name></trkpt>
<trkpt lat="51.817769" lon="03.979658"><ele>-3</ele><time>2023-12-06T15:28:28Z</time><name>PT13016</name></trkpt>
<trkpt lat="51.817769" lon="03.979660"><ele>-3</ele><time>2023-12-06T15:28:30Z</time><name>PT13017</name></trkpt>
<trkpt lat="51.817767" lon="03.979667"><ele>-3</ele><time>2023-12-06T15:28:30Z</time><name>PT13018</name></trkpt>
<trkpt lat="51.817764" lon="03.979676"><ele>-2.9</ele><time>2023-12-06T15:28:31Z</time><name>PT13019</name></trkpt>
<trkpt lat="51.817763" lon="03.979683"><ele>-3</ele><time>2023-12-06T15:28:33Z</time><name>PT13020</name></trkpt>
<trkpt lat="51.817763" lon="03.979690"><ele>-3</ele><time>2023-12-06T15:28:34Z</time><name>PT13021</name></trkpt>
<trkpt lat="51.817758" lon="03.979709"><ele>-3</ele><time>2023-12-06T15:28:36Z</time><name>PT13022</name></trkpt>
<trkpt lat="51.817756" lon="03.979729"><ele>-3</ele><time>2023-12-06T15:28:36Z</time><name>PT13023</name></trkpt>
<trkpt lat="51.817756" lon="03.979748"><ele>-3</ele><time>2023-12-06T15:28:37Z</time><name>PT13024</name></trkpt>
<trkpt lat="51.817753" lon="03.979766"><ele>-3</ele><time>2023-12-06T15:28:39Z</time><name>PT13025</name></trkpt>
<trkpt lat="51.817749" lon="03.979786"><ele>-3</ele><time>2023-12-06T15:28:39Z</time><name>PT13026</name></trkpt>
<trkpt lat="51.817748" lon="03.979800"><ele>-3.3</ele><time>2023-12-06T15:28:40Z</time><name>PT13027</name></trkpt>
<trkpt lat="51.817744" lon="03.979813"><ele>-3.4</ele><time>2023-12-06T15:28:42Z</time><name>PT13028</name></trkpt>
<trkpt lat="51.817742" lon="03.979823"><ele>-3.4</ele><time>2023-12-06T15:28:42Z</time><name>PT13029</name></trkpt>
<trkpt lat="51.817741" lon="03.979833"><ele>-3.5</ele><time>2023-12-06T15:28:43Z</time><name>PT13030</name></trkpt>
<trkpt lat="51.817741" lon="03.979848"><ele>-3.2</ele><time>2023-12-06T15:28:45Z</time><name>PT13031</name></trkpt>
<trkpt lat="51.817739" lon="03.979866"><ele>-3</ele><time>2023-12-06T15:28:45Z</time><name>PT13032</name></trkpt>
<trkpt lat="51.817734" lon="03.979888"><ele>-3</ele><time>2023-12-06T15:28:46Z</time><name>PT13033</name></trkpt>
<trkpt lat="51.817734" lon="03.979906"><ele>-3</ele><time>2023-12-06T15:28:48Z</time><name>PT13034</name></trkpt>
<trkpt lat="51.817734" lon="03.979916"><ele>-3</ele><time>2023-12-06T15:28:48Z</time><name>PT13035</name></trkpt>
<trkpt lat="51.817736" lon="03.979927"><ele>-3</ele><time>2023-12-06T15:28:49Z</time><name>PT13036</name></trkpt>
<trkpt lat="51.817736" lon="03.979942"><ele>-3</ele><time>2023-12-06T15:28:51Z</time><name>PT13037</name></trkpt>
<trkpt lat="51.817740" lon="03.979962"><ele>-3</ele><time>2023-12-06T15:28:51Z</time><name>PT13038</name></trkpt>
<trkpt lat="51.817746" lon="03.979991"><ele>-2.9</ele><time>2023-12-06T15:28:52Z</time><name>PT13039</name></trkpt>
<trkpt lat="51.817751" lon="03.980011"><ele>-2.7</ele><time>2023-12-06T15:28:54Z</time><name>PT13040</name></trkpt>
<trkpt lat="51.817755" lon="03.980022"><ele>-2.7</ele><time>2023-12-06T15:28:54Z</time><name>PT13041</name></trkpt>
<trkpt lat="51.817757" lon="03.980033"><ele>-2.8</ele><time>2023-12-06T15:28:55Z</time><name>PT13042</name></trkpt>
<trkpt lat="51.817764" lon="03.980033"><ele>-2.6</ele><time>2023-12-06T15:28:57Z</time><name>PT13043</name></trkpt>
<trkpt lat="51.817764" lon="03.980035"><ele>-2.5</ele><time>2023-12-06T15:28:57Z</time><name>PT13044</name></trkpt>
<trkpt lat="51.817768" lon="03.980049"><ele>-2.3</ele><time>2023-12-06T15:28:58Z</time><name>PT13045</name></trkpt>
<trkpt lat="51.817770" lon="03.980062"><ele>-2.1</ele><time>2023-12-06T15:29:00Z</time><name>PT13046</name></trkpt>
<trkpt lat="51.817767" lon="03.980071"><ele>-2.1</ele><time>2023-12-06T15:29:00Z</time><name>PT13047</name></trkpt>
<trkpt lat="51.817764" lon="03.980081"><ele>-2</ele><time>2023-12-06T15:29:01Z</time><name>PT13048</name></trkpt>
<trkpt lat="51.817761" lon="03.980095"><ele>-2.1</ele><time>2023-12-06T15:29:03Z</time><name>PT13049</name></trkpt>
<trkpt lat="51.817758" lon="03.980104"><ele>-2.2</ele><time>2023-12-06T15:29:03Z</time><name>PT13050</name></trkpt>
<trkpt lat="51.817757" lon="03.980108"><ele>-2.1</ele><time>2023-12-06T15:29:04Z</time><name>PT13051</name></trkpt>
<trkpt lat="51.817753" lon="03.980124"><ele>-1.9</ele><time>2023-12-06T15:29:05Z</time><name>PT13052</name></trkpt>
<trkpt lat="51.817750" lon="03.980146"><ele>-1.9</ele><time>2023-12-06T15:29:06Z</time><name>PT13053</name></trkpt>
<trkpt lat="51.817745" lon="03.980160"><ele>-1.8</ele><time>2023-12-06T15:29:07Z</time><name>PT13054</name></trkpt>
<trkpt lat="51.817744" lon="03.980174"><ele>-1.7</ele><time>2023-12-06T15:29:09Z</time><name>PT13055</name></trkpt>
<trkpt lat="51.817744" lon="03.980187"><ele>-1.6</ele><time>2023-12-06T15:29:09Z</time><name>PT13056</name></trkpt>
<trkpt lat="51.817742" lon="03.980201"><ele>-1.6</ele><time>2023-12-06T15:29:10Z</time><name>PT13057</name></trkpt>
<trkpt lat="51.817739" lon="03.980220"><ele>-1.7</ele><time>2023-12-06T15:29:12Z</time><name>PT13058</name></trkpt>
<trkpt lat="51.817735" lon="03.980236"><ele>-1.8</ele><time>2023-12-06T15:29:12Z</time><name>PT13059</name></trkpt>
<trkpt lat="51.817731" lon="03.980253"><ele>-1.9</ele><time>2023-12-06T15:29:13Z</time><name>PT13060</name></trkpt>
<trkpt lat="51.817730" lon="03.980269"><ele>-2.1</ele><time>2023-12-06T15:29:15Z</time><name>PT13061</name></trkpt>
<trkpt lat="51.817729" lon="03.980283"><ele>-2.1</ele><time>2023-12-06T15:29:15Z</time><name>PT13062</name></trkpt>
<trkpt lat="51.817728" lon="03.980303"><ele>-2</ele><time>2023-12-06T15:29:16Z</time><name>PT13063</name></trkpt>
<trkpt lat="51.817727" lon="03.980323"><ele>-1.8</ele><time>2023-12-06T15:29:17Z</time><name>PT13064</name></trkpt>
<trkpt lat="51.817724" lon="03.980339"><ele>-1.6</ele><time>2023-12-06T15:29:18Z</time><name>PT13065</name></trkpt>
<trkpt lat="51.817722" lon="03.980358"><ele>-1.5</ele><time>2023-12-06T15:29:19Z</time><name>PT13066</name></trkpt>
<trkpt lat="51.817720" lon="03.980373"><ele>-1.4</ele><time>2023-12-06T15:29:20Z</time><name>PT13067</name></trkpt>
<trkpt lat="51.817716" lon="03.980392"><ele>-1.4</ele><time>2023-12-06T15:29:21Z</time><name>PT13068</name></trkpt>
<trkpt lat="51.817717" lon="03.980411"><ele>-1.6</ele><time>2023-12-06T15:29:22Z</time><name>PT13069</name></trkpt>
<trkpt lat="51.817716" lon="03.980431"><ele>-1.8</ele><time>2023-12-06T15:29:23Z</time><name>PT13070</name></trkpt>
<trkpt lat="51.817715" lon="03.980450"><ele>-2</ele><time>2023-12-06T15:29:24Z</time><name>PT13071</name></trkpt>
<trkpt lat="51.817713" lon="03.980469"><ele>-2.1</ele><time>2023-12-06T15:29:25Z</time><name>PT13072</name></trkpt>
<trkpt lat="51.817712" lon="03.980485"><ele>-2</ele><time>2023-12-06T15:29:26Z</time><name>PT13073</name></trkpt>
<trkpt lat="51.817711" lon="03.980498"><ele>-1.8</ele><time>2023-12-06T15:29:27Z</time><name>PT13074</name></trkpt>
<trkpt lat="51.817710" lon="03.980514"><ele>-2</ele><time>2023-12-06T15:29:28Z</time><name>PT13075</name></trkpt>
<trkpt lat="51.817710" lon="03.980535"><ele>-1.9</ele><time>2023-12-06T15:29:30Z</time><name>PT13076</name></trkpt>
<trkpt lat="51.817711" lon="03.980551"><ele>-1.9</ele><time>2023-12-06T15:29:30Z</time><name>PT13077</name></trkpt>
<trkpt lat="51.817709" lon="03.980568"><ele>-2</ele><time>2023-12-06T15:29:31Z</time><name>PT13078</name></trkpt>
<trkpt lat="51.817707" lon="03.980584"><ele>-1.9</ele><time>2023-12-06T15:29:33Z</time><name>PT13079</name></trkpt>
<trkpt lat="51.817707" lon="03.980602"><ele>-1.9</ele><time>2023-12-06T15:29:33Z</time><name>PT13080</name></trkpt>
<trkpt lat="51.817707" lon="03.980615"><ele>-2</ele><time>2023-12-06T15:29:34Z</time><name>PT13081</name></trkpt>
<trkpt lat="51.817707" lon="03.980627"><ele>-1.9</ele><time>2023-12-06T15:29:35Z</time><name>PT13082</name></trkpt>
<trkpt lat="51.817709" lon="03.980640"><ele>-1.9</ele><time>2023-12-06T15:29:36Z</time><name>PT13083</name></trkpt>
<trkpt lat="51.817709" lon="03.980659"><ele>-1.9</ele><time>2023-12-06T15:29:37Z</time><name>PT13084</name></trkpt>
<trkpt lat="51.817710" lon="03.980679"><ele>-1.8</ele><time>2023-12-06T15:29:38Z</time><name>PT13085</name></trkpt>
<trkpt lat="51.817712" lon="03.980699"><ele>-1.8</ele><time>2023-12-06T15:29:39Z</time><name>PT13086</name></trkpt>
<trkpt lat="51.817714" lon="03.980719"><ele>-1.6</ele><time>2023-12-06T15:29:40Z</time><name>PT13087</name></trkpt>
<trkpt lat="51.817714" lon="03.980735"><ele>-1.7</ele><time>2023-12-06T15:29:42Z</time><name>PT13088</name></trkpt>
<trkpt lat="51.817715" lon="03.980747"><ele>-1.8</ele><time>2023-12-06T15:29:42Z</time><name>PT13089</name></trkpt>
<trkpt lat="51.817716" lon="03.980757"><ele>-1.9</ele><time>2023-12-06T15:29:43Z</time><name>PT13090</name></trkpt>
<trkpt lat="51.817716" lon="03.980772"><ele>-1.9</ele><time>2023-12-06T15:29:44Z</time><name>PT13091</name></trkpt>
<trkpt lat="51.817716" lon="03.980787"><ele>-2</ele><time>2023-12-06T15:29:45Z</time><name>PT13092</name></trkpt>
<trkpt lat="51.817715" lon="03.980805"><ele>-2</ele><time>2023-12-06T15:29:47Z</time><name>PT13093</name></trkpt>
<trkpt lat="51.817714" lon="03.980822"><ele>-2</ele><time>2023-12-06T15:29:48Z</time><name>PT13094</name></trkpt>
<trkpt lat="51.817714" lon="03.980837"><ele>-1.9</ele><time>2023-12-06T15:29:48Z</time><name>PT13095</name></trkpt>
<trkpt lat="51.817715" lon="03.980852"><ele>-2</ele><time>2023-12-06T15:29:49Z</time><name>PT13096</name></trkpt>
<trkpt lat="51.817715" lon="03.980865"><ele>-1.9</ele><time>2023-12-06T15:29:51Z</time><name>PT13097</name></trkpt>
<trkpt lat="51.817715" lon="03.980881"><ele>-2</ele><time>2023-12-06T15:29:51Z</time><name>PT13098</name></trkpt>
<trkpt lat="51.817713" lon="03.980901"><ele>-2.1</ele><time>2023-12-06T15:29:52Z</time><name>PT13099</name></trkpt>
<trkpt lat="51.817711" lon="03.980921"><ele>-2.1</ele><time>2023-12-06T15:29:54Z</time><name>PT13100</name></trkpt>
<trkpt lat="51.817709" lon="03.980938"><ele>-2.1</ele><time>2023-12-06T15:29:54Z</time><name>PT13101</name></trkpt>
<trkpt lat="51.817709" lon="03.980953"><ele>-2.3</ele><time>2023-12-06T15:29:55Z</time><name>PT13102</name></trkpt>
<trkpt lat="51.817711" lon="03.980966"><ele>-2.1</ele><time>2023-12-06T15:29:57Z</time><name>PT13103</name></trkpt>
<trkpt lat="51.817712" lon="03.980981"><ele>-2</ele><time>2023-12-06T15:29:57Z</time><name>PT13104</name></trkpt>
<trkpt lat="51.817712" lon="03.980999"><ele>-1.7</ele><time>2023-12-06T15:29:58Z</time><name>PT13105</name></trkpt>
<trkpt lat="51.817711" lon="03.981017"><ele>-1.8</ele><time>2023-12-06T15:30:00Z</time><name>PT13106</name></trkpt>
<trkpt lat="51.817711" lon="03.981028"><ele>-1.6</ele><time>2023-12-06T15:30:00Z</time><name>PT13107</name></trkpt>
<trkpt lat="51.817714" lon="03.981040"><ele>-1.7</ele><time>2023-12-06T15:30:01Z</time><name>PT13108</name></trkpt>
<trkpt lat="51.817715" lon="03.981055"><ele>-1.9</ele><time>2023-12-06T15:30:03Z</time><name>PT13109</name></trkpt>
<trkpt lat="51.817714" lon="03.981064"><ele>-1.9</ele><time>2023-12-06T15:30:03Z</time><name>PT13110</name></trkpt>
<trkpt lat="51.817713" lon="03.981068"><ele>-1.7</ele><time>2023-12-06T15:30:04Z</time><name>PT13111</name></trkpt>
<trkpt lat="51.817714" lon="03.981081"><ele>-1.9</ele><time>2023-12-06T15:30:06Z</time><name>PT13112</name></trkpt>
<trkpt lat="51.817716" lon="03.981100"><ele>-1.8</ele><time>2023-12-06T15:30:06Z</time><name>PT13113</name></trkpt>
<trkpt lat="51.817720" lon="03.981117"><ele>-1.6</ele><time>2023-12-06T15:30:07Z</time><name>PT13114</name></trkpt>
<trkpt lat="51.817718" lon="03.981129"><ele>-1.6</ele><time>2023-12-06T15:30:09Z</time><name>PT13115</name></trkpt>
<trkpt lat="51.817719" lon="03.981145"><ele>-1.6</ele><time>2023-12-06T15:30:09Z</time><name>PT13116</name></trkpt>
<trkpt lat="51.817721" lon="03.981160"><ele>-1.6</ele><time>2023-12-06T15:30:10Z</time><name>PT13117</name></trkpt>
<trkpt lat="51.817720" lon="03.981175"><ele>-1.6</ele><time>2023-12-06T15:30:12Z</time><name>PT13118</name></trkpt>
<trkpt lat="51.817718" lon="03.981194"><ele>-1.6</ele><time>2023-12-06T15:30:12Z</time><name>PT13119</name></trkpt>
<trkpt lat="51.817716" lon="03.981211"><ele>-1.6</ele><time>2023-12-06T15:30:13Z</time><name>PT13120</name></trkpt>
<trkpt lat="51.817716" lon="03.981225"><ele>-1.6</ele><time>2023-12-06T15:30:15Z</time><name>PT13121</name></trkpt>
<trkpt lat="51.817716" lon="03.981241"><ele>-1.6</ele><time>2023-12-06T15:30:15Z</time><name>PT13122</name></trkpt>
<trkpt lat="51.817713" lon="03.981255"><ele>-1.5</ele><time>2023-12-06T15:30:16Z</time><name>PT13123</name></trkpt>
<trkpt lat="51.817711" lon="03.981269"><ele>-1.5</ele><time>2023-12-06T15:30:18Z</time><name>PT13124</name></trkpt>
<trkpt lat="51.817711" lon="03.981286"><ele>-1.5</ele><time>2023-12-06T15:30:18Z</time><name>PT13125</name></trkpt>
<trkpt lat="51.817715" lon="03.981299"><ele>-1.5</ele><time>2023-12-06T15:30:19Z</time><name>PT13126</name></trkpt>
<trkpt lat="51.817716" lon="03.981309"><ele>-1.6</ele><time>2023-12-06T15:30:21Z</time><name>PT13127</name></trkpt>
<trkpt lat="51.817716" lon="03.981321"><ele>-1.7</ele><time>2023-12-06T15:30:21Z</time><name>PT13128</name></trkpt>
<trkpt lat="51.817718" lon="03.981337"><ele>-1.8</ele><time>2023-12-06T15:30:22Z</time><name>PT13129</name></trkpt>
<trkpt lat="51.817714" lon="03.981358"><ele>-1.9</ele><time>2023-12-06T15:30:24Z</time><name>PT13130</name></trkpt>
<trkpt lat="51.817713" lon="03.981379"><ele>-1.9</ele><time>2023-12-06T15:30:24Z</time><name>PT13131</name></trkpt>
<trkpt lat="51.817712" lon="03.981400"><ele>-1.8</ele><time>2023-12-06T15:30:25Z</time><name>PT13132</name></trkpt>
<trkpt lat="51.817711" lon="03.981422"><ele>-1.9</ele><time>2023-12-06T15:30:27Z</time><name>PT13133</name></trkpt>
<trkpt lat="51.817713" lon="03.981437"><ele>-1.9</ele><time>2023-12-06T15:30:27Z</time><name>PT13134</name></trkpt>
<trkpt lat="51.817716" lon="03.981451"><ele>-1.9</ele><time>2023-12-06T15:30:28Z</time><name>PT13135</name></trkpt>
<trkpt lat="51.817718" lon="03.981466"><ele>-2</ele><time>2023-12-06T15:30:30Z</time><name>PT13136</name></trkpt>
<trkpt lat="51.817721" lon="03.981485"><ele>-1.9</ele><time>2023-12-06T15:30:30Z</time><name>PT13137</name></trkpt>
<trkpt lat="51.817722" lon="03.981507"><ele>-1.7</ele><time>2023-12-06T15:30:31Z</time><name>PT13138</name></trkpt>
<trkpt lat="51.817722" lon="03.981526"><ele>-1.7</ele><time>2023-12-06T15:30:33Z</time><name>PT13139</name></trkpt>
<trkpt lat="51.817722" lon="03.981544"><ele>-1.7</ele><time>2023-12-06T15:30:33Z</time><name>PT13140</name></trkpt>
<trkpt lat="51.817720" lon="03.981560"><ele>-1.6</ele><time>2023-12-06T15:30:34Z</time><name>PT13141</name></trkpt>
<trkpt lat="51.817720" lon="03.981572"><ele>-1.4</ele><time>2023-12-06T15:30:36Z</time><name>PT13142</name></trkpt>
<trkpt lat="51.817721" lon="03.981585"><ele>-1.4</ele><time>2023-12-06T15:30:36Z</time><name>PT13143</name></trkpt>
<trkpt lat="51.817721" lon="03.981599"><ele>-1.4</ele><time>2023-12-06T15:30:37Z</time><name>PT13144</name></trkpt>
<trkpt lat="51.817722" lon="03.981613"><ele>-1.4</ele><time>2023-12-06T15:30:38Z</time><name>PT13145</name></trkpt>
<trkpt lat="51.817721" lon="03.981635"><ele>-1.5</ele><time>2023-12-06T15:30:39Z</time><name>PT13146</name></trkpt>
<trkpt lat="51.817721" lon="03.981657"><ele>-1.6</ele><time>2023-12-06T15:30:40Z</time><name>PT13147</name></trkpt>
<trkpt lat="51.817723" lon="03.981671"><ele>-1.7</ele><time>2023-12-06T15:30:41Z</time><name>PT13148</name></trkpt>
<trkpt lat="51.817726" lon="03.981684"><ele>-1.7</ele><time>2023-12-06T15:30:42Z</time><name>PT13149</name></trkpt>
<trkpt lat="51.817728" lon="03.981695"><ele>-2</ele><time>2023-12-06T15:30:43Z</time><name>PT13150</name></trkpt>
<trkpt lat="51.817727" lon="03.981706"><ele>-2.1</ele><time>2023-12-06T15:30:45Z</time><name>PT13151</name></trkpt>
<trkpt lat="51.817727" lon="03.981721"><ele>-2.2</ele><time>2023-12-06T15:30:45Z</time><name>PT13152</name></trkpt>
<trkpt lat="51.817727" lon="03.981741"><ele>-2.1</ele><time>2023-12-06T15:30:46Z</time><name>PT13153</name></trkpt>
<trkpt lat="51.817727" lon="03.981758"><ele>-2</ele><time>2023-12-06T15:30:48Z</time><name>PT13154</name></trkpt>
<trkpt lat="51.817727" lon="03.981774"><ele>-1.9</ele><time>2023-12-06T15:30:48Z</time><name>PT13155</name></trkpt>
<trkpt lat="51.817728" lon="03.981792"><ele>-2</ele><time>2023-12-06T15:30:49Z</time><name>PT13156</name></trkpt>
<trkpt lat="51.817728" lon="03.981805"><ele>-2</ele><time>2023-12-06T15:30:51Z</time><name>PT13157</name></trkpt>
<trkpt lat="51.817728" lon="03.981819"><ele>-2</ele><time>2023-12-06T15:30:51Z</time><name>PT13158</name></trkpt>
<trkpt lat="51.817730" lon="03.981840"><ele>-1.9</ele><time>2023-12-06T15:30:52Z</time><name>PT13159</name></trkpt>
<trkpt lat="51.817730" lon="03.981855"><ele>-1.7</ele><time>2023-12-06T15:30:53Z</time><name>PT13160</name></trkpt>
<trkpt lat="51.817732" lon="03.981870"><ele>-1.7</ele><time>2023-12-06T15:30:54Z</time><name>PT13161</name></trkpt>
<trkpt lat="51.817732" lon="03.981886"><ele>-1.7</ele><time>2023-12-06T15:30:55Z</time><name>PT13162</name></trkpt>
<trkpt lat="51.817732" lon="03.981906"><ele>-1.8</ele><time>2023-12-06T15:30:57Z</time><name>PT13163</name></trkpt>
<trkpt lat="51.817732" lon="03.981924"><ele>-1.8</ele><time>2023-12-06T15:30:57Z</time><name>PT13164</name></trkpt>
<trkpt lat="51.817732" lon="03.981940"><ele>-1.8</ele><time>2023-12-06T15:30:58Z</time><name>PT13165</name></trkpt>
<trkpt lat="51.817732" lon="03.981956"><ele>-1.8</ele><time>2023-12-06T15:31:00Z</time><name>PT13166</name></trkpt>
<trkpt lat="51.817734" lon="03.981972"><ele>-1.9</ele><time>2023-12-06T15:31:00Z</time><name>PT13167</name></trkpt>
<trkpt lat="51.817734" lon="03.981988"><ele>-1.9</ele><time>2023-12-06T15:31:01Z</time><name>PT13168</name></trkpt>
<trkpt lat="51.817734" lon="03.982005"><ele>-1.8</ele><time>2023-12-06T15:31:03Z</time><name>PT13169</name></trkpt>
<trkpt lat="51.817733" lon="03.982022"><ele>-1.9</ele><time>2023-12-06T15:31:03Z</time><name>PT13170</name></trkpt>
<trkpt lat="51.817732" lon="03.982038"><ele>-1.7</ele><time>2023-12-06T15:31:04Z</time><name>PT13171</name></trkpt>
<trkpt lat="51.817732" lon="03.982051"><ele>-1.7</ele><time>2023-12-06T15:31:06Z</time><name>PT13172</name></trkpt>
<trkpt lat="51.817733" lon="03.982068"><ele>-1.6</ele><time>2023-12-06T15:31:06Z</time><name>PT13173</name></trkpt>
<trkpt lat="51.817734" lon="03.982083"><ele>-1.6</ele><time>2023-12-06T15:31:07Z</time><name>PT13174</name></trkpt>
<trkpt lat="51.817734" lon="03.982099"><ele>-1.6</ele><time>2023-12-06T15:31:09Z</time><name>PT13175</name></trkpt>
<trkpt lat="51.817736" lon="03.982113"><ele>-1.6</ele><time>2023-12-06T15:31:09Z</time><name>PT13176</name></trkpt>
<trkpt lat="51.817737" lon="03.982129"><ele>-1.7</ele><time>2023-12-06T15:31:10Z</time><name>PT13177</name></trkpt>
<trkpt lat="51.817736" lon="03.982146"><ele>-1.8</ele><time>2023-12-06T15:31:12Z</time><name>PT13178</name></trkpt>
<trkpt lat="51.817736" lon="03.982164"><ele>-1.6</ele><time>2023-12-06T15:31:12Z</time><name>PT13179</name></trkpt>
<trkpt lat="51.817739" lon="03.982181"><ele>-1.6</ele><time>2023-12-06T15:31:13Z</time><name>PT13180</name></trkpt>
<trkpt lat="51.817740" lon="03.982201"><ele>-1.8</ele><time>2023-12-06T15:31:15Z</time><name>PT13181</name></trkpt>
<trkpt lat="51.817741" lon="03.982215"><ele>-1.8</ele><time>2023-12-06T15:31:15Z</time><name>PT13182</name></trkpt>
<trkpt lat="51.817743" lon="03.982229"><ele>-2</ele><time>2023-12-06T15:31:16Z</time><name>PT13183</name></trkpt>
<trkpt lat="51.817743" lon="03.982247"><ele>-2.2</ele><time>2023-12-06T15:31:18Z</time><name>PT13184</name></trkpt>
<trkpt lat="51.817744" lon="03.982264"><ele>-2.1</ele><time>2023-12-06T15:31:18Z</time><name>PT13185</name></trkpt>
<trkpt lat="51.817745" lon="03.982282"><ele>-2.1</ele><time>2023-12-06T15:31:19Z</time><name>PT13186</name></trkpt>
<trkpt lat="51.817745" lon="03.982300"><ele>-2.1</ele><time>2023-12-06T15:31:21Z</time><name>PT13187</name></trkpt>
<trkpt lat="51.817746" lon="03.982317"><ele>-2.1</ele><time>2023-12-06T15:31:21Z</time><name>PT13188</name></trkpt>
<trkpt lat="51.817748" lon="03.982332"><ele>-2</ele><time>2023-12-06T15:31:22Z</time><name>PT13189</name></trkpt>
<trkpt lat="51.817749" lon="03.982348"><ele>-1.9</ele><time>2023-12-06T15:31:24Z</time><name>PT13190</name></trkpt>
<trkpt lat="51.817751" lon="03.982363"><ele>-2</ele><time>2023-12-06T15:31:24Z</time><name>PT13191</name></trkpt>
<trkpt lat="51.817752" lon="03.982379"><ele>-2</ele><time>2023-12-06T15:31:25Z</time><name>PT13192</name></trkpt>
<trkpt lat="51.817753" lon="03.982395"><ele>-1.9</ele><time>2023-12-06T15:31:27Z</time><name>PT13193</name></trkpt>
<trkpt lat="51.817754" lon="03.982412"><ele>-1.8</ele><time>2023-12-06T15:31:27Z</time><name>PT13194</name></trkpt>
<trkpt lat="51.817754" lon="03.982429"><ele>-2</ele><time>2023-12-06T15:31:28Z</time><name>PT13195</name></trkpt>
<trkpt lat="51.817754" lon="03.982445"><ele>-2.1</ele><time>2023-12-06T15:31:29Z</time><name>PT13196</name></trkpt>
<trkpt lat="51.817752" lon="03.982462"><ele>-2.1</ele><time>2023-12-06T15:31:30Z</time><name>PT13197</name></trkpt>
<trkpt lat="51.817752" lon="03.982477"><ele>-2</ele><time>2023-12-06T15:31:31Z</time><name>PT13198</name></trkpt>
<trkpt lat="51.817750" lon="03.982494"><ele>-2</ele><time>2023-12-06T15:31:32Z</time><name>PT13199</name></trkpt>
<trkpt lat="51.817750" lon="03.982511"><ele>-1.9</ele><time>2023-12-06T15:31:33Z</time><name>PT13200</name></trkpt>
<trkpt lat="51.817748" lon="03.982529"><ele>-2</ele><time>2023-12-06T15:31:34Z</time><name>PT13201</name></trkpt>
<trkpt lat="51.817746" lon="03.982547"><ele>-2.1</ele><time>2023-12-06T15:31:35Z</time><name>PT13202</name></trkpt>
<trkpt lat="51.817743" lon="03.982563"><ele>-2.1</ele><time>2023-12-06T15:31:36Z</time><name>PT13203</name></trkpt>
<trkpt lat="51.817740" lon="03.982571"><ele>-2.4</ele><time>2023-12-06T15:31:37Z</time><name>PT13204</name></trkpt>
<trkpt lat="51.817736" lon="03.982577"><ele>-2.5</ele><time>2023-12-06T15:31:38Z</time><name>PT13205</name></trkpt>
<trkpt lat="51.817731" lon="03.982587"><ele>-2.6</ele><time>2023-12-06T15:31:39Z</time><name>PT13206</name></trkpt>
<trkpt lat="51.817725" lon="03.982612"><ele>-2.5</ele><time>2023-12-06T15:31:40Z</time><name>PT13207</name></trkpt>
<trkpt lat="51.817720" lon="03.982636"><ele>-2.5</ele><time>2023-12-06T15:31:42Z</time><name>PT13208</name></trkpt>
<trkpt lat="51.817715" lon="03.982652"><ele>-2.5</ele><time>2023-12-06T15:31:42Z</time><name>PT13209</name></trkpt>
<trkpt lat="51.817711" lon="03.982664"><ele>-2.3</ele><time>2023-12-06T15:31:43Z</time><name>PT13210</name></trkpt>
<trkpt lat="51.817713" lon="03.982671"><ele>-2.2</ele><time>2023-12-06T15:31:45Z</time><name>PT13211</name></trkpt>
<trkpt lat="51.817712" lon="03.982683"><ele>-2.2</ele><time>2023-12-06T15:31:45Z</time><name>PT13212</name></trkpt>
<trkpt lat="51.817707" lon="03.982698"><ele>-2.2</ele><time>2023-12-06T15:31:46Z</time><name>PT13213</name></trkpt>
<trkpt lat="51.817704" lon="03.982708"><ele>-2.1</ele><time>2023-12-06T15:31:48Z</time><name>PT13214</name></trkpt>
<trkpt lat="51.817700" lon="03.982716"><ele>-2.2</ele><time>2023-12-06T15:31:48Z</time><name>PT13215</name></trkpt>
<trkpt lat="51.817699" lon="03.982723"><ele>-2.1</ele><time>2023-12-06T15:31:49Z</time><name>PT13216</name></trkpt>
<trkpt lat="51.817699" lon="03.982731"><ele>-2.3</ele><time>2023-12-06T15:31:51Z</time><name>PT13217</name></trkpt>
<trkpt lat="51.817699" lon="03.982741"><ele>-2.3</ele><time>2023-12-06T15:31:51Z</time><name>PT13218</name></trkpt>
<trkpt lat="51.817700" lon="03.982754"><ele>-2.4</ele><time>2023-12-06T15:31:52Z</time><name>PT13219</name></trkpt>
<trkpt lat="51.817698" lon="03.982765"><ele>-2.5</ele><time>2023-12-06T15:31:54Z</time><name>PT13220</name></trkpt>
<trkpt lat="51.817698" lon="03.982770"><ele>-2.5</ele><time>2023-12-06T15:31:54Z</time><name>PT13221</name></trkpt>
<trkpt lat="51.817699" lon="03.982774"><ele>-2.3</ele><time>2023-12-06T15:31:55Z</time><name>PT13222</name></trkpt>
<trkpt lat="51.817699" lon="03.982776"><ele>-2.2</ele><time>2023-12-06T15:31:57Z</time><name>PT13223</name></trkpt>
<trkpt lat="51.817699" lon="03.982778"><ele>-2.2</ele><time>2023-12-06T15:31:57Z</time><name>PT13224</name></trkpt></trkseg></trk></gpx>